<?xml version='1.0' encoding='UTF-8'?><gpx version="1.1" creator="JPX - https://github.com/jenetics/jpx" xmlns="http://www.topografix.com/GPX/1/1"><trk><trkseg><trkpt lat="45.015373260243415" lon="9.127362591397706"><ele>92.16666666666667</ele><time>2026-04-19T14:05:31Z</time></trkpt><trkpt lat="45.0154170589996" lon="9.127469254293215"><ele>92.33333333333334</ele><time>2026-04-19T14:05:32Z</time></trkpt><trkpt lat="45.01544974537869" lon="9.127561016508132"><ele>92.5</ele><time>2026-04-19T14:05:33Z</time></trkpt><trkpt lat="45.01544754582319" lon="9.127689874379039"><ele>92.66666666666667</ele><time>2026-04-19T14:05:34Z</time></trkpt><trkpt lat="45.015477750168664" lon="9.127803411562052"><ele>92.83333333333333</ele><time>2026-04-19T14:05:35Z</time></trkpt><trkpt lat="45.01550417454933" lon="9.127904608403643"><ele>93.0</ele><time>2026-04-19T14:05:36Z</time></trkpt><trkpt lat="45.015529593554966" lon="9.128004636364427"><ele>93.0</ele><time>2026-04-19T14:05:37Z</time></trkpt><trkpt lat="45.01555333574134" lon="9.128098065779174"><ele>93.0</ele><time>2026-04-19T14:05:38Z</time></trkpt><trkpt lat="45.015575882796036" lon="9.128186792164465"><ele>93.0</ele><time>2026-04-19T14:05:39Z</time></trkpt><trkpt lat="45.01559703788101" lon="9.12827390144572"><ele>93.0</ele><time>2026-04-19T14:05:40Z</time></trkpt><trkpt lat="45.015639320282" lon="9.12842604240998"><ele>93.0</ele><time>2026-04-19T14:05:42Z</time></trkpt><trkpt lat="45.01567415985781" lon="9.128525477241837"><ele>93.0</ele><time>2026-04-19T14:05:44Z</time></trkpt><trkpt lat="45.01571645455468" lon="9.128669225574747"><ele>92.60000000000001</ele><time>2026-04-19T14:05:49Z</time></trkpt><trkpt lat="45.0158421251909" lon="9.12872567968992"><ele>92.2</ele><time>2026-04-19T14:05:51Z</time></trkpt><trkpt lat="45.01591061949845" lon="9.128703002111884"><ele>91.8</ele><time>2026-04-19T14:05:52Z</time></trkpt><trkpt lat="45.01601809939407" lon="9.128704448101484"><ele>91.4</ele><time>2026-04-19T14:05:54Z</time></trkpt><trkpt lat="45.01611182965274" lon="9.128833797591263"><ele>91.0</ele><time>2026-04-19T14:05:56Z</time></trkpt><trkpt lat="45.016139543604204" lon="9.128945116170257"><ele>90.8</ele><time>2026-04-19T14:05:57Z</time></trkpt><trkpt lat="45.01616537361962" lon="9.129094908952505"><ele>90.6</ele><time>2026-04-19T14:05:58Z</time></trkpt><trkpt lat="45.01619116254329" lon="9.129231083156057"><ele>90.4</ele><time>2026-04-19T14:05:59Z</time></trkpt><trkpt lat="45.016219668294156" lon="9.129375033968229"><ele>90.2</ele><time>2026-04-19T14:06:00Z</time></trkpt><trkpt lat="45.01624785696499" lon="9.129501578835523"><ele>90.0</ele><time>2026-04-19T14:06:01Z</time></trkpt><trkpt lat="45.01627179273099" lon="9.129620388507044"><ele>90.0</ele><time>2026-04-19T14:06:02Z</time></trkpt><trkpt lat="45.01628836750456" lon="9.129737181573432"><ele>90.0</ele><time>2026-04-19T14:06:03Z</time></trkpt><trkpt lat="45.016308923688506" lon="9.129864799260773"><ele>90.0</ele><time>2026-04-19T14:06:04Z</time></trkpt><trkpt lat="45.016334395318566" lon="9.129993790834064"><ele>90.0</ele><time>2026-04-19T14:06:05Z</time></trkpt><trkpt lat="45.01635882825397" lon="9.13011938417238"><ele>90.0</ele><time>2026-04-19T14:06:06Z</time></trkpt><trkpt lat="45.01638272990493" lon="9.130238447887551"><ele>90.0</ele><time>2026-04-19T14:06:07Z</time></trkpt><trkpt lat="45.01640606823008" lon="9.13034168731311"><ele>90.0</ele><time>2026-04-19T14:06:08Z</time></trkpt><trkpt lat="45.0164247217022" lon="9.13043766469703"><ele>90.0</ele><time>2026-04-19T14:06:09Z</time></trkpt><trkpt lat="45.01643450334022" lon="9.130537185510306"><ele>90.0</ele><time>2026-04-19T14:06:10Z</time></trkpt><trkpt lat="45.01645034292078" lon="9.130651772733888"><ele>90.0</ele><time>2026-04-19T14:06:11Z</time></trkpt><trkpt lat="45.016485732419" lon="9.130768697464607"><ele>90.0</ele><time>2026-04-19T14:06:12Z</time></trkpt><trkpt lat="45.016539582850996" lon="9.13089349190586"><ele>90.0</ele><time>2026-04-19T14:06:13Z</time></trkpt><trkpt lat="45.01660076714747" lon="9.131013514701207"><ele>90.0</ele><time>2026-04-19T14:06:14Z</time></trkpt><trkpt lat="45.01665215056359" lon="9.131116838439276"><ele>90.0</ele><time>2026-04-19T14:06:15Z</time></trkpt><trkpt lat="45.01670467243106" lon="9.131221166063918"><ele>90.0</ele><time>2026-04-19T14:06:16Z</time></trkpt><trkpt lat="45.016762680915" lon="9.131333451289787"><ele>90.0</ele><time>2026-04-19T14:06:17Z</time></trkpt><trkpt lat="45.0168248368586" lon="9.131443669679511"><ele>89.8</ele><time>2026-04-19T14:06:18Z</time></trkpt><trkpt lat="45.016885337036236" lon="9.131545608835792"><ele>89.6</ele><time>2026-04-19T14:06:19Z</time></trkpt><trkpt lat="45.01694979143518" lon="9.13164722309035"><ele>89.4</ele><time>2026-04-19T14:06:20Z</time></trkpt><trkpt lat="45.01701041975403" lon="9.131744183268202"><ele>89.2</ele><time>2026-04-19T14:06:21Z</time></trkpt><trkpt lat="45.01706910947194" lon="9.131838882648758"><ele>89.0</ele><time>2026-04-19T14:06:22Z</time></trkpt><trkpt lat="45.01712768192273" lon="9.1319337327714"><ele>89.0</ele><time>2026-04-19T14:06:23Z</time></trkpt><trkpt lat="45.01718154468375" lon="9.13201739084081"><ele>89.0</ele><time>2026-04-19T14:06:24Z</time></trkpt><trkpt lat="45.017235525459945" lon="9.132105302617946"><ele>89.0</ele><time>2026-04-19T14:06:25Z</time></trkpt><trkpt lat="45.017293625399724" lon="9.132183185366447"><ele>89.0</ele><time>2026-04-19T14:06:26Z</time></trkpt><trkpt lat="45.01736133228269" lon="9.132256603814612"><ele>89.0</ele><time>2026-04-19T14:06:27Z</time></trkpt><trkpt lat="45.017421305367606" lon="9.132326550267061"><ele>89.0</ele><time>2026-04-19T14:06:28Z</time></trkpt><trkpt lat="45.0174826720377" lon="9.132394950331296"><ele>88.83333333333334</ele><time>2026-04-19T14:06:29Z</time></trkpt><trkpt lat="45.01752943820924" lon="9.132469323170966"><ele>88.66666666666667</ele><time>2026-04-19T14:06:30Z</time></trkpt><trkpt lat="45.017566649214054" lon="9.132545164214045"><ele>88.5</ele><time>2026-04-19T14:06:31Z</time></trkpt><trkpt lat="45.01760745247454" lon="9.13263056553468"><ele>88.33333333333333</ele><time>2026-04-19T14:06:32Z</time></trkpt><trkpt lat="45.01766830444122" lon="9.132729591193826"><ele>88.16666666666666</ele><time>2026-04-19T14:06:33Z</time></trkpt><trkpt lat="45.01773478414214" lon="9.132853219934207"><ele>88.0</ele><time>2026-04-19T14:06:34Z</time></trkpt><trkpt lat="45.01781059610028" lon="9.133004842087765"><ele>88.0</ele><time>2026-04-19T14:06:35Z</time></trkpt><trkpt lat="45.01789474050461" lon="9.133170676027827"><ele>88.0</ele><time>2026-04-19T14:06:36Z</time></trkpt><trkpt lat="45.01798974552155" lon="9.133340087368953"><ele>88.0</ele><time>2026-04-19T14:06:37Z</time></trkpt><trkpt lat="45.018086182187936" lon="9.133502019319732"><ele>88.0</ele><time>2026-04-19T14:06:38Z</time></trkpt><trkpt lat="45.01818598688909" lon="9.133656478937317"><ele>88.25</ele><time>2026-04-19T14:06:39Z</time></trkpt><trkpt lat="45.01828877922864" lon="9.133816865786699"><ele>88.5</ele><time>2026-04-19T14:06:40Z</time></trkpt><trkpt lat="45.01838948770836" lon="9.133976494140303"><ele>88.75</ele><time>2026-04-19T14:06:41Z</time></trkpt><trkpt lat="45.018479910882085" lon="9.134124015122524"><ele>89.0</ele><time>2026-04-19T14:06:42Z</time></trkpt><trkpt lat="45.01856187155032" lon="9.134264444261726"><ele>88.5</ele><time>2026-04-19T14:06:43Z</time></trkpt><trkpt lat="45.01864386050659" lon="9.134396528879279"><ele>88.0</ele><time>2026-04-19T14:06:44Z</time></trkpt><trkpt lat="45.01872201055261" lon="9.134518637601236"><ele>87.5</ele><time>2026-04-19T14:06:45Z</time></trkpt><trkpt lat="45.01879055552585" lon="9.134632677643198"><ele>87.0</ele><time>2026-04-19T14:06:46Z</time></trkpt><trkpt lat="45.01886071941611" lon="9.134744965962444"><ele>87.0</ele><time>2026-04-19T14:06:47Z</time></trkpt><trkpt lat="45.018932705285465" lon="9.13486379851183"><ele>87.0</ele><time>2026-04-19T14:06:48Z</time></trkpt><trkpt lat="45.019007215591806" lon="9.13498874991197"><ele>87.0</ele><time>2026-04-19T14:06:49Z</time></trkpt><trkpt lat="45.01908378095752" lon="9.135116556832093"><ele>87.0</ele><time>2026-04-19T14:06:50Z</time></trkpt><trkpt lat="45.01916537770461" lon="9.135242561843798"><ele>87.0</ele><time>2026-04-19T14:06:51Z</time></trkpt><trkpt lat="45.019245887314604" lon="9.135372674400559"><ele>87.0</ele><time>2026-04-19T14:06:52Z</time></trkpt><trkpt lat="45.01932861873384" lon="9.135505876577328"><ele>87.0</ele><time>2026-04-19T14:06:52.997Z</time></trkpt><trkpt lat="45.01941567475168" lon="9.13564661587781"><ele>87.0</ele><time>2026-04-19T14:06:53.997Z</time></trkpt><trkpt lat="45.019503638759666" lon="9.135800730487178"><ele>87.0</ele><time>2026-04-19T14:06:54.997Z</time></trkpt><trkpt lat="45.01959304651831" lon="9.135958873064556"><ele>87.0</ele><time>2026-04-19T14:06:55.997Z</time></trkpt><trkpt lat="45.01968661404589" lon="9.136123445211506"><ele>87.0</ele><time>2026-04-19T14:06:56.997Z</time></trkpt><trkpt lat="45.01978218057609" lon="9.136296990639622"><ele>87.0</ele><time>2026-04-19T14:06:57.997Z</time></trkpt><trkpt lat="45.019875062091806" lon="9.13648088622154"><ele>87.0</ele><time>2026-04-19T14:06:58.997Z</time></trkpt><trkpt lat="45.019962103475805" lon="9.13667870682415"><ele>87.0</ele><time>2026-04-19T14:06:59.997Z</time></trkpt><trkpt lat="45.020044317720696" lon="9.136889527726009"><ele>87.0</ele><time>2026-04-19T14:07:00.997Z</time></trkpt><trkpt lat="45.02012325254377" lon="9.137113412623195"><ele>87.0</ele><time>2026-04-19T14:07:01.997Z</time></trkpt><trkpt lat="45.02019862580934" lon="9.137342547318376"><ele>87.0</ele><time>2026-04-19T14:07:02.997Z</time></trkpt><trkpt lat="45.02027047966464" lon="9.137573243838778"><ele>87.0</ele><time>2026-04-19T14:07:03.997Z</time></trkpt><trkpt lat="45.02033936725983" lon="9.13781182901609"><ele>87.0</ele><time>2026-04-19T14:07:04.998Z</time></trkpt><trkpt lat="45.02040578800491" lon="9.138057571036207"><ele>87.0</ele><time>2026-04-19T14:07:05.998Z</time></trkpt><trkpt lat="45.020474683073836" lon="9.13830123662289"><ele>87.0</ele><time>2026-04-19T14:07:06.998Z</time></trkpt><trkpt lat="45.020538200871094" lon="9.138539227104832"><ele>86.66666666666667</ele><time>2026-04-19T14:07:07.998Z</time></trkpt><trkpt lat="45.02059774625643" lon="9.138773085538856"><ele>86.33333333333334</ele><time>2026-04-19T14:07:08.998Z</time></trkpt><trkpt lat="45.02065842050619" lon="9.139008402544805"><ele>86.0</ele><time>2026-04-19T14:07:09.998Z</time></trkpt><trkpt lat="45.02072211883787" lon="9.13924330613058"><ele>86.0</ele><time>2026-04-19T14:07:10.998Z</time></trkpt><trkpt lat="45.02078688956469" lon="9.139481938302145"><ele>86.0</ele><time>2026-04-19T14:07:11.998Z</time></trkpt><trkpt lat="45.02085362778857" lon="9.139718943696478"><ele>86.0</ele><time>2026-04-19T14:07:12.998Z</time></trkpt><trkpt lat="45.02092161766214" lon="9.139956650677757"><ele>85.33333333333334</ele><time>2026-04-19T14:07:13.998Z</time></trkpt><trkpt lat="45.0209889517836" lon="9.140196123479441"><ele>84.66666666666667</ele><time>2026-04-19T14:07:14.998Z</time></trkpt><trkpt lat="45.021054648881346" lon="9.140434322514288"><ele>84.0</ele><time>2026-04-19T14:07:15.998Z</time></trkpt><trkpt lat="45.02111837156944" lon="9.140666209602184"><ele>84.0</ele><time>2026-04-19T14:07:16.998Z</time></trkpt><trkpt lat="45.02118083892378" lon="9.140887050073003"><ele>84.0</ele><time>2026-04-19T14:07:17.998Z</time></trkpt><trkpt lat="45.02124679027968" lon="9.141106014654568"><ele>84.0</ele><time>2026-04-19T14:07:18.998Z</time></trkpt><trkpt lat="45.02130790940194" lon="9.141318434197897"><ele>84.0</ele><time>2026-04-19T14:07:19.998Z</time></trkpt><trkpt lat="45.021366455367435" lon="9.141531790505999"><ele>84.0</ele><time>2026-04-19T14:07:20.998Z</time></trkpt><trkpt lat="45.02142438090609" lon="9.141751568135133"><ele>84.0</ele><time>2026-04-19T14:07:21.998Z</time></trkpt><trkpt lat="45.021488427390246" lon="9.141980160952352"><ele>83.66666666666667</ele><time>2026-04-19T14:07:22.999Z</time></trkpt><trkpt lat="45.02155372701749" lon="9.142211371866717"><ele>83.33333333333334</ele><time>2026-04-19T14:07:23.999Z</time></trkpt><trkpt lat="45.021619702833995" lon="9.142444722621036"><ele>83.0</ele><time>2026-04-19T14:07:24.999Z</time></trkpt><trkpt lat="45.02168682627944" lon="9.142679819569457"><ele>84.0</ele><time>2026-04-19T14:07:25.999Z</time></trkpt><trkpt lat="45.02175477735473" lon="9.142916427871334"><ele>85.0</ele><time>2026-04-19T14:07:26.999Z</time></trkpt><trkpt lat="45.02182031527114" lon="9.143149307446434"><ele>86.0</ele><time>2026-04-19T14:07:27.999Z</time></trkpt><trkpt lat="45.02188470357342" lon="9.14338431475281"><ele>86.33333333333334</ele><time>2026-04-19T14:07:28.999Z</time></trkpt><trkpt lat="45.02194664985166" lon="9.143620942194286"><ele>86.66666666666667</ele><time>2026-04-19T14:07:29.999Z</time></trkpt><trkpt lat="45.02201039726979" lon="9.143858463269876"><ele>87.0</ele><time>2026-04-19T14:07:30.999Z</time></trkpt><trkpt lat="45.02207553505928" lon="9.144099110374308"><ele>86.33333333333333</ele><time>2026-04-19T14:07:31.999Z</time></trkpt><trkpt lat="45.02214697028165" lon="9.144340309502594"><ele>85.66666666666666</ele><time>2026-04-19T14:07:32.999Z</time></trkpt><trkpt lat="45.022219303830965" lon="9.144587398538805"><ele>85.0</ele><time>2026-04-19T14:07:33.999Z</time></trkpt><trkpt lat="45.02228585996148" lon="9.144832491808067"><ele>85.0</ele><time>2026-04-19T14:07:34.999Z</time></trkpt><trkpt lat="45.02235217552834" lon="9.145076269952037"><ele>85.0</ele><time>2026-04-19T14:07:35.999Z</time></trkpt><trkpt lat="45.022418068073996" lon="9.145319394482954"><ele>85.0</ele><time>2026-04-19T14:07:36.999Z</time></trkpt><trkpt lat="45.02248091701282" lon="9.145568756575523"><ele>85.0</ele><time>2026-04-19T14:07:37.999Z</time></trkpt><trkpt lat="45.0225520242166" lon="9.145814429183314"><ele>85.0</ele><time>2026-04-19T14:07:38.999Z</time></trkpt><trkpt lat="45.02261958721757" lon="9.146057678152744"><ele>85.0</ele><time>2026-04-19T14:07:39.999Z</time></trkpt><trkpt lat="45.022686050541395" lon="9.146302927045866"><ele>85.0</ele><time>2026-04-19T14:07:40.999Z</time></trkpt><trkpt lat="45.02275491699061" lon="9.146539360031687"><ele>85.0</ele><time>2026-04-19T14:07:41.999Z</time></trkpt><trkpt lat="45.02281769657918" lon="9.146778877116153"><ele>85.0</ele><time>2026-04-19T14:07:42.999Z</time></trkpt><trkpt lat="45.02288891198511" lon="9.147023909018888"><ele>85.0</ele><time>2026-04-19T14:07:43.999Z</time></trkpt><trkpt lat="45.02296004828921" lon="9.147271347207077"><ele>85.0</ele><time>2026-04-19T14:07:44.999Z</time></trkpt><trkpt lat="45.02303188404661" lon="9.14752353185137"><ele>85.0</ele><time>2026-04-19T14:07:45.999Z</time></trkpt><trkpt lat="45.023103683872534" lon="9.147774566025136"><ele>85.33333333333333</ele><time>2026-04-19T14:07:46.999Z</time></trkpt><trkpt lat="45.023169449225755" lon="9.14800873451357"><ele>85.66666666666667</ele><time>2026-04-19T14:07:47.999Z</time></trkpt><trkpt lat="45.023233789861486" lon="9.14823692313031"><ele>86.0</ele><time>2026-04-19T14:07:48.999Z</time></trkpt><trkpt lat="45.02328775248157" lon="9.14843445923938"><ele>86.25</ele><time>2026-04-19T14:07:49.999Z</time></trkpt><trkpt lat="45.023340346332695" lon="9.148623466957408"><ele>86.5</ele><time>2026-04-19T14:07:50.999Z</time></trkpt><trkpt lat="45.02338998413283" lon="9.148800158713101"><ele>86.75</ele><time>2026-04-19T14:07:51.999Z</time></trkpt><trkpt lat="45.02343682194076" lon="9.148962878576313"><ele>87.0</ele><time>2026-04-19T14:07:52.999Z</time></trkpt><trkpt lat="45.023482401349334" lon="9.149112284360399"><ele>87.19999999999999</ele><time>2026-04-19T14:07:53.999Z</time></trkpt><trkpt lat="45.02352747277072" lon="9.149255535741155"><ele>87.4</ele><time>2026-04-19T14:07:54.999Z</time></trkpt><trkpt lat="45.02355374667421" lon="9.149406534509056"><ele>87.6</ele><time>2026-04-19T14:07:55.999Z</time></trkpt><trkpt lat="45.02359082690256" lon="9.149541021700525"><ele>87.80000000000001</ele><time>2026-04-19T14:07:56.999Z</time></trkpt><trkpt lat="45.02362599144112" lon="9.149668560732614"><ele>88.0</ele><time>2026-04-19T14:07:57.999Z</time></trkpt><trkpt lat="45.023680639841636" lon="9.149780229529185"><ele>88.33333333333333</ele><time>2026-04-19T14:07:58.999Z</time></trkpt><trkpt lat="45.02371077073519" lon="9.149898796444486"><ele>88.66666666666666</ele><time>2026-04-19T14:07:59.999Z</time></trkpt><trkpt lat="45.02373834342602" lon="9.150009527740728"><ele>89.0</ele><time>2026-04-19T14:08:00.999Z</time></trkpt><trkpt lat="45.023767242768535" lon="9.150117616290334"><ele>89.33333333333333</ele><time>2026-04-19T14:08:01.999Z</time></trkpt><trkpt lat="45.02379994686843" lon="9.150220998370592"><ele>89.66666666666667</ele><time>2026-04-19T14:08:02.999Z</time></trkpt><trkpt lat="45.02383511656476" lon="9.150341922503785"><ele>90.0</ele><time>2026-04-19T14:08:03.999Z</time></trkpt><trkpt lat="45.02387264521513" lon="9.150479720778753"><ele>90.0</ele><time>2026-04-19T14:08:04.999Z</time></trkpt><trkpt lat="45.02391333686922" lon="9.150630512334255"><ele>90.0</ele><time>2026-04-19T14:08:05.999Z</time></trkpt><trkpt lat="45.023949663289194" lon="9.150827872560374"><ele>90.0</ele><time>2026-04-19T14:08:06.999Z</time></trkpt><trkpt lat="45.02401223538171" lon="9.151058668695585"><ele>90.0</ele><time>2026-04-19T14:08:07.999Z</time></trkpt><trkpt lat="45.02407475344074" lon="9.151239304724179"><ele>90.0</ele><time>2026-04-19T14:08:08.999Z</time></trkpt><trkpt lat="45.02412785983007" lon="9.151419634586588"><ele>90.0</ele><time>2026-04-19T14:08:09.999Z</time></trkpt><trkpt lat="45.02415598051726" lon="9.151586727635888"><ele>90.0</ele><time>2026-04-19T14:08:10.999Z</time></trkpt><trkpt lat="45.024197037074146" lon="9.15173783308897"><ele>90.0</ele><time>2026-04-19T14:08:11.999Z</time></trkpt><trkpt lat="45.024234477311104" lon="9.151875271962062"><ele>90.0</ele><time>2026-04-19T14:08:12.999Z</time></trkpt><trkpt lat="45.02427221065812" lon="9.152013786780502"><ele>90.0</ele><time>2026-04-19T14:08:13.999Z</time></trkpt><trkpt lat="45.0243281503929" lon="9.152157367481822"><ele>90.0</ele><time>2026-04-19T14:08:14.999Z</time></trkpt><trkpt lat="45.02435281587749" lon="9.152309290729292"><ele>90.0</ele><time>2026-04-19T14:08:15.999Z</time></trkpt><trkpt lat="45.02439512457659" lon="9.152463855500372"><ele>90.0</ele><time>2026-04-19T14:08:16.999Z</time></trkpt><trkpt lat="45.02443729211021" lon="9.152617904592654"><ele>90.0</ele><time>2026-04-19T14:08:17.999Z</time></trkpt><trkpt lat="45.02448109534084" lon="9.152776165041027"><ele>90.0</ele><time>2026-04-19T14:08:18.999Z</time></trkpt><trkpt lat="45.02452774432895" lon="9.1529421370377"><ele>90.0</ele><time>2026-04-19T14:08:19.999Z</time></trkpt><trkpt lat="45.024591304573995" lon="9.153104652269285"><ele>90.0</ele><time>2026-04-19T14:08:20.999Z</time></trkpt><trkpt lat="45.0246255951879" lon="9.153290279680823"><ele>90.0</ele><time>2026-04-19T14:08:21.999Z</time></trkpt><trkpt lat="45.024687379991235" lon="9.153471558009851"><ele>90.0</ele><time>2026-04-19T14:08:22.999Z</time></trkpt><trkpt lat="45.02474808407685" lon="9.15370138921515"><ele>90.0</ele><time>2026-04-19T14:08:23.999Z</time></trkpt><trkpt lat="45.024827317239016" lon="9.153970328622703"><ele>90.0</ele><time>2026-04-19T14:08:24.999Z</time></trkpt><trkpt lat="45.024909689736965" lon="9.15425713796686"><ele>90.0</ele><time>2026-04-19T14:08:25.999Z</time></trkpt><trkpt lat="45.02498150860731" lon="9.154544756578058"><ele>90.0</ele><time>2026-04-19T14:08:26.999Z</time></trkpt><trkpt lat="45.02505849729405" lon="9.154839127000994"><ele>90.66666666666667</ele><time>2026-04-19T14:08:27.999Z</time></trkpt><trkpt lat="45.02514349864171" lon="9.155134274731981"><ele>91.33333333333334</ele><time>2026-04-19T14:08:28.999Z</time></trkpt><trkpt lat="45.025218735658214" lon="9.155392390395148"><ele>92.0</ele><time>2026-04-19T14:08:30Z</time></trkpt><trkpt lat="45.025286075004374" lon="9.155626360155349"><ele>93.0</ele><time>2026-04-19T14:08:31Z</time></trkpt><trkpt lat="45.02534782375456" lon="9.15583765167846"><ele>94.0</ele><time>2026-04-19T14:08:32Z</time></trkpt><trkpt lat="45.02540362029564" lon="9.156039402897402"><ele>95.0</ele><time>2026-04-19T14:08:33Z</time></trkpt><trkpt lat="45.025461219572954" lon="9.156248410631456"><ele>95.0</ele><time>2026-04-19T14:08:34Z</time></trkpt><trkpt lat="45.02551640004289" lon="9.156461005024045"><ele>95.0</ele><time>2026-04-19T14:08:35Z</time></trkpt><trkpt lat="45.025570867087055" lon="9.156673320455512"><ele>95.0</ele><time>2026-04-19T14:08:36Z</time></trkpt><trkpt lat="45.025627689175366" lon="9.156887654258583"><ele>94.66666666666667</ele><time>2026-04-19T14:08:37Z</time></trkpt><trkpt lat="45.025684351525676" lon="9.157101971856166"><ele>94.33333333333333</ele><time>2026-04-19T14:08:38Z</time></trkpt><trkpt lat="45.02574470022288" lon="9.157317187751406"><ele>94.0</ele><time>2026-04-19T14:08:39Z</time></trkpt><trkpt lat="45.02580531612212" lon="9.15753011428557"><ele>93.0</ele><time>2026-04-19T14:08:40Z</time></trkpt><trkpt lat="45.025863819039465" lon="9.157743969957219"><ele>92.0</ele><time>2026-04-19T14:08:41Z</time></trkpt><trkpt lat="45.0259255505333" lon="9.157952849615276"><ele>91.0</ele><time>2026-04-19T14:08:42Z</time></trkpt><trkpt lat="45.0259827312964" lon="9.158161321227388"><ele>90.75</ele><time>2026-04-19T14:08:43Z</time></trkpt><trkpt lat="45.02604125230874" lon="9.158360681389416"><ele>90.5</ele><time>2026-04-19T14:08:44Z</time></trkpt><trkpt lat="45.02610050314094" lon="9.158555751036895"><ele>90.25</ele><time>2026-04-19T14:08:45Z</time></trkpt><trkpt lat="45.02615223753827" lon="9.15874946864769"><ele>90.0</ele><time>2026-04-19T14:08:46Z</time></trkpt><trkpt lat="45.02620411534802" lon="9.15894148446248"><ele>89.75</ele><time>2026-04-19T14:08:47Z</time></trkpt><trkpt lat="45.026253768013206" lon="9.159123199321199"><ele>89.5</ele><time>2026-04-19T14:08:48Z</time></trkpt><trkpt lat="45.02630146586798" lon="9.159292172164916"><ele>89.25</ele><time>2026-04-19T14:08:49Z</time></trkpt><trkpt lat="45.02634329242151" lon="9.15944936859199"><ele>89.0</ele><time>2026-04-19T14:08:50Z</time></trkpt><trkpt lat="45.026384135620596" lon="9.15960227942994"><ele>89.0</ele><time>2026-04-19T14:08:51Z</time></trkpt><trkpt lat="45.026424217367996" lon="9.159748251621583"><ele>89.0</ele><time>2026-04-19T14:08:52Z</time></trkpt><trkpt lat="45.02646217064912" lon="9.159886601164752"><ele>89.0</ele><time>2026-04-19T14:08:53Z</time></trkpt><trkpt lat="45.026482583131525" lon="9.160030109852393"><ele>89.0</ele><time>2026-04-19T14:08:54Z</time></trkpt><trkpt lat="45.02646704438013" lon="9.16018373770873"><ele>89.0</ele><time>2026-04-19T14:08:55Z</time></trkpt><trkpt lat="45.0264621162733" lon="9.160321030990914"><ele>89.0</ele><time>2026-04-19T14:08:56Z</time></trkpt><trkpt lat="45.026505959653946" lon="9.160451746570924"><ele>89.0</ele><time>2026-04-19T14:08:57Z</time></trkpt><trkpt lat="45.02658439309913" lon="9.160571696191917"><ele>89.0</ele><time>2026-04-19T14:08:58Z</time></trkpt><trkpt lat="45.026675596998736" lon="9.16069244657072"><ele>89.0</ele><time>2026-04-19T14:08:58.997Z</time></trkpt><trkpt lat="45.0267440747763" lon="9.16085501659753"><ele>88.0</ele><time>2026-04-19T14:08:59.997Z</time></trkpt><trkpt lat="45.02678989409221" lon="9.161051257681"><ele>87.0</ele><time>2026-04-19T14:09:00.997Z</time></trkpt><trkpt lat="45.02683372800358" lon="9.161234383577296"><ele>86.0</ele><time>2026-04-19T14:09:01.997Z</time></trkpt><trkpt lat="45.02687631609369" lon="9.161388105791096"><ele>85.0</ele><time>2026-04-19T14:09:02.997Z</time></trkpt><trkpt lat="45.02691192033273" lon="9.161525562813443"><ele>85.25</ele><time>2026-04-19T14:09:03.997Z</time></trkpt><trkpt lat="45.02694108282454" lon="9.161649742801929"><ele>85.5</ele><time>2026-04-19T14:09:04.998Z</time></trkpt><trkpt lat="45.02694949200888" lon="9.161793277903902"><ele>85.75</ele><time>2026-04-19T14:09:06.998Z</time></trkpt><trkpt lat="45.027043553745386" lon="9.161907009037979"><ele>86.0</ele><time>2026-04-19T14:09:34.999Z</time></trkpt><trkpt lat="45.02698921472772" lon="9.16158076071239"><ele>85.75</ele><time>2026-04-19T14:09:36.999Z</time></trkpt><trkpt lat="45.0269347044538" lon="9.161422188351429"><ele>85.5</ele><time>2026-04-19T14:09:37.999Z</time></trkpt><trkpt lat="45.02688777384243" lon="9.161250496924948"><ele>85.25</ele><time>2026-04-19T14:09:38.999Z</time></trkpt><trkpt lat="45.026843673783794" lon="9.161092159939344"><ele>85.0</ele><time>2026-04-19T14:09:39.999Z</time></trkpt><trkpt lat="45.02680640350898" lon="9.160965683305509"><ele>85.0</ele><time>2026-04-19T14:09:40.999Z</time></trkpt><trkpt lat="45.02677890126225" lon="9.16086962798792"><ele>85.0</ele><time>2026-04-19T14:09:41.999Z</time></trkpt><trkpt lat="45.02674747103024" lon="9.160744308439224"><ele>85.0</ele><time>2026-04-19T14:09:43.999Z</time></trkpt><trkpt lat="45.02672389051728" lon="9.16065604494489"><ele>85.0</ele><time>2026-04-19T14:09:45.999Z</time></trkpt><trkpt lat="45.02670202499571" lon="9.160533396078423"><ele>85.0</ele><time>2026-04-19T14:09:47.999Z</time></trkpt><trkpt lat="45.02670523700484" lon="9.160439885875599"><ele>85.0</ele><time>2026-04-19T14:09:48.999Z</time></trkpt><trkpt lat="45.02674153956933" lon="9.160334957754312"><ele>84.83333333333333</ele><time>2026-04-19T14:09:49.999Z</time></trkpt><trkpt lat="45.02677199887517" lon="9.160236661774649"><ele>84.66666666666666</ele><time>2026-04-19T14:09:50.999Z</time></trkpt><trkpt lat="45.02682940866347" lon="9.160152361148798"><ele>84.5</ele><time>2026-04-19T14:09:53Z</time></trkpt><trkpt lat="45.0268929096607" lon="9.160131351142004"><ele>84.33333333333333</ele><time>2026-04-19T14:09:56Z</time></trkpt><trkpt lat="45.02697691520636" lon="9.160184343923252"><ele>84.16666666666667</ele><time>2026-04-19T14:09:59Z</time></trkpt><trkpt lat="45.02700540414056" lon="9.160320745947542"><ele>84.0</ele><time>2026-04-19T14:10:01Z</time></trkpt><trkpt lat="45.02703764132193" lon="9.160431910955316"><ele>84.0</ele><time>2026-04-19T14:10:02Z</time></trkpt><trkpt lat="45.02713767365569" lon="9.160526013316082"><ele>84.0</ele><time>2026-04-19T14:10:03Z</time></trkpt><trkpt lat="45.02716499101462" lon="9.160616018431995"><ele>84.0</ele><time>2026-04-19T14:10:04Z</time></trkpt><trkpt lat="45.02732199108107" lon="9.160568791829254"><ele>84.0</ele><time>2026-04-19T14:10:47Z</time></trkpt><trkpt lat="45.02738263510651" lon="9.160522964016048"><ele>84.0</ele><time>2026-04-19T14:10:53.001Z</time></trkpt><trkpt lat="45.02744825748737" lon="9.160548355123"><ele>83.66666666666667</ele><time>2026-04-19T14:10:59.001Z</time></trkpt><trkpt lat="45.02750812937147" lon="9.16057744544866"><ele>83.33333333333333</ele><time>2026-04-19T14:11:05.999Z</time></trkpt><trkpt lat="45.02757618580521" lon="9.160585458245997"><ele>83.0</ele><time>2026-04-19T14:11:15.999Z</time></trkpt><trkpt lat="45.02760367061108" lon="9.160500438529064"><ele>82.66666666666666</ele><time>2026-04-19T14:11:23.999Z</time></trkpt><trkpt lat="45.027697416508325" lon="9.160521185010078"><ele>82.33333333333333</ele><time>2026-04-19T14:11:35Z</time></trkpt><trkpt lat="45.02762193147943" lon="9.160675126044527"><ele>82.0</ele><time>2026-04-19T14:11:49Z</time></trkpt><trkpt lat="45.027550019182875" lon="9.160673721422654"><ele>81.99999999999999</ele><time>2026-04-19T14:15:14.002Z</time></trkpt><trkpt lat="45.0274842430736" lon="9.160637589436115"><ele>82.0</ele><time>2026-04-19T14:15:30.002Z</time></trkpt><trkpt lat="45.02742299701658" lon="9.160615193162812"><ele>82.0</ele><time>2026-04-19T14:15:35.002Z</time></trkpt><trkpt lat="45.02736067651091" lon="9.160567840939454"><ele>82.0</ele><time>2026-04-19T14:15:41.001Z</time></trkpt><trkpt lat="45.027302452172236" lon="9.160615871924621"><ele>82.0</ele><time>2026-04-19T14:15:46.001Z</time></trkpt><trkpt lat="45.02723807172753" lon="9.16067128091598"><ele>81.99999999999999</ele><time>2026-04-19T14:19:19.001Z</time></trkpt><trkpt lat="45.02717288925664" lon="9.160646165566314"><ele>82.0</ele><time>2026-04-19T14:19:21.001Z</time></trkpt><trkpt lat="45.02715031107362" lon="9.160530156856344"><ele>82.33333333333333</ele><time>2026-04-19T14:19:23.001Z</time></trkpt><trkpt lat="45.02711401004008" lon="9.160423525847902"><ele>82.66666666666666</ele><time>2026-04-19T14:19:25.001Z</time></trkpt><trkpt lat="45.02707910321307" lon="9.160335371995279"><ele>83.0</ele><time>2026-04-19T14:19:27.001Z</time></trkpt><trkpt lat="45.02702731457044" lon="9.160242514022583"><ele>83.33333333333333</ele><time>2026-04-19T14:19:29Z</time></trkpt><trkpt lat="45.02698763076471" lon="9.160106921015865"><ele>83.66666666666667</ele><time>2026-04-19T14:19:32Z</time></trkpt><trkpt lat="45.02690359462442" lon="9.160032150514189"><ele>84.0</ele><time>2026-04-19T14:19:34Z</time></trkpt><trkpt lat="45.026831727942216" lon="9.160055770058436"><ele>84.0</ele><time>2026-04-19T14:19:35Z</time></trkpt><trkpt lat="45.02676296485533" lon="9.160094938027996"><ele>84.0</ele><time>2026-04-19T14:19:36Z</time></trkpt><trkpt lat="45.0266867641005" lon="9.160083678513061"><ele>84.0</ele><time>2026-04-19T14:19:37Z</time></trkpt><trkpt lat="45.026609315014554" lon="9.16005711722741"><ele>84.0</ele><time>2026-04-19T14:19:38Z</time></trkpt><trkpt lat="45.026533641659924" lon="9.160083471952248"><ele>84.0</ele><time>2026-04-19T14:19:39Z</time></trkpt><trkpt lat="45.026483687617116" lon="9.160161521051297"><ele>84.0</ele><time>2026-04-19T14:19:40Z</time></trkpt><trkpt lat="45.02645422095133" lon="9.160266382438186"><ele>84.0</ele><time>2026-04-19T14:19:41Z</time></trkpt><trkpt lat="45.02651648863781" lon="9.160455646341624"><ele>84.0</ele><time>2026-04-19T14:19:43Z</time></trkpt><trkpt lat="45.02659496269056" lon="9.16054076892828"><ele>84.0</ele><time>2026-04-19T14:19:44Z</time></trkpt><trkpt lat="45.02666618506175" lon="9.160664696353551"><ele>84.0</ele><time>2026-04-19T14:19:45Z</time></trkpt><trkpt lat="45.02672027364276" lon="9.160818055800219"><ele>84.25</ele><time>2026-04-19T14:19:46Z</time></trkpt><trkpt lat="45.026767148175324" lon="9.16098427637002"><ele>84.5</ele><time>2026-04-19T14:19:47Z</time></trkpt><trkpt lat="45.02682224988786" lon="9.161170702589725"><ele>84.75</ele><time>2026-04-19T14:19:48Z</time></trkpt><trkpt lat="45.02688343986666" lon="9.16136627178148"><ele>85.0</ele><time>2026-04-19T14:19:49Z</time></trkpt><trkpt lat="45.026940080271714" lon="9.161561428483099"><ele>85.25</ele><time>2026-04-19T14:19:50Z</time></trkpt><trkpt lat="45.02699428186822" lon="9.161748191518372"><ele>85.5</ele><time>2026-04-19T14:19:51Z</time></trkpt><trkpt lat="45.02704361519372" lon="9.161920972755757"><ele>85.75</ele><time>2026-04-19T14:19:52Z</time></trkpt><trkpt lat="45.027089872054184" lon="9.162087797720986"><ele>86.0</ele><time>2026-04-19T14:19:53Z</time></trkpt><trkpt lat="45.027134325703784" lon="9.162250863731336"><ele>86.5</ele><time>2026-04-19T14:19:54Z</time></trkpt><trkpt lat="45.027179247525446" lon="9.16240525095324"><ele>87.0</ele><time>2026-04-19T14:19:55Z</time></trkpt><trkpt lat="45.02723017906936" lon="9.162554119715605"><ele>87.5</ele><time>2026-04-19T14:19:56Z</time></trkpt><trkpt lat="45.0272854257228" lon="9.16270313788049"><ele>88.0</ele><time>2026-04-19T14:19:57Z</time></trkpt><trkpt lat="45.02734538619176" lon="9.162852322138818"><ele>88.0</ele><time>2026-04-19T14:19:58Z</time></trkpt><trkpt lat="45.02741286285381" lon="9.163010284933002"><ele>88.0</ele><time>2026-04-19T14:19:59Z</time></trkpt><trkpt lat="45.027492674211686" lon="9.16318031828303"><ele>88.0</ele><time>2026-04-19T14:20:00Z</time></trkpt><trkpt lat="45.02757784802427" lon="9.163361713400725"><ele>88.0</ele><time>2026-04-19T14:20:01Z</time></trkpt><trkpt lat="45.02766632680961" lon="9.163548674730635"><ele>88.33333333333333</ele><time>2026-04-19T14:20:02Z</time></trkpt><trkpt lat="45.027760240813464" lon="9.163749736610756"><ele>88.66666666666667</ele><time>2026-04-19T14:20:03Z</time></trkpt><trkpt lat="45.02785644448099" lon="9.163964115195416"><ele>89.0</ele><time>2026-04-19T14:20:04Z</time></trkpt><trkpt lat="45.02795400362718" lon="9.164181396322556"><ele>88.33333333333334</ele><time>2026-04-19T14:20:05Z</time></trkpt><trkpt lat="45.02805100548757" lon="9.164398228674173"><ele>87.66666666666667</ele><time>2026-04-19T14:20:06Z</time></trkpt><trkpt lat="45.028145011822524" lon="9.16461163197101"><ele>87.0</ele><time>2026-04-19T14:20:07Z</time></trkpt><trkpt lat="45.028243374301" lon="9.164832493271595"><ele>86.66666666666667</ele><time>2026-04-19T14:20:08Z</time></trkpt><trkpt lat="45.02834470429776" lon="9.165053145508846"><ele>86.33333333333334</ele><time>2026-04-19T14:20:09Z</time></trkpt><trkpt lat="45.028445916648835" lon="9.16527194583732"><ele>86.0</ele><time>2026-04-19T14:20:10Z</time></trkpt><trkpt lat="45.02855731145405" lon="9.165502135596997"><ele>87.0</ele><time>2026-04-19T14:20:11Z</time></trkpt><trkpt lat="45.028660956675935" lon="9.165770319434367"><ele>88.0</ele><time>2026-04-19T14:20:12Z</time></trkpt><trkpt lat="45.028784950485566" lon="9.166045667180157"><ele>89.0</ele><time>2026-04-19T14:20:13Z</time></trkpt><trkpt lat="45.02890308818202" lon="9.166311562800207"><ele>89.66666666666667</ele><time>2026-04-19T14:20:14Z</time></trkpt><trkpt lat="45.029028500473224" lon="9.166555790050749"><ele>90.33333333333333</ele><time>2026-04-19T14:20:15Z</time></trkpt><trkpt lat="45.02913659833657" lon="9.166807375032224"><ele>91.0</ele><time>2026-04-19T14:20:16Z</time></trkpt><trkpt lat="45.02924909040063" lon="9.167055464476785"><ele>88.33333333333333</ele><time>2026-04-19T14:20:17Z</time></trkpt><trkpt lat="45.02936669444509" lon="9.167305852279206"><ele>85.66666666666667</ele><time>2026-04-19T14:20:18Z</time></trkpt><trkpt lat="45.029481403449324" lon="9.167561748414178"><ele>83.0</ele><time>2026-04-19T14:20:19Z</time></trkpt><trkpt lat="45.02959476176452" lon="9.167822885664494"><ele>83.0</ele><time>2026-04-19T14:20:20Z</time></trkpt><trkpt lat="45.02970577818957" lon="9.168083355973247"><ele>83.0</ele><time>2026-04-19T14:20:21Z</time></trkpt><trkpt lat="45.02981856513852" lon="9.168338028667417"><ele>83.0</ele><time>2026-04-19T14:20:22Z</time></trkpt><trkpt lat="45.02993361742176" lon="9.168591234682971"><ele>82.66666666666667</ele><time>2026-04-19T14:20:23Z</time></trkpt><trkpt lat="45.03005320836636" lon="9.168848538199486"><ele>82.33333333333333</ele><time>2026-04-19T14:20:24Z</time></trkpt><trkpt lat="45.03017268446952" lon="9.169114406042564"><ele>82.0</ele><time>2026-04-19T14:20:25Z</time></trkpt><trkpt lat="45.03029481625062" lon="9.169388342840046"><ele>82.0</ele><time>2026-04-19T14:20:26Z</time></trkpt><trkpt lat="45.03042156682703" lon="9.16967777066257"><ele>82.0</ele><time>2026-04-19T14:20:27Z</time></trkpt><trkpt lat="45.03054471069809" lon="9.169953945131507"><ele>82.33333333333333</ele><time>2026-04-19T14:20:28Z</time></trkpt><trkpt lat="45.03066315269424" lon="9.170216986835518"><ele>82.66666666666667</ele><time>2026-04-19T14:20:29Z</time></trkpt><trkpt lat="45.03077758420415" lon="9.170477426462025"><ele>83.0</ele><time>2026-04-19T14:20:30Z</time></trkpt><trkpt lat="45.03089115974989" lon="9.170734664513173"><ele>83.0</ele><time>2026-04-19T14:20:31Z</time></trkpt><trkpt lat="45.031004342556706" lon="9.17098294419634"><ele>83.0</ele><time>2026-04-19T14:20:32Z</time></trkpt><trkpt lat="45.031121175966085" lon="9.171236758523012"><ele>83.0</ele><time>2026-04-19T14:20:33Z</time></trkpt><trkpt lat="45.03123720405914" lon="9.171492754100928"><ele>83.0</ele><time>2026-04-19T14:20:34Z</time></trkpt><trkpt lat="45.031351203511264" lon="9.17174727540951"><ele>83.0</ele><time>2026-04-19T14:20:35Z</time></trkpt><trkpt lat="45.03146741826264" lon="9.171999361791968"><ele>83.0</ele><time>2026-04-19T14:20:36Z</time></trkpt><trkpt lat="45.031582864415455" lon="9.172254634056154"><ele>82.0</ele><time>2026-04-19T14:20:37Z</time></trkpt><trkpt lat="45.03169951275388" lon="9.172514545919821"><ele>81.0</ele><time>2026-04-19T14:20:38Z</time></trkpt><trkpt lat="45.03182502740743" lon="9.172778175586304"><ele>80.0</ele><time>2026-04-19T14:20:39Z</time></trkpt><trkpt lat="45.03195538053545" lon="9.173051018437459"><ele>80.0</ele><time>2026-04-19T14:20:40Z</time></trkpt><trkpt lat="45.032085431231096" lon="9.173354433161785"><ele>80.0</ele><time>2026-04-19T14:20:41Z</time></trkpt><trkpt lat="45.03221575018233" lon="9.17366292084587"><ele>80.0</ele><time>2026-04-19T14:20:42Z</time></trkpt><trkpt lat="45.0323391541785" lon="9.173951666959939"><ele>80.0</ele><time>2026-04-19T14:20:43Z</time></trkpt><trkpt lat="45.032457992856465" lon="9.174217679410308"><ele>81.0</ele><time>2026-04-19T14:20:44Z</time></trkpt><trkpt lat="45.03258105642026" lon="9.17448705441926"><ele>82.0</ele><time>2026-04-19T14:20:45Z</time></trkpt><trkpt lat="45.03271750400028" lon="9.174784212489092"><ele>82.0</ele><time>2026-04-19T14:20:46Z</time></trkpt><trkpt lat="45.032850179783345" lon="9.17511149743385"><ele>82.0</ele><time>2026-04-19T14:20:47Z</time></trkpt><trkpt lat="45.03300112394764" lon="9.175447657938724"><ele>82.0</ele><time>2026-04-19T14:20:48Z</time></trkpt><trkpt lat="45.0331485563861" lon="9.175775997697773"><ele>82.0</ele><time>2026-04-19T14:20:49Z</time></trkpt><trkpt lat="45.03329360805619" lon="9.176099034870466"><ele>82.0</ele><time>2026-04-19T14:20:50Z</time></trkpt><trkpt lat="45.033445467969" lon="9.176414386266016"><ele>82.0</ele><time>2026-04-19T14:20:51Z</time></trkpt><trkpt lat="45.033576793953394" lon="9.176725450317917"><ele>81.5</ele><time>2026-04-19T14:20:52Z</time></trkpt><trkpt lat="45.03370770802223" lon="9.177023919508787"><ele>81.0</ele><time>2026-04-19T14:20:53Z</time></trkpt><trkpt lat="45.03383452589083" lon="9.17730656361851"><ele>80.0</ele><time>2026-04-19T14:20:54Z</time></trkpt><trkpt lat="45.03395967506079" lon="9.17758615631545"><ele>79.0</ele><time>2026-04-19T14:20:55Z</time></trkpt><trkpt lat="45.034082120808655" lon="9.177860257100955"><ele>79.5</ele><time>2026-04-19T14:20:56Z</time></trkpt><trkpt lat="45.034204896012646" lon="9.178134152774378"><ele>80.0</ele><time>2026-04-19T14:20:57Z</time></trkpt><trkpt lat="45.034329816322774" lon="9.178410420263065"><ele>80.0</ele><time>2026-04-19T14:20:58Z</time></trkpt><trkpt lat="45.03445195944649" lon="9.178687977675745"><ele>80.0</ele><time>2026-04-19T14:20:59Z</time></trkpt><trkpt lat="45.03457307986527" lon="9.178967239788555"><ele>79.0</ele><time>2026-04-19T14:21:00Z</time></trkpt><trkpt lat="45.03469555539751" lon="9.179247773984907"><ele>78.0</ele><time>2026-04-19T14:21:01Z</time></trkpt><trkpt lat="45.03482010291077" lon="9.179526877984534"><ele>78.0</ele><time>2026-04-19T14:21:02Z</time></trkpt><trkpt lat="45.034948566776684" lon="9.179805549886845"><ele>78.0</ele><time>2026-04-19T14:21:03Z</time></trkpt><trkpt lat="45.03507630800705" lon="9.180078417015837"><ele>78.0</ele><time>2026-04-19T14:21:04Z</time></trkpt><trkpt lat="45.035196392625494" lon="9.180331242612992"><ele>78.0</ele><time>2026-04-19T14:21:05Z</time></trkpt><trkpt lat="45.03531571853484" lon="9.180569128086397"><ele>78.0</ele><time>2026-04-19T14:21:06Z</time></trkpt><trkpt lat="45.03542882023645" lon="9.180807380129934"><ele>78.0</ele><time>2026-04-19T14:21:07Z</time></trkpt><trkpt lat="45.03553065669362" lon="9.181032603486399"><ele>78.0</ele><time>2026-04-19T14:21:08Z</time></trkpt><trkpt lat="45.03563896981644" lon="9.181527369405496"><ele>78.0</ele><time>2026-04-19T14:21:09Z</time></trkpt><trkpt lat="45.03571554939743" lon="9.181841186930761"><ele>78.0</ele><time>2026-04-19T14:21:10Z</time></trkpt><trkpt lat="45.035782708592" lon="9.182162643472308"><ele>77.5</ele><time>2026-04-19T14:21:11Z</time></trkpt><trkpt lat="45.03584579924094" lon="9.182491348731977"><ele>77.0</ele><time>2026-04-19T14:21:12Z</time></trkpt><trkpt lat="45.035895518136215" lon="9.18282453174627"><ele>77.0</ele><time>2026-04-19T14:21:13Z</time></trkpt><trkpt lat="45.03594388544136" lon="9.183160969109228"><ele>77.0</ele><time>2026-04-19T14:21:14Z</time></trkpt><trkpt lat="45.03598791448951" lon="9.18350127213489"><ele>76.0</ele><time>2026-04-19T14:21:15Z</time></trkpt><trkpt lat="45.036039436359815" lon="9.183835831291688"><ele>75.0</ele><time>2026-04-19T14:21:16Z</time></trkpt><trkpt lat="45.03608444356592" lon="9.18418052232648"><ele>75.0</ele><time>2026-04-19T14:21:17Z</time></trkpt><trkpt lat="45.03613011146717" lon="9.18452631057562"><ele>75.0</ele><time>2026-04-19T14:21:18Z</time></trkpt><trkpt lat="45.036182865040594" lon="9.184871616498677"><ele>75.5</ele><time>2026-04-19T14:21:19Z</time></trkpt><trkpt lat="45.03623484753947" lon="9.18522114838692"><ele>76.0</ele><time>2026-04-19T14:21:20Z</time></trkpt><trkpt lat="45.036290422569515" lon="9.185565153422269"><ele>75.5</ele><time>2026-04-19T14:21:21Z</time></trkpt><trkpt lat="45.036343852099215" lon="9.185922871037477"><ele>75.0</ele><time>2026-04-19T14:21:22Z</time></trkpt><trkpt lat="45.0363977956734" lon="9.186277887632428"><ele>75.5</ele><time>2026-04-19T14:21:23Z</time></trkpt><trkpt lat="45.036450563613265" lon="9.186635938193"><ele>76.0</ele><time>2026-04-19T14:21:24Z</time></trkpt><trkpt lat="45.0365037159769" lon="9.186996657058689"><ele>75.0</ele><time>2026-04-19T14:21:25Z</time></trkpt><trkpt lat="45.03655605255566" lon="9.187351982054622"><ele>74.0</ele><time>2026-04-19T14:21:26.001Z</time></trkpt><trkpt lat="45.0366084963738" lon="9.187703078253294"><ele>73.5</ele><time>2026-04-19T14:21:27.001Z</time></trkpt><trkpt lat="45.03665718960683" lon="9.188055379828079"><ele>73.0</ele><time>2026-04-19T14:21:28.001Z</time></trkpt><trkpt lat="45.036707115416604" lon="9.188406188536197"><ele>73.0</ele><time>2026-04-19T14:21:29.001Z</time></trkpt><trkpt lat="45.03675929003699" lon="9.188757982260476"><ele>73.0</ele><time>2026-04-19T14:21:30.001Z</time></trkpt><trkpt lat="45.036816735965466" lon="9.189104142112539"><ele>74.0</ele><time>2026-04-19T14:21:31.001Z</time></trkpt><trkpt lat="45.036873032369385" lon="9.18945012354205"><ele>75.0</ele><time>2026-04-19T14:21:32.001Z</time></trkpt><trkpt lat="45.036928942504815" lon="9.189800154188369"><ele>75.0</ele><time>2026-04-19T14:21:33.001Z</time></trkpt><trkpt lat="45.036982121394985" lon="9.190149470174761"><ele>75.0</ele><time>2026-04-19T14:21:34.001Z</time></trkpt><trkpt lat="45.03703532246314" lon="9.190496323674566"><ele>73.5</ele><time>2026-04-19T14:21:34.999Z</time></trkpt><trkpt lat="45.03708688169841" lon="9.190843726917757"><ele>72.0</ele><time>2026-04-19T14:21:35.999Z</time></trkpt><trkpt lat="45.03713756635268" lon="9.191191325736838"><ele>72.0</ele><time>2026-04-19T14:21:36.999Z</time></trkpt><trkpt lat="45.03718712954379" lon="9.19153741283375"><ele>72.0</ele><time>2026-04-19T14:21:37.999Z</time></trkpt><trkpt lat="45.037238620413596" lon="9.191883099770212"><ele>72.0</ele><time>2026-04-19T14:21:38.999Z</time></trkpt><trkpt lat="45.037292137447125" lon="9.192226542493868"><ele>72.0</ele><time>2026-04-19T14:21:39.999Z</time></trkpt><trkpt lat="45.03734692146459" lon="9.19256970090812"><ele>72.5</ele><time>2026-04-19T14:21:40.999Z</time></trkpt><trkpt lat="45.037400996801836" lon="9.192912629747635"><ele>73.0</ele><time>2026-04-19T14:21:41.999Z</time></trkpt><trkpt lat="45.03745149359438" lon="9.19325935402296"><ele>73.5</ele><time>2026-04-19T14:21:42.999Z</time></trkpt><trkpt lat="45.03750747033276" lon="9.193605716331625"><ele>74.0</ele><time>2026-04-19T14:21:43.999Z</time></trkpt><trkpt lat="45.03756080367357" lon="9.193950340361223"><ele>74.0</ele><time>2026-04-19T14:21:44.999Z</time></trkpt><trkpt lat="45.03761407813341" lon="9.194296827835728"><ele>74.0</ele><time>2026-04-19T14:21:45.999Z</time></trkpt><trkpt lat="45.03766748409046" lon="9.19464406005558"><ele>74.5</ele><time>2026-04-19T14:21:46.999Z</time></trkpt><trkpt lat="45.03772204468553" lon="9.194983752595899"><ele>75.0</ele><time>2026-04-19T14:21:47.999Z</time></trkpt><trkpt lat="45.037776264631006" lon="9.19531733542384"><ele>75.0</ele><time>2026-04-19T14:21:48.999Z</time></trkpt><trkpt lat="45.03782943867504" lon="9.195644367729367"><ele>75.0</ele><time>2026-04-19T14:21:49.999Z</time></trkpt><trkpt lat="45.03787991362479" lon="9.195960549145234"><ele>75.0</ele><time>2026-04-19T14:21:50.999Z</time></trkpt><trkpt lat="45.03792627865924" lon="9.196246892241707"><ele>75.0</ele><time>2026-04-19T14:21:51.999Z</time></trkpt><trkpt lat="45.03796779885582" lon="9.196517922721354"><ele>75.0</ele><time>2026-04-19T14:21:52.999Z</time></trkpt><trkpt lat="45.03800320876376" lon="9.196774217296879"><ele>75.33333333333333</ele><time>2026-04-19T14:21:53.999Z</time></trkpt><trkpt lat="45.03803732018963" lon="9.197021272075075"><ele>75.66666666666666</ele><time>2026-04-19T14:21:54.999Z</time></trkpt><trkpt lat="45.0380669275057" lon="9.197254736963929"><ele>76.0</ele><time>2026-04-19T14:21:55.999Z</time></trkpt><trkpt lat="45.0381028645742" lon="9.197486719387385"><ele>76.0</ele><time>2026-04-19T14:21:56.999Z</time></trkpt><trkpt lat="45.03814060223109" lon="9.197722815003756"><ele>76.0</ele><time>2026-04-19T14:21:57.999Z</time></trkpt><trkpt lat="45.03817408533059" lon="9.19795791071201"><ele>76.0</ele><time>2026-04-19T14:21:58.999Z</time></trkpt><trkpt lat="45.03821054615052" lon="9.198197653443605"><ele>76.33333333333333</ele><time>2026-04-19T14:21:59.999Z</time></trkpt><trkpt lat="45.03824920715595" lon="9.198438436376327"><ele>76.66666666666667</ele><time>2026-04-19T14:22:00.999Z</time></trkpt><trkpt lat="45.038288722475656" lon="9.198677242325646"><ele>77.0</ele><time>2026-04-19T14:22:02Z</time></trkpt><trkpt lat="45.038326040123" lon="9.198914471367665"><ele>77.0</ele><time>2026-04-19T14:22:03Z</time></trkpt><trkpt lat="45.038365005781664" lon="9.19914144595226"><ele>77.0</ele><time>2026-04-19T14:22:04Z</time></trkpt><trkpt lat="45.03839731191038" lon="9.199355393773681"><ele>77.0</ele><time>2026-04-19T14:22:05Z</time></trkpt><trkpt lat="45.03842870992397" lon="9.199572975879859"><ele>77.0</ele><time>2026-04-19T14:22:06Z</time></trkpt><trkpt lat="45.038463518550316" lon="9.19978968851965"><ele>77.0</ele><time>2026-04-19T14:22:07Z</time></trkpt><trkpt lat="45.03849846832329" lon="9.200012053865231"><ele>77.0</ele><time>2026-04-19T14:22:08Z</time></trkpt><trkpt lat="45.03853359749881" lon="9.20024201744808"><ele>77.0</ele><time>2026-04-19T14:22:09Z</time></trkpt><trkpt lat="45.03856773795638" lon="9.200476321104"><ele>77.0</ele><time>2026-04-19T14:22:10Z</time></trkpt><trkpt lat="45.038604457338785" lon="9.200701990701269"><ele>77.0</ele><time>2026-04-19T14:22:11Z</time></trkpt><trkpt lat="45.03864424452304" lon="9.200944489244945"><ele>77.0</ele><time>2026-04-19T14:22:12Z</time></trkpt><trkpt lat="45.038684484427755" lon="9.201195001998254"><ele>77.0</ele><time>2026-04-19T14:22:13Z</time></trkpt><trkpt lat="45.03872537168871" lon="9.201450426843587"><ele>77.0</ele><time>2026-04-19T14:22:14Z</time></trkpt><trkpt lat="45.03876314147038" lon="9.201689617944156"><ele>77.0</ele><time>2026-04-19T14:22:15Z</time></trkpt><trkpt lat="45.03880005029183" lon="9.201920034934252"><ele>77.0</ele><time>2026-04-19T14:22:16Z</time></trkpt><trkpt lat="45.03883429467293" lon="9.202145012526563"><ele>77.0</ele><time>2026-04-19T14:22:17Z</time></trkpt><trkpt lat="45.03886790714151" lon="9.202360731573185"><ele>77.0</ele><time>2026-04-19T14:22:18Z</time></trkpt><trkpt lat="45.03890104539289" lon="9.20257502826285"><ele>77.0</ele><time>2026-04-19T14:22:19Z</time></trkpt><trkpt lat="45.03893157592269" lon="9.202778504011444"><ele>77.0</ele><time>2026-04-19T14:22:20Z</time></trkpt><trkpt lat="45.038968325812235" lon="9.20301176540328"><ele>77.66666666666667</ele><time>2026-04-19T14:22:21Z</time></trkpt><trkpt lat="45.03901374953404" lon="9.203291623104494"><ele>78.33333333333333</ele><time>2026-04-19T14:22:22Z</time></trkpt><trkpt lat="45.03905742329717" lon="9.203608364074773"><ele>79.0</ele><time>2026-04-19T14:22:23Z</time></trkpt><trkpt lat="45.039097509359216" lon="9.203923679006728"><ele>78.66666666666666</ele><time>2026-04-19T14:22:24Z</time></trkpt><trkpt lat="45.03913769072829" lon="9.204226282828337"><ele>78.33333333333333</ele><time>2026-04-19T14:22:25Z</time></trkpt><trkpt lat="45.03918301588062" lon="9.204509514088539"><ele>78.0</ele><time>2026-04-19T14:22:26Z</time></trkpt><trkpt lat="45.03922122970427" lon="9.204788407029893"><ele>77.66666666666667</ele><time>2026-04-19T14:22:27Z</time></trkpt><trkpt lat="45.039262062603115" lon="9.205066171648976"><ele>77.33333333333334</ele><time>2026-04-19T14:22:28Z</time></trkpt><trkpt lat="45.03930654506555" lon="9.205343200706723"><ele>77.0</ele><time>2026-04-19T14:22:29Z</time></trkpt><trkpt lat="45.03935223029763" lon="9.205614062509081"><ele>76.66666666666667</ele><time>2026-04-19T14:22:30Z</time></trkpt><trkpt lat="45.039395295441594" lon="9.20588411721613"><ele>76.33333333333333</ele><time>2026-04-19T14:22:31Z</time></trkpt><trkpt lat="45.03943657458958" lon="9.206148917854868"><ele>76.0</ele><time>2026-04-19T14:22:32Z</time></trkpt><trkpt lat="45.039476114703746" lon="9.206410650810529"><ele>75.33333333333333</ele><time>2026-04-19T14:22:33Z</time></trkpt><trkpt lat="45.03951675490147" lon="9.206670236904044"><ele>74.66666666666667</ele><time>2026-04-19T14:22:34Z</time></trkpt><trkpt lat="45.03955748445288" lon="9.206926650268137"><ele>74.0</ele><time>2026-04-19T14:22:35Z</time></trkpt><trkpt lat="45.03959680503263" lon="9.207179309831174"><ele>74.33333333333334</ele><time>2026-04-19T14:22:36Z</time></trkpt><trkpt lat="45.03963721855539" lon="9.207422354009825"><ele>74.66666666666667</ele><time>2026-04-19T14:22:37Z</time></trkpt><trkpt lat="45.039677822140916" lon="9.207652859717872"><ele>75.0</ele><time>2026-04-19T14:22:38Z</time></trkpt><trkpt lat="45.03971261570195" lon="9.207868644224359"><ele>75.0</ele><time>2026-04-19T14:22:39Z</time></trkpt><trkpt lat="45.03973954549909" lon="9.20806226887933"><ele>75.0</ele><time>2026-04-19T14:22:40Z</time></trkpt><trkpt lat="45.03976553303004" lon="9.208242003034147"><ele>75.0</ele><time>2026-04-19T14:22:41Z</time></trkpt><trkpt lat="45.03978948542065" lon="9.208415288201605"><ele>75.0</ele><time>2026-04-19T14:22:42Z</time></trkpt><trkpt lat="45.03981573970393" lon="9.208598793510392"><ele>75.25</ele><time>2026-04-19T14:22:43Z</time></trkpt><trkpt lat="45.039844676144085" lon="9.208790615229512"><ele>75.5</ele><time>2026-04-19T14:22:44Z</time></trkpt><trkpt lat="45.03987340889871" lon="9.20898337057187"><ele>75.75</ele><time>2026-04-19T14:22:45Z</time></trkpt><trkpt lat="45.03990004545101" lon="9.20917724180299"><ele>76.0</ele><time>2026-04-19T14:22:46Z</time></trkpt><trkpt lat="45.03992810249201" lon="9.209368412188118"><ele>75.5</ele><time>2026-04-19T14:22:47Z</time></trkpt><trkpt lat="45.039958520546946" lon="9.209565105194178"><ele>75.0</ele><time>2026-04-19T14:22:48Z</time></trkpt><trkpt lat="45.039990560309825" lon="9.209767015630147"><ele>74.5</ele><time>2026-04-19T14:22:49Z</time></trkpt><trkpt lat="45.04002685055584" lon="9.209972173558945"><ele>74.0</ele><time>2026-04-19T14:22:50Z</time></trkpt><trkpt lat="45.04006883507445" lon="9.210185678474145"><ele>74.0</ele><time>2026-04-19T14:22:51Z</time></trkpt><trkpt lat="45.040114802196335" lon="9.210395561751891"><ele>74.0</ele><time>2026-04-19T14:22:52Z</time></trkpt><trkpt lat="45.04016703892187" lon="9.210602595387138"><ele>74.0</ele><time>2026-04-19T14:22:53Z</time></trkpt><trkpt lat="45.04022593519436" lon="9.210806418145545"><ele>74.0</ele><time>2026-04-19T14:22:54Z</time></trkpt><trkpt lat="45.04029408161411" lon="9.211021496291762"><ele>74.0</ele><time>2026-04-19T14:22:55Z</time></trkpt><trkpt lat="45.040368512806566" lon="9.211235883341555"><ele>74.0</ele><time>2026-04-19T14:22:56Z</time></trkpt><trkpt lat="45.04045544314882" lon="9.211460240289965"><ele>74.0</ele><time>2026-04-19T14:22:57Z</time></trkpt><trkpt lat="45.040564347657444" lon="9.211705442420012"><ele>74.0</ele><time>2026-04-19T14:22:58Z</time></trkpt><trkpt lat="45.04068718961701" lon="9.211974659331531"><ele>74.0</ele><time>2026-04-19T14:22:59Z</time></trkpt><trkpt lat="45.04081868549433" lon="9.212272082641787"><ele>74.0</ele><time>2026-04-19T14:23:00Z</time></trkpt><trkpt lat="45.040962274259606" lon="9.212600270964646"><ele>74.0</ele><time>2026-04-19T14:23:01Z</time></trkpt><trkpt lat="45.04111975961905" lon="9.212952766804914"><ele>73.5</ele><time>2026-04-19T14:23:02Z</time></trkpt><trkpt lat="45.04126406704845" lon="9.213321101767994"><ele>73.0</ele><time>2026-04-19T14:23:03Z</time></trkpt><trkpt lat="45.04142678979762" lon="9.213652527698613"><ele>73.0</ele><time>2026-04-19T14:23:04Z</time></trkpt><trkpt lat="45.04156615740451" lon="9.213983267765464"><ele>73.0</ele><time>2026-04-19T14:23:05Z</time></trkpt><trkpt lat="45.04170887194065" lon="9.214310349667716"><ele>73.0</ele><time>2026-04-19T14:23:06Z</time></trkpt><trkpt lat="45.041854303019285" lon="9.214632524048493"><ele>73.0</ele><time>2026-04-19T14:23:07Z</time></trkpt><trkpt lat="45.041991349633314" lon="9.214939495670645"><ele>74.0</ele><time>2026-04-19T14:23:08Z</time></trkpt><trkpt lat="45.04211777421709" lon="9.215225483466497"><ele>75.0</ele><time>2026-04-19T14:23:09Z</time></trkpt><trkpt lat="45.0422350046346" lon="9.21549498477972"><ele>74.66666666666667</ele><time>2026-04-19T14:23:10Z</time></trkpt><trkpt lat="45.04234687446902" lon="9.21575225749379"><ele>74.33333333333334</ele><time>2026-04-19T14:23:11Z</time></trkpt><trkpt lat="45.042454780727304" lon="9.215993224069022"><ele>74.0</ele><time>2026-04-19T14:23:12Z</time></trkpt><trkpt lat="45.04256555940601" lon="9.216234342057465"><ele>74.0</ele><time>2026-04-19T14:23:13Z</time></trkpt><trkpt lat="45.04267940087047" lon="9.216489275776032"><ele>74.0</ele><time>2026-04-19T14:23:14Z</time></trkpt><trkpt lat="45.04279995922837" lon="9.216765300830529"><ele>74.0</ele><time>2026-04-19T14:23:15Z</time></trkpt><trkpt lat="45.04292487480208" lon="9.217057376947697"><ele>73.0</ele><time>2026-04-19T14:23:16Z</time></trkpt><trkpt lat="45.04305387713651" lon="9.217353490592066"><ele>72.0</ele><time>2026-04-19T14:23:17Z</time></trkpt><trkpt lat="45.043186722219794" lon="9.217645873725857"><ele>72.0</ele><time>2026-04-19T14:23:18Z</time></trkpt><trkpt lat="45.0433211457865" lon="9.21794379532629"><ele>72.0</ele><time>2026-04-19T14:23:19Z</time></trkpt><trkpt lat="45.043442594071074" lon="9.218252528867822"><ele>72.5</ele><time>2026-04-19T14:23:20Z</time></trkpt><trkpt lat="45.04357561173554" lon="9.21855333619675"><ele>73.0</ele><time>2026-04-19T14:23:21Z</time></trkpt><trkpt lat="45.043710748095464" lon="9.218858934763722"><ele>72.5</ele><time>2026-04-19T14:23:22Z</time></trkpt><trkpt lat="45.04384728675623" lon="9.219169181124455"><ele>72.0</ele><time>2026-04-19T14:23:23Z</time></trkpt><trkpt lat="45.04399312669035" lon="9.21947240070314"><ele>72.0</ele><time>2026-04-19T14:23:24Z</time></trkpt><trkpt lat="45.04412485495499" lon="9.219795311274405"><ele>72.0</ele><time>2026-04-19T14:23:25Z</time></trkpt><trkpt lat="45.04426088790988" lon="9.220118480035255"><ele>73.0</ele><time>2026-04-19T14:23:26Z</time></trkpt><trkpt lat="45.04440261196059" lon="9.220435444248844"><ele>74.0</ele><time>2026-04-19T14:23:27Z</time></trkpt><trkpt lat="45.04454804556583" lon="9.22075313274466"><ele>75.5</ele><time>2026-04-19T14:23:28Z</time></trkpt><trkpt lat="45.04469377456813" lon="9.221072760924038"><ele>77.0</ele><time>2026-04-19T14:23:29Z</time></trkpt><trkpt lat="45.04483516267688" lon="9.221395078847126"><ele>74.5</ele><time>2026-04-19T14:23:30Z</time></trkpt><trkpt lat="45.04497661316324" lon="9.221718839117088"><ele>72.0</ele><time>2026-04-19T14:23:31Z</time></trkpt><trkpt lat="45.0451168697137" lon="9.222044438898891"><ele>72.0</ele><time>2026-04-19T14:23:32Z</time></trkpt><trkpt lat="45.045258774940656" lon="9.222369458855164"><ele>72.0</ele><time>2026-04-19T14:23:33Z</time></trkpt><trkpt lat="45.04540147072039" lon="9.222692713740708"><ele>72.0</ele><time>2026-04-19T14:23:34Z</time></trkpt><trkpt lat="45.04554671483963" lon="9.223014632031"><ele>72.0</ele><time>2026-04-19T14:23:35Z</time></trkpt><trkpt lat="45.045692348806995" lon="9.223334967775685"><ele>72.5</ele><time>2026-04-19T14:23:36Z</time></trkpt><trkpt lat="45.045834512287755" lon="9.223657941416663"><ele>73.0</ele><time>2026-04-19T14:23:37Z</time></trkpt><trkpt lat="45.04597863637695" lon="9.22398129480611"><ele>73.0</ele><time>2026-04-19T14:23:38Z</time></trkpt><trkpt lat="45.046117562158976" lon="9.224305492939601"><ele>73.0</ele><time>2026-04-19T14:23:39Z</time></trkpt><trkpt lat="45.04625498457934" lon="9.22463207853982"><ele>73.0</ele><time>2026-04-19T14:23:40Z</time></trkpt><trkpt lat="45.046397726312286" lon="9.22495678972046"><ele>73.0</ele><time>2026-04-19T14:23:40.999Z</time></trkpt><trkpt lat="45.046535502334365" lon="9.225283998376794"><ele>73.0</ele><time>2026-04-19T14:23:41.999Z</time></trkpt><trkpt lat="45.04668081107223" lon="9.225603305530722"><ele>73.0</ele><time>2026-04-19T14:23:42.999Z</time></trkpt><trkpt lat="45.04682723063359" lon="9.225921225033261"><ele>73.0</ele><time>2026-04-19T14:23:43.999Z</time></trkpt><trkpt lat="45.04697263325881" lon="9.226246465163793"><ele>73.0</ele><time>2026-04-19T14:23:44.999Z</time></trkpt><trkpt lat="45.0471176068095" lon="9.226565860801246"><ele>73.5</ele><time>2026-04-19T14:23:45.999Z</time></trkpt><trkpt lat="45.047258302765" lon="9.226887284276469"><ele>74.0</ele><time>2026-04-19T14:23:46.999Z</time></trkpt><trkpt lat="45.0473983920633" lon="9.227207508741268"><ele>74.5</ele><time>2026-04-19T14:23:47.999Z</time></trkpt><trkpt lat="45.047534405764964" lon="9.227530519070502"><ele>75.0</ele><time>2026-04-19T14:23:48.999Z</time></trkpt><trkpt lat="45.047668948998464" lon="9.227854783759685"><ele>75.0</ele><time>2026-04-19T14:23:49.999Z</time></trkpt><trkpt lat="45.04779489024225" lon="9.228181577411494"><ele>75.0</ele><time>2026-04-19T14:23:50.999Z</time></trkpt><trkpt lat="45.04790878570627" lon="9.228516415524167"><ele>75.0</ele><time>2026-04-19T14:23:51.999Z</time></trkpt><trkpt lat="45.048010027972246" lon="9.22884647291223"><ele>75.0</ele><time>2026-04-19T14:23:52.999Z</time></trkpt><trkpt lat="45.04809386188341" lon="9.229170803459875"><ele>74.5</ele><time>2026-04-19T14:23:53.999Z</time></trkpt><trkpt lat="45.048175395770556" lon="9.22949313406669"><ele>74.0</ele><time>2026-04-19T14:23:54.999Z</time></trkpt><trkpt lat="45.048254829004264" lon="9.229801359753047"><ele>74.66666666666667</ele><time>2026-04-19T14:23:55.999Z</time></trkpt><trkpt lat="45.048329387287694" lon="9.230088319847138"><ele>75.33333333333333</ele><time>2026-04-19T14:23:56.999Z</time></trkpt><trkpt lat="45.0483995150856" lon="9.230370662289623"><ele>76.0</ele><time>2026-04-19T14:23:57.999Z</time></trkpt><trkpt lat="45.04846942480415" lon="9.230650858527754"><ele>76.0</ele><time>2026-04-19T14:23:58.999Z</time></trkpt><trkpt lat="45.048539726197106" lon="9.230926078631969"><ele>76.0</ele><time>2026-04-19T14:23:59.999Z</time></trkpt><trkpt lat="45.04860930448563" lon="9.23119981251228"><ele>76.0</ele><time>2026-04-19T14:24:00.999Z</time></trkpt><trkpt lat="45.04867902002075" lon="9.23146973269661"><ele>76.66666666666666</ele><time>2026-04-19T14:24:01.999Z</time></trkpt><trkpt lat="45.04874861772403" lon="9.231734405556617"><ele>77.33333333333333</ele><time>2026-04-19T14:24:02.999Z</time></trkpt><trkpt lat="45.048814222844975" lon="9.231989297902052"><ele>78.0</ele><time>2026-04-19T14:24:04Z</time></trkpt><trkpt lat="45.048876128721176" lon="9.23222851687236"><ele>77.33333333333333</ele><time>2026-04-19T14:24:05Z</time></trkpt><trkpt lat="45.048936421939885" lon="9.232447837329557"><ele>76.66666666666666</ele><time>2026-04-19T14:24:06Z</time></trkpt><trkpt lat="45.04899542217282" lon="9.232665442453307"><ele>76.0</ele><time>2026-04-19T14:24:07Z</time></trkpt><trkpt lat="45.04905583865869" lon="9.232904948962135"><ele>76.0</ele><time>2026-04-19T14:24:08Z</time></trkpt><trkpt lat="45.049120506339186" lon="9.23312984119288"><ele>76.0</ele><time>2026-04-19T14:24:09Z</time></trkpt><trkpt lat="45.049177093836256" lon="9.233400921759701"><ele>76.0</ele><time>2026-04-19T14:24:10Z</time></trkpt><trkpt lat="45.04924153736847" lon="9.233657923973778"><ele>76.0</ele><time>2026-04-19T14:24:11Z</time></trkpt><trkpt lat="45.04931220260328" lon="9.233920434040874"><ele>76.0</ele><time>2026-04-19T14:24:12Z</time></trkpt><trkpt lat="45.04938039695602" lon="9.234167425629465"><ele>76.0</ele><time>2026-04-19T14:24:13Z</time></trkpt><trkpt lat="45.049442220458964" lon="9.234409215209288"><ele>76.0</ele><time>2026-04-19T14:24:14Z</time></trkpt><trkpt lat="45.049502781542266" lon="9.23465505066672"><ele>76.0</ele><time>2026-04-19T14:24:15Z</time></trkpt><trkpt lat="45.04956978595641" lon="9.234903413108412"><ele>76.0</ele><time>2026-04-19T14:24:16Z</time></trkpt><trkpt lat="45.04963383560862" lon="9.235159706566918"><ele>77.0</ele><time>2026-04-19T14:24:17Z</time></trkpt><trkpt lat="45.04970157167556" lon="9.235413813458468"><ele>78.0</ele><time>2026-04-19T14:24:18Z</time></trkpt><trkpt lat="45.04975927706979" lon="9.235647633123497"><ele>79.0</ele><time>2026-04-19T14:24:19Z</time></trkpt><trkpt lat="45.04981922388699" lon="9.235888451189304"><ele>79.33333333333333</ele><time>2026-04-19T14:24:20Z</time></trkpt><trkpt lat="45.04988159209223" lon="9.236131937720925"><ele>79.66666666666667</ele><time>2026-04-19T14:24:21Z</time></trkpt><trkpt lat="45.049941588611595" lon="9.236376297331315"><ele>80.0</ele><time>2026-04-19T14:24:22Z</time></trkpt><trkpt lat="45.05000791467467" lon="9.23662047751759"><ele>80.0</ele><time>2026-04-19T14:24:23Z</time></trkpt><trkpt lat="45.050068893180736" lon="9.236870237108175"><ele>80.0</ele><time>2026-04-19T14:24:24Z</time></trkpt><trkpt lat="45.0501315435918" lon="9.237112506406964"><ele>80.0</ele><time>2026-04-19T14:24:25Z</time></trkpt><trkpt lat="45.05019551686781" lon="9.237352800692245"><ele>79.66666666666667</ele><time>2026-04-19T14:24:26Z</time></trkpt><trkpt lat="45.05025727046521" lon="9.237598991168628"><ele>79.33333333333333</ele><time>2026-04-19T14:24:27Z</time></trkpt><trkpt lat="45.05032187966733" lon="9.237845917005357"><ele>79.0</ele><time>2026-04-19T14:24:28Z</time></trkpt><trkpt lat="45.05038852863883" lon="9.23810200145339"><ele>80.33333333333333</ele><time>2026-04-19T14:24:29Z</time></trkpt><trkpt lat="45.050458405932176" lon="9.238360294645288"><ele>81.66666666666667</ele><time>2026-04-19T14:24:30Z</time></trkpt><trkpt lat="45.050533643700085" lon="9.238624041359326"><ele>83.0</ele><time>2026-04-19T14:24:31Z</time></trkpt><trkpt lat="45.05061431899364" lon="9.238896114573013"><ele>83.33333333333334</ele><time>2026-04-19T14:24:32Z</time></trkpt><trkpt lat="45.0507080163655" lon="9.239140195870968"><ele>83.66666666666667</ele><time>2026-04-19T14:24:33Z</time></trkpt><trkpt lat="45.05081081576257" lon="9.239372170463671"><ele>84.0</ele><time>2026-04-19T14:24:34Z</time></trkpt><trkpt lat="45.05093285694248" lon="9.239592640957557"><ele>82.33333333333333</ele><time>2026-04-19T14:24:35Z</time></trkpt><trkpt lat="45.05105873722455" lon="9.23979446796765"><ele>80.66666666666666</ele><time>2026-04-19T14:24:36Z</time></trkpt><trkpt lat="45.051190254522325" lon="9.23998842854039"><ele>79.0</ele><time>2026-04-19T14:24:37Z</time></trkpt><trkpt lat="45.05132945409496" lon="9.240191610504324"><ele>79.0</ele><time>2026-04-19T14:24:38Z</time></trkpt><trkpt lat="45.051473019933596" lon="9.24039163323412"><ele>79.0</ele><time>2026-04-19T14:24:39Z</time></trkpt><trkpt lat="45.05162493463969" lon="9.240619478171698"><ele>79.0</ele><time>2026-04-19T14:24:40Z</time></trkpt><trkpt lat="45.05180554470338" lon="9.240850264913023"><ele>80.0</ele><time>2026-04-19T14:24:41Z</time></trkpt><trkpt lat="45.051989495068284" lon="9.241094172672096"><ele>81.0</ele><time>2026-04-19T14:24:42Z</time></trkpt><trkpt lat="45.05218500899206" lon="9.241362543968812"><ele>79.5</ele><time>2026-04-19T14:24:43Z</time></trkpt><trkpt lat="45.05239187796498" lon="9.241650623095643"><ele>78.0</ele><time>2026-04-19T14:24:44Z</time></trkpt><trkpt lat="45.05259428329605" lon="9.241939838858062"><ele>78.0</ele><time>2026-04-19T14:24:45Z</time></trkpt><trkpt lat="45.052778734708234" lon="9.242236385658288"><ele>78.0</ele><time>2026-04-19T14:24:46Z</time></trkpt><trkpt lat="45.052970009108506" lon="9.242524018161513"><ele>80.0</ele><time>2026-04-19T14:24:47Z</time></trkpt><trkpt lat="45.053154559729435" lon="9.242783114806993"><ele>82.0</ele><time>2026-04-19T14:24:48Z</time></trkpt><trkpt lat="45.053338424534545" lon="9.243037498417207"><ele>82.0</ele><time>2026-04-19T14:24:49Z</time></trkpt><trkpt lat="45.05350194712389" lon="9.243276886234666"><ele>82.0</ele><time>2026-04-19T14:24:50Z</time></trkpt><trkpt lat="45.05365110628362" lon="9.243495243562023"><ele>82.0</ele><time>2026-04-19T14:24:51Z</time></trkpt><trkpt lat="45.053786904738466" lon="9.243682379429394"><ele>82.0</ele><time>2026-04-19T14:24:52Z</time></trkpt><trkpt lat="45.05389921029956" lon="9.243842422382595"><ele>82.0</ele><time>2026-04-19T14:24:53Z</time></trkpt><trkpt lat="45.05398810407208" lon="9.243969465202479"><ele>82.19999999999999</ele><time>2026-04-19T14:24:54Z</time></trkpt><trkpt lat="45.05407256463718" lon="9.244079888207244"><ele>82.4</ele><time>2026-04-19T14:24:55Z</time></trkpt><trkpt lat="45.05414548396282" lon="9.244185052117347"><ele>82.6</ele><time>2026-04-19T14:24:56Z</time></trkpt><trkpt lat="45.05420032132021" lon="9.244301846484339"><ele>82.80000000000001</ele><time>2026-04-19T14:24:57Z</time></trkpt><trkpt lat="45.054231691444215" lon="9.244432908625111"><ele>83.0</ele><time>2026-04-19T14:24:58Z</time></trkpt><trkpt lat="45.054269606825166" lon="9.244547516067101"><ele>83.0</ele><time>2026-04-19T14:24:59Z</time></trkpt><trkpt lat="45.054345902902526" lon="9.244630419353115"><ele>83.0</ele><time>2026-04-19T14:25:00Z</time></trkpt><trkpt lat="45.05445508880454" lon="9.244682786593518"><ele>83.0</ele><time>2026-04-19T14:25:01Z</time></trkpt><trkpt lat="45.05456475805414" lon="9.2447389139749"><ele>83.0</ele><time>2026-04-19T14:25:02Z</time></trkpt><trkpt lat="45.05465048868054" lon="9.244817119779913"><ele>83.0</ele><time>2026-04-19T14:25:03Z</time></trkpt><trkpt lat="45.05470802080551" lon="9.244937372149035"><ele>82.75</ele><time>2026-04-19T14:25:04Z</time></trkpt><trkpt lat="45.05478773436353" lon="9.245026557341571"><ele>82.5</ele><time>2026-04-19T14:25:05Z</time></trkpt><trkpt lat="45.05486240179253" lon="9.245133520540703"><ele>82.25</ele><time>2026-04-19T14:25:06Z</time></trkpt><trkpt lat="45.05495477354302" lon="9.24526523326447"><ele>82.0</ele><time>2026-04-19T14:25:07Z</time></trkpt><trkpt lat="45.055075350174775" lon="9.245434167278166"><ele>82.5</ele><time>2026-04-19T14:25:08Z</time></trkpt><trkpt lat="45.05522347117184" lon="9.24564505844463"><ele>83.0</ele><time>2026-04-19T14:25:09Z</time></trkpt><trkpt lat="45.05539966508491" lon="9.24589969821674"><ele>83.0</ele><time>2026-04-19T14:25:10Z</time></trkpt><trkpt lat="45.05560907775684" lon="9.246200098238607"><ele>83.0</ele><time>2026-04-19T14:25:11Z</time></trkpt><trkpt lat="45.05583608404797" lon="9.24651923775762"><ele>83.0</ele><time>2026-04-19T14:25:12Z</time></trkpt><trkpt lat="45.056071403024205" lon="9.246850104142645"><ele>83.0</ele><time>2026-04-19T14:25:13Z</time></trkpt><trkpt lat="45.05630200035982" lon="9.247167489423655"><ele>83.0</ele><time>2026-04-19T14:25:14Z</time></trkpt><trkpt lat="45.05650067161094" lon="9.247439798879942"><ele>83.0</ele><time>2026-04-19T14:25:15Z</time></trkpt><trkpt lat="45.056663041951715" lon="9.24766655150144"><ele>83.0</ele><time>2026-04-19T14:25:16Z</time></trkpt><trkpt lat="45.056796427526486" lon="9.247845585653353"><ele>83.0</ele><time>2026-04-19T14:25:17Z</time></trkpt><trkpt lat="45.056913701620594" lon="9.248005782084894"><ele>83.0</ele><time>2026-04-19T14:25:18Z</time></trkpt><trkpt lat="45.05701513768733" lon="9.248148637558664"><ele>83.60000000000001</ele><time>2026-04-19T14:25:19Z</time></trkpt><trkpt lat="45.05710499652231" lon="9.2482795342537"><ele>84.2</ele><time>2026-04-19T14:25:20Z</time></trkpt><trkpt lat="45.05718554839435" lon="9.248390991064385"><ele>84.8</ele><time>2026-04-19T14:25:21Z</time></trkpt><trkpt lat="45.05725636057119" lon="9.248486066570669"><ele>85.4</ele><time>2026-04-19T14:25:22Z</time></trkpt><trkpt lat="45.05731883950048" lon="9.248566006636594"><ele>86.0</ele><time>2026-04-19T14:25:23Z</time></trkpt><trkpt lat="45.05737421273147" lon="9.24863277099698"><ele>85.66666666666667</ele><time>2026-04-19T14:25:24.001Z</time></trkpt><trkpt lat="45.05745990610568" lon="9.248725087898503"><ele>85.33333333333334</ele><time>2026-04-19T14:25:26.001Z</time></trkpt><trkpt lat="45.05754166780099" lon="9.248809237469784"><ele>85.0</ele><time>2026-04-19T14:25:28.001Z</time></trkpt><trkpt lat="45.057582332875675" lon="9.248887837412775"><ele>84.66666666666667</ele><time>2026-04-19T14:25:29.001Z</time></trkpt><trkpt lat="45.05762065073456" lon="9.248980514885284"><ele>84.33333333333333</ele><time>2026-04-19T14:25:30.001Z</time></trkpt><trkpt lat="45.05767117113835" lon="9.249073790821088"><ele>84.0</ele><time>2026-04-19T14:25:31.001Z</time></trkpt><trkpt lat="45.05773432706533" lon="9.249158431937145"><ele>84.0</ele><time>2026-04-19T14:25:32.001Z</time></trkpt><trkpt lat="45.0578091531961" lon="9.249261345518791"><ele>84.0</ele><time>2026-04-19T14:25:33.001Z</time></trkpt><trkpt lat="45.057896231649956" lon="9.249383533772894"><ele>84.0</ele><time>2026-04-19T14:25:34.001Z</time></trkpt><trkpt lat="45.05801354790422" lon="9.249546034024235"><ele>84.0</ele><time>2026-04-19T14:25:35.001Z</time></trkpt><trkpt lat="45.05816922693638" lon="9.24977517281722"><ele>84.5</ele><time>2026-04-19T14:25:36.001Z</time></trkpt><trkpt lat="45.05834324593843" lon="9.250037808957085"><ele>85.0</ele><time>2026-04-19T14:25:37.001Z</time></trkpt><trkpt lat="45.05852511361726" lon="9.250302562118662"><ele>85.0</ele><time>2026-04-19T14:25:38.001Z</time></trkpt><trkpt lat="45.05873688625446" lon="9.250606708863181"><ele>85.0</ele><time>2026-04-19T14:25:39.001Z</time></trkpt><trkpt lat="45.058928341099985" lon="9.250883790301554"><ele>84.5</ele><time>2026-04-19T14:25:40.001Z</time></trkpt><trkpt lat="45.05909181085654" lon="9.251127732785697"><ele>84.0</ele><time>2026-04-19T14:25:41.001Z</time></trkpt><trkpt lat="45.059236605557366" lon="9.251352543129604"><ele>83.33333333333333</ele><time>2026-04-19T14:25:42.001Z</time></trkpt><trkpt lat="45.05937118490492" lon="9.25157609709966"><ele>82.66666666666666</ele><time>2026-04-19T14:25:43.001Z</time></trkpt><trkpt lat="45.05949181091532" lon="9.251804296164607"><ele>82.0</ele><time>2026-04-19T14:25:44.001Z</time></trkpt><trkpt lat="45.0595966982165" lon="9.252020409681064"><ele>82.0</ele><time>2026-04-19T14:25:45.001Z</time></trkpt><trkpt lat="45.05969159087111" lon="9.252220477390113"><ele>82.0</ele><time>2026-04-19T14:25:46.001Z</time></trkpt><trkpt lat="45.05977036371369" lon="9.252413635284348"><ele>82.0</ele><time>2026-04-19T14:25:46.999Z</time></trkpt><trkpt lat="45.0598275863665" lon="9.252599101763767"><ele>82.0</ele><time>2026-04-19T14:25:47.999Z</time></trkpt><trkpt lat="45.05986802527483" lon="9.2527753020615"><ele>82.0</ele><time>2026-04-19T14:25:48.999Z</time></trkpt><trkpt lat="45.05988672820181" lon="9.252929373076954"><ele>82.0</ele><time>2026-04-19T14:25:49.999Z</time></trkpt><trkpt lat="45.059891924916215" lon="9.253048772635001"><ele>82.0</ele><time>2026-04-19T14:25:50.999Z</time></trkpt><trkpt lat="45.059918471563584" lon="9.253142627436423"><ele>82.0</ele><time>2026-04-19T14:25:51.999Z</time></trkpt><trkpt lat="45.059974729276554" lon="9.253214778980032"><ele>82.5</ele><time>2026-04-19T14:25:52.999Z</time></trkpt><trkpt lat="45.06006376944385" lon="9.253269227494467"><ele>83.0</ele><time>2026-04-19T14:25:53.999Z</time></trkpt><trkpt lat="45.060174957990945" lon="9.253305411826558"><ele>83.5</ele><time>2026-04-19T14:25:54.999Z</time></trkpt><trkpt lat="45.060266068638064" lon="9.253393531704564"><ele>84.0</ele><time>2026-04-19T14:25:55.999Z</time></trkpt><trkpt lat="45.06033002676362" lon="9.253577479917121"><ele>84.0</ele><time>2026-04-19T14:25:56.999Z</time></trkpt><trkpt lat="45.06041393274899" lon="9.253765818253779"><ele>84.0</ele><time>2026-04-19T14:25:57.999Z</time></trkpt><trkpt lat="45.060516904703206" lon="9.253993714042837"><ele>84.0</ele><time>2026-04-19T14:25:58.999Z</time></trkpt><trkpt lat="45.060628370399236" lon="9.254239979950922"><ele>84.0</ele><time>2026-04-19T14:25:59.999Z</time></trkpt><trkpt lat="45.06072445064904" lon="9.254424783482872"><ele>84.0</ele><time>2026-04-19T14:26:00.999Z</time></trkpt><trkpt lat="45.06079218302382" lon="9.254592164023169"><ele>84.0</ele><time>2026-04-19T14:26:01.999Z</time></trkpt><trkpt lat="45.06085567391814" lon="9.254735658280703"><ele>84.0</ele><time>2026-04-19T14:26:02.999Z</time></trkpt><trkpt lat="45.06091950559371" lon="9.254868475098021"><ele>84.0</ele><time>2026-04-19T14:26:03.999Z</time></trkpt><trkpt lat="45.06098461829923" lon="9.254991685952898"><ele>84.0</ele><time>2026-04-19T14:26:04.999Z</time></trkpt><trkpt lat="45.0610534710884" lon="9.255109507919379"><ele>84.0</ele><time>2026-04-19T14:26:05.999Z</time></trkpt><trkpt lat="45.061130663937334" lon="9.255234107541865"><ele>84.0</ele><time>2026-04-19T14:26:06.999Z</time></trkpt><trkpt lat="45.06122915932277" lon="9.25534597434256"><ele>84.0</ele><time>2026-04-19T14:26:07.999Z</time></trkpt><trkpt lat="45.061359019934415" lon="9.255439808148823"><ele>84.0</ele><time>2026-04-19T14:26:08.999Z</time></trkpt><trkpt lat="45.06151384228852" lon="9.255549812197406"><ele>84.0</ele><time>2026-04-19T14:26:09.999Z</time></trkpt><trkpt lat="45.06168068020687" lon="9.255646580533012"><ele>83.66666666666667</ele><time>2026-04-19T14:26:10.999Z</time></trkpt><trkpt lat="45.06186998038473" lon="9.255702736446231"><ele>83.33333333333334</ele><time>2026-04-19T14:26:12Z</time></trkpt><trkpt lat="45.062064395270184" lon="9.255749487342747"><ele>83.0</ele><time>2026-04-19T14:26:13Z</time></trkpt><trkpt lat="45.06226420898479" lon="9.255797094479112"><ele>83.33333333333334</ele><time>2026-04-19T14:26:14Z</time></trkpt><trkpt lat="45.06247395158377" lon="9.255860920913292"><ele>83.66666666666667</ele><time>2026-04-19T14:26:15Z</time></trkpt><trkpt lat="45.0626694426632" lon="9.255930537457711"><ele>84.0</ele><time>2026-04-19T14:26:16Z</time></trkpt><trkpt lat="45.06283765914502" lon="9.255996081752901"><ele>84.0</ele><time>2026-04-19T14:26:17Z</time></trkpt><trkpt lat="45.06299148041169" lon="9.256051078240214"><ele>84.0</ele><time>2026-04-19T14:26:18Z</time></trkpt><trkpt lat="45.06314127523797" lon="9.256099071813146"><ele>84.0</ele><time>2026-04-19T14:26:19Z</time></trkpt><trkpt lat="45.063276916180214" lon="9.256138659181236"><ele>83.25</ele><time>2026-04-19T14:26:20Z</time></trkpt><trkpt lat="45.063399051657456" lon="9.256182646258091"><ele>82.5</ele><time>2026-04-19T14:26:21Z</time></trkpt><trkpt lat="45.063510492644205" lon="9.256232265874651"><ele>81.75</ele><time>2026-04-19T14:26:22Z</time></trkpt><trkpt lat="45.06361352005133" lon="9.256287700595909"><ele>81.0</ele><time>2026-04-19T14:26:23Z</time></trkpt><trkpt lat="45.063709725499976" lon="9.256351272407372"><ele>81.0</ele><time>2026-04-19T14:26:24Z</time></trkpt><trkpt lat="45.063784474180274" lon="9.256409502419688"><ele>81.0</ele><time>2026-04-19T14:26:25Z</time></trkpt><trkpt lat="45.063870569843985" lon="9.256492858999502"><ele>81.0</ele><time>2026-04-19T14:26:26Z</time></trkpt><trkpt lat="45.0639453557305" lon="9.256562953201472"><ele>81.0</ele><time>2026-04-19T14:26:27Z</time></trkpt><trkpt lat="45.064013373974795" lon="9.256626856117807"><ele>81.0</ele><time>2026-04-19T14:26:28Z</time></trkpt><trkpt lat="45.064080351971675" lon="9.256679288280578"><ele>81.0</ele><time>2026-04-19T14:26:29Z</time></trkpt><trkpt lat="45.064149850507945" lon="9.256740414414745"><ele>80.8</ele><time>2026-04-19T14:26:30Z</time></trkpt><trkpt lat="45.064212042008016" lon="9.256824592097761"><ele>80.6</ele><time>2026-04-19T14:26:31Z</time></trkpt><trkpt lat="45.06426022859121" lon="9.256946637289227"><ele>80.4</ele><time>2026-04-19T14:26:32Z</time></trkpt><trkpt lat="45.06430785725936" lon="9.25707304951397"><ele>80.2</ele><time>2026-04-19T14:26:33Z</time></trkpt><trkpt lat="45.06436092647907" lon="9.25719126789998"><ele>80.0</ele><time>2026-04-19T14:26:34Z</time></trkpt><trkpt lat="45.06441599489571" lon="9.257307800971457"><ele>80.0</ele><time>2026-04-19T14:26:35Z</time></trkpt><trkpt lat="45.064469786913754" lon="9.257413799401395"><ele>80.0</ele><time>2026-04-19T14:26:36Z</time></trkpt><trkpt lat="45.06452147074337" lon="9.257510943844476"><ele>80.0</ele><time>2026-04-19T14:26:37Z</time></trkpt><trkpt lat="45.064572164745584" lon="9.25760280444376"><ele>80.0</ele><time>2026-04-19T14:26:38Z</time></trkpt><trkpt lat="45.06462060361006" lon="9.25769328854538"><ele>80.0</ele><time>2026-04-19T14:26:39Z</time></trkpt><trkpt lat="45.06467347013177" lon="9.257788780005768"><ele>80.0</ele><time>2026-04-19T14:26:40Z</time></trkpt><trkpt lat="45.06472232015986" lon="9.25787992937578"><ele>80.0</ele><time>2026-04-19T14:26:41Z</time></trkpt><trkpt lat="45.06477481885413" lon="9.257974785923107"><ele>80.0</ele><time>2026-04-19T14:26:42Z</time></trkpt><trkpt lat="45.06483243838475" lon="9.258103728312372"><ele>80.0</ele><time>2026-04-19T14:26:43Z</time></trkpt><trkpt lat="45.06489348755559" lon="9.258226839160848"><ele>80.0</ele><time>2026-04-19T14:26:44Z</time></trkpt><trkpt lat="45.06496109416855" lon="9.25834162316854"><ele>80.0</ele><time>2026-04-19T14:26:45Z</time></trkpt><trkpt lat="45.065005973187134" lon="9.258455413071045"><ele>80.0</ele><time>2026-04-19T14:26:46Z</time></trkpt><trkpt lat="45.06504603028804" lon="9.258548743934837"><ele>80.0</ele><time>2026-04-19T14:26:47Z</time></trkpt><trkpt lat="45.06508044129262" lon="9.258624322199633"><ele>80.0</ele><time>2026-04-19T14:26:48Z</time></trkpt><trkpt lat="45.065134108409545" lon="9.258683822116403"><ele>80.0</ele><time>2026-04-19T14:27:16.001Z</time></trkpt><trkpt lat="45.06516618498045" lon="9.25876688335803"><ele>80.0</ele><time>2026-04-19T14:27:28.001Z</time></trkpt><trkpt lat="45.06520729898294" lon="9.258855333419167"><ele>80.0</ele><time>2026-04-19T14:27:29.001Z</time></trkpt><trkpt lat="45.0652534674597" lon="9.258963834600832"><ele>80.0</ele><time>2026-04-19T14:27:30.001Z</time></trkpt><trkpt lat="45.06530541574309" lon="9.259078304393233"><ele>80.5</ele><time>2026-04-19T14:27:31.001Z</time></trkpt><trkpt lat="45.065372311145275" lon="9.259214653868916"><ele>81.0</ele><time>2026-04-19T14:27:32.001Z</time></trkpt><trkpt lat="45.06545417368818" lon="9.25937803140766"><ele>81.5</ele><time>2026-04-19T14:27:33.001Z</time></trkpt><trkpt lat="45.06553910541376" lon="9.259545836638043"><ele>82.0</ele><time>2026-04-19T14:27:34.001Z</time></trkpt><trkpt lat="45.065632567794204" lon="9.259725185003782"><ele>82.0</ele><time>2026-04-19T14:27:35.001Z</time></trkpt><trkpt lat="45.0657385536464" lon="9.25991874761005"><ele>82.0</ele><time>2026-04-19T14:27:36.001Z</time></trkpt><trkpt lat="45.06585660058162" lon="9.26012359708909"><ele>82.0</ele><time>2026-04-19T14:27:37.001Z</time></trkpt><trkpt lat="45.065955249777744" lon="9.260321113912722"><ele>81.25</ele><time>2026-04-19T14:27:38.001Z</time></trkpt><trkpt lat="45.066055198996025" lon="9.260509937479915"><ele>80.5</ele><time>2026-04-19T14:27:39.001Z</time></trkpt><trkpt lat="45.066132701089415" lon="9.260704246646789"><ele>79.75</ele><time>2026-04-19T14:27:40.001Z</time></trkpt><trkpt lat="45.066195556215746" lon="9.260829651458437"><ele>79.0</ele><time>2026-04-19T14:27:41.001Z</time></trkpt><trkpt lat="45.06624676915831" lon="9.260933372956647"><ele>79.0</ele><time>2026-04-19T14:27:42.001Z</time></trkpt><trkpt lat="45.066303366151644" lon="9.261073605291509"><ele>79.0</ele><time>2026-04-19T14:27:43.001Z</time></trkpt><trkpt lat="45.06635309483643" lon="9.261229935188739"><ele>79.0</ele><time>2026-04-19T14:27:44.001Z</time></trkpt><trkpt lat="45.066428174513625" lon="9.261379299891848"><ele>79.0</ele><time>2026-04-19T14:27:45.001Z</time></trkpt><trkpt lat="45.06652640844618" lon="9.26152288122709"><ele>79.0</ele><time>2026-04-19T14:27:46.001Z</time></trkpt><trkpt lat="45.066624123241795" lon="9.26168866631609"><ele>79.0</ele><time>2026-04-19T14:27:47.001Z</time></trkpt><trkpt lat="45.06672029153141" lon="9.261874892650921"><ele>79.0</ele><time>2026-04-19T14:27:48.001Z</time></trkpt><trkpt lat="45.06681988869908" lon="9.26207280380737"><ele>79.0</ele><time>2026-04-19T14:27:49.001Z</time></trkpt><trkpt lat="45.06692324800037" lon="9.262277877035519"><ele>79.0</ele><time>2026-04-19T14:27:50.001Z</time></trkpt><trkpt lat="45.06702921459005" lon="9.262482458922129"><ele>79.0</ele><time>2026-04-19T14:27:51.001Z</time></trkpt><trkpt lat="45.06713895123416" lon="9.26269141759995"><ele>80.0</ele><time>2026-04-19T14:27:52.001Z</time></trkpt><trkpt lat="45.06724304580891" lon="9.262929403147538"><ele>81.0</ele><time>2026-04-19T14:27:52.999Z</time></trkpt><trkpt lat="45.06736798817931" lon="9.263179075677009"><ele>82.0</ele><time>2026-04-19T14:27:53.999Z</time></trkpt><trkpt lat="45.06748863555555" lon="9.263420286483651"><ele>82.0</ele><time>2026-04-19T14:27:54.999Z</time></trkpt><trkpt lat="45.06760955832388" lon="9.2636624170721"><ele>82.0</ele><time>2026-04-19T14:27:55.999Z</time></trkpt><trkpt lat="45.067729220574535" lon="9.263902023643253"><ele>82.0</ele><time>2026-04-19T14:27:56.999Z</time></trkpt><trkpt lat="45.06784145458281" lon="9.264126756223742"><ele>82.0</ele><time>2026-04-19T14:27:57.999Z</time></trkpt><trkpt lat="45.067962317683126" lon="9.264370277535496"><ele>82.0</ele><time>2026-04-19T14:27:58.999Z</time></trkpt><trkpt lat="45.06804421830754" lon="9.264544729477828"><ele>82.0</ele><time>2026-04-19T14:28:00.999Z</time></trkpt><trkpt lat="45.06812244631877" lon="9.264699015494188"><ele>82.0</ele><time>2026-04-19T14:28:01.999Z</time></trkpt><trkpt lat="45.068197088709034" lon="9.264842604643372"><ele>82.0</ele><time>2026-04-19T14:28:02.999Z</time></trkpt><trkpt lat="45.06827221573813" lon="9.264988985693474"><ele>82.0</ele><time>2026-04-19T14:28:03.999Z</time></trkpt><trkpt lat="45.06835038730832" lon="9.2651422580965"><ele>82.0</ele><time>2026-04-19T14:28:04.999Z</time></trkpt><trkpt lat="45.068432843450275" lon="9.265308533104175"><ele>82.0</ele><time>2026-04-19T14:28:05.999Z</time></trkpt><trkpt lat="45.068513090752155" lon="9.2654830058527"><ele>82.0</ele><time>2026-04-19T14:28:06.999Z</time></trkpt><trkpt lat="45.06858547153623" lon="9.265640102441411"><ele>82.0</ele><time>2026-04-19T14:28:07.999Z</time></trkpt><trkpt lat="45.06865408245134" lon="9.265787020627887"><ele>82.0</ele><time>2026-04-19T14:28:09Z</time></trkpt><trkpt lat="45.0687225948314" lon="9.265928024100669"><ele>82.0</ele><time>2026-04-19T14:28:10Z</time></trkpt><trkpt lat="45.06878739756216" lon="9.26605740099783"><ele>82.0</ele><time>2026-04-19T14:28:11Z</time></trkpt><trkpt lat="45.06885309513544" lon="9.266173582915922"><ele>82.0</ele><time>2026-04-19T14:28:12Z</time></trkpt><trkpt lat="45.068912196949825" lon="9.266284377774259"><ele>82.0</ele><time>2026-04-19T14:28:13Z</time></trkpt><trkpt lat="45.068953935075406" lon="9.266398395491803"><ele>82.0</ele><time>2026-04-19T14:28:14Z</time></trkpt><trkpt lat="45.0689712410619" lon="9.266534363480071"><ele>82.33333333333333</ele><time>2026-04-19T14:28:15Z</time></trkpt><trkpt lat="45.06896673167544" lon="9.266660350764363"><ele>82.66666666666666</ele><time>2026-04-19T14:28:16Z</time></trkpt><trkpt lat="45.068986212423155" lon="9.26676854614519"><ele>83.0</ele><time>2026-04-19T14:28:17Z</time></trkpt><trkpt lat="45.06904258922018" lon="9.266843773681478"><ele>83.33333333333333</ele><time>2026-04-19T14:28:18Z</time></trkpt><trkpt lat="45.06911586363188" lon="9.266891399365411"><ele>83.66666666666667</ele><time>2026-04-19T14:28:19Z</time></trkpt><trkpt lat="45.06919500176197" lon="9.266921915003685"><ele>84.0</ele><time>2026-04-19T14:28:20Z</time></trkpt><trkpt lat="45.06927364770898" lon="9.267009613527724"><ele>84.0</ele><time>2026-04-19T14:28:21Z</time></trkpt><trkpt lat="45.06936355393387" lon="9.267160534838155"><ele>84.0</ele><time>2026-04-19T14:28:22Z</time></trkpt><trkpt lat="45.069449128208234" lon="9.267334976653048"><ele>84.0</ele><time>2026-04-19T14:28:23Z</time></trkpt><trkpt lat="45.069565956979226" lon="9.267536562955316"><ele>86.0</ele><time>2026-04-19T14:28:24Z</time></trkpt><trkpt lat="45.06971805648213" lon="9.267792338733702"><ele>88.0</ele><time>2026-04-19T14:28:25Z</time></trkpt><trkpt lat="45.06989187085642" lon="9.26807698001343"><ele>87.5</ele><time>2026-04-19T14:28:26Z</time></trkpt><trkpt lat="45.070070391181204" lon="9.268325511673368"><ele>87.0</ele><time>2026-04-19T14:28:27Z</time></trkpt><trkpt lat="45.07026667475241" lon="9.2685558466386"><ele>87.0</ele><time>2026-04-19T14:28:28Z</time></trkpt><trkpt lat="45.07047814239363" lon="9.268770363941378"><ele>87.0</ele><time>2026-04-19T14:28:29Z</time></trkpt><trkpt lat="45.07068970457922" lon="9.268951594906088"><ele>86.0</ele><time>2026-04-19T14:28:30Z</time></trkpt><trkpt lat="45.070896314459866" lon="9.269108009527306"><ele>85.0</ele><time>2026-04-19T14:28:31Z</time></trkpt><trkpt lat="45.071094839018535" lon="9.269248472569139"><ele>85.0</ele><time>2026-04-19T14:28:32Z</time></trkpt><trkpt lat="45.07128322023279" lon="9.269386743197987"><ele>85.0</ele><time>2026-04-19T14:28:33Z</time></trkpt><trkpt lat="45.07146188656081" lon="9.269528396091687"><ele>85.0</ele><time>2026-04-19T14:28:34Z</time></trkpt><trkpt lat="45.07164158983458" lon="9.269663118384656"><ele>83.33333333333333</ele><time>2026-04-19T14:28:35Z</time></trkpt><trkpt lat="45.071823715713464" lon="9.2698111926864"><ele>81.66666666666667</ele><time>2026-04-19T14:28:36Z</time></trkpt><trkpt lat="45.07200439787966" lon="9.269952645372282"><ele>80.0</ele><time>2026-04-19T14:28:37Z</time></trkpt><trkpt lat="45.07217560806005" lon="9.27008702729154"><ele>80.0</ele><time>2026-04-19T14:28:38Z</time></trkpt><trkpt lat="45.0723476206869" lon="9.270218732481572"><ele>80.0</ele><time>2026-04-19T14:28:39Z</time></trkpt><trkpt lat="45.07252085803961" lon="9.27034999242199"><ele>80.0</ele><time>2026-04-19T14:28:40Z</time></trkpt><trkpt lat="45.07269677723665" lon="9.270484380837042"><ele>79.66666666666667</ele><time>2026-04-19T14:28:41Z</time></trkpt><trkpt lat="45.07286256263953" lon="9.270624529747757"><ele>79.33333333333333</ele><time>2026-04-19T14:28:42Z</time></trkpt><trkpt lat="45.07302424170308" lon="9.27077042436964"><ele>79.0</ele><time>2026-04-19T14:28:43Z</time></trkpt><trkpt lat="45.07317832299822" lon="9.270911818669642"><ele>77.66666666666666</ele><time>2026-04-19T14:28:44Z</time></trkpt><trkpt lat="45.07332554679351" lon="9.271062417548539"><ele>76.33333333333333</ele><time>2026-04-19T14:28:45Z</time></trkpt><trkpt lat="45.073466821763716" lon="9.271218277513896"><ele>75.0</ele><time>2026-04-19T14:28:46Z</time></trkpt><trkpt lat="45.073606781414945" lon="9.271380243602312"><ele>75.66666666666667</ele><time>2026-04-19T14:28:47Z</time></trkpt><trkpt lat="45.07374495414226" lon="9.27155187100111"><ele>76.33333333333334</ele><time>2026-04-19T14:28:48Z</time></trkpt><trkpt lat="45.07387674989935" lon="9.271733851078851"><ele>77.0</ele><time>2026-04-19T14:28:49Z</time></trkpt><trkpt lat="45.07399850732824" lon="9.27192070291936"><ele>76.66666666666667</ele><time>2026-04-19T14:28:50Z</time></trkpt><trkpt lat="45.07411194479618" lon="9.272108326890706"><ele>76.33333333333333</ele><time>2026-04-19T14:28:51Z</time></trkpt><trkpt lat="45.074213577777435" lon="9.272294041788795"><ele>76.0</ele><time>2026-04-19T14:28:52Z</time></trkpt><trkpt lat="45.074306156939734" lon="9.272478946901764"><ele>76.0</ele><time>2026-04-19T14:28:53Z</time></trkpt><trkpt lat="45.07439012353009" lon="9.272658717507033"><ele>76.0</ele><time>2026-04-19T14:28:54Z</time></trkpt><trkpt lat="45.07446406922847" lon="9.272835062245056"><ele>76.0</ele><time>2026-04-19T14:28:55Z</time></trkpt><trkpt lat="45.07452687946513" lon="9.27300977106225"><ele>76.0</ele><time>2026-04-19T14:28:56Z</time></trkpt><trkpt lat="45.074578292293175" lon="9.273163674052826"><ele>75.8</ele><time>2026-04-19T14:28:57Z</time></trkpt><trkpt lat="45.07462022304454" lon="9.273313495119554"><ele>75.6</ele><time>2026-04-19T14:28:58Z</time></trkpt><trkpt lat="45.074660706970015" lon="9.273442594030836"><ele>75.4</ele><time>2026-04-19T14:28:59Z</time></trkpt><trkpt lat="45.074690999837976" lon="9.273558755969233"><ele>75.2</ele><time>2026-04-19T14:29:00Z</time></trkpt><trkpt lat="45.074706044844305" lon="9.273667286982146"><ele>75.0</ele><time>2026-04-19T14:29:01.001Z</time></trkpt><trkpt lat="45.074691672247646" lon="9.273767066049816"><ele>74.99999999999999</ele><time>2026-04-19T14:29:02.001Z</time></trkpt><trkpt lat="45.07465412936581" lon="9.273861620398035"><ele>75.0</ele><time>2026-04-19T14:29:03.001Z</time></trkpt><trkpt lat="45.074608562711745" lon="9.273944724019017"><ele>75.0</ele><time>2026-04-19T14:29:04.001Z</time></trkpt><trkpt lat="45.07456849144777" lon="9.274023742976832"><ele>75.0</ele><time>2026-04-19T14:29:05.001Z</time></trkpt><trkpt lat="45.074549331937554" lon="9.27411110131644"><ele>75.0</ele><time>2026-04-19T14:29:06.001Z</time></trkpt><trkpt lat="45.07455349915858" lon="9.27421010327115"><ele>74.99999999999999</ele><time>2026-04-19T14:29:07.001Z</time></trkpt><trkpt lat="45.074576181039426" lon="9.274304534325129"><ele>75.0</ele><time>2026-04-19T14:29:08.001Z</time></trkpt><trkpt lat="45.074646017488284" lon="9.274374445477461"><ele>74.8</ele><time>2026-04-19T14:29:09.001Z</time></trkpt><trkpt lat="45.07472542489345" lon="9.274407478668394"><ele>74.6</ele><time>2026-04-19T14:29:10.001Z</time></trkpt><trkpt lat="45.07481636205523" lon="9.274386764013999"><ele>74.4</ele><time>2026-04-19T14:29:11.001Z</time></trkpt><trkpt lat="45.07490017108885" lon="9.274470662864756"><ele>74.2</ele><time>2026-04-19T14:29:12.001Z</time></trkpt><trkpt lat="45.07495763245146" lon="9.274573100645926"><ele>74.0</ele><time>2026-04-19T14:29:13.001Z</time></trkpt><trkpt lat="45.0750004536347" lon="9.274712665295512"><ele>74.5</ele><time>2026-04-19T14:29:14.001Z</time></trkpt><trkpt lat="45.07503286901336" lon="9.274871823185437"><ele>75.0</ele><time>2026-04-19T14:29:15.001Z</time></trkpt><trkpt lat="45.07506704963524" lon="9.275042307783645"><ele>75.5</ele><time>2026-04-19T14:29:16.001Z</time></trkpt><trkpt lat="45.07510693547911" lon="9.275218510270195"><ele>76.0</ele><time>2026-04-19T14:29:17.001Z</time></trkpt><trkpt lat="45.07516020551703" lon="9.275414248438299"><ele>76.0</ele><time>2026-04-19T14:29:18.001Z</time></trkpt><trkpt lat="45.07521611171628" lon="9.275654921733722"><ele>76.0</ele><time>2026-04-19T14:29:19.001Z</time></trkpt><trkpt lat="45.07527694053041" lon="9.275952832589125"><ele>76.0</ele><time>2026-04-19T14:29:20.001Z</time></trkpt><trkpt lat="45.075337944334066" lon="9.276270345109461"><ele>75.66666666666666</ele><time>2026-04-19T14:29:21.001Z</time></trkpt><trkpt lat="45.07539206068799" lon="9.276557313764195"><ele>75.33333333333333</ele><time>2026-04-19T14:29:22.001Z</time></trkpt><trkpt lat="45.0754530986055" lon="9.276841094128107"><ele>75.0</ele><time>2026-04-19T14:29:23.001Z</time></trkpt><trkpt lat="45.075523934457976" lon="9.277109496084917"><ele>75.66666666666667</ele><time>2026-04-19T14:29:24.001Z</time></trkpt><trkpt lat="45.07559502001529" lon="9.277356369308842"><ele>76.33333333333334</ele><time>2026-04-19T14:29:25.001Z</time></trkpt><trkpt lat="45.07566803179016" lon="9.277585191197236"><ele>77.0</ele><time>2026-04-19T14:29:26.001Z</time></trkpt><trkpt lat="45.07574921210383" lon="9.277809332192057"><ele>76.33333333333334</ele><time>2026-04-19T14:29:27.001Z</time></trkpt><trkpt lat="45.07583495404777" lon="9.27803159265721"><ele>75.66666666666667</ele><time>2026-04-19T14:29:28.001Z</time></trkpt><trkpt lat="45.075922503731974" lon="9.278235745507573"><ele>75.0</ele><time>2026-04-19T14:29:29.001Z</time></trkpt><trkpt lat="45.07600552304268" lon="9.278420751911119"><ele>75.0</ele><time>2026-04-19T14:29:30.001Z</time></trkpt><trkpt lat="45.07607943130167" lon="9.278585962543941"><ele>75.0</ele><time>2026-04-19T14:29:31.001Z</time></trkpt><trkpt lat="45.076150112331476" lon="9.27873110457392"><ele>75.0</ele><time>2026-04-19T14:29:32.001Z</time></trkpt><trkpt lat="45.076221972024506" lon="9.278876824030654"><ele>75.0</ele><time>2026-04-19T14:29:33.001Z</time></trkpt><trkpt lat="45.07629788864861" lon="9.279025648943557"><ele>75.75</ele><time>2026-04-19T14:29:34.001Z</time></trkpt><trkpt lat="45.07637054053304" lon="9.279169552561022"><ele>76.5</ele><time>2026-04-19T14:29:35.001Z</time></trkpt><trkpt lat="45.076439313075916" lon="9.2793140959076"><ele>77.25</ele><time>2026-04-19T14:29:36.001Z</time></trkpt><trkpt lat="45.07650970413422" lon="9.279455250139135"><ele>78.0</ele><time>2026-04-19T14:29:37.001Z</time></trkpt><trkpt lat="45.07657810120417" lon="9.279592867573022"><ele>77.4</ele><time>2026-04-19T14:29:38.001Z</time></trkpt><trkpt lat="45.07664488024894" lon="9.27972160206565"><ele>76.8</ele><time>2026-04-19T14:29:39.001Z</time></trkpt><trkpt lat="45.076708704999824" lon="9.279837618174108"><ele>76.2</ele><time>2026-04-19T14:29:40.001Z</time></trkpt><trkpt lat="45.07676985632562" lon="9.27994143191432"><ele>75.6</ele><time>2026-04-19T14:29:41.001Z</time></trkpt><trkpt lat="45.07682807663718" lon="9.280028547203862"><ele>75.0</ele><time>2026-04-19T14:29:42.001Z</time></trkpt><trkpt lat="45.0768794857585" lon="9.28010795703169"><ele>75.0</ele><time>2026-04-19T14:29:43.001Z</time></trkpt><trkpt lat="45.076916959776185" lon="9.280191852632942"><ele>75.0</ele><time>2026-04-19T14:29:44.001Z</time></trkpt><trkpt lat="45.07694447074982" lon="9.28029352346724"><ele>75.0</ele><time>2026-04-19T14:29:45.001Z</time></trkpt><trkpt lat="45.07697927664014" lon="9.280408371931212"><ele>75.0</ele><time>2026-04-19T14:29:46.001Z</time></trkpt><trkpt lat="45.07703218290958" lon="9.280535058755769"><ele>75.0</ele><time>2026-04-19T14:29:47.001Z</time></trkpt><trkpt lat="45.077104855655676" lon="9.280663683954495"><ele>75.5</ele><time>2026-04-19T14:29:48.001Z</time></trkpt><trkpt lat="45.07718471201628" lon="9.280793771901228"><ele>76.0</ele><time>2026-04-19T14:29:49.001Z</time></trkpt><trkpt lat="45.07725584795918" lon="9.280926987000871"><ele>76.5</ele><time>2026-04-19T14:29:50.001Z</time></trkpt><trkpt lat="45.07732316582116" lon="9.281069996031615"><ele>77.0</ele><time>2026-04-19T14:29:51.001Z</time></trkpt><trkpt lat="45.07739830952243" lon="9.281221654423309"><ele>77.0</ele><time>2026-04-19T14:29:52.001Z</time></trkpt><trkpt lat="45.077475552292576" lon="9.281377071414125"><ele>77.0</ele><time>2026-04-19T14:29:53.001Z</time></trkpt><trkpt lat="45.07754853328739" lon="9.28154167416111"><ele>77.0</ele><time>2026-04-19T14:29:54.001Z</time></trkpt><trkpt lat="45.07761459940444" lon="9.28171626129641"><ele>77.0</ele><time>2026-04-19T14:29:55.001Z</time></trkpt><trkpt lat="45.07767347525461" lon="9.281897594918782"><ele>77.0</ele><time>2026-04-19T14:29:56.001Z</time></trkpt><trkpt lat="45.077727843428654" lon="9.282077295446141"><ele>77.0</ele><time>2026-04-19T14:29:57.001Z</time></trkpt><trkpt lat="45.07777904004461" lon="9.282268483027973"><ele>77.0</ele><time>2026-04-19T14:29:58.001Z</time></trkpt><trkpt lat="45.07782468417497" lon="9.282455770723647"><ele>77.0</ele><time>2026-04-19T14:29:58.999Z</time></trkpt><trkpt lat="45.077873207522956" lon="9.282642144335137"><ele>77.5</ele><time>2026-04-19T14:29:59.999Z</time></trkpt><trkpt lat="45.07791529408614" lon="9.282827597515263"><ele>78.0</ele><time>2026-04-19T14:30:00.999Z</time></trkpt><trkpt lat="45.07795562867596" lon="9.283007457039522"><ele>78.5</ele><time>2026-04-19T14:30:01.999Z</time></trkpt><trkpt lat="45.078002390019385" lon="9.28319204840038"><ele>79.0</ele><time>2026-04-19T14:30:02.999Z</time></trkpt><trkpt lat="45.0780477045075" lon="9.283376030125385"><ele>79.5</ele><time>2026-04-19T14:30:03.999Z</time></trkpt><trkpt lat="45.07809250697522" lon="9.283559278095508"><ele>80.0</ele><time>2026-04-19T14:30:04.999Z</time></trkpt><trkpt lat="45.078135378014316" lon="9.283741386684023"><ele>80.5</ele><time>2026-04-19T14:30:05.999Z</time></trkpt><trkpt lat="45.07817815933131" lon="9.283911797452847"><ele>81.0</ele><time>2026-04-19T14:30:06.999Z</time></trkpt><trkpt lat="45.07821490644395" lon="9.284070956615595"><ele>81.0</ele><time>2026-04-19T14:30:07.999Z</time></trkpt><trkpt lat="45.07825006546886" lon="9.28422284069356"><ele>81.0</ele><time>2026-04-19T14:30:08.999Z</time></trkpt><trkpt lat="45.078285168569906" lon="9.28436711901342"><ele>81.0</ele><time>2026-04-19T14:30:09.999Z</time></trkpt><trkpt lat="45.07831703171546" lon="9.284498200672838"><ele>81.0</ele><time>2026-04-19T14:30:10.999Z</time></trkpt><trkpt lat="45.07834164145977" lon="9.284615012337559"><ele>81.0</ele><time>2026-04-19T14:30:11.999Z</time></trkpt><trkpt lat="45.078364621436606" lon="9.284724723864635"><ele>80.0</ele><time>2026-04-19T14:30:12.999Z</time></trkpt><trkpt lat="45.078387251312876" lon="9.284824378166793"><ele>79.0</ele><time>2026-04-19T14:30:13.999Z</time></trkpt><trkpt lat="45.07840099507657" lon="9.28492802252766"><ele>78.0</ele><time>2026-04-19T14:30:14.999Z</time></trkpt><trkpt lat="45.078401207956674" lon="9.285038582308689"><ele>77.0</ele><time>2026-04-19T14:30:15.999Z</time></trkpt><trkpt lat="45.078393252370894" lon="9.28514217432558"><ele>76.0</ele><time>2026-04-19T14:30:16.999Z</time></trkpt><trkpt lat="45.07840275289105" lon="9.28524413773422"><ele>75.0</ele><time>2026-04-19T14:30:17.999Z</time></trkpt><trkpt lat="45.07844933974839" lon="9.285351083441762"><ele>75.0</ele><time>2026-04-19T14:30:19Z</time></trkpt><trkpt lat="45.078521970145346" lon="9.285461504489705"><ele>75.0</ele><time>2026-04-19T14:30:20Z</time></trkpt><trkpt lat="45.07858037383121" lon="9.285611716551342"><ele>75.0</ele><time>2026-04-19T14:30:21Z</time></trkpt><trkpt lat="45.07862952912882" lon="9.28581716709981"><ele>75.0</ele><time>2026-04-19T14:30:22Z</time></trkpt><trkpt lat="45.0786838716141" lon="9.286059797562597"><ele>75.0</ele><time>2026-04-19T14:30:23Z</time></trkpt><trkpt lat="45.07874418770924" lon="9.286315774237318"><ele>75.0</ele><time>2026-04-19T14:30:24Z</time></trkpt><trkpt lat="45.07879852469923" lon="9.28656439891161"><ele>75.0</ele><time>2026-04-19T14:30:25Z</time></trkpt><trkpt lat="45.07885425580383" lon="9.286842926036911"><ele>75.0</ele><time>2026-04-19T14:30:26Z</time></trkpt><trkpt lat="45.078884550472026" lon="9.287139210112722"><ele>75.0</ele><time>2026-04-19T14:30:27Z</time></trkpt><trkpt lat="45.0788951643306" lon="9.287423934880364"><ele>75.0</ele><time>2026-04-19T14:30:28Z</time></trkpt><trkpt lat="45.078894445227746" lon="9.287718007705378"><ele>75.0</ele><time>2026-04-19T14:30:29Z</time></trkpt><trkpt lat="45.078893628556735" lon="9.287983552250799"><ele>75.0</ele><time>2026-04-19T14:30:30Z</time></trkpt><trkpt lat="45.07889606902516" lon="9.288227126922523"><ele>75.0</ele><time>2026-04-19T14:30:31Z</time></trkpt><trkpt lat="45.078895780239606" lon="9.288442108570738"><ele>75.0</ele><time>2026-04-19T14:30:32Z</time></trkpt><trkpt lat="45.078895696878206" lon="9.28864135626567"><ele>75.0</ele><time>2026-04-19T14:30:33Z</time></trkpt><trkpt lat="45.07889987464904" lon="9.288818588029661"><ele>75.0</ele><time>2026-04-19T14:30:34Z</time></trkpt><trkpt lat="45.07890537562568" lon="9.288992474397773"><ele>75.0</ele><time>2026-04-19T14:30:35Z</time></trkpt><trkpt lat="45.078906446064735" lon="9.28916540112502"><ele>75.0</ele><time>2026-04-19T14:30:36Z</time></trkpt><trkpt lat="45.07890842944172" lon="9.28934160384255"><ele>75.0</ele><time>2026-04-19T14:30:37Z</time></trkpt><trkpt lat="45.078910436442584" lon="9.289519606181862"><ele>75.0</ele><time>2026-04-19T14:30:38Z</time></trkpt><trkpt lat="45.07891130553336" lon="9.289696377541935"><ele>75.0</ele><time>2026-04-19T14:30:39Z</time></trkpt><trkpt lat="45.078911253283955" lon="9.2898734347566"><ele>75.25</ele><time>2026-04-19T14:30:40Z</time></trkpt><trkpt lat="45.0789133914089" lon="9.290041528214982"><ele>75.5</ele><time>2026-04-19T14:30:41Z</time></trkpt><trkpt lat="45.07891755341019" lon="9.290207112607671"><ele>75.75</ele><time>2026-04-19T14:30:42Z</time></trkpt><trkpt lat="45.078919705419146" lon="9.290369287083216"><ele>76.0</ele><time>2026-04-19T14:30:43Z</time></trkpt><trkpt lat="45.07892280279606" lon="9.29052852144362"><ele>76.0</ele><time>2026-04-19T14:30:44Z</time></trkpt><trkpt lat="45.07892557940536" lon="9.290687284782072"><ele>76.0</ele><time>2026-04-19T14:30:45Z</time></trkpt><trkpt lat="45.07891017011364" lon="9.29084186263578"><ele>76.0</ele><time>2026-04-19T14:30:46Z</time></trkpt><trkpt lat="45.07892766480109" lon="9.290999100655466"><ele>76.0</ele><time>2026-04-19T14:30:47Z</time></trkpt><trkpt lat="45.07892633754092" lon="9.291149664116533"><ele>76.0</ele><time>2026-04-19T14:30:48Z</time></trkpt><trkpt lat="45.07892562938969" lon="9.291283022028603"><ele>76.0</ele><time>2026-04-19T14:30:49Z</time></trkpt><trkpt lat="45.07892237990538" lon="9.291395895362015"><ele>76.0</ele><time>2026-04-19T14:30:50Z</time></trkpt><trkpt lat="45.07892637551566" lon="9.291490611325296"><ele>76.0</ele><time>2026-04-19T14:30:51Z</time></trkpt><trkpt lat="45.078925950191426" lon="9.291630304609482"><ele>76.0</ele><time>2026-04-19T14:30:53Z</time></trkpt><trkpt lat="45.07892368504382" lon="9.291734759104513"><ele>76.0</ele><time>2026-04-19T14:30:54Z</time></trkpt><trkpt lat="45.07892013080537" lon="9.291886094412341"><ele>76.0</ele><time>2026-04-19T14:30:55Z</time></trkpt><trkpt lat="45.07891376146265" lon="9.292080005662235"><ele>77.0</ele><time>2026-04-19T14:30:56Z</time></trkpt><trkpt lat="45.078908837521624" lon="9.292314535536603"><ele>78.0</ele><time>2026-04-19T14:30:57Z</time></trkpt><trkpt lat="45.07891206347827" lon="9.292592786252456"><ele>79.0</ele><time>2026-04-19T14:30:58Z</time></trkpt><trkpt lat="45.0789131793099" lon="9.292877666992863"><ele>79.33333333333333</ele><time>2026-04-19T14:30:59Z</time></trkpt><trkpt lat="45.07891838756202" lon="9.293159723137833"><ele>79.66666666666667</ele><time>2026-04-19T14:31:00.001Z</time></trkpt><trkpt lat="45.07891866139835" lon="9.293480074200398"><ele>80.0</ele><time>2026-04-19T14:31:01.001Z</time></trkpt><trkpt lat="45.078922623922786" lon="9.29384079874162"><ele>78.5</ele><time>2026-04-19T14:31:02.001Z</time></trkpt><trkpt lat="45.07892502459549" lon="9.294230828476747"><ele>77.0</ele><time>2026-04-19T14:31:03.001Z</time></trkpt><trkpt lat="45.078927217853305" lon="9.29463514867216"><ele>76.5</ele><time>2026-04-19T14:31:04.001Z</time></trkpt><trkpt lat="45.0789277799919" lon="9.295021049985436"><ele>76.0</ele><time>2026-04-19T14:31:05.001Z</time></trkpt><trkpt lat="45.078930622633564" lon="9.295457468952286"><ele>77.0</ele><time>2026-04-19T14:31:06.001Z</time></trkpt><trkpt lat="45.07892432901869" lon="9.295845232485709"><ele>78.0</ele><time>2026-04-19T14:31:07.001Z</time></trkpt><trkpt lat="45.07889244554462" lon="9.296187353896672"><ele>77.66666666666667</ele><time>2026-04-19T14:31:08.001Z</time></trkpt><trkpt lat="45.0788699327172" lon="9.296501597746259"><ele>77.33333333333334</ele><time>2026-04-19T14:31:09.001Z</time></trkpt><trkpt lat="45.07885051881402" lon="9.296791784154475"><ele>77.0</ele><time>2026-04-19T14:31:10.001Z</time></trkpt><trkpt lat="45.07883965286954" lon="9.297076677851274"><ele>76.66666666666667</ele><time>2026-04-19T14:31:11.001Z</time></trkpt><trkpt lat="45.078824890661245" lon="9.297365931145986"><ele>76.33333333333333</ele><time>2026-04-19T14:31:12.001Z</time></trkpt><trkpt lat="45.078822065903076" lon="9.297657907941137"><ele>76.0</ele><time>2026-04-19T14:31:13.001Z</time></trkpt><trkpt lat="45.07882871479752" lon="9.297951537311329"><ele>75.33333333333333</ele><time>2026-04-19T14:31:14.001Z</time></trkpt><trkpt lat="45.078836334707425" lon="9.298246617632646"><ele>74.66666666666667</ele><time>2026-04-19T14:31:15.001Z</time></trkpt><trkpt lat="45.078852928870404" lon="9.298539262229314"><ele>74.0</ele><time>2026-04-19T14:31:16.001Z</time></trkpt><trkpt lat="45.078863804204964" lon="9.298811007618767"><ele>74.66666666666667</ele><time>2026-04-19T14:31:17.001Z</time></trkpt><trkpt lat="45.078875772024965" lon="9.299053583805922"><ele>75.33333333333333</ele><time>2026-04-19T14:31:18.001Z</time></trkpt><trkpt lat="45.07888988310185" lon="9.29927930660691"><ele>76.0</ele><time>2026-04-19T14:31:19.001Z</time></trkpt><trkpt lat="45.07890498505875" lon="9.299492084793213"><ele>76.0</ele><time>2026-04-19T14:31:20.001Z</time></trkpt><trkpt lat="45.07891793799912" lon="9.299698383073201"><ele>76.0</ele><time>2026-04-19T14:31:21.001Z</time></trkpt><trkpt lat="45.07892974459078" lon="9.299902579038646"><ele>76.0</ele><time>2026-04-19T14:31:22.001Z</time></trkpt><trkpt lat="45.0789435801114" lon="9.300095352808269"><ele>76.0</ele><time>2026-04-19T14:31:23.001Z</time></trkpt><trkpt lat="45.07895616554905" lon="9.300278234907651"><ele>76.5</ele><time>2026-04-19T14:31:24.001Z</time></trkpt><trkpt lat="45.078969648816596" lon="9.300460295325271"><ele>77.0</ele><time>2026-04-19T14:31:25.001Z</time></trkpt><trkpt lat="45.07898404360687" lon="9.300632814632545"><ele>77.5</ele><time>2026-04-19T14:31:26.001Z</time></trkpt><trkpt lat="45.078994953998254" lon="9.300803206345023"><ele>78.0</ele><time>2026-04-19T14:31:27.001Z</time></trkpt><trkpt lat="45.078987405222136" lon="9.300977451201048"><ele>78.2</ele><time>2026-04-19T14:31:28.001Z</time></trkpt><trkpt lat="45.07897264322895" lon="9.301152617685474"><ele>78.4</ele><time>2026-04-19T14:31:29.001Z</time></trkpt><trkpt lat="45.0789666018063" lon="9.301304114262342"><ele>78.60000000000001</ele><time>2026-04-19T14:31:30.001Z</time></trkpt><trkpt lat="45.07895974209289" lon="9.301434049395578"><ele>78.8</ele><time>2026-04-19T14:31:31.001Z</time></trkpt><trkpt lat="45.078955150553604" lon="9.301541108656817"><ele>79.0</ele><time>2026-04-19T14:31:32.001Z</time></trkpt><trkpt lat="45.078949389666825" lon="9.301631677772692"><ele>79.0</ele><time>2026-04-19T14:31:33.001Z</time></trkpt><trkpt lat="45.078935998536565" lon="9.30175083727293"><ele>79.0</ele><time>2026-04-19T14:31:35.001Z</time></trkpt><trkpt lat="45.0789278677139" lon="9.301840207014441"><ele>79.0</ele><time>2026-04-19T14:31:44.001Z</time></trkpt><trkpt lat="45.07891547295461" lon="9.3019765974597"><ele>79.0</ele><time>2026-04-19T14:31:46.001Z</time></trkpt><trkpt lat="45.07890625315946" lon="9.302094821888424"><ele>79.0</ele><time>2026-04-19T14:31:47.001Z</time></trkpt><trkpt lat="45.07889396745408" lon="9.30222927911731"><ele>79.0</ele><time>2026-04-19T14:31:48.001Z</time></trkpt><trkpt lat="45.07888212334272" lon="9.302379280301853"><ele>78.75</ele><time>2026-04-19T14:31:49.001Z</time></trkpt><trkpt lat="45.07887250095415" lon="9.302553289823463"><ele>78.5</ele><time>2026-04-19T14:31:50.001Z</time></trkpt><trkpt lat="45.07886075807838" lon="9.30274868131261"><ele>78.25</ele><time>2026-04-19T14:31:51.001Z</time></trkpt><trkpt lat="45.07884726647699" lon="9.302946697828144"><ele>78.0</ele><time>2026-04-19T14:31:52.001Z</time></trkpt><trkpt lat="45.07883404320609" lon="9.303144203661951"><ele>78.0</ele><time>2026-04-19T14:31:53.001Z</time></trkpt><trkpt lat="45.07882125339803" lon="9.303324001287697"><ele>78.0</ele><time>2026-04-19T14:31:54.001Z</time></trkpt><trkpt lat="45.078802129375205" lon="9.30349501716638"><ele>78.0</ele><time>2026-04-19T14:31:55.001Z</time></trkpt><trkpt lat="45.078774127530764" lon="9.303666053322331"><ele>78.0</ele><time>2026-04-19T14:31:56.001Z</time></trkpt><trkpt lat="45.07874053310515" lon="9.303838912745144"><ele>78.25</ele><time>2026-04-19T14:31:57.002Z</time></trkpt><trkpt lat="45.07869162291326" lon="9.304016356722322"><ele>78.5</ele><time>2026-04-19T14:31:58.002Z</time></trkpt><trkpt lat="45.07863172513723" lon="9.304193184582324"><ele>78.75</ele><time>2026-04-19T14:31:59.002Z</time></trkpt><trkpt lat="45.0785623750712" lon="9.304362832611464"><ele>79.0</ele><time>2026-04-19T14:32:00.002Z</time></trkpt><trkpt lat="45.078486793534" lon="9.304512740202187"><ele>79.0</ele><time>2026-04-19T14:32:01.002Z</time></trkpt><trkpt lat="45.07841054779879" lon="9.304643671637924"><ele>79.0</ele><time>2026-04-19T14:32:02.002Z</time></trkpt><trkpt lat="45.078329402130414" lon="9.304762772114005"><ele>79.0</ele><time>2026-04-19T14:32:03.002Z</time></trkpt><trkpt lat="45.07824463517584" lon="9.304880852385038"><ele>79.0</ele><time>2026-04-19T14:32:04.002Z</time></trkpt><trkpt lat="45.07813758210334" lon="9.304974206440178"><ele>79.0</ele><time>2026-04-19T14:32:04.999Z</time></trkpt><trkpt lat="45.07802718629025" lon="9.305088716501883"><ele>79.0</ele><time>2026-04-19T14:32:05.999Z</time></trkpt><trkpt lat="45.07788698340155" lon="9.305236919814345"><ele>79.0</ele><time>2026-04-19T14:32:06.999Z</time></trkpt><trkpt lat="45.077695301732994" lon="9.305400719975257"><ele>79.0</ele><time>2026-04-19T14:32:07.999Z</time></trkpt><trkpt lat="45.07749978135069" lon="9.305567482171044"><ele>79.0</ele><time>2026-04-19T14:32:08.999Z</time></trkpt><trkpt lat="45.077284291998176" lon="9.305731770140715"><ele>79.33333333333333</ele><time>2026-04-19T14:32:09.999Z</time></trkpt><trkpt lat="45.07710695957379" lon="9.305876266569914"><ele>79.66666666666667</ele><time>2026-04-19T14:32:10.999Z</time></trkpt><trkpt lat="45.0769467069895" lon="9.306007686225334"><ele>80.0</ele><time>2026-04-19T14:32:11.999Z</time></trkpt><trkpt lat="45.076800024774776" lon="9.30612629028296"><ele>80.0</ele><time>2026-04-19T14:32:12.999Z</time></trkpt><trkpt lat="45.07665804433674" lon="9.30622237819217"><ele>80.0</ele><time>2026-04-19T14:32:13.999Z</time></trkpt><trkpt lat="45.07654689591436" lon="9.306338145543675"><ele>80.0</ele><time>2026-04-19T14:32:14.999Z</time></trkpt><trkpt lat="45.07643624567716" lon="9.306426119137791"><ele>80.0</ele><time>2026-04-19T14:32:15.999Z</time></trkpt><trkpt lat="45.07633459725017" lon="9.306505828608199"><ele>79.83333333333334</ele><time>2026-04-19T14:32:16.999Z</time></trkpt><trkpt lat="45.0762419142954" lon="9.306572665119063"><ele>79.66666666666667</ele><time>2026-04-19T14:32:17.999Z</time></trkpt><trkpt lat="45.07616835932958" lon="9.30664108986525"><ele>79.5</ele><time>2026-04-19T14:32:18.999Z</time></trkpt><trkpt lat="45.07609953124857" lon="9.306698011469962"><ele>79.33333333333333</ele><time>2026-04-19T14:32:19.999Z</time></trkpt><trkpt lat="45.07603286829403" lon="9.306757135374724"><ele>79.16666666666666</ele><time>2026-04-19T14:32:20.999Z</time></trkpt><trkpt lat="45.075967996845925" lon="9.306818909255425"><ele>79.0</ele><time>2026-04-19T14:32:22Z</time></trkpt><trkpt lat="45.075911456845766" lon="9.306886579030767"><ele>79.0</ele><time>2026-04-19T14:32:23Z</time></trkpt><trkpt lat="45.075867851277145" lon="9.30695329330829"><ele>79.0</ele><time>2026-04-19T14:32:24Z</time></trkpt><trkpt lat="45.07579566001656" lon="9.307049590598172"><ele>79.0</ele><time>2026-04-19T14:32:26Z</time></trkpt><trkpt lat="45.07572808174872" lon="9.30711500976639"><ele>79.0</ele><time>2026-04-19T14:32:28Z</time></trkpt><trkpt lat="45.07561850533772" lon="9.30712620677965"><ele>79.0</ele><time>2026-04-19T14:32:30Z</time></trkpt><trkpt lat="45.07551257736442" lon="9.30715585763776"><ele>78.60000000000001</ele><time>2026-04-19T14:32:32Z</time></trkpt><trkpt lat="45.07547746320418" lon="9.307272407979317"><ele>78.2</ele><time>2026-04-19T14:32:34Z</time></trkpt><trkpt lat="45.07549251272431" lon="9.307434102522873"><ele>77.80000000000001</ele><time>2026-04-19T14:32:36Z</time></trkpt><trkpt lat="45.07550531704823" lon="9.307521706768581"><ele>77.4</ele><time>2026-04-19T14:32:37Z</time></trkpt><trkpt lat="45.07548361687184" lon="9.307696426837028"><ele>77.0</ele><time>2026-04-19T14:32:39Z</time></trkpt><trkpt lat="45.07546044975147" lon="9.307785401709658"><ele>77.0</ele><time>2026-04-19T14:32:40Z</time></trkpt><trkpt lat="45.07543812490896" lon="9.307882062593904"><ele>77.0</ele><time>2026-04-19T14:32:41Z</time></trkpt><trkpt lat="45.075413792455294" lon="9.307993406498554"><ele>77.0</ele><time>2026-04-19T14:32:42Z</time></trkpt><trkpt lat="45.075380123939034" lon="9.30812556849908"><ele>77.0</ele><time>2026-04-19T14:32:43Z</time></trkpt><trkpt lat="45.075341489870794" lon="9.308266998629948"><ele>77.0</ele><time>2026-04-19T14:32:44Z</time></trkpt><trkpt lat="45.07530016642813" lon="9.308422668078329"><ele>77.0</ele><time>2026-04-19T14:32:45Z</time></trkpt><trkpt lat="45.07525535837086" lon="9.308591463863337"><ele>77.0</ele><time>2026-04-19T14:32:46Z</time></trkpt><trkpt lat="45.075212207821295" lon="9.308766634563717"><ele>77.0</ele><time>2026-04-19T14:32:47Z</time></trkpt><trkpt lat="45.07516786071195" lon="9.308941432373501"><ele>77.0</ele><time>2026-04-19T14:32:48Z</time></trkpt><trkpt lat="45.07512713124722" lon="9.309111105966178"><ele>77.0</ele><time>2026-04-19T14:32:49Z</time></trkpt><trkpt lat="45.07508518018304" lon="9.309283676781925"><ele>77.0</ele><time>2026-04-19T14:32:50Z</time></trkpt><trkpt lat="45.0750421342957" lon="9.309446335445527"><ele>77.0</ele><time>2026-04-19T14:32:51Z</time></trkpt><trkpt lat="45.07499960720362" lon="9.309613613708798"><ele>77.0</ele><time>2026-04-19T14:32:52Z</time></trkpt><trkpt lat="45.07495853535062" lon="9.309774763729454"><ele>76.5</ele><time>2026-04-19T14:32:53Z</time></trkpt><trkpt lat="45.07492032044103" lon="9.309936774298825"><ele>76.0</ele><time>2026-04-19T14:32:54Z</time></trkpt><trkpt lat="45.074879143329575" lon="9.310094050498375"><ele>75.5</ele><time>2026-04-19T14:32:55Z</time></trkpt><trkpt lat="45.07483902665632" lon="9.31024826694634"><ele>75.0</ele><time>2026-04-19T14:32:56Z</time></trkpt><trkpt lat="45.07480185336268" lon="9.310401947097768"><ele>75.0</ele><time>2026-04-19T14:32:57Z</time></trkpt><trkpt lat="45.07476354977748" lon="9.310557843234646"><ele>75.0</ele><time>2026-04-19T14:32:58Z</time></trkpt><trkpt lat="45.07472184229017" lon="9.310711436551664"><ele>75.0</ele><time>2026-04-19T14:32:59.001Z</time></trkpt><trkpt lat="45.074678058228336" lon="9.310860835252361"><ele>75.0</ele><time>2026-04-19T14:33:00.001Z</time></trkpt><trkpt lat="45.074630445067015" lon="9.311013178171844"><ele>76.25</ele><time>2026-04-19T14:33:01.001Z</time></trkpt><trkpt lat="45.07457954919764" lon="9.3111638739997"><ele>77.5</ele><time>2026-04-19T14:33:02.001Z</time></trkpt><trkpt lat="45.07452421669213" lon="9.31131400602015"><ele>78.75</ele><time>2026-04-19T14:33:03.001Z</time></trkpt><trkpt lat="45.07446516995772" lon="9.31146080363299"><ele>80.0</ele><time>2026-04-19T14:33:04.001Z</time></trkpt><trkpt lat="45.074405059052026" lon="9.311609629599467"><ele>81.0</ele><time>2026-04-19T14:33:05.001Z</time></trkpt><trkpt lat="45.07434010574973" lon="9.311756233695117"><ele>82.0</ele><time>2026-04-19T14:33:06.001Z</time></trkpt><trkpt lat="45.074268509083815" lon="9.311905961973457"><ele>83.0</ele><time>2026-04-19T14:33:07.001Z</time></trkpt><trkpt lat="45.074187131796336" lon="9.312078056756233"><ele>84.0</ele><time>2026-04-19T14:33:08.001Z</time></trkpt><trkpt lat="45.0740941403686" lon="9.312259369627427"><ele>84.0</ele><time>2026-04-19T14:33:09.001Z</time></trkpt><trkpt lat="45.074001515094636" lon="9.312452965004178"><ele>84.0</ele><time>2026-04-19T14:33:10.001Z</time></trkpt><trkpt lat="45.07390936440814" lon="9.31264615630701"><ele>84.0</ele><time>2026-04-19T14:33:11.001Z</time></trkpt><trkpt lat="45.073812049529316" lon="9.312844085630196"><ele>84.0</ele><time>2026-04-19T14:33:12.001Z</time></trkpt><trkpt lat="45.073703679051405" lon="9.313046666707727"><ele>84.0</ele><time>2026-04-19T14:33:13.001Z</time></trkpt><trkpt lat="45.0735825327205" lon="9.313257674615835"><ele>84.0</ele><time>2026-04-19T14:33:14.001Z</time></trkpt><trkpt lat="45.07345394526029" lon="9.3134691706231"><ele>84.66666666666667</ele><time>2026-04-19T14:33:15.001Z</time></trkpt><trkpt lat="45.073312512394146" lon="9.313673551823"><ele>85.33333333333334</ele><time>2026-04-19T14:33:16.001Z</time></trkpt><trkpt lat="45.07316507137081" lon="9.313873719521034"><ele>86.0</ele><time>2026-04-19T14:33:17.001Z</time></trkpt><trkpt lat="45.07301094189844" lon="9.314070433506497"><ele>86.33333333333334</ele><time>2026-04-19T14:33:18.001Z</time></trkpt><trkpt lat="45.0728556543851" lon="9.314265445877643"><ele>86.66666666666667</ele><time>2026-04-19T14:33:19.001Z</time></trkpt><trkpt lat="45.07269499334398" lon="9.314460839816768"><ele>87.0</ele><time>2026-04-19T14:33:20.001Z</time></trkpt><trkpt lat="45.07251467278396" lon="9.314685821325321"><ele>87.33333333333333</ele><time>2026-04-19T14:33:21.001Z</time></trkpt><trkpt lat="45.07235458184639" lon="9.314886717196213"><ele>87.66666666666666</ele><time>2026-04-19T14:33:22.001Z</time></trkpt><trkpt lat="45.072212008670846" lon="9.31506924972946"><ele>88.0</ele><time>2026-04-19T14:33:23.001Z</time></trkpt><trkpt lat="45.07208215162513" lon="9.315234381665608"><ele>88.0</ele><time>2026-04-19T14:33:24.001Z</time></trkpt><trkpt lat="45.07197032414206" lon="9.315378192325218"><ele>88.0</ele><time>2026-04-19T14:33:25.001Z</time></trkpt><trkpt lat="45.07185968425875" lon="9.315508829720963"><ele>88.0</ele><time>2026-04-19T14:33:26.001Z</time></trkpt><trkpt lat="45.07175305415977" lon="9.315617769734889"><ele>88.0</ele><time>2026-04-19T14:33:27.001Z</time></trkpt><trkpt lat="45.07165081908679" lon="9.315714894096006"><ele>88.75</ele><time>2026-04-19T14:33:28.001Z</time></trkpt><trkpt lat="45.0715488325363" lon="9.315831317573712"><ele>89.5</ele><time>2026-04-19T14:33:29.001Z</time></trkpt><trkpt lat="45.07146410085877" lon="9.31596491142669"><ele>90.25</ele><time>2026-04-19T14:33:30.001Z</time></trkpt><trkpt lat="45.07139720144922" lon="9.316123007282181"><ele>91.0</ele><time>2026-04-19T14:33:31.001Z</time></trkpt><trkpt lat="45.07132039825034" lon="9.316255758147056"><ele>91.0</ele><time>2026-04-19T14:33:32.001Z</time></trkpt><trkpt lat="45.07119499511562" lon="9.316331397884797"><ele>91.0</ele><time>2026-04-19T14:33:33.001Z</time></trkpt><trkpt lat="45.07107677508708" lon="9.316482489843208"><ele>91.0</ele><time>2026-04-19T14:33:34.001Z</time></trkpt><trkpt lat="45.07093796287596" lon="9.316662769396778"><ele>91.5</ele><time>2026-04-19T14:33:35.001Z</time></trkpt><trkpt lat="45.070779676455956" lon="9.316879701783408"><ele>92.0</ele><time>2026-04-19T14:33:36.001Z</time></trkpt><trkpt lat="45.07061910139224" lon="9.31714199395439"><ele>93.5</ele><time>2026-04-19T14:33:37.001Z</time></trkpt><trkpt lat="45.07043083964992" lon="9.317401470839211"><ele>95.0</ele><time>2026-04-19T14:33:38.001Z</time></trkpt><trkpt lat="45.07024235065175" lon="9.317687228712213"><ele>95.0</ele><time>2026-04-19T14:33:39.001Z</time></trkpt><trkpt lat="45.070053962431295" lon="9.318002850416686"><ele>95.0</ele><time>2026-04-19T14:33:40.001Z</time></trkpt><trkpt lat="45.069880027642625" lon="9.318315989410479"><ele>95.5</ele><time>2026-04-19T14:33:41.001Z</time></trkpt><trkpt lat="45.06971640455303" lon="9.318641883569835"><ele>96.0</ele><time>2026-04-19T14:33:42.001Z</time></trkpt><trkpt lat="45.069548193329986" lon="9.318995294997785"><ele>96.0</ele><time>2026-04-19T14:33:43.001Z</time></trkpt><trkpt lat="45.06937744421665" lon="9.319376187381163"><ele>96.0</ele><time>2026-04-19T14:33:44.001Z</time></trkpt><trkpt lat="45.0691988150041" lon="9.319780922062955"><ele>98.5</ele><time>2026-04-19T14:33:45.001Z</time></trkpt><trkpt lat="45.06900567392216" lon="9.32020617191867"><ele>101.0</ele><time>2026-04-19T14:33:46.001Z</time></trkpt><trkpt lat="45.068799746501526" lon="9.320650940868456"><ele>101.0</ele><time>2026-04-19T14:33:47.001Z</time></trkpt><trkpt lat="45.06855593044027" lon="9.321051319264878"><ele>101.0</ele><time>2026-04-19T14:33:48.001Z</time></trkpt><trkpt lat="45.068311764726026" lon="9.321445146709307"><ele>103.0</ele><time>2026-04-19T14:33:49.002Z</time></trkpt><trkpt lat="45.06807651527937" lon="9.32181229836243"><ele>105.0</ele><time>2026-04-19T14:33:50.002Z</time></trkpt><trkpt lat="45.067863800357124" lon="9.322140249615085"><ele>105.0</ele><time>2026-04-19T14:33:51.002Z</time></trkpt><trkpt lat="45.067694583853026" lon="9.322430380122267"><ele>105.0</ele><time>2026-04-19T14:33:52.002Z</time></trkpt><trkpt lat="45.06752585589041" lon="9.322679855891296"><ele>105.0</ele><time>2026-04-19T14:33:53.002Z</time></trkpt><trkpt lat="45.067373930247555" lon="9.322906952549081"><ele>105.0</ele><time>2026-04-19T14:33:54.002Z</time></trkpt><trkpt lat="45.067235026144765" lon="9.323121832204924"><ele>105.0</ele><time>2026-04-19T14:33:55.002Z</time></trkpt><trkpt lat="45.06711433531183" lon="9.32332682508133"><ele>105.0</ele><time>2026-04-19T14:33:56.002Z</time></trkpt><trkpt lat="45.06701010336387" lon="9.323529594121075"><ele>105.0</ele><time>2026-04-19T14:33:57.002Z</time></trkpt><trkpt lat="45.06691803178341" lon="9.32374700594804"><ele>105.0</ele><time>2026-04-19T14:33:58.002Z</time></trkpt><trkpt lat="45.06684376519478" lon="9.32398885881516"><ele>105.0</ele><time>2026-04-19T14:33:59.002Z</time></trkpt><trkpt lat="45.066787223935506" lon="9.32425099057444"><ele>105.0</ele><time>2026-04-19T14:34:00.002Z</time></trkpt><trkpt lat="45.06674644150841" lon="9.324531693674603"><ele>105.0</ele><time>2026-04-19T14:34:01.002Z</time></trkpt><trkpt lat="45.066735540984" lon="9.324841919435688"><ele>104.5</ele><time>2026-04-19T14:34:02.002Z</time></trkpt><trkpt lat="45.066753935783126" lon="9.325163117458441"><ele>104.0</ele><time>2026-04-19T14:34:03.002Z</time></trkpt><trkpt lat="45.06680299415731" lon="9.32547709096675"><ele>104.5</ele><time>2026-04-19T14:34:04.002Z</time></trkpt><trkpt lat="45.066882366234225" lon="9.325802097514966"><ele>105.0</ele><time>2026-04-19T14:34:05.002Z</time></trkpt><trkpt lat="45.06698098553874" lon="9.326153754530376"><ele>105.5</ele><time>2026-04-19T14:34:06.002Z</time></trkpt><trkpt lat="45.067068898054224" lon="9.326536442010328"><ele>106.0</ele><time>2026-04-19T14:34:07.002Z</time></trkpt><trkpt lat="45.06715160186441" lon="9.326949436216397"><ele>106.5</ele><time>2026-04-19T14:34:08.002Z</time></trkpt><trkpt lat="45.06724569168212" lon="9.327386357755145"><ele>107.0</ele><time>2026-04-19T14:34:09.002Z</time></trkpt><trkpt lat="45.067346977111484" lon="9.327839809793696"><ele>106.5</ele><time>2026-04-19T14:34:10.002Z</time></trkpt><trkpt lat="45.06744635939877" lon="9.328265752166311"><ele>106.0</ele><time>2026-04-19T14:34:11Z</time></trkpt><trkpt lat="45.0675364038701" lon="9.3286528129798"><ele>104.0</ele><time>2026-04-19T14:34:12Z</time></trkpt><trkpt lat="45.0676225756597" lon="9.329023077696835"><ele>102.0</ele><time>2026-04-19T14:34:13Z</time></trkpt><trkpt lat="45.06771098990227" lon="9.329412027295863"><ele>102.0</ele><time>2026-04-19T14:34:14Z</time></trkpt><trkpt lat="45.06779759171249" lon="9.32981693832947"><ele>102.0</ele><time>2026-04-19T14:34:15Z</time></trkpt><trkpt lat="45.06788594966773" lon="9.330235889408305"><ele>102.5</ele><time>2026-04-19T14:34:16Z</time></trkpt><trkpt lat="45.06797925491672" lon="9.330678339827776"><ele>103.0</ele><time>2026-04-19T14:34:17Z</time></trkpt><trkpt lat="45.06807890148176" lon="9.331139320833769"><ele>102.5</ele><time>2026-04-19T14:34:18Z</time></trkpt><trkpt lat="45.06818600167731" lon="9.331624332828273"><ele>102.0</ele><time>2026-04-19T14:34:19Z</time></trkpt><trkpt lat="45.068291357810615" lon="9.332099927788002"><ele>101.5</ele><time>2026-04-19T14:34:20Z</time></trkpt><trkpt lat="45.06837822189857" lon="9.332509191952287"><ele>101.0</ele><time>2026-04-19T14:34:21Z</time></trkpt><trkpt lat="45.06845055326979" lon="9.332841620233914"><ele>101.0</ele><time>2026-04-19T14:34:22Z</time></trkpt><trkpt lat="45.06850447429245" lon="9.333107129632104"><ele>101.0</ele><time>2026-04-19T14:34:23Z</time></trkpt><trkpt lat="45.06854847983832" lon="9.333329163834945"><ele>101.0</ele><time>2026-04-19T14:34:24Z</time></trkpt><trkpt lat="45.068585103968175" lon="9.333513032796732"><ele>101.0</ele><time>2026-04-19T14:34:25Z</time></trkpt><trkpt lat="45.06860843309155" lon="9.333669222294649"><ele>101.0</ele><time>2026-04-19T14:34:26Z</time></trkpt><trkpt lat="45.06860067784916" lon="9.33382581868358"><ele>101.0</ele><time>2026-04-19T14:34:27Z</time></trkpt><trkpt lat="45.068565555195114" lon="9.3339828800542"><ele>101.0</ele><time>2026-04-19T14:34:28Z</time></trkpt><trkpt lat="45.06853495236638" lon="9.33413001239476"><ele>101.0</ele><time>2026-04-19T14:34:29Z</time></trkpt><trkpt lat="45.06854939667911" lon="9.334278951383217"><ele>100.75</ele><time>2026-04-19T14:34:30Z</time></trkpt><trkpt lat="45.06861200714447" lon="9.334417433125557"><ele>100.5</ele><time>2026-04-19T14:34:31Z</time></trkpt><trkpt lat="45.0687174500645" lon="9.334521816026644"><ele>100.25</ele><time>2026-04-19T14:34:32Z</time></trkpt><trkpt lat="45.06882774072805" lon="9.3346207063276"><ele>100.0</ele><time>2026-04-19T14:34:33Z</time></trkpt><trkpt lat="45.068902101290675" lon="9.33477541980008"><ele>100.0</ele><time>2026-04-19T14:34:34Z</time></trkpt><trkpt lat="45.0689462718151" lon="9.334968803761017"><ele>100.0</ele><time>2026-04-19T14:34:35Z</time></trkpt><trkpt lat="45.06898267127472" lon="9.33519277814876"><ele>100.0</ele><time>2026-04-19T14:34:36Z</time></trkpt><trkpt lat="45.069029130816794" lon="9.335426056928634"><ele>99.66666666666667</ele><time>2026-04-19T14:34:37Z</time></trkpt><trkpt lat="45.06908263091801" lon="9.335682325660127"><ele>99.33333333333334</ele><time>2026-04-19T14:34:38Z</time></trkpt><trkpt lat="45.069137659785625" lon="9.335964920019986"><ele>99.0</ele><time>2026-04-19T14:34:39Z</time></trkpt><trkpt lat="45.069196933274334" lon="9.336263169365566"><ele>99.66666666666666</ele><time>2026-04-19T14:34:40Z</time></trkpt><trkpt lat="45.06925508751836" lon="9.336540704045223"><ele>100.33333333333333</ele><time>2026-04-19T14:34:41Z</time></trkpt><trkpt lat="45.06931063740001" lon="9.336811819161904"><ele>101.0</ele><time>2026-04-19T14:34:42Z</time></trkpt><trkpt lat="45.06937010020967" lon="9.337088705986039"><ele>99.66666666666666</ele><time>2026-04-19T14:34:43Z</time></trkpt><trkpt lat="45.069427813667524" lon="9.337364708433626"><ele>98.33333333333334</ele><time>2026-04-19T14:34:44Z</time></trkpt><trkpt lat="45.06948542214961" lon="9.3376402699615"><ele>97.0</ele><time>2026-04-19T14:34:45Z</time></trkpt><trkpt lat="45.069537453674435" lon="9.337919535552818"><ele>96.0</ele><time>2026-04-19T14:34:46Z</time></trkpt><trkpt lat="45.069579189907365" lon="9.338216452300156"><ele>95.0</ele><time>2026-04-19T14:34:47Z</time></trkpt><trkpt lat="45.069601051050746" lon="9.338521595697967"><ele>94.0</ele><time>2026-04-19T14:34:48Z</time></trkpt><trkpt lat="45.06960648455033" lon="9.338839001088415"><ele>93.0</ele><time>2026-04-19T14:34:49Z</time></trkpt><trkpt lat="45.06959189068517" lon="9.339166182017935"><ele>92.0</ele><time>2026-04-19T14:34:50.001Z</time></trkpt><trkpt lat="45.06957032521425" lon="9.33950268775384"><ele>90.0</ele><time>2026-04-19T14:34:51.001Z</time></trkpt><trkpt lat="45.06954122869123" lon="9.339848810613594"><ele>88.0</ele><time>2026-04-19T14:34:52.001Z</time></trkpt><trkpt lat="45.06951873040361" lon="9.340199483828266"><ele>86.0</ele><time>2026-04-19T14:34:53.001Z</time></trkpt><trkpt lat="45.0694967324797" lon="9.34055236471059"><ele>84.0</ele><time>2026-04-19T14:34:54.001Z</time></trkpt><trkpt lat="45.069473537231005" lon="9.340911989266496"><ele>84.0</ele><time>2026-04-19T14:34:55.001Z</time></trkpt><trkpt lat="45.06944831375378" lon="9.341272131590575"><ele>84.0</ele><time>2026-04-19T14:34:56.001Z</time></trkpt><trkpt lat="45.06942411945496" lon="9.341627690901142"><ele>83.5</ele><time>2026-04-19T14:34:57.001Z</time></trkpt><trkpt lat="45.0694006360816" lon="9.341973610499132"><ele>83.0</ele><time>2026-04-19T14:34:58.001Z</time></trkpt><trkpt lat="45.06937928851567" lon="9.34229941816367"><ele>85.33333333333334</ele><time>2026-04-19T14:34:59.001Z</time></trkpt><trkpt lat="45.069360789740614" lon="9.342598487802343"><ele>87.66666666666667</ele><time>2026-04-19T14:35:00.001Z</time></trkpt><trkpt lat="45.069341664210036" lon="9.342873074147393"><ele>90.0</ele><time>2026-04-19T14:35:01.001Z</time></trkpt><trkpt lat="45.069322640364256" lon="9.343132883286039"><ele>92.0</ele><time>2026-04-19T14:35:02.001Z</time></trkpt><trkpt lat="45.06930734115083" lon="9.343378366096717"><ele>94.0</ele><time>2026-04-19T14:35:03.001Z</time></trkpt><trkpt lat="45.06929415018792" lon="9.343620459559997"><ele>96.0</ele><time>2026-04-19T14:35:04.001Z</time></trkpt><trkpt lat="45.069278618343766" lon="9.343865098385155"><ele>96.0</ele><time>2026-04-19T14:35:05.001Z</time></trkpt><trkpt lat="45.069261024358624" lon="9.344097492127844"><ele>96.0</ele><time>2026-04-19T14:35:06.001Z</time></trkpt><trkpt lat="45.06924318320129" lon="9.344331608067467"><ele>96.0</ele><time>2026-04-19T14:35:07.001Z</time></trkpt><trkpt lat="45.06923086619987" lon="9.344554047507403"><ele>96.66666666666666</ele><time>2026-04-19T14:35:08.001Z</time></trkpt><trkpt lat="45.069223645008705" lon="9.344773381160637"><ele>97.33333333333333</ele><time>2026-04-19T14:35:09.001Z</time></trkpt><trkpt lat="45.069211119432694" lon="9.34500670163375"><ele>98.0</ele><time>2026-04-19T14:35:10.001Z</time></trkpt><trkpt lat="45.069191741341434" lon="9.34525690264053"><ele>98.0</ele><time>2026-04-19T14:35:11.001Z</time></trkpt><trkpt lat="45.06916750143649" lon="9.345522355778696"><ele>98.0</ele><time>2026-04-19T14:35:12.001Z</time></trkpt><trkpt lat="45.06913839176222" lon="9.34580031949499"><ele>98.0</ele><time>2026-04-19T14:35:13.001Z</time></trkpt><trkpt lat="45.06910147438882" lon="9.346082746444454"><ele>98.0</ele><time>2026-04-19T14:35:14.001Z</time></trkpt><trkpt lat="45.069064951075106" lon="9.34636449785215"><ele>98.0</ele><time>2026-04-19T14:35:15.001Z</time></trkpt><trkpt lat="45.06902943656027" lon="9.346631732213813"><ele>98.0</ele><time>2026-04-19T14:35:16.001Z</time></trkpt><trkpt lat="45.06899782421994" lon="9.34688445254708"><ele>97.66666666666666</ele><time>2026-04-19T14:35:17.001Z</time></trkpt><trkpt lat="45.06896914456254" lon="9.347129930983828"><ele>97.33333333333334</ele><time>2026-04-19T14:35:18.001Z</time></trkpt><trkpt lat="45.06894265342894" lon="9.347383439650633"><ele>97.0</ele><time>2026-04-19T14:35:19.001Z</time></trkpt><trkpt lat="45.068913677734926" lon="9.347650278225773"><ele>97.0</ele><time>2026-04-19T14:35:20.001Z</time></trkpt><trkpt lat="45.068880598469285" lon="9.347930014317388"><ele>97.0</ele><time>2026-04-19T14:35:21.001Z</time></trkpt><trkpt lat="45.06884620013611" lon="9.348223525751088"><ele>97.0</ele><time>2026-04-19T14:35:22.001Z</time></trkpt><trkpt lat="45.06880971024785" lon="9.34852816621477"><ele>96.5</ele><time>2026-04-19T14:35:23.001Z</time></trkpt><trkpt lat="45.06876929678262" lon="9.348851408381773"><ele>96.0</ele><time>2026-04-19T14:35:24.001Z</time></trkpt><trkpt lat="45.06872853432777" lon="9.349180805870828"><ele>97.5</ele><time>2026-04-19T14:35:25.001Z</time></trkpt><trkpt lat="45.068688517427645" lon="9.349528625597403"><ele>99.0</ele><time>2026-04-19T14:35:26.001Z</time></trkpt><trkpt lat="45.06864776552629" lon="9.349904788254861"><ele>99.0</ele><time>2026-04-19T14:35:27.001Z</time></trkpt><trkpt lat="45.068603731480266" lon="9.35027929293906"><ele>99.0</ele><time>2026-04-19T14:35:28.001Z</time></trkpt><trkpt lat="45.068557682205466" lon="9.35064072291553"><ele>99.0</ele><time>2026-04-19T14:35:29.001Z</time></trkpt><trkpt lat="45.06851298880539" lon="9.35097896062623"><ele>99.0</ele><time>2026-04-19T14:35:30.001Z</time></trkpt><trkpt lat="45.06847110883138" lon="9.351320802769463"><ele>99.0</ele><time>2026-04-19T14:35:31.001Z</time></trkpt><trkpt lat="45.068437246863226" lon="9.351668042296675"><ele>99.0</ele><time>2026-04-19T14:35:32.001Z</time></trkpt><trkpt lat="45.06840279136553" lon="9.352020763337926"><ele>99.0</ele><time>2026-04-19T14:35:33.001Z</time></trkpt><trkpt lat="45.06834592801377" lon="9.352369396635803"><ele>99.0</ele><time>2026-04-19T14:35:34.001Z</time></trkpt><trkpt lat="45.06831819927268" lon="9.352727656788753"><ele>98.5</ele><time>2026-04-19T14:35:35.001Z</time></trkpt><trkpt lat="45.06826651626728" lon="9.353085905432174"><ele>98.0</ele><time>2026-04-19T14:35:36.001Z</time></trkpt><trkpt lat="45.06821748642211" lon="9.353446589281113"><ele>98.0</ele><time>2026-04-19T14:35:37.001Z</time></trkpt><trkpt lat="45.068175044171326" lon="9.353811487813395"><ele>98.0</ele><time>2026-04-19T14:35:38.001Z</time></trkpt><trkpt lat="45.06813244915441" lon="9.354180301306355"><ele>97.5</ele><time>2026-04-19T14:35:39.001Z</time></trkpt><trkpt lat="45.06809141176019" lon="9.354550841088809"><ele>97.0</ele><time>2026-04-19T14:35:40.002Z</time></trkpt><trkpt lat="45.068049671846346" lon="9.354921803286292"><ele>96.0</ele><time>2026-04-19T14:35:41.002Z</time></trkpt><trkpt lat="45.06800776451442" lon="9.3552919938335"><ele>95.0</ele><time>2026-04-19T14:35:42.002Z</time></trkpt><trkpt lat="45.06796651519336" lon="9.35565986242618"><ele>95.0</ele><time>2026-04-19T14:35:43.002Z</time></trkpt><trkpt lat="45.06792565771643" lon="9.356021276084904"><ele>95.0</ele><time>2026-04-19T14:35:44.002Z</time></trkpt><trkpt lat="45.06788922919629" lon="9.356379710236949"><ele>94.5</ele><time>2026-04-19T14:35:45.002Z</time></trkpt><trkpt lat="45.06785777035311" lon="9.356737422013534"><ele>94.0</ele><time>2026-04-19T14:35:46.002Z</time></trkpt><trkpt lat="45.067831696855755" lon="9.357097315615363"><ele>92.5</ele><time>2026-04-19T14:35:47.002Z</time></trkpt><trkpt lat="45.067815076917334" lon="9.35745606083253"><ele>91.0</ele><time>2026-04-19T14:35:48.002Z</time></trkpt><trkpt lat="45.06780992477348" lon="9.357816125528933"><ele>90.0</ele><time>2026-04-19T14:35:49.002Z</time></trkpt><trkpt lat="45.06782427110655" lon="9.358176596226986"><ele>89.0</ele><time>2026-04-19T14:35:50.002Z</time></trkpt><trkpt lat="45.0678521231635" lon="9.358535234966302"><ele>87.0</ele><time>2026-04-19T14:35:51.002Z</time></trkpt><trkpt lat="45.06789475423822" lon="9.358891939841063"><ele>85.0</ele><time>2026-04-19T14:35:52.002Z</time></trkpt><trkpt lat="45.067948403992375" lon="9.359244735096828"><ele>85.0</ele><time>2026-04-19T14:35:53.002Z</time></trkpt><trkpt lat="45.0680075179049" lon="9.359598880291504"><ele>85.0</ele><time>2026-04-19T14:35:54.002Z</time></trkpt><trkpt lat="45.06806630672641" lon="9.359951145333449"><ele>84.0</ele><time>2026-04-19T14:35:55.002Z</time></trkpt><trkpt lat="45.068114122998146" lon="9.360302091388274"><ele>83.0</ele><time>2026-04-19T14:35:56.002Z</time></trkpt><trkpt lat="45.06814289240687" lon="9.36065762804001"><ele>85.5</ele><time>2026-04-19T14:35:57.002Z</time></trkpt><trkpt lat="45.06815943000363" lon="9.36100662373377"><ele>88.0</ele><time>2026-04-19T14:35:58.002Z</time></trkpt><trkpt lat="45.06811847395817" lon="9.361364406750642"><ele>89.5</ele><time>2026-04-19T14:35:59.002Z</time></trkpt><trkpt lat="45.06808021325584" lon="9.361713164791821"><ele>91.0</ele><time>2026-04-19T14:36:00.002Z</time></trkpt><trkpt lat="45.0680347788339" lon="9.362057843406447"><ele>91.0</ele><time>2026-04-19T14:36:01.002Z</time></trkpt><trkpt lat="45.06797185863312" lon="9.362394650518667"><ele>91.0</ele><time>2026-04-19T14:36:02.002Z</time></trkpt><trkpt lat="45.06789602067055" lon="9.362729453685796"><ele>90.5</ele><time>2026-04-19T14:36:03.002Z</time></trkpt><trkpt lat="45.06781672263129" lon="9.363057725314624"><ele>90.0</ele><time>2026-04-19T14:36:04.002Z</time></trkpt><trkpt lat="45.067735388662555" lon="9.363351141983348"><ele>90.0</ele><time>2026-04-19T14:36:05.002Z</time></trkpt><trkpt lat="45.067655463007455" lon="9.363637631059424"><ele>90.0</ele><time>2026-04-19T14:36:06.002Z</time></trkpt><trkpt lat="45.06758371406225" lon="9.363913275534308"><ele>90.0</ele><time>2026-04-19T14:36:07.002Z</time></trkpt><trkpt lat="45.06751258245358" lon="9.364168605578776"><ele>89.33333333333333</ele><time>2026-04-19T14:36:08.002Z</time></trkpt><trkpt lat="45.06743934780273" lon="9.364416250387519"><ele>88.66666666666666</ele><time>2026-04-19T14:36:09.002Z</time></trkpt><trkpt lat="45.067376217844085" lon="9.364657001050652"><ele>88.0</ele><time>2026-04-19T14:36:10.002Z</time></trkpt><trkpt lat="45.06731587023759" lon="9.364898928181896"><ele>88.0</ele><time>2026-04-19T14:36:11.002Z</time></trkpt><trkpt lat="45.06724539388828" lon="9.365159212601458"><ele>88.0</ele><time>2026-04-19T14:36:12.002Z</time></trkpt><trkpt lat="45.06717666196587" lon="9.36543505328852"><ele>88.0</ele><time>2026-04-19T14:36:13.002Z</time></trkpt><trkpt lat="45.067093908933174" lon="9.365718593012282"><ele>88.66666666666666</ele><time>2026-04-19T14:36:14.002Z</time></trkpt><trkpt lat="45.06701876648257" lon="9.365981323122812"><ele>89.33333333333333</ele><time>2026-04-19T14:36:15.002Z</time></trkpt><trkpt lat="45.066943660776495" lon="9.366246040363725"><ele>90.0</ele><time>2026-04-19T14:36:16.002Z</time></trkpt><trkpt lat="45.066871603207495" lon="9.366516759443238"><ele>90.66666666666667</ele><time>2026-04-19T14:36:17Z</time></trkpt><trkpt lat="45.06680779849205" lon="9.3667647983438"><ele>91.33333333333334</ele><time>2026-04-19T14:36:18Z</time></trkpt><trkpt lat="45.066747318649526" lon="9.366989220719406"><ele>92.0</ele><time>2026-04-19T14:36:19Z</time></trkpt><trkpt lat="45.06668964599143" lon="9.367192245054788"><ele>92.0</ele><time>2026-04-19T14:36:20Z</time></trkpt><trkpt lat="45.06663879616517" lon="9.36739510228127"><ele>92.0</ele><time>2026-04-19T14:36:21Z</time></trkpt><trkpt lat="45.06660142020899" lon="9.367595435661707"><ele>92.0</ele><time>2026-04-19T14:36:22Z</time></trkpt><trkpt lat="45.066566829757896" lon="9.36778192296386"><ele>92.0</ele><time>2026-04-19T14:36:23Z</time></trkpt><trkpt lat="45.066532431233476" lon="9.367978368142099"><ele>92.75</ele><time>2026-04-19T14:36:24Z</time></trkpt><trkpt lat="45.06649955998948" lon="9.36817171096065"><ele>93.5</ele><time>2026-04-19T14:36:25Z</time></trkpt><trkpt lat="45.066472724947694" lon="9.368359069627106"><ele>94.25</ele><time>2026-04-19T14:36:26Z</time></trkpt><trkpt lat="45.06645063843003" lon="9.36851727110138"><ele>95.0</ele><time>2026-04-19T14:36:27Z</time></trkpt><trkpt lat="45.06643246906507" lon="9.36869061525541"><ele>95.0</ele><time>2026-04-19T14:36:28Z</time></trkpt><trkpt lat="45.06641109946744" lon="9.368871677349075"><ele>95.0</ele><time>2026-04-19T14:36:29Z</time></trkpt><trkpt lat="45.066392065264274" lon="9.369081605467318"><ele>95.0</ele><time>2026-04-19T14:36:30Z</time></trkpt><trkpt lat="45.06636795057375" lon="9.369331990545243"><ele>95.0</ele><time>2026-04-19T14:36:31Z</time></trkpt><trkpt lat="45.06633152626639" lon="9.36962639698224"><ele>95.0</ele><time>2026-04-19T14:36:32Z</time></trkpt><trkpt lat="45.06628770913558" lon="9.36994636430015"><ele>95.0</ele><time>2026-04-19T14:36:33Z</time></trkpt><trkpt lat="45.066232544707574" lon="9.370280590824292"><ele>95.5</ele><time>2026-04-19T14:36:34Z</time></trkpt><trkpt lat="45.066184731996145" lon="9.370596646411828"><ele>96.0</ele><time>2026-04-19T14:36:35Z</time></trkpt><trkpt lat="45.066144381365916" lon="9.37092875836564"><ele>96.0</ele><time>2026-04-19T14:36:36Z</time></trkpt><trkpt lat="45.06610404127809" lon="9.371270403732652"><ele>96.0</ele><time>2026-04-19T14:36:37Z</time></trkpt><trkpt lat="45.066060661380234" lon="9.371617435312729"><ele>95.5</ele><time>2026-04-19T14:36:38Z</time></trkpt><trkpt lat="45.066014849740846" lon="9.371970854927238"><ele>95.0</ele><time>2026-04-19T14:36:39Z</time></trkpt><trkpt lat="45.065969837350934" lon="9.37233086543848"><ele>95.0</ele><time>2026-04-19T14:36:40Z</time></trkpt><trkpt lat="45.06592547268858" lon="9.372690875843766"><ele>95.0</ele><time>2026-04-19T14:36:41Z</time></trkpt><trkpt lat="45.06588304177167" lon="9.373027994748382"><ele>95.33333333333334</ele><time>2026-04-19T14:36:42Z</time></trkpt><trkpt lat="45.065842420811975" lon="9.373346614350973"><ele>95.66666666666667</ele><time>2026-04-19T14:36:43.001Z</time></trkpt><trkpt lat="45.065804544204866" lon="9.37365067603956"><ele>96.0</ele><time>2026-04-19T14:36:44.001Z</time></trkpt><trkpt lat="45.06576619447485" lon="9.373950388506488"><ele>96.0</ele><time>2026-04-19T14:36:45.001Z</time></trkpt><trkpt lat="45.065727166817865" lon="9.374254403287045"><ele>96.0</ele><time>2026-04-19T14:36:46.001Z</time></trkpt><trkpt lat="45.06568685062547" lon="9.374565762223167"><ele>96.0</ele><time>2026-04-19T14:36:47.001Z</time></trkpt><trkpt lat="45.06564633256606" lon="9.374882214574486"><ele>96.0</ele><time>2026-04-19T14:36:48.001Z</time></trkpt><trkpt lat="45.065606477343884" lon="9.37520403970112"><ele>96.0</ele><time>2026-04-19T14:36:49.001Z</time></trkpt><trkpt lat="45.065565852916805" lon="9.37553161952498"><ele>96.5</ele><time>2026-04-19T14:36:50.001Z</time></trkpt><trkpt lat="45.0655241008862" lon="9.375866544505373"><ele>97.0</ele><time>2026-04-19T14:36:51.001Z</time></trkpt><trkpt lat="45.065480867765615" lon="9.37620197117178"><ele>96.5</ele><time>2026-04-19T14:36:52.001Z</time></trkpt><trkpt lat="45.065435517301836" lon="9.376545197105974"><ele>96.0</ele><time>2026-04-19T14:36:53.001Z</time></trkpt><trkpt lat="45.06539006224637" lon="9.37689301986979"><ele>95.0</ele><time>2026-04-19T14:36:54.001Z</time></trkpt><trkpt lat="45.0653474768302" lon="9.377246894150664"><ele>94.0</ele><time>2026-04-19T14:36:55.001Z</time></trkpt><trkpt lat="45.06530243228466" lon="9.377609893158539"><ele>94.0</ele><time>2026-04-19T14:36:56.001Z</time></trkpt><trkpt lat="45.0652588471741" lon="9.377975202600812"><ele>94.0</ele><time>2026-04-19T14:36:57.001Z</time></trkpt><trkpt lat="45.06521502898841" lon="9.378345893682118"><ele>92.5</ele><time>2026-04-19T14:36:58.001Z</time></trkpt><trkpt lat="45.06517100026829" lon="9.378720818276383"><ele>91.0</ele><time>2026-04-19T14:36:59.001Z</time></trkpt><trkpt lat="45.065127535549095" lon="9.379101141710258"><ele>90.0</ele><time>2026-04-19T14:37:00.001Z</time></trkpt><trkpt lat="45.065084782874706" lon="9.37947847437179"><ele>89.0</ele><time>2026-04-19T14:37:01.001Z</time></trkpt><trkpt lat="45.065041885506965" lon="9.379862281176417"><ele>86.5</ele><time>2026-04-19T14:37:02.001Z</time></trkpt><trkpt lat="45.064994055915214" lon="9.380253618621529"><ele>84.0</ele><time>2026-04-19T14:37:03.001Z</time></trkpt><trkpt lat="45.064946849830164" lon="9.380647399487763"><ele>82.5</ele><time>2026-04-19T14:37:04.001Z</time></trkpt><trkpt lat="45.06489950666774" lon="9.381049915569717"><ele>81.0</ele><time>2026-04-19T14:37:05.001Z</time></trkpt><trkpt lat="45.064853874915784" lon="9.381458457356503"><ele>80.5</ele><time>2026-04-19T14:37:06.001Z</time></trkpt><trkpt lat="45.06480707258134" lon="9.381869506884062"><ele>80.0</ele><time>2026-04-19T14:37:07.001Z</time></trkpt><trkpt lat="45.06475878989375" lon="9.382283033325141"><ele>79.5</ele><time>2026-04-19T14:37:08.001Z</time></trkpt><trkpt lat="45.06470994559024" lon="9.382698536358557"><ele>79.0</ele><time>2026-04-19T14:37:09.001Z</time></trkpt><trkpt lat="45.064661806655046" lon="9.383116652097"><ele>79.0</ele><time>2026-04-19T14:37:10.001Z</time></trkpt><trkpt lat="45.06461375990599" lon="9.383540174823427"><ele>79.0</ele><time>2026-04-19T14:37:11.001Z</time></trkpt><trkpt lat="45.06456726020632" lon="9.383966569848877"><ele>79.5</ele><time>2026-04-19T14:37:12.001Z</time></trkpt><trkpt lat="45.06451908707154" lon="9.384393584222744"><ele>80.0</ele><time>2026-04-19T14:37:13.001Z</time></trkpt><trkpt lat="45.06447045514349" lon="9.384821489124906"><ele>80.0</ele><time>2026-04-19T14:37:14.001Z</time></trkpt><trkpt lat="45.064419290802135" lon="9.385251064953552"><ele>80.0</ele><time>2026-04-19T14:37:15.001Z</time></trkpt><trkpt lat="45.06436926027791" lon="9.385683368151081"><ele>80.0</ele><time>2026-04-19T14:37:16.001Z</time></trkpt><trkpt lat="45.064318452906576" lon="9.386117030385313"><ele>80.0</ele><time>2026-04-19T14:37:17.001Z</time></trkpt><trkpt lat="45.064268429043786" lon="9.386550222654465"><ele>80.0</ele><time>2026-04-19T14:37:18.001Z</time></trkpt><trkpt lat="45.064218359059105" lon="9.386985677486907"><ele>80.0</ele><time>2026-04-19T14:37:19.001Z</time></trkpt><trkpt lat="45.06416851229899" lon="9.387420744454642"><ele>80.0</ele><time>2026-04-19T14:37:20.001Z</time></trkpt><trkpt lat="45.06411702810531" lon="9.387853658912281"><ele>80.0</ele><time>2026-04-19T14:37:21.001Z</time></trkpt><trkpt lat="45.06406777906923" lon="9.388287217375591"><ele>79.5</ele><time>2026-04-19T14:37:22.001Z</time></trkpt><trkpt lat="45.06401793208081" lon="9.388720515044863"><ele>79.0</ele><time>2026-04-19T14:37:23.001Z</time></trkpt><trkpt lat="45.0639653613918" lon="9.38915459952846"><ele>79.0</ele><time>2026-04-19T14:37:24.001Z</time></trkpt><trkpt lat="45.06391171464022" lon="9.389587840237795"><ele>79.0</ele><time>2026-04-19T14:37:25.001Z</time></trkpt><trkpt lat="45.06385619756393" lon="9.39002230528912"><ele>79.0</ele><time>2026-04-19T14:37:26.001Z</time></trkpt><trkpt lat="45.06379941964652" lon="9.39045975308523"><ele>79.0</ele><time>2026-04-19T14:37:27.001Z</time></trkpt><trkpt lat="45.063743466226164" lon="9.390899885229"><ele>78.5</ele><time>2026-04-19T14:37:28.001Z</time></trkpt><trkpt lat="45.063687933893696" lon="9.391341237272384"><ele>78.0</ele><time>2026-04-19T14:37:29.001Z</time></trkpt><trkpt lat="45.06363691144013" lon="9.391784939988057"><ele>78.0</ele><time>2026-04-19T14:37:30.001Z</time></trkpt><trkpt lat="45.06358591847161" lon="9.392231585466341"><ele>78.0</ele><time>2026-04-19T14:37:31.001Z</time></trkpt><trkpt lat="45.06353733000549" lon="9.392680726968145"><ele>77.5</ele><time>2026-04-19T14:37:32.001Z</time></trkpt><trkpt lat="45.06348660327569" lon="9.393136700446936"><ele>77.0</ele><time>2026-04-19T14:37:33.001Z</time></trkpt><trkpt lat="45.0634331186592" lon="9.393600070558671"><ele>77.5</ele><time>2026-04-19T14:37:34.001Z</time></trkpt><trkpt lat="45.06337849316689" lon="9.394066329592418"><ele>78.0</ele><time>2026-04-19T14:37:35.001Z</time></trkpt><trkpt lat="45.06332168323107" lon="9.394535739140256"><ele>79.0</ele><time>2026-04-19T14:37:36.001Z</time></trkpt><trkpt lat="45.06326720370506" lon="9.394998802870564"><ele>80.0</ele><time>2026-04-19T14:37:37.001Z</time></trkpt><trkpt lat="45.06321491167661" lon="9.395452210589246"><ele>81.0</ele><time>2026-04-19T14:37:38.001Z</time></trkpt><trkpt lat="45.06316262297393" lon="9.395897994025363"><ele>82.0</ele><time>2026-04-19T14:37:39.002Z</time></trkpt><trkpt lat="45.06311042476131" lon="9.396332661241198"><ele>83.5</ele><time>2026-04-19T14:37:40.002Z</time></trkpt><trkpt lat="45.06305973632508" lon="9.396757879535912"><ele>85.0</ele><time>2026-04-19T14:37:41.002Z</time></trkpt><trkpt lat="45.06300918561182" lon="9.397172545861851"><ele>85.0</ele><time>2026-04-19T14:37:42.002Z</time></trkpt><trkpt lat="45.062962404781544" lon="9.397569601517098"><ele>85.0</ele><time>2026-04-19T14:37:43.002Z</time></trkpt><trkpt lat="45.0629194473235" lon="9.39795218588163"><ele>85.0</ele><time>2026-04-19T14:37:44.002Z</time></trkpt><trkpt lat="45.06286296266647" lon="9.398325199770557"><ele>85.0</ele><time>2026-04-19T14:37:45.002Z</time></trkpt><trkpt lat="45.06281585668912" lon="9.398707199977252"><ele>85.5</ele><time>2026-04-19T14:37:46.002Z</time></trkpt><trkpt lat="45.0627689781844" lon="9.399101583304448"><ele>86.0</ele><time>2026-04-19T14:37:47.002Z</time></trkpt><trkpt lat="45.06272069889821" lon="9.399509827295116"><ele>85.0</ele><time>2026-04-19T14:37:48.002Z</time></trkpt><trkpt lat="45.062670581231664" lon="9.399933616371396"><ele>84.0</ele><time>2026-04-19T14:37:49.002Z</time></trkpt><trkpt lat="45.06261808977926" lon="9.400369078244866"><ele>84.0</ele><time>2026-04-19T14:37:50.002Z</time></trkpt><trkpt lat="45.06256417885921" lon="9.400809897477489"><ele>84.0</ele><time>2026-04-19T14:37:51.002Z</time></trkpt><trkpt lat="45.06252216477028" lon="9.4012506313606"><ele>83.5</ele><time>2026-04-19T14:37:52.002Z</time></trkpt><trkpt lat="45.06246522718299" lon="9.401685662555277"><ele>83.0</ele><time>2026-04-19T14:37:53.002Z</time></trkpt><trkpt lat="45.06241107820507" lon="9.402120993453096"><ele>83.0</ele><time>2026-04-19T14:37:54.002Z</time></trkpt><trkpt lat="45.06235911190087" lon="9.402554548918781"><ele>83.0</ele><time>2026-04-19T14:37:55.002Z</time></trkpt><trkpt lat="45.062308038322755" lon="9.402984464099303"><ele>82.5</ele><time>2026-04-19T14:37:56.002Z</time></trkpt><trkpt lat="45.06225598540136" lon="9.403408786513857"><ele>82.0</ele><time>2026-04-19T14:37:57.002Z</time></trkpt><trkpt lat="45.06220286558003" lon="9.403828049399474"><ele>82.0</ele><time>2026-04-19T14:37:58.002Z</time></trkpt><trkpt lat="45.06215109923602" lon="9.404246317201046"><ele>82.0</ele><time>2026-04-19T14:37:59.002Z</time></trkpt><trkpt lat="45.062100854745715" lon="9.404665051622848"><ele>82.0</ele><time>2026-04-19T14:38:00.002Z</time></trkpt><trkpt lat="45.062051235264995" lon="9.405077087446879"><ele>82.0</ele><time>2026-04-19T14:38:01.002Z</time></trkpt><trkpt lat="45.06199960954951" lon="9.40548998382052"><ele>82.5</ele><time>2026-04-19T14:38:02.002Z</time></trkpt><trkpt lat="45.06194970030169" lon="9.405898276953943"><ele>83.0</ele><time>2026-04-19T14:38:03.002Z</time></trkpt><trkpt lat="45.06190082651619" lon="9.406300437084228"><ele>83.0</ele><time>2026-04-19T14:38:04.002Z</time></trkpt><trkpt lat="45.06185170990616" lon="9.406693691411261"><ele>83.0</ele><time>2026-04-19T14:38:05.002Z</time></trkpt><trkpt lat="45.061802030494" lon="9.407063714875706"><ele>82.0</ele><time>2026-04-19T14:38:06.002Z</time></trkpt><trkpt lat="45.06175863876901" lon="9.407410006428725"><ele>81.0</ele><time>2026-04-19T14:38:07.002Z</time></trkpt><trkpt lat="45.06171887988486" lon="9.407746462450007"><ele>81.5</ele><time>2026-04-19T14:38:08.002Z</time></trkpt><trkpt lat="45.06168059125809" lon="9.408087505331434"><ele>82.0</ele><time>2026-04-19T14:38:09.002Z</time></trkpt><trkpt lat="45.06164081749045" lon="9.40843009515963"><ele>82.0</ele><time>2026-04-19T14:38:10.002Z</time></trkpt><trkpt lat="45.06159751268151" lon="9.408774213057367"><ele>82.0</ele><time>2026-04-19T14:38:11.002Z</time></trkpt><trkpt lat="45.0615530964877" lon="9.409118746031035"><ele>81.5</ele><time>2026-04-19T14:38:12.002Z</time></trkpt><trkpt lat="45.06151054188892" lon="9.409464148490214"><ele>81.0</ele><time>2026-04-19T14:38:13.002Z</time></trkpt><trkpt lat="45.06146712475653" lon="9.409810225769027"><ele>81.0</ele><time>2026-04-19T14:38:14.002Z</time></trkpt><trkpt lat="45.0614265310559" lon="9.410152809393729"><ele>81.0</ele><time>2026-04-19T14:38:15.002Z</time></trkpt><trkpt lat="45.06138554334829" lon="9.410496818015904"><ele>80.5</ele><time>2026-04-19T14:38:16.002Z</time></trkpt><trkpt lat="45.061346988685536" lon="9.410839357287795"><ele>80.0</ele><time>2026-04-19T14:38:17.002Z</time></trkpt><trkpt lat="45.06130796185542" lon="9.411176582014534"><ele>79.5</ele><time>2026-04-19T14:38:18.002Z</time></trkpt><trkpt lat="45.06126909265947" lon="9.411517728462846"><ele>79.0</ele><time>2026-04-19T14:38:19.002Z</time></trkpt><trkpt lat="45.06122988383437" lon="9.411857359801575"><ele>79.5</ele><time>2026-04-19T14:38:20.002Z</time></trkpt><trkpt lat="45.06119113722979" lon="9.412186352940536"><ele>80.0</ele><time>2026-04-19T14:38:21.002Z</time></trkpt><trkpt lat="45.06115283942483" lon="9.41250879764187"><ele>80.0</ele><time>2026-04-19T14:38:22.002Z</time></trkpt><trkpt lat="45.0611176312988" lon="9.412820463245822"><ele>80.0</ele><time>2026-04-19T14:38:23Z</time></trkpt><trkpt lat="45.06107913540753" lon="9.41312197653612"><ele>80.0</ele><time>2026-04-19T14:38:24Z</time></trkpt><trkpt lat="45.061038851768835" lon="9.413421987576585"><ele>80.0</ele><time>2026-04-19T14:38:25Z</time></trkpt><trkpt lat="45.06099902822285" lon="9.413724920936478"><ele>80.0</ele><time>2026-04-19T14:38:26Z</time></trkpt><trkpt lat="45.060959163881556" lon="9.414028040515616"><ele>80.0</ele><time>2026-04-19T14:38:27Z</time></trkpt><trkpt lat="45.06091939980632" lon="9.414324854248067"><ele>79.66666666666667</ele><time>2026-04-19T14:38:28Z</time></trkpt><trkpt lat="45.060880044415875" lon="9.4146217508136"><ele>79.33333333333333</ele><time>2026-04-19T14:38:29Z</time></trkpt><trkpt lat="45.060838484595244" lon="9.41492523223575"><ele>79.0</ele><time>2026-04-19T14:38:30Z</time></trkpt><trkpt lat="45.060791185817585" lon="9.415224219215578"><ele>77.33333333333333</ele><time>2026-04-19T14:38:31Z</time></trkpt><trkpt lat="45.060739411336876" lon="9.415513142656744"><ele>75.66666666666667</ele><time>2026-04-19T14:38:32Z</time></trkpt><trkpt lat="45.060683610535946" lon="9.415789644050566"><ele>74.0</ele><time>2026-04-19T14:38:33Z</time></trkpt><trkpt lat="45.06062092198106" lon="9.416063804222643"><ele>74.66666666666667</ele><time>2026-04-19T14:38:34Z</time></trkpt><trkpt lat="45.060554878795074" lon="9.416336446583266"><ele>75.33333333333333</ele><time>2026-04-19T14:38:35Z</time></trkpt><trkpt lat="45.06048703698028" lon="9.416605589619527"><ele>76.0</ele><time>2026-04-19T14:38:36Z</time></trkpt><trkpt lat="45.06042507038052" lon="9.416867517833202"><ele>76.0</ele><time>2026-04-19T14:38:37Z</time></trkpt><trkpt lat="45.060369076220596" lon="9.417143038754782"><ele>76.0</ele><time>2026-04-19T14:38:38Z</time></trkpt><trkpt lat="45.06032948364738" lon="9.417404161636698"><ele>76.0</ele><time>2026-04-19T14:38:39Z</time></trkpt><trkpt lat="45.06029631671105" lon="9.417648046563569"><ele>76.0</ele><time>2026-04-19T14:38:40Z</time></trkpt><trkpt lat="45.06027753990239" lon="9.417917441958764"><ele>76.0</ele><time>2026-04-19T14:38:41Z</time></trkpt><trkpt lat="45.06026219338759" lon="9.418220824314748"><ele>76.0</ele><time>2026-04-19T14:38:42Z</time></trkpt><trkpt lat="45.060244268053054" lon="9.418537850761396"><ele>76.0</ele><time>2026-04-19T14:38:43Z</time></trkpt><trkpt lat="45.06023410906129" lon="9.418898171424607"><ele>76.0</ele><time>2026-04-19T14:38:44Z</time></trkpt><trkpt lat="45.06023098772441" lon="9.419277201908006"><ele>76.0</ele><time>2026-04-19T14:38:45Z</time></trkpt><trkpt lat="45.06022270077374" lon="9.419619961662375"><ele>76.0</ele><time>2026-04-19T14:38:46Z</time></trkpt><trkpt lat="45.0602089909668" lon="9.419938574596596"><ele>76.33333333333333</ele><time>2026-04-19T14:38:47Z</time></trkpt><trkpt lat="45.06018776604574" lon="9.420237714391373"><ele>76.66666666666667</ele><time>2026-04-19T14:38:48Z</time></trkpt><trkpt lat="45.060160881499456" lon="9.420569487331678"><ele>77.0</ele><time>2026-04-19T14:38:49Z</time></trkpt><trkpt lat="45.06012739412065" lon="9.420905021727787"><ele>77.0</ele><time>2026-04-19T14:38:50Z</time></trkpt><trkpt lat="45.06009120408564" lon="9.421198741072093"><ele>77.0</ele><time>2026-04-19T14:38:51Z</time></trkpt><trkpt lat="45.06005921851247" lon="9.421481894233962"><ele>77.0</ele><time>2026-04-19T14:38:52Z</time></trkpt><trkpt lat="45.06002334283595" lon="9.421745768979779"><ele>77.0</ele><time>2026-04-19T14:38:53Z</time></trkpt><trkpt lat="45.05998036547422" lon="9.42199853821925"><ele>77.0</ele><time>2026-04-19T14:38:54Z</time></trkpt><trkpt lat="45.0599417274219" lon="9.422240013729649"><ele>77.0</ele><time>2026-04-19T14:38:55Z</time></trkpt><trkpt lat="45.05990772149234" lon="9.422475765010127"><ele>77.0</ele><time>2026-04-19T14:38:56Z</time></trkpt><trkpt lat="45.059880742521564" lon="9.422717769694987"><ele>77.0</ele><time>2026-04-19T14:38:57Z</time></trkpt><trkpt lat="45.05985604310966" lon="9.422962049653725"><ele>77.0</ele><time>2026-04-19T14:38:58.001Z</time></trkpt><trkpt lat="45.05983054925998" lon="9.423211902055138"><ele>77.0</ele><time>2026-04-19T14:38:59.001Z</time></trkpt><trkpt lat="45.05980466180421" lon="9.423481410869767"><ele>77.0</ele><time>2026-04-19T14:39:00.001Z</time></trkpt><trkpt lat="45.059787392748376" lon="9.423760196160892"><ele>77.0</ele><time>2026-04-19T14:39:01.001Z</time></trkpt><trkpt lat="45.05977622776705" lon="9.424050781445194"><ele>77.0</ele><time>2026-04-19T14:39:02.001Z</time></trkpt><trkpt lat="45.05976209748419" lon="9.424359003998317"><ele>77.0</ele><time>2026-04-19T14:39:03.001Z</time></trkpt><trkpt lat="45.059696402081315" lon="9.42438421441486"><ele>77.0</ele><time>2026-04-19T14:39:04.001Z</time></trkpt><trkpt lat="45.05966815777171" lon="9.4245963986806"><ele>77.0</ele><time>2026-04-19T14:39:05.001Z</time></trkpt><trkpt lat="45.05964499055843" lon="9.424802572469877"><ele>77.25</ele><time>2026-04-19T14:39:06.001Z</time></trkpt><trkpt lat="45.05962415393755" lon="9.424993144291562"><ele>77.5</ele><time>2026-04-19T14:39:07.001Z</time></trkpt><trkpt lat="45.05960697803094" lon="9.425181708042649"><ele>77.75</ele><time>2026-04-19T14:39:08.001Z</time></trkpt><trkpt lat="45.05958331583939" lon="9.425365323818555"><ele>78.0</ele><time>2026-04-19T14:39:09.001Z</time></trkpt><trkpt lat="45.0595617729855" lon="9.425566960755269"><ele>78.0</ele><time>2026-04-19T14:39:10.001Z</time></trkpt><trkpt lat="45.05953754631141" lon="9.425765174345925"><ele>78.0</ele><time>2026-04-19T14:39:11.001Z</time></trkpt><trkpt lat="45.05951639006753" lon="9.425955656466906"><ele>78.0</ele><time>2026-04-19T14:39:12.001Z</time></trkpt><trkpt lat="45.05949945096689" lon="9.426137993370048"><ele>78.0</ele><time>2026-04-19T14:39:13.001Z</time></trkpt><trkpt lat="45.05947838666722" lon="9.426294933410832"><ele>77.83333333333333</ele><time>2026-04-19T14:39:14.001Z</time></trkpt><trkpt lat="45.059463304865936" lon="9.426394216443908"><ele>77.66666666666667</ele><time>2026-04-19T14:39:15.001Z</time></trkpt><trkpt lat="45.05945222529797" lon="9.426490453179653"><ele>77.5</ele><time>2026-04-19T14:39:16.001Z</time></trkpt><trkpt lat="45.05944413868526" lon="9.426593912437365"><ele>77.33333333333334</ele><time>2026-04-19T14:39:17.001Z</time></trkpt><trkpt lat="45.05943148523759" lon="9.426719845341912"><ele>77.16666666666667</ele><time>2026-04-19T14:39:18.001Z</time></trkpt><trkpt lat="45.059417812228396" lon="9.426867181557558"><ele>77.0</ele><time>2026-04-19T14:39:19.001Z</time></trkpt><trkpt lat="45.05940561373235" lon="9.427029618201749"><ele>76.75</ele><time>2026-04-19T14:39:20.001Z</time></trkpt><trkpt lat="45.05939376234885" lon="9.427217064926104"><ele>76.5</ele><time>2026-04-19T14:39:21.001Z</time></trkpt><trkpt lat="45.059379782576" lon="9.427423841118317"><ele>76.25</ele><time>2026-04-19T14:39:22.001Z</time></trkpt><trkpt lat="45.05936368416981" lon="9.427647110914423"><ele>76.0</ele><time>2026-04-19T14:39:23.001Z</time></trkpt><trkpt lat="45.059346183678535" lon="9.427861336266085"><ele>75.75</ele><time>2026-04-19T14:39:24.001Z</time></trkpt><trkpt lat="45.059335282792134" lon="9.428062640764942"><ele>75.5</ele><time>2026-04-19T14:39:25.001Z</time></trkpt><trkpt lat="45.05932230509436" lon="9.428254635701117"><ele>75.25</ele><time>2026-04-19T14:39:26.001Z</time></trkpt><trkpt lat="45.059315575836685" lon="9.428451829085889"><ele>75.0</ele><time>2026-04-19T14:39:27.001Z</time></trkpt><trkpt lat="45.059306309746546" lon="9.42865198557428"><ele>75.25</ele><time>2026-04-19T14:39:28.001Z</time></trkpt><trkpt lat="45.05929466624179" lon="9.428847140837366"><ele>75.5</ele><time>2026-04-19T14:39:29.001Z</time></trkpt><trkpt lat="45.05928001023758" lon="9.429028521393917"><ele>75.75</ele><time>2026-04-19T14:39:30.001Z</time></trkpt><trkpt lat="45.05927317682785" lon="9.429199216607923"><ele>76.0</ele><time>2026-04-19T14:39:31.001Z</time></trkpt><trkpt lat="45.05926349986072" lon="9.429359049895995"><ele>76.0</ele><time>2026-04-19T14:39:32.001Z</time></trkpt><trkpt lat="45.0592531678307" lon="9.429522502634562"><ele>76.0</ele><time>2026-04-19T14:39:33.001Z</time></trkpt><trkpt lat="45.059245889339046" lon="9.429700306443879"><ele>76.0</ele><time>2026-04-19T14:39:34.001Z</time></trkpt><trkpt lat="45.059239694687044" lon="9.429891203559547"><ele>76.0</ele><time>2026-04-19T14:39:35.001Z</time></trkpt><trkpt lat="45.05922938490093" lon="9.430081629427146"><ele>76.0</ele><time>2026-04-19T14:39:36.001Z</time></trkpt><trkpt lat="45.059216897383834" lon="9.430251749399345"><ele>76.0</ele><time>2026-04-19T14:39:37.001Z</time></trkpt><trkpt lat="45.059197037132186" lon="9.430411272472"><ele>76.0</ele><time>2026-04-19T14:39:38.001Z</time></trkpt><trkpt lat="45.05918920411238" lon="9.430561981362363"><ele>76.0</ele><time>2026-04-19T14:39:39.001Z</time></trkpt><trkpt lat="45.059181810334366" lon="9.430704239169867"><ele>76.0</ele><time>2026-04-19T14:39:40.001Z</time></trkpt><trkpt lat="45.05918880879583" lon="9.430839099846951"><ele>75.83333333333333</ele><time>2026-04-19T14:39:41.001Z</time></trkpt><trkpt lat="45.05917850306735" lon="9.430969273544626"><ele>75.66666666666666</ele><time>2026-04-19T14:39:42.001Z</time></trkpt><trkpt lat="45.05917040270007" lon="9.431079123477403"><ele>75.5</ele><time>2026-04-19T14:39:43.001Z</time></trkpt><trkpt lat="45.05916434917971" lon="9.431190683800304"><ele>75.33333333333333</ele><time>2026-04-19T14:39:44.001Z</time></trkpt><trkpt lat="45.059160406121215" lon="9.43129000542118"><ele>75.16666666666667</ele><time>2026-04-19T14:39:45.001Z</time></trkpt><trkpt lat="45.05915690252329" lon="9.431393120174048"><ele>75.0</ele><time>2026-04-19T14:39:46.001Z</time></trkpt><trkpt lat="45.059146150537124" lon="9.43149595451837"><ele>75.0</ele><time>2026-04-19T14:39:47.001Z</time></trkpt><trkpt lat="45.05914512407036" lon="9.431605582637212"><ele>75.0</ele><time>2026-04-19T14:39:48.001Z</time></trkpt><trkpt lat="45.059143088588385" lon="9.431712969092295"><ele>75.0</ele><time>2026-04-19T14:39:49.001Z</time></trkpt><trkpt lat="45.05912450202423" lon="9.431820281720453"><ele>75.0</ele><time>2026-04-19T14:39:50.001Z</time></trkpt><trkpt lat="45.05911835457819" lon="9.431941886848156"><ele>75.0</ele><time>2026-04-19T14:39:51.001Z</time></trkpt><trkpt lat="45.05911252774642" lon="9.432057149782558"><ele>75.0</ele><time>2026-04-19T14:39:52.001Z</time></trkpt><trkpt lat="45.05910692857535" lon="9.432164509650374"><ele>74.85714285714285</ele><time>2026-04-19T14:39:53.002Z</time></trkpt><trkpt lat="45.0591015762429" lon="9.432263306454326"><ele>74.71428571428571</ele><time>2026-04-19T14:39:54.002Z</time></trkpt><trkpt lat="45.0590962849032" lon="9.43236097745991"><ele>74.57142857142857</ele><time>2026-04-19T14:39:55.002Z</time></trkpt><trkpt lat="45.05909038986059" lon="9.432464349328892"><ele>74.42857142857142</ele><time>2026-04-19T14:39:56.002Z</time></trkpt><trkpt lat="45.059084585490915" lon="9.432566057045623"><ele>74.28571428571428</ele><time>2026-04-19T14:39:57.002Z</time></trkpt><trkpt lat="45.05907865766641" lon="9.432669928021964"><ele>74.14285714285714</ele><time>2026-04-19T14:39:58.002Z</time></trkpt><trkpt lat="45.059072945556885" lon="9.432765380930176"><ele>74.0</ele><time>2026-04-19T14:39:59.002Z</time></trkpt><trkpt lat="45.05906678991664" lon="9.432864762116894"><ele>74.0</ele><time>2026-04-19T14:40:00.002Z</time></trkpt><trkpt lat="45.059060240651526" lon="9.432970498327343"><ele>74.0</ele><time>2026-04-19T14:40:01.002Z</time></trkpt><trkpt lat="45.05905406915724" lon="9.433081497213038"><ele>74.0</ele><time>2026-04-19T14:40:02.002Z</time></trkpt><trkpt lat="45.059048386215984" lon="9.433182416093274"><ele>74.0</ele><time>2026-04-19T14:40:03.002Z</time></trkpt><trkpt lat="45.05904322802159" lon="9.433274016415345"><ele>74.0</ele><time>2026-04-19T14:40:04.002Z</time></trkpt><trkpt lat="45.059033452272594" lon="9.433447616278055"><ele>74.0</ele><time>2026-04-19T14:40:06.002Z</time></trkpt><trkpt lat="45.05902400970281" lon="9.43361529946362"><ele>74.0</ele><time>2026-04-19T14:40:08.002Z</time></trkpt><trkpt lat="45.05901702678463" lon="9.433736592344669"><ele>74.0</ele><time>2026-04-19T14:40:10.002Z</time></trkpt><trkpt lat="45.05901003226936" lon="9.433848031245056"><ele>74.0</ele><time>2026-04-19T14:40:12.002Z</time></trkpt><trkpt lat="45.0589709505537" lon="9.43394625430814"><ele>74.0</ele><time>2026-04-19T14:40:15.002Z</time></trkpt><trkpt lat="45.05884537581981" lon="9.433928524877008"><ele>74.0</ele><time>2026-04-19T14:40:17.002Z</time></trkpt><trkpt lat="45.05871059489049" lon="9.433898461378968"><ele>73.83333333333334</ele><time>2026-04-19T14:40:19.002Z</time></trkpt><trkpt lat="45.05864363336642" lon="9.43388027012042"><ele>73.66666666666667</ele><time>2026-04-19T14:40:20.002Z</time></trkpt><trkpt lat="45.05857384390904" lon="9.43386467567461"><ele>73.5</ele><time>2026-04-19T14:40:21.002Z</time></trkpt><trkpt lat="45.0585023388044" lon="9.433840368970076"><ele>73.33333333333333</ele><time>2026-04-19T14:40:22.002Z</time></trkpt><trkpt lat="45.058425402508156" lon="9.433835045106688"><ele>73.16666666666666</ele><time>2026-04-19T14:40:23.002Z</time></trkpt><trkpt lat="45.058353023131325" lon="9.433828537269422"><ele>73.0</ele><time>2026-04-19T14:40:24.002Z</time></trkpt><trkpt lat="45.05827168380372" lon="9.433774379301592"><ele>72.83333333333333</ele><time>2026-04-19T14:40:25.002Z</time></trkpt><trkpt lat="45.05813515949803" lon="9.433774827860036"><ele>72.66666666666666</ele><time>2026-04-19T14:40:27.002Z</time></trkpt><trkpt lat="45.058065377131506" lon="9.433772732259621"><ele>72.5</ele><time>2026-04-19T14:40:28.002Z</time></trkpt><trkpt lat="45.05799159623236" lon="9.43376198074681"><ele>72.33333333333333</ele><time>2026-04-19T14:40:29Z</time></trkpt><trkpt lat="45.05791320240179" lon="9.433751788907779"><ele>72.16666666666667</ele><time>2026-04-19T14:40:30Z</time></trkpt><trkpt lat="45.05784279231881" lon="9.433737799805337"><ele>72.0</ele><time>2026-04-19T14:40:31Z</time></trkpt><trkpt lat="45.05777882153437" lon="9.433727687710082"><ele>72.0</ele><time>2026-04-19T14:40:32Z</time></trkpt><trkpt lat="45.05771060448418" lon="9.433715972432148"><ele>72.0</ele><time>2026-04-19T14:40:33Z</time></trkpt><trkpt lat="45.05764500700994" lon="9.433715432567631"><ele>72.0</ele><time>2026-04-19T14:40:34Z</time></trkpt><trkpt lat="45.05757874264271" lon="9.433709077180145"><ele>72.0</ele><time>2026-04-19T14:40:35Z</time></trkpt><trkpt lat="45.05747728072451" lon="9.433686804240127"><ele>72.0</ele><time>2026-04-19T14:40:37Z</time></trkpt><trkpt lat="45.057386233045484" lon="9.433719039104242"><ele>72.0</ele><time>2026-04-19T14:40:39Z</time></trkpt><trkpt lat="45.0573433953075" lon="9.433801310476886"><ele>71.83333333333333</ele><time>2026-04-19T14:40:40Z</time></trkpt><trkpt lat="45.057346131486625" lon="9.433907231812222"><ele>71.66666666666667</ele><time>2026-04-19T14:40:41Z</time></trkpt><trkpt lat="45.05734077904316" lon="9.43402157515067"><ele>71.5</ele><time>2026-04-19T14:40:42Z</time></trkpt><trkpt lat="45.05732259810191" lon="9.434119983272147"><ele>71.33333333333334</ele><time>2026-04-19T14:40:43Z</time></trkpt><trkpt lat="45.057317054570674" lon="9.434211504970529"><ele>71.16666666666667</ele><time>2026-04-19T14:40:44Z</time></trkpt><trkpt lat="45.057319124243" lon="9.434408077279167"><ele>71.0</ele><time>2026-04-19T14:40:46Z</time></trkpt><trkpt lat="45.05729706387047" lon="9.434517375219896"><ele>71.0</ele><time>2026-04-19T14:40:47Z</time></trkpt><trkpt lat="45.057290742029494" lon="9.434621454300759"><ele>71.0</ele><time>2026-04-19T14:40:48Z</time></trkpt><trkpt lat="45.057284023663364" lon="9.434732061716941"><ele>71.0</ele><time>2026-04-19T14:40:49Z</time></trkpt><trkpt lat="45.0572771599116" lon="9.434844320936701"><ele>71.0</ele><time>2026-04-19T14:40:50Z</time></trkpt><trkpt lat="45.057270204605906" lon="9.434958306821203"><ele>71.0</ele><time>2026-04-19T14:40:51Z</time></trkpt><trkpt lat="45.0572633052982" lon="9.435070606538766"><ele>71.0</ele><time>2026-04-19T14:40:52Z</time></trkpt><trkpt lat="45.05725640141949" lon="9.435182980639622"><ele>70.85714285714286</ele><time>2026-04-19T14:40:53Z</time></trkpt><trkpt lat="45.05724958664884" lon="9.435293904366718"><ele>70.71428571428571</ele><time>2026-04-19T14:40:54Z</time></trkpt><trkpt lat="45.05724353729572" lon="9.43539236943694"><ele>70.57142857142857</ele><time>2026-04-19T14:40:55Z</time></trkpt><trkpt lat="45.05723770626989" lon="9.435487280792819"><ele>70.42857142857143</ele><time>2026-04-19T14:40:56Z</time></trkpt><trkpt lat="45.057232128632975" lon="9.435578067728589"><ele>70.28571428571428</ele><time>2026-04-19T14:40:57Z</time></trkpt><trkpt lat="45.05722651253928" lon="9.435669480621238"><ele>70.14285714285714</ele><time>2026-04-19T14:40:58Z</time></trkpt><trkpt lat="45.05722034374334" lon="9.435769890031192"><ele>70.0</ele><time>2026-04-19T14:40:59Z</time></trkpt><trkpt lat="45.05721377070706" lon="9.43587546552087"><ele>70.0</ele><time>2026-04-19T14:41:00Z</time></trkpt><trkpt lat="45.05720679901486" lon="9.43598788908907"><ele>70.0</ele><time>2026-04-19T14:41:01Z</time></trkpt><trkpt lat="45.05720000824294" lon="9.436097395201243"><ele>70.0</ele><time>2026-04-19T14:41:02Z</time></trkpt><trkpt lat="45.05720759621809" lon="9.436210098587493"><ele>70.0</ele><time>2026-04-19T14:41:03Z</time></trkpt><trkpt lat="45.05718612600549" lon="9.436321256301566"><ele>70.0</ele><time>2026-04-19T14:41:04Z</time></trkpt><trkpt lat="45.05717934324659" lon="9.436430633181889"><ele>70.0</ele><time>2026-04-19T14:41:05Z</time></trkpt><trkpt lat="45.05717327990861" lon="9.436528408876162"><ele>70.0</ele><time>2026-04-19T14:41:06Z</time></trkpt><trkpt lat="45.05716757508643" lon="9.43662040327585"><ele>70.0</ele><time>2026-04-19T14:41:07Z</time></trkpt><trkpt lat="45.05717315596727" lon="9.436764366751731"><ele>70.0</ele><time>2026-04-19T14:41:09Z</time></trkpt><trkpt lat="45.0571536209373" lon="9.436880268297129"><ele>70.0</ele><time>2026-04-19T14:41:11Z</time></trkpt><trkpt lat="45.057091707523455" lon="9.437027624924418"><ele>70.0</ele><time>2026-04-19T14:41:13.001Z</time></trkpt><trkpt lat="45.057057052750636" lon="9.437107818927997"><ele>70.0</ele><time>2026-04-19T14:41:14.001Z</time></trkpt><trkpt lat="45.0570476573879" lon="9.437201398524232"><ele>70.0</ele><time>2026-04-19T14:41:15.001Z</time></trkpt><trkpt lat="45.05706693419153" lon="9.437303127268503"><ele>70.0</ele><time>2026-04-19T14:41:16.001Z</time></trkpt><trkpt lat="45.05711177374341" lon="9.43740018934037"><ele>70.0</ele><time>2026-04-19T14:41:17.001Z</time></trkpt><trkpt lat="45.057111210499656" lon="9.437511723223828"><ele>70.0</ele><time>2026-04-19T14:41:18.001Z</time></trkpt><trkpt lat="45.05710421810341" lon="9.437628238633964"><ele>70.0</ele><time>2026-04-19T14:41:19.001Z</time></trkpt><trkpt lat="45.05710889082581" lon="9.437735826708593"><ele>70.0</ele><time>2026-04-19T14:41:20.001Z</time></trkpt><trkpt lat="45.057102028035054" lon="9.437840849908392"><ele>70.0</ele><time>2026-04-19T14:41:21.001Z</time></trkpt><trkpt lat="45.057091630517014" lon="9.437947371514564"><ele>70.0</ele><time>2026-04-19T14:41:22.001Z</time></trkpt><trkpt lat="45.057087969668544" lon="9.438052755576326"><ele>70.0</ele><time>2026-04-19T14:41:23.001Z</time></trkpt><trkpt lat="45.057081441905915" lon="9.43816258547198"><ele>70.0</ele><time>2026-04-19T14:41:24.001Z</time></trkpt><trkpt lat="45.05707027513002" lon="9.438266587305911"><ele>70.0</ele><time>2026-04-19T14:41:25.001Z</time></trkpt><trkpt lat="45.05706944340223" lon="9.438369384541124"><ele>70.0</ele><time>2026-04-19T14:41:26.001Z</time></trkpt><trkpt lat="45.057059333031525" lon="9.438464010946872"><ele>70.0</ele><time>2026-04-19T14:41:27.001Z</time></trkpt><trkpt lat="45.05705723116938" lon="9.438557517461724"><ele>70.4</ele><time>2026-04-19T14:41:28.001Z</time></trkpt><trkpt lat="45.057049428870926" lon="9.43864756693993"><ele>70.8</ele><time>2026-04-19T14:41:29.001Z</time></trkpt><trkpt lat="45.05703062317599" lon="9.43873944903757"><ele>71.2</ele><time>2026-04-19T14:41:30.001Z</time></trkpt><trkpt lat="45.056985466367124" lon="9.438882992983928"><ele>71.6</ele><time>2026-04-19T14:41:32.001Z</time></trkpt><trkpt lat="45.056966757287626" lon="9.439032133183881"><ele>72.0</ele><time>2026-04-19T14:41:34.001Z</time></trkpt><trkpt lat="45.05700791021834" lon="9.439170171670305"><ele>72.2</ele><time>2026-04-19T14:41:36.001Z</time></trkpt><trkpt lat="45.05701605974442" lon="9.439308030477585"><ele>72.4</ele><time>2026-04-19T14:41:38.001Z</time></trkpt><trkpt lat="45.05701071827082" lon="9.439474379965777"><ele>72.6</ele><time>2026-04-19T14:41:40.001Z</time></trkpt><trkpt lat="45.05700598134688" lon="9.43962602693834"><ele>72.8</ele><time>2026-04-19T14:41:42.001Z</time></trkpt><trkpt lat="45.056988501722074" lon="9.43975638599172"><ele>73.0</ele><time>2026-04-19T14:41:44.001Z</time></trkpt><trkpt lat="45.05698014684071" lon="9.439932289280257"><ele>73.0</ele><time>2026-04-19T14:41:46.001Z</time></trkpt><trkpt lat="45.05696627052267" lon="9.440046496914588"><ele>73.0</ele><time>2026-04-19T14:41:47.001Z</time></trkpt><trkpt lat="45.056980671809804" lon="9.44016091317367"><ele>73.0</ele><time>2026-04-19T14:41:48.001Z</time></trkpt><trkpt lat="45.056888521751105" lon="9.440269015108912"><ele>73.0</ele><time>2026-04-19T14:41:49.001Z</time></trkpt><trkpt lat="45.05679931201235" lon="9.44037290412828"><ele>73.0</ele><time>2026-04-19T14:41:50.001Z</time></trkpt><trkpt lat="45.05669687751305" lon="9.440483228259367"><ele>74.25</ele><time>2026-04-19T14:41:51.001Z</time></trkpt><trkpt lat="45.056594088159294" lon="9.440575765546697"><ele>75.5</ele><time>2026-04-19T14:41:52.001Z</time></trkpt><trkpt lat="45.05651090468203" lon="9.44071348795797"><ele>76.75</ele><time>2026-04-19T14:41:53.001Z</time></trkpt><trkpt lat="45.056423228984876" lon="9.440843231145164"><ele>78.0</ele><time>2026-04-19T14:41:54.001Z</time></trkpt><trkpt lat="45.056336554302355" lon="9.440971493266302"><ele>78.0</ele><time>2026-04-19T14:41:55.001Z</time></trkpt><trkpt lat="45.05624374785314" lon="9.44110696661976"><ele>78.0</ele><time>2026-04-19T14:41:56.001Z</time></trkpt><trkpt lat="45.05616795422571" lon="9.441264985285175"><ele>78.0</ele><time>2026-04-19T14:41:57.001Z</time></trkpt><trkpt lat="45.056082579408795" lon="9.441426355911991"><ele>78.0</ele><time>2026-04-19T14:41:58.001Z</time></trkpt><trkpt lat="45.05598926549398" lon="9.441569879161154"><ele>78.0</ele><time>2026-04-19T14:41:59.001Z</time></trkpt><trkpt lat="45.05588586739406" lon="9.44172006602198"><ele>78.0</ele><time>2026-04-19T14:42:00.001Z</time></trkpt><trkpt lat="45.05578020438862" lon="9.4418713148606"><ele>78.0</ele><time>2026-04-19T14:42:01.001Z</time></trkpt><trkpt lat="45.05567454960227" lon="9.442030825583664"><ele>77.33333333333333</ele><time>2026-04-19T14:42:02.001Z</time></trkpt><trkpt lat="45.05556608646224" lon="9.442193219752507"><ele>76.66666666666666</ele><time>2026-04-19T14:42:03.001Z</time></trkpt><trkpt lat="45.05545272373764" lon="9.442362730292725"><ele>76.0</ele><time>2026-04-19T14:42:04.001Z</time></trkpt><trkpt lat="45.05533359698605" lon="9.442542833406016"><ele>76.0</ele><time>2026-04-19T14:42:05.001Z</time></trkpt><trkpt lat="45.0552120367667" lon="9.442718148164225"><ele>76.0</ele><time>2026-04-19T14:42:06.002Z</time></trkpt><trkpt lat="45.05508936635573" lon="9.442892309986837"><ele>76.0</ele><time>2026-04-19T14:42:07.002Z</time></trkpt><trkpt lat="45.054967566980174" lon="9.443065332687661"><ele>76.66666666666666</ele><time>2026-04-19T14:42:08.002Z</time></trkpt><trkpt lat="45.05486097687285" lon="9.443227907874235"><ele>77.33333333333333</ele><time>2026-04-19T14:42:09.002Z</time></trkpt><trkpt lat="45.05475007568091" lon="9.44339406087195"><ele>78.0</ele><time>2026-04-19T14:42:10.002Z</time></trkpt><trkpt lat="45.05463237529115" lon="9.443566358957582"><ele>78.0</ele><time>2026-04-19T14:42:11.002Z</time></trkpt><trkpt lat="45.05450225031521" lon="9.443730038751967"><ele>78.0</ele><time>2026-04-19T14:42:12.002Z</time></trkpt><trkpt lat="45.05437332855307" lon="9.443901280098673"><ele>78.0</ele><time>2026-04-19T14:42:13.002Z</time></trkpt><trkpt lat="45.05424998918516" lon="9.444081132583396"><ele>78.33333333333333</ele><time>2026-04-19T14:42:14.002Z</time></trkpt><trkpt lat="45.054119131129" lon="9.444252276894135"><ele>78.66666666666666</ele><time>2026-04-19T14:42:15.002Z</time></trkpt><trkpt lat="45.05398090637514" lon="9.444419376832384"><ele>79.0</ele><time>2026-04-19T14:42:16.002Z</time></trkpt><trkpt lat="45.05384134627141" lon="9.444585849372798"><ele>78.33333333333333</ele><time>2026-04-19T14:42:17.002Z</time></trkpt><trkpt lat="45.05369758254103" lon="9.444746172229571"><ele>77.66666666666667</ele><time>2026-04-19T14:42:18.002Z</time></trkpt><trkpt lat="45.05355023717389" lon="9.444908347997393"><ele>77.0</ele><time>2026-04-19T14:42:19.002Z</time></trkpt><trkpt lat="45.053388599580735" lon="9.445047907889453"><ele>78.0</ele><time>2026-04-19T14:42:20.002Z</time></trkpt><trkpt lat="45.05323115182619" lon="9.445199445574682"><ele>79.0</ele><time>2026-04-19T14:42:21.002Z</time></trkpt><trkpt lat="45.053076143538796" lon="9.445359875284794"><ele>80.0</ele><time>2026-04-19T14:42:22.002Z</time></trkpt><trkpt lat="45.052914644852144" lon="9.445501247085378"><ele>80.0</ele><time>2026-04-19T14:42:23.002Z</time></trkpt><trkpt lat="45.052746726745866" lon="9.44563230102732"><ele>80.0</ele><time>2026-04-19T14:42:24.002Z</time></trkpt><trkpt lat="45.05258115443459" lon="9.44575286665025"><ele>80.0</ele><time>2026-04-19T14:42:25.002Z</time></trkpt><trkpt lat="45.052415862674266" lon="9.445870657438315"><ele>80.0</ele><time>2026-04-19T14:42:26.002Z</time></trkpt><trkpt lat="45.05225188914539" lon="9.445987446664766"><ele>80.0</ele><time>2026-04-19T14:42:27.002Z</time></trkpt><trkpt lat="45.05208930412356" lon="9.446102728098026"><ele>80.0</ele><time>2026-04-19T14:42:28.002Z</time></trkpt><trkpt lat="45.0519285440645" lon="9.446205111044499"><ele>80.33333333333334</ele><time>2026-04-19T14:42:29.002Z</time></trkpt><trkpt lat="45.051764641628324" lon="9.446313372563054"><ele>80.66666666666667</ele><time>2026-04-19T14:42:30.002Z</time></trkpt><trkpt lat="45.05160103680456" lon="9.446418555041292"><ele>81.0</ele><time>2026-04-19T14:42:31.002Z</time></trkpt><trkpt lat="45.05143598756821" lon="9.446517182150954"><ele>81.0</ele><time>2026-04-19T14:42:32.002Z</time></trkpt><trkpt lat="45.05126758446548" lon="9.446605380239811"><ele>81.0</ele><time>2026-04-19T14:42:33.002Z</time></trkpt><trkpt lat="45.051099118779916" lon="9.446686329257599"><ele>81.0</ele><time>2026-04-19T14:42:34.002Z</time></trkpt><trkpt lat="45.050925887594346" lon="9.446762161670359"><ele>81.33333333333333</ele><time>2026-04-19T14:42:35Z</time></trkpt><trkpt lat="45.05075018385164" lon="9.446836334722736"><ele>81.66666666666666</ele><time>2026-04-19T14:42:36Z</time></trkpt><trkpt lat="45.0505739036406" lon="9.446899569239765"><ele>82.0</ele><time>2026-04-19T14:42:37Z</time></trkpt><trkpt lat="45.050394011388185" lon="9.446963504668771"><ele>82.0</ele><time>2026-04-19T14:42:38Z</time></trkpt><trkpt lat="45.050213602872134" lon="9.447024451982125"><ele>82.0</ele><time>2026-04-19T14:42:39Z</time></trkpt><trkpt lat="45.050032894554654" lon="9.44707961994574"><ele>82.0</ele><time>2026-04-19T14:42:40Z</time></trkpt><trkpt lat="45.049849944325295" lon="9.447125797304164"><ele>81.33333333333333</ele><time>2026-04-19T14:42:41Z</time></trkpt><trkpt lat="45.049667094166004" lon="9.447166702169334"><ele>80.66666666666667</ele><time>2026-04-19T14:42:42Z</time></trkpt><trkpt lat="45.0494810378677" lon="9.447201196965663"><ele>80.0</ele><time>2026-04-19T14:42:43Z</time></trkpt><trkpt lat="45.04929391052153" lon="9.447232082555374"><ele>80.33333333333334</ele><time>2026-04-19T14:42:44Z</time></trkpt><trkpt lat="45.04910338332478" lon="9.447259020471318"><ele>80.66666666666667</ele><time>2026-04-19T14:42:45Z</time></trkpt><trkpt lat="45.04891425854452" lon="9.447277304215039"><ele>81.0</ele><time>2026-04-19T14:42:46Z</time></trkpt><trkpt lat="45.048723288375314" lon="9.447292572023326"><ele>81.0</ele><time>2026-04-19T14:42:47Z</time></trkpt><trkpt lat="45.048533729771115" lon="9.44730237384425"><ele>81.0</ele><time>2026-04-19T14:42:48Z</time></trkpt><trkpt lat="45.048344504326586" lon="9.447306353961071"><ele>81.0</ele><time>2026-04-19T14:42:49Z</time></trkpt><trkpt lat="45.04815476562477" lon="9.447308654647902"><ele>81.66666666666667</ele><time>2026-04-19T14:42:50Z</time></trkpt><trkpt lat="45.047966671096475" lon="9.447308001702968"><ele>82.33333333333334</ele><time>2026-04-19T14:42:51Z</time></trkpt><trkpt lat="45.04778470636155" lon="9.447300144160158"><ele>83.0</ele><time>2026-04-19T14:42:52Z</time></trkpt><trkpt lat="45.047606891582525" lon="9.447300047651545"><ele>82.66666666666667</ele><time>2026-04-19T14:42:53Z</time></trkpt><trkpt lat="45.04743226781075" lon="9.447297118953106"><ele>82.33333333333333</ele><time>2026-04-19T14:42:54Z</time></trkpt><trkpt lat="45.047261435333255" lon="9.447294744954151"><ele>82.0</ele><time>2026-04-19T14:42:55Z</time></trkpt><trkpt lat="45.0470949936839" lon="9.447295880553156"><ele>82.0</ele><time>2026-04-19T14:42:56Z</time></trkpt><trkpt lat="45.04693643679644" lon="9.44728881465595"><ele>82.0</ele><time>2026-04-19T14:42:57Z</time></trkpt><trkpt lat="45.04679596131206" lon="9.447289488251489"><ele>82.0</ele><time>2026-04-19T14:42:58Z</time></trkpt><trkpt lat="45.046661980124654" lon="9.447286389645788"><ele>82.0</ele><time>2026-04-19T14:42:59Z</time></trkpt><trkpt lat="45.04653152405745" lon="9.44728071433803"><ele>82.33333333333333</ele><time>2026-04-19T14:43:00Z</time></trkpt><trkpt lat="45.046431848519994" lon="9.447274718713404"><ele>82.66666666666666</ele><time>2026-04-19T14:43:01Z</time></trkpt><trkpt lat="45.04634448540994" lon="9.447267917182346"><ele>83.0</ele><time>2026-04-19T14:43:02Z</time></trkpt><trkpt lat="45.0462620946094" lon="9.447256744848602"><ele>83.33333333333333</ele><time>2026-04-19T14:43:03Z</time></trkpt><trkpt lat="45.04617904031417" lon="9.44725197286203"><ele>83.66666666666667</ele><time>2026-04-19T14:43:04Z</time></trkpt><trkpt lat="45.046098883362404" lon="9.447251155102165"><ele>84.0</ele><time>2026-04-19T14:43:05Z</time></trkpt><trkpt lat="45.04602463431987" lon="9.447248763674123"><ele>84.0</ele><time>2026-04-19T14:43:06Z</time></trkpt><trkpt lat="45.04591727119314" lon="9.447213406397674"><ele>84.0</ele><time>2026-04-19T14:43:08Z</time></trkpt><trkpt lat="45.04583911411865" lon="9.44720855966537"><ele>84.0</ele><time>2026-04-19T14:43:10Z</time></trkpt><trkpt lat="45.04575442384817" lon="9.44726292190384"><ele>84.0</ele><time>2026-04-19T14:45:30.001Z</time></trkpt><trkpt lat="45.045677975628024" lon="9.447267336665858"><ele>84.0</ele><time>2026-04-19T14:45:31.001Z</time></trkpt><trkpt lat="45.04557315728035" lon="9.447262741861762"><ele>84.25</ele><time>2026-04-19T14:45:32.001Z</time></trkpt><trkpt lat="45.0454709479008" lon="9.447261847657977"><ele>84.5</ele><time>2026-04-19T14:45:33.001Z</time></trkpt><trkpt lat="45.045352540058076" lon="9.447258281169102"><ele>84.75</ele><time>2026-04-19T14:45:34.001Z</time></trkpt><trkpt lat="45.04522632693801" lon="9.447257329976216"><ele>85.0</ele><time>2026-04-19T14:45:35.001Z</time></trkpt><trkpt lat="45.04509276459417" lon="9.447257474274547"><ele>85.0</ele><time>2026-04-19T14:45:36.001Z</time></trkpt><trkpt lat="45.04496394913414" lon="9.447258904946445"><ele>85.0</ele><time>2026-04-19T14:45:37.001Z</time></trkpt><trkpt lat="45.04483021851478" lon="9.447259722751784"><ele>85.0</ele><time>2026-04-19T14:45:38.001Z</time></trkpt><trkpt lat="45.04468298527138" lon="9.44726069315909"><ele>85.0</ele><time>2026-04-19T14:45:39.001Z</time></trkpt><trkpt lat="45.044526570496686" lon="9.44726005156869"><ele>84.66666666666666</ele><time>2026-04-19T14:45:40.001Z</time></trkpt><trkpt lat="45.044360986658354" lon="9.447253269604701"><ele>84.33333333333333</ele><time>2026-04-19T14:45:41.001Z</time></trkpt><trkpt lat="45.04418790232346" lon="9.447244312303686"><ele>84.0</ele><time>2026-04-19T14:45:42.001Z</time></trkpt><trkpt lat="45.04400914000387" lon="9.447240133165835"><ele>84.0</ele><time>2026-04-19T14:45:43.001Z</time></trkpt><trkpt lat="45.043824226781005" lon="9.44723632498332"><ele>84.0</ele><time>2026-04-19T14:45:44.001Z</time></trkpt><trkpt lat="45.04364392372372" lon="9.447233517190497"><ele>84.0</ele><time>2026-04-19T14:45:45.001Z</time></trkpt><trkpt lat="45.04344934984899" lon="9.447230666069931"><ele>84.0</ele><time>2026-04-19T14:45:46.001Z</time></trkpt><trkpt lat="45.04324309537698" lon="9.44723017570285"><ele>84.0</ele><time>2026-04-19T14:45:47.001Z</time></trkpt><trkpt lat="45.043025606724115" lon="9.44723216702563"><ele>84.0</ele><time>2026-04-19T14:45:48.001Z</time></trkpt><trkpt lat="45.042780114543156" lon="9.44723289430078"><ele>84.0</ele><time>2026-04-19T14:45:49.001Z</time></trkpt><trkpt lat="45.04249550543415" lon="9.447202465690749"><ele>84.0</ele><time>2026-04-19T14:45:50.001Z</time></trkpt><trkpt lat="45.04216910025034" lon="9.44719417426536"><ele>85.0</ele><time>2026-04-19T14:45:51.001Z</time></trkpt><trkpt lat="45.041800122705496" lon="9.447187661359825"><ele>86.0</ele><time>2026-04-19T14:45:52.001Z</time></trkpt><trkpt lat="45.041414363101495" lon="9.44719971389237"><ele>86.0</ele><time>2026-04-19T14:45:53.001Z</time></trkpt><trkpt lat="45.04100918885749" lon="9.447188368351005"><ele>86.0</ele><time>2026-04-19T14:45:54.001Z</time></trkpt><trkpt lat="45.04062672519622" lon="9.447167119069556"><ele>86.5</ele><time>2026-04-19T14:45:55.001Z</time></trkpt><trkpt lat="45.04020981100819" lon="9.447150444279055"><ele>87.0</ele><time>2026-04-19T14:45:56.001Z</time></trkpt><trkpt lat="45.039786410471784" lon="9.447131387537857"><ele>87.5</ele><time>2026-04-19T14:45:57.001Z</time></trkpt><trkpt lat="45.03936665384778" lon="9.447115432672492"><ele>88.0</ele><time>2026-04-19T14:45:58.001Z</time></trkpt><trkpt lat="45.03894093638381" lon="9.44710447025357"><ele>87.0</ele><time>2026-04-19T14:45:59.001Z</time></trkpt><trkpt lat="45.03852362747844" lon="9.447092792610308"><ele>86.0</ele><time>2026-04-19T14:46:00.001Z</time></trkpt><trkpt lat="45.03809169310914" lon="9.44706067329636"><ele>88.0</ele><time>2026-04-19T14:46:01.001Z</time></trkpt><trkpt lat="45.03779161609107" lon="9.447126961905676"><ele>90.0</ele><time>2026-04-19T14:46:02.001Z</time></trkpt><trkpt lat="45.03743091741015" lon="9.447112888714143"><ele>91.5</ele><time>2026-04-19T14:46:03.001Z</time></trkpt><trkpt lat="45.037091767698364" lon="9.447106568759452"><ele>93.0</ele><time>2026-04-19T14:46:04.001Z</time></trkpt><trkpt lat="45.0367781604054" lon="9.447100572038067"><ele>92.5</ele><time>2026-04-19T14:46:05.001Z</time></trkpt><trkpt lat="45.036484603974024" lon="9.447092555350107"><ele>92.0</ele><time>2026-04-19T14:46:06.002Z</time></trkpt><trkpt lat="45.036208960356376" lon="9.447085555578761"><ele>92.0</ele><time>2026-04-19T14:46:07.002Z</time></trkpt><trkpt lat="45.035955082537804" lon="9.447078038280738"><ele>92.0</ele><time>2026-04-19T14:46:08.002Z</time></trkpt><trkpt lat="45.03571000496044" lon="9.447068931163688"><ele>91.66666666666667</ele><time>2026-04-19T14:46:09.002Z</time></trkpt><trkpt lat="45.03548001666822" lon="9.447062054061265"><ele>91.33333333333333</ele><time>2026-04-19T14:46:10.002Z</time></trkpt><trkpt lat="45.03526579207502" lon="9.44705679088465"><ele>91.0</ele><time>2026-04-19T14:46:11.002Z</time></trkpt><trkpt lat="45.035063536832155" lon="9.447052825692369"><ele>91.33333333333333</ele><time>2026-04-19T14:46:12.002Z</time></trkpt><trkpt lat="45.03486741238958" lon="9.447049157156622"><ele>91.66666666666667</ele><time>2026-04-19T14:46:13.002Z</time></trkpt><trkpt lat="45.034665528394626" lon="9.447047430717793"><ele>92.0</ele><time>2026-04-19T14:46:14.002Z</time></trkpt><trkpt lat="45.034458274072094" lon="9.447044457204658"><ele>92.0</ele><time>2026-04-19T14:46:15.002Z</time></trkpt><trkpt lat="45.034249800317134" lon="9.447044492236273"><ele>92.0</ele><time>2026-04-19T14:46:16.002Z</time></trkpt><trkpt lat="45.03403262781374" lon="9.447052103219285"><ele>92.0</ele><time>2026-04-19T14:46:17.002Z</time></trkpt><trkpt lat="45.03381391871566" lon="9.447054377015558"><ele>91.5</ele><time>2026-04-19T14:46:18.002Z</time></trkpt><trkpt lat="45.033588904077185" lon="9.447052310829893"><ele>91.0</ele><time>2026-04-19T14:46:19.002Z</time></trkpt><trkpt lat="45.03336145669718" lon="9.447046223748474"><ele>91.5</ele><time>2026-04-19T14:46:20.002Z</time></trkpt><trkpt lat="45.03312947251364" lon="9.447042879233885"><ele>92.0</ele><time>2026-04-19T14:46:21.002Z</time></trkpt><trkpt lat="45.03289455779394" lon="9.447037557644698"><ele>92.0</ele><time>2026-04-19T14:46:22.002Z</time></trkpt><trkpt lat="45.03265553717864" lon="9.447029556957911"><ele>92.0</ele><time>2026-04-19T14:46:23.002Z</time></trkpt><trkpt lat="45.03242137286371" lon="9.447026857211197"><ele>92.5</ele><time>2026-04-19T14:46:24.002Z</time></trkpt><trkpt lat="45.032179862575234" lon="9.447006690222732"><ele>93.0</ele><time>2026-04-19T14:46:25.002Z</time></trkpt><trkpt lat="45.03194593383989" lon="9.447007218451786"><ele>93.0</ele><time>2026-04-19T14:46:26.002Z</time></trkpt><trkpt lat="45.03171025732665" lon="9.447014196376907"><ele>93.0</ele><time>2026-04-19T14:46:27.002Z</time></trkpt><trkpt lat="45.03147299424556" lon="9.447015283202445"><ele>93.5</ele><time>2026-04-19T14:46:28.002Z</time></trkpt><trkpt lat="45.031235988518894" lon="9.447016434013285"><ele>94.0</ele><time>2026-04-19T14:46:29.002Z</time></trkpt><trkpt lat="45.03100069068687" lon="9.447021887529763"><ele>94.5</ele><time>2026-04-19T14:46:30.002Z</time></trkpt><trkpt lat="45.030755442444494" lon="9.446995159095671"><ele>95.0</ele><time>2026-04-19T14:46:31.002Z</time></trkpt><trkpt lat="45.03051245450584" lon="9.446976173274278"><ele>95.0</ele><time>2026-04-19T14:46:32.002Z</time></trkpt><trkpt lat="45.03030187153923" lon="9.446976220393822"><ele>95.0</ele><time>2026-04-19T14:46:33.002Z</time></trkpt><trkpt lat="45.03006346759879" lon="9.44697434973737"><ele>95.0</ele><time>2026-04-19T14:46:34.002Z</time></trkpt><trkpt lat="45.02983332319127" lon="9.446963365724985"><ele>95.0</ele><time>2026-04-19T14:46:35.002Z</time></trkpt><trkpt lat="45.02959681964682" lon="9.446964263856868"><ele>95.0</ele><time>2026-04-19T14:46:36.002Z</time></trkpt><trkpt lat="45.02935958416449" lon="9.44695903942088"><ele>95.0</ele><time>2026-04-19T14:46:37.002Z</time></trkpt><trkpt lat="45.0291263451734" lon="9.44695057349766"><ele>95.0</ele><time>2026-04-19T14:46:38.002Z</time></trkpt><trkpt lat="45.02889211006778" lon="9.446947474884032"><ele>95.0</ele><time>2026-04-19T14:46:39.002Z</time></trkpt><trkpt lat="45.02865787543639" lon="9.446943305564284"><ele>95.0</ele><time>2026-04-19T14:46:40.002Z</time></trkpt><trkpt lat="45.02842560171333" lon="9.446936515115155"><ele>95.0</ele><time>2026-04-19T14:46:41.002Z</time></trkpt><trkpt lat="45.02819015795783" lon="9.446929376274714"><ele>95.0</ele><time>2026-04-19T14:46:42.002Z</time></trkpt><trkpt lat="45.0279583998776" lon="9.446925065360688"><ele>95.0</ele><time>2026-04-19T14:46:43.002Z</time></trkpt><trkpt lat="45.02772558919416" lon="9.446923758135995"><ele>95.0</ele><time>2026-04-19T14:46:44.002Z</time></trkpt><trkpt lat="45.027492339503354" lon="9.446922091088188"><ele>95.5</ele><time>2026-04-19T14:46:45.002Z</time></trkpt><trkpt lat="45.02726303979201" lon="9.4469113004088"><ele>96.0</ele><time>2026-04-19T14:46:46.002Z</time></trkpt><trkpt lat="45.027034531727175" lon="9.446903762815015"><ele>96.0</ele><time>2026-04-19T14:46:47.001Z</time></trkpt><trkpt lat="45.02680390558152" lon="9.446897748357243"><ele>96.0</ele><time>2026-04-19T14:46:48.001Z</time></trkpt><trkpt lat="45.02657407807579" lon="9.446893044371242"><ele>96.5</ele><time>2026-04-19T14:46:49.001Z</time></trkpt><trkpt lat="45.02634456661857" lon="9.446890089261402"><ele>97.0</ele><time>2026-04-19T14:46:50.001Z</time></trkpt><trkpt lat="45.02611418130561" lon="9.446886874650946"><ele>97.0</ele><time>2026-04-19T14:46:51.001Z</time></trkpt><trkpt lat="45.02588285628666" lon="9.446882532206875"><ele>97.0</ele><time>2026-04-19T14:46:52.001Z</time></trkpt><trkpt lat="45.02565066826477" lon="9.446876179821551"><ele>97.0</ele><time>2026-04-19T14:46:53.001Z</time></trkpt><trkpt lat="45.02541912146904" lon="9.446870723915715"><ele>97.0</ele><time>2026-04-19T14:46:54.001Z</time></trkpt><trkpt lat="45.02518610665958" lon="9.44686661986519"><ele>97.5</ele><time>2026-04-19T14:46:55.001Z</time></trkpt><trkpt lat="45.024951305076634" lon="9.44686515131607"><ele>98.0</ele><time>2026-04-19T14:46:56.001Z</time></trkpt><trkpt lat="45.02471990004653" lon="9.446842779689083"><ele>98.0</ele><time>2026-04-19T14:46:57.001Z</time></trkpt><trkpt lat="45.02448856347108" lon="9.446859038169643"><ele>98.0</ele><time>2026-04-19T14:46:58.001Z</time></trkpt><trkpt lat="45.024265108073934" lon="9.446852724334542"><ele>98.33333333333333</ele><time>2026-04-19T14:46:59.001Z</time></trkpt><trkpt lat="45.02404435040913" lon="9.446846124616535"><ele>98.66666666666666</ele><time>2026-04-19T14:47:00.001Z</time></trkpt><trkpt lat="45.023825505305375" lon="9.446837615345736"><ele>99.0</ele><time>2026-04-19T14:47:01.001Z</time></trkpt><trkpt lat="45.023608039640074" lon="9.446833977683598"><ele>99.0</ele><time>2026-04-19T14:47:02.001Z</time></trkpt><trkpt lat="45.023395012116254" lon="9.446829624800262"><ele>99.0</ele><time>2026-04-19T14:47:03.001Z</time></trkpt><trkpt lat="45.02318420477039" lon="9.446825997086982"><ele>99.0</ele><time>2026-04-19T14:47:04.001Z</time></trkpt><trkpt lat="45.0229704530261" lon="9.44682164454672"><ele>99.33333333333334</ele><time>2026-04-19T14:47:05.001Z</time></trkpt><trkpt lat="45.022754575987264" lon="9.44681654165886"><ele>99.66666666666667</ele><time>2026-04-19T14:47:06.001Z</time></trkpt><trkpt lat="45.022536663457174" lon="9.446812952037432"><ele>100.0</ele><time>2026-04-19T14:47:07.001Z</time></trkpt><trkpt lat="45.02231797744932" lon="9.44681038518941"><ele>100.33333333333334</ele><time>2026-04-19T14:47:08.001Z</time></trkpt><trkpt lat="45.022096544926114" lon="9.446805522777963"><ele>100.66666666666666</ele><time>2026-04-19T14:47:09.001Z</time></trkpt><trkpt lat="45.021875213280246" lon="9.446796156172033"><ele>101.0</ele><time>2026-04-19T14:47:10.001Z</time></trkpt><trkpt lat="45.021652166793785" lon="9.446791510027518"><ele>101.5</ele><time>2026-04-19T14:47:11.001Z</time></trkpt><trkpt lat="45.02142673321047" lon="9.446791692835912"><ele>102.0</ele><time>2026-04-19T14:47:12.001Z</time></trkpt><trkpt lat="45.02119935027705" lon="9.446791988904549"><ele>102.0</ele><time>2026-04-19T14:47:13.001Z</time></trkpt><trkpt lat="45.02096892508762" lon="9.446789406802877"><ele>102.0</ele><time>2026-04-19T14:47:14.001Z</time></trkpt><trkpt lat="45.02073872532244" lon="9.446781638709833"><ele>102.0</ele><time>2026-04-19T14:47:15.001Z</time></trkpt><trkpt lat="45.02051696082428" lon="9.4467754685806"><ele>102.0</ele><time>2026-04-19T14:47:16.001Z</time></trkpt><trkpt lat="45.02031354313939" lon="9.446766931904422"><ele>102.0</ele><time>2026-04-19T14:47:17.001Z</time></trkpt><trkpt lat="45.020124487201514" lon="9.446761970054638"><ele>103.33333333333334</ele><time>2026-04-19T14:47:18.001Z</time></trkpt><trkpt lat="45.01994568593667" lon="9.446755247265834"><ele>104.66666666666667</ele><time>2026-04-19T14:47:19.001Z</time></trkpt><trkpt lat="45.01978166413709" lon="9.44675282773909"><ele>106.0</ele><time>2026-04-19T14:47:20.001Z</time></trkpt><trkpt lat="45.01963702748032" lon="9.446749417712914"><ele>106.0</ele><time>2026-04-19T14:47:21.001Z</time></trkpt><trkpt lat="45.01951772426687" lon="9.446739169466023"><ele>106.0</ele><time>2026-04-19T14:47:22.001Z</time></trkpt><trkpt lat="45.01942617435972" lon="9.446686316061628"><ele>106.0</ele><time>2026-04-19T14:47:23.001Z</time></trkpt><trkpt lat="45.019343326323785" lon="9.446654678783036"><ele>106.0</ele><time>2026-04-19T14:47:24.001Z</time></trkpt><trkpt lat="45.01928583545588" lon="9.446572846447289"><ele>106.0</ele><time>2026-04-19T14:47:25.001Z</time></trkpt><trkpt lat="45.01918456379113" lon="9.446526252064762"><ele>106.5</ele><time>2026-04-19T14:47:27.001Z</time></trkpt><trkpt lat="45.01910616344392" lon="9.44648238190981"><ele>107.0</ele><time>2026-04-19T14:47:29.001Z</time></trkpt><trkpt lat="45.01895476522277" lon="9.4467274139954"><ele>107.5</ele><time>2026-04-19T14:47:30.001Z</time></trkpt><trkpt lat="45.01883359359289" lon="9.446750138686559"><ele>108.0</ele><time>2026-04-19T14:47:31.001Z</time></trkpt><trkpt lat="45.01868263158537" lon="9.446733546016441"><ele>108.0</ele><time>2026-04-19T14:47:32.001Z</time></trkpt><trkpt lat="45.018550888958714" lon="9.446705254227634"><ele>108.00000000000001</ele><time>2026-04-19T14:47:33.001Z</time></trkpt><trkpt lat="45.01846074620296" lon="9.446679191208277"><ele>108.00000000000001</ele><time>2026-04-19T14:47:34.001Z</time></trkpt><trkpt lat="45.01835399855336" lon="9.446755041530327"><ele>108.0</ele><time>2026-04-19T14:47:36.001Z</time></trkpt><trkpt lat="45.01833029942875" lon="9.44685231139715"><ele>108.0</ele><time>2026-04-19T14:47:37.001Z</time></trkpt><trkpt lat="45.01832615637504" lon="9.446942743834201"><ele>108.0</ele><time>2026-04-19T14:47:38.001Z</time></trkpt><trkpt lat="45.01832653352307" lon="9.447094516705842"><ele>108.00000000000001</ele><time>2026-04-19T14:47:40.001Z</time></trkpt><trkpt lat="45.01832626537402" lon="9.447216659095833"><ele>108.00000000000001</ele><time>2026-04-19T14:47:41.001Z</time></trkpt><trkpt lat="45.018325964040216" lon="9.447338636230945"><ele>108.0</ele><time>2026-04-19T14:47:42.001Z</time></trkpt><trkpt lat="45.01832711976717" lon="9.447474457083185"><ele>108.0</ele><time>2026-04-19T14:47:43.001Z</time></trkpt><trkpt lat="45.01832443272438" lon="9.447631789339747"><ele>107.80000000000001</ele><time>2026-04-19T14:47:44.001Z</time></trkpt><trkpt lat="45.01831923164899" lon="9.447789343040407"><ele>107.60000000000001</ele><time>2026-04-19T14:47:45.001Z</time></trkpt><trkpt lat="45.0183120367027" lon="9.447934849895594"><ele>107.39999999999999</ele><time>2026-04-19T14:47:46.001Z</time></trkpt><trkpt lat="45.018290307881635" lon="9.448072823226106"><ele>107.19999999999999</ele><time>2026-04-19T14:47:47.001Z</time></trkpt><trkpt lat="45.01822466521018" lon="9.448188165339415"><ele>107.0</ele><time>2026-04-19T14:47:48.001Z</time></trkpt><trkpt lat="45.01813884302317" lon="9.448255540554353"><ele>107.0</ele><time>2026-04-19T14:47:49.001Z</time></trkpt><trkpt lat="45.01805885417293" lon="9.448289529938224"><ele>106.99999999999999</ele><time>2026-04-19T14:47:50.001Z</time></trkpt><trkpt lat="45.01797782177667" lon="9.448295402642415"><ele>106.99999999999999</ele><time>2026-04-19T14:47:51.001Z</time></trkpt><trkpt lat="45.017877697351004" lon="9.44828983480015"><ele>107.0</ele><time>2026-04-19T14:47:52.001Z</time></trkpt><trkpt lat="45.01776145730848" lon="9.448293624120984"><ele>107.0</ele><time>2026-04-19T14:47:53.001Z</time></trkpt><trkpt lat="45.01764582968001" lon="9.448306840700807"><ele>107.0</ele><time>2026-04-19T14:47:54.001Z</time></trkpt><trkpt lat="45.01750581948511" lon="9.448321728986317"><ele>107.0</ele><time>2026-04-19T14:47:55.001Z</time></trkpt><trkpt lat="45.017353531567444" lon="9.44833059302265"><ele>107.0</ele><time>2026-04-19T14:47:56.001Z</time></trkpt><trkpt lat="45.017216670516554" lon="9.44834665195291"><ele>107.0</ele><time>2026-04-19T14:47:57.001Z</time></trkpt><trkpt lat="45.017093593215904" lon="9.448350077289104"><ele>107.5</ele><time>2026-04-19T14:47:58.001Z</time></trkpt><trkpt lat="45.01697436830199" lon="9.448361100014518"><ele>108.0</ele><time>2026-04-19T14:47:59.001Z</time></trkpt><trkpt lat="45.01685364627429" lon="9.448373878204949"><ele>108.5</ele><time>2026-04-19T14:48:00.001Z</time></trkpt><trkpt lat="45.01673124095476" lon="9.448384859889053"><ele>109.0</ele><time>2026-04-19T14:48:01.001Z</time></trkpt><trkpt lat="45.016617334340836" lon="9.448398125759635"><ele>109.16666666666667</ele><time>2026-04-19T14:48:02.001Z</time></trkpt><trkpt lat="45.01650986024561" lon="9.448414106031414"><ele>109.33333333333334</ele><time>2026-04-19T14:48:03.001Z</time></trkpt><trkpt lat="45.016420139349364" lon="9.448427840986081"><ele>109.5</ele><time>2026-04-19T14:48:04.001Z</time></trkpt><trkpt lat="45.01635526455335" lon="9.448425809075308"><ele>109.66666666666666</ele><time>2026-04-19T14:48:05.001Z</time></trkpt><trkpt lat="45.016289468689095" lon="9.448439777966676"><ele>109.83333333333333</ele><time>2026-04-19T14:48:07.001Z</time></trkpt><trkpt lat="45.0162225422077" lon="9.448516775111335"><ele>110.0</ele><time>2026-04-19T14:48:12.002Z</time></trkpt><trkpt lat="45.016245715532925" lon="9.448632194620794"><ele>110.0</ele><time>2026-04-19T14:48:13.002Z</time></trkpt><trkpt lat="45.01629406146993" lon="9.448771173594775"><ele>110.0</ele><time>2026-04-19T14:48:14.002Z</time></trkpt><trkpt lat="45.016309272753" lon="9.44892057700201"><ele>110.0</ele><time>2026-04-19T14:48:15.002Z</time></trkpt><trkpt lat="45.016309663258845" lon="9.44909820594754"><ele>110.0</ele><time>2026-04-19T14:48:16.002Z</time></trkpt><trkpt lat="45.0163046161924" lon="9.449324213680164"><ele>109.33333333333333</ele><time>2026-04-19T14:48:17.002Z</time></trkpt><trkpt lat="45.016297617108805" lon="9.449577857755486"><ele>108.66666666666666</ele><time>2026-04-19T14:48:18.002Z</time></trkpt><trkpt lat="45.016291043277256" lon="9.449832853417803"><ele>108.0</ele><time>2026-04-19T14:48:19.002Z</time></trkpt><trkpt lat="45.01628608146761" lon="9.450104865631916"><ele>108.0</ele><time>2026-04-19T14:48:20.002Z</time></trkpt><trkpt lat="45.01628230380949" lon="9.450380407509918"><ele>108.0</ele><time>2026-04-19T14:48:21.002Z</time></trkpt><trkpt lat="45.01627870073077" lon="9.450653864934086"><ele>108.0</ele><time>2026-04-19T14:48:22.002Z</time></trkpt><trkpt lat="45.01627454541844" lon="9.45094037529073"><ele>107.66666666666666</ele><time>2026-04-19T14:48:23.002Z</time></trkpt><trkpt lat="45.016269549531366" lon="9.45123530653762"><ele>107.33333333333333</ele><time>2026-04-19T14:48:24.002Z</time></trkpt><trkpt lat="45.01626443267238" lon="9.451534220408917"><ele>107.0</ele><time>2026-04-19T14:48:25.002Z</time></trkpt><trkpt lat="45.01625694103388" lon="9.45183357821614"><ele>106.33333333333333</ele><time>2026-04-19T14:48:26.002Z</time></trkpt><trkpt lat="45.0162513279967" lon="9.452130104149848"><ele>105.66666666666666</ele><time>2026-04-19T14:48:27.002Z</time></trkpt><trkpt lat="45.01624629932979" lon="9.452425838156799"><ele>105.0</ele><time>2026-04-19T14:48:28.002Z</time></trkpt><trkpt lat="45.01623879180906" lon="9.452727214353233"><ele>105.33333333333334</ele><time>2026-04-19T14:48:29.002Z</time></trkpt><trkpt lat="45.016236297577535" lon="9.453027480936097"><ele>105.66666666666667</ele><time>2026-04-19T14:48:30.002Z</time></trkpt><trkpt lat="45.01623462353088" lon="9.453322351939224"><ele>106.0</ele><time>2026-04-19T14:48:31.002Z</time></trkpt><trkpt lat="45.01622964338447" lon="9.453617466554345"><ele>106.0</ele><time>2026-04-19T14:48:32.002Z</time></trkpt><trkpt lat="45.01622253817978" lon="9.453918028956794"><ele>106.0</ele><time>2026-04-19T14:48:33.002Z</time></trkpt><trkpt lat="45.01621749951919" lon="9.454223838618264"><ele>106.0</ele><time>2026-04-19T14:48:34.002Z</time></trkpt><trkpt lat="45.0161974768784" lon="9.454535845333607"><ele>105.33333333333334</ele><time>2026-04-19T14:48:35.002Z</time></trkpt><trkpt lat="45.01619221792831" lon="9.454840287642096"><ele>104.66666666666666</ele><time>2026-04-19T14:48:36.002Z</time></trkpt><trkpt lat="45.01620347592769" lon="9.4551313405906"><ele>104.0</ele><time>2026-04-19T14:48:37.002Z</time></trkpt><trkpt lat="45.016198200876076" lon="9.455398543366895"><ele>103.66666666666666</ele><time>2026-04-19T14:48:38.002Z</time></trkpt><trkpt lat="45.016193530944456" lon="9.455668667225462"><ele>103.33333333333334</ele><time>2026-04-19T14:48:39.002Z</time></trkpt><trkpt lat="45.01619034977637" lon="9.455949184541328"><ele>103.0</ele><time>2026-04-19T14:48:40.002Z</time></trkpt><trkpt lat="45.01619191618927" lon="9.456219088926149"><ele>103.0</ele><time>2026-04-19T14:48:41.002Z</time></trkpt><trkpt lat="45.01619830644907" lon="9.456466143941604"><ele>103.0</ele><time>2026-04-19T14:48:42.002Z</time></trkpt><trkpt lat="45.01619913969177" lon="9.45669611125326"><ele>103.0</ele><time>2026-04-19T14:48:43.002Z</time></trkpt><trkpt lat="45.01620132467714" lon="9.45691332013955"><ele>103.33333333333334</ele><time>2026-04-19T14:48:44.002Z</time></trkpt><trkpt lat="45.016201704180766" lon="9.457139137712721"><ele>103.66666666666666</ele><time>2026-04-19T14:48:45.002Z</time></trkpt><trkpt lat="45.01619979634838" lon="9.457375774692947"><ele>104.0</ele><time>2026-04-19T14:48:46.002Z</time></trkpt><trkpt lat="45.016203549680974" lon="9.457632930854391"><ele>104.0</ele><time>2026-04-19T14:48:47.002Z</time></trkpt><trkpt lat="45.01620911383484" lon="9.45791634152905"><ele>104.0</ele><time>2026-04-19T14:48:48.002Z</time></trkpt><trkpt lat="45.016195175981665" lon="9.458223338640291"><ele>104.0</ele><time>2026-04-19T14:48:49.002Z</time></trkpt><trkpt lat="45.01619638092699" lon="9.458547211833894"><ele>105.0</ele><time>2026-04-19T14:48:50.002Z</time></trkpt><trkpt lat="45.01619726040496" lon="9.458875025669917"><ele>106.0</ele><time>2026-04-19T14:48:51.002Z</time></trkpt><trkpt lat="45.01619811703101" lon="9.459194324684992"><ele>106.0</ele><time>2026-04-19T14:48:52.002Z</time></trkpt><trkpt lat="45.01621297613438" lon="9.459505969408214"><ele>106.0</ele><time>2026-04-19T14:48:53.002Z</time></trkpt><trkpt lat="45.016212387800586" lon="9.459809374776668"><ele>106.0</ele><time>2026-04-19T14:48:54.002Z</time></trkpt><trkpt lat="45.01621258872838" lon="9.460110070722733"><ele>105.66666666666667</ele><time>2026-04-19T14:48:55.002Z</time></trkpt><trkpt lat="45.016214880498644" lon="9.460415860995422"><ele>105.33333333333334</ele><time>2026-04-19T14:48:56.002Z</time></trkpt><trkpt lat="45.016217826836936" lon="9.460726956631811"><ele>105.0</ele><time>2026-04-19T14:48:57.002Z</time></trkpt><trkpt lat="45.01622002844681" lon="9.461036030232636"><ele>105.0</ele><time>2026-04-19T14:48:58.002Z</time></trkpt><trkpt lat="45.016222613817376" lon="9.46134714054393"><ele>105.0</ele><time>2026-04-19T14:48:59.002Z</time></trkpt><trkpt lat="45.016208263275566" lon="9.46165646169753"><ele>105.0</ele><time>2026-04-19T14:49:00.002Z</time></trkpt><trkpt lat="45.016209757729264" lon="9.461965029226894"><ele>105.33333333333334</ele><time>2026-04-19T14:49:01.002Z</time></trkpt><trkpt lat="45.016227616741794" lon="9.462270371216459"><ele>105.66666666666667</ele><time>2026-04-19T14:49:02.002Z</time></trkpt><trkpt lat="45.016229192308096" lon="9.462576692048975"><ele>106.0</ele><time>2026-04-19T14:49:03.002Z</time></trkpt><trkpt lat="45.01623117849123" lon="9.462885329594513"><ele>105.66666666666667</ele><time>2026-04-19T14:49:04.002Z</time></trkpt><trkpt lat="45.01623524177356" lon="9.463199407147442"><ele>105.33333333333334</ele><time>2026-04-19T14:49:05.002Z</time></trkpt><trkpt lat="45.01622174090447" lon="9.463516119068167"><ele>105.0</ele><time>2026-04-19T14:49:06.002Z</time></trkpt><trkpt lat="45.016224418445795" lon="9.463838751888902"><ele>105.0</ele><time>2026-04-19T14:49:07.001Z</time></trkpt><trkpt lat="45.01622747147293" lon="9.464206629414118"><ele>105.0</ele><time>2026-04-19T14:49:08.001Z</time></trkpt><trkpt lat="45.01623065566277" lon="9.46459031122654"><ele>104.5</ele><time>2026-04-19T14:49:09.001Z</time></trkpt><trkpt lat="45.016234575473746" lon="9.46498975383981"><ele>104.0</ele><time>2026-04-19T14:49:10.001Z</time></trkpt><trkpt lat="45.01623911087539" lon="9.465405115299147"><ele>103.5</ele><time>2026-04-19T14:49:11.001Z</time></trkpt><trkpt lat="45.01624376919569" lon="9.465831733878378"><ele>103.0</ele><time>2026-04-19T14:49:12.001Z</time></trkpt><trkpt lat="45.01624860645037" lon="9.466274739740065"><ele>103.5</ele><time>2026-04-19T14:49:13.001Z</time></trkpt><trkpt lat="45.01626536198388" lon="9.46672953550886"><ele>104.0</ele><time>2026-04-19T14:49:14.001Z</time></trkpt><trkpt lat="45.01626252149024" lon="9.467171414713205"><ele>103.0</ele><time>2026-04-19T14:49:15.001Z</time></trkpt><trkpt lat="45.01626357776552" lon="9.467650842702021"><ele>102.0</ele><time>2026-04-19T14:49:16.001Z</time></trkpt><trkpt lat="45.01626482158831" lon="9.468111412864436"><ele>102.0</ele><time>2026-04-19T14:49:17.001Z</time></trkpt><trkpt lat="45.016266140742935" lon="9.468544727301886"><ele>102.0</ele><time>2026-04-19T14:49:18.001Z</time></trkpt><trkpt lat="45.01626676071108" lon="9.468961585001644"><ele>101.0</ele><time>2026-04-19T14:49:19.001Z</time></trkpt><trkpt lat="45.016246931092375" lon="9.469369171287305"><ele>100.0</ele><time>2026-04-19T14:49:20.001Z</time></trkpt><trkpt lat="45.01624335256321" lon="9.469762081841338"><ele>99.5</ele><time>2026-04-19T14:49:21.001Z</time></trkpt><trkpt lat="45.01624200847993" lon="9.470129022540927"><ele>99.0</ele><time>2026-04-19T14:49:22.001Z</time></trkpt><trkpt lat="45.01627929477588" lon="9.470501966254567"><ele>98.0</ele><time>2026-04-19T14:49:23.001Z</time></trkpt><trkpt lat="45.01626728492378" lon="9.470889185129952"><ele>97.0</ele><time>2026-04-19T14:49:24.001Z</time></trkpt><trkpt lat="45.016251485977996" lon="9.471291938283244"><ele>97.0</ele><time>2026-04-19T14:49:25.001Z</time></trkpt><trkpt lat="45.01623754500259" lon="9.471709432820218"><ele>97.0</ele><time>2026-04-19T14:49:26.001Z</time></trkpt><trkpt lat="45.01622890414143" lon="9.472147457025963"><ele>96.5</ele><time>2026-04-19T14:49:27.001Z</time></trkpt><trkpt lat="45.016226036379656" lon="9.47260128747387"><ele>96.0</ele><time>2026-04-19T14:49:28.001Z</time></trkpt><trkpt lat="45.01623330023883" lon="9.473072675463033"><ele>96.0</ele><time>2026-04-19T14:49:29.001Z</time></trkpt><trkpt lat="45.01624703095664" lon="9.473557294050767"><ele>96.0</ele><time>2026-04-19T14:49:30.001Z</time></trkpt><trkpt lat="45.01626678046805" lon="9.474054542654548"><ele>96.0</ele><time>2026-04-19T14:49:31.001Z</time></trkpt><trkpt lat="45.01628686065818" lon="9.474540419391861"><ele>96.0</ele><time>2026-04-19T14:49:32.001Z</time></trkpt><trkpt lat="45.016301749371195" lon="9.475000748211054"><ele>95.5</ele><time>2026-04-19T14:49:33.001Z</time></trkpt><trkpt lat="45.016311402482835" lon="9.475443206882467"><ele>95.0</ele><time>2026-04-19T14:49:34.001Z</time></trkpt><trkpt lat="45.0163213038546" lon="9.475886492360592"><ele>95.5</ele><time>2026-04-19T14:49:35.001Z</time></trkpt><trkpt lat="45.01633195169581" lon="9.47633325114324"><ele>96.0</ele><time>2026-04-19T14:49:36.001Z</time></trkpt><trkpt lat="45.016339993451666" lon="9.476772032228487"><ele>97.5</ele><time>2026-04-19T14:49:37.001Z</time></trkpt><trkpt lat="45.01633845374463" lon="9.477196929156708"><ele>99.0</ele><time>2026-04-19T14:49:38.001Z</time></trkpt><trkpt lat="45.01632101403735" lon="9.477613230318493"><ele>98.0</ele><time>2026-04-19T14:49:39.001Z</time></trkpt><trkpt lat="45.01629566453033" lon="9.478022704371156"><ele>97.0</ele><time>2026-04-19T14:49:40.001Z</time></trkpt><trkpt lat="45.01627575508627" lon="9.478430502393085"><ele>96.0</ele><time>2026-04-19T14:49:41.001Z</time></trkpt><trkpt lat="45.01625692039467" lon="9.478838059953421"><ele>95.0</ele><time>2026-04-19T14:49:42.001Z</time></trkpt><trkpt lat="45.01623668402208" lon="9.479248849595246"><ele>95.0</ele><time>2026-04-19T14:49:43.001Z</time></trkpt><trkpt lat="45.01621641250321" lon="9.479654790702176"><ele>95.0</ele><time>2026-04-19T14:49:44.001Z</time></trkpt><trkpt lat="45.01619984535789" lon="9.480053918506078"><ele>95.5</ele><time>2026-04-19T14:49:45.001Z</time></trkpt><trkpt lat="45.01618418465192" lon="9.48045193691188"><ele>96.0</ele><time>2026-04-19T14:49:46.001Z</time></trkpt><trkpt lat="45.01617095994533" lon="9.48084800179683"><ele>96.0</ele><time>2026-04-19T14:49:47.001Z</time></trkpt><trkpt lat="45.016163672735786" lon="9.481239500668286"><ele>96.0</ele><time>2026-04-19T14:49:48.001Z</time></trkpt><trkpt lat="45.01616029861699" lon="9.481629919707617"><ele>95.0</ele><time>2026-04-19T14:49:49.001Z</time></trkpt><trkpt lat="45.016160169240756" lon="9.482021175842533"><ele>94.0</ele><time>2026-04-19T14:49:50.001Z</time></trkpt><trkpt lat="45.01616533478546" lon="9.482414351435656"><ele>94.0</ele><time>2026-04-19T14:49:51.001Z</time></trkpt><trkpt lat="45.016171111509934" lon="9.482814268628516"><ele>94.0</ele><time>2026-04-19T14:49:52.001Z</time></trkpt><trkpt lat="45.016170775923285" lon="9.483223051613377"><ele>94.5</ele><time>2026-04-19T14:49:53.001Z</time></trkpt><trkpt lat="45.01617292767714" lon="9.483643918887138"><ele>95.0</ele><time>2026-04-19T14:49:54.001Z</time></trkpt><trkpt lat="45.016180732745795" lon="9.484077416432012"><ele>95.0</ele><time>2026-04-19T14:49:55.001Z</time></trkpt><trkpt lat="45.01618773989493" lon="9.484518412003688"><ele>95.0</ele><time>2026-04-19T14:49:56.001Z</time></trkpt><trkpt lat="45.01619048623992" lon="9.484955493921257"><ele>95.0</ele><time>2026-04-19T14:49:57.001Z</time></trkpt><trkpt lat="45.01618570064524" lon="9.485383886847217"><ele>95.0</ele><time>2026-04-19T14:49:58.001Z</time></trkpt><trkpt lat="45.016177870517865" lon="9.485802973615467"><ele>95.0</ele><time>2026-04-19T14:49:59.001Z</time></trkpt><trkpt lat="45.0161711868105" lon="9.486224803190693"><ele>95.0</ele><time>2026-04-19T14:50:00.001Z</time></trkpt><trkpt lat="45.016168583399846" lon="9.486653241415588"><ele>95.0</ele><time>2026-04-19T14:50:01.001Z</time></trkpt><trkpt lat="45.01616679738478" lon="9.487090895372086"><ele>95.0</ele><time>2026-04-19T14:50:02.001Z</time></trkpt><trkpt lat="45.01616620012929" lon="9.487540742930326"><ele>94.5</ele><time>2026-04-19T14:50:03.001Z</time></trkpt><trkpt lat="45.0161692173975" lon="9.488009729395536"><ele>94.0</ele><time>2026-04-19T14:50:04.001Z</time></trkpt><trkpt lat="45.01617231181923" lon="9.488486281706566"><ele>93.5</ele><time>2026-04-19T14:50:05.001Z</time></trkpt><trkpt lat="45.01617338043245" lon="9.488954584981167"><ele>93.0</ele><time>2026-04-19T14:50:06.001Z</time></trkpt><trkpt lat="45.01617405995495" lon="9.489414660958229"><ele>93.0</ele><time>2026-04-19T14:50:07.001Z</time></trkpt><trkpt lat="45.01617341637239" lon="9.489855486224554"><ele>93.0</ele><time>2026-04-19T14:50:08.001Z</time></trkpt><trkpt lat="45.01617539423298" lon="9.490286912223171"><ele>93.0</ele><time>2026-04-19T14:50:09.001Z</time></trkpt><trkpt lat="45.01617946720689" lon="9.490710608092337"><ele>93.0</ele><time>2026-04-19T14:50:10.001Z</time></trkpt><trkpt lat="45.01618545614898" lon="9.491128943281701"><ele>92.0</ele><time>2026-04-19T14:50:11.001Z</time></trkpt><trkpt lat="45.01620230564096" lon="9.491541393714225"><ele>91.0</ele><time>2026-04-19T14:50:12.001Z</time></trkpt><trkpt lat="45.01624001170496" lon="9.491944907748058"><ele>91.5</ele><time>2026-04-19T14:50:13.001Z</time></trkpt><trkpt lat="45.0162986691137" lon="9.492342850803773"><ele>92.0</ele><time>2026-04-19T14:50:14.001Z</time></trkpt><trkpt lat="45.016365440442286" lon="9.492737878858065"><ele>92.5</ele><time>2026-04-19T14:50:15.001Z</time></trkpt><trkpt lat="45.016432742948176" lon="9.49313240028555"><ele>93.0</ele><time>2026-04-19T14:50:16.001Z</time></trkpt><trkpt lat="45.01650319611123" lon="9.493522086299881"><ele>93.0</ele><time>2026-04-19T14:50:17.001Z</time></trkpt><trkpt lat="45.0165749871588" lon="9.493909435565243"><ele>93.0</ele><time>2026-04-19T14:50:18.001Z</time></trkpt><trkpt lat="45.01664707988035" lon="9.494296158975866"><ele>92.0</ele><time>2026-04-19T14:50:19.001Z</time></trkpt><trkpt lat="45.01671576753388" lon="9.494682723210966"><ele>91.0</ele><time>2026-04-19T14:50:20.001Z</time></trkpt><trkpt lat="45.01678305877881" lon="9.49506718940785"><ele>91.0</ele><time>2026-04-19T14:50:21.001Z</time></trkpt><trkpt lat="45.01685052688133" lon="9.495450961522085"><ele>91.0</ele><time>2026-04-19T14:50:22.001Z</time></trkpt><trkpt lat="45.01691727776667" lon="9.495832686295941"><ele>91.0</ele><time>2026-04-19T14:50:23.001Z</time></trkpt><trkpt lat="45.01698580400043" lon="9.496215005639394"><ele>91.0</ele><time>2026-04-19T14:50:24.001Z</time></trkpt><trkpt lat="45.01705385635035" lon="9.496596096036054"><ele>91.0</ele><time>2026-04-19T14:50:25.002Z</time></trkpt><trkpt lat="45.01712126953119" lon="9.49697645878676"><ele>91.0</ele><time>2026-04-19T14:50:26.002Z</time></trkpt><trkpt lat="45.01719071226438" lon="9.497355653842876"><ele>91.0</ele><time>2026-04-19T14:50:27.002Z</time></trkpt><trkpt lat="45.017259824095" lon="9.497735047144381"><ele>91.0</ele><time>2026-04-19T14:50:28.002Z</time></trkpt><trkpt lat="45.01732778939502" lon="9.498113580229534"><ele>91.0</ele><time>2026-04-19T14:50:29.002Z</time></trkpt><trkpt lat="45.017394889982135" lon="9.498493069148559"><ele>91.0</ele><time>2026-04-19T14:50:30.002Z</time></trkpt><trkpt lat="45.01746215152858" lon="9.498871440836098"><ele>91.0</ele><time>2026-04-19T14:50:31.002Z</time></trkpt><trkpt lat="45.017530786884656" lon="9.499248437062707"><ele>91.0</ele><time>2026-04-19T14:50:32.002Z</time></trkpt><trkpt lat="45.01759993309181" lon="9.499624965040516"><ele>91.5</ele><time>2026-04-19T14:50:33.002Z</time></trkpt><trkpt lat="45.017669094634826" lon="9.500002583808467"><ele>92.0</ele><time>2026-04-19T14:50:34.002Z</time></trkpt><trkpt lat="45.01773575917409" lon="9.500378296063152"><ele>92.0</ele><time>2026-04-19T14:50:35.002Z</time></trkpt><trkpt lat="45.01780259101629" lon="9.500755380033274"><ele>92.0</ele><time>2026-04-19T14:50:36.002Z</time></trkpt><trkpt lat="45.017869723470554" lon="9.501131223394657"><ele>91.0</ele><time>2026-04-19T14:50:37.002Z</time></trkpt><trkpt lat="45.01793551691793" lon="9.501505045668992"><ele>90.0</ele><time>2026-04-19T14:50:38.002Z</time></trkpt><trkpt lat="45.01800104342959" lon="9.501877486316033"><ele>89.5</ele><time>2026-04-19T14:50:39.002Z</time></trkpt><trkpt lat="45.0180689581818" lon="9.502249675111198"><ele>89.0</ele><time>2026-04-19T14:50:40.002Z</time></trkpt><trkpt lat="45.018137013158565" lon="9.502621201395604"><ele>88.5</ele><time>2026-04-19T14:50:41.002Z</time></trkpt><trkpt lat="45.0182030763394" lon="9.502994585082725"><ele>88.0</ele><time>2026-04-19T14:50:42.002Z</time></trkpt><trkpt lat="45.01826750066651" lon="9.503365735508183"><ele>88.0</ele><time>2026-04-19T14:50:43.002Z</time></trkpt><trkpt lat="45.01832966478643" lon="9.503736194387066"><ele>88.0</ele><time>2026-04-19T14:50:44.002Z</time></trkpt><trkpt lat="45.01839071034607" lon="9.504107263150107"><ele>87.5</ele><time>2026-04-19T14:50:45.002Z</time></trkpt><trkpt lat="45.01844607376318" lon="9.504483033276511"><ele>87.0</ele><time>2026-04-19T14:50:46.002Z</time></trkpt><trkpt lat="45.01849112770525" lon="9.504861503890691"><ele>87.0</ele><time>2026-04-19T14:50:47.002Z</time></trkpt><trkpt lat="45.01852241219672" lon="9.505240111212476"><ele>87.0</ele><time>2026-04-19T14:50:48.002Z</time></trkpt><trkpt lat="45.018542572179406" lon="9.505617598283333"><ele>87.0</ele><time>2026-04-19T14:50:49.002Z</time></trkpt><trkpt lat="45.01855391259108" lon="9.505994669985027"><ele>87.0</ele><time>2026-04-19T14:50:50.002Z</time></trkpt><trkpt lat="45.018562520795875" lon="9.506366917562431"><ele>86.5</ele><time>2026-04-19T14:50:51.002Z</time></trkpt><trkpt lat="45.0185711473386" lon="9.506730495729107"><ele>86.0</ele><time>2026-04-19T14:50:52.002Z</time></trkpt><trkpt lat="45.01858598385681" lon="9.507105957329353"><ele>86.0</ele><time>2026-04-19T14:50:53.002Z</time></trkpt><trkpt lat="45.01858207088178" lon="9.507478578014878"><ele>86.0</ele><time>2026-04-19T14:50:54.002Z</time></trkpt><trkpt lat="45.01859204463507" lon="9.507845249874192"><ele>86.0</ele><time>2026-04-19T14:50:55.002Z</time></trkpt><trkpt lat="45.01860229220253" lon="9.508221988205108"><ele>86.0</ele><time>2026-04-19T14:50:56.002Z</time></trkpt><trkpt lat="45.018612385225275" lon="9.508593044985561"><ele>86.0</ele><time>2026-04-19T14:50:57.002Z</time></trkpt><trkpt lat="45.01863245914623" lon="9.508937642034422"><ele>86.0</ele><time>2026-04-19T14:50:58.002Z</time></trkpt><trkpt lat="45.018639671784214" lon="9.509262247653284"><ele>86.0</ele><time>2026-04-19T14:50:59.002Z</time></trkpt><trkpt lat="45.01865306899824" lon="9.50955307219253"><ele>86.0</ele><time>2026-04-19T14:51:00.002Z</time></trkpt><trkpt lat="45.01864566724342" lon="9.509816615143261"><ele>86.0</ele><time>2026-04-19T14:51:01.002Z</time></trkpt><trkpt lat="45.01865201656344" lon="9.510050038176786"><ele>85.66666666666667</ele><time>2026-04-19T14:51:02.002Z</time></trkpt><trkpt lat="45.01865844725242" lon="9.510286454892526"><ele>85.33333333333333</ele><time>2026-04-19T14:51:03.002Z</time></trkpt><trkpt lat="45.01866589077752" lon="9.510560106287468"><ele>85.0</ele><time>2026-04-19T14:51:04.002Z</time></trkpt><trkpt lat="45.018674049874996" lon="9.510860064950053"><ele>84.66666666666666</ele><time>2026-04-19T14:51:05.002Z</time></trkpt><trkpt lat="45.01868270302842" lon="9.511178186521787"><ele>84.33333333333333</ele><time>2026-04-19T14:51:06.002Z</time></trkpt><trkpt lat="45.01869106581713" lon="9.511485633652486"><ele>84.0</ele><time>2026-04-19T14:51:07.002Z</time></trkpt><trkpt lat="45.01869870963299" lon="9.511766648592197"><ele>84.0</ele><time>2026-04-19T14:51:08.002Z</time></trkpt><trkpt lat="45.01869966254086" lon="9.512044038066907"><ele>84.0</ele><time>2026-04-19T14:51:09.002Z</time></trkpt><trkpt lat="45.01868891980248" lon="9.512334738724103"><ele>84.0</ele><time>2026-04-19T14:51:10.001Z</time></trkpt><trkpt lat="45.018680747759696" lon="9.512649524198391"><ele>83.5</ele><time>2026-04-19T14:51:11.001Z</time></trkpt><trkpt lat="45.0186300445086" lon="9.512978681744453"><ele>83.0</ele><time>2026-04-19T14:51:12.001Z</time></trkpt><trkpt lat="45.01856559661667" lon="9.513315502885138"><ele>83.0</ele><time>2026-04-19T14:51:13.001Z</time></trkpt><trkpt lat="45.01848679000451" lon="9.513656853646378"><ele>83.0</ele><time>2026-04-19T14:51:14.001Z</time></trkpt><trkpt lat="45.018386948112116" lon="9.513983516452758"><ele>84.0</ele><time>2026-04-19T14:51:15.001Z</time></trkpt><trkpt lat="45.018268300416906" lon="9.51429640030019"><ele>85.0</ele><time>2026-04-19T14:51:16.001Z</time></trkpt><trkpt lat="45.01815785396385" lon="9.514611355543108"><ele>85.0</ele><time>2026-04-19T14:51:17.001Z</time></trkpt><trkpt lat="45.01805291190555" lon="9.514929424985105"><ele>85.0</ele><time>2026-04-19T14:51:18.001Z</time></trkpt><trkpt lat="45.01794413456165" lon="9.515245076054288"><ele>84.5</ele><time>2026-04-19T14:51:19.001Z</time></trkpt><trkpt lat="45.01766340845902" lon="9.515442158688456"><ele>84.0</ele><time>2026-04-19T14:51:20.001Z</time></trkpt><trkpt lat="45.017588207504225" lon="9.515787133487153"><ele>84.5</ele><time>2026-04-19T14:51:21.001Z</time></trkpt><trkpt lat="45.017430561795905" lon="9.516068335966642"><ele>85.0</ele><time>2026-04-19T14:51:22.001Z</time></trkpt><trkpt lat="45.01727308612343" lon="9.516354433212655"><ele>85.5</ele><time>2026-04-19T14:51:23.001Z</time></trkpt><trkpt lat="45.01712860006083" lon="9.516629641660401"><ele>86.0</ele><time>2026-04-19T14:51:24.001Z</time></trkpt><trkpt lat="45.01699761989035" lon="9.516884564624574"><ele>85.66666666666667</ele><time>2026-04-19T14:51:25.001Z</time></trkpt><trkpt lat="45.01687124309988" lon="9.5171163835948"><ele>85.33333333333333</ele><time>2026-04-19T14:51:26.001Z</time></trkpt><trkpt lat="45.01675209796043" lon="9.517329142140028"><ele>85.0</ele><time>2026-04-19T14:51:27.001Z</time></trkpt><trkpt lat="45.01664355175076" lon="9.517530161847251"><ele>85.0</ele><time>2026-04-19T14:51:28.001Z</time></trkpt><trkpt lat="45.01653028468607" lon="9.517724835512336"><ele>85.0</ele><time>2026-04-19T14:51:29.001Z</time></trkpt><trkpt lat="45.016412182684" lon="9.517938077455106"><ele>85.0</ele><time>2026-04-19T14:51:30.001Z</time></trkpt><trkpt lat="45.01628944699789" lon="9.518166275757148"><ele>84.0</ele><time>2026-04-19T14:51:31.001Z</time></trkpt><trkpt lat="45.016164801958965" lon="9.518402799735185"><ele>83.0</ele><time>2026-04-19T14:51:32.001Z</time></trkpt><trkpt lat="45.016036873698575" lon="9.518648044475711"><ele>82.0</ele><time>2026-04-19T14:51:33.001Z</time></trkpt><trkpt lat="45.015899413474656" lon="9.518908602113942"><ele>82.0</ele><time>2026-04-19T14:51:34.001Z</time></trkpt><trkpt lat="45.01575399015563" lon="9.519173525669526"><ele>82.0</ele><time>2026-04-19T14:51:35.001Z</time></trkpt><trkpt lat="45.015606817567694" lon="9.51943995106242"><ele>83.0</ele><time>2026-04-19T14:51:36.001Z</time></trkpt><trkpt lat="45.01546327621781" lon="9.51970389675173"><ele>84.0</ele><time>2026-04-19T14:51:37.001Z</time></trkpt><trkpt lat="45.01532182197867" lon="9.519969847099656"><ele>84.0</ele><time>2026-04-19T14:51:38.001Z</time></trkpt><trkpt lat="45.015187649008645" lon="9.520219776745945"><ele>84.0</ele><time>2026-04-19T14:51:39.001Z</time></trkpt><trkpt lat="45.01507149334537" lon="9.520441480798619"><ele>84.0</ele><time>2026-04-19T14:51:40.001Z</time></trkpt><trkpt lat="45.01497031618704" lon="9.520646954982883"><ele>83.33333333333333</ele><time>2026-04-19T14:51:41.001Z</time></trkpt><trkpt lat="45.01489792778669" lon="9.520840870912046"><ele>82.66666666666666</ele><time>2026-04-19T14:51:42.001Z</time></trkpt><trkpt lat="45.01488490654617" lon="9.52103048987284"><ele>82.0</ele><time>2026-04-19T14:51:43.001Z</time></trkpt><trkpt lat="45.01487521508774" lon="9.521267125913896"><ele>82.0</ele><time>2026-04-19T14:51:44.001Z</time></trkpt><trkpt lat="45.01491004107377" lon="9.52150899326745"><ele>82.0</ele><time>2026-04-19T14:51:45.001Z</time></trkpt><trkpt lat="45.01496088203381" lon="9.521747617736896"><ele>82.0</ele><time>2026-04-19T14:51:46.001Z</time></trkpt><trkpt lat="45.01503801312932" lon="9.521989900162861"><ele>82.33333333333333</ele><time>2026-04-19T14:51:47.001Z</time></trkpt><trkpt lat="45.01514442810098" lon="9.522235290620683"><ele>82.66666666666667</ele><time>2026-04-19T14:51:48.001Z</time></trkpt><trkpt lat="45.01525618746313" lon="9.522490471312846"><ele>83.0</ele><time>2026-04-19T14:51:49.001Z</time></trkpt><trkpt lat="45.01536732595885" lon="9.522761494554556"><ele>82.0</ele><time>2026-04-19T14:51:50.001Z</time></trkpt><trkpt lat="45.015472392650985" lon="9.523050487355167"><ele>81.0</ele><time>2026-04-19T14:51:51.001Z</time></trkpt><trkpt lat="45.015583574435" lon="9.523349516635012"><ele>81.0</ele><time>2026-04-19T14:51:52.001Z</time></trkpt><trkpt lat="45.01569922883552" lon="9.52365200878966"><ele>81.0</ele><time>2026-04-19T14:51:53.001Z</time></trkpt><trkpt lat="45.01581614697549" lon="9.523955934909878"><ele>81.0</ele><time>2026-04-19T14:51:54.001Z</time></trkpt><trkpt lat="45.01593662789761" lon="9.52426501750721"><ele>81.0</ele><time>2026-04-19T14:51:55.001Z</time></trkpt><trkpt lat="45.016059540667385" lon="9.52457683032169"><ele>81.0</ele><time>2026-04-19T14:51:56.001Z</time></trkpt><trkpt lat="45.01618328234199" lon="9.524885788363587"><ele>81.0</ele><time>2026-04-19T14:51:57.001Z</time></trkpt><trkpt lat="45.016302079813315" lon="9.525199061484548"><ele>80.5</ele><time>2026-04-19T14:51:58.001Z</time></trkpt><trkpt lat="45.016423866332815" lon="9.525518409401188"><ele>80.0</ele><time>2026-04-19T14:51:59.001Z</time></trkpt><trkpt lat="45.01654412953083" lon="9.525839035244903"><ele>80.0</ele><time>2026-04-19T14:52:00.001Z</time></trkpt><trkpt lat="45.016665216947665" lon="9.526151898201437"><ele>80.0</ele><time>2026-04-19T14:52:01.001Z</time></trkpt><trkpt lat="45.016782905620225" lon="9.526449284947999"><ele>80.5</ele><time>2026-04-19T14:52:02.001Z</time></trkpt><trkpt lat="45.01689342525229" lon="9.526737323747389"><ele>81.0</ele><time>2026-04-19T14:52:03.001Z</time></trkpt><trkpt lat="45.016972848397536" lon="9.52703218255703"><ele>81.0</ele><time>2026-04-19T14:52:04.001Z</time></trkpt><trkpt lat="45.0169924845848" lon="9.527317277867944"><ele>81.0</ele><time>2026-04-19T14:52:05.001Z</time></trkpt><trkpt lat="45.01701517054923" lon="9.527570107252695"><ele>81.0</ele><time>2026-04-19T14:52:06.001Z</time></trkpt><trkpt lat="45.01702038692918" lon="9.527862467491024"><ele>80.5</ele><time>2026-04-19T14:52:07.001Z</time></trkpt><trkpt lat="45.01696512048813" lon="9.528276160830178"><ele>80.0</ele><time>2026-04-19T14:52:08.001Z</time></trkpt><trkpt lat="45.01693503776792" lon="9.528611599840133"><ele>80.5</ele><time>2026-04-19T14:52:09.001Z</time></trkpt><trkpt lat="45.01691219806869" lon="9.5289486004818"><ele>81.0</ele><time>2026-04-19T14:52:10.001Z</time></trkpt><trkpt lat="45.01689194049499" lon="9.529288482393037"><ele>81.0</ele><time>2026-04-19T14:52:11.001Z</time></trkpt><trkpt lat="45.01687282850474" lon="9.529621089241655"><ele>81.0</ele><time>2026-04-19T14:52:12.001Z</time></trkpt><trkpt lat="45.0168553649048" lon="9.529934557018095"><ele>81.0</ele><time>2026-04-19T14:52:13.001Z</time></trkpt><trkpt lat="45.01683796950556" lon="9.530230371997005"><ele>81.0</ele><time>2026-04-19T14:52:14.001Z</time></trkpt><trkpt lat="45.0168218495266" lon="9.53051423667961"><ele>81.0</ele><time>2026-04-19T14:52:15.001Z</time></trkpt><trkpt lat="45.01680405685183" lon="9.530798902617375"><ele>81.33333333333333</ele><time>2026-04-19T14:52:16.001Z</time></trkpt><trkpt lat="45.016788942743865" lon="9.531080265822839"><ele>81.66666666666666</ele><time>2026-04-19T14:52:17.001Z</time></trkpt><trkpt lat="45.01677737375851" lon="9.531345351200608"><ele>82.0</ele><time>2026-04-19T14:52:18.001Z</time></trkpt><trkpt lat="45.01676506570659" lon="9.531591296373152"><ele>82.66666666666666</ele><time>2026-04-19T14:52:19.001Z</time></trkpt><trkpt lat="45.01674808691087" lon="9.531818661187893"><ele>83.33333333333333</ele><time>2026-04-19T14:52:20.001Z</time></trkpt><trkpt lat="45.01673062367728" lon="9.532041317879301"><ele>84.0</ele><time>2026-04-19T14:52:21.001Z</time></trkpt><trkpt lat="45.01669976825002" lon="9.532267169709845"><ele>83.0</ele><time>2026-04-19T14:52:22.001Z</time></trkpt><trkpt lat="45.01666050957286" lon="9.532501958609354"><ele>82.0</ele><time>2026-04-19T14:52:23.001Z</time></trkpt><trkpt lat="45.01662126527992" lon="9.532729955122983"><ele>81.0</ele><time>2026-04-19T14:52:24.001Z</time></trkpt><trkpt lat="45.016581890324645" lon="9.532945649829843"><ele>81.0</ele><time>2026-04-19T14:52:25.001Z</time></trkpt><trkpt lat="45.01654745541971" lon="9.533158677737315"><ele>81.0</ele><time>2026-04-19T14:52:26.001Z</time></trkpt><trkpt lat="45.01651921311186" lon="9.533373991435342"><ele>81.0</ele><time>2026-04-19T14:52:27.001Z</time></trkpt><trkpt lat="45.016504166261264" lon="9.533586756228402"><ele>81.25</ele><time>2026-04-19T14:52:28.001Z</time></trkpt><trkpt lat="45.01649509201723" lon="9.533798049783533"><ele>81.5</ele><time>2026-04-19T14:52:29.001Z</time></trkpt><trkpt lat="45.01650233934851" lon="9.534011883831273"><ele>81.75</ele><time>2026-04-19T14:52:30.001Z</time></trkpt><trkpt lat="45.016518286490594" lon="9.534220656335021"><ele>82.0</ele><time>2026-04-19T14:52:31.001Z</time></trkpt><trkpt lat="45.01654070418463" lon="9.534428609769309"><ele>80.66666666666666</ele><time>2026-04-19T14:52:32.001Z</time></trkpt><trkpt lat="45.016566294497274" lon="9.534639445754342"><ele>79.33333333333333</ele><time>2026-04-19T14:52:33.001Z</time></trkpt><trkpt lat="45.01658299461833" lon="9.534857788916353"><ele>78.0</ele><time>2026-04-19T14:52:34.001Z</time></trkpt><trkpt lat="45.01660565023582" lon="9.535082441153088"><ele>78.0</ele><time>2026-04-19T14:52:35.001Z</time></trkpt><trkpt lat="45.01663367875139" lon="9.535306932440507"><ele>78.0</ele><time>2026-04-19T14:52:36.001Z</time></trkpt><trkpt lat="45.0166607843973" lon="9.535542780775396"><ele>78.0</ele><time>2026-04-19T14:52:37.001Z</time></trkpt><trkpt lat="45.01666712397517" lon="9.535776358627327"><ele>78.0</ele><time>2026-04-19T14:52:38.001Z</time></trkpt><trkpt lat="45.01670390956018" lon="9.536008868308416"><ele>78.0</ele><time>2026-04-19T14:52:39.001Z</time></trkpt><trkpt lat="45.01672335859384" lon="9.53624372194394"><ele>78.0</ele><time>2026-04-19T14:52:40.001Z</time></trkpt><trkpt lat="45.01674535020164" lon="9.536474833889027"><ele>77.66666666666667</ele><time>2026-04-19T14:52:41.001Z</time></trkpt><trkpt lat="45.01676873257546" lon="9.536702211751154"><ele>77.33333333333334</ele><time>2026-04-19T14:52:42.001Z</time></trkpt><trkpt lat="45.016791980297356" lon="9.53692997421341"><ele>77.0</ele><time>2026-04-19T14:52:43.001Z</time></trkpt><trkpt lat="45.01681680002772" lon="9.537158558468748"><ele>76.66666666666667</ele><time>2026-04-19T14:52:44.001Z</time></trkpt><trkpt lat="45.01684249641999" lon="9.537385999859474"><ele>76.33333333333333</ele><time>2026-04-19T14:52:45.001Z</time></trkpt><trkpt lat="45.01686426149861" lon="9.537619942033825"><ele>76.0</ele><time>2026-04-19T14:52:46.001Z</time></trkpt><trkpt lat="45.016887281974334" lon="9.537845022448439"><ele>76.0</ele><time>2026-04-19T14:52:47.001Z</time></trkpt><trkpt lat="45.01690987854834" lon="9.538074278882842"><ele>76.0</ele><time>2026-04-19T14:52:48.001Z</time></trkpt><trkpt lat="45.016932922577084" lon="9.538309898872763"><ele>76.0</ele><time>2026-04-19T14:52:49.001Z</time></trkpt><trkpt lat="45.01695483309697" lon="9.538554069803528"><ele>76.66666666666666</ele><time>2026-04-19T14:52:50.001Z</time></trkpt><trkpt lat="45.016981288921464" lon="9.538801873603152"><ele>77.33333333333333</ele><time>2026-04-19T14:52:51.001Z</time></trkpt><trkpt lat="45.01699167195435" lon="9.539073750697897"><ele>78.0</ele><time>2026-04-19T14:52:52.001Z</time></trkpt><trkpt lat="45.01702067562233" lon="9.539366476039369"><ele>77.5</ele><time>2026-04-19T14:52:53.001Z</time></trkpt><trkpt lat="45.01705455586508" lon="9.539716159337344"><ele>77.0</ele><time>2026-04-19T14:52:54.001Z</time></trkpt><trkpt lat="45.017090963410496" lon="9.540102975931399"><ele>77.0</ele><time>2026-04-19T14:52:55.001Z</time></trkpt><trkpt lat="45.017146027897844" lon="9.540517651845619"><ele>77.0</ele><time>2026-04-19T14:52:56.001Z</time></trkpt><trkpt lat="45.01718711942907" lon="9.540974139765613"><ele>78.0</ele><time>2026-04-19T14:52:57.001Z</time></trkpt><trkpt lat="45.01722837038262" lon="9.541460512638558"><ele>79.0</ele><time>2026-04-19T14:52:58.001Z</time></trkpt><trkpt lat="45.01727837490444" lon="9.541955775606505"><ele>78.0</ele><time>2026-04-19T14:52:59.001Z</time></trkpt><trkpt lat="45.017319434029034" lon="9.542436910877653"><ele>77.0</ele><time>2026-04-19T14:53:00.001Z</time></trkpt><trkpt lat="45.017343337727496" lon="9.542935810524162"><ele>77.0</ele><time>2026-04-19T14:53:01.001Z</time></trkpt><trkpt lat="45.01737830954003" lon="9.543401012381604"><ele>77.0</ele><time>2026-04-19T14:53:02.001Z</time></trkpt><trkpt lat="45.017408005582126" lon="9.543796034697284"><ele>77.5</ele><time>2026-04-19T14:53:03.001Z</time></trkpt><trkpt lat="45.017449766194254" lon="9.544139980807008"><ele>78.0</ele><time>2026-04-19T14:53:04.001Z</time></trkpt><trkpt lat="45.01747074533872" lon="9.544451470192243"><ele>77.33333333333333</ele><time>2026-04-19T14:53:05.001Z</time></trkpt><trkpt lat="45.0174915391199" lon="9.544730236891654"><ele>76.66666666666666</ele><time>2026-04-19T14:53:06.001Z</time></trkpt><trkpt lat="45.01751050948195" lon="9.544988887796782"><ele>76.0</ele><time>2026-04-19T14:53:07.001Z</time></trkpt><trkpt lat="45.017527565458735" lon="9.545203903990947"><ele>76.0</ele><time>2026-04-19T14:53:08.001Z</time></trkpt><trkpt lat="45.01754050579739" lon="9.545395496410588"><ele>76.0</ele><time>2026-04-19T14:53:09.001Z</time></trkpt><trkpt lat="45.01754967862042" lon="9.545576093892596"><ele>76.0</ele><time>2026-04-19T14:53:10.001Z</time></trkpt><trkpt lat="45.01758508148738" lon="9.545744740990004"><ele>76.0</ele><time>2026-04-19T14:53:11.001Z</time></trkpt><trkpt lat="45.01758161420343" lon="9.54589367600576"><ele>76.0</ele><time>2026-04-19T14:53:12.001Z</time></trkpt><trkpt lat="45.017572054371406" lon="9.546033643536147"><ele>76.0</ele><time>2026-04-19T14:53:13.001Z</time></trkpt><trkpt lat="45.01751134889435" lon="9.546160065411554"><ele>76.0</ele><time>2026-04-19T14:53:14.001Z</time></trkpt><trkpt lat="45.01741941090484" lon="9.546249116676735"><ele>76.0</ele><time>2026-04-19T14:53:15.001Z</time></trkpt><trkpt lat="45.01729191703491" lon="9.546298960876692"><ele>76.33333333333333</ele><time>2026-04-19T14:53:16.001Z</time></trkpt><trkpt lat="45.017120602544026" lon="9.546263120765243"><ele>76.66666666666667</ele><time>2026-04-19T14:53:17.001Z</time></trkpt><trkpt lat="45.01691580123004" lon="9.54626803856777"><ele>77.0</ele><time>2026-04-19T14:53:18.001Z</time></trkpt><trkpt lat="45.01666918549859" lon="9.546294472951361"><ele>77.0</ele><time>2026-04-19T14:53:19.001Z</time></trkpt><trkpt lat="45.01644437432311" lon="9.546294851531677"><ele>77.0</ele><time>2026-04-19T14:53:20.001Z</time></trkpt><trkpt lat="45.01628472653815" lon="9.5462734052801"><ele>77.0</ele><time>2026-04-19T14:53:21.001Z</time></trkpt><trkpt lat="45.01617903743755" lon="9.546276498533441"><ele>77.0</ele><time>2026-04-19T14:53:22.001Z</time></trkpt><trkpt lat="45.016107068456435" lon="9.546284494918025"><ele>77.0</ele><time>2026-04-19T14:53:23.001Z</time></trkpt><trkpt lat="45.016049047103735" lon="9.546323651089033"><ele>77.0</ele><time>2026-04-19T14:53:24.001Z</time></trkpt><trkpt lat="45.01599433492517" lon="9.546399237079063"><ele>77.0</ele><time>2026-04-19T14:53:25.001Z</time></trkpt><trkpt lat="45.0160144976014" lon="9.546595172492808"><ele>77.0</ele><time>2026-04-19T14:53:26.001Z</time></trkpt><trkpt lat="45.01603148973138" lon="9.546793922483769"><ele>76.66666666666667</ele><time>2026-04-19T14:53:27.001Z</time></trkpt><trkpt lat="45.016040059694554" lon="9.54705060262243"><ele>76.33333333333333</ele><time>2026-04-19T14:53:28.001Z</time></trkpt><trkpt lat="45.01605472226373" lon="9.547339725450728"><ele>76.0</ele><time>2026-04-19T14:53:29.001Z</time></trkpt><trkpt lat="45.01606993392581" lon="9.547633780473738"><ele>76.0</ele><time>2026-04-19T14:53:30.001Z</time></trkpt><trkpt lat="45.016087486674515" lon="9.547976128078973"><ele>76.0</ele><time>2026-04-19T14:53:31.001Z</time></trkpt><trkpt lat="45.016105537871766" lon="9.54834173269189"><ele>77.5</ele><time>2026-04-19T14:53:32.001Z</time></trkpt><trkpt lat="45.01612376674362" lon="9.548710936300937"><ele>79.0</ele><time>2026-04-19T14:53:33.001Z</time></trkpt><trkpt lat="45.016144292421295" lon="9.549105240735662"><ele>79.0</ele><time>2026-04-19T14:53:34.001Z</time></trkpt><trkpt lat="45.01616265688234" lon="9.54945781137938"><ele>79.0</ele><time>2026-04-19T14:53:35.001Z</time></trkpt><trkpt lat="45.01617716947874" lon="9.549772053917746"><ele>79.0</ele><time>2026-04-19T14:53:36.001Z</time></trkpt><trkpt lat="45.016203190445985" lon="9.55006474014703"><ele>79.0</ele><time>2026-04-19T14:53:37.001Z</time></trkpt><trkpt lat="45.01620969657411" lon="9.550351976498272"><ele>79.0</ele><time>2026-04-19T14:53:38.001Z</time></trkpt><trkpt lat="45.016190170432886" lon="9.550651255127072"><ele>78.0</ele><time>2026-04-19T14:53:39.001Z</time></trkpt><trkpt lat="45.016180241063296" lon="9.550953580967986"><ele>77.0</ele><time>2026-04-19T14:53:40.001Z</time></trkpt><trkpt lat="45.01616924966488" lon="9.551264580630312"><ele>76.0</ele><time>2026-04-19T14:53:41.001Z</time></trkpt><trkpt lat="45.01617359921114" lon="9.551583414116637"><ele>76.0</ele><time>2026-04-19T14:53:42.001Z</time></trkpt><trkpt lat="45.01616169397488" lon="9.551905053729776"><ele>76.0</ele><time>2026-04-19T14:53:43.001Z</time></trkpt><trkpt lat="45.01613542894821" lon="9.552234685863256"><ele>75.5</ele><time>2026-04-19T14:53:44.001Z</time></trkpt><trkpt lat="45.01614174894897" lon="9.552572576722842"><ele>75.0</ele><time>2026-04-19T14:53:45.001Z</time></trkpt><trkpt lat="45.01611312487156" lon="9.552910886477795"><ele>74.0</ele><time>2026-04-19T14:53:46.001Z</time></trkpt><trkpt lat="45.01612148256797" lon="9.55324624862488"><ele>73.0</ele><time>2026-04-19T14:53:47.001Z</time></trkpt><trkpt lat="45.01611598667041" lon="9.553582145939583"><ele>73.0</ele><time>2026-04-19T14:53:48.001Z</time></trkpt><trkpt lat="45.01611489182906" lon="9.553931359979778"><ele>73.0</ele><time>2026-04-19T14:53:49.001Z</time></trkpt><trkpt lat="45.0161193214259" lon="9.554292677602355"><ele>73.0</ele><time>2026-04-19T14:53:50.001Z</time></trkpt><trkpt lat="45.01612880260787" lon="9.554659224392102"><ele>73.0</ele><time>2026-04-19T14:53:51.001Z</time></trkpt><trkpt lat="45.016117477599614" lon="9.555039841126845"><ele>72.0</ele><time>2026-04-19T14:53:52.001Z</time></trkpt><trkpt lat="45.01613806741543" lon="9.555467366318926"><ele>71.0</ele><time>2026-04-19T14:53:53.001Z</time></trkpt><trkpt lat="45.016140295938904" lon="9.555893558885609"><ele>71.5</ele><time>2026-04-19T14:53:54.001Z</time></trkpt><trkpt lat="45.016143000548915" lon="9.556268004538097"><ele>72.0</ele><time>2026-04-19T14:53:55.001Z</time></trkpt><trkpt lat="45.016147791187315" lon="9.556617975766754"><ele>72.0</ele><time>2026-04-19T14:53:56.001Z</time></trkpt><trkpt lat="45.01615438086922" lon="9.556946114059384"><ele>72.0</ele><time>2026-04-19T14:53:57.001Z</time></trkpt><trkpt lat="45.0161675584921" lon="9.557276581959544"><ele>72.0</ele><time>2026-04-19T14:53:58.001Z</time></trkpt><trkpt lat="45.01620066045101" lon="9.557609591936744"><ele>72.0</ele><time>2026-04-19T14:53:59.001Z</time></trkpt><trkpt lat="45.016248168548096" lon="9.557943880062986"><ele>72.0</ele><time>2026-04-19T14:54:00.001Z</time></trkpt><trkpt lat="45.016304105932036" lon="9.558284895549694"><ele>72.0</ele><time>2026-04-19T14:54:01.001Z</time></trkpt><trkpt lat="45.016362100099485" lon="9.558630862961689"><ele>73.5</ele><time>2026-04-19T14:54:02.001Z</time></trkpt><trkpt lat="45.01642225047786" lon="9.558978567420954"><ele>75.0</ele><time>2026-04-19T14:54:03.001Z</time></trkpt><trkpt lat="45.01647678924967" lon="9.559319203506972"><ele>75.5</ele><time>2026-04-19T14:54:04.001Z</time></trkpt><trkpt lat="45.016515079486624" lon="9.559658698641133"><ele>76.0</ele><time>2026-04-19T14:54:05.001Z</time></trkpt><trkpt lat="45.01653189240341" lon="9.560003102272772"><ele>76.0</ele><time>2026-04-19T14:54:06.001Z</time></trkpt><trkpt lat="45.01653474883043" lon="9.560358213734833"><ele>76.0</ele><time>2026-04-19T14:54:07.001Z</time></trkpt><trkpt lat="45.01653580403368" lon="9.56072587095334"><ele>76.0</ele><time>2026-04-19T14:54:08.001Z</time></trkpt><trkpt lat="45.01653968157835" lon="9.561101931259847"><ele>76.0</ele><time>2026-04-19T14:54:09.001Z</time></trkpt><trkpt lat="45.01654348851008" lon="9.561482342111264"><ele>75.0</ele><time>2026-04-19T14:54:10.001Z</time></trkpt><trkpt lat="45.01654662899918" lon="9.561867518621504"><ele>74.0</ele><time>2026-04-19T14:54:11.001Z</time></trkpt><trkpt lat="45.0165473460897" lon="9.562255668225928"><ele>74.0</ele><time>2026-04-19T14:54:12.001Z</time></trkpt><trkpt lat="45.01655122499221" lon="9.562616350911489"><ele>74.0</ele><time>2026-04-19T14:54:13.001Z</time></trkpt><trkpt lat="45.01655345923224" lon="9.562951739595478"><ele>74.0</ele><time>2026-04-19T14:54:14.001Z</time></trkpt><trkpt lat="45.01655358185063" lon="9.56326798236468"><ele>74.0</ele><time>2026-04-19T14:54:15.001Z</time></trkpt><trkpt lat="45.016552389875024" lon="9.56356037891776"><ele>74.0</ele><time>2026-04-19T14:54:16.001Z</time></trkpt><trkpt lat="45.016552582807336" lon="9.563840547066588"><ele>74.33333333333334</ele><time>2026-04-19T14:54:17.001Z</time></trkpt><trkpt lat="45.016553471812436" lon="9.564101768896967"><ele>74.66666666666667</ele><time>2026-04-19T14:54:18.001Z</time></trkpt><trkpt lat="45.01655517446125" lon="9.564366383708936"><ele>75.0</ele><time>2026-04-19T14:54:19.001Z</time></trkpt><trkpt lat="45.01655483082741" lon="9.564655063466297"><ele>75.0</ele><time>2026-04-19T14:54:20.001Z</time></trkpt><trkpt lat="45.01654739978165" lon="9.564960364920019"><ele>75.0</ele><time>2026-04-19T14:54:21.001Z</time></trkpt><trkpt lat="45.01653359211956" lon="9.565266602390071"><ele>75.0</ele><time>2026-04-19T14:54:22.001Z</time></trkpt><trkpt lat="45.016503416703" lon="9.565569288866623"><ele>74.66666666666667</ele><time>2026-04-19T14:54:23.001Z</time></trkpt><trkpt lat="45.01647127318182" lon="9.565864957566468"><ele>74.33333333333334</ele><time>2026-04-19T14:54:24.001Z</time></trkpt><trkpt lat="45.01643066187126" lon="9.56611714676276"><ele>74.0</ele><time>2026-04-19T14:54:25.001Z</time></trkpt><trkpt lat="45.01639535841575" lon="9.566345251270544"><ele>74.0</ele><time>2026-04-19T14:54:26.001Z</time></trkpt><trkpt lat="45.0163513465824" lon="9.56654536743612"><ele>74.0</ele><time>2026-04-19T14:54:27.001Z</time></trkpt><trkpt lat="45.01631380072198" lon="9.566736403742615"><ele>74.0</ele><time>2026-04-19T14:54:28.001Z</time></trkpt><trkpt lat="45.01638506811469" lon="9.567099437169526"><ele>74.4</ele><time>2026-04-19T14:54:29.001Z</time></trkpt><trkpt lat="45.01636977110583" lon="9.567284620448659"><ele>74.80000000000001</ele><time>2026-04-19T14:54:30.001Z</time></trkpt><trkpt lat="45.016350387016544" lon="9.567448311781718"><ele>75.19999999999999</ele><time>2026-04-19T14:54:31.001Z</time></trkpt><trkpt lat="45.016333431804014" lon="9.5675786407535"><ele>75.6</ele><time>2026-04-19T14:54:32.001Z</time></trkpt><trkpt lat="45.016314432579584" lon="9.567676189679501"><ele>76.0</ele><time>2026-04-19T14:54:33.001Z</time></trkpt><trkpt lat="45.01627405514036" lon="9.56775624935157"><ele>76.0</ele><time>2026-04-19T14:54:35.001Z</time></trkpt><trkpt lat="45.01618775307476" lon="9.56776383176056"><ele>76.0</ele><time>2026-04-19T14:54:38.001Z</time></trkpt><trkpt lat="45.01608200482138" lon="9.567771571012464"><ele>76.0</ele><time>2026-04-19T14:54:40.001Z</time></trkpt><trkpt lat="45.01600442035465" lon="9.567795584286237"><ele>76.0</ele><time>2026-04-19T14:54:41.001Z</time></trkpt><trkpt lat="45.015934491795626" lon="9.567813472049945"><ele>76.0</ele><time>2026-04-19T14:54:42.001Z</time></trkpt><trkpt lat="45.01585050342554" lon="9.56782698642547"><ele>76.0</ele><time>2026-04-19T14:54:43.001Z</time></trkpt><trkpt lat="45.01575679991991" lon="9.567836870728863"><ele>76.0</ele><time>2026-04-19T14:54:44.001Z</time></trkpt><trkpt lat="45.01565442785818" lon="9.567853690657195"><ele>76.0</ele><time>2026-04-19T14:54:45.001Z</time></trkpt><trkpt lat="45.015541152704884" lon="9.567864204823428"><ele>76.0</ele><time>2026-04-19T14:54:46.001Z</time></trkpt><trkpt lat="45.01542184088553" lon="9.567867675540302"><ele>76.0</ele><time>2026-04-19T14:54:47.001Z</time></trkpt><trkpt lat="45.0153115735915" lon="9.56786870882331"><ele>76.0</ele><time>2026-04-19T14:54:48.001Z</time></trkpt><trkpt lat="45.015196806576576" lon="9.567889483573701"><ele>76.25</ele><time>2026-04-19T14:54:49.001Z</time></trkpt><trkpt lat="45.01507516353158" lon="9.56791044842862"><ele>76.5</ele><time>2026-04-19T14:54:50.001Z</time></trkpt><trkpt lat="45.01494010874098" lon="9.567939494605568"><ele>76.75</ele><time>2026-04-19T14:54:51.001Z</time></trkpt><trkpt lat="45.01479000494877" lon="9.567953673110289"><ele>77.0</ele><time>2026-04-19T14:54:52.001Z</time></trkpt><trkpt lat="45.014645419398306" lon="9.567978103839506"><ele>77.5</ele><time>2026-04-19T14:54:53.001Z</time></trkpt><trkpt lat="45.01450293989328" lon="9.567990372236155"><ele>78.0</ele><time>2026-04-19T14:54:54.001Z</time></trkpt><trkpt lat="45.014360144245366" lon="9.56801325315721"><ele>78.5</ele><time>2026-04-19T14:54:55.001Z</time></trkpt><trkpt lat="45.01422993781512" lon="9.568036786217167"><ele>79.0</ele><time>2026-04-19T14:54:56.001Z</time></trkpt><trkpt lat="45.01409698585854" lon="9.568063124259522"><ele>79.0</ele><time>2026-04-19T14:54:57.001Z</time></trkpt><trkpt lat="45.013973905435385" lon="9.56809119331358"><ele>79.0</ele><time>2026-04-19T14:54:58.001Z</time></trkpt><trkpt lat="45.01384952407901" lon="9.568122172454403"><ele>79.0</ele><time>2026-04-19T14:54:59.001Z</time></trkpt><trkpt lat="45.01373074965182" lon="9.568160688007028"><ele>79.0</ele><time>2026-04-19T14:55:00.001Z</time></trkpt><trkpt lat="45.013609338160435" lon="9.568214282865567"><ele>79.0</ele><time>2026-04-19T14:55:01.001Z</time></trkpt><trkpt lat="45.01348369112185" lon="9.568277235571296"><ele>79.0</ele><time>2026-04-19T14:55:02.001Z</time></trkpt><trkpt lat="45.013361305685265" lon="9.568355603931987"><ele>79.0</ele><time>2026-04-19T14:55:03.001Z</time></trkpt><trkpt lat="45.01323257545582" lon="9.568428748939771"><ele>79.0</ele><time>2026-04-19T14:55:04.001Z</time></trkpt><trkpt lat="45.01311605615632" lon="9.568501333063594"><ele>79.0</ele><time>2026-04-19T14:55:05.001Z</time></trkpt><trkpt lat="45.01299723096823" lon="9.568563056797327"><ele>79.0</ele><time>2026-04-19T14:55:06.001Z</time></trkpt><trkpt lat="45.01286593553345" lon="9.568617249337338"><ele>79.0</ele><time>2026-04-19T14:55:07.001Z</time></trkpt><trkpt lat="45.0127285376638" lon="9.568657673042372"><ele>79.0</ele><time>2026-04-19T14:55:08.001Z</time></trkpt><trkpt lat="45.01256399838772" lon="9.568685083071113"><ele>79.33333333333333</ele><time>2026-04-19T14:55:09.001Z</time></trkpt><trkpt lat="45.01240518797934" lon="9.568730848901504"><ele>79.66666666666667</ele><time>2026-04-19T14:55:10.001Z</time></trkpt><trkpt lat="45.01224284153432" lon="9.568788400787437"><ele>80.0</ele><time>2026-04-19T14:55:11.001Z</time></trkpt><trkpt lat="45.01207356743318" lon="9.568840868261507"><ele>80.0</ele><time>2026-04-19T14:55:12.001Z</time></trkpt><trkpt lat="45.01190488959073" lon="9.568875573423949"><ele>80.0</ele><time>2026-04-19T14:55:13.001Z</time></trkpt><trkpt lat="45.011738332199165" lon="9.568926609967622"><ele>80.0</ele><time>2026-04-19T14:55:14.001Z</time></trkpt><trkpt lat="45.01156508803296" lon="9.568969034659666"><ele>80.0</ele><time>2026-04-19T14:55:15.001Z</time></trkpt><trkpt lat="45.01139433862569" lon="9.569015486292482"><ele>80.0</ele><time>2026-04-19T14:55:16.001Z</time></trkpt><trkpt lat="45.0112248153589" lon="9.56905579039008"><ele>80.0</ele><time>2026-04-19T14:55:17.001Z</time></trkpt><trkpt lat="45.01105243373363" lon="9.569091156579358"><ele>80.0</ele><time>2026-04-19T14:55:18.001Z</time></trkpt><trkpt lat="45.01088105434133" lon="9.569138714472118"><ele>80.0</ele><time>2026-04-19T14:55:19.001Z</time></trkpt><trkpt lat="45.010710772340026" lon="9.569167111839855"><ele>80.0</ele><time>2026-04-19T14:55:20.001Z</time></trkpt><trkpt lat="45.010530235165085" lon="9.56920177503695"><ele>79.66666666666667</ele><time>2026-04-19T14:55:21.001Z</time></trkpt><trkpt lat="45.010348887293716" lon="9.569238916999007"><ele>79.33333333333333</ele><time>2026-04-19T14:55:22.001Z</time></trkpt><trkpt lat="45.01016640021574" lon="9.56927437332212"><ele>79.0</ele><time>2026-04-19T14:55:23.001Z</time></trkpt><trkpt lat="45.009980025927085" lon="9.56931189971976"><ele>79.0</ele><time>2026-04-19T14:55:24.001Z</time></trkpt><trkpt lat="45.00979325583215" lon="9.569344499111633"><ele>79.0</ele><time>2026-04-19T14:55:25.001Z</time></trkpt><trkpt lat="45.00961228801508" lon="9.569364184347407"><ele>79.0</ele><time>2026-04-19T14:55:26.001Z</time></trkpt><trkpt lat="45.009427943553995" lon="9.569411361584395"><ele>79.0</ele><time>2026-04-19T14:55:27.001Z</time></trkpt><trkpt lat="45.00925222438713" lon="9.569445048709694"><ele>79.0</ele><time>2026-04-19T14:55:28.001Z</time></trkpt><trkpt lat="45.00907175002231" lon="9.569478621197014"><ele>79.0</ele><time>2026-04-19T14:55:29.001Z</time></trkpt><trkpt lat="45.008889694646186" lon="9.569516725299879"><ele>79.33333333333333</ele><time>2026-04-19T14:55:30.001Z</time></trkpt><trkpt lat="45.008704623215465" lon="9.569556839064614"><ele>79.66666666666667</ele><time>2026-04-19T14:55:31.001Z</time></trkpt><trkpt lat="45.008515694452086" lon="9.569570400127612"><ele>80.0</ele><time>2026-04-19T14:55:32.001Z</time></trkpt><trkpt lat="45.00833505499599" lon="9.569603702572813"><ele>80.0</ele><time>2026-04-19T14:55:33.001Z</time></trkpt><trkpt lat="45.008176173560095" lon="9.569632726004912"><ele>80.0</ele><time>2026-04-19T14:55:34.001Z</time></trkpt><trkpt lat="45.00800817848238" lon="9.569663414044971"><ele>80.0</ele><time>2026-04-19T14:55:35.001Z</time></trkpt><trkpt lat="45.00783409113912" lon="9.569711550880285"><ele>80.0</ele><time>2026-04-19T14:55:36.001Z</time></trkpt><trkpt lat="45.00765454433536" lon="9.56972516940711"><ele>80.0</ele><time>2026-04-19T14:55:37.001Z</time></trkpt><trkpt lat="45.00746732774778" lon="9.569739330296484"><ele>80.0</ele><time>2026-04-19T14:55:38Z</time></trkpt><trkpt lat="45.007271184581754" lon="9.569748522904602"><ele>79.5</ele><time>2026-04-19T14:55:39Z</time></trkpt><trkpt lat="45.007054705079874" lon="9.569764567721863"><ele>79.0</ele><time>2026-04-19T14:55:40Z</time></trkpt><trkpt lat="45.00681335715973" lon="9.569784014573797"><ele>79.0</ele><time>2026-04-19T14:55:41Z</time></trkpt><trkpt lat="45.006548917097184" lon="9.569803204875516"><ele>79.0</ele><time>2026-04-19T14:55:42Z</time></trkpt><trkpt lat="45.00626369498517" lon="9.56982399808322"><ele>79.0</ele><time>2026-04-19T14:55:43Z</time></trkpt><trkpt lat="45.005950272959765" lon="9.569824958672031"><ele>79.0</ele><time>2026-04-19T14:55:44Z</time></trkpt><trkpt lat="45.005639761907496" lon="9.569845721384205"><ele>79.5</ele><time>2026-04-19T14:55:45Z</time></trkpt><trkpt lat="45.005332096685166" lon="9.56986823376147"><ele>80.0</ele><time>2026-04-19T14:55:46Z</time></trkpt><trkpt lat="45.00506465760453" lon="9.569887493809068"><ele>78.5</ele><time>2026-04-19T14:55:47Z</time></trkpt><trkpt lat="45.0047976514474" lon="9.569923528048175"><ele>77.0</ele><time>2026-04-19T14:55:48Z</time></trkpt><trkpt lat="45.0045323970005" lon="9.57001206324776"><ele>77.0</ele><time>2026-04-19T14:55:49Z</time></trkpt><trkpt lat="45.004265280070236" lon="9.570103602691436"><ele>77.0</ele><time>2026-04-19T14:55:50Z</time></trkpt><trkpt lat="45.00400339871761" lon="9.570223259121173"><ele>78.0</ele><time>2026-04-19T14:55:51Z</time></trkpt><trkpt lat="45.00371869224842" lon="9.57031445551171"><ele>79.0</ele><time>2026-04-19T14:55:52Z</time></trkpt><trkpt lat="45.00341911655534" lon="9.570433352149692"><ele>80.0</ele><time>2026-04-19T14:55:53Z</time></trkpt><trkpt lat="45.003091481933374" lon="9.570562837376631"><ele>81.0</ele><time>2026-04-19T14:55:54Z</time></trkpt><trkpt lat="45.00274551174315" lon="9.570699569048053"><ele>81.0</ele><time>2026-04-19T14:55:55Z</time></trkpt><trkpt lat="45.0023808183838" lon="9.570843700381287"><ele>81.0</ele><time>2026-04-19T14:55:56Z</time></trkpt><trkpt lat="45.00202774825117" lon="9.571005233993658"><ele>81.0</ele><time>2026-04-19T14:55:57Z</time></trkpt><trkpt lat="45.001676627724" lon="9.571141185812067"><ele>81.0</ele><time>2026-04-19T14:55:58Z</time></trkpt><trkpt lat="45.001303513110926" lon="9.57128559214087"><ele>81.5</ele><time>2026-04-19T14:55:59Z</time></trkpt><trkpt lat="45.000940961697275" lon="9.571429372505296"><ele>82.0</ele><time>2026-04-19T14:56:00Z</time></trkpt><trkpt lat="45.000619768423945" lon="9.571555908349179"><ele>82.0</ele><time>2026-04-19T14:56:01Z</time></trkpt><trkpt lat="45.000328596960244" lon="9.571671035742986"><ele>82.0</ele><time>2026-04-19T14:56:02Z</time></trkpt><trkpt lat="45.000066378850015" lon="9.571775877388603"><ele>82.0</ele><time>2026-04-19T14:56:03Z</time></trkpt><trkpt lat="44.999825905653005" lon="9.57186695231217"><ele>82.0</ele><time>2026-04-19T14:56:04Z</time></trkpt><trkpt lat="44.99959821901194" lon="9.571955919369326"><ele>82.0</ele><time>2026-04-19T14:56:05Z</time></trkpt><trkpt lat="44.99938703193839" lon="9.572040474082362"><ele>82.0</ele><time>2026-04-19T14:56:06Z</time></trkpt><trkpt lat="44.999185494740814" lon="9.572121298352599"><ele>82.0</ele><time>2026-04-19T14:56:07Z</time></trkpt><trkpt lat="44.99898393963091" lon="9.572204053947663"><ele>82.33333333333333</ele><time>2026-04-19T14:56:08Z</time></trkpt><trkpt lat="44.998773565432515" lon="9.572282766812926"><ele>82.66666666666667</ele><time>2026-04-19T14:56:09Z</time></trkpt><trkpt lat="44.998565490968296" lon="9.572367567897558"><ele>83.0</ele><time>2026-04-19T14:56:10Z</time></trkpt><trkpt lat="44.99835706524292" lon="9.572450499437549"><ele>83.33333333333334</ele><time>2026-04-19T14:56:11Z</time></trkpt><trkpt lat="44.99815362609207" lon="9.57252646716428"><ele>83.66666666666667</ele><time>2026-04-19T14:56:12Z</time></trkpt><trkpt lat="44.99795297785434" lon="9.572591496654365"><ele>84.0</ele><time>2026-04-19T14:56:13Z</time></trkpt><trkpt lat="44.99775473899312" lon="9.57263447027918"><ele>84.0</ele><time>2026-04-19T14:56:14Z</time></trkpt><trkpt lat="44.997545842366655" lon="9.572643081107175"><ele>84.0</ele><time>2026-04-19T14:56:15Z</time></trkpt><trkpt lat="44.99733272268181" lon="9.57262083077663"><ele>84.0</ele><time>2026-04-19T14:56:16Z</time></trkpt><trkpt lat="44.99711749275641" lon="9.57258515008039"><ele>83.66666666666667</ele><time>2026-04-19T14:56:17Z</time></trkpt><trkpt lat="44.99690752143991" lon="9.572545237160698"><ele>83.33333333333334</ele><time>2026-04-19T14:56:18Z</time></trkpt><trkpt lat="44.996701589394085" lon="9.572509511845606"><ele>83.0</ele><time>2026-04-19T14:56:19Z</time></trkpt><trkpt lat="44.99649332715321" lon="9.572482892721236"><ele>84.0</ele><time>2026-04-19T14:56:20Z</time></trkpt><trkpt lat="44.996282496275434" lon="9.572470114647032"><ele>85.0</ele><time>2026-04-19T14:56:21Z</time></trkpt><trkpt lat="44.996071386225736" lon="9.572473950574821"><ele>86.0</ele><time>2026-04-19T14:56:22Z</time></trkpt><trkpt lat="44.99585594170459" lon="9.5724900892717"><ele>86.0</ele><time>2026-04-19T14:56:23Z</time></trkpt><trkpt lat="44.99564018135153" lon="9.572476577645217"><ele>86.0</ele><time>2026-04-19T14:56:24Z</time></trkpt><trkpt lat="44.99544802432039" lon="9.57248380837606"><ele>86.0</ele><time>2026-04-19T14:56:25Z</time></trkpt><trkpt lat="44.99526505064859" lon="9.572554522205907"><ele>86.0</ele><time>2026-04-19T14:56:26Z</time></trkpt><trkpt lat="44.99508553083002" lon="9.572582732639399"><ele>86.0</ele><time>2026-04-19T14:56:27Z</time></trkpt><trkpt lat="44.99490486694256" lon="9.572606257807514"><ele>86.0</ele><time>2026-04-19T14:56:28Z</time></trkpt><trkpt lat="44.99472733194237" lon="9.572634033069155"><ele>86.0</ele><time>2026-04-19T14:56:29Z</time></trkpt><trkpt lat="44.994562903978455" lon="9.572647094165196"><ele>86.0</ele><time>2026-04-19T14:56:30Z</time></trkpt><trkpt lat="44.99439714054753" lon="9.572664366592946"><ele>86.0</ele><time>2026-04-19T14:56:31Z</time></trkpt><trkpt lat="44.99423543088569" lon="9.57269040539821"><ele>86.33333333333334</ele><time>2026-04-19T14:56:32Z</time></trkpt><trkpt lat="44.99407974511147" lon="9.572710171291064"><ele>86.66666666666667</ele><time>2026-04-19T14:56:33Z</time></trkpt><trkpt lat="44.993916882444296" lon="9.572741275838096"><ele>87.0</ele><time>2026-04-19T14:56:34Z</time></trkpt><trkpt lat="44.99375453750084" lon="9.572761502255736"><ele>87.0</ele><time>2026-04-19T14:56:35Z</time></trkpt><trkpt lat="44.993599978684976" lon="9.572781792753407"><ele>87.0</ele><time>2026-04-19T14:56:36Z</time></trkpt><trkpt lat="44.99345312956262" lon="9.57279956676333"><ele>87.0</ele><time>2026-04-19T14:56:37Z</time></trkpt><trkpt lat="44.9933096469202" lon="9.572812664974375"><ele>87.0</ele><time>2026-04-19T14:56:38Z</time></trkpt><trkpt lat="44.99317071005253" lon="9.572833025071585"><ele>87.0</ele><time>2026-04-19T14:56:39Z</time></trkpt><trkpt lat="44.99303626253616" lon="9.572853830980925"><ele>87.0</ele><time>2026-04-19T14:56:40Z</time></trkpt><trkpt lat="44.99290640501459" lon="9.572872481510307"><ele>87.0</ele><time>2026-04-19T14:56:41Z</time></trkpt><trkpt lat="44.992784061095215" lon="9.572883224045666"><ele>87.0</ele><time>2026-04-19T14:56:42Z</time></trkpt><trkpt lat="44.99266050797795" lon="9.57289010150118"><ele>87.0</ele><time>2026-04-19T14:56:43Z</time></trkpt><trkpt lat="44.99253637802727" lon="9.572892150569418"><ele>87.0</ele><time>2026-04-19T14:56:44Z</time></trkpt><trkpt lat="44.992407429407336" lon="9.572882633420013"><ele>87.0</ele><time>2026-04-19T14:56:45Z</time></trkpt><trkpt lat="44.99227504512057" lon="9.572847862820009"><ele>87.0</ele><time>2026-04-19T14:56:46Z</time></trkpt><trkpt lat="44.9921434466056" lon="9.57280265809098"><ele>87.25</ele><time>2026-04-19T14:56:47Z</time></trkpt><trkpt lat="44.9920221701853" lon="9.572745749372164"><ele>87.5</ele><time>2026-04-19T14:56:48Z</time></trkpt><trkpt lat="44.99190126029555" lon="9.572679947626167"><ele>87.75</ele><time>2026-04-19T14:56:49Z</time></trkpt><trkpt lat="44.99175824077078" lon="9.572599952743337"><ele>88.0</ele><time>2026-04-19T14:56:50Z</time></trkpt><trkpt lat="44.991589674763574" lon="9.572497661396962"><ele>88.33333333333333</ele><time>2026-04-19T14:56:51Z</time></trkpt><trkpt lat="44.99141276282465" lon="9.572365483452263"><ele>88.66666666666667</ele><time>2026-04-19T14:56:52Z</time></trkpt><trkpt lat="44.99122517326098" lon="9.572232428564686"><ele>89.0</ele><time>2026-04-19T14:56:53Z</time></trkpt><trkpt lat="44.99102837001381" lon="9.57210793124607"><ele>88.5</ele><time>2026-04-19T14:56:54Z</time></trkpt><trkpt lat="44.99082426693416" lon="9.571982451247244"><ele>88.0</ele><time>2026-04-19T14:56:55Z</time></trkpt><trkpt lat="44.9906151505037" lon="9.571856602467973"><ele>88.0</ele><time>2026-04-19T14:56:56Z</time></trkpt><trkpt lat="44.990400978840526" lon="9.571741492517207"><ele>88.0</ele><time>2026-04-19T14:56:57Z</time></trkpt><trkpt lat="44.99018661247256" lon="9.571635639276236"><ele>87.33333333333333</ele><time>2026-04-19T14:56:58Z</time></trkpt><trkpt lat="44.989976382431024" lon="9.571535757236513"><ele>86.66666666666667</ele><time>2026-04-19T14:56:59Z</time></trkpt><trkpt lat="44.9897689862971" lon="9.571457683899585"><ele>86.0</ele><time>2026-04-19T14:57:00Z</time></trkpt><trkpt lat="44.98955342602504" lon="9.571409894227834"><ele>86.0</ele><time>2026-04-19T14:57:01Z</time></trkpt><trkpt lat="44.98932600884111" lon="9.57141204501812"><ele>86.0</ele><time>2026-04-19T14:57:02Z</time></trkpt><trkpt lat="44.98909650096053" lon="9.571445013453587"><ele>88.0</ele><time>2026-04-19T14:57:03Z</time></trkpt><trkpt lat="44.988867742902805" lon="9.57150015860456"><ele>90.0</ele><time>2026-04-19T14:57:04Z</time></trkpt><trkpt lat="44.98862083532851" lon="9.571572255030134"><ele>90.0</ele><time>2026-04-19T14:57:05Z</time></trkpt><trkpt lat="44.98835284685644" lon="9.571621658840725"><ele>90.0</ele><time>2026-04-19T14:57:06Z</time></trkpt><trkpt lat="44.98808871895537" lon="9.571630516616635"><ele>90.5</ele><time>2026-04-19T14:57:07Z</time></trkpt><trkpt lat="44.987843481092604" lon="9.571621448677265"><ele>91.0</ele><time>2026-04-19T14:57:08Z</time></trkpt><trkpt lat="44.987608831438145" lon="9.57163077953033"><ele>90.5</ele><time>2026-04-19T14:57:09Z</time></trkpt><trkpt lat="44.98737106775528" lon="9.571660918221781"><ele>90.0</ele><time>2026-04-19T14:57:10Z</time></trkpt><trkpt lat="44.98713331102096" lon="9.571711315619513"><ele>90.0</ele><time>2026-04-19T14:57:11Z</time></trkpt><trkpt lat="44.98689637139116" lon="9.571786879407759"><ele>90.0</ele><time>2026-04-19T14:57:12Z</time></trkpt><trkpt lat="44.98666308954278" lon="9.571874375231086"><ele>90.0</ele><time>2026-04-19T14:57:13Z</time></trkpt><trkpt lat="44.986437723815534" lon="9.571984887218088"><ele>90.0</ele><time>2026-04-19T14:57:14Z</time></trkpt><trkpt lat="44.98622534946865" lon="9.572134984785995"><ele>90.0</ele><time>2026-04-19T14:57:15Z</time></trkpt><trkpt lat="44.98602500924863" lon="9.57231061416986"><ele>90.0</ele><time>2026-04-19T14:57:16Z</time></trkpt><trkpt lat="44.98582064441965" lon="9.572477619374286"><ele>90.0</ele><time>2026-04-19T14:57:17.001Z</time></trkpt><trkpt lat="44.98561984320075" lon="9.572634032142883"><ele>90.0</ele><time>2026-04-19T14:57:18.001Z</time></trkpt><trkpt lat="44.98543087867826" lon="9.572783803217343"><ele>90.0</ele><time>2026-04-19T14:57:19.001Z</time></trkpt><trkpt lat="44.98525586416185" lon="9.572925063339264"><ele>89.66666666666667</ele><time>2026-04-19T14:57:20.001Z</time></trkpt><trkpt lat="44.98508869447911" lon="9.57305363633278"><ele>89.33333333333334</ele><time>2026-04-19T14:57:21.001Z</time></trkpt><trkpt lat="44.98492968065302" lon="9.573168907381094"><ele>89.0</ele><time>2026-04-19T14:57:22.001Z</time></trkpt><trkpt lat="44.98477217800463" lon="9.573268589270995"><ele>89.66666666666667</ele><time>2026-04-19T14:57:23.001Z</time></trkpt><trkpt lat="44.984605378849" lon="9.57333630605185"><ele>90.33333333333333</ele><time>2026-04-19T14:57:24.001Z</time></trkpt><trkpt lat="44.98443951387218" lon="9.573375944020006"><ele>91.0</ele><time>2026-04-19T14:57:25.001Z</time></trkpt><trkpt lat="44.984284608352006" lon="9.573397472471614"><ele>91.25</ele><time>2026-04-19T14:57:26.001Z</time></trkpt><trkpt lat="44.984144585085886" lon="9.573400223591017"><ele>91.5</ele><time>2026-04-19T14:57:27.001Z</time></trkpt><trkpt lat="44.9840142655364" lon="9.573390456464997"><ele>91.75</ele><time>2026-04-19T14:57:28Z</time></trkpt><trkpt lat="44.983897399966736" lon="9.57338116671523"><ele>92.0</ele><time>2026-04-19T14:57:29Z</time></trkpt><trkpt lat="44.983806464741015" lon="9.573320370253473"><ele>92.0</ele><time>2026-04-19T14:57:30Z</time></trkpt><trkpt lat="44.98366919820024" lon="9.573586058897307"><ele>92.0</ele><time>2026-04-19T14:57:32Z</time></trkpt><trkpt lat="44.98361720623577" lon="9.573735954766317"><ele>92.0</ele><time>2026-04-19T14:57:33Z</time></trkpt><trkpt lat="44.98353609850976" lon="9.573853311997109"><ele>92.0</ele><time>2026-04-19T14:57:34Z</time></trkpt><trkpt lat="44.98342198702867" lon="9.57397497107364"><ele>92.0</ele><time>2026-04-19T14:57:35Z</time></trkpt><trkpt lat="44.983296591207754" lon="9.574105314491463"><ele>92.0</ele><time>2026-04-19T14:57:36Z</time></trkpt><trkpt lat="44.983155123073814" lon="9.574239885247543"><ele>92.66666666666667</ele><time>2026-04-19T14:57:37Z</time></trkpt><trkpt lat="44.98300119533189" lon="9.57439354398153"><ele>93.33333333333333</ele><time>2026-04-19T14:57:38Z</time></trkpt><trkpt lat="44.982862859747556" lon="9.574564251727745"><ele>94.0</ele><time>2026-04-19T14:57:39Z</time></trkpt><trkpt lat="44.98269323246868" lon="9.57473868334218"><ele>94.66666666666666</ele><time>2026-04-19T14:57:40Z</time></trkpt><trkpt lat="44.98250846621904" lon="9.574923580973197"><ele>95.33333333333333</ele><time>2026-04-19T14:57:41Z</time></trkpt><trkpt lat="44.98234052897399" lon="9.575074543017651"><ele>96.0</ele><time>2026-04-19T14:57:42Z</time></trkpt><trkpt lat="44.98217442351103" lon="9.575247653761197"><ele>95.5</ele><time>2026-04-19T14:57:43Z</time></trkpt><trkpt lat="44.9819823336142" lon="9.575441488377843"><ele>95.0</ele><time>2026-04-19T14:57:44Z</time></trkpt><trkpt lat="44.981772811699436" lon="9.575630789040128"><ele>95.0</ele><time>2026-04-19T14:57:45Z</time></trkpt><trkpt lat="44.98158616020906" lon="9.57587315765083"><ele>95.0</ele><time>2026-04-19T14:57:46Z</time></trkpt><trkpt lat="44.981393184162606" lon="9.576101451528407"><ele>95.0</ele><time>2026-04-19T14:57:47Z</time></trkpt><trkpt lat="44.9811925449007" lon="9.576315216737914"><ele>95.0</ele><time>2026-04-19T14:57:48Z</time></trkpt><trkpt lat="44.98100106188559" lon="9.576542570977674"><ele>95.0</ele><time>2026-04-19T14:57:49Z</time></trkpt><trkpt lat="44.98080959207964" lon="9.576771132037722"><ele>95.0</ele><time>2026-04-19T14:57:50Z</time></trkpt><trkpt lat="44.98062134367754" lon="9.576997104972055"><ele>95.0</ele><time>2026-04-19T14:57:51Z</time></trkpt><trkpt lat="44.98043784056318" lon="9.57721771277907"><ele>95.0</ele><time>2026-04-19T14:57:52Z</time></trkpt><trkpt lat="44.980258497582014" lon="9.577432253705744"><ele>95.0</ele><time>2026-04-19T14:57:53Z</time></trkpt><trkpt lat="44.98008220750385" lon="9.577641344844238"><ele>95.0</ele><time>2026-04-19T14:57:54Z</time></trkpt><trkpt lat="44.9799183689081" lon="9.577869852413036"><ele>96.0</ele><time>2026-04-19T14:57:55Z</time></trkpt><trkpt lat="44.97974576631265" lon="9.578077093888425"><ele>97.0</ele><time>2026-04-19T14:57:56Z</time></trkpt><trkpt lat="44.979572527200354" lon="9.578280994802554"><ele>97.0</ele><time>2026-04-19T14:57:57Z</time></trkpt><trkpt lat="44.97939977611516" lon="9.578481188452866"><ele>97.0</ele><time>2026-04-19T14:57:58Z</time></trkpt><trkpt lat="44.97922803015899" lon="9.578681167378097"><ele>97.0</ele><time>2026-04-19T14:57:59Z</time></trkpt><trkpt lat="44.9790565843468" lon="9.578882559868147"><ele>97.0</ele><time>2026-04-19T14:58:00Z</time></trkpt><trkpt lat="44.97888860295433" lon="9.5790840267252"><ele>97.0</ele><time>2026-04-19T14:58:01Z</time></trkpt><trkpt lat="44.978721460449485" lon="9.579278675517372"><ele>97.0</ele><time>2026-04-19T14:58:02Z</time></trkpt><trkpt lat="44.97855123287342" lon="9.579454586449812"><ele>97.33333333333334</ele><time>2026-04-19T14:58:03Z</time></trkpt><trkpt lat="44.97836088051332" lon="9.579570840016286"><ele>97.66666666666666</ele><time>2026-04-19T14:58:04Z</time></trkpt><trkpt lat="44.97817640803163" lon="9.579700743059986"><ele>98.0</ele><time>2026-04-19T14:58:05Z</time></trkpt><trkpt lat="44.97796505688849" lon="9.579777987200044"><ele>98.0</ele><time>2026-04-19T14:58:06Z</time></trkpt><trkpt lat="44.97775682878518" lon="9.579871294921748"><ele>98.0</ele><time>2026-04-19T14:58:07Z</time></trkpt><trkpt lat="44.977530021499774" lon="9.579972928010982"><ele>98.5</ele><time>2026-04-19T14:58:08Z</time></trkpt><trkpt lat="44.97730184167656" lon="9.580080947314919"><ele>99.0</ele><time>2026-04-19T14:58:09Z</time></trkpt><trkpt lat="44.97706473395179" lon="9.58021329509669"><ele>98.5</ele><time>2026-04-19T14:58:10Z</time></trkpt><trkpt lat="44.976823209187074" lon="9.580389488312493"><ele>98.0</ele><time>2026-04-19T14:58:11Z</time></trkpt><trkpt lat="44.97662907237779" lon="9.5805653893583"><ele>98.0</ele><time>2026-04-19T14:58:13Z</time></trkpt><trkpt lat="44.976455564415055" lon="9.580730469334311"><ele>98.0</ele><time>2026-04-19T14:58:14Z</time></trkpt><trkpt lat="44.97628494787265" lon="9.580900411144121"><ele>98.0</ele><time>2026-04-19T14:58:15Z</time></trkpt><trkpt lat="44.976118013061985" lon="9.581080715587566"><ele>97.66666666666666</ele><time>2026-04-19T14:58:16Z</time></trkpt><trkpt lat="44.97594744558443" lon="9.58126099513098"><ele>97.33333333333334</ele><time>2026-04-19T14:58:17Z</time></trkpt><trkpt lat="44.975752423911835" lon="9.581368207719558"><ele>97.0</ele><time>2026-04-19T14:58:18Z</time></trkpt><trkpt lat="44.97556126084254" lon="9.581441589049263"><ele>97.66666666666667</ele><time>2026-04-19T14:58:19Z</time></trkpt><trkpt lat="44.97537025008718" lon="9.581466515270305"><ele>98.33333333333334</ele><time>2026-04-19T14:58:20Z</time></trkpt><trkpt lat="44.97515212909856" lon="9.581486988097344"><ele>99.0</ele><time>2026-04-19T14:58:21Z</time></trkpt><trkpt lat="44.9749257332807" lon="9.581513672081599"><ele>99.66666666666666</ele><time>2026-04-19T14:58:22Z</time></trkpt><trkpt lat="44.97470567080419" lon="9.581539847422588"><ele>100.33333333333333</ele><time>2026-04-19T14:58:23Z</time></trkpt><trkpt lat="44.97449463930102" lon="9.581574350872799"><ele>101.0</ele><time>2026-04-19T14:58:24Z</time></trkpt><trkpt lat="44.9742792763589" lon="9.58165742453356"><ele>101.0</ele><time>2026-04-19T14:58:25Z</time></trkpt><trkpt lat="44.974060437363754" lon="9.581733706665009"><ele>101.0</ele><time>2026-04-19T14:58:26Z</time></trkpt><trkpt lat="44.9738334738864" lon="9.581826115024922"><ele>101.0</ele><time>2026-04-19T14:58:27Z</time></trkpt><trkpt lat="44.97359610951946" lon="9.581923197814465"><ele>101.0</ele><time>2026-04-19T14:58:28Z</time></trkpt><trkpt lat="44.973358073247965" lon="9.582013413055694"><ele>101.0</ele><time>2026-04-19T14:58:29Z</time></trkpt><trkpt lat="44.97312383716095" lon="9.58210407485796"><ele>101.0</ele><time>2026-04-19T14:58:30Z</time></trkpt><trkpt lat="44.97290111344845" lon="9.582195044163601"><ele>101.0</ele><time>2026-04-19T14:58:31Z</time></trkpt><trkpt lat="44.9726814996171" lon="9.582284692675454"><ele>101.0</ele><time>2026-04-19T14:58:32Z</time></trkpt><trkpt lat="44.972464039001906" lon="9.582368455003717"><ele>100.66666666666666</ele><time>2026-04-19T14:58:33Z</time></trkpt><trkpt lat="44.97224675251445" lon="9.582448469209968"><ele>100.33333333333334</ele><time>2026-04-19T14:58:34Z</time></trkpt><trkpt lat="44.9720327980202" lon="9.582528034417232"><ele>100.0</ele><time>2026-04-19T14:58:35Z</time></trkpt><trkpt lat="44.97181974783642" lon="9.582625546309238"><ele>100.0</ele><time>2026-04-19T14:58:36Z</time></trkpt><trkpt lat="44.97161138961687" lon="9.582740512305495"><ele>100.0</ele><time>2026-04-19T14:58:37Z</time></trkpt><trkpt lat="44.97141357422295" lon="9.582876086566502"><ele>100.0</ele><time>2026-04-19T14:58:38Z</time></trkpt><trkpt lat="44.97120936325376" lon="9.583023400115238"><ele>100.0</ele><time>2026-04-19T14:58:39Z</time></trkpt><trkpt lat="44.97098755665222" lon="9.583178434742242"><ele>100.0</ele><time>2026-04-19T14:58:40Z</time></trkpt><trkpt lat="44.97074748505168" lon="9.583345794209531"><ele>101.0</ele><time>2026-04-19T14:58:41Z</time></trkpt><trkpt lat="44.970492601745796" lon="9.58351527475775"><ele>102.0</ele><time>2026-04-19T14:58:42Z</time></trkpt><trkpt lat="44.970224303355565" lon="9.583676690588488"><ele>101.5</ele><time>2026-04-19T14:58:43Z</time></trkpt><trkpt lat="44.969948787503895" lon="9.583840011147425"><ele>101.0</ele><time>2026-04-19T14:58:44Z</time></trkpt><trkpt lat="44.96968742071759" lon="9.583996291927695"><ele>101.0</ele><time>2026-04-19T14:58:45Z</time></trkpt><trkpt lat="44.96945688708822" lon="9.584141564087032"><ele>101.0</ele><time>2026-04-19T14:58:46Z</time></trkpt><trkpt lat="44.96923652658995" lon="9.584280441111662"><ele>102.5</ele><time>2026-04-19T14:58:47Z</time></trkpt><trkpt lat="44.9690091496415" lon="9.58440598165868"><ele>104.0</ele><time>2026-04-19T14:58:48Z</time></trkpt><trkpt lat="44.968780158459744" lon="9.58448946826665"><ele>105.0</ele><time>2026-04-19T14:58:49Z</time></trkpt><trkpt lat="44.96853196385386" lon="9.584555585312785"><ele>106.0</ele><time>2026-04-19T14:58:50Z</time></trkpt><trkpt lat="44.96828387114823" lon="9.584612409827162"><ele>106.0</ele><time>2026-04-19T14:58:51Z</time></trkpt><trkpt lat="44.96804209432341" lon="9.58468188158548"><ele>106.0</ele><time>2026-04-19T14:58:52Z</time></trkpt><trkpt lat="44.96779341669007" lon="9.584756771413304"><ele>106.0</ele><time>2026-04-19T14:58:53Z</time></trkpt><trkpt lat="44.96753876536083" lon="9.584832145894502"><ele>106.0</ele><time>2026-04-19T14:58:54Z</time></trkpt><trkpt lat="44.96728101178177" lon="9.584910523852503"><ele>107.0</ele><time>2026-04-19T14:58:55Z</time></trkpt><trkpt lat="44.967018587377865" lon="9.584992143658983"><ele>108.0</ele><time>2026-04-19T14:58:56Z</time></trkpt><trkpt lat="44.96675599138699" lon="9.585071367109721"><ele>108.0</ele><time>2026-04-19T14:58:57Z</time></trkpt><trkpt lat="44.96649136892989" lon="9.585147949817962"><ele>108.0</ele><time>2026-04-19T14:58:58Z</time></trkpt><trkpt lat="44.96623049151294" lon="9.585222908446735"><ele>108.0</ele><time>2026-04-19T14:58:59Z</time></trkpt><trkpt lat="44.96597240216563" lon="9.585297828227574"><ele>108.0</ele><time>2026-04-19T14:59:00Z</time></trkpt><trkpt lat="44.96571402856741" lon="9.585370592821565"><ele>109.0</ele><time>2026-04-19T14:59:01Z</time></trkpt><trkpt lat="44.96545669821468" lon="9.585441479738718"><ele>110.0</ele><time>2026-04-19T14:59:02Z</time></trkpt><trkpt lat="44.96520256762207" lon="9.5855130789573"><ele>111.0</ele><time>2026-04-19T14:59:03Z</time></trkpt><trkpt lat="44.964948818272376" lon="9.58558392742108"><ele>112.0</ele><time>2026-04-19T14:59:04Z</time></trkpt><trkpt lat="44.96469787007447" lon="9.58565685161223"><ele>112.0</ele><time>2026-04-19T14:59:05Z</time></trkpt><trkpt lat="44.96445007420064" lon="9.585727863518716"><ele>112.0</ele><time>2026-04-19T14:59:06Z</time></trkpt><trkpt lat="44.964206115818044" lon="9.585798745738932"><ele>113.5</ele><time>2026-04-19T14:59:07Z</time></trkpt><trkpt lat="44.963962874771546" lon="9.5858720961961"><ele>115.0</ele><time>2026-04-19T14:59:08Z</time></trkpt><trkpt lat="44.96372275744004" lon="9.585947221670333"><ele>115.0</ele><time>2026-04-19T14:59:09Z</time></trkpt><trkpt lat="44.963483844974526" lon="9.586025512637988"><ele>115.0</ele><time>2026-04-19T14:59:10Z</time></trkpt><trkpt lat="44.963245980499934" lon="9.586100342697312"><ele>115.5</ele><time>2026-04-19T14:59:11Z</time></trkpt><trkpt lat="44.96300979743728" lon="9.586167286866523"><ele>116.0</ele><time>2026-04-19T14:59:12Z</time></trkpt><trkpt lat="44.96277576008873" lon="9.586233248394901"><ele>116.0</ele><time>2026-04-19T14:59:13Z</time></trkpt><trkpt lat="44.962542522788866" lon="9.586302591369034"><ele>116.0</ele><time>2026-04-19T14:59:14Z</time></trkpt><trkpt lat="44.96230945309164" lon="9.58637511384571"><ele>118.0</ele><time>2026-04-19T14:59:15Z</time></trkpt><trkpt lat="44.962076558459145" lon="9.586442716263301"><ele>120.0</ele><time>2026-04-19T14:59:16Z</time></trkpt><trkpt lat="44.96184347766802" lon="9.586514629756962"><ele>121.0</ele><time>2026-04-19T14:59:17Z</time></trkpt><trkpt lat="44.9616132864813" lon="9.586583178192468"><ele>122.0</ele><time>2026-04-19T14:59:18Z</time></trkpt><trkpt lat="44.9613854805602" lon="9.58664378850218"><ele>122.0</ele><time>2026-04-19T14:59:19Z</time></trkpt><trkpt lat="44.96115811067426" lon="9.586704701112865"><ele>122.0</ele><time>2026-04-19T14:59:20Z</time></trkpt><trkpt lat="44.96092314273313" lon="9.58677767014499"><ele>121.5</ele><time>2026-04-19T14:59:21Z</time></trkpt><trkpt lat="44.96068545342054" lon="9.586855846720228"><ele>121.0</ele><time>2026-04-19T14:59:22Z</time></trkpt><trkpt lat="44.96044717227267" lon="9.586922572841289"><ele>121.0</ele><time>2026-04-19T14:59:23Z</time></trkpt><trkpt lat="44.960208895813906" lon="9.586990662822206"><ele>121.0</ele><time>2026-04-19T14:59:24Z</time></trkpt><trkpt lat="44.95996875354603" lon="9.587060074501288"><ele>122.0</ele><time>2026-04-19T14:59:25Z</time></trkpt><trkpt lat="44.95972861845016" lon="9.587136597032636"><ele>123.0</ele><time>2026-04-19T14:59:26Z</time></trkpt><trkpt lat="44.9594909992353" lon="9.587228179643294"><ele>123.0</ele><time>2026-04-19T14:59:27Z</time></trkpt><trkpt lat="44.95925578289829" lon="9.587337542788159"><ele>123.0</ele><time>2026-04-19T14:59:28Z</time></trkpt><trkpt lat="44.959018107660484" lon="9.587444015433183"><ele>123.5</ele><time>2026-04-19T14:59:29Z</time></trkpt><trkpt lat="44.95877754651156" lon="9.587543971101912"><ele>124.0</ele><time>2026-04-19T14:59:30Z</time></trkpt><trkpt lat="44.9585390748783" lon="9.587638025997563"><ele>124.66666666666667</ele><time>2026-04-19T14:59:31Z</time></trkpt><trkpt lat="44.9583177125535" lon="9.587713566338488"><ele>125.33333333333334</ele><time>2026-04-19T14:59:32Z</time></trkpt><trkpt lat="44.958108296212544" lon="9.58774906525327"><ele>126.0</ele><time>2026-04-19T14:59:33Z</time></trkpt><trkpt lat="44.95790885397128" lon="9.587728157519999"><ele>126.0</ele><time>2026-04-19T14:59:34Z</time></trkpt><trkpt lat="44.95770288683487" lon="9.587644109948327"><ele>126.0</ele><time>2026-04-19T14:59:35Z</time></trkpt><trkpt lat="44.95747832721931" lon="9.587601098566752"><ele>126.0</ele><time>2026-04-19T14:59:36Z</time></trkpt><trkpt lat="44.95725238572408" lon="9.58753612018931"><ele>126.0</ele><time>2026-04-19T14:59:37Z</time></trkpt><trkpt lat="44.95703718356673" lon="9.587487827377823"><ele>126.0</ele><time>2026-04-19T14:59:38Z</time></trkpt><trkpt lat="44.95683252279397" lon="9.587448740437685"><ele>126.0</ele><time>2026-04-19T14:59:39Z</time></trkpt><trkpt lat="44.95662621746254" lon="9.587438489568395"><ele>126.66666666666666</ele><time>2026-04-19T14:59:40Z</time></trkpt><trkpt lat="44.956413224122876" lon="9.58747554436864"><ele>127.33333333333333</ele><time>2026-04-19T14:59:41Z</time></trkpt><trkpt lat="44.95619662954031" lon="9.587547441701451"><ele>128.0</ele><time>2026-04-19T14:59:42Z</time></trkpt><trkpt lat="44.955970428989886" lon="9.587612303210562"><ele>128.0</ele><time>2026-04-19T14:59:43Z</time></trkpt><trkpt lat="44.955749933303515" lon="9.587671388663544"><ele>128.0</ele><time>2026-04-19T14:59:44Z</time></trkpt><trkpt lat="44.95553906786177" lon="9.587720262676276"><ele>128.0</ele><time>2026-04-19T14:59:45Z</time></trkpt><trkpt lat="44.95533907460049" lon="9.587713354209294"><ele>128.0</ele><time>2026-04-19T14:59:46Z</time></trkpt><trkpt lat="44.95514710921249" lon="9.587694628307927"><ele>128.0</ele><time>2026-04-19T14:59:47Z</time></trkpt><trkpt lat="44.95495756204049" lon="9.587642069801678"><ele>128.0</ele><time>2026-04-19T14:59:48Z</time></trkpt><trkpt lat="44.954760216891025" lon="9.587556900584826"><ele>129.0</ele><time>2026-04-19T14:59:49Z</time></trkpt><trkpt lat="44.954540327143285" lon="9.587483984064242"><ele>130.0</ele><time>2026-04-19T14:59:50Z</time></trkpt><trkpt lat="44.954315067853585" lon="9.587377679165924"><ele>130.0</ele><time>2026-04-19T14:59:51Z</time></trkpt><trkpt lat="44.95409216908075" lon="9.58727636984487"><ele>130.0</ele><time>2026-04-19T14:59:52Z</time></trkpt><trkpt lat="44.95388550791247" lon="9.587190877023485"><ele>130.0</ele><time>2026-04-19T14:59:53Z</time></trkpt><trkpt lat="44.9536952145999" lon="9.58711235848025"><ele>130.0</ele><time>2026-04-19T14:59:54Z</time></trkpt><trkpt lat="44.953517291134546" lon="9.587039099627653"><ele>130.0</ele><time>2026-04-19T14:59:55Z</time></trkpt><trkpt lat="44.95334732162641" lon="9.586990300864544"><ele>130.0</ele><time>2026-04-19T14:59:56Z</time></trkpt><trkpt lat="44.95318318376711" lon="9.58697650098883"><ele>130.0</ele><time>2026-04-19T14:59:57Z</time></trkpt><trkpt lat="44.953008666252934" lon="9.586996884897601"><ele>130.0</ele><time>2026-04-19T14:59:58Z</time></trkpt><trkpt lat="44.95284021086714" lon="9.587063962871943"><ele>130.0</ele><time>2026-04-19T14:59:59Z</time></trkpt><trkpt lat="44.952683150324496" lon="9.587167931873205"><ele>131.33333333333334</ele><time>2026-04-19T15:00:00Z</time></trkpt><trkpt lat="44.95252920387882" lon="9.587278803800194"><ele>132.66666666666666</ele><time>2026-04-19T15:00:01Z</time></trkpt><trkpt lat="44.952363240144656" lon="9.587379829265"><ele>134.0</ele><time>2026-04-19T15:00:02Z</time></trkpt><trkpt lat="44.95219758192444" lon="9.587473496855269"><ele>134.0</ele><time>2026-04-19T15:00:03Z</time></trkpt><trkpt lat="44.952030608866686" lon="9.587569444149185"><ele>134.0</ele><time>2026-04-19T15:00:04Z</time></trkpt><trkpt lat="44.951859930029286" lon="9.587658071248534"><ele>134.0</ele><time>2026-04-19T15:00:05Z</time></trkpt><trkpt lat="44.95169812131897" lon="9.587794943556062"><ele>133.66666666666666</ele><time>2026-04-19T15:00:06Z</time></trkpt><trkpt lat="44.9515528990428" lon="9.587968741207858"><ele>133.33333333333334</ele><time>2026-04-19T15:00:07Z</time></trkpt><trkpt lat="44.95140258739924" lon="9.588135406538356"><ele>133.0</ele><time>2026-04-19T15:00:08Z</time></trkpt><trkpt lat="44.95125490984668" lon="9.588309868335424"><ele>133.0</ele><time>2026-04-19T15:00:09Z</time></trkpt><trkpt lat="44.95110669968404" lon="9.588479772446142"><ele>133.0</ele><time>2026-04-19T15:00:10Z</time></trkpt><trkpt lat="44.95096292122514" lon="9.588641190382004"><ele>133.0</ele><time>2026-04-19T15:00:11Z</time></trkpt><trkpt lat="44.950822016538496" lon="9.588794045505116"><ele>132.33333333333334</ele><time>2026-04-19T15:00:12Z</time></trkpt><trkpt lat="44.95067495362982" lon="9.588907989659559"><ele>131.66666666666666</ele><time>2026-04-19T15:00:13Z</time></trkpt><trkpt lat="44.95052702841608" lon="9.589026449375337"><ele>131.0</ele><time>2026-04-19T15:00:14Z</time></trkpt><trkpt lat="44.950368175763565" lon="9.58914608013296"><ele>131.0</ele><time>2026-04-19T15:00:15Z</time></trkpt><trkpt lat="44.95021043042062" lon="9.58928490080684"><ele>131.0</ele><time>2026-04-19T15:00:16Z</time></trkpt><trkpt lat="44.9500501051194" lon="9.58939503978794"><ele>131.0</ele><time>2026-04-19T15:00:17Z</time></trkpt><trkpt lat="44.949909777572444" lon="9.589501648420457"><ele>131.75</ele><time>2026-04-19T15:00:18Z</time></trkpt><trkpt lat="44.94977558949524" lon="9.589599989346295"><ele>132.5</ele><time>2026-04-19T15:00:19Z</time></trkpt><trkpt lat="44.94963941192921" lon="9.58968135939888"><ele>133.25</ele><time>2026-04-19T15:00:20Z</time></trkpt><trkpt lat="44.9495168461355" lon="9.589788187082611"><ele>134.0</ele><time>2026-04-19T15:00:21Z</time></trkpt><trkpt lat="44.94939359050094" lon="9.589887084441184"><ele>134.0</ele><time>2026-04-19T15:00:22Z</time></trkpt><trkpt lat="44.9492696005457" lon="9.589972093600615"><ele>134.0</ele><time>2026-04-19T15:00:23Z</time></trkpt><trkpt lat="44.94914064975796" lon="9.590045956975082"><ele>134.0</ele><time>2026-04-19T15:00:24Z</time></trkpt><trkpt lat="44.94899415712064" lon="9.590049542985525"><ele>134.0</ele><time>2026-04-19T15:00:25Z</time></trkpt><trkpt lat="44.948853615638896" lon="9.590060528194826"><ele>133.75</ele><time>2026-04-19T15:00:26Z</time></trkpt><trkpt lat="44.94870909023429" lon="9.59007287391595"><ele>133.5</ele><time>2026-04-19T15:00:27Z</time></trkpt><trkpt lat="44.94857010120268" lon="9.590011282495025"><ele>133.25</ele><time>2026-04-19T15:00:28Z</time></trkpt><trkpt lat="44.94842921684803" lon="9.589949870092788"><ele>133.0</ele><time>2026-04-19T15:00:29Z</time></trkpt><trkpt lat="44.94828515513142" lon="9.58988321766764"><ele>131.66666666666669</ele><time>2026-04-19T15:00:30Z</time></trkpt><trkpt lat="44.948140738843314" lon="9.589816401033877"><ele>130.33333333333334</ele><time>2026-04-19T15:00:31Z</time></trkpt><trkpt lat="44.94799748150681" lon="9.589750120655358"><ele>129.0</ele><time>2026-04-19T15:00:32Z</time></trkpt><trkpt lat="44.94785518522229" lon="9.589683983496968"><ele>129.0</ele><time>2026-04-19T15:00:33Z</time></trkpt><trkpt lat="44.94771657890909" lon="9.589618856916026"><ele>129.0</ele><time>2026-04-19T15:00:34Z</time></trkpt><trkpt lat="44.947575404426765" lon="9.589552523574136"><ele>129.0</ele><time>2026-04-19T15:00:35Z</time></trkpt><trkpt lat="44.9474256703579" lon="9.589482168391346"><ele>130.0</ele><time>2026-04-19T15:00:36Z</time></trkpt><trkpt lat="44.94727152044246" lon="9.589409738358475"><ele>131.0</ele><time>2026-04-19T15:00:37Z</time></trkpt><trkpt lat="44.94712288721166" lon="9.589339900339532"><ele>132.0</ele><time>2026-04-19T15:00:38Z</time></trkpt><trkpt lat="44.946971790951096" lon="9.589270334579771"><ele>132.0</ele><time>2026-04-19T15:00:39Z</time></trkpt><trkpt lat="44.94682218468171" lon="9.589202292230935"><ele>132.0</ele><time>2026-04-19T15:00:40Z</time></trkpt><trkpt lat="44.9466777465524" lon="9.589143463376962"><ele>132.0</ele><time>2026-04-19T15:00:41Z</time></trkpt><trkpt lat="44.94652421354341" lon="9.58911171903088"><ele>132.66666666666666</ele><time>2026-04-19T15:00:42Z</time></trkpt><trkpt lat="44.94636383053367" lon="9.589079330272774"><ele>133.33333333333331</ele><time>2026-04-19T15:00:43Z</time></trkpt><trkpt lat="44.94620347220292" lon="9.589075350992166"><ele>134.0</ele><time>2026-04-19T15:00:44Z</time></trkpt><trkpt lat="44.94604299439978" lon="9.589088158422054"><ele>134.33333333333331</ele><time>2026-04-19T15:00:45Z</time></trkpt><trkpt lat="44.94587830833953" lon="9.589075419953595"><ele>134.66666666666666</ele><time>2026-04-19T15:00:46Z</time></trkpt><trkpt lat="44.94571170882429" lon="9.589085422667345"><ele>135.0</ele><time>2026-04-19T15:00:47Z</time></trkpt><trkpt lat="44.94554327457464" lon="9.589096741723996"><ele>135.0</ele><time>2026-04-19T15:00:48Z</time></trkpt><trkpt lat="44.945381108187355" lon="9.589108464513128"><ele>135.0</ele><time>2026-04-19T15:00:49Z</time></trkpt><trkpt lat="44.94522108027127" lon="9.58912068474026"><ele>135.0</ele><time>2026-04-19T15:00:50Z</time></trkpt><trkpt lat="44.94505725092494" lon="9.58913319526539"><ele>135.0</ele><time>2026-04-19T15:00:51Z</time></trkpt><trkpt lat="44.94489071313925" lon="9.589145912625519"><ele>135.0</ele><time>2026-04-19T15:00:52Z</time></trkpt><trkpt lat="44.94472701084103" lon="9.589158413446064"><ele>135.0</ele><time>2026-04-19T15:00:53Z</time></trkpt><trkpt lat="44.94456735364805" lon="9.58917017954527"><ele>135.0</ele><time>2026-04-19T15:00:54Z</time></trkpt><trkpt lat="44.94441335746384" lon="9.589181496577696"><ele>135.0</ele><time>2026-04-19T15:00:55Z</time></trkpt><trkpt lat="44.94425531657258" lon="9.589193112814147"><ele>135.0</ele><time>2026-04-19T15:00:56Z</time></trkpt><trkpt lat="44.94409485588684" lon="9.589204904920601"><ele>135.66666666666666</ele><time>2026-04-19T15:00:57Z</time></trkpt><trkpt lat="44.9439339263903" lon="9.589217718512147"><ele>136.33333333333331</ele><time>2026-04-19T15:00:58Z</time></trkpt><trkpt lat="44.9437760190634" lon="9.589242132836814"><ele>137.0</ele><time>2026-04-19T15:00:59Z</time></trkpt><trkpt lat="44.94361418966599" lon="9.589280749246008"><ele>137.0</ele><time>2026-04-19T15:01:00Z</time></trkpt><trkpt lat="44.943438410364806" lon="9.589335121033733"><ele>137.0</ele><time>2026-04-19T15:01:01Z</time></trkpt><trkpt lat="44.94323608423479" lon="9.58941916663007"><ele>137.0</ele><time>2026-04-19T15:01:02Z</time></trkpt><trkpt lat="44.94301343021716" lon="9.589526754320941"><ele>133.5</ele><time>2026-04-19T15:01:03Z</time></trkpt><trkpt lat="44.942757757367076" lon="9.589654536978951"><ele>130.0</ele><time>2026-04-19T15:01:04Z</time></trkpt><trkpt lat="44.942476797058134" lon="9.589794802859508"><ele>130.0</ele><time>2026-04-19T15:01:05Z</time></trkpt><trkpt lat="44.9421705660223" lon="9.589947308344195"><ele>130.0</ele><time>2026-04-19T15:01:06Z</time></trkpt><trkpt lat="44.941881769219385" lon="9.590104237773753"><ele>133.0</ele><time>2026-04-19T15:01:07Z</time></trkpt><trkpt lat="44.941631542540925" lon="9.590175863339933"><ele>136.0</ele><time>2026-04-19T15:01:08Z</time></trkpt><trkpt lat="44.9414307247955" lon="9.590268314264158"><ele>128.5</ele><time>2026-04-19T15:01:09Z</time></trkpt><trkpt lat="44.941223806558725" lon="9.59037609077109"><ele>121.0</ele><time>2026-04-19T15:01:10Z</time></trkpt><trkpt lat="44.940982811185144" lon="9.590510156578429"><ele>123.0</ele><time>2026-04-19T15:01:11Z</time></trkpt><trkpt lat="44.94073478806634" lon="9.590548243041834"><ele>125.0</ele><time>2026-04-19T15:01:12Z</time></trkpt><trkpt lat="44.94045177010317" lon="9.59056209866367"><ele>125.0</ele><time>2026-04-19T15:01:13Z</time></trkpt><trkpt lat="44.94014799622273" lon="9.590601010134154"><ele>125.0</ele><time>2026-04-19T15:01:14Z</time></trkpt><trkpt lat="44.939821524341625" lon="9.590666164264706"><ele>125.0</ele><time>2026-04-19T15:01:15Z</time></trkpt><trkpt lat="44.93947220185567" lon="9.590687577133851"><ele>125.0</ele><time>2026-04-19T15:01:16Z</time></trkpt><trkpt lat="44.93910836112862" lon="9.590734182901892"><ele>125.0</ele><time>2026-04-19T15:01:17Z</time></trkpt><trkpt lat="44.93873909021262" lon="9.590780403199638"><ele>125.0</ele><time>2026-04-19T15:01:18Z</time></trkpt><trkpt lat="44.938381697083265" lon="9.59084968276137"><ele>127.0</ele><time>2026-04-19T15:01:19Z</time></trkpt><trkpt lat="44.93803912951695" lon="9.590871159045786"><ele>129.0</ele><time>2026-04-19T15:01:20Z</time></trkpt><trkpt lat="44.93773640326465" lon="9.590930799111876"><ele>135.0</ele><time>2026-04-19T15:01:21Z</time></trkpt><trkpt lat="44.93748589499668" lon="9.59096098556768"><ele>141.0</ele><time>2026-04-19T15:01:22Z</time></trkpt><trkpt lat="44.93727029058517" lon="9.590995061742108"><ele>141.0</ele><time>2026-04-19T15:01:23Z</time></trkpt><trkpt lat="44.937073529699475" lon="9.59099661964971"><ele>141.0</ele><time>2026-04-19T15:01:24Z</time></trkpt><trkpt lat="44.93690441655781" lon="9.591009770852498"><ele>141.0</ele><time>2026-04-19T15:01:25Z</time></trkpt><trkpt lat="44.936740795329165" lon="9.590986888532905"><ele>141.33333333333334</ele><time>2026-04-19T15:01:26Z</time></trkpt><trkpt lat="44.936566415584196" lon="9.590913986612229"><ele>141.66666666666669</ele><time>2026-04-19T15:01:27Z</time></trkpt><trkpt lat="44.936373157380764" lon="9.590794290087684"><ele>142.0</ele><time>2026-04-19T15:01:28Z</time></trkpt><trkpt lat="44.9361560973586" lon="9.590675311161261"><ele>142.0</ele><time>2026-04-19T15:01:29Z</time></trkpt><trkpt lat="44.93593120012449" lon="9.590526852877472"><ele>142.0</ele><time>2026-04-19T15:01:30Z</time></trkpt><trkpt lat="44.9356911646075" lon="9.590375813790846"><ele>144.0</ele><time>2026-04-19T15:01:31Z</time></trkpt><trkpt lat="44.935444196531606" lon="9.590206172653822"><ele>146.0</ele><time>2026-04-19T15:01:32Z</time></trkpt><trkpt lat="44.935204613079144" lon="9.590067087304115"><ele>141.5</ele><time>2026-04-19T15:01:33Z</time></trkpt><trkpt lat="44.93495018509836" lon="9.58991423437959"><ele>137.0</ele><time>2026-04-19T15:01:34Z</time></trkpt><trkpt lat="44.93469503675798" lon="9.589758941378756"><ele>137.0</ele><time>2026-04-19T15:01:35Z</time></trkpt><trkpt lat="44.934450172987184" lon="9.589583387166732"><ele>137.0</ele><time>2026-04-19T15:01:36Z</time></trkpt><trkpt lat="44.934202839411455" lon="9.589428263265141"><ele>143.0</ele><time>2026-04-19T15:01:37Z</time></trkpt><trkpt lat="44.93395628618859" lon="9.589273627858178"><ele>149.0</ele><time>2026-04-19T15:01:38Z</time></trkpt><trkpt lat="44.93371214993924" lon="9.589120508052419"><ele>149.0</ele><time>2026-04-19T15:01:39Z</time></trkpt><trkpt lat="44.93346784080385" lon="9.588968786226369"><ele>149.0</ele><time>2026-04-19T15:01:40Z</time></trkpt><trkpt lat="44.933217134216726" lon="9.588845659752566"><ele>152.5</ele><time>2026-04-19T15:01:41Z</time></trkpt><trkpt lat="44.932977987044396" lon="9.588696946804905"><ele>156.0</ele><time>2026-04-19T15:01:42Z</time></trkpt><trkpt lat="44.932741145531836" lon="9.588551909785792"><ele>150.0</ele><time>2026-04-19T15:01:43Z</time></trkpt><trkpt lat="44.93250788160087" lon="9.588397683140174"><ele>144.0</ele><time>2026-04-19T15:01:44Z</time></trkpt><trkpt lat="44.93227459201415" lon="9.588250842911279"><ele>144.0</ele><time>2026-04-19T15:01:45Z</time></trkpt><trkpt lat="44.93204400494335" lon="9.588109564385249"><ele>144.0</ele><time>2026-04-19T15:01:46Z</time></trkpt><trkpt lat="44.931815112597924" lon="9.587967545635069"><ele>146.0</ele><time>2026-04-19T15:01:47Z</time></trkpt><trkpt lat="44.931594147275405" lon="9.58782477734555"><ele>148.0</ele><time>2026-04-19T15:01:48Z</time></trkpt><trkpt lat="44.931378459641046" lon="9.587681422697472"><ele>148.0</ele><time>2026-04-19T15:01:49Z</time></trkpt><trkpt lat="44.93116384483298" lon="9.587553112495288"><ele>148.0</ele><time>2026-04-19T15:01:50Z</time></trkpt><trkpt lat="44.930953990089975" lon="9.587425016732329"><ele>143.0</ele><time>2026-04-19T15:01:51Z</time></trkpt><trkpt lat="44.93074050287806" lon="9.587296886311972"><ele>138.0</ele><time>2026-04-19T15:01:52Z</time></trkpt><trkpt lat="44.93052528271413" lon="9.587167276813076"><ele>138.0</ele><time>2026-04-19T15:01:53Z</time></trkpt><trkpt lat="44.93030964905351" lon="9.587038446303596"><ele>138.0</ele><time>2026-04-19T15:01:54Z</time></trkpt><trkpt lat="44.930096604600195" lon="9.58690520883509"><ele>136.5</ele><time>2026-04-19T15:01:55Z</time></trkpt><trkpt lat="44.929884810706284" lon="9.586773840150364"><ele>135.0</ele><time>2026-04-19T15:01:56Z</time></trkpt><trkpt lat="44.92967536068518" lon="9.586642129141447"><ele>135.0</ele><time>2026-04-19T15:01:57Z</time></trkpt><trkpt lat="44.92946860193608" lon="9.586515917735799"><ele>135.0</ele><time>2026-04-19T15:01:58Z</time></trkpt><trkpt lat="44.92926881639149" lon="9.586392672495789"><ele>135.0</ele><time>2026-04-19T15:01:59Z</time></trkpt><trkpt lat="44.92906938180214" lon="9.5862800156827"><ele>135.0</ele><time>2026-04-19T15:02:00Z</time></trkpt><trkpt lat="44.92886418531124" lon="9.586162655824536"><ele>135.0</ele><time>2026-04-19T15:02:01Z</time></trkpt><trkpt lat="44.92865982774601" lon="9.586036224581518"><ele>135.0</ele><time>2026-04-19T15:02:02Z</time></trkpt><trkpt lat="44.928453977700585" lon="9.585908037372999"><ele>135.0</ele><time>2026-04-19T15:02:03Z</time></trkpt><trkpt lat="44.92824610786383" lon="9.58577630728029"><ele>135.0</ele><time>2026-04-19T15:02:04Z</time></trkpt><trkpt lat="44.92803499307828" lon="9.585645631634485"><ele>135.0</ele><time>2026-04-19T15:02:05Z</time></trkpt><trkpt lat="44.927828027614815" lon="9.585519729017191"><ele>135.0</ele><time>2026-04-19T15:02:06Z</time></trkpt><trkpt lat="44.92762543460136" lon="9.585395889524845"><ele>135.0</ele><time>2026-04-19T15:02:07Z</time></trkpt><trkpt lat="44.92742636827906" lon="9.58527067715527"><ele>134.66666666666666</ele><time>2026-04-19T15:02:08Z</time></trkpt><trkpt lat="44.927229030793214" lon="9.585149270368913"><ele>134.33333333333331</ele><time>2026-04-19T15:02:09Z</time></trkpt><trkpt lat="44.927033122152636" lon="9.58502938496063"><ele>134.0</ele><time>2026-04-19T15:02:10Z</time></trkpt><trkpt lat="44.92683973269426" lon="9.584913624851147"><ele>134.0</ele><time>2026-04-19T15:02:11Z</time></trkpt><trkpt lat="44.926643920703164" lon="9.584804515541494"><ele>134.0</ele><time>2026-04-19T15:02:12Z</time></trkpt><trkpt lat="44.9264399503405" lon="9.584694595549104"><ele>134.0</ele><time>2026-04-19T15:02:13Z</time></trkpt><trkpt lat="44.92622715725461" lon="9.58457453891147"><ele>135.0</ele><time>2026-04-19T15:02:14Z</time></trkpt><trkpt lat="44.92600880264753" lon="9.584431179284357"><ele>136.0</ele><time>2026-04-19T15:02:15Z</time></trkpt><trkpt lat="44.92578669796026" lon="9.584280332184363"><ele>136.5</ele><time>2026-04-19T15:02:16Z</time></trkpt><trkpt lat="44.925547193827526" lon="9.584123756736675"><ele>137.0</ele><time>2026-04-19T15:02:17Z</time></trkpt><trkpt lat="44.92530183066997" lon="9.58397271889602"><ele>137.5</ele><time>2026-04-19T15:02:18Z</time></trkpt><trkpt lat="44.925061683490455" lon="9.58382728489468"><ele>138.0</ele><time>2026-04-19T15:02:19Z</time></trkpt><trkpt lat="44.92482364537934" lon="9.583681623999611"><ele>139.5</ele><time>2026-04-19T15:02:20Z</time></trkpt><trkpt lat="44.92459227205234" lon="9.583541586887712"><ele>141.0</ele><time>2026-04-19T15:02:21Z</time></trkpt><trkpt lat="44.924377704150274" lon="9.583409611371003"><ele>143.0</ele><time>2026-04-19T15:02:22Z</time></trkpt><trkpt lat="44.924176985573006" lon="9.583279836069163"><ele>145.0</ele><time>2026-04-19T15:02:23Z</time></trkpt><trkpt lat="44.92399436556263" lon="9.58315896812389"><ele>147.0</ele><time>2026-04-19T15:02:24Z</time></trkpt><trkpt lat="44.92381621006246" lon="9.583083554085658"><ele>147.0</ele><time>2026-04-19T15:02:25Z</time></trkpt><trkpt lat="44.9236241797658" lon="9.583036968956764"><ele>147.0</ele><time>2026-04-19T15:02:26Z</time></trkpt><trkpt lat="44.923415181432865" lon="9.582996691801132"><ele>147.0</ele><time>2026-04-19T15:02:27Z</time></trkpt><trkpt lat="44.92319184911319" lon="9.582952330678568"><ele>146.66666666666666</ele><time>2026-04-19T15:02:28Z</time></trkpt><trkpt lat="44.922987085456136" lon="9.58289009992461"><ele>146.33333333333331</ele><time>2026-04-19T15:02:29Z</time></trkpt><trkpt lat="44.92279619196287" lon="9.582839641115212"><ele>146.0</ele><time>2026-04-19T15:02:30Z</time></trkpt><trkpt lat="44.92260173705372" lon="9.58278449017476"><ele>149.0</ele><time>2026-04-19T15:02:31Z</time></trkpt><trkpt lat="44.92241891819844" lon="9.58273926809823"><ele>152.0</ele><time>2026-04-19T15:02:32Z</time></trkpt><trkpt lat="44.922245783272444" lon="9.582718580721604"><ele>155.0</ele><time>2026-04-19T15:02:33Z</time></trkpt><trkpt lat="44.92206753062647" lon="9.582726847864809"><ele>155.0</ele><time>2026-04-19T15:02:34Z</time></trkpt><trkpt lat="44.921867770117906" lon="9.582745911101988"><ele>155.0</ele><time>2026-04-19T15:02:35Z</time></trkpt><trkpt lat="44.92164791426584" lon="9.582773124866753"><ele>155.0</ele><time>2026-04-19T15:02:36Z</time></trkpt><trkpt lat="44.921441272977205" lon="9.582834168936213"><ele>152.0</ele><time>2026-04-19T15:02:37Z</time></trkpt><trkpt lat="44.92122102291009" lon="9.582897126686166"><ele>149.0</ele><time>2026-04-19T15:02:38Z</time></trkpt><trkpt lat="44.920998646971405" lon="9.58296302017161"><ele>148.5</ele><time>2026-04-19T15:02:39Z</time></trkpt><trkpt lat="44.92077460600276" lon="9.583032463852184"><ele>148.0</ele><time>2026-04-19T15:02:40Z</time></trkpt><trkpt lat="44.92055124610817" lon="9.583095871684106"><ele>148.0</ele><time>2026-04-19T15:02:41Z</time></trkpt><trkpt lat="44.92033224265831" lon="9.583159030249881"><ele>148.0</ele><time>2026-04-19T15:02:42Z</time></trkpt><trkpt lat="44.92012756120033" lon="9.583214565114949"><ele>148.0</ele><time>2026-04-19T15:02:43Z</time></trkpt><trkpt lat="44.919936514272" lon="9.583263914661739"><ele>149.0</ele><time>2026-04-19T15:02:44Z</time></trkpt><trkpt lat="44.91975830932797" lon="9.583308722505977"><ele>150.0</ele><time>2026-04-19T15:02:45Z</time></trkpt><trkpt lat="44.91957957205107" lon="9.583331003328519"><ele>151.0</ele><time>2026-04-19T15:02:46Z</time></trkpt><trkpt lat="44.919395116176624" lon="9.583275717723833"><ele>151.66666666666669</ele><time>2026-04-19T15:02:47Z</time></trkpt><trkpt lat="44.91920808750174" lon="9.583222033664342"><ele>152.33333333333334</ele><time>2026-04-19T15:02:48Z</time></trkpt><trkpt lat="44.91902255799324" lon="9.583159583196407"><ele>153.0</ele><time>2026-04-19T15:02:49Z</time></trkpt><trkpt lat="44.91884822313599" lon="9.583100659524257"><ele>153.0</ele><time>2026-04-19T15:02:50Z</time></trkpt><trkpt lat="44.918687745650026" lon="9.583045314690064"><ele>153.0</ele><time>2026-04-19T15:02:51Z</time></trkpt><trkpt lat="44.91853685289616" lon="9.582990870783664"><ele>153.0</ele><time>2026-04-19T15:02:52Z</time></trkpt><trkpt lat="44.91840460636539" lon="9.582938039495266"><ele>153.0</ele><time>2026-04-19T15:02:53Z</time></trkpt><trkpt lat="44.91829679560092" lon="9.582888730002532"><ele>153.0</ele><time>2026-04-19T15:02:54Z</time></trkpt><trkpt lat="44.91819496636498" lon="9.582835943253283"><ele>153.0</ele><time>2026-04-19T15:02:55Z</time></trkpt><trkpt lat="44.918099972364516" lon="9.582785394355472"><ele>153.0</ele><time>2026-04-19T15:02:56Z</time></trkpt><trkpt lat="44.91800600593555" lon="9.58273781714853"><ele>153.0</ele><time>2026-04-19T15:02:57Z</time></trkpt><trkpt lat="44.91789839310657" lon="9.582689607911053"><ele>153.0</ele><time>2026-04-19T15:02:58Z</time></trkpt><trkpt lat="44.9177813353862" lon="9.582648345275999"><ele>153.0</ele><time>2026-04-19T15:02:59Z</time></trkpt><trkpt lat="44.91765726756801" lon="9.582627513889285"><ele>153.0</ele><time>2026-04-19T15:03:00Z</time></trkpt><trkpt lat="44.91753704469798" lon="9.58258969943613"><ele>153.0</ele><time>2026-04-19T15:03:01Z</time></trkpt><trkpt lat="44.91741485204957" lon="9.5825511986432"><ele>152.5</ele><time>2026-04-19T15:03:02Z</time></trkpt><trkpt lat="44.91730031758402" lon="9.5825030102255"><ele>152.0</ele><time>2026-04-19T15:03:03Z</time></trkpt><trkpt lat="44.91718336439231" lon="9.582461877924995"><ele>151.5</ele><time>2026-04-19T15:03:04Z</time></trkpt><trkpt lat="44.917071902742286" lon="9.582413452191313"><ele>151.0</ele><time>2026-04-19T15:03:05Z</time></trkpt><trkpt lat="44.91697449220724" lon="9.582411270022236"><ele>151.0</ele><time>2026-04-19T15:03:06Z</time></trkpt><trkpt lat="44.91689008128573" lon="9.582460661069035"><ele>151.0</ele><time>2026-04-19T15:03:07Z</time></trkpt><trkpt lat="44.916812821003305" lon="9.582505230950746"><ele>151.0</ele><time>2026-04-19T15:03:08Z</time></trkpt><trkpt lat="44.91673263558743" lon="9.58257399138806"><ele>151.0</ele><time>2026-04-19T15:03:09Z</time></trkpt><trkpt lat="44.916645406109254" lon="9.582655954530637"><ele>151.0</ele><time>2026-04-19T15:03:10Z</time></trkpt><trkpt lat="44.916545948111526" lon="9.582725536530333"><ele>151.0</ele><time>2026-04-19T15:03:11Z</time></trkpt><trkpt lat="44.91645242898593" lon="9.582816720530317"><ele>151.0</ele><time>2026-04-19T15:03:12Z</time></trkpt><trkpt lat="44.9163526362326" lon="9.582901555576333"><ele>151.0</ele><time>2026-04-19T15:03:13Z</time></trkpt><trkpt lat="44.91623670893712" lon="9.5829824146207"><ele>151.0</ele><time>2026-04-19T15:03:14Z</time></trkpt><trkpt lat="44.916087930343934" lon="9.583055508503207"><ele>148.5</ele><time>2026-04-19T15:03:15Z</time></trkpt><trkpt lat="44.91589096605449" lon="9.58314859420543"><ele>146.0</ele><time>2026-04-19T15:03:16Z</time></trkpt><trkpt lat="44.91565109945835" lon="9.58325721823904"><ele>146.0</ele><time>2026-04-19T15:03:17Z</time></trkpt><trkpt lat="44.91542808537754" lon="9.583346387318054"><ele>146.0</ele><time>2026-04-19T15:03:18Z</time></trkpt><trkpt lat="44.915161905173925" lon="9.583444882054527"><ele>149.5</ele><time>2026-04-19T15:03:19Z</time></trkpt><trkpt lat="44.91492036681459" lon="9.583532246229451"><ele>153.0</ele><time>2026-04-19T15:03:20Z</time></trkpt><trkpt lat="44.91470480258094" lon="9.583608370718345"><ele>153.0</ele><time>2026-04-19T15:03:21Z</time></trkpt><trkpt lat="44.91461676400755" lon="9.58362905784275"><ele>153.0</ele><time>2026-04-19T15:03:22Z</time></trkpt><trkpt lat="44.9144880039249" lon="9.583661090910198"><ele>153.0</ele><time>2026-04-19T15:03:23Z</time></trkpt><trkpt lat="44.91435977669449" lon="9.58361026236343"><ele>153.0</ele><time>2026-04-19T15:03:24Z</time></trkpt><trkpt lat="44.914245302106806" lon="9.583546819389237"><ele>154.25</ele><time>2026-04-19T15:03:25Z</time></trkpt><trkpt lat="44.91412875747635" lon="9.583446503265744"><ele>155.5</ele><time>2026-04-19T15:03:26Z</time></trkpt><trkpt lat="44.914003420521496" lon="9.583340606643715"><ele>156.75</ele><time>2026-04-19T15:03:27Z</time></trkpt><trkpt lat="44.91387157449133" lon="9.583295282701664"><ele>158.0</ele><time>2026-04-19T15:03:28Z</time></trkpt><trkpt lat="44.913718109803035" lon="9.583350440416687"><ele>158.0</ele><time>2026-04-19T15:03:29Z</time></trkpt><trkpt lat="44.91355192262483" lon="9.583423355417695"><ele>158.0</ele><time>2026-04-19T15:03:30Z</time></trkpt><trkpt lat="44.91335023355347" lon="9.583515604775148"><ele>158.0</ele><time>2026-04-19T15:03:31Z</time></trkpt><trkpt lat="44.913175677968646" lon="9.583636709745873"><ele>156.0</ele><time>2026-04-19T15:03:32Z</time></trkpt><trkpt lat="44.91303003787515" lon="9.583765019263286"><ele>154.0</ele><time>2026-04-19T15:03:33Z</time></trkpt><trkpt lat="44.912902754436374" lon="9.583879120356709"><ele>152.0</ele><time>2026-04-19T15:03:34Z</time></trkpt><trkpt lat="44.912778588725544" lon="9.584011682340037"><ele>152.0</ele><time>2026-04-19T15:03:35Z</time></trkpt><trkpt lat="44.9126285228" lon="9.584101712868543"><ele>152.0</ele><time>2026-04-19T15:03:36Z</time></trkpt><trkpt lat="44.91247400892048" lon="9.584154677685369"><ele>152.0</ele><time>2026-04-19T15:03:37Z</time></trkpt><trkpt lat="44.91231139812149" lon="9.58418082967865"><ele>155.33333333333331</ele><time>2026-04-19T15:03:38Z</time></trkpt><trkpt lat="44.91214523594827" lon="9.584193314279675"><ele>158.66666666666666</ele><time>2026-04-19T15:03:39Z</time></trkpt><trkpt lat="44.91199459710206" lon="9.584177278766628"><ele>162.0</ele><time>2026-04-19T15:03:40Z</time></trkpt><trkpt lat="44.91185685544144" lon="9.584103649906117"><ele>162.5</ele><time>2026-04-19T15:03:41Z</time></trkpt><trkpt lat="44.91172837970041" lon="9.583982634584011"><ele>163.0</ele><time>2026-04-19T15:03:42Z</time></trkpt><trkpt lat="44.91161702654142" lon="9.583835838475165"><ele>163.5</ele><time>2026-04-19T15:03:43Z</time></trkpt><trkpt lat="44.9115006399107" lon="9.583727567801299"><ele>164.0</ele><time>2026-04-19T15:03:44Z</time></trkpt><trkpt lat="44.9113419915134" lon="9.583649919693466"><ele>164.66666666666666</ele><time>2026-04-19T15:03:45Z</time></trkpt><trkpt lat="44.911168341894324" lon="9.583606430789498"><ele>165.33333333333334</ele><time>2026-04-19T15:03:46Z</time></trkpt><trkpt lat="44.91097199476185" lon="9.583592925153836"><ele>166.0</ele><time>2026-04-19T15:03:47Z</time></trkpt><trkpt lat="44.91074593840894" lon="9.583560889605106"><ele>167.5</ele><time>2026-04-19T15:03:48Z</time></trkpt><trkpt lat="44.910508246974054" lon="9.583559201186159"><ele>169.0</ele><time>2026-04-19T15:03:49Z</time></trkpt><trkpt lat="44.910273453248756" lon="9.583523603605041"><ele>170.66666666666669</ele><time>2026-04-19T15:03:50Z</time></trkpt><trkpt lat="44.91004882045367" lon="9.583503787354784"><ele>172.33333333333334</ele><time>2026-04-19T15:03:51Z</time></trkpt><trkpt lat="44.90994485213339" lon="9.583500883021989"><ele>174.0</ele><time>2026-04-19T15:03:52Z</time></trkpt><trkpt lat="44.909766568213584" lon="9.583484782955876"><ele>174.0</ele><time>2026-04-19T15:03:53Z</time></trkpt><trkpt lat="44.9096095257791" lon="9.58346843078032"><ele>174.0</ele><time>2026-04-19T15:03:54Z</time></trkpt><trkpt lat="44.909467335830705" lon="9.583410220158754"><ele>174.0</ele><time>2026-04-19T15:03:55Z</time></trkpt><trkpt lat="44.909322945915115" lon="9.583356906275831"><ele>175.0</ele><time>2026-04-19T15:03:56Z</time></trkpt><trkpt lat="44.9091763004737" lon="9.58330331693643"><ele>176.0</ele><time>2026-04-19T15:03:57Z</time></trkpt><trkpt lat="44.90903384211092" lon="9.58326091058459"><ele>177.0</ele><time>2026-04-19T15:03:58Z</time></trkpt><trkpt lat="44.90893705841293" lon="9.583160119376556"><ele>178.0</ele><time>2026-04-19T15:03:59Z</time></trkpt><trkpt lat="44.908883144202676" lon="9.583025670031843"><ele>178.0</ele><time>2026-04-19T15:04:00Z</time></trkpt><trkpt lat="44.908837663600906" lon="9.582872055242373"><ele>178.0</ele><time>2026-04-19T15:04:01Z</time></trkpt><trkpt lat="44.90879022808724" lon="9.582710600679466"><ele>178.0</ele><time>2026-04-19T15:04:02Z</time></trkpt><trkpt lat="44.90873896142165" lon="9.582555417814774"><ele>178.0</ele><time>2026-04-19T15:04:03Z</time></trkpt><trkpt lat="44.90868236627424" lon="9.582388139388675"><ele>179.5</ele><time>2026-04-19T15:04:04Z</time></trkpt><trkpt lat="44.90860825993881" lon="9.582230514008156"><ele>181.0</ele><time>2026-04-19T15:04:05Z</time></trkpt><trkpt lat="44.90855573315684" lon="9.582072423785766"><ele>182.5</ele><time>2026-04-19T15:04:06Z</time></trkpt><trkpt lat="44.90850537315057" lon="9.581924681458071"><ele>184.0</ele><time>2026-04-19T15:04:07Z</time></trkpt><trkpt lat="44.9084600852728" lon="9.581793565079469"><ele>184.0</ele><time>2026-04-19T15:04:08Z</time></trkpt><trkpt lat="44.90843167038068" lon="9.581657447897738"><ele>184.0</ele><time>2026-04-19T15:04:09Z</time></trkpt><trkpt lat="44.90837350003415" lon="9.58152890268368"><ele>184.0</ele><time>2026-04-19T15:04:10Z</time></trkpt><trkpt lat="44.908317392784916" lon="9.581375482870117"><ele>184.0</ele><time>2026-04-19T15:04:11Z</time></trkpt><trkpt lat="44.908234579508566" lon="9.581237295285463"><ele>184.66666666666669</ele><time>2026-04-19T15:04:12Z</time></trkpt><trkpt lat="44.908130368115366" lon="9.581100775207164"><ele>185.33333333333334</ele><time>2026-04-19T15:04:13Z</time></trkpt><trkpt lat="44.90801110137442" lon="9.58097398917855"><ele>186.0</ele><time>2026-04-19T15:04:14Z</time></trkpt><trkpt lat="44.9078754619148" lon="9.580848133028299"><ele>186.0</ele><time>2026-04-19T15:04:15Z</time></trkpt><trkpt lat="44.90776175705831" lon="9.580736281558158"><ele>186.0</ele><time>2026-04-19T15:04:16Z</time></trkpt><trkpt lat="44.90764424088131" lon="9.580656087755129"><ele>186.0</ele><time>2026-04-19T15:04:17Z</time></trkpt><trkpt lat="44.9075084297607" lon="9.580620833101884"><ele>186.0</ele><time>2026-04-19T15:04:18Z</time></trkpt><trkpt lat="44.90734995731238" lon="9.580611548870149"><ele>184.0</ele><time>2026-04-19T15:04:19Z</time></trkpt><trkpt lat="44.90719282309289" lon="9.580603910411954"><ele>182.0</ele><time>2026-04-19T15:04:20Z</time></trkpt><trkpt lat="44.90705213026927" lon="9.580509276935468"><ele>180.0</ele><time>2026-04-19T15:04:21Z</time></trkpt><trkpt lat="44.90688976920195" lon="9.580410518232119"><ele>180.33333333333334</ele><time>2026-04-19T15:04:22Z</time></trkpt><trkpt lat="44.90671248344167" lon="9.580313549797284"><ele>180.66666666666669</ele><time>2026-04-19T15:04:23Z</time></trkpt><trkpt lat="44.906524796858896" lon="9.580250426476512"><ele>181.0</ele><time>2026-04-19T15:04:24Z</time></trkpt><trkpt lat="44.90632982313899" lon="9.580187533573406"><ele>181.0</ele><time>2026-04-19T15:04:25Z</time></trkpt><trkpt lat="44.90610215790641" lon="9.580119862121295"><ele>181.0</ele><time>2026-04-19T15:04:26Z</time></trkpt><trkpt lat="44.9058582720377" lon="9.58001594977116"><ele>179.0</ele><time>2026-04-19T15:04:27Z</time></trkpt><trkpt lat="44.90563889543256" lon="9.579942762051845"><ele>177.0</ele><time>2026-04-19T15:04:28Z</time></trkpt><trkpt lat="44.90544506954067" lon="9.579878938046933"><ele>175.0</ele><time>2026-04-19T15:04:29Z</time></trkpt><trkpt lat="44.90526314065061" lon="9.579821747188408"><ele>175.0</ele><time>2026-04-19T15:04:30Z</time></trkpt><trkpt lat="44.905083173894845" lon="9.579801267609168"><ele>175.0</ele><time>2026-04-19T15:04:31Z</time></trkpt><trkpt lat="44.90491907700139" lon="9.579761570869284"><ele>175.0</ele><time>2026-04-19T15:04:32Z</time></trkpt><trkpt lat="44.904765232716265" lon="9.579703377542355"><ele>173.66666666666669</ele><time>2026-04-19T15:04:33Z</time></trkpt><trkpt lat="44.904607464832736" lon="9.579646760197493"><ele>172.33333333333334</ele><time>2026-04-19T15:04:34Z</time></trkpt><trkpt lat="44.90444578203099" lon="9.579544949937807"><ele>171.0</ele><time>2026-04-19T15:04:35Z</time></trkpt><trkpt lat="44.90427057030904" lon="9.579411266738962"><ele>172.5</ele><time>2026-04-19T15:04:36Z</time></trkpt><trkpt lat="44.904067091274705" lon="9.57927021012445"><ele>174.0</ele><time>2026-04-19T15:04:37Z</time></trkpt><trkpt lat="44.90385093491789" lon="9.579093791808662"><ele>174.0</ele><time>2026-04-19T15:04:38Z</time></trkpt><trkpt lat="44.90363232914758" lon="9.57893703713065"><ele>174.0</ele><time>2026-04-19T15:04:39Z</time></trkpt><trkpt lat="44.903386268492056" lon="9.578787298537165"><ele>173.5</ele><time>2026-04-19T15:04:40Z</time></trkpt><trkpt lat="44.903139405345456" lon="9.578659790358433"><ele>173.0</ele><time>2026-04-19T15:04:41Z</time></trkpt><trkpt lat="44.902920118400836" lon="9.578544270701647"><ele>173.0</ele><time>2026-04-19T15:04:42Z</time></trkpt><trkpt lat="44.90271562967003" lon="9.578432440680396"><ele>173.0</ele><time>2026-04-19T15:04:43Z</time></trkpt><trkpt lat="44.902533613844994" lon="9.578347462216891"><ele>173.0</ele><time>2026-04-19T15:04:44Z</time></trkpt><trkpt lat="44.90236040464256" lon="9.578284849570046"><ele>172.75</ele><time>2026-04-19T15:04:45Z</time></trkpt><trkpt lat="44.90219548432402" lon="9.578254141007003"><ele>172.5</ele><time>2026-04-19T15:04:46Z</time></trkpt><trkpt lat="44.90206644408825" lon="9.578246818942953"><ele>172.25</ele><time>2026-04-19T15:04:47Z</time></trkpt><trkpt lat="44.90195044274084" lon="9.57823421082224"><ele>172.0</ele><time>2026-04-19T15:04:48Z</time></trkpt><trkpt lat="44.90183165854002" lon="9.578237415511438"><ele>172.25</ele><time>2026-04-19T15:04:49Z</time></trkpt><trkpt lat="44.901717240989875" lon="9.578275295205398"><ele>172.5</ele><time>2026-04-19T15:04:50Z</time></trkpt><trkpt lat="44.90159652899156" lon="9.578351239207462"><ele>172.75</ele><time>2026-04-19T15:04:51Z</time></trkpt><trkpt lat="44.90143191845236" lon="9.57840425934833"><ele>173.0</ele><time>2026-04-19T15:04:52Z</time></trkpt><trkpt lat="44.90126256231212" lon="9.5785304143892"><ele>171.0</ele><time>2026-04-19T15:04:53Z</time></trkpt><trkpt lat="44.90112453990159" lon="9.57869610847639"><ele>169.0</ele><time>2026-04-19T15:04:54Z</time></trkpt><trkpt lat="44.901004311608354" lon="9.578836336091264"><ele>167.0</ele><time>2026-04-19T15:04:55Z</time></trkpt><trkpt lat="44.90090388259543" lon="9.578964981973419"><ele>167.0</ele><time>2026-04-19T15:04:56Z</time></trkpt><trkpt lat="44.90081029109403" lon="9.57903457085123"><ele>167.0</ele><time>2026-04-19T15:04:57Z</time></trkpt><trkpt lat="44.90072455159433" lon="9.579074042514817"><ele>167.0</ele><time>2026-04-19T15:04:58Z</time></trkpt><trkpt lat="44.900631622129374" lon="9.579062177960154"><ele>167.0</ele><time>2026-04-19T15:04:59Z</time></trkpt><trkpt lat="44.900536615723254" lon="9.579013497789791"><ele>167.0</ele><time>2026-04-19T15:05:00Z</time></trkpt><trkpt lat="44.90042284702103" lon="9.578943479431931"><ele>167.0</ele><time>2026-04-19T15:05:01Z</time></trkpt><trkpt lat="44.900295361944295" lon="9.578871048821897"><ele>167.0</ele><time>2026-04-19T15:05:02Z</time></trkpt><trkpt lat="44.900176126375186" lon="9.578792520187523"><ele>167.0</ele><time>2026-04-19T15:05:03Z</time></trkpt><trkpt lat="44.900050508275726" lon="9.578745543931808"><ele>167.0</ele><time>2026-04-19T15:05:04Z</time></trkpt><trkpt lat="44.89991854719019" lon="9.578726473563085"><ele>166.75</ele><time>2026-04-19T15:05:05Z</time></trkpt><trkpt lat="44.89977861895823" lon="9.578731030959824"><ele>166.5</ele><time>2026-04-19T15:05:06Z</time></trkpt><trkpt lat="44.89963364910786" lon="9.57874990896617"><ele>166.25</ele><time>2026-04-19T15:05:07Z</time></trkpt><trkpt lat="44.899498774992146" lon="9.578686191359974"><ele>166.0</ele><time>2026-04-19T15:05:08Z</time></trkpt><trkpt lat="44.899356840933834" lon="9.578612317731528"><ele>167.0</ele><time>2026-04-19T15:05:09Z</time></trkpt><trkpt lat="44.89919796438507" lon="9.578532931320938"><ele>168.0</ele><time>2026-04-19T15:05:10Z</time></trkpt><trkpt lat="44.89902724069788" lon="9.578467990262984"><ele>169.0</ele><time>2026-04-19T15:05:11Z</time></trkpt><trkpt lat="44.898857334560766" lon="9.578381994569318"><ele>169.0</ele><time>2026-04-19T15:05:12Z</time></trkpt><trkpt lat="44.89869552770621" lon="9.57829371947397"><ele>169.0</ele><time>2026-04-19T15:05:13Z</time></trkpt><trkpt lat="44.89854402658425" lon="9.578187357761454"><ele>169.0</ele><time>2026-04-19T15:05:14Z</time></trkpt><trkpt lat="44.89840377455965" lon="9.578037475382489"><ele>170.33333333333334</ele><time>2026-04-19T15:05:15Z</time></trkpt><trkpt lat="44.898263564337455" lon="9.577863645368693"><ele>171.66666666666666</ele><time>2026-04-19T15:05:16Z</time></trkpt><trkpt lat="44.89813629118874" lon="9.577707869334965"><ele>173.0</ele><time>2026-04-19T15:05:17Z</time></trkpt><trkpt lat="44.89800928983795" lon="9.577581605878382"><ele>173.0</ele><time>2026-04-19T15:05:18Z</time></trkpt><trkpt lat="44.89786881561093" lon="9.577486561194473"><ele>173.0</ele><time>2026-04-19T15:05:19Z</time></trkpt><trkpt lat="44.89771929705258" lon="9.577411326488727"><ele>173.0</ele><time>2026-04-19T15:05:20Z</time></trkpt><trkpt lat="44.897566092669436" lon="9.57735475060028"><ele>170.66666666666666</ele><time>2026-04-19T15:05:21Z</time></trkpt><trkpt lat="44.897412411290176" lon="9.577301154458821"><ele>168.33333333333334</ele><time>2026-04-19T15:05:22Z</time></trkpt><trkpt lat="44.89725300928638" lon="9.577261824540194"><ele>166.0</ele><time>2026-04-19T15:05:23Z</time></trkpt><trkpt lat="44.89709896073941" lon="9.577228151078755"><ele>166.0</ele><time>2026-04-19T15:05:24Z</time></trkpt><trkpt lat="44.89694709222792" lon="9.577191492534634"><ele>166.0</ele><time>2026-04-19T15:05:25Z</time></trkpt><trkpt lat="44.8967998089105" lon="9.57713420446381"><ele>166.0</ele><time>2026-04-19T15:05:26Z</time></trkpt><trkpt lat="44.89666206404167" lon="9.57703961679538"><ele>166.66666666666669</ele><time>2026-04-19T15:05:27Z</time></trkpt><trkpt lat="44.89653934269919" lon="9.576898093169758"><ele>167.33333333333334</ele><time>2026-04-19T15:05:28Z</time></trkpt><trkpt lat="44.8963990184807" lon="9.576786236941308"><ele>168.0</ele><time>2026-04-19T15:05:29Z</time></trkpt><trkpt lat="44.89627843503151" lon="9.576664371955346"><ele>168.0</ele><time>2026-04-19T15:05:30Z</time></trkpt><trkpt lat="44.89617198683867" lon="9.576555911242806"><ele>168.0</ele><time>2026-04-19T15:05:31Z</time></trkpt><trkpt lat="44.8960659115486" lon="9.576455743006228"><ele>168.0</ele><time>2026-04-19T15:05:32Z</time></trkpt><trkpt lat="44.89596839853878" lon="9.576365190153297"><ele>168.0</ele><time>2026-04-19T15:05:33Z</time></trkpt><trkpt lat="44.89587491785308" lon="9.5762821632025"><ele>167.60000000000002</ele><time>2026-04-19T15:05:34Z</time></trkpt><trkpt lat="44.89578503735867" lon="9.576210783693712"><ele>167.20000000000002</ele><time>2026-04-19T15:05:35Z</time></trkpt><trkpt lat="44.89570206282247" lon="9.57614220359407"><ele>166.8</ele><time>2026-04-19T15:05:36Z</time></trkpt><trkpt lat="44.89562212602131" lon="9.576064399152967"><ele>166.4</ele><time>2026-04-19T15:05:37Z</time></trkpt><trkpt lat="44.89553780539709" lon="9.575983988871283"><ele>166.0</ele><time>2026-04-19T15:05:38Z</time></trkpt><trkpt lat="44.89545118491269" lon="9.575906301192557"><ele>166.0</ele><time>2026-04-19T15:05:39Z</time></trkpt><trkpt lat="44.8953641937042" lon="9.575832269591434"><ele>166.0</ele><time>2026-04-19T15:05:40Z</time></trkpt><trkpt lat="44.895274901070344" lon="9.575762823797685"><ele>166.0</ele><time>2026-04-19T15:05:41Z</time></trkpt><trkpt lat="44.89518845325575" lon="9.575686644454008"><ele>166.0</ele><time>2026-04-19T15:05:42Z</time></trkpt><trkpt lat="44.89510532880465" lon="9.575602972991549"><ele>166.0</ele><time>2026-04-19T15:05:43Z</time></trkpt><trkpt lat="44.89502297392245" lon="9.575518692192091"><ele>165.8</ele><time>2026-04-19T15:05:44Z</time></trkpt><trkpt lat="44.89493563060584" lon="9.575440788091234"><ele>165.60000000000002</ele><time>2026-04-19T15:05:45Z</time></trkpt><trkpt lat="44.894848511920294" lon="9.575362770227823"><ele>165.4</ele><time>2026-04-19T15:05:46Z</time></trkpt><trkpt lat="44.89476005855817" lon="9.575285809727072"><ele>165.2</ele><time>2026-04-19T15:05:47Z</time></trkpt><trkpt lat="44.89467463564295" lon="9.57520632308798"><ele>165.0</ele><time>2026-04-19T15:05:48Z</time></trkpt><trkpt lat="44.89458454163763" lon="9.575130699687273"><ele>166.2</ele><time>2026-04-19T15:05:49Z</time></trkpt><trkpt lat="44.89449730103503" lon="9.575050173616452"><ele>167.4</ele><time>2026-04-19T15:05:50Z</time></trkpt><trkpt lat="44.89440918065342" lon="9.574972935244503"><ele>168.60000000000002</ele><time>2026-04-19T15:05:51Z</time></trkpt><trkpt lat="44.89431972844191" lon="9.57489880823498"><ele>169.8</ele><time>2026-04-19T15:05:52Z</time></trkpt><trkpt lat="44.89422826766149" lon="9.574825747088425"><ele>171.0</ele><time>2026-04-19T15:05:53Z</time></trkpt><trkpt lat="44.89413187935385" lon="9.574756505488212"><ele>171.0</ele><time>2026-04-19T15:05:54Z</time></trkpt><trkpt lat="44.894038034776585" lon="9.57468992607508"><ele>171.0</ele><time>2026-04-19T15:05:55Z</time></trkpt><trkpt lat="44.893937574815034" lon="9.57463444430726"><ele>171.0</ele><time>2026-04-19T15:05:56Z</time></trkpt><trkpt lat="44.89383271951397" lon="9.574588785708581"><ele>171.0</ele><time>2026-04-19T15:05:57Z</time></trkpt><trkpt lat="44.893731204780586" lon="9.57453633585612"><ele>171.0</ele><time>2026-04-19T15:05:58Z</time></trkpt><trkpt lat="44.89362807768539" lon="9.574481514990898"><ele>171.5</ele><time>2026-04-19T15:05:59Z</time></trkpt><trkpt lat="44.893524890588125" lon="9.574426689398123"><ele>172.0</ele><time>2026-04-19T15:06:00Z</time></trkpt><trkpt lat="44.89342203794472" lon="9.574370399568865"><ele>172.5</ele><time>2026-04-19T15:06:01Z</time></trkpt><trkpt lat="44.89331957548063" lon="9.574313542507943"><ele>173.0</ele><time>2026-04-19T15:06:02Z</time></trkpt><trkpt lat="44.89311246712393" lon="9.574194950230911"><ele>173.0</ele><time>2026-04-19T15:06:04Z</time></trkpt><trkpt lat="44.893009969134454" lon="9.574117533894238"><ele>173.0</ele><time>2026-04-19T15:06:05Z</time></trkpt><trkpt lat="44.892913732857" lon="9.574024481185463"><ele>173.0</ele><time>2026-04-19T15:06:06Z</time></trkpt><trkpt lat="44.89283678802603" lon="9.573902376294019"><ele>173.0</ele><time>2026-04-19T15:06:07Z</time></trkpt><trkpt lat="44.89275291588442" lon="9.573776836192575"><ele>174.0</ele><time>2026-04-19T15:06:08Z</time></trkpt><trkpt lat="44.89265978141679" lon="9.573663608557684"><ele>175.0</ele><time>2026-04-19T15:06:09Z</time></trkpt><trkpt lat="44.892561523316175" lon="9.573540605971056"><ele>176.0</ele><time>2026-04-19T15:06:10Z</time></trkpt><trkpt lat="44.89246558457925" lon="9.573412447187662"><ele>177.0</ele><time>2026-04-19T15:06:11Z</time></trkpt><trkpt lat="44.892357384004676" lon="9.57330297633417"><ele>177.25</ele><time>2026-04-19T15:06:12Z</time></trkpt><trkpt lat="44.8922480671185" lon="9.573198525625164"><ele>177.5</ele><time>2026-04-19T15:06:13Z</time></trkpt><trkpt lat="44.89213942937437" lon="9.573077312209085"><ele>177.75</ele><time>2026-04-19T15:06:14Z</time></trkpt><trkpt lat="44.892035719682475" lon="9.572939917620749"><ele>178.0</ele><time>2026-04-19T15:06:15Z</time></trkpt><trkpt lat="44.89194391597367" lon="9.572791111530698"><ele>179.25</ele><time>2026-04-19T15:06:16Z</time></trkpt><trkpt lat="44.891852087550035" lon="9.572643661143864"><ele>180.5</ele><time>2026-04-19T15:06:17Z</time></trkpt><trkpt lat="44.89176373595313" lon="9.572489762569484"><ele>181.75</ele><time>2026-04-19T15:06:18Z</time></trkpt><trkpt lat="44.891654956956486" lon="9.572351314069778"><ele>183.0</ele><time>2026-04-19T15:06:19Z</time></trkpt><trkpt lat="44.8915266967543" lon="9.572222693146744"><ele>183.0</ele><time>2026-04-19T15:06:20Z</time></trkpt><trkpt lat="44.89137389783665" lon="9.57210718424002"><ele>183.0</ele><time>2026-04-19T15:06:21Z</time></trkpt><trkpt lat="44.891251334296015" lon="9.571977986312394"><ele>183.0</ele><time>2026-04-19T15:06:22Z</time></trkpt><trkpt lat="44.89112668989349" lon="9.571816903829516"><ele>181.66666666666666</ele><time>2026-04-19T15:06:23Z</time></trkpt><trkpt lat="44.89099087189827" lon="9.571629619086654"><ele>180.33333333333331</ele><time>2026-04-19T15:06:24Z</time></trkpt><trkpt lat="44.890848198401144" lon="9.571458464437859"><ele>179.0</ele><time>2026-04-19T15:06:25Z</time></trkpt><trkpt lat="44.890723110713104" lon="9.571282260634291"><ele>185.33333333333331</ele><time>2026-04-19T15:06:26Z</time></trkpt><trkpt lat="44.89061642739214" lon="9.571133493326986"><ele>191.66666666666666</ele><time>2026-04-19T15:06:27Z</time></trkpt><trkpt lat="44.89049134475966" lon="9.571011221905117"><ele>198.0</ele><time>2026-04-19T15:06:28Z</time></trkpt><trkpt lat="44.89034560208951" lon="9.57091000243652"><ele>198.0</ele><time>2026-04-19T15:06:29Z</time></trkpt><trkpt lat="44.890209176541006" lon="9.57084122653245"><ele>198.0</ele><time>2026-04-19T15:06:30Z</time></trkpt><trkpt lat="44.890090126688975" lon="9.570772923948965"><ele>198.0</ele><time>2026-04-19T15:06:31Z</time></trkpt><trkpt lat="44.88997248251237" lon="9.570662732151376"><ele>198.0</ele><time>2026-04-19T15:06:32Z</time></trkpt><trkpt lat="44.889846660363155" lon="9.57051130718668"><ele>196.25</ele><time>2026-04-19T15:06:33Z</time></trkpt><trkpt lat="44.88973735123342" lon="9.570395403454782"><ele>194.5</ele><time>2026-04-19T15:06:34Z</time></trkpt><trkpt lat="44.88966350225567" lon="9.570288592359155"><ele>192.75</ele><time>2026-04-19T15:06:35Z</time></trkpt><trkpt lat="44.889619051517734" lon="9.570161246171677"><ele>191.0</ele><time>2026-04-19T15:06:36Z</time></trkpt><trkpt lat="44.88959098487372" lon="9.56998806364808"><ele>191.0</ele><time>2026-04-19T15:06:37Z</time></trkpt><trkpt lat="44.889601879870995" lon="9.56981359486841"><ele>191.0</ele><time>2026-04-19T15:06:38Z</time></trkpt><trkpt lat="44.88965475524382" lon="9.569651636901957"><ele>191.0</ele><time>2026-04-19T15:06:39Z</time></trkpt><trkpt lat="44.88973296253165" lon="9.569505888299517"><ele>191.0</ele><time>2026-04-19T15:06:40Z</time></trkpt><trkpt lat="44.88982456297804" lon="9.569373211225667"><ele>191.0</ele><time>2026-04-19T15:06:41Z</time></trkpt><trkpt lat="44.88991013308162" lon="9.569248266214498"><ele>191.0</ele><time>2026-04-19T15:06:42Z</time></trkpt><trkpt lat="44.88997174338318" lon="9.56912158622004"><ele>191.0</ele><time>2026-04-19T15:06:43Z</time></trkpt><trkpt lat="44.89002484137342" lon="9.568979385735172"><ele>191.0</ele><time>2026-04-19T15:06:44Z</time></trkpt><trkpt lat="44.89002107144481" lon="9.568792840148898"><ele>191.0</ele><time>2026-04-19T15:06:45Z</time></trkpt><trkpt lat="44.89002554094327" lon="9.568597950545199"><ele>191.0</ele><time>2026-04-19T15:06:46Z</time></trkpt><trkpt lat="44.89002257921371" lon="9.568399293193746"><ele>191.0</ele><time>2026-04-19T15:06:47Z</time></trkpt><trkpt lat="44.89004574218566" lon="9.568205160422538"><ele>191.0</ele><time>2026-04-19T15:06:48Z</time></trkpt><trkpt lat="44.89006872858908" lon="9.568036059818272"><ele>193.33333333333331</ele><time>2026-04-19T15:06:49Z</time></trkpt><trkpt lat="44.8900650355365" lon="9.567837131365158"><ele>195.66666666666666</ele><time>2026-04-19T15:06:50Z</time></trkpt><trkpt lat="44.890043310144144" lon="9.567603596777117"><ele>198.0</ele><time>2026-04-19T15:06:51Z</time></trkpt><trkpt lat="44.89001530486968" lon="9.567375105979359"><ele>198.0</ele><time>2026-04-19T15:06:52Z</time></trkpt><trkpt lat="44.89001366863855" lon="9.567152412164376"><ele>198.0</ele><time>2026-04-19T15:06:53Z</time></trkpt><trkpt lat="44.89002819543502" lon="9.56690838932503"><ele>198.0</ele><time>2026-04-19T15:06:54Z</time></trkpt><trkpt lat="44.89003601596946" lon="9.566719288332076"><ele>198.60000000000002</ele><time>2026-04-19T15:06:55Z</time></trkpt><trkpt lat="44.89004642933419" lon="9.566507039331581"><ele>199.20000000000002</ele><time>2026-04-19T15:06:56Z</time></trkpt><trkpt lat="44.89000678890071" lon="9.566435370056194"><ele>199.8</ele><time>2026-04-19T15:06:57Z</time></trkpt><trkpt lat="44.88997320317409" lon="9.566303311301844"><ele>200.4</ele><time>2026-04-19T15:06:58Z</time></trkpt><trkpt lat="44.88991978509146" lon="9.566177152100567"><ele>201.0</ele><time>2026-04-19T15:06:59Z</time></trkpt><trkpt lat="44.88984009148551" lon="9.566073552717679"><ele>201.25</ele><time>2026-04-19T15:07:00Z</time></trkpt><trkpt lat="44.88973312407094" lon="9.565998833330095"><ele>201.5</ele><time>2026-04-19T15:07:01Z</time></trkpt><trkpt lat="44.889597169453964" lon="9.565946073120681"><ele>201.75</ele><time>2026-04-19T15:07:02Z</time></trkpt><trkpt lat="44.889432482551264" lon="9.565892882016485"><ele>202.0</ele><time>2026-04-19T15:07:03Z</time></trkpt><trkpt lat="44.88924335004536" lon="9.565826655800299"><ele>198.5</ele><time>2026-04-19T15:07:04Z</time></trkpt><trkpt lat="44.889029205975355" lon="9.565744998020618"><ele>195.0</ele><time>2026-04-19T15:07:05Z</time></trkpt><trkpt lat="44.88879149309623" lon="9.565642551329363"><ele>195.0</ele><time>2026-04-19T15:07:06Z</time></trkpt><trkpt lat="44.88853633778704" lon="9.565507335299289"><ele>195.0</ele><time>2026-04-19T15:07:07Z</time></trkpt><trkpt lat="44.888272580158954" lon="9.565351258395768"><ele>196.0</ele><time>2026-04-19T15:07:08Z</time></trkpt><trkpt lat="44.88802115534294" lon="9.565193598939699"><ele>197.0</ele><time>2026-04-19T15:07:09Z</time></trkpt><trkpt lat="44.88777715610173" lon="9.565047044673568"><ele>200.0</ele><time>2026-04-19T15:07:10Z</time></trkpt><trkpt lat="44.887554268797075" lon="9.564906384404292"><ele>203.0</ele><time>2026-04-19T15:07:11Z</time></trkpt><trkpt lat="44.88734967169079" lon="9.564775746825969"><ele>203.0</ele><time>2026-04-19T15:07:12Z</time></trkpt><trkpt lat="44.887167534642124" lon="9.56466054838008"><ele>203.0</ele><time>2026-04-19T15:07:13Z</time></trkpt><trkpt lat="44.88699659367951" lon="9.564561590493021"><ele>203.0</ele><time>2026-04-19T15:07:14Z</time></trkpt><trkpt lat="44.88684904766128" lon="9.564472792128871"><ele>203.25</ele><time>2026-04-19T15:07:15Z</time></trkpt><trkpt lat="44.88671883788041" lon="9.564388219340728"><ele>203.5</ele><time>2026-04-19T15:07:16Z</time></trkpt><trkpt lat="44.88661413035156" lon="9.56428960944578"><ele>203.75</ele><time>2026-04-19T15:07:17Z</time></trkpt><trkpt lat="44.886530666618235" lon="9.564136681552055"><ele>204.0</ele><time>2026-04-19T15:07:18Z</time></trkpt><trkpt lat="44.88647712253784" lon="9.563921241190338"><ele>206.33333333333331</ele><time>2026-04-19T15:07:19Z</time></trkpt><trkpt lat="44.88640736900685" lon="9.563695863077948"><ele>208.66666666666666</ele><time>2026-04-19T15:07:20Z</time></trkpt><trkpt lat="44.88633422636682" lon="9.563535453895616"><ele>211.0</ele><time>2026-04-19T15:07:21Z</time></trkpt><trkpt lat="44.88623958104642" lon="9.563344721079439"><ele>211.0</ele><time>2026-04-19T15:07:22Z</time></trkpt><trkpt lat="44.886134253724244" lon="9.563143324097934"><ele>211.0</ele><time>2026-04-19T15:07:23Z</time></trkpt><trkpt lat="44.88600983824026" lon="9.562955981164535"><ele>211.0</ele><time>2026-04-19T15:07:24Z</time></trkpt><trkpt lat="44.88587472559355" lon="9.562756274116534"><ele>214.66666666666666</ele><time>2026-04-19T15:07:25Z</time></trkpt><trkpt lat="44.88573161687257" lon="9.562554059073271"><ele>218.33333333333331</ele><time>2026-04-19T15:07:26Z</time></trkpt><trkpt lat="44.885594860354786" lon="9.562382727395317"><ele>222.0</ele><time>2026-04-19T15:07:27Z</time></trkpt><trkpt lat="44.88547507062056" lon="9.562214282847991"><ele>222.0</ele><time>2026-04-19T15:07:28Z</time></trkpt><trkpt lat="44.88537589689879" lon="9.562065883751734"><ele>222.0</ele><time>2026-04-19T15:07:29Z</time></trkpt><trkpt lat="44.88532403080587" lon="9.561921367622382"><ele>222.0</ele><time>2026-04-19T15:07:30Z</time></trkpt><trkpt lat="44.8853210269359" lon="9.561741258887414"><ele>222.0</ele><time>2026-04-19T15:07:31Z</time></trkpt><trkpt lat="44.885272030528206" lon="9.56161749522463"><ele>219.6</ele><time>2026-04-19T15:07:32Z</time></trkpt><trkpt lat="44.885214069451" lon="9.561500619420308"><ele>217.2</ele><time>2026-04-19T15:07:33Z</time></trkpt><trkpt lat="44.885139474561115" lon="9.561410613676504"><ele>214.8</ele><time>2026-04-19T15:07:34Z</time></trkpt><trkpt lat="44.88502957408871" lon="9.56134546538881"><ele>212.4</ele><time>2026-04-19T15:07:35Z</time></trkpt><trkpt lat="44.88491857244944" lon="9.561276954845322"><ele>210.0</ele><time>2026-04-19T15:07:36Z</time></trkpt><trkpt lat="44.88480761674731" lon="9.561189466835868"><ele>216.75</ele><time>2026-04-19T15:07:37Z</time></trkpt><trkpt lat="44.884696407102474" lon="9.56109944455875"><ele>223.5</ele><time>2026-04-19T15:07:38Z</time></trkpt><trkpt lat="44.88458046728816" lon="9.561004127032747"><ele>230.25</ele><time>2026-04-19T15:07:39Z</time></trkpt><trkpt lat="44.88446326663436" lon="9.560912448923434"><ele>237.0</ele><time>2026-04-19T15:07:40Z</time></trkpt><trkpt lat="44.88434134434748" lon="9.560812270743536"><ele>229.25</ele><time>2026-04-19T15:07:41Z</time></trkpt><trkpt lat="44.88422061140146" lon="9.56070817128549"><ele>221.5</ele><time>2026-04-19T15:07:42Z</time></trkpt><trkpt lat="44.884086248948215" lon="9.560609371852054"><ele>213.75</ele><time>2026-04-19T15:07:43Z</time></trkpt><trkpt lat="44.88397207895309" lon="9.560502721900365"><ele>206.0</ele><time>2026-04-19T15:07:44Z</time></trkpt><trkpt lat="44.8838645542546" lon="9.56039031947988"><ele>212.0</ele><time>2026-04-19T15:07:45Z</time></trkpt><trkpt lat="44.88376136632278" lon="9.560286331847266"><ele>218.0</ele><time>2026-04-19T15:07:46Z</time></trkpt><trkpt lat="44.883685782691416" lon="9.560145815570406"><ele>224.0</ele><time>2026-04-19T15:07:46.999Z</time></trkpt><trkpt lat="44.88362188747912" lon="9.560002570199218"><ele>230.0</ele><time>2026-04-19T15:07:47.999Z</time></trkpt><trkpt lat="44.883551336138275" lon="9.559893262156592"><ele>230.0</ele><time>2026-04-19T15:07:48.999Z</time></trkpt><trkpt lat="44.883493532893446" lon="9.559798955041991"><ele>230.0</ele><time>2026-04-19T15:07:49.999Z</time></trkpt><trkpt lat="44.883384062560815" lon="9.559776954555565"><ele>230.0</ele><time>2026-04-19T15:07:50.999Z</time></trkpt><trkpt lat="44.883269385326194" lon="9.559836522686393"><ele>230.0</ele><time>2026-04-19T15:07:51.999Z</time></trkpt><trkpt lat="44.883165283665825" lon="9.559891373373953"><ele>230.0</ele><time>2026-04-19T15:07:52.999Z</time></trkpt><trkpt lat="44.88306327761365" lon="9.559878614592796"><ele>224.0</ele><time>2026-04-19T15:07:53.999Z</time></trkpt><trkpt lat="44.88297402946521" lon="9.559789620813795"><ele>218.0</ele><time>2026-04-19T15:07:54.999Z</time></trkpt><trkpt lat="44.882856929292004" lon="9.559709245321232"><ele>212.0</ele><time>2026-04-19T15:07:55.999Z</time></trkpt><trkpt lat="44.88274816999487" lon="9.55960056034665"><ele>206.0</ele><time>2026-04-19T15:07:56.999Z</time></trkpt><trkpt lat="44.882609139902996" lon="9.55953663364221"><ele>210.66666666666669</ele><time>2026-04-19T15:07:57.999Z</time></trkpt><trkpt lat="44.88246022540697" lon="9.55949741470238"><ele>215.33333333333331</ele><time>2026-04-19T15:07:58.999Z</time></trkpt><trkpt lat="44.88230448788687" lon="9.559481079708805"><ele>220.0</ele><time>2026-04-19T15:07:59.999Z</time></trkpt><trkpt lat="44.8821423471062" lon="9.559459068592972"><ele>220.0</ele><time>2026-04-19T15:08:00.999Z</time></trkpt><trkpt lat="44.881983780674716" lon="9.55941376888253"><ele>220.0</ele><time>2026-04-19T15:08:01.999Z</time></trkpt><trkpt lat="44.88183490365827" lon="9.559332234011817"><ele>220.0</ele><time>2026-04-19T15:08:02.999Z</time></trkpt><trkpt lat="44.88169057026315" lon="9.559237271336825"><ele>214.5</ele><time>2026-04-19T15:08:04Z</time></trkpt><trkpt lat="44.881547642957514" lon="9.559134739470474"><ele>209.0</ele><time>2026-04-19T15:08:05Z</time></trkpt><trkpt lat="44.88142481976527" lon="9.559018002283244"><ele>203.5</ele><time>2026-04-19T15:08:06Z</time></trkpt><trkpt lat="44.881344366012286" lon="9.558895673181752"><ele>198.0</ele><time>2026-04-19T15:08:07Z</time></trkpt><trkpt lat="44.881296245069876" lon="9.558743113166889"><ele>202.0</ele><time>2026-04-19T15:08:08Z</time></trkpt><trkpt lat="44.88125923335472" lon="9.558560167835967"><ele>206.0</ele><time>2026-04-19T15:08:09Z</time></trkpt><trkpt lat="44.88122933117479" lon="9.558361222551936"><ele>210.0</ele><time>2026-04-19T15:08:10Z</time></trkpt><trkpt lat="44.88119040717857" lon="9.558171260247324"><ele>214.0</ele><time>2026-04-19T15:08:11Z</time></trkpt><trkpt lat="44.881123352114564" lon="9.557983167289237"><ele>209.0</ele><time>2026-04-19T15:08:12Z</time></trkpt><trkpt lat="44.881035688561234" lon="9.557796427818344"><ele>204.0</ele><time>2026-04-19T15:08:13Z</time></trkpt><trkpt lat="44.88092276989744" lon="9.557605716849144"><ele>199.0</ele><time>2026-04-19T15:08:14Z</time></trkpt><trkpt lat="44.880792148275596" lon="9.557413966302992"><ele>199.0</ele><time>2026-04-19T15:08:15Z</time></trkpt><trkpt lat="44.880661628720546" lon="9.557219394317691"><ele>199.0</ele><time>2026-04-19T15:08:16Z</time></trkpt><trkpt lat="44.88053424953024" lon="9.557002506858332"><ele>199.0</ele><time>2026-04-19T15:08:17Z</time></trkpt><trkpt lat="44.88041686678568" lon="9.55677403553588"><ele>206.5</ele><time>2026-04-19T15:08:18Z</time></trkpt><trkpt lat="44.88030346183767" lon="9.556502777320768"><ele>214.0</ele><time>2026-04-19T15:08:19Z</time></trkpt><trkpt lat="44.880172262658185" lon="9.55619992491855"><ele>208.0</ele><time>2026-04-19T15:08:20Z</time></trkpt><trkpt lat="44.88004283288163" lon="9.555925442140028"><ele>202.0</ele><time>2026-04-19T15:08:21Z</time></trkpt><trkpt lat="44.87992491459276" lon="9.555690240942562"><ele>196.0</ele><time>2026-04-19T15:08:22Z</time></trkpt><trkpt lat="44.87980586833081" lon="9.555494008222569"><ele>200.5</ele><time>2026-04-19T15:08:23Z</time></trkpt><trkpt lat="44.87968692315584" lon="9.555331916738318"><ele>205.0</ele><time>2026-04-19T15:08:24Z</time></trkpt><trkpt lat="44.87958558489635" lon="9.55519684987588"><ele>209.5</ele><time>2026-04-19T15:08:25Z</time></trkpt><trkpt lat="44.87950268488414" lon="9.555059997367271"><ele>214.0</ele><time>2026-04-19T15:08:26Z</time></trkpt><trkpt lat="44.879456726125454" lon="9.554893061644593"><ele>214.0</ele><time>2026-04-19T15:08:27Z</time></trkpt><trkpt lat="44.87947061153627" lon="9.554716368150578"><ele>213.99999999999997</ele><time>2026-04-19T15:08:28Z</time></trkpt><trkpt lat="44.87944747529067" lon="9.55458724124123"><ele>213.99999999999997</ele><time>2026-04-19T15:08:29Z</time></trkpt><trkpt lat="44.87941727198435" lon="9.554464184683141"><ele>214.0</ele><time>2026-04-19T15:08:30Z</time></trkpt><trkpt lat="44.87933775716842" lon="9.55437524295702"><ele>214.0</ele><time>2026-04-19T15:08:31Z</time></trkpt><trkpt lat="44.87922315602545" lon="9.554326929640824"><ele>209.5</ele><time>2026-04-19T15:08:32Z</time></trkpt><trkpt lat="44.87909043838379" lon="9.554325466335209"><ele>205.0</ele><time>2026-04-19T15:08:33Z</time></trkpt><trkpt lat="44.878963386621265" lon="9.554346314000089"><ele>200.5</ele><time>2026-04-19T15:08:34Z</time></trkpt><trkpt lat="44.87885483617995" lon="9.554329191536524"><ele>196.0</ele><time>2026-04-19T15:08:35Z</time></trkpt><trkpt lat="44.87877343859385" lon="9.554251565167672"><ele>196.0</ele><time>2026-04-19T15:08:36Z</time></trkpt><trkpt lat="44.87870481139667" lon="9.554106329833225"><ele>196.0</ele><time>2026-04-19T15:08:37Z</time></trkpt><trkpt lat="44.878635985852135" lon="9.553911950347581"><ele>196.0</ele><time>2026-04-19T15:08:38Z</time></trkpt><trkpt lat="44.878560302601635" lon="9.553698811601341"><ele>196.0</ele><time>2026-04-19T15:08:39Z</time></trkpt><trkpt lat="44.878441010421874" lon="9.553522186729218"><ele>191.66666666666666</ele><time>2026-04-19T15:08:40Z</time></trkpt><trkpt lat="44.87834468702103" lon="9.553361482890278"><ele>187.33333333333331</ele><time>2026-04-19T15:08:41Z</time></trkpt><trkpt lat="44.87830254809796" lon="9.553150717403673"><ele>183.0</ele><time>2026-04-19T15:08:42Z</time></trkpt><trkpt lat="44.878234582317326" lon="9.552910086133128"><ele>185.33333333333334</ele><time>2026-04-19T15:08:43Z</time></trkpt><trkpt lat="44.87818924850183" lon="9.552667557666433"><ele>187.66666666666669</ele><time>2026-04-19T15:08:44Z</time></trkpt><trkpt lat="44.87813957923044" lon="9.552431302792392"><ele>190.0</ele><time>2026-04-19T15:08:45Z</time></trkpt><trkpt lat="44.87808897029848" lon="9.552206970153316"><ele>191.0</ele><time>2026-04-19T15:08:46Z</time></trkpt><trkpt lat="44.878039480233404" lon="9.552007057425543"><ele>192.0</ele><time>2026-04-19T15:08:47Z</time></trkpt><trkpt lat="44.877967923020485" lon="9.55182525534856"><ele>193.0</ele><time>2026-04-19T15:08:48Z</time></trkpt><trkpt lat="44.87788597605505" lon="9.55164737097465"><ele>194.0</ele><time>2026-04-19T15:08:49Z</time></trkpt><trkpt lat="44.8778050100982" lon="9.55149894957016"><ele>194.0</ele><time>2026-04-19T15:08:50Z</time></trkpt><trkpt lat="44.877716054210715" lon="9.551393696213745"><ele>194.0</ele><time>2026-04-19T15:08:51Z</time></trkpt><trkpt lat="44.8776154266949" lon="9.551345158185391"><ele>194.0</ele><time>2026-04-19T15:08:52Z</time></trkpt><trkpt lat="44.877502294005254" lon="9.55134403401909"><ele>194.0</ele><time>2026-04-19T15:08:53Z</time></trkpt><trkpt lat="44.877372397259805" lon="9.551391730419583"><ele>189.66666666666669</ele><time>2026-04-19T15:08:54Z</time></trkpt><trkpt lat="44.877236148610244" lon="9.551459297269746"><ele>185.33333333333334</ele><time>2026-04-19T15:08:55Z</time></trkpt><trkpt lat="44.87707638321519" lon="9.55152422841596"><ele>181.0</ele><time>2026-04-19T15:08:56Z</time></trkpt><trkpt lat="44.87691027630779" lon="9.551573136089482"><ele>179.0</ele><time>2026-04-19T15:08:57Z</time></trkpt><trkpt lat="44.87676766063783" lon="9.551611941918026"><ele>177.0</ele><time>2026-04-19T15:08:58Z</time></trkpt><trkpt lat="44.87663895889274" lon="9.551611343967819"><ele>175.0</ele><time>2026-04-19T15:08:59Z</time></trkpt><trkpt lat="44.87651782116058" lon="9.551592721827191"><ele>173.0</ele><time>2026-04-19T15:09:00Z</time></trkpt><trkpt lat="44.87640244355879" lon="9.551543048266888"><ele>173.0</ele><time>2026-04-19T15:09:01Z</time></trkpt><trkpt lat="44.87630520106446" lon="9.551395470827718"><ele>173.0</ele><time>2026-04-19T15:09:02Z</time></trkpt><trkpt lat="44.87620398914237" lon="9.551255464427372"><ele>173.0</ele><time>2026-04-19T15:09:03Z</time></trkpt><trkpt lat="44.87614322991928" lon="9.551100203824847"><ele>173.0</ele><time>2026-04-19T15:09:04Z</time></trkpt><trkpt lat="44.876144196761125" lon="9.550929327513417"><ele>177.25</ele><time>2026-04-19T15:09:05Z</time></trkpt><trkpt lat="44.87617319773221" lon="9.550760095259678"><ele>181.5</ele><time>2026-04-19T15:09:06Z</time></trkpt><trkpt lat="44.876206763482365" lon="9.550569271928033"><ele>185.75</ele><time>2026-04-19T15:09:07Z</time></trkpt><trkpt lat="44.87622290306159" lon="9.550364580889443"><ele>190.0</ele><time>2026-04-19T15:09:08Z</time></trkpt><trkpt lat="44.87622850827499" lon="9.550153842980619"><ele>190.75</ele><time>2026-04-19T15:09:09Z</time></trkpt><trkpt lat="44.876203565180504" lon="9.549955230084082"><ele>191.5</ele><time>2026-04-19T15:09:10Z</time></trkpt><trkpt lat="44.87617358524571" lon="9.549781130955802"><ele>192.25</ele><time>2026-04-19T15:09:11Z</time></trkpt><trkpt lat="44.87612935334217" lon="9.549632294086562"><ele>193.0</ele><time>2026-04-19T15:09:12Z</time></trkpt><trkpt lat="44.87605852439396" lon="9.549513405842555"><ele>193.0</ele><time>2026-04-19T15:09:13Z</time></trkpt><trkpt lat="44.87596839927898" lon="9.549426107318572"><ele>193.0</ele><time>2026-04-19T15:09:14Z</time></trkpt><trkpt lat="44.87585670507162" lon="9.549399497091771"><ele>193.0</ele><time>2026-04-19T15:09:15Z</time></trkpt><trkpt lat="44.87573449793378" lon="9.549371189599116"><ele>193.0</ele><time>2026-04-19T15:09:16Z</time></trkpt><trkpt lat="44.87561264859746" lon="9.549319961654895"><ele>189.49999999999997</ele><time>2026-04-19T15:09:17Z</time></trkpt><trkpt lat="44.87550202797282" lon="9.549270176600356"><ele>186.0</ele><time>2026-04-19T15:09:18Z</time></trkpt><trkpt lat="44.87541118260894" lon="9.54924827854854"><ele>182.5</ele><time>2026-04-19T15:09:19Z</time></trkpt><trkpt lat="44.87533329070574" lon="9.549278976973275"><ele>179.0</ele><time>2026-04-19T15:09:20Z</time></trkpt><trkpt lat="44.875267747447765" lon="9.549338012398893"><ele>175.5</ele><time>2026-04-19T15:09:21Z</time></trkpt><trkpt lat="44.87523641109054" lon="9.549437186770179"><ele>172.0</ele><time>2026-04-19T15:09:22Z</time></trkpt><trkpt lat="44.875228025081384" lon="9.54957653790706"><ele>171.8</ele><time>2026-04-19T15:09:23Z</time></trkpt><trkpt lat="44.87522155881523" lon="9.54973224745159"><ele>171.6</ele><time>2026-04-19T15:09:24Z</time></trkpt><trkpt lat="44.87518190322821" lon="9.549868290585323"><ele>171.4</ele><time>2026-04-19T15:09:25Z</time></trkpt><trkpt lat="44.87509743481842" lon="9.549958576227457"><ele>171.20000000000002</ele><time>2026-04-19T15:09:26Z</time></trkpt><trkpt lat="44.874978319537334" lon="9.54995248226659"><ele>171.0</ele><time>2026-04-19T15:09:27Z</time></trkpt><trkpt lat="44.874863920981866" lon="9.549904604441478"><ele>170.25</ele><time>2026-04-19T15:09:28Z</time></trkpt><trkpt lat="44.87472816270412" lon="9.549849974787632"><ele>169.5</ele><time>2026-04-19T15:09:29Z</time></trkpt><trkpt lat="44.87459095412424" lon="9.549809006386104"><ele>168.75</ele><time>2026-04-19T15:09:30Z</time></trkpt><trkpt lat="44.87447241886846" lon="9.549765274596547"><ele>168.0</ele><time>2026-04-19T15:09:31Z</time></trkpt><trkpt lat="44.874358357918425" lon="9.549730463656058"><ele>166.5</ele><time>2026-04-19T15:09:32Z</time></trkpt><trkpt lat="44.87425377047156" lon="9.549681340935985"><ele>165.0</ele><time>2026-04-19T15:09:33Z</time></trkpt><trkpt lat="44.87414935130546" lon="9.549624888589022"><ele>163.5</ele><time>2026-04-19T15:09:34Z</time></trkpt><trkpt lat="44.874041852237454" lon="9.549540032747904"><ele>162.0</ele><time>2026-04-19T15:09:35Z</time></trkpt><trkpt lat="44.87393786145819" lon="9.549439424265765"><ele>164.8</ele><time>2026-04-19T15:09:36Z</time></trkpt><trkpt lat="44.87384867127987" lon="9.549332416285965"><ele>167.6</ele><time>2026-04-19T15:09:36.999Z</time></trkpt><trkpt lat="44.873784660928955" lon="9.54920544611388"><ele>170.4</ele><time>2026-04-19T15:09:37.999Z</time></trkpt><trkpt lat="44.87372005557557" lon="9.549089400191171"><ele>173.20000000000002</ele><time>2026-04-19T15:09:38.999Z</time></trkpt><trkpt lat="44.87368509125773" lon="9.548957927875623"><ele>176.0</ele><time>2026-04-19T15:09:39.999Z</time></trkpt><trkpt lat="44.87365830151287" lon="9.548827915667017"><ele>178.20000000000002</ele><time>2026-04-19T15:09:40.999Z</time></trkpt><trkpt lat="44.8736452807839" lon="9.548688305326417"><ele>180.4</ele><time>2026-04-19T15:09:41.999Z</time></trkpt><trkpt lat="44.87364548539355" lon="9.548547544938316"><ele>182.6</ele><time>2026-04-19T15:09:42.999Z</time></trkpt><trkpt lat="44.873649284977844" lon="9.548408013692294"><ele>184.8</ele><time>2026-04-19T15:09:43.999Z</time></trkpt><trkpt lat="44.87365522468495" lon="9.548284642683113"><ele>187.0</ele><time>2026-04-19T15:09:44.999Z</time></trkpt><trkpt lat="44.87365915817711" lon="9.54817276026044"><ele>187.0</ele><time>2026-04-19T15:09:45.999Z</time></trkpt><trkpt lat="44.87364960297869" lon="9.54807167504846"><ele>187.0</ele><time>2026-04-19T15:09:46.999Z</time></trkpt><trkpt lat="44.873617600203836" lon="9.547985146465866"><ele>187.0</ele><time>2026-04-19T15:09:47.999Z</time></trkpt><trkpt lat="44.87355582030173" lon="9.5479199203065"><ele>187.0</ele><time>2026-04-19T15:09:48.999Z</time></trkpt><trkpt lat="44.87347613058442" lon="9.547884826345461"><ele>187.0</ele><time>2026-04-19T15:09:49.999Z</time></trkpt><trkpt lat="44.873384736195966" lon="9.54789300402254"><ele>187.0</ele><time>2026-04-19T15:09:50.999Z</time></trkpt><trkpt lat="44.873293484746874" lon="9.547903259142874"><ele>184.0</ele><time>2026-04-19T15:09:51.999Z</time></trkpt><trkpt lat="44.87321491783249" lon="9.54790700986463"><ele>181.0</ele><time>2026-04-19T15:09:52.999Z</time></trkpt><trkpt lat="44.87314066283106" lon="9.54794138408372"><ele>178.0</ele><time>2026-04-19T15:09:53.999Z</time></trkpt><trkpt lat="44.87307453600426" lon="9.548018354331324"><ele>175.0</ele><time>2026-04-19T15:09:54.999Z</time></trkpt><trkpt lat="44.873018511396" lon="9.54811719754232"><ele>172.0</ele><time>2026-04-19T15:09:55.999Z</time></trkpt><trkpt lat="44.87296072303341" lon="9.5482240663175"><ele>169.0</ele><time>2026-04-19T15:09:56.999Z</time></trkpt><trkpt lat="44.87288966411279" lon="9.548326675541327"><ele>169.0</ele><time>2026-04-19T15:09:57.999Z</time></trkpt><trkpt lat="44.87280948293921" lon="9.548425928662093"><ele>169.0</ele><time>2026-04-19T15:09:58.999Z</time></trkpt><trkpt lat="44.872717402547494" lon="9.548513148914383"><ele>169.0</ele><time>2026-04-19T15:09:59.999Z</time></trkpt><trkpt lat="44.872605492829436" lon="9.548585856023522"><ele>169.0</ele><time>2026-04-19T15:10:00.999Z</time></trkpt><trkpt lat="44.87247393570869" lon="9.548638354298484"><ele>169.25</ele><time>2026-04-19T15:10:01.999Z</time></trkpt><trkpt lat="44.872361231262595" lon="9.548674621778094"><ele>169.5</ele><time>2026-04-19T15:10:02.999Z</time></trkpt><trkpt lat="44.87227733411589" lon="9.548699491354073"><ele>169.75</ele><time>2026-04-19T15:10:03.999Z</time></trkpt><trkpt lat="44.87216290128796" lon="9.548711867901122"><ele>170.0</ele><time>2026-04-19T15:10:04.999Z</time></trkpt><trkpt lat="44.87202713485919" lon="9.548716022709147"><ele>170.0</ele><time>2026-04-19T15:10:05.999Z</time></trkpt><trkpt lat="44.87184344473584" lon="9.548758167315254"><ele>170.0</ele><time>2026-04-19T15:10:06.999Z</time></trkpt><trkpt lat="44.8716303692023" lon="9.548755735490351"><ele>170.0</ele><time>2026-04-19T15:10:07.999Z</time></trkpt><trkpt lat="44.871386350795184" lon="9.548727547863782"><ele>170.0</ele><time>2026-04-19T15:10:08.999Z</time></trkpt><trkpt lat="44.871114097262755" lon="9.54867063156608"><ele>170.0</ele><time>2026-04-19T15:10:09.999Z</time></trkpt><trkpt lat="44.87086900095271" lon="9.548589055683296"><ele>170.0</ele><time>2026-04-19T15:10:10.999Z</time></trkpt><trkpt lat="44.870562315307836" lon="9.548556379699724"><ele>170.0</ele><time>2026-04-19T15:10:11.999Z</time></trkpt><trkpt lat="44.87023359754379" lon="9.548426688551208"><ele>170.5</ele><time>2026-04-19T15:10:12.999Z</time></trkpt><trkpt lat="44.86990864705022" lon="9.548320903494446"><ele>171.0</ele><time>2026-04-19T15:10:13.999Z</time></trkpt><trkpt lat="44.86963702067825" lon="9.548175246344414"><ele>171.0</ele><time>2026-04-19T15:10:14.999Z</time></trkpt><trkpt lat="44.86938686034859" lon="9.548049206193898"><ele>171.0</ele><time>2026-04-19T15:10:15.999Z</time></trkpt><trkpt lat="44.86915087295102" lon="9.54793171216152"><ele>171.66666666666666</ele><time>2026-04-19T15:10:16.999Z</time></trkpt><trkpt lat="44.86893407622437" lon="9.547837917060905"><ele>172.33333333333331</ele><time>2026-04-19T15:10:17.999Z</time></trkpt><trkpt lat="44.86872691145545" lon="9.547775678130757"><ele>173.0</ele><time>2026-04-19T15:10:18.999Z</time></trkpt><trkpt lat="44.86853250629954" lon="9.547699083428032"><ele>172.0</ele><time>2026-04-19T15:10:19.999Z</time></trkpt><trkpt lat="44.868351886333755" lon="9.547632613728988"><ele>171.0</ele><time>2026-04-19T15:10:20.999Z</time></trkpt><trkpt lat="44.86818383039598" lon="9.547564370464094"><ele>170.0</ele><time>2026-04-19T15:10:21.999Z</time></trkpt><trkpt lat="44.868029061424586" lon="9.547493313592254"><ele>170.0</ele><time>2026-04-19T15:10:22.999Z</time></trkpt><trkpt lat="44.8678926647823" lon="9.547399409508081"><ele>170.0</ele><time>2026-04-19T15:10:23.999Z</time></trkpt><trkpt lat="44.86774090706706" lon="9.547340722485616"><ele>170.0</ele><time>2026-04-19T15:10:24.999Z</time></trkpt><trkpt lat="44.86759350734379" lon="9.54723952527053"><ele>170.0</ele><time>2026-04-19T15:10:25.999Z</time></trkpt><trkpt lat="44.86745431174884" lon="9.547135549761878"><ele>170.0</ele><time>2026-04-19T15:10:26.999Z</time></trkpt><trkpt lat="44.8673171272196" lon="9.547024227656253"><ele>170.0</ele><time>2026-04-19T15:10:27.999Z</time></trkpt><trkpt lat="44.86717065424371" lon="9.546917242280252"><ele>171.0</ele><time>2026-04-19T15:10:28.999Z</time></trkpt><trkpt lat="44.86701182936353" lon="9.546820273794733"><ele>172.0</ele><time>2026-04-19T15:10:29.999Z</time></trkpt><trkpt lat="44.86684098640473" lon="9.546754535527677"><ele>173.0</ele><time>2026-04-19T15:10:30.999Z</time></trkpt><trkpt lat="44.86666400472681" lon="9.546686732010986"><ele>173.0</ele><time>2026-04-19T15:10:31.999Z</time></trkpt><trkpt lat="44.866486213765484" lon="9.546621916420033"><ele>173.0</ele><time>2026-04-19T15:10:32.999Z</time></trkpt><trkpt lat="44.86633005338508" lon="9.546559724790121"><ele>173.0</ele><time>2026-04-19T15:10:33.999Z</time></trkpt><trkpt lat="44.8661935040228" lon="9.54649942168909"><ele>173.0</ele><time>2026-04-19T15:10:34.999Z</time></trkpt><trkpt lat="44.86605717519173" lon="9.546439296941722"><ele>173.0</ele><time>2026-04-19T15:10:35.999Z</time></trkpt><trkpt lat="44.86591431331741" lon="9.546397302389863"><ele>173.0</ele><time>2026-04-19T15:10:36.999Z</time></trkpt><trkpt lat="44.86577603593053" lon="9.546368424097727"><ele>173.0</ele><time>2026-04-19T15:10:37.999Z</time></trkpt><trkpt lat="44.865636645258775" lon="9.546347351209947"><ele>173.0</ele><time>2026-04-19T15:10:38.999Z</time></trkpt><trkpt lat="44.865497300001906" lon="9.546329696649694"><ele>173.0</ele><time>2026-04-19T15:10:39.999Z</time></trkpt><trkpt lat="44.8653544050244" lon="9.546300235301066"><ele>173.0</ele><time>2026-04-19T15:10:40.999Z</time></trkpt><trkpt lat="44.865212952390486" lon="9.546266825596085"><ele>173.0</ele><time>2026-04-19T15:10:41.999Z</time></trkpt><trkpt lat="44.865069605882184" lon="9.546238835372092"><ele>173.5</ele><time>2026-04-19T15:10:42.999Z</time></trkpt><trkpt lat="44.86493101489141" lon="9.546208132535602"><ele>174.0</ele><time>2026-04-19T15:10:43.999Z</time></trkpt><trkpt lat="44.86478942106672" lon="9.546167279835803"><ele>174.5</ele><time>2026-04-19T15:10:44.999Z</time></trkpt><trkpt lat="44.86464722595253" lon="9.546123518172806"><ele>175.0</ele><time>2026-04-19T15:10:45.999Z</time></trkpt><trkpt lat="44.864503353665874" lon="9.546083791440703"><ele>175.0</ele><time>2026-04-19T15:10:46.999Z</time></trkpt><trkpt lat="44.864361225695255" lon="9.546050627832756"><ele>175.0</ele><time>2026-04-19T15:10:47.999Z</time></trkpt><trkpt lat="44.86421781973963" lon="9.546020621825708"><ele>175.0</ele><time>2026-04-19T15:10:48.999Z</time></trkpt><trkpt lat="44.86407597910247" lon="9.545992760277493"><ele>175.0</ele><time>2026-04-19T15:10:49.999Z</time></trkpt><trkpt lat="44.86393994243469" lon="9.545962018535388"><ele>175.0</ele><time>2026-04-19T15:10:50.999Z</time></trkpt><trkpt lat="44.86381226948878" lon="9.545896984373767"><ele>175.0</ele><time>2026-04-19T15:10:51.999Z</time></trkpt><trkpt lat="44.86368444830316" lon="9.545840964255282"><ele>175.0</ele><time>2026-04-19T15:10:52.999Z</time></trkpt><trkpt lat="44.86355662778269" lon="9.545794557358894"><ele>175.0</ele><time>2026-04-19T15:10:53.999Z</time></trkpt><trkpt lat="44.863448036307375" lon="9.545699656024084"><ele>174.75</ele><time>2026-04-19T15:10:54.999Z</time></trkpt><trkpt lat="44.863321410078214" lon="9.545638079896037"><ele>174.5</ele><time>2026-04-19T15:10:55.999Z</time></trkpt><trkpt lat="44.86320671873319" lon="9.54556067488245"><ele>174.25</ele><time>2026-04-19T15:10:56.999Z</time></trkpt><trkpt lat="44.86309255151023" lon="9.545490963174446"><ele>174.0</ele><time>2026-04-19T15:10:57.999Z</time></trkpt><trkpt lat="44.86298266475639" lon="9.545420994434899"><ele>174.5</ele><time>2026-04-19T15:10:58.999Z</time></trkpt><trkpt lat="44.86287418378812" lon="9.545346976817287"><ele>175.0</ele><time>2026-04-19T15:10:59.999Z</time></trkpt><trkpt lat="44.86276830116063" lon="9.545270157581507"><ele>175.5</ele><time>2026-04-19T15:11:00.999Z</time></trkpt><trkpt lat="44.862668533494954" lon="9.545181648432003"><ele>176.0</ele><time>2026-04-19T15:11:01.999Z</time></trkpt><trkpt lat="44.86257408279178" lon="9.54508540450402"><ele>176.0</ele><time>2026-04-19T15:11:02.999Z</time></trkpt><trkpt lat="44.862481499414486" lon="9.54498822795046"><ele>176.0</ele><time>2026-04-19T15:11:03.999Z</time></trkpt><trkpt lat="44.86238933695357" lon="9.544890738553844"><ele>176.0</ele><time>2026-04-19T15:11:04.999Z</time></trkpt><trkpt lat="44.8622950336693" lon="9.544791065795168"><ele>176.0</ele><time>2026-04-19T15:11:05.999Z</time></trkpt><trkpt lat="44.86219672903978" lon="9.544685700509213"><ele>176.0</ele><time>2026-04-19T15:11:06.999Z</time></trkpt><trkpt lat="44.86210313323102" lon="9.544578902428984"><ele>176.0</ele><time>2026-04-19T15:11:07.999Z</time></trkpt><trkpt lat="44.862003960475064" lon="9.544477857541716"><ele>176.0</ele><time>2026-04-19T15:11:08.999Z</time></trkpt><trkpt lat="44.86190799980585" lon="9.544374955313897"><ele>176.0</ele><time>2026-04-19T15:11:10Z</time></trkpt><trkpt lat="44.86182282506514" lon="9.54428306739362"><ele>175.83333333333331</ele><time>2026-04-19T15:11:11Z</time></trkpt><trkpt lat="44.86174160326231" lon="9.544200939483709"><ele>175.66666666666666</ele><time>2026-04-19T15:11:12Z</time></trkpt><trkpt lat="44.86166823164847" lon="9.544125363704035"><ele>175.5</ele><time>2026-04-19T15:11:13Z</time></trkpt><trkpt lat="44.86160367154854" lon="9.544049570858084"><ele>175.33333333333334</ele><time>2026-04-19T15:11:14Z</time></trkpt><trkpt lat="44.86155680105263" lon="9.543968367642949"><ele>175.16666666666669</ele><time>2026-04-19T15:11:15Z</time></trkpt><trkpt lat="44.86147622872006" lon="9.543900480949931"><ele>175.0</ele><time>2026-04-19T15:11:17Z</time></trkpt><trkpt lat="44.861426784633295" lon="9.543820726881671"><ele>175.0</ele><time>2026-04-19T15:11:22Z</time></trkpt><trkpt lat="44.86137552452482" lon="9.54376085397753"><ele>175.0</ele><time>2026-04-19T15:11:24Z</time></trkpt><trkpt lat="44.86129835187403" lon="9.543674533640136"><ele>175.0</ele><time>2026-04-19T15:11:27Z</time></trkpt><trkpt lat="44.86124609951805" lon="9.543605302217061"><ele>175.0</ele><time>2026-04-19T15:11:30Z</time></trkpt><trkpt lat="44.861180992998776" lon="9.54354979021825"><ele>175.0</ele><time>2026-04-19T15:11:35Z</time></trkpt><trkpt lat="44.86111561551566" lon="9.543476054362387"><ele>175.0</ele><time>2026-04-19T15:11:39Z</time></trkpt><trkpt lat="44.861051714824505" lon="9.543419365225496"><ele>175.83333333333334</ele><time>2026-04-19T15:11:42Z</time></trkpt><trkpt lat="44.86097849722595" lon="9.543388858480776"><ele>176.66666666666669</ele><time>2026-04-19T15:11:45Z</time></trkpt><trkpt lat="44.86104221641631" lon="9.543381989468141"><ele>177.5</ele><time>2026-04-19T15:18:02.001Z</time></trkpt><trkpt lat="44.86109811625421" lon="9.54343842978297"><ele>178.33333333333334</ele><time>2026-04-19T15:18:11.001Z</time></trkpt><trkpt lat="44.86120193982202" lon="9.543523199393153"><ele>179.16666666666666</ele><time>2026-04-19T15:18:23Z</time></trkpt><trkpt lat="44.86124070152485" lon="9.543606781994688"><ele>180.0</ele><time>2026-04-19T15:18:34Z</time></trkpt><trkpt lat="44.861259855894076" lon="9.543693731385893"><ele>180.0</ele><time>2026-04-19T15:18:44Z</time></trkpt><trkpt lat="44.86132813204066" lon="9.543738104284694"><ele>180.0</ele><time>2026-04-19T15:18:54Z</time></trkpt><trkpt lat="44.861293225779576" lon="9.54366168181766"><ele>180.0</ele><time>2026-04-19T15:19:26Z</time></trkpt><trkpt lat="44.86122587960585" lon="9.543639618705601"><ele>180.0</ele><time>2026-04-19T15:19:31Z</time></trkpt><trkpt lat="44.86118395892023" lon="9.543571024878293"><ele>180.0</ele><time>2026-04-19T15:23:17.999Z</time></trkpt><trkpt lat="44.86113308966873" lon="9.543486117064141"><ele>180.0</ele><time>2026-04-19T15:23:23.999Z</time></trkpt><trkpt lat="44.86107012031609" lon="9.543451442660798"><ele>180.0</ele><time>2026-04-19T15:23:30Z</time></trkpt><trkpt lat="44.861021458018655" lon="9.543394010709797"><ele>180.0</ele><time>2026-04-19T15:23:37Z</time></trkpt><trkpt lat="44.86097310139196" lon="9.543322828697049"><ele>180.0</ele><time>2026-04-19T15:23:44Z</time></trkpt><trkpt lat="44.860918558436694" lon="9.543277471106984"><ele>180.0</ele><time>2026-04-19T15:25:14Z</time></trkpt><trkpt lat="44.86085351201902" lon="9.543246485084133"><ele>180.0</ele><time>2026-04-19T15:25:16Z</time></trkpt><trkpt lat="44.86078749439771" lon="9.543188455589526"><ele>180.0</ele><time>2026-04-19T15:25:18Z</time></trkpt><trkpt lat="44.860795777460716" lon="9.543071137894877"><ele>180.0</ele><time>2026-04-19T15:25:20Z</time></trkpt><trkpt lat="44.860838587688654" lon="9.542976762620446"><ele>180.0</ele><time>2026-04-19T15:25:22Z</time></trkpt><trkpt lat="44.860868623662476" lon="9.542864289799725"><ele>180.16666666666666</ele><time>2026-04-19T15:25:24Z</time></trkpt><trkpt lat="44.86090910363257" lon="9.542754723111639"><ele>180.33333333333334</ele><time>2026-04-19T15:25:26Z</time></trkpt><trkpt lat="44.860954906921805" lon="9.542645091096519"><ele>180.5</ele><time>2026-04-19T15:25:28Z</time></trkpt><trkpt lat="44.86102337270801" lon="9.542650036099374"><ele>180.66666666666669</ele><time>2026-04-19T15:25:31Z</time></trkpt><trkpt lat="44.86110403702524" lon="9.542690709578038"><ele>180.83333333333334</ele><time>2026-04-19T15:25:33Z</time></trkpt><trkpt lat="44.86116827946867" lon="9.542760050693225"><ele>181.0</ele><time>2026-04-19T15:25:35Z</time></trkpt><trkpt lat="44.861224190844915" lon="9.54280249906757"><ele>181.60000000000002</ele><time>2026-04-19T15:25:37Z</time></trkpt><trkpt lat="44.86130857319159" lon="9.542587141773662"><ele>182.2</ele><time>2026-04-19T15:25:39Z</time></trkpt><trkpt lat="44.86134255140574" lon="9.542482641009636"><ele>182.8</ele><time>2026-04-19T15:25:40Z</time></trkpt><trkpt lat="44.86138267430833" lon="9.542369642466122"><ele>183.39999999999998</ele><time>2026-04-19T15:25:41Z</time></trkpt><trkpt lat="44.861421878117895" lon="9.542264751285684"><ele>184.0</ele><time>2026-04-19T15:25:42Z</time></trkpt><trkpt lat="44.861460295278064" lon="9.542168446275483"><ele>184.0</ele><time>2026-04-19T15:25:43Z</time></trkpt><trkpt lat="44.861493250808245" lon="9.54207756496299"><ele>184.0</ele><time>2026-04-19T15:25:44Z</time></trkpt><trkpt lat="44.86154193007864" lon="9.541955771679834"><ele>184.0</ele><time>2026-04-19T15:25:46Z</time></trkpt><trkpt lat="44.8616328845111" lon="9.54199238490424"><ele>184.0</ele><time>2026-04-19T15:25:50Z</time></trkpt><trkpt lat="44.86167464922873" lon="9.542123007547215"><ele>184.0</ele><time>2026-04-19T15:25:52Z</time></trkpt><trkpt lat="44.86171319857251" lon="9.542285305001128"><ele>184.0</ele><time>2026-04-19T15:25:54Z</time></trkpt><trkpt lat="44.86173487891763" lon="9.542370465751564"><ele>184.0</ele><time>2026-04-19T15:25:55Z</time></trkpt><trkpt lat="44.86176247744397" lon="9.542459052213944"><ele>184.0</ele><time>2026-04-19T15:25:56Z</time></trkpt><trkpt lat="44.861795832712104" lon="9.542545858536265"><ele>184.0</ele><time>2026-04-19T15:25:57Z</time></trkpt><trkpt lat="44.86182567837379" lon="9.542627617644058"><ele>184.0</ele><time>2026-04-19T15:25:58Z</time></trkpt><trkpt lat="44.86185565278806" lon="9.542789775032448"><ele>184.0</ele><time>2026-04-19T15:26:00Z</time></trkpt><trkpt lat="44.86181973371565" lon="9.542955734704032"><ele>183.42857142857144</ele><time>2026-04-19T15:26:02Z</time></trkpt><trkpt lat="44.86178517477576" lon="9.543034901527536"><ele>182.85714285714283</ele><time>2026-04-19T15:26:03Z</time></trkpt><trkpt lat="44.8617489829122" lon="9.543112099463592"><ele>182.28571428571428</ele><time>2026-04-19T15:26:04Z</time></trkpt><trkpt lat="44.86171089602527" lon="9.543191990475998"><ele>181.71428571428572</ele><time>2026-04-19T15:26:05Z</time></trkpt><trkpt lat="44.86167243595371" lon="9.543274320780046"><ele>181.14285714285717</ele><time>2026-04-19T15:26:06Z</time></trkpt><trkpt lat="44.86163146044112" lon="9.543358446212132"><ele>180.57142857142856</ele><time>2026-04-19T15:26:07.001Z</time></trkpt><trkpt lat="44.86159282206877" lon="9.54343828101421"><ele>180.0</ele><time>2026-04-19T15:26:08.001Z</time></trkpt><trkpt lat="44.86155771565744" lon="9.543516282789543"><ele>180.0</ele><time>2026-04-19T15:26:09.001Z</time></trkpt><trkpt lat="44.86150379577291" lon="9.543658435453741"><ele>180.0</ele><time>2026-04-19T15:26:11.001Z</time></trkpt><trkpt lat="44.8614307940556" lon="9.543765045473119"><ele>180.0</ele><time>2026-04-19T15:26:13.001Z</time></trkpt><trkpt lat="44.86139392711111" lon="9.543838887556596"><ele>180.0</ele><time>2026-04-19T15:26:14.001Z</time></trkpt><trkpt lat="44.8613663053242" lon="9.54393109223834"><ele>180.0</ele><time>2026-04-19T15:26:15.001Z</time></trkpt><trkpt lat="44.86130372855119" lon="9.543985101908"><ele>180.0</ele><time>2026-04-19T15:26:16.001Z</time></trkpt><trkpt lat="44.86125018070632" lon="9.544059965920768"><ele>179.0</ele><time>2026-04-19T15:26:17.001Z</time></trkpt><trkpt lat="44.86118252536888" lon="9.54415224476769"><ele>178.0</ele><time>2026-04-19T15:26:18.001Z</time></trkpt><trkpt lat="44.86110877581786" lon="9.544250574523097"><ele>177.0</ele><time>2026-04-19T15:26:19.001Z</time></trkpt><trkpt lat="44.861033326704614" lon="9.54434743653819"><ele>176.0</ele><time>2026-04-19T15:26:20.001Z</time></trkpt><trkpt lat="44.860963794001094" lon="9.544464925640435"><ele>175.0</ele><time>2026-04-19T15:26:21.001Z</time></trkpt><trkpt lat="44.86087505111386" lon="9.544562617034284"><ele>173.75</ele><time>2026-04-19T15:26:22.001Z</time></trkpt><trkpt lat="44.86077920189659" lon="9.544669859322266"><ele>172.5</ele><time>2026-04-19T15:26:23.001Z</time></trkpt><trkpt lat="44.860671573662074" lon="9.544765416439498"><ele>171.25</ele><time>2026-04-19T15:26:24.001Z</time></trkpt><trkpt lat="44.86055547223852" lon="9.54486417083988"><ele>170.0</ele><time>2026-04-19T15:26:25.001Z</time></trkpt><trkpt lat="44.86043577030046" lon="9.544970453851116"><ele>170.0</ele><time>2026-04-19T15:26:26.001Z</time></trkpt><trkpt lat="44.86031340242772" lon="9.545078379024721"><ele>170.0</ele><time>2026-04-19T15:26:27.001Z</time></trkpt><trkpt lat="44.86019077024499" lon="9.545184377856176"><ele>170.0</ele><time>2026-04-19T15:26:28.001Z</time></trkpt><trkpt lat="44.8600656222432" lon="9.545291093851423"><ele>170.0</ele><time>2026-04-19T15:26:29.001Z</time></trkpt><trkpt lat="44.8599363538208" lon="9.545402775367535"><ele>167.0</ele><time>2026-04-19T15:26:30.001Z</time></trkpt><trkpt lat="44.859805901549244" lon="9.545510112039358"><ele>164.0</ele><time>2026-04-19T15:26:31.001Z</time></trkpt><trkpt lat="44.85967834304643" lon="9.545623057040853"><ele>161.0</ele><time>2026-04-19T15:26:32.001Z</time></trkpt><trkpt lat="44.85955195014231" lon="9.54573414713127"><ele>161.0</ele><time>2026-04-19T15:26:33.001Z</time></trkpt><trkpt lat="44.85942833098518" lon="9.545841240782106"><ele>161.0</ele><time>2026-04-19T15:26:34.001Z</time></trkpt><trkpt lat="44.85930577873671" lon="9.545946861916725"><ele>161.0</ele><time>2026-04-19T15:26:35.001Z</time></trkpt><trkpt lat="44.85918578400753" lon="9.546050906219419"><ele>161.0</ele><time>2026-04-19T15:26:36.001Z</time></trkpt><trkpt lat="44.85906440530303" lon="9.546153914282245"><ele>161.25</ele><time>2026-04-19T15:26:37.001Z</time></trkpt><trkpt lat="44.85894355039835" lon="9.546257870761943"><ele>161.5</ele><time>2026-04-19T15:26:38.001Z</time></trkpt><trkpt lat="44.85882669428341" lon="9.546360292512977"><ele>161.75</ele><time>2026-04-19T15:26:39.001Z</time></trkpt><trkpt lat="44.85870964143369" lon="9.546461849919007"><ele>162.0</ele><time>2026-04-19T15:26:40.001Z</time></trkpt><trkpt lat="44.858591275367495" lon="9.546563387813984"><ele>162.0</ele><time>2026-04-19T15:26:41Z</time></trkpt><trkpt lat="44.85847070803323" lon="9.546663819740084"><ele>162.0</ele><time>2026-04-19T15:26:42Z</time></trkpt><trkpt lat="44.858347223522706" lon="9.546769197551164"><ele>162.0</ele><time>2026-04-19T15:26:43Z</time></trkpt><trkpt lat="44.858224495279295" lon="9.546875160891547"><ele>162.0</ele><time>2026-04-19T15:26:44Z</time></trkpt><trkpt lat="44.858105204509286" lon="9.546982606757625"><ele>163.5</ele><time>2026-04-19T15:26:45Z</time></trkpt><trkpt lat="44.85798734521459" lon="9.547089530875587"><ele>165.0</ele><time>2026-04-19T15:26:46Z</time></trkpt><trkpt lat="44.85787335637667" lon="9.547192293770092"><ele>166.5</ele><time>2026-04-19T15:26:47Z</time></trkpt><trkpt lat="44.85776686169456" lon="9.547283069542102"><ele>168.0</ele><time>2026-04-19T15:26:48Z</time></trkpt><trkpt lat="44.8576740850548" lon="9.547362273203408"><ele>169.16666666666666</ele><time>2026-04-19T15:26:49Z</time></trkpt><trkpt lat="44.857588398546696" lon="9.54743563038352"><ele>170.33333333333334</ele><time>2026-04-19T15:26:50Z</time></trkpt><trkpt lat="44.85751498956955" lon="9.547501036670154"><ele>171.5</ele><time>2026-04-19T15:26:51Z</time></trkpt><trkpt lat="44.85744437549999" lon="9.54755606648157"><ele>172.66666666666669</ele><time>2026-04-19T15:26:52Z</time></trkpt><trkpt lat="44.85738774856833" lon="9.54760407194924"><ele>173.83333333333334</ele><time>2026-04-19T15:26:53Z</time></trkpt><trkpt lat="44.85730246917867" lon="9.547680999504287"><ele>175.0</ele><time>2026-04-19T15:26:55Z</time></trkpt><trkpt lat="44.85723205711732" lon="9.547732412889754"><ele>175.0</ele><time>2026-04-19T15:26:57Z</time></trkpt><trkpt lat="44.85714285403262" lon="9.547776933882522"><ele>175.0</ele><time>2026-04-19T15:26:59Z</time></trkpt><trkpt lat="44.85703547524828" lon="9.54780721783064"><ele>175.0</ele><time>2026-04-19T15:27:01Z</time></trkpt><trkpt lat="44.856959862181384" lon="9.547808368584414"><ele>175.0</ele><time>2026-04-19T15:27:02Z</time></trkpt><trkpt lat="44.856871499964214" lon="9.547791750352513"><ele>175.0</ele><time>2026-04-19T15:27:03Z</time></trkpt><trkpt lat="44.85677801513824" lon="9.547757093450498"><ele>176.0</ele><time>2026-04-19T15:27:04Z</time></trkpt><trkpt lat="44.85666941617642" lon="9.547700244145258"><ele>177.0</ele><time>2026-04-19T15:27:05Z</time></trkpt><trkpt lat="44.85655566228552" lon="9.547640344916417"><ele>178.0</ele><time>2026-04-19T15:27:06Z</time></trkpt><trkpt lat="44.85644504208958" lon="9.547576731701737"><ele>179.0</ele><time>2026-04-19T15:27:07Z</time></trkpt><trkpt lat="44.85635013965094" lon="9.547503358159897"><ele>179.0</ele><time>2026-04-19T15:27:08Z</time></trkpt><trkpt lat="44.856273198704834" lon="9.547400212447673"><ele>179.0</ele><time>2026-04-19T15:27:09Z</time></trkpt><trkpt lat="44.85620604337325" lon="9.54726799512404"><ele>179.0</ele><time>2026-04-19T15:27:10Z</time></trkpt><trkpt lat="44.85616101212001" lon="9.547136908375313"><ele>179.0</ele><time>2026-04-19T15:27:11Z</time></trkpt><trkpt lat="44.85612728646841" lon="9.547019826987823"><ele>179.0</ele><time>2026-04-19T15:27:12Z</time></trkpt><trkpt lat="44.85608209909747" lon="9.546933049820538"><ele>179.66666666666666</ele><time>2026-04-19T15:27:13Z</time></trkpt><trkpt lat="44.85602986928411" lon="9.546866428978042"><ele>180.33333333333331</ele><time>2026-04-19T15:27:14Z</time></trkpt><trkpt lat="44.855959323577956" lon="9.54681574622772"><ele>181.0</ele><time>2026-04-19T15:27:15Z</time></trkpt><trkpt lat="44.855883197541374" lon="9.546801079222261"><ele>181.66666666666666</ele><time>2026-04-19T15:27:16Z</time></trkpt><trkpt lat="44.85580892799183" lon="9.546825565088701"><ele>182.33333333333334</ele><time>2026-04-19T15:27:17Z</time></trkpt><trkpt lat="44.855750653643405" lon="9.546868877758529"><ele>183.0</ele><time>2026-04-19T15:27:18Z</time></trkpt><trkpt lat="44.85569145949563" lon="9.546956062872757"><ele>182.2</ele><time>2026-04-19T15:27:20Z</time></trkpt><trkpt lat="44.855698757602596" lon="9.547142864402224"><ele>181.4</ele><time>2026-04-19T15:27:28.001Z</time></trkpt><trkpt lat="44.855763048260634" lon="9.547239709952565"><ele>180.6</ele><time>2026-04-19T15:27:29.001Z</time></trkpt><trkpt lat="44.85581705679286" lon="9.547307429313884"><ele>179.79999999999998</ele><time>2026-04-19T15:27:30.001Z</time></trkpt><trkpt lat="44.8558919848683" lon="9.547393606896236"><ele>179.0</ele><time>2026-04-19T15:27:31.001Z</time></trkpt><trkpt lat="44.855965003017104" lon="9.547481256813821"><ele>179.0</ele><time>2026-04-19T15:27:32.001Z</time></trkpt><trkpt lat="44.85604768597904" lon="9.547581161700998"><ele>179.0</ele><time>2026-04-19T15:27:33.001Z</time></trkpt><trkpt lat="44.85613964938468" lon="9.547674655811058"><ele>179.0</ele><time>2026-04-19T15:27:34.001Z</time></trkpt><trkpt lat="44.85624036534188" lon="9.547752753861722"><ele>179.0</ele><time>2026-04-19T15:27:35.001Z</time></trkpt><trkpt lat="44.85633740387001" lon="9.547806600810839"><ele>179.0</ele><time>2026-04-19T15:27:36.001Z</time></trkpt><trkpt lat="44.85644370738906" lon="9.547856195576752"><ele>180.5</ele><time>2026-04-19T15:27:37.001Z</time></trkpt><trkpt lat="44.85655510053056" lon="9.54791591810942"><ele>182.0</ele><time>2026-04-19T15:27:38.001Z</time></trkpt><trkpt lat="44.856667978360356" lon="9.547969094857704"><ele>183.5</ele><time>2026-04-19T15:27:39.001Z</time></trkpt><trkpt lat="44.85678521138403" lon="9.548025834956835"><ele>185.0</ele><time>2026-04-19T15:27:40.001Z</time></trkpt><trkpt lat="44.85690877534664" lon="9.548087716735687"><ele>185.0</ele><time>2026-04-19T15:27:41.001Z</time></trkpt><trkpt lat="44.85703161142" lon="9.548155077206262"><ele>185.0</ele><time>2026-04-19T15:27:42.001Z</time></trkpt><trkpt lat="44.8571565893617" lon="9.548218531960222"><ele>185.0</ele><time>2026-04-19T15:27:43.001Z</time></trkpt><trkpt lat="44.85728380602564" lon="9.548277114179475"><ele>185.0</ele><time>2026-04-19T15:27:44.001Z</time></trkpt><trkpt lat="44.85740781440039" lon="9.548343330266174"><ele>185.0</ele><time>2026-04-19T15:27:45.001Z</time></trkpt><trkpt lat="44.85753336520845" lon="9.548408842181201"><ele>185.0</ele><time>2026-04-19T15:27:46.001Z</time></trkpt><trkpt lat="44.857675093829855" lon="9.54847225022387"><ele>185.0</ele><time>2026-04-19T15:27:47.001Z</time></trkpt><trkpt lat="44.85780048689474" lon="9.548537490621124"><ele>185.0</ele><time>2026-04-19T15:27:48.001Z</time></trkpt><trkpt lat="44.85791906740167" lon="9.548599305511003"><ele>182.75</ele><time>2026-04-19T15:27:49.001Z</time></trkpt><trkpt lat="44.85802747362411" lon="9.548672993868863"><ele>180.5</ele><time>2026-04-19T15:27:50.001Z</time></trkpt><trkpt lat="44.858123544006055" lon="9.548762368011568"><ele>178.25</ele><time>2026-04-19T15:27:51.001Z</time></trkpt><trkpt lat="44.85822268336829" lon="9.548871090332465"><ele>176.0</ele><time>2026-04-19T15:27:52.001Z</time></trkpt><trkpt lat="44.85832255341918" lon="9.548987692643866"><ele>175.0</ele><time>2026-04-19T15:27:53.001Z</time></trkpt><trkpt lat="44.85842350078649" lon="9.549109548614629"><ele>174.0</ele><time>2026-04-19T15:27:54.001Z</time></trkpt><trkpt lat="44.85853509523597" lon="9.549226191307522"><ele>173.0</ele><time>2026-04-19T15:27:55.001Z</time></trkpt><trkpt lat="44.85866314618799" lon="9.549333225837717"><ele>172.0</ele><time>2026-04-19T15:27:56.001Z</time></trkpt><trkpt lat="44.858799911203825" lon="9.54943578792324"><ele>181.66666666666669</ele><time>2026-04-19T15:27:57.001Z</time></trkpt><trkpt lat="44.85893162155459" lon="9.549573191237823"><ele>191.33333333333334</ele><time>2026-04-19T15:27:58.001Z</time></trkpt><trkpt lat="44.859063920445294" lon="9.549721161680681"><ele>201.0</ele><time>2026-04-19T15:27:59.001Z</time></trkpt><trkpt lat="44.859196175890766" lon="9.549860544856362"><ele>192.0</ele><time>2026-04-19T15:28:00.001Z</time></trkpt><trkpt lat="44.8593178181072" lon="9.549992655983289"><ele>183.0</ele><time>2026-04-19T15:28:01.001Z</time></trkpt><trkpt lat="44.85943831930878" lon="9.550120459767797"><ele>174.0</ele><time>2026-04-19T15:28:02.001Z</time></trkpt><trkpt lat="44.85955702338467" lon="9.550246557663733"><ele>174.0</ele><time>2026-04-19T15:28:03.001Z</time></trkpt><trkpt lat="44.85968138218146" lon="9.550369387141748"><ele>174.0</ele><time>2026-04-19T15:28:04.001Z</time></trkpt><trkpt lat="44.859801221236246" lon="9.550493767872084"><ele>174.0</ele><time>2026-04-19T15:28:05.001Z</time></trkpt><trkpt lat="44.85991606971129" lon="9.55062386321228"><ele>174.0</ele><time>2026-04-19T15:28:06.001Z</time></trkpt><trkpt lat="44.86002273943175" lon="9.55076271712471"><ele>172.75</ele><time>2026-04-19T15:28:07.001Z</time></trkpt><trkpt lat="44.86012259632465" lon="9.550905294584162"><ele>171.5</ele><time>2026-04-19T15:28:08.001Z</time></trkpt><trkpt lat="44.86022073465779" lon="9.55105213863739"><ele>170.25</ele><time>2026-04-19T15:28:09.001Z</time></trkpt><trkpt lat="44.86032919178529" lon="9.551194013537776"><ele>169.0</ele><time>2026-04-19T15:28:10.001Z</time></trkpt><trkpt lat="44.860444902421776" lon="9.551331450865153"><ele>175.0</ele><time>2026-04-19T15:28:11.001Z</time></trkpt><trkpt lat="44.86056362000112" lon="9.551463347471717"><ele>181.0</ele><time>2026-04-19T15:28:12.001Z</time></trkpt><trkpt lat="44.860691201115294" lon="9.55158807654363"><ele>187.0</ele><time>2026-04-19T15:28:13.001Z</time></trkpt><trkpt lat="44.860819361473524" lon="9.551717073241152"><ele>187.0</ele><time>2026-04-19T15:28:14.001Z</time></trkpt><trkpt lat="44.8609457029859" lon="9.551847891131192"><ele>187.0</ele><time>2026-04-19T15:28:15.001Z</time></trkpt><trkpt lat="44.86107416795201" lon="9.55197812059093"><ele>187.0</ele><time>2026-04-19T15:28:16.001Z</time></trkpt><trkpt lat="44.861192970827375" lon="9.552116697367412"><ele>186.33333333333334</ele><time>2026-04-19T15:28:17.001Z</time></trkpt><trkpt lat="44.86130095299421" lon="9.552284809115482"><ele>185.66666666666666</ele><time>2026-04-19T15:28:18.001Z</time></trkpt><trkpt lat="44.861399657277225" lon="9.552496189525407"><ele>185.0</ele><time>2026-04-19T15:28:19.001Z</time></trkpt><trkpt lat="44.86148492064003" lon="9.55271239684507"><ele>190.66666666666666</ele><time>2026-04-19T15:28:20.001Z</time></trkpt><trkpt lat="44.86156988329049" lon="9.55290971738329"><ele>196.33333333333331</ele><time>2026-04-19T15:28:21.001Z</time></trkpt><trkpt lat="44.86166962240782" lon="9.553098230177952"><ele>202.0</ele><time>2026-04-19T15:28:22.001Z</time></trkpt><trkpt lat="44.86176626954197" lon="9.553261476349284"><ele>194.66666666666666</ele><time>2026-04-19T15:28:23.001Z</time></trkpt><trkpt lat="44.861899779981975" lon="9.553397662550653"><ele>187.33333333333331</ele><time>2026-04-19T15:28:24.001Z</time></trkpt><trkpt lat="44.86206833335496" lon="9.553519637439281"><ele>180.0</ele><time>2026-04-19T15:28:25.001Z</time></trkpt><trkpt lat="44.86223333121275" lon="9.553624045854031"><ele>182.75</ele><time>2026-04-19T15:28:26.001Z</time></trkpt><trkpt lat="44.862362864925" lon="9.55373725613316"><ele>185.5</ele><time>2026-04-19T15:28:27.001Z</time></trkpt><trkpt lat="44.86245928515291" lon="9.553859986295954"><ele>188.25</ele><time>2026-04-19T15:28:28.001Z</time></trkpt><trkpt lat="44.86253297430697" lon="9.554009882622557"><ele>191.0</ele><time>2026-04-19T15:28:29.002Z</time></trkpt><trkpt lat="44.86260410812705" lon="9.554194219647886"><ele>190.0</ele><time>2026-04-19T15:28:30.002Z</time></trkpt><trkpt lat="44.86269896077068" lon="9.554398605236905"><ele>189.0</ele><time>2026-04-19T15:28:31.002Z</time></trkpt><trkpt lat="44.86278320300588" lon="9.554596418038898"><ele>188.0</ele><time>2026-04-19T15:28:32.002Z</time></trkpt><trkpt lat="44.86285382267195" lon="9.554789493397255"><ele>188.0</ele><time>2026-04-19T15:28:33.002Z</time></trkpt><trkpt lat="44.86294798803693" lon="9.55492739902715"><ele>188.0</ele><time>2026-04-19T15:28:34.002Z</time></trkpt><trkpt lat="44.863107769624115" lon="9.555072639558535"><ele>188.0</ele><time>2026-04-19T15:28:35.002Z</time></trkpt><trkpt lat="44.86328188983523" lon="9.55516919727845"><ele>188.0</ele><time>2026-04-19T15:28:36.002Z</time></trkpt><trkpt lat="44.86346109292226" lon="9.555238827514064"><ele>188.0</ele><time>2026-04-19T15:28:37.002Z</time></trkpt><trkpt lat="44.86361309118339" lon="9.555272884566781"><ele>188.0</ele><time>2026-04-19T15:28:38.002Z</time></trkpt><trkpt lat="44.863764583554676" lon="9.555262231415234"><ele>188.0</ele><time>2026-04-19T15:28:39.002Z</time></trkpt><trkpt lat="44.863919118314" lon="9.555226455504119"><ele>188.0</ele><time>2026-04-19T15:28:40.002Z</time></trkpt><trkpt lat="44.86407904698318" lon="9.55517966892149"><ele>188.0</ele><time>2026-04-19T15:28:41.002Z</time></trkpt><trkpt lat="44.86424391010776" lon="9.555126420486099"><ele>189.66666666666666</ele><time>2026-04-19T15:28:42.002Z</time></trkpt><trkpt lat="44.8644045307889" lon="9.55506497043081"><ele>191.33333333333331</ele><time>2026-04-19T15:28:43.002Z</time></trkpt><trkpt lat="44.86456011156543" lon="9.555010218207462"><ele>193.0</ele><time>2026-04-19T15:28:44.002Z</time></trkpt><trkpt lat="44.864715571615726" lon="9.55496949557117"><ele>193.0</ele><time>2026-04-19T15:28:45.002Z</time></trkpt><trkpt lat="44.864866623654166" lon="9.554927864655928"><ele>193.0</ele><time>2026-04-19T15:28:46.002Z</time></trkpt><trkpt lat="44.86501549783318" lon="9.554887272275217"><ele>193.0</ele><time>2026-04-19T15:28:47.001Z</time></trkpt><trkpt lat="44.865160824487965" lon="9.554848545999164"><ele>193.66666666666666</ele><time>2026-04-19T15:28:48.001Z</time></trkpt><trkpt lat="44.86530792978477" lon="9.554808837974283"><ele>194.33333333333331</ele><time>2026-04-19T15:28:49.001Z</time></trkpt><trkpt lat="44.865460151523095" lon="9.55476616590018"><ele>195.0</ele><time>2026-04-19T15:28:50.001Z</time></trkpt><trkpt lat="44.86561141395169" lon="9.554724701534182"><ele>195.0</ele><time>2026-04-19T15:28:51.001Z</time></trkpt><trkpt lat="44.8657554956229" lon="9.55469527422984"><ele>195.0</ele><time>2026-04-19T15:28:52.001Z</time></trkpt><trkpt lat="44.86588831288649" lon="9.554692532298073"><ele>195.0</ele><time>2026-04-19T15:28:53.001Z</time></trkpt><trkpt lat="44.86602043098457" lon="9.554718510021347"><ele>195.0</ele><time>2026-04-19T15:28:54.001Z</time></trkpt><trkpt lat="44.8661541839113" lon="9.55479329401204"><ele>192.0</ele><time>2026-04-19T15:28:55.001Z</time></trkpt><trkpt lat="44.866288532261464" lon="9.554927923693572"><ele>189.0</ele><time>2026-04-19T15:28:56.001Z</time></trkpt><trkpt lat="44.86641672361945" lon="9.555101617883693"><ele>186.0</ele><time>2026-04-19T15:28:57.001Z</time></trkpt><trkpt lat="44.86653577862247" lon="9.55527081298476"><ele>186.0</ele><time>2026-04-19T15:28:58.001Z</time></trkpt><trkpt lat="44.866650007049564" lon="9.555430531203832"><ele>186.0</ele><time>2026-04-19T15:28:59.001Z</time></trkpt><trkpt lat="44.86677341215332" lon="9.555593560542823"><ele>186.0</ele><time>2026-04-19T15:29:00.001Z</time></trkpt><trkpt lat="44.866890519913774" lon="9.555747566353348"><ele>186.0</ele><time>2026-04-19T15:29:01.001Z</time></trkpt><trkpt lat="44.86700809833279" lon="9.555890611726525"><ele>186.0</ele><time>2026-04-19T15:29:02.001Z</time></trkpt><trkpt lat="44.86713872529007" lon="9.556000054872117"><ele>186.0</ele><time>2026-04-19T15:29:03.001Z</time></trkpt><trkpt lat="44.86728211405424" lon="9.556081691480605"><ele>186.0</ele><time>2026-04-19T15:29:04.001Z</time></trkpt><trkpt lat="44.86742413346308" lon="9.556134712025202"><ele>186.0</ele><time>2026-04-19T15:29:05.001Z</time></trkpt><trkpt lat="44.86757362449073" lon="9.556181697552924"><ele>186.0</ele><time>2026-04-19T15:29:06.001Z</time></trkpt><trkpt lat="44.867724801538735" lon="9.556216422172248"><ele>186.66666666666666</ele><time>2026-04-19T15:29:07.001Z</time></trkpt><trkpt lat="44.867875186626534" lon="9.556255852432093"><ele>187.33333333333331</ele><time>2026-04-19T15:29:08.001Z</time></trkpt><trkpt lat="44.86802236919679" lon="9.556314408786127"><ele>188.0</ele><time>2026-04-19T15:29:09.001Z</time></trkpt><trkpt lat="44.86815598388198" lon="9.556408014649609"><ele>188.0</ele><time>2026-04-19T15:29:10.001Z</time></trkpt><trkpt lat="44.86826978690779" lon="9.556537346548613"><ele>188.0</ele><time>2026-04-19T15:29:11.001Z</time></trkpt><trkpt lat="44.86835750473844" lon="9.556697913100132"><ele>188.0</ele><time>2026-04-19T15:29:12.001Z</time></trkpt><trkpt lat="44.86843458524128" lon="9.556884146602261"><ele>188.0</ele><time>2026-04-19T15:29:13.001Z</time></trkpt><trkpt lat="44.86851399929058" lon="9.557064419184465"><ele>187.25</ele><time>2026-04-19T15:29:14.001Z</time></trkpt><trkpt lat="44.868584229010985" lon="9.557230935333399"><ele>186.5</ele><time>2026-04-19T15:29:15.001Z</time></trkpt><trkpt lat="44.86865323407454" lon="9.557393262918055"><ele>185.75</ele><time>2026-04-19T15:29:16.001Z</time></trkpt><trkpt lat="44.86873583894924" lon="9.557545661492474"><ele>185.0</ele><time>2026-04-19T15:29:17.001Z</time></trkpt><trkpt lat="44.868837558424175" lon="9.557681451081628"><ele>185.0</ele><time>2026-04-19T15:29:18.001Z</time></trkpt><trkpt lat="44.86895797577579" lon="9.557788945732177"><ele>185.0</ele><time>2026-04-19T15:29:19.001Z</time></trkpt><trkpt lat="44.869090207899994" lon="9.557861121340654"><ele>185.0</ele><time>2026-04-19T15:29:20.001Z</time></trkpt><trkpt lat="44.86923107456426" lon="9.557902959725103"><ele>185.0</ele><time>2026-04-19T15:29:21.001Z</time></trkpt><trkpt lat="44.869377243665895" lon="9.557920586332191"><ele>187.75</ele><time>2026-04-19T15:29:22.001Z</time></trkpt><trkpt lat="44.86951653389529" lon="9.557947448772445"><ele>190.5</ele><time>2026-04-19T15:29:23.001Z</time></trkpt><trkpt lat="44.86966625451694" lon="9.557966234727706"><ele>193.25</ele><time>2026-04-19T15:29:24.001Z</time></trkpt><trkpt lat="44.869821581512674" lon="9.557957797592062"><ele>196.0</ele><time>2026-04-19T15:29:25.001Z</time></trkpt><trkpt lat="44.8699752154461" lon="9.557925063493899"><ele>195.66666666666666</ele><time>2026-04-19T15:29:26.001Z</time></trkpt><trkpt lat="44.87012653396624" lon="9.55787923708332"><ele>195.33333333333331</ele><time>2026-04-19T15:29:27.001Z</time></trkpt><trkpt lat="44.870274021242246" lon="9.557831928603802"><ele>195.0</ele><time>2026-04-19T15:29:28.001Z</time></trkpt><trkpt lat="44.87041980367" lon="9.557788710482976"><ele>192.75</ele><time>2026-04-19T15:29:29.001Z</time></trkpt><trkpt lat="44.870559827265204" lon="9.557746677386648"><ele>190.5</ele><time>2026-04-19T15:29:30.001Z</time></trkpt><trkpt lat="44.87069830603101" lon="9.557708710574623"><ele>188.25</ele><time>2026-04-19T15:29:31.001Z</time></trkpt><trkpt lat="44.87083995368758" lon="9.557670523116336"><ele>186.0</ele><time>2026-04-19T15:29:32.001Z</time></trkpt><trkpt lat="44.87098459525256" lon="9.55763995506781"><ele>183.33333333333334</ele><time>2026-04-19T15:29:33.001Z</time></trkpt><trkpt lat="44.871144545103924" lon="9.557628680512337"><ele>180.66666666666669</ele><time>2026-04-19T15:29:34.001Z</time></trkpt><trkpt lat="44.871305988241495" lon="9.557661051216963"><ele>178.0</ele><time>2026-04-19T15:29:35.001Z</time></trkpt><trkpt lat="44.87145828441422" lon="9.5577347665609"><ele>178.0</ele><time>2026-04-19T15:29:36.001Z</time></trkpt><trkpt lat="44.87160207507946" lon="9.557851325232653"><ele>178.0</ele><time>2026-04-19T15:29:37.001Z</time></trkpt><trkpt lat="44.87173445565256" lon="9.557997043975046"><ele>178.0</ele><time>2026-04-19T15:29:38.001Z</time></trkpt><trkpt lat="44.8718378442054" lon="9.558171264373017"><ele>178.0</ele><time>2026-04-19T15:29:39.001Z</time></trkpt><trkpt lat="44.87191523532278" lon="9.558361579785112"><ele>178.0</ele><time>2026-04-19T15:29:40.001Z</time></trkpt><trkpt lat="44.87197913492292" lon="9.55855971575973"><ele>178.0</ele><time>2026-04-19T15:29:41.001Z</time></trkpt><trkpt lat="44.87204245971168" lon="9.558760637360445"><ele>178.0</ele><time>2026-04-19T15:29:42.001Z</time></trkpt><trkpt lat="44.87210502278542" lon="9.558951485405741"><ele>178.0</ele><time>2026-04-19T15:29:43.001Z</time></trkpt><trkpt lat="44.872175520370504" lon="9.559122359094703"><ele>178.0</ele><time>2026-04-19T15:29:44.001Z</time></trkpt><trkpt lat="44.87227028889903" lon="9.559272540822684"><ele>178.0</ele><time>2026-04-19T15:29:45.001Z</time></trkpt><trkpt lat="44.87239130838336" lon="9.559398534350914"><ele>178.0</ele><time>2026-04-19T15:29:46.001Z</time></trkpt><trkpt lat="44.8725349849145" lon="9.559502273814319"><ele>178.0</ele><time>2026-04-19T15:29:47.001Z</time></trkpt><trkpt lat="44.872705551497916" lon="9.55960559318319"><ele>178.0</ele><time>2026-04-19T15:29:48.001Z</time></trkpt><trkpt lat="44.8728519213731" lon="9.559710016345292"><ele>179.0</ele><time>2026-04-19T15:29:49.001Z</time></trkpt><trkpt lat="44.87300446907358" lon="9.559845038754844"><ele>180.0</ele><time>2026-04-19T15:29:50.001Z</time></trkpt><trkpt lat="44.87318492926779" lon="9.559977007350302"><ele>181.0</ele><time>2026-04-19T15:29:51.001Z</time></trkpt><trkpt lat="44.87338858265348" lon="9.560120210494926"><ele>180.0</ele><time>2026-04-19T15:29:52.001Z</time></trkpt><trkpt lat="44.8735966301035" lon="9.560303434212079"><ele>179.0</ele><time>2026-04-19T15:29:53.001Z</time></trkpt><trkpt lat="44.87379636709472" lon="9.560479185138172"><ele>179.0</ele><time>2026-04-19T15:29:54.001Z</time></trkpt><trkpt lat="44.873953961989805" lon="9.56062505077061"><ele>179.0</ele><time>2026-04-19T15:29:55.001Z</time></trkpt><trkpt lat="44.87408614876204" lon="9.560769055528757"><ele>179.0</ele><time>2026-04-19T15:29:56.001Z</time></trkpt><trkpt lat="44.87456137252277" lon="9.560974152773536"><ele>178.5</ele><time>2026-04-19T15:29:57.001Z</time></trkpt><trkpt lat="44.87469583573761" lon="9.56107488287678"><ele>178.0</ele><time>2026-04-19T15:29:58.001Z</time></trkpt><trkpt lat="44.87481856863342" lon="9.561147029824115"><ele>177.5</ele><time>2026-04-19T15:29:59.001Z</time></trkpt><trkpt lat="44.874945309288044" lon="9.561186822280938"><ele>177.0</ele><time>2026-04-19T15:30:00.001Z</time></trkpt><trkpt lat="44.875080965127374" lon="9.561167009163116"><ele>176.66666666666666</ele><time>2026-04-19T15:30:01.001Z</time></trkpt><trkpt lat="44.87523938385926" lon="9.56110722169809"><ele>176.33333333333331</ele><time>2026-04-19T15:30:02.001Z</time></trkpt><trkpt lat="44.875407716141176" lon="9.561040838833964"><ele>176.0</ele><time>2026-04-19T15:30:03.001Z</time></trkpt><trkpt lat="44.87556310701189" lon="9.560994667064618"><ele>176.0</ele><time>2026-04-19T15:30:04.001Z</time></trkpt><trkpt lat="44.8757044540386" lon="9.560961974797358"><ele>176.0</ele><time>2026-04-19T15:30:05.001Z</time></trkpt><trkpt lat="44.875852418581296" lon="9.560934357619342"><ele>176.0</ele><time>2026-04-19T15:30:06.001Z</time></trkpt><trkpt lat="44.875997291970265" lon="9.560911004668055"><ele>176.0</ele><time>2026-04-19T15:30:07.001Z</time></trkpt><trkpt lat="44.876142890756846" lon="9.560923127527552"><ele>175.66666666666666</ele><time>2026-04-19T15:30:08.001Z</time></trkpt><trkpt lat="44.87629390492444" lon="9.560972978902447"><ele>175.33333333333334</ele><time>2026-04-19T15:30:09.001Z</time></trkpt><trkpt lat="44.87644386238873" lon="9.561039486844788"><ele>175.0</ele><time>2026-04-19T15:30:10.001Z</time></trkpt><trkpt lat="44.87658483383057" lon="9.561120836097375"><ele>175.0</ele><time>2026-04-19T15:30:11.001Z</time></trkpt><trkpt lat="44.87673252646501" lon="9.561217274036972"><ele>175.0</ele><time>2026-04-19T15:30:12.001Z</time></trkpt><trkpt lat="44.87687009933561" lon="9.561361963533152"><ele>175.0</ele><time>2026-04-19T15:30:13.001Z</time></trkpt><trkpt lat="44.87702724499799" lon="9.561519530431273"><ele>175.0</ele><time>2026-04-19T15:30:14.001Z</time></trkpt><trkpt lat="44.877192580031114" lon="9.561686432992433"><ele>175.0</ele><time>2026-04-19T15:30:15.001Z</time></trkpt><trkpt lat="44.87734101022111" lon="9.561840442614242"><ele>175.0</ele><time>2026-04-19T15:30:16.001Z</time></trkpt><trkpt lat="44.87748335392492" lon="9.561964047023077"><ele>174.66666666666669</ele><time>2026-04-19T15:30:17.001Z</time></trkpt><trkpt lat="44.877613322650504" lon="9.562099776943516"><ele>174.33333333333334</ele><time>2026-04-19T15:30:18.001Z</time></trkpt><trkpt lat="44.87774429005561" lon="9.562237745373086"><ele>174.0</ele><time>2026-04-19T15:30:19.001Z</time></trkpt><trkpt lat="44.87787532477569" lon="9.562379549980685"><ele>174.0</ele><time>2026-04-19T15:30:20.001Z</time></trkpt><trkpt lat="44.87802252421047" lon="9.562539686593224"><ele>174.0</ele><time>2026-04-19T15:30:21.001Z</time></trkpt><trkpt lat="44.878205769018194" lon="9.562734250504139"><ele>174.0</ele><time>2026-04-19T15:30:22.001Z</time></trkpt><trkpt lat="44.87839980974399" lon="9.562952246685896"><ele>170.0</ele><time>2026-04-19T15:30:23.001Z</time></trkpt><trkpt lat="44.87857833963419" lon="9.563194516179008"><ele>166.0</ele><time>2026-04-19T15:30:24.001Z</time></trkpt><trkpt lat="44.87875473860252" lon="9.563428188052281"><ele>166.0</ele><time>2026-04-19T15:30:25.001Z</time></trkpt><trkpt lat="44.87892689843732" lon="9.563638343616262"><ele>166.0</ele><time>2026-04-19T15:30:26.001Z</time></trkpt><trkpt lat="44.87907987207346" lon="9.563871957991534"><ele>162.5</ele><time>2026-04-19T15:30:27.002Z</time></trkpt><trkpt lat="44.879256140083136" lon="9.564102320926793"><ele>159.0</ele><time>2026-04-19T15:30:28.002Z</time></trkpt><trkpt lat="44.879451266822755" lon="9.564342137434105"><ele>166.5</ele><time>2026-04-19T15:30:29.002Z</time></trkpt><trkpt lat="44.87963691064034" lon="9.564619938946239"><ele>174.0</ele><time>2026-04-19T15:30:30.002Z</time></trkpt><trkpt lat="44.879835437797894" lon="9.564889418647784"><ele>174.0</ele><time>2026-04-19T15:30:31.002Z</time></trkpt><trkpt lat="44.88004198164639" lon="9.565169384645596"><ele>174.0</ele><time>2026-04-19T15:30:32.002Z</time></trkpt><trkpt lat="44.880242951709725" lon="9.565440642638611"><ele>171.5</ele><time>2026-04-19T15:30:33.002Z</time></trkpt><trkpt lat="44.88042360974814" lon="9.565684297034732"><ele>169.0</ele><time>2026-04-19T15:30:34.002Z</time></trkpt><trkpt lat="44.880600323271594" lon="9.56589522165191"><ele>169.0</ele><time>2026-04-19T15:30:35.002Z</time></trkpt><trkpt lat="44.88074971527913" lon="9.566105820459843"><ele>169.0</ele><time>2026-04-19T15:30:36.002Z</time></trkpt><trkpt lat="44.88089325900451" lon="9.566297519907787"><ele>169.0</ele><time>2026-04-19T15:30:37.002Z</time></trkpt><trkpt lat="44.88103871352936" lon="9.566493869814161"><ele>169.0</ele><time>2026-04-19T15:30:38.002Z</time></trkpt><trkpt lat="44.88117494304043" lon="9.566687874096324"><ele>169.0</ele><time>2026-04-19T15:30:39.002Z</time></trkpt><trkpt lat="44.88130415652081" lon="9.566869305824142"><ele>169.0</ele><time>2026-04-19T15:30:40.002Z</time></trkpt><trkpt lat="44.881424049631406" lon="9.567035308753658"><ele>171.0</ele><time>2026-04-19T15:30:41.002Z</time></trkpt><trkpt lat="44.88153827227729" lon="9.567196108065462"><ele>173.0</ele><time>2026-04-19T15:30:42.002Z</time></trkpt><trkpt lat="44.88164940718045" lon="9.567367656332566"><ele>175.0</ele><time>2026-04-19T15:30:43.002Z</time></trkpt><trkpt lat="44.881748698324" lon="9.56756667034307"><ele>172.33333333333334</ele><time>2026-04-19T15:30:44.002Z</time></trkpt><trkpt lat="44.881842585068725" lon="9.567788204098049"><ele>169.66666666666666</ele><time>2026-04-19T15:30:45.002Z</time></trkpt><trkpt lat="44.88193935527281" lon="9.568038927940501"><ele>167.0</ele><time>2026-04-19T15:30:46.002Z</time></trkpt><trkpt lat="44.88203498654238" lon="9.568319675760108"><ele>167.0</ele><time>2026-04-19T15:30:47.002Z</time></trkpt><trkpt lat="44.88213857318919" lon="9.568619163803572"><ele>167.0</ele><time>2026-04-19T15:30:48.002Z</time></trkpt><trkpt lat="44.88224987589083" lon="9.568932661285588"><ele>169.0</ele><time>2026-04-19T15:30:49.002Z</time></trkpt><trkpt lat="44.88236620261106" lon="9.569252431697251"><ele>171.0</ele><time>2026-04-19T15:30:50.002Z</time></trkpt><trkpt lat="44.88246266283395" lon="9.569539070272848"><ele>172.66666666666666</ele><time>2026-04-19T15:30:51.002Z</time></trkpt><trkpt lat="44.8825519291616" lon="9.569810741417761"><ele>174.33333333333331</ele><time>2026-04-19T15:30:52.002Z</time></trkpt><trkpt lat="44.8826395626292" lon="9.570073330443636"><ele>176.0</ele><time>2026-04-19T15:30:53Z</time></trkpt><trkpt lat="44.882739388552366" lon="9.570357122404868"><ele>170.5</ele><time>2026-04-19T15:30:54Z</time></trkpt><trkpt lat="44.88285683451956" lon="9.570670504209616"><ele>165.0</ele><time>2026-04-19T15:30:55Z</time></trkpt><trkpt lat="44.88298509904187" lon="9.57102108498949"><ele>167.0</ele><time>2026-04-19T15:30:56Z</time></trkpt><trkpt lat="44.883117382132745" lon="9.57139281591087"><ele>169.0</ele><time>2026-04-19T15:30:57Z</time></trkpt><trkpt lat="44.8832370450083" lon="9.571743122509762"><ele>167.66666666666669</ele><time>2026-04-19T15:30:58Z</time></trkpt><trkpt lat="44.88334657155249" lon="9.572054823701386"><ele>166.33333333333334</ele><time>2026-04-19T15:30:59Z</time></trkpt><trkpt lat="44.88343730447309" lon="9.572308944970613"><ele>165.0</ele><time>2026-04-19T15:31:00Z</time></trkpt><trkpt lat="44.883524588137455" lon="9.57255725977199"><ele>165.0</ele><time>2026-04-19T15:31:01Z</time></trkpt><trkpt lat="44.88360320839256" lon="9.572793842280756"><ele>165.0</ele><time>2026-04-19T15:31:02Z</time></trkpt><trkpt lat="44.8836755747735" lon="9.573018359680274"><ele>165.0</ele><time>2026-04-19T15:31:03Z</time></trkpt><trkpt lat="44.88373428909545" lon="9.573234286598181"><ele>165.75</ele><time>2026-04-19T15:31:04Z</time></trkpt><trkpt lat="44.88380432404769" lon="9.573433533697607"><ele>166.5</ele><time>2026-04-19T15:31:05Z</time></trkpt><trkpt lat="44.88386410173865" lon="9.573625390481325"><ele>167.25</ele><time>2026-04-19T15:31:06Z</time></trkpt><trkpt lat="44.88390427546284" lon="9.573810354292165"><ele>168.0</ele><time>2026-04-19T15:31:07Z</time></trkpt><trkpt lat="44.883920949567376" lon="9.574019979132622"><ele>168.0</ele><time>2026-04-19T15:31:08Z</time></trkpt><trkpt lat="44.88390123938062" lon="9.574237578213937"><ele>168.0</ele><time>2026-04-19T15:31:09Z</time></trkpt><trkpt lat="44.883861479179735" lon="9.57444963973396"><ele>168.0</ele><time>2026-04-19T15:31:10Z</time></trkpt><trkpt lat="44.88381443538421" lon="9.5746603114103"><ele>167.75</ele><time>2026-04-19T15:31:11Z</time></trkpt><trkpt lat="44.88378365362717" lon="9.574866938252276"><ele>167.5</ele><time>2026-04-19T15:31:12Z</time></trkpt><trkpt lat="44.88377854642969" lon="9.575052365221643"><ele>167.25</ele><time>2026-04-19T15:31:13Z</time></trkpt><trkpt lat="44.88378749418797" lon="9.57522965670663"><ele>167.0</ele><time>2026-04-19T15:31:14Z</time></trkpt><trkpt lat="44.883804980289874" lon="9.57539342689545"><ele>168.5</ele><time>2026-04-19T15:31:15Z</time></trkpt><trkpt lat="44.883830817264766" lon="9.575549768880451"><ele>170.0</ele><time>2026-04-19T15:31:16Z</time></trkpt><trkpt lat="44.88387314533131" lon="9.575699498613382"><ele>171.5</ele><time>2026-04-19T15:31:17Z</time></trkpt><trkpt lat="44.883938096326766" lon="9.575835957555848"><ele>173.0</ele><time>2026-04-19T15:31:18Z</time></trkpt><trkpt lat="44.884039718524186" lon="9.575948501624868"><ele>173.0</ele><time>2026-04-19T15:31:19Z</time></trkpt><trkpt lat="44.884152670458874" lon="9.576041999498864"><ele>173.0</ele><time>2026-04-19T15:31:20Z</time></trkpt><trkpt lat="44.884263513882416" lon="9.576125192461133"><ele>173.0</ele><time>2026-04-19T15:31:21Z</time></trkpt><trkpt lat="44.8843684094152" lon="9.57619895239466"><ele>173.0</ele><time>2026-04-19T15:31:22Z</time></trkpt><trkpt lat="44.884463675642685" lon="9.576281717320095"><ele>171.0</ele><time>2026-04-19T15:31:23Z</time></trkpt><trkpt lat="44.88455143846625" lon="9.576385759031027"><ele>169.0</ele><time>2026-04-19T15:31:24Z</time></trkpt><trkpt lat="44.884619869491516" lon="9.576523589052492"><ele>167.0</ele><time>2026-04-19T15:31:25Z</time></trkpt><trkpt lat="44.8846648908416" lon="9.576690301389155"><ele>165.0</ele><time>2026-04-19T15:31:26Z</time></trkpt><trkpt lat="44.884669519339326" lon="9.57689968319355"><ele>166.66666666666666</ele><time>2026-04-19T15:31:27Z</time></trkpt><trkpt lat="44.88466033814772" lon="9.577141487691733"><ele>168.33333333333331</ele><time>2026-04-19T15:31:28Z</time></trkpt><trkpt lat="44.88466685631027" lon="9.577394061369182"><ele>170.0</ele><time>2026-04-19T15:31:29Z</time></trkpt><trkpt lat="44.88468126772405" lon="9.577630372756735"><ele>172.33333333333331</ele><time>2026-04-19T15:31:30Z</time></trkpt><trkpt lat="44.88470977984077" lon="9.577886392405915"><ele>174.66666666666666</ele><time>2026-04-19T15:31:31Z</time></trkpt><trkpt lat="44.884753655022145" lon="9.578185469146725"><ele>177.0</ele><time>2026-04-19T15:31:32Z</time></trkpt><trkpt lat="44.8848054197417" lon="9.578521681654337"><ele>177.66666666666666</ele><time>2026-04-19T15:31:33Z</time></trkpt><trkpt lat="44.8848527907417" lon="9.578816407943451"><ele>178.33333333333331</ele><time>2026-04-19T15:31:34Z</time></trkpt><trkpt lat="44.8848915804426" lon="9.579076068038587"><ele>179.0</ele><time>2026-04-19T15:31:35.001Z</time></trkpt><trkpt lat="44.88492991760166" lon="9.57931579946686"><ele>180.33333333333331</ele><time>2026-04-19T15:31:36.001Z</time></trkpt><trkpt lat="44.8849780636518" lon="9.579559324823427"><ele>181.66666666666666</ele><time>2026-04-19T15:31:37.001Z</time></trkpt><trkpt lat="44.885044715046604" lon="9.57981831833349"><ele>183.0</ele><time>2026-04-19T15:31:38.001Z</time></trkpt><trkpt lat="44.88514561742756" lon="9.580110225104645"><ele>179.33333333333334</ele><time>2026-04-19T15:31:39.001Z</time></trkpt><trkpt lat="44.88525599711871" lon="9.580387794327251"><ele>175.66666666666669</ele><time>2026-04-19T15:31:40.001Z</time></trkpt><trkpt lat="44.885334005099004" lon="9.580612508217907"><ele>172.0</ele><time>2026-04-19T15:31:41.001Z</time></trkpt><trkpt lat="44.88539656108687" lon="9.580796580270523"><ele>172.0</ele><time>2026-04-19T15:31:42.001Z</time></trkpt><trkpt lat="44.88544309351862" lon="9.580999777387264"><ele>172.0</ele><time>2026-04-19T15:31:43.001Z</time></trkpt><trkpt lat="44.885465972293154" lon="9.581228551912455"><ele>172.0</ele><time>2026-04-19T15:31:44.001Z</time></trkpt><trkpt lat="44.8854815425205" lon="9.581461716406375"><ele>172.5</ele><time>2026-04-19T15:31:45.001Z</time></trkpt><trkpt lat="44.8855006631791" lon="9.581669887119881"><ele>173.0</ele><time>2026-04-19T15:31:46.001Z</time></trkpt><trkpt lat="44.88553802565252" lon="9.581854838298966"><ele>173.5</ele><time>2026-04-19T15:31:47.001Z</time></trkpt><trkpt lat="44.88558337826524" lon="9.582040989852052"><ele>174.0</ele><time>2026-04-19T15:31:48.001Z</time></trkpt><trkpt lat="44.8856639925237" lon="9.582230273973359"><ele>175.66666666666666</ele><time>2026-04-19T15:31:49.001Z</time></trkpt><trkpt lat="44.88576103585699" lon="9.58243720563798"><ele>177.33333333333331</ele><time>2026-04-19T15:31:50.001Z</time></trkpt><trkpt lat="44.88586964140423" lon="9.582664066466295"><ele>179.0</ele><time>2026-04-19T15:31:51.001Z</time></trkpt><trkpt lat="44.88598332747196" lon="9.582901539702357"><ele>179.0</ele><time>2026-04-19T15:31:52.001Z</time></trkpt><trkpt lat="44.88610198959111" lon="9.583106129709135"><ele>179.0</ele><time>2026-04-19T15:31:53.001Z</time></trkpt><trkpt lat="44.886185401238556" lon="9.583272349544492"><ele>179.0</ele><time>2026-04-19T15:31:54.001Z</time></trkpt><trkpt lat="44.886282115627296" lon="9.583395032236364"><ele>179.0</ele><time>2026-04-19T15:31:55.001Z</time></trkpt><trkpt lat="44.886400296714" lon="9.583468132237025"><ele>179.0</ele><time>2026-04-19T15:31:56.001Z</time></trkpt><trkpt lat="44.886530148312815" lon="9.5834868589973"><ele>179.0</ele><time>2026-04-19T15:31:57.001Z</time></trkpt><trkpt lat="44.886666629968616" lon="9.583457173223644"><ele>179.0</ele><time>2026-04-19T15:31:58.001Z</time></trkpt><trkpt lat="44.8868220004784" lon="9.583404505482575"><ele>179.33333333333331</ele><time>2026-04-19T15:31:59.001Z</time></trkpt><trkpt lat="44.88697730243078" lon="9.583359965772985"><ele>179.66666666666666</ele><time>2026-04-19T15:32:00.001Z</time></trkpt><trkpt lat="44.88712565130807" lon="9.583379759379572"><ele>180.0</ele><time>2026-04-19T15:32:01.001Z</time></trkpt><trkpt lat="44.88726665273582" lon="9.583460201824357"><ele>180.0</ele><time>2026-04-19T15:32:02.001Z</time></trkpt><trkpt lat="44.88737193975702" lon="9.583601074485054"><ele>180.0</ele><time>2026-04-19T15:32:03.001Z</time></trkpt><trkpt lat="44.887468236680945" lon="9.58377395788408"><ele>180.0</ele><time>2026-04-19T15:32:04.001Z</time></trkpt><trkpt lat="44.88757131589062" lon="9.583932034596964"><ele>181.0</ele><time>2026-04-19T15:32:05.001Z</time></trkpt><trkpt lat="44.88766801142542" lon="9.584082115634063"><ele>182.0</ele><time>2026-04-19T15:32:06.001Z</time></trkpt><trkpt lat="44.88778463640103" lon="9.584185345316962"><ele>183.0</ele><time>2026-04-19T15:32:07.001Z</time></trkpt><trkpt lat="44.88791639388465" lon="9.584218950991234"><ele>184.0</ele><time>2026-04-19T15:32:08.001Z</time></trkpt><trkpt lat="44.88807080462082" lon="9.584203257483754"><ele>184.0</ele><time>2026-04-19T15:32:09.001Z</time></trkpt><trkpt lat="44.888238795633995" lon="9.584161246727652"><ele>184.0</ele><time>2026-04-19T15:32:10.001Z</time></trkpt><trkpt lat="44.888391929469705" lon="9.584122775391206"><ele>184.0</ele><time>2026-04-19T15:32:11.001Z</time></trkpt><trkpt lat="44.8885318925455" lon="9.584122012995268"><ele>183.0</ele><time>2026-04-19T15:32:12.001Z</time></trkpt><trkpt lat="44.88866485259741" lon="9.58419020235325"><ele>182.0</ele><time>2026-04-19T15:32:13.001Z</time></trkpt><trkpt lat="44.88878722672932" lon="9.584321774089014"><ele>181.0</ele><time>2026-04-19T15:32:14.001Z</time></trkpt><trkpt lat="44.88889568350961" lon="9.584499098950792"><ele>183.66666666666669</ele><time>2026-04-19T15:32:15.001Z</time></trkpt><trkpt lat="44.88901227441592" lon="9.584732495474706"><ele>186.33333333333334</ele><time>2026-04-19T15:32:16.001Z</time></trkpt><trkpt lat="44.889115353750384" lon="9.584962195855052"><ele>189.0</ele><time>2026-04-19T15:32:17.001Z</time></trkpt><trkpt lat="44.889232521219995" lon="9.58516857608332"><ele>190.33333333333331</ele><time>2026-04-19T15:32:18.001Z</time></trkpt><trkpt lat="44.889358281724064" lon="9.585334042512448"><ele>191.66666666666666</ele><time>2026-04-19T15:32:19.001Z</time></trkpt><trkpt lat="44.88948189786136" lon="9.585473189205194"><ele>193.0</ele><time>2026-04-19T15:32:20.001Z</time></trkpt><trkpt lat="44.88961432349996" lon="9.585569738922878"><ele>193.0</ele><time>2026-04-19T15:32:21.001Z</time></trkpt><trkpt lat="44.889759936343026" lon="9.58562657042367"><ele>193.0</ele><time>2026-04-19T15:32:22.001Z</time></trkpt><trkpt lat="44.88992411521914" lon="9.585625646376496"><ele>193.0</ele><time>2026-04-19T15:32:23.001Z</time></trkpt><trkpt lat="44.890100577231436" lon="9.585575805824117"><ele>192.33333333333331</ele><time>2026-04-19T15:32:24.001Z</time></trkpt><trkpt lat="44.8902869259245" lon="9.585504701251073"><ele>191.66666666666666</ele><time>2026-04-19T15:32:25.001Z</time></trkpt><trkpt lat="44.89048976831586" lon="9.585443318292235"><ele>191.0</ele><time>2026-04-19T15:32:26.001Z</time></trkpt><trkpt lat="44.89070562151844" lon="9.585409245335446"><ele>191.5</ele><time>2026-04-19T15:32:27.001Z</time></trkpt><trkpt lat="44.89094519040584" lon="9.585393061516815"><ele>192.0</ele><time>2026-04-19T15:32:28.001Z</time></trkpt><trkpt lat="44.89120607384866" lon="9.585395940232983"><ele>192.0</ele><time>2026-04-19T15:32:29.001Z</time></trkpt><trkpt lat="44.89146791383728" lon="9.585391410246665"><ele>192.0</ele><time>2026-04-19T15:32:30.001Z</time></trkpt><trkpt lat="44.89171216016529" lon="9.585386149428361"><ele>192.0</ele><time>2026-04-19T15:32:31.001Z</time></trkpt><trkpt lat="44.891948936919064" lon="9.585370082637292"><ele>192.0</ele><time>2026-04-19T15:32:32.001Z</time></trkpt><trkpt lat="44.89216987572576" lon="9.585359732873094"><ele>192.0</ele><time>2026-04-19T15:32:33.001Z</time></trkpt><trkpt lat="44.89237428362577" lon="9.585354416688403"><ele>192.0</ele><time>2026-04-19T15:32:34.001Z</time></trkpt><trkpt lat="44.89256821388376" lon="9.585348357890302"><ele>192.0</ele><time>2026-04-19T15:32:35.001Z</time></trkpt><trkpt lat="44.892761255208804" lon="9.585341580599065"><ele>189.66666666666666</ele><time>2026-04-19T15:32:36.001Z</time></trkpt><trkpt lat="44.89295388131502" lon="9.58533695852988"><ele>187.33333333333331</ele><time>2026-04-19T15:32:37.001Z</time></trkpt><trkpt lat="44.89315607033108" lon="9.585332904768121"><ele>185.0</ele><time>2026-04-19T15:32:38.001Z</time></trkpt><trkpt lat="44.89336287669761" lon="9.585329360648203"><ele>184.33333333333331</ele><time>2026-04-19T15:32:39.001Z</time></trkpt><trkpt lat="44.89356775510545" lon="9.585324210850557"><ele>183.66666666666666</ele><time>2026-04-19T15:32:40.001Z</time></trkpt><trkpt lat="44.89376676477854" lon="9.58531658879068"><ele>183.0</ele><time>2026-04-19T15:32:41.001Z</time></trkpt><trkpt lat="44.89395476758795" lon="9.585306614453952"><ele>183.0</ele><time>2026-04-19T15:32:42.001Z</time></trkpt><trkpt lat="44.89413316823004" lon="9.58529967655968"><ele>183.0</ele><time>2026-04-19T15:32:43.001Z</time></trkpt><trkpt lat="44.89430330442352" lon="9.585297812459055"><ele>183.0</ele><time>2026-04-19T15:32:44.001Z</time></trkpt><trkpt lat="44.89446536406862" lon="9.585296282279954"><ele>183.0</ele><time>2026-04-19T15:32:45.001Z</time></trkpt><trkpt lat="44.89462702778436" lon="9.585290650744692"><ele>183.0</ele><time>2026-04-19T15:32:46.001Z</time></trkpt><trkpt lat="44.89478751372405" lon="9.585273037722207"><ele>183.0</ele><time>2026-04-19T15:32:47.001Z</time></trkpt><trkpt lat="44.89494446814213" lon="9.58524408820878"><ele>182.0</ele><time>2026-04-19T15:32:48.001Z</time></trkpt><trkpt lat="44.89509239229229" lon="9.58520337103852"><ele>181.0</ele><time>2026-04-19T15:32:49.001Z</time></trkpt><trkpt lat="44.89525107420977" lon="9.585167050710783"><ele>180.0</ele><time>2026-04-19T15:32:50.001Z</time></trkpt><trkpt lat="44.89539656773901" lon="9.58512916997476"><ele>180.0</ele><time>2026-04-19T15:32:51.002Z</time></trkpt><trkpt lat="44.89553901019077" lon="9.585089856858625"><ele>180.0</ele><time>2026-04-19T15:32:52.002Z</time></trkpt><trkpt lat="44.89568279640931" lon="9.585054869236641"><ele>180.0</ele><time>2026-04-19T15:32:53.002Z</time></trkpt><trkpt lat="44.89583782078735" lon="9.5850533855643"><ele>180.0</ele><time>2026-04-19T15:32:54.002Z</time></trkpt><trkpt lat="44.896011376210595" lon="9.585094060527192"><ele>177.66666666666666</ele><time>2026-04-19T15:32:55.002Z</time></trkpt><trkpt lat="44.896180848817586" lon="9.585142666299886"><ele>175.33333333333331</ele><time>2026-04-19T15:32:56.002Z</time></trkpt><trkpt lat="44.89633974684948" lon="9.585200977766899"><ele>173.0</ele><time>2026-04-19T15:32:57.002Z</time></trkpt><trkpt lat="44.89649588753859" lon="9.585269610235358"><ele>175.0</ele><time>2026-04-19T15:32:58.002Z</time></trkpt><trkpt lat="44.89665133820814" lon="9.585347241276768"><ele>177.0</ele><time>2026-04-19T15:32:59Z</time></trkpt><trkpt lat="44.89681113186885" lon="9.585441827071367"><ele>179.0</ele><time>2026-04-19T15:33:00Z</time></trkpt><trkpt lat="44.89696841936825" lon="9.585538737149092"><ele>179.0</ele><time>2026-04-19T15:33:01Z</time></trkpt><trkpt lat="44.89711835396047" lon="9.5856280795688"><ele>179.0</ele><time>2026-04-19T15:33:02Z</time></trkpt><trkpt lat="44.89726057357736" lon="9.58572063068704"><ele>179.0</ele><time>2026-04-19T15:33:03Z</time></trkpt><trkpt lat="44.89740530088172" lon="9.585810772408433"><ele>179.0</ele><time>2026-04-19T15:33:04Z</time></trkpt><trkpt lat="44.89755251336284" lon="9.585894618477262"><ele>179.0</ele><time>2026-04-19T15:33:05Z</time></trkpt><trkpt lat="44.89769499419665" lon="9.585941931301551"><ele>179.0</ele><time>2026-04-19T15:33:06Z</time></trkpt><trkpt lat="44.89784372186995" lon="9.585935091544016"><ele>177.75</ele><time>2026-04-19T15:33:07Z</time></trkpt><trkpt lat="44.897975180325375" lon="9.58590368008946"><ele>176.5</ele><time>2026-04-19T15:33:08Z</time></trkpt><trkpt lat="44.89810266603415" lon="9.585826780501602"><ele>175.25</ele><time>2026-04-19T15:33:09Z</time></trkpt><trkpt lat="44.89822463827823" lon="9.585743418408589"><ele>174.0</ele><time>2026-04-19T15:33:10Z</time></trkpt><trkpt lat="44.89834672217431" lon="9.58566983114131"><ele>172.75</ele><time>2026-04-19T15:33:11Z</time></trkpt><trkpt lat="44.89847831880995" lon="9.585619656872078"><ele>171.5</ele><time>2026-04-19T15:33:12Z</time></trkpt><trkpt lat="44.89861952089608" lon="9.58561658520776"><ele>170.25</ele><time>2026-04-19T15:33:13Z</time></trkpt><trkpt lat="44.89875591780289" lon="9.5856463711824"><ele>169.0</ele><time>2026-04-19T15:33:14Z</time></trkpt><trkpt lat="44.89891229835389" lon="9.585709470014494"><ele>169.0</ele><time>2026-04-19T15:33:15Z</time></trkpt><trkpt lat="44.89909920884543" lon="9.585775065176632"><ele>169.0</ele><time>2026-04-19T15:33:16Z</time></trkpt><trkpt lat="44.899315269603775" lon="9.585825676998887"><ele>169.0</ele><time>2026-04-19T15:33:17Z</time></trkpt><trkpt lat="44.899549569208425" lon="9.585914656248477"><ele>166.0</ele><time>2026-04-19T15:33:18Z</time></trkpt><trkpt lat="44.899801464960525" lon="9.586006736709745"><ele>163.0</ele><time>2026-04-19T15:33:19Z</time></trkpt><trkpt lat="44.900037617133805" lon="9.586109048772327"><ele>164.5</ele><time>2026-04-19T15:33:20Z</time></trkpt><trkpt lat="44.90023814688992" lon="9.5862209398062"><ele>166.0</ele><time>2026-04-19T15:33:21Z</time></trkpt><trkpt lat="44.90054727104932" lon="9.586245804805358"><ele>166.0</ele><time>2026-04-19T15:33:22Z</time></trkpt><trkpt lat="44.90073590775092" lon="9.586365481344592"><ele>166.0</ele><time>2026-04-19T15:33:23Z</time></trkpt><trkpt lat="44.90091546152378" lon="9.586476240554653"><ele>166.0</ele><time>2026-04-19T15:33:24Z</time></trkpt><trkpt lat="44.90108237101203" lon="9.586586609516536"><ele>167.33333333333334</ele><time>2026-04-19T15:33:25Z</time></trkpt><trkpt lat="44.901264261517774" lon="9.586721686360061"><ele>168.66666666666666</ele><time>2026-04-19T15:33:26Z</time></trkpt><trkpt lat="44.90146512747511" lon="9.586885036532365"><ele>170.0</ele><time>2026-04-19T15:33:27Z</time></trkpt><trkpt lat="44.901680588507766" lon="9.587036270597357"><ele>166.33333333333331</ele><time>2026-04-19T15:33:28Z</time></trkpt><trkpt lat="44.90186017272681" lon="9.587190622624474"><ele>162.66666666666666</ele><time>2026-04-19T15:33:29Z</time></trkpt><trkpt lat="44.902022598211964" lon="9.587340807516066"><ele>159.0</ele><time>2026-04-19T15:33:30Z</time></trkpt><trkpt lat="44.902176925033714" lon="9.587484603035284"><ele>159.0</ele><time>2026-04-19T15:33:31Z</time></trkpt><trkpt lat="44.90234653409577" lon="9.587633632830943"><ele>159.0</ele><time>2026-04-19T15:33:32Z</time></trkpt><trkpt lat="44.902523473468904" lon="9.587793335660473"><ele>159.0</ele><time>2026-04-19T15:33:33Z</time></trkpt><trkpt lat="44.90270567429015" lon="9.587963179649496"><ele>155.5</ele><time>2026-04-19T15:33:34Z</time></trkpt><trkpt lat="44.90290294272024" lon="9.588127864237501"><ele>152.0</ele><time>2026-04-19T15:33:35Z</time></trkpt><trkpt lat="44.90312025614468" lon="9.588315846259222"><ele>152.0</ele><time>2026-04-19T15:33:36Z</time></trkpt><trkpt lat="44.90336461712528" lon="9.588517228617956"><ele>152.0</ele><time>2026-04-19T15:33:37Z</time></trkpt><trkpt lat="44.903620713262484" lon="9.588720885892549"><ele>152.0</ele><time>2026-04-19T15:33:38Z</time></trkpt><trkpt lat="44.903862953344444" lon="9.588909104171723"><ele>152.0</ele><time>2026-04-19T15:33:39Z</time></trkpt><trkpt lat="44.90408853936891" lon="9.589088680536202"><ele>146.5</ele><time>2026-04-19T15:33:40Z</time></trkpt><trkpt lat="44.90431157336009" lon="9.5892765266035"><ele>141.0</ele><time>2026-04-19T15:33:41Z</time></trkpt><trkpt lat="44.9045256258461" lon="9.589451732916345"><ele>144.0</ele><time>2026-04-19T15:33:42Z</time></trkpt><trkpt lat="44.9047350292395" lon="9.589632173747857"><ele>147.0</ele><time>2026-04-19T15:33:43Z</time></trkpt><trkpt lat="44.904952418310366" lon="9.589811987896429"><ele>143.5</ele><time>2026-04-19T15:33:44Z</time></trkpt><trkpt lat="44.90518595439812" lon="9.59000101283676"><ele>140.0</ele><time>2026-04-19T15:33:45Z</time></trkpt><trkpt lat="44.905442491458196" lon="9.590214086603037"><ele>140.0</ele><time>2026-04-19T15:33:46Z</time></trkpt><trkpt lat="44.905725686112646" lon="9.590450619536423"><ele>140.0</ele><time>2026-04-19T15:33:47Z</time></trkpt><trkpt lat="44.90603292910645" lon="9.590704357921167"><ele>140.0</ele><time>2026-04-19T15:33:48Z</time></trkpt><trkpt lat="44.906354224983865" lon="9.590970402005379"><ele>140.0</ele><time>2026-04-19T15:33:49Z</time></trkpt><trkpt lat="44.90665991256293" lon="9.5912186772035"><ele>137.5</ele><time>2026-04-19T15:33:50Z</time></trkpt><trkpt lat="44.90693586560942" lon="9.591445608979871"><ele>135.0</ele><time>2026-04-19T15:33:51Z</time></trkpt><trkpt lat="44.90718832239998" lon="9.591655882049444"><ele>135.0</ele><time>2026-04-19T15:33:52Z</time></trkpt><trkpt lat="44.907413404901476" lon="9.591838897493464"><ele>135.0</ele><time>2026-04-19T15:33:53Z</time></trkpt><trkpt lat="44.90763583194657" lon="9.592022723065412"><ele>134.5</ele><time>2026-04-19T15:33:54Z</time></trkpt><trkpt lat="44.90784105868895" lon="9.59219310708068"><ele>134.0</ele><time>2026-04-19T15:33:55.001Z</time></trkpt><trkpt lat="44.908028060184506" lon="9.592351408516711"><ele>134.0</ele><time>2026-04-19T15:33:56.001Z</time></trkpt><trkpt lat="44.90819092625072" lon="9.59248782376427"><ele>134.0</ele><time>2026-04-19T15:33:57.001Z</time></trkpt><trkpt lat="44.90833610373756" lon="9.592630514559758"><ele>134.0</ele><time>2026-04-19T15:33:58.001Z</time></trkpt><trkpt lat="44.908463336324836" lon="9.592779429510246"><ele>134.0</ele><time>2026-04-19T15:33:59.001Z</time></trkpt><trkpt lat="44.9085675894807" lon="9.592939790005994"><ele>134.0</ele><time>2026-04-19T15:34:00.001Z</time></trkpt><trkpt lat="44.90865794506709" lon="9.593095187189492"><ele>134.0</ele><time>2026-04-19T15:34:01.001Z</time></trkpt><trkpt lat="44.908732435951734" lon="9.593227764880826"><ele>134.0</ele><time>2026-04-19T15:34:02.001Z</time></trkpt><trkpt lat="44.90879425084884" lon="9.5933300352337"><ele>134.0</ele><time>2026-04-19T15:34:03.001Z</time></trkpt><trkpt lat="44.90884534609395" lon="9.593400846421648"><ele>134.0</ele><time>2026-04-19T15:34:04.001Z</time></trkpt><trkpt lat="44.90889853407857" lon="9.593484900833486"><ele>134.0</ele><time>2026-04-19T15:34:05.001Z</time></trkpt><trkpt lat="44.90895302342548" lon="9.593569287855052"><ele>134.0</ele><time>2026-04-19T15:34:06.001Z</time></trkpt><trkpt lat="44.90901143036595" lon="9.593659953757314"><ele>134.0</ele><time>2026-04-19T15:34:07.001Z</time></trkpt><trkpt lat="44.9090754165478" lon="9.593760509244932"><ele>134.0</ele><time>2026-04-19T15:34:08.001Z</time></trkpt><trkpt lat="44.90914936766158" lon="9.593876543294375"><ele>134.5</ele><time>2026-04-19T15:34:09.001Z</time></trkpt><trkpt lat="44.90923461782849" lon="9.594006976091958"><ele>135.0</ele><time>2026-04-19T15:34:10.001Z</time></trkpt><trkpt lat="44.9093262804213" lon="9.594149498428145"><ele>135.5</ele><time>2026-04-19T15:34:11.001Z</time></trkpt><trkpt lat="44.90942122523951" lon="9.594293644289612"><ele>136.0</ele><time>2026-04-19T15:34:12.001Z</time></trkpt><trkpt lat="44.909511602266974" lon="9.594436947949346"><ele>135.0</ele><time>2026-04-19T15:34:13.001Z</time></trkpt><trkpt lat="44.90960380455952" lon="9.594574914834237"><ele>134.0</ele><time>2026-04-19T15:34:14.001Z</time></trkpt><trkpt lat="44.90969372317399" lon="9.594709025812119"><ele>133.0</ele><time>2026-04-19T15:34:15.001Z</time></trkpt><trkpt lat="44.90978339355123" lon="9.594849838785807"><ele>132.0</ele><time>2026-04-19T15:34:16.001Z</time></trkpt><trkpt lat="44.909886178803916" lon="9.594987320489553"><ele>132.0</ele><time>2026-04-19T15:34:17.001Z</time></trkpt><trkpt lat="44.909988237915975" lon="9.595114761856493"><ele>132.0</ele><time>2026-04-19T15:34:18.001Z</time></trkpt><trkpt lat="44.91008110700269" lon="9.59523433932501"><ele>132.0</ele><time>2026-04-19T15:34:19.001Z</time></trkpt><trkpt lat="44.91019697022429" lon="9.595348231104472"><ele>132.0</ele><time>2026-04-19T15:34:20.001Z</time></trkpt><trkpt lat="44.91032046938827" lon="9.595446389745764"><ele>133.0</ele><time>2026-04-19T15:34:21.001Z</time></trkpt><trkpt lat="44.91046192794054" lon="9.595541097216993"><ele>134.0</ele><time>2026-04-19T15:34:22.001Z</time></trkpt><trkpt lat="44.91060876251451" lon="9.595647873068632"><ele>135.0</ele><time>2026-04-19T15:34:23.001Z</time></trkpt><trkpt lat="44.910739532473976" lon="9.595718759073979"><ele>135.0</ele><time>2026-04-19T15:34:24.001Z</time></trkpt><trkpt lat="44.9108603831074" lon="9.59577479287298"><ele>135.0</ele><time>2026-04-19T15:34:25.001Z</time></trkpt><trkpt lat="44.910974375158055" lon="9.595830241858705"><ele>135.0</ele><time>2026-04-19T15:34:26.001Z</time></trkpt><trkpt lat="44.911084677234555" lon="9.595886985284189"><ele>135.0</ele><time>2026-04-19T15:34:27.001Z</time></trkpt><trkpt lat="44.91118835623547" lon="9.59594246177197"><ele>134.5</ele><time>2026-04-19T15:34:28.001Z</time></trkpt><trkpt lat="44.91128206326598" lon="9.595988545398527"><ele>134.0</ele><time>2026-04-19T15:34:29.001Z</time></trkpt><trkpt lat="44.911350423425894" lon="9.596025322299012"><ele>133.5</ele><time>2026-04-19T15:34:30.001Z</time></trkpt><trkpt lat="44.9114149670557" lon="9.596161009243659"><ele>133.0</ele><time>2026-04-19T15:34:32.001Z</time></trkpt><trkpt lat="44.91141024434365" lon="9.596253616340066"><ele>132.5</ele><time>2026-04-19T15:34:33.001Z</time></trkpt><trkpt lat="44.911390471758466" lon="9.596349698873459"><ele>132.0</ele><time>2026-04-19T15:34:34.001Z</time></trkpt><trkpt lat="44.91134582332951" lon="9.596438085835073"><ele>133.16666666666666</ele><time>2026-04-19T15:34:35.001Z</time></trkpt><trkpt lat="44.911287056023305" lon="9.59649819521216"><ele>134.33333333333334</ele><time>2026-04-19T15:34:36.001Z</time></trkpt><trkpt lat="44.91120758063851" lon="9.596548543143436"><ele>135.5</ele><time>2026-04-19T15:34:38.001Z</time></trkpt><trkpt lat="44.91115240726152" lon="9.596610397277052"><ele>136.66666666666669</ele><time>2026-04-19T15:34:40.001Z</time></trkpt><trkpt lat="44.91111162227721" lon="9.596681196837366"><ele>137.83333333333334</ele><time>2026-04-19T15:34:42.001Z</time></trkpt><trkpt lat="44.91101353688962" lon="9.596637715392417"><ele>139.0</ele><time>2026-04-19T15:35:01.001Z</time></trkpt><trkpt lat="44.91094482420701" lon="9.596611438253975"><ele>139.0</ele><time>2026-04-19T15:35:43Z</time></trkpt><trkpt lat="44.911100112499255" lon="9.596417961192058"><ele>139.0</ele><time>2026-04-19T15:36:06.001Z</time></trkpt><trkpt lat="44.911026456398595" lon="9.596575311741711"><ele>139.0</ele><time>2026-04-19T15:36:30.001Z</time></trkpt><trkpt lat="44.91132137036036" lon="9.596325863581061"><ele>139.0</ele><time>2026-04-19T15:36:32.001Z</time></trkpt><trkpt lat="44.91127784330358" lon="9.596534005375132"><ele>139.0</ele><time>2026-04-19T15:36:43.001Z</time></trkpt><trkpt lat="44.91103998787139" lon="9.596681151318949"><ele>139.0</ele><time>2026-04-19T15:36:46.017Z</time></trkpt><trkpt lat="44.9109172850298" lon="9.59672673518925"><ele>139.0</ele><time>2026-04-19T15:36:56.5Z</time></trkpt><trkpt lat="44.91090614391406" lon="9.59661828802137"><ele>139.0</ele><time>2026-04-19T15:38:00.002Z</time></trkpt><trkpt lat="44.91108358536521" lon="9.596460100991134"><ele>139.0</ele><time>2026-04-19T15:43:20.001Z</time></trkpt><trkpt lat="44.91093217075336" lon="9.596654832439965"><ele>139.0</ele><time>2026-04-19T15:43:32.001Z</time></trkpt><trkpt lat="44.91096016033732" lon="9.596769707718336"><ele>139.0</ele><time>2026-04-19T15:43:33.001Z</time></trkpt><trkpt lat="44.910970434546485" lon="9.596663317402475"><ele>139.0</ele><time>2026-04-19T15:46:56Z</time></trkpt><trkpt lat="44.911048788474616" lon="9.59670270381622"><ele>139.0</ele><time>2026-04-19T15:48:17Z</time></trkpt><trkpt lat="44.91111948746842" lon="9.596691565046742"><ele>139.0</ele><time>2026-04-19T15:48:21Z</time></trkpt><trkpt lat="44.91116506051116" lon="9.596623761371223"><ele>139.0</ele><time>2026-04-19T15:48:41Z</time></trkpt><trkpt lat="44.91117276088713" lon="9.596507619418912"><ele>139.0</ele><time>2026-04-19T15:48:43Z</time></trkpt><trkpt lat="44.91120417043407" lon="9.59641497950834"><ele>139.0</ele><time>2026-04-19T15:48:45Z</time></trkpt><trkpt lat="44.91124464119344" lon="9.596331980199837"><ele>139.0</ele><time>2026-04-19T15:48:47Z</time></trkpt><trkpt lat="44.911281893945194" lon="9.59624108972761"><ele>139.0</ele><time>2026-04-19T15:48:50Z</time></trkpt><trkpt lat="44.91126951864941" lon="9.596146884781772"><ele>139.0</ele><time>2026-04-19T15:48:55Z</time></trkpt><trkpt lat="44.91120095258527" lon="9.596178184121172"><ele>139.0</ele><time>2026-04-19T15:49:58Z</time></trkpt><trkpt lat="44.91113509938031" lon="9.596133241591083"><ele>139.0</ele><time>2026-04-19T15:50:03Z</time></trkpt><trkpt lat="44.91109138245807" lon="9.596050671610696"><ele>138.42857142857142</ele><time>2026-04-19T15:50:06Z</time></trkpt><trkpt lat="44.911027263211516" lon="9.596020903809809"><ele>137.85714285714286</ele><time>2026-04-19T15:50:09Z</time></trkpt><trkpt lat="44.9109551030118" lon="9.59599154473331"><ele>137.28571428571428</ele><time>2026-04-19T15:50:12Z</time></trkpt><trkpt lat="44.91088829908599" lon="9.59595483002705"><ele>136.71428571428572</ele><time>2026-04-19T15:50:15Z</time></trkpt><trkpt lat="44.910833748754044" lon="9.596002223179028"><ele>136.14285714285714</ele><time>2026-04-19T15:50:20Z</time></trkpt><trkpt lat="44.91088600420922" lon="9.596072675478654"><ele>135.57142857142856</ele><time>2026-04-19T15:50:25Z</time></trkpt><trkpt lat="44.910952294217886" lon="9.596075225371306"><ele>135.0</ele><time>2026-04-19T15:50:28Z</time></trkpt><trkpt lat="44.91103672886771" lon="9.596086088635287"><ele>134.5</ele><time>2026-04-19T15:50:33Z</time></trkpt><trkpt lat="44.9111170066185" lon="9.596161649444324"><ele>134.0</ele><time>2026-04-19T15:50:36Z</time></trkpt><trkpt lat="44.91118182262982" lon="9.596242621692756"><ele>133.5</ele><time>2026-04-19T15:50:38.999Z</time></trkpt><trkpt lat="44.91117817854692" lon="9.596359664082462"><ele>133.0</ele><time>2026-04-19T15:50:42.999Z</time></trkpt><trkpt lat="44.91116044930192" lon="9.596461868934293"><ele>132.5</ele><time>2026-04-19T15:50:45.999Z</time></trkpt><trkpt lat="44.91112483074611" lon="9.596558241955899"><ele>132.0</ele><time>2026-04-19T15:50:49.999Z</time></trkpt><trkpt lat="44.91118258567873" lon="9.596519187642413"><ele>132.0</ele><time>2026-04-19T15:50:58Z</time></trkpt><trkpt lat="44.91121261584312" lon="9.596417500107597"><ele>132.0</ele><time>2026-04-19T15:51:01Z</time></trkpt><trkpt lat="44.91125282848712" lon="9.596330201625292"><ele>132.0</ele><time>2026-04-19T15:51:05Z</time></trkpt><trkpt lat="44.91126896309352" lon="9.596225882277146"><ele>132.0</ele><time>2026-04-19T15:51:09Z</time></trkpt><trkpt lat="44.91119957583342" lon="9.596202478065468"><ele>132.0</ele><time>2026-04-19T15:51:12Z</time></trkpt><trkpt lat="44.91114618523944" lon="9.596152745158943"><ele>132.0</ele><time>2026-04-19T15:51:14Z</time></trkpt><trkpt lat="44.91109690977848" lon="9.596082161171564"><ele>132.0</ele><time>2026-04-19T15:51:16Z</time></trkpt><trkpt lat="44.91101752076704" lon="9.596037277675789"><ele>132.0</ele><time>2026-04-19T15:51:19Z</time></trkpt><trkpt lat="44.910951467405816" lon="9.59601178876809"><ele>132.0</ele><time>2026-04-19T15:51:21Z</time></trkpt><trkpt lat="44.91088827164677" lon="9.595984292075553"><ele>132.0</ele><time>2026-04-19T15:51:23Z</time></trkpt><trkpt lat="44.91081477542813" lon="9.595938010584293"><ele>132.0</ele><time>2026-04-19T15:51:26Z</time></trkpt><trkpt lat="44.91078678124983" lon="9.595858065315204"><ele>132.0</ele><time>2026-04-19T15:51:31Z</time></trkpt><trkpt lat="44.910836638264236" lon="9.595921352523908"><ele>132.0</ele><time>2026-04-19T15:52:20Z</time></trkpt><trkpt lat="44.910897484285414" lon="9.595953281268239"><ele>132.0</ele><time>2026-04-19T15:52:26Z</time></trkpt><trkpt lat="44.91095978184361" lon="9.595988640067425"><ele>132.0</ele><time>2026-04-19T15:52:33Z</time></trkpt><trkpt lat="44.9110297577826" lon="9.596009992799413"><ele>132.0</ele><time>2026-04-19T15:52:40Z</time></trkpt><trkpt lat="44.91109190080162" lon="9.596032069347793"><ele>132.0</ele><time>2026-04-19T15:52:47Z</time></trkpt><trkpt lat="44.91116202754791" lon="9.596033575241716"><ele>132.0</ele><time>2026-04-19T15:52:55Z</time></trkpt><trkpt lat="44.91123287612151" lon="9.596040122365235"><ele>132.0</ele><time>2026-04-19T15:53:03Z</time></trkpt><trkpt lat="44.911313078707764" lon="9.596028977624105"><ele>132.0</ele><time>2026-04-19T15:53:12Z</time></trkpt><trkpt lat="44.91131079571946" lon="9.595876489739888"><ele>132.0</ele><time>2026-04-19T15:53:22Z</time></trkpt><trkpt lat="44.911313759443544" lon="9.59578684509724"><ele>132.0</ele><time>2026-04-19T15:53:29Z</time></trkpt><trkpt lat="44.91134610778042" lon="9.595708194500443"><ele>132.0</ele><time>2026-04-19T15:53:38Z</time></trkpt><trkpt lat="44.91136162001972" lon="9.59561411676471"><ele>132.0</ele><time>2026-04-19T15:53:45Z</time></trkpt><trkpt lat="44.911386254495966" lon="9.595525720371045"><ele>132.0</ele><time>2026-04-19T15:54:04Z</time></trkpt><trkpt lat="44.9114944248182" lon="9.595516889593767"><ele>132.0</ele><time>2026-04-19T15:54:18Z</time></trkpt><trkpt lat="44.911558071425986" lon="9.59553256324075"><ele>132.0</ele><time>2026-04-19T15:54:28Z</time></trkpt><trkpt lat="44.91162147374247" lon="9.595533798123618"><ele>132.0</ele><time>2026-04-19T15:54:37Z</time></trkpt><trkpt lat="44.91168875125505" lon="9.595519401464342"><ele>132.0</ele><time>2026-04-19T15:54:48Z</time></trkpt><trkpt lat="44.91175270756586" lon="9.595502906067466"><ele>132.0</ele><time>2026-04-19T15:55:00Z</time></trkpt><trkpt lat="44.911819387701556" lon="9.595494118949091"><ele>132.0</ele><time>2026-04-19T15:55:13Z</time></trkpt><trkpt lat="44.91188542964041" lon="9.595475717229085"><ele>132.0</ele><time>2026-04-19T15:55:22Z</time></trkpt><trkpt lat="44.91195206983623" lon="9.595459011205156"><ele>132.0</ele><time>2026-04-19T15:55:33Z</time></trkpt><trkpt lat="44.91201905636995" lon="9.595448559575932"><ele>132.0</ele><time>2026-04-19T15:55:45Z</time></trkpt><trkpt lat="44.91208439481477" lon="9.595429795717733"><ele>132.0</ele><time>2026-04-19T15:55:54Z</time></trkpt><trkpt lat="44.9120195544114" lon="9.595434628878875"><ele>132.0</ele><time>2026-04-19T15:56:57.001Z</time></trkpt><trkpt lat="44.91195369602192" lon="9.595449660263915"><ele>132.0</ele><time>2026-04-19T15:57:08.001Z</time></trkpt><trkpt lat="44.911886005155964" lon="9.595463677802831"><ele>132.0</ele><time>2026-04-19T15:57:25Z</time></trkpt><trkpt lat="44.911822886476344" lon="9.595486459034708"><ele>132.0</ele><time>2026-04-19T15:57:35Z</time></trkpt><trkpt lat="44.91175976682375" lon="9.595493872258283"><ele>132.0</ele><time>2026-04-19T15:57:44Z</time></trkpt><trkpt lat="44.91169106221809" lon="9.595493153348189"><ele>132.0</ele><time>2026-04-19T15:57:54Z</time></trkpt><trkpt lat="44.911628512742425" lon="9.595504735884187"><ele>132.0</ele><time>2026-04-19T15:58:03Z</time></trkpt><trkpt lat="44.91155580136489" lon="9.59549933994405"><ele>132.0</ele><time>2026-04-19T15:58:14Z</time></trkpt><trkpt lat="44.911487486609076" lon="9.595507990310482"><ele>132.0</ele><time>2026-04-19T15:58:28Z</time></trkpt><trkpt lat="44.91140340340042" lon="9.5955042048294"><ele>132.0</ele><time>2026-04-19T15:58:41Z</time></trkpt><trkpt lat="44.91132508376633" lon="9.595492687541423"><ele>132.0</ele><time>2026-04-19T15:58:54Z</time></trkpt><trkpt lat="44.91125645797672" lon="9.595495739422786"><ele>132.0</ele><time>2026-04-19T15:59:03.001Z</time></trkpt><trkpt lat="44.91119217113018" lon="9.595458801479145"><ele>132.0</ele><time>2026-04-19T15:59:12Z</time></trkpt><trkpt lat="44.9111138849314" lon="9.595478847438358"><ele>132.0</ele><time>2026-04-19T15:59:19Z</time></trkpt><trkpt lat="44.91104841627707" lon="9.595467570828252"><ele>132.0</ele><time>2026-04-19T15:59:33Z</time></trkpt><trkpt lat="44.91098873892669" lon="9.59542490776447"><ele>132.0</ele><time>2026-04-19T15:59:48Z</time></trkpt><trkpt lat="44.91091968041536" lon="9.59543652649428"><ele>132.0</ele><time>2026-04-19T15:59:56Z</time></trkpt><trkpt lat="44.91084752316119" lon="9.595398726803067"><ele>132.0</ele><time>2026-04-19T16:00:06Z</time></trkpt><trkpt lat="44.91078369017047" lon="9.595394626454313"><ele>132.0</ele><time>2026-04-19T16:00:22Z</time></trkpt><trkpt lat="44.910892833237256" lon="9.595425102395346"><ele>132.0</ele><time>2026-04-19T16:00:38Z</time></trkpt><trkpt lat="44.91095441812657" lon="9.595449492891825"><ele>132.0</ele><time>2026-04-19T16:00:46Z</time></trkpt><trkpt lat="44.91101507526318" lon="9.595475059270495"><ele>132.0</ele><time>2026-04-19T16:00:58Z</time></trkpt><trkpt lat="44.911074025615434" lon="9.595510536113698"><ele>132.0</ele><time>2026-04-19T16:01:06Z</time></trkpt><trkpt lat="44.911137497533836" lon="9.595502605518003"><ele>132.0</ele><time>2026-04-19T16:01:13Z</time></trkpt><trkpt lat="44.91120265304491" lon="9.595521869605346"><ele>132.0</ele><time>2026-04-19T16:01:23Z</time></trkpt><trkpt lat="44.91127230737217" lon="9.595546667880477"><ele>132.0</ele><time>2026-04-19T16:01:32Z</time></trkpt><trkpt lat="44.91133755990843" lon="9.595533915137619"><ele>132.0</ele><time>2026-04-19T16:01:41Z</time></trkpt><trkpt lat="44.9113293840442" lon="9.595624976563501"><ele>132.0</ele><time>2026-04-19T16:01:57Z</time></trkpt><trkpt lat="44.911316009368804" lon="9.595714136942975"><ele>132.0</ele><time>2026-04-19T16:02:06Z</time></trkpt><trkpt lat="44.91126146253839" lon="9.596039346264332"><ele>132.0</ele><time>2026-04-19T16:02:34Z</time></trkpt><trkpt lat="44.911205068543445" lon="9.595988664853044"><ele>132.0</ele><time>2026-04-19T16:02:46Z</time></trkpt><trkpt lat="44.91113530395675" lon="9.595980184564027"><ele>132.0</ele><time>2026-04-19T16:02:53Z</time></trkpt><trkpt lat="44.91106313763151" lon="9.595964518658294"><ele>132.0</ele><time>2026-04-19T16:02:59Z</time></trkpt><trkpt lat="44.91099747905831" lon="9.595953166315162"><ele>132.0</ele><time>2026-04-19T16:03:07Z</time></trkpt><trkpt lat="44.9109337610428" lon="9.595943082246118"><ele>132.0</ele><time>2026-04-19T16:03:15Z</time></trkpt><trkpt lat="44.91087459494226" lon="9.595912143665593"><ele>132.0</ele><time>2026-04-19T16:03:23Z</time></trkpt><trkpt lat="44.9108140071949" lon="9.595859059304763"><ele>132.0</ele><time>2026-04-19T16:03:31Z</time></trkpt><trkpt lat="44.91085639934509" lon="9.595954349916092"><ele>132.0</ele><time>2026-04-19T16:04:40Z</time></trkpt><trkpt lat="44.91094813436483" lon="9.596027451348771"><ele>132.0</ele><time>2026-04-19T16:04:42Z</time></trkpt><trkpt lat="44.91103261404128" lon="9.596035460001755"><ele>132.0</ele><time>2026-04-19T16:04:44Z</time></trkpt><trkpt lat="44.91110642378035" lon="9.596086365367913"><ele>132.0</ele><time>2026-04-19T16:04:46Z</time></trkpt><trkpt lat="44.911158202028425" lon="9.596167113273117"><ele>132.0</ele><time>2026-04-19T16:04:48Z</time></trkpt><trkpt lat="44.91121174008749" lon="9.596276053853975"><ele>132.0</ele><time>2026-04-19T16:04:50Z</time></trkpt><trkpt lat="44.91120744037044" lon="9.596366583107251"><ele>132.0</ele><time>2026-04-19T16:04:51Z</time></trkpt><trkpt lat="44.91114543670386" lon="9.596502691832868"><ele>133.4</ele><time>2026-04-19T16:04:53Z</time></trkpt><trkpt lat="44.91118085882552" lon="9.596596754089024"><ele>134.79999999999998</ele><time>2026-04-19T16:04:55Z</time></trkpt><trkpt lat="44.911271377184214" lon="9.59663579573941"><ele>136.2</ele><time>2026-04-19T16:04:57Z</time></trkpt><trkpt lat="44.911368858212775" lon="9.59654840209877"><ele>137.6</ele><time>2026-04-19T16:04:59Z</time></trkpt><trkpt lat="44.91143145621594" lon="9.596413780560885"><ele>139.0</ele><time>2026-04-19T16:05:01Z</time></trkpt><trkpt lat="44.911546716589115" lon="9.59631858536822"><ele>139.0</ele><time>2026-04-19T16:05:03Z</time></trkpt><trkpt lat="44.911614409520624" lon="9.596291449584687"><ele>139.0</ele><time>2026-04-19T16:05:04Z</time></trkpt><trkpt lat="44.91168580984148" lon="9.59627607660193"><ele>139.0</ele><time>2026-04-19T16:05:05Z</time></trkpt><trkpt lat="44.91176435781634" lon="9.596277505518145"><ele>139.0</ele><time>2026-04-19T16:05:06Z</time></trkpt><trkpt lat="44.91184641909905" lon="9.5962758703765"><ele>139.0</ele><time>2026-04-19T16:05:07Z</time></trkpt><trkpt lat="44.91194080597666" lon="9.596343005831415"><ele>139.0</ele><time>2026-04-19T16:05:08Z</time></trkpt><trkpt lat="44.91204914602031" lon="9.596397493838966"><ele>139.0</ele><time>2026-04-19T16:05:09Z</time></trkpt><trkpt lat="44.91216337497894" lon="9.596460522842735"><ele>139.0</ele><time>2026-04-19T16:05:10Z</time></trkpt><trkpt lat="44.912271566197305" lon="9.59653256862736"><ele>139.0</ele><time>2026-04-19T16:05:11Z</time></trkpt><trkpt lat="44.91239013067442" lon="9.596624011347597"><ele>139.0</ele><time>2026-04-19T16:05:12Z</time></trkpt><trkpt lat="44.91250883118353" lon="9.596735226686599"><ele>138.75</ele><time>2026-04-19T16:05:13Z</time></trkpt><trkpt lat="44.91261860524864" lon="9.596855069737002"><ele>138.5</ele><time>2026-04-19T16:05:14Z</time></trkpt><trkpt lat="44.9127251436715" lon="9.596988986088478"><ele>138.25</ele><time>2026-04-19T16:05:15Z</time></trkpt><trkpt lat="44.91283075566517" lon="9.597134209181975"><ele>138.0</ele><time>2026-04-19T16:05:16Z</time></trkpt><trkpt lat="44.91292622252138" lon="9.59729753990437"><ele>138.0</ele><time>2026-04-19T16:05:17Z</time></trkpt><trkpt lat="44.91301382441408" lon="9.597476114884765"><ele>138.0</ele><time>2026-04-19T16:05:18Z</time></trkpt><trkpt lat="44.913095736266776" lon="9.597664332891622"><ele>138.0</ele><time>2026-04-19T16:05:19Z</time></trkpt><trkpt lat="44.91317319579139" lon="9.59786007430776"><ele>138.0</ele><time>2026-04-19T16:05:20Z</time></trkpt><trkpt lat="44.91324708256639" lon="9.59805418809261"><ele>138.0</ele><time>2026-04-19T16:05:21Z</time></trkpt><trkpt lat="44.913323264742715" lon="9.598248226413228"><ele>138.0</ele><time>2026-04-19T16:05:22Z</time></trkpt><trkpt lat="44.91340086494631" lon="9.598441117011479"><ele>138.0</ele><time>2026-04-19T16:05:23Z</time></trkpt><trkpt lat="44.913477233437526" lon="9.598632716545406"><ele>138.0</ele><time>2026-04-19T16:05:24Z</time></trkpt><trkpt lat="44.91355538989286" lon="9.598820779291817"><ele>138.0</ele><time>2026-04-19T16:05:25Z</time></trkpt><trkpt lat="44.91363118348066" lon="9.59900829257529"><ele>137.66666666666666</ele><time>2026-04-19T16:05:26Z</time></trkpt><trkpt lat="44.913706436671646" lon="9.599197862369465"><ele>137.33333333333331</ele><time>2026-04-19T16:05:27Z</time></trkpt><trkpt lat="44.91378306646553" lon="9.599393016251595"><ele>137.0</ele><time>2026-04-19T16:05:28Z</time></trkpt><trkpt lat="44.913858622455614" lon="9.599583383966564"><ele>136.66666666666666</ele><time>2026-04-19T16:05:29Z</time></trkpt><trkpt lat="44.91393074650516" lon="9.599774682171292"><ele>136.33333333333334</ele><time>2026-04-19T16:05:30Z</time></trkpt><trkpt lat="44.91400673633709" lon="9.599964752218144"><ele>136.0</ele><time>2026-04-19T16:05:31Z</time></trkpt><trkpt lat="44.914160905046515" lon="9.600344180208554"><ele>136.66666666666669</ele><time>2026-04-19T16:05:33Z</time></trkpt><trkpt lat="44.914235317378946" lon="9.600531466315013"><ele>137.33333333333334</ele><time>2026-04-19T16:05:34Z</time></trkpt><trkpt lat="44.914308363048455" lon="9.600719565313367"><ele>138.0</ele><time>2026-04-19T16:05:35Z</time></trkpt><trkpt lat="44.914381217940324" lon="9.600906608090389"><ele>137.0</ele><time>2026-04-19T16:05:36Z</time></trkpt><trkpt lat="44.91445639033327" lon="9.601092361345687"><ele>136.0</ele><time>2026-04-19T16:05:37Z</time></trkpt><trkpt lat="44.914528600417924" lon="9.601278075124823"><ele>135.0</ele><time>2026-04-19T16:05:38Z</time></trkpt><trkpt lat="44.91460399868994" lon="9.601459961566073"><ele>135.0</ele><time>2026-04-19T16:05:39Z</time></trkpt><trkpt lat="44.914680837817556" lon="9.60164945157205"><ele>135.0</ele><time>2026-04-19T16:05:40Z</time></trkpt><trkpt lat="44.914760487040915" lon="9.601838198432693"><ele>135.0</ele><time>2026-04-19T16:05:41Z</time></trkpt><trkpt lat="44.9148400236202" lon="9.602030040198814"><ele>135.66666666666666</ele><time>2026-04-19T16:05:42Z</time></trkpt><trkpt lat="44.914920205237" lon="9.60222736406678"><ele>136.33333333333331</ele><time>2026-04-19T16:05:43Z</time></trkpt><trkpt lat="44.914999694447985" lon="9.602426298580001"><ele>137.0</ele><time>2026-04-19T16:05:44Z</time></trkpt><trkpt lat="44.9150786336686" lon="9.602629663518938"><ele>138.33333333333331</ele><time>2026-04-19T16:05:45Z</time></trkpt><trkpt lat="44.915156018982366" lon="9.602831452761453"><ele>139.66666666666666</ele><time>2026-04-19T16:05:46Z</time></trkpt><trkpt lat="44.91523416901115" lon="9.603025953148837"><ele>141.0</ele><time>2026-04-19T16:05:47Z</time></trkpt><trkpt lat="44.91531053895559" lon="9.603220657614337"><ele>141.0</ele><time>2026-04-19T16:05:48Z</time></trkpt><trkpt lat="44.91538607003667" lon="9.603411888827077"><ele>141.0</ele><time>2026-04-19T16:05:49Z</time></trkpt><trkpt lat="44.91546235005292" lon="9.603604375418671"><ele>141.0</ele><time>2026-04-19T16:05:50Z</time></trkpt><trkpt lat="44.91553788324195" lon="9.60380112495894"><ele>141.66666666666666</ele><time>2026-04-19T16:05:51Z</time></trkpt><trkpt lat="44.91561718503145" lon="9.603997490355548"><ele>142.33333333333331</ele><time>2026-04-19T16:05:52Z</time></trkpt><trkpt lat="44.915695234303755" lon="9.604191516489552"><ele>143.0</ele><time>2026-04-19T16:05:53Z</time></trkpt><trkpt lat="44.915770865064836" lon="9.604375525723162"><ele>143.25</ele><time>2026-04-19T16:05:54Z</time></trkpt><trkpt lat="44.91584699206221" lon="9.604551219904218"><ele>143.5</ele><time>2026-04-19T16:05:55Z</time></trkpt><trkpt lat="44.915921999742395" lon="9.604719793624739"><ele>143.75</ele><time>2026-04-19T16:05:56Z</time></trkpt><trkpt lat="44.916001463140866" lon="9.604877799237949"><ele>144.0</ele><time>2026-04-19T16:05:57Z</time></trkpt><trkpt lat="44.91608280031136" lon="9.605030268138528"><ele>143.25</ele><time>2026-04-19T16:05:58Z</time></trkpt><trkpt lat="44.91616374819203" lon="9.605174408255591"><ele>142.5</ele><time>2026-04-19T16:05:59Z</time></trkpt><trkpt lat="44.91623808662337" lon="9.605281072040446"><ele>141.75</ele><time>2026-04-19T16:06:00Z</time></trkpt><trkpt lat="44.91631363500603" lon="9.605393609396645"><ele>141.0</ele><time>2026-04-19T16:06:01Z</time></trkpt><trkpt lat="44.916393299197885" lon="9.605503685353172"><ele>141.0</ele><time>2026-04-19T16:06:02Z</time></trkpt><trkpt lat="44.91648112274219" lon="9.605615732525541"><ele>141.0</ele><time>2026-04-19T16:06:03Z</time></trkpt><trkpt lat="44.91657374936313" lon="9.605726987152643"><ele>141.0</ele><time>2026-04-19T16:06:04Z</time></trkpt><trkpt lat="44.91666913907558" lon="9.605837627456218"><ele>141.0</ele><time>2026-04-19T16:06:05Z</time></trkpt><trkpt lat="44.91677159940716" lon="9.605951482748072"><ele>141.0</ele><time>2026-04-19T16:06:06Z</time></trkpt><trkpt lat="44.916877066600385" lon="9.606064241281478"><ele>141.0</ele><time>2026-04-19T16:06:07Z</time></trkpt><trkpt lat="44.91698808535959" lon="9.606169129710935"><ele>141.0</ele><time>2026-04-19T16:06:08Z</time></trkpt><trkpt lat="44.917092502358074" lon="9.606276282182844"><ele>141.0</ele><time>2026-04-19T16:06:09Z</time></trkpt><trkpt lat="44.917204883160714" lon="9.606400046760356"><ele>141.0</ele><time>2026-04-19T16:06:10Z</time></trkpt><trkpt lat="44.91732276921386" lon="9.606525236333718"><ele>141.0</ele><time>2026-04-19T16:06:11Z</time></trkpt><trkpt lat="44.91744261267565" lon="9.60665153079192"><ele>141.0</ele><time>2026-04-19T16:06:12Z</time></trkpt><trkpt lat="44.91756701246002" lon="9.60677076945456"><ele>141.0</ele><time>2026-04-19T16:06:13Z</time></trkpt><trkpt lat="44.917695659322334" lon="9.606881646315712"><ele>140.33333333333334</ele><time>2026-04-19T16:06:14Z</time></trkpt><trkpt lat="44.91783373309263" lon="9.60698849203559"><ele>139.66666666666669</ele><time>2026-04-19T16:06:15Z</time></trkpt><trkpt lat="44.91797360230197" lon="9.607091928172164"><ele>139.0</ele><time>2026-04-19T16:06:16Z</time></trkpt><trkpt lat="44.9181119834403" lon="9.607187312203944"><ele>139.0</ele><time>2026-04-19T16:06:17Z</time></trkpt><trkpt lat="44.918251919883296" lon="9.60727745125649"><ele>139.0</ele><time>2026-04-19T16:06:18Z</time></trkpt><trkpt lat="44.9183944040964" lon="9.607366976304904"><ele>139.0</ele><time>2026-04-19T16:06:19Z</time></trkpt><trkpt lat="44.918541677901324" lon="9.607457470693058"><ele>138.0</ele><time>2026-04-19T16:06:20Z</time></trkpt><trkpt lat="44.91867498537333" lon="9.607548957616837"><ele>137.0</ele><time>2026-04-19T16:06:21Z</time></trkpt><trkpt lat="44.91881743773541" lon="9.607640799545617"><ele>136.0</ele><time>2026-04-19T16:06:22Z</time></trkpt><trkpt lat="44.9189608205466" lon="9.607733189158607"><ele>136.33333333333334</ele><time>2026-04-19T16:06:23Z</time></trkpt><trkpt lat="44.919102992940026" lon="9.607830339936832"><ele>136.66666666666666</ele><time>2026-04-19T16:06:24Z</time></trkpt><trkpt lat="44.919241352826546" lon="9.607923316552267"><ele>137.0</ele><time>2026-04-19T16:06:25Z</time></trkpt><trkpt lat="44.91937926533243" lon="9.608017113685698"><ele>136.33333333333331</ele><time>2026-04-19T16:06:26Z</time></trkpt><trkpt lat="44.91951748861807" lon="9.608112591241836"><ele>135.66666666666666</ele><time>2026-04-19T16:06:27Z</time></trkpt><trkpt lat="44.9196537698684" lon="9.608207747232317"><ele>135.0</ele><time>2026-04-19T16:06:28Z</time></trkpt><trkpt lat="44.919789725824565" lon="9.60830909060945"><ele>135.0</ele><time>2026-04-19T16:06:29Z</time></trkpt><trkpt lat="44.91992831104119" lon="9.608419311192078"><ele>135.0</ele><time>2026-04-19T16:06:30Z</time></trkpt><trkpt lat="44.920068856488705" lon="9.608540605274667"><ele>135.0</ele><time>2026-04-19T16:06:31Z</time></trkpt><trkpt lat="44.920213327810366" lon="9.608670854915296"><ele>134.66666666666666</ele><time>2026-04-19T16:06:32Z</time></trkpt><trkpt lat="44.920359493181735" lon="9.608808096043084"><ele>134.33333333333331</ele><time>2026-04-19T16:06:33Z</time></trkpt><trkpt lat="44.92050948405156" lon="9.608953482105498"><ele>134.0</ele><time>2026-04-19T16:06:34Z</time></trkpt><trkpt lat="44.920650987110946" lon="9.609102930136121"><ele>134.0</ele><time>2026-04-19T16:06:35Z</time></trkpt><trkpt lat="44.92078916436066" lon="9.609248929966569"><ele>134.0</ele><time>2026-04-19T16:06:36Z</time></trkpt><trkpt lat="44.92092440866128" lon="9.609395453254274"><ele>134.0</ele><time>2026-04-19T16:06:37Z</time></trkpt><trkpt lat="44.9210567884104" lon="9.609541589727282"><ele>133.33333333333331</ele><time>2026-04-19T16:06:38Z</time></trkpt><trkpt lat="44.92119123596424" lon="9.609690248177008"><ele>132.66666666666666</ele><time>2026-04-19T16:06:39Z</time></trkpt><trkpt lat="44.921325467663905" lon="9.60983953088988"><ele>132.0</ele><time>2026-04-19T16:06:40Z</time></trkpt><trkpt lat="44.921463780165176" lon="9.609991701124224"><ele>132.0</ele><time>2026-04-19T16:06:41Z</time></trkpt><trkpt lat="44.92160496830589" lon="9.610142162918702"><ele>132.0</ele><time>2026-04-19T16:06:42Z</time></trkpt><trkpt lat="44.92174639581936" lon="9.610293713703275"><ele>132.0</ele><time>2026-04-19T16:06:43Z</time></trkpt><trkpt lat="44.92188791261838" lon="9.61045147817851"><ele>131.66666666666666</ele><time>2026-04-19T16:06:44Z</time></trkpt><trkpt lat="44.92202894706283" lon="9.610619294782612"><ele>131.33333333333331</ele><time>2026-04-19T16:06:45Z</time></trkpt><trkpt lat="44.922170281824926" lon="9.610781817810969"><ele>131.0</ele><time>2026-04-19T16:06:46Z</time></trkpt><trkpt lat="44.922314900944656" lon="9.610936245749441"><ele>131.0</ele><time>2026-04-19T16:06:47Z</time></trkpt><trkpt lat="44.9224586665788" lon="9.611089104963089"><ele>131.0</ele><time>2026-04-19T16:06:48Z</time></trkpt><trkpt lat="44.92260237771162" lon="9.6112414029424"><ele>131.0</ele><time>2026-04-19T16:06:49Z</time></trkpt><trkpt lat="44.922744455811134" lon="9.611393839533378"><ele>131.66666666666666</ele><time>2026-04-19T16:06:50Z</time></trkpt><trkpt lat="44.922888424894396" lon="9.611544859324459"><ele>132.33333333333334</ele><time>2026-04-19T16:06:51Z</time></trkpt><trkpt lat="44.92303147339185" lon="9.611697307651172"><ele>133.0</ele><time>2026-04-19T16:06:52Z</time></trkpt><trkpt lat="44.92317371348819" lon="9.61184710404358"><ele>133.33333333333334</ele><time>2026-04-19T16:06:53Z</time></trkpt><trkpt lat="44.923317628288174" lon="9.611990774631263"><ele>133.66666666666666</ele><time>2026-04-19T16:06:54Z</time></trkpt><trkpt lat="44.923464720617254" lon="9.612132298219393"><ele>134.0</ele><time>2026-04-19T16:06:55Z</time></trkpt><trkpt lat="44.92361347145608" lon="9.612276431364531"><ele>133.0</ele><time>2026-04-19T16:06:56Z</time></trkpt><trkpt lat="44.923765025596346" lon="9.61241878860001"><ele>132.0</ele><time>2026-04-19T16:06:57Z</time></trkpt><trkpt lat="44.92391844944353" lon="9.612559792559788"><ele>131.0</ele><time>2026-04-19T16:06:58Z</time></trkpt><trkpt lat="44.92407404082298" lon="9.612698208539175"><ele>131.66666666666666</ele><time>2026-04-19T16:06:59Z</time></trkpt><trkpt lat="44.92423168203918" lon="9.612835954324453"><ele>132.33333333333334</ele><time>2026-04-19T16:07:00Z</time></trkpt><trkpt lat="44.92438865251376" lon="9.612977337504665"><ele>133.0</ele><time>2026-04-19T16:07:01Z</time></trkpt><trkpt lat="44.92454958372701" lon="9.613116918207329"><ele>133.0</ele><time>2026-04-19T16:07:02Z</time></trkpt><trkpt lat="44.924711159596264" lon="9.613255249966159"><ele>133.0</ele><time>2026-04-19T16:07:03Z</time></trkpt><trkpt lat="44.92487091937803" lon="9.613396781572378"><ele>133.0</ele><time>2026-04-19T16:07:04Z</time></trkpt><trkpt lat="44.925030311369795" lon="9.61353997305079"><ele>133.33333333333334</ele><time>2026-04-19T16:07:05Z</time></trkpt><trkpt lat="44.92518940848541" lon="9.61368527308854"><ele>133.66666666666666</ele><time>2026-04-19T16:07:06Z</time></trkpt><trkpt lat="44.92535047604006" lon="9.613832088577428"><ele>134.0</ele><time>2026-04-19T16:07:07Z</time></trkpt><trkpt lat="44.92551172661868" lon="9.613973709285455"><ele>134.0</ele><time>2026-04-19T16:07:08Z</time></trkpt><trkpt lat="44.92567437706475" lon="9.614116926364025"><ele>134.0</ele><time>2026-04-19T16:07:09Z</time></trkpt><trkpt lat="44.925838490299355" lon="9.614259761153127"><ele>134.0</ele><time>2026-04-19T16:07:10Z</time></trkpt><trkpt lat="44.92600374899033" lon="9.61440425408398"><ele>134.0</ele><time>2026-04-19T16:07:11Z</time></trkpt><trkpt lat="44.92616856235511" lon="9.614552097239745"><ele>134.0</ele><time>2026-04-19T16:07:12Z</time></trkpt><trkpt lat="44.92633226248129" lon="9.614705066227996"><ele>134.0</ele><time>2026-04-19T16:07:13Z</time></trkpt><trkpt lat="44.9264927810238" lon="9.614866083858747"><ele>134.0</ele><time>2026-04-19T16:07:14Z</time></trkpt><trkpt lat="44.92664859088051" lon="9.61503740868085"><ele>134.0</ele><time>2026-04-19T16:07:15Z</time></trkpt><trkpt lat="44.926799152021665" lon="9.615220025132103"><ele>134.0</ele><time>2026-04-19T16:07:16Z</time></trkpt><trkpt lat="44.92694383886264" lon="9.61540843808521"><ele>134.0</ele><time>2026-04-19T16:07:17Z</time></trkpt><trkpt lat="44.927084063582335" lon="9.615606477960037"><ele>134.0</ele><time>2026-04-19T16:07:18Z</time></trkpt><trkpt lat="44.92722061139584" lon="9.615813396898286"><ele>134.0</ele><time>2026-04-19T16:07:19Z</time></trkpt><trkpt lat="44.92735220977263" lon="9.616029986495567"><ele>134.0</ele><time>2026-04-19T16:07:20Z</time></trkpt><trkpt lat="44.927482295749336" lon="9.616246846857411"><ele>134.0</ele><time>2026-04-19T16:07:21Z</time></trkpt><trkpt lat="44.927611420553205" lon="9.61645796131723"><ele>134.0</ele><time>2026-04-19T16:07:22Z</time></trkpt><trkpt lat="44.927741545228066" lon="9.616664159650204"><ele>134.0</ele><time>2026-04-19T16:07:23Z</time></trkpt><trkpt lat="44.927870270726" lon="9.61686854101391"><ele>134.0</ele><time>2026-04-19T16:07:24Z</time></trkpt><trkpt lat="44.92800202975806" lon="9.61706984625747"><ele>134.0</ele><time>2026-04-19T16:07:25Z</time></trkpt><trkpt lat="44.928135414418534" lon="9.61726700996958"><ele>134.33333333333331</ele><time>2026-04-19T16:07:25.999Z</time></trkpt><trkpt lat="44.92827229613919" lon="9.61745798492945"><ele>134.66666666666666</ele><time>2026-04-19T16:07:26.999Z</time></trkpt><trkpt lat="44.928417085208324" lon="9.617642518116913"><ele>135.0</ele><time>2026-04-19T16:07:27.999Z</time></trkpt><trkpt lat="44.9285692113332" lon="9.617822315195982"><ele>135.33333333333334</ele><time>2026-04-19T16:07:28.999Z</time></trkpt><trkpt lat="44.9287283384997" lon="9.617999365089974"><ele>135.66666666666669</ele><time>2026-04-19T16:07:29.999Z</time></trkpt><trkpt lat="44.928891583767296" lon="9.618169820241803"><ele>136.0</ele><time>2026-04-19T16:07:30.999Z</time></trkpt><trkpt lat="44.9290576332972" lon="9.618337973621761"><ele>136.0</ele><time>2026-04-19T16:07:31.999Z</time></trkpt><trkpt lat="44.92922306233854" lon="9.61850688207874"><ele>136.0</ele><time>2026-04-19T16:07:32.999Z</time></trkpt><trkpt lat="44.92939677461104" lon="9.618677474449214"><ele>136.0</ele><time>2026-04-19T16:07:33.999Z</time></trkpt><trkpt lat="44.92956299391973" lon="9.61884256980915"><ele>135.33333333333334</ele><time>2026-04-19T16:07:34.999Z</time></trkpt><trkpt lat="44.92972881375797" lon="9.619003376879139"><ele>134.66666666666666</ele><time>2026-04-19T16:07:35.999Z</time></trkpt><trkpt lat="44.9299070839949" lon="9.61916508883503"><ele>134.0</ele><time>2026-04-19T16:07:36.999Z</time></trkpt><trkpt lat="44.930079389569194" lon="9.619353583728055"><ele>134.66666666666666</ele><time>2026-04-19T16:07:37.999Z</time></trkpt><trkpt lat="44.930259428232034" lon="9.619533948627865"><ele>135.33333333333334</ele><time>2026-04-19T16:07:38.999Z</time></trkpt><trkpt lat="44.93033670816874" lon="9.619616366862608"><ele>136.0</ele><time>2026-04-19T16:07:39.999Z</time></trkpt><trkpt lat="44.93047323298483" lon="9.619766049722037"><ele>136.0</ele><time>2026-04-19T16:07:40.999Z</time></trkpt><trkpt lat="44.93061401191131" lon="9.619919023477271"><ele>136.0</ele><time>2026-04-19T16:07:41.999Z</time></trkpt><trkpt lat="44.9307586755786" lon="9.62007791183165"><ele>136.0</ele><time>2026-04-19T16:07:42.999Z</time></trkpt><trkpt lat="44.93090893819453" lon="9.620240903489972"><ele>135.33333333333334</ele><time>2026-04-19T16:07:43.999Z</time></trkpt><trkpt lat="44.93106308345109" lon="9.620407394471988"><ele>134.66666666666666</ele><time>2026-04-19T16:07:44.999Z</time></trkpt><trkpt lat="44.93122073463328" lon="9.620575869673328"><ele>134.0</ele><time>2026-04-19T16:07:45.999Z</time></trkpt><trkpt lat="44.931377702633206" lon="9.620746562803799"><ele>134.0</ele><time>2026-04-19T16:07:46.999Z</time></trkpt><trkpt lat="44.93153520560748" lon="9.620921234907849"><ele>134.0</ele><time>2026-04-19T16:07:47.999Z</time></trkpt><trkpt lat="44.93168969389972" lon="9.621094123717185"><ele>134.0</ele><time>2026-04-19T16:07:48.999Z</time></trkpt><trkpt lat="44.93184473028686" lon="9.621270767049984"><ele>134.33333333333331</ele><time>2026-04-19T16:07:49.999Z</time></trkpt><trkpt lat="44.93200036769046" lon="9.621449194877494"><ele>134.66666666666666</ele><time>2026-04-19T16:07:50.999Z</time></trkpt><trkpt lat="44.93215795145612" lon="9.621625245048302"><ele>135.0</ele><time>2026-04-19T16:07:51.999Z</time></trkpt><trkpt lat="44.932315558474635" lon="9.621800711628696"><ele>135.0</ele><time>2026-04-19T16:07:52.999Z</time></trkpt><trkpt lat="44.932470044524415" lon="9.621975852370014"><ele>135.0</ele><time>2026-04-19T16:07:53.999Z</time></trkpt><trkpt lat="44.93262296735596" lon="9.622150023350368"><ele>135.0</ele><time>2026-04-19T16:07:54.999Z</time></trkpt><trkpt lat="44.93277663933409" lon="9.622324646822499"><ele>135.0</ele><time>2026-04-19T16:07:55.999Z</time></trkpt><trkpt lat="44.93293214454399" lon="9.622496849722262"><ele>135.0</ele><time>2026-04-19T16:07:56.999Z</time></trkpt><trkpt lat="44.93308796936626" lon="9.622672282548685"><ele>135.0</ele><time>2026-04-19T16:07:57.999Z</time></trkpt><trkpt lat="44.933244864505355" lon="9.622846927034475"><ele>134.0</ele><time>2026-04-19T16:07:58.999Z</time></trkpt><trkpt lat="44.93340059260476" lon="9.623021986601715"><ele>133.0</ele><time>2026-04-19T16:07:59.999Z</time></trkpt><trkpt lat="44.93355506218034" lon="9.623199400644028"><ele>132.0</ele><time>2026-04-19T16:08:00.999Z</time></trkpt><trkpt lat="44.933710366450306" lon="9.62337858333586"><ele>132.0</ele><time>2026-04-19T16:08:01.999Z</time></trkpt><trkpt lat="44.933866640367384" lon="9.623560344745156"><ele>132.0</ele><time>2026-04-19T16:08:02.999Z</time></trkpt><trkpt lat="44.934025387322166" lon="9.623739955992505"><ele>132.0</ele><time>2026-04-19T16:08:03.999Z</time></trkpt><trkpt lat="44.934184575728366" lon="9.623919307279865"><ele>131.33333333333334</ele><time>2026-04-19T16:08:04.999Z</time></trkpt><trkpt lat="44.93434612477228" lon="9.624096317563488"><ele>130.66666666666669</ele><time>2026-04-19T16:08:05.999Z</time></trkpt><trkpt lat="44.93450787619535" lon="9.624270017208005"><ele>130.0</ele><time>2026-04-19T16:08:06.999Z</time></trkpt><trkpt lat="44.93466790848228" lon="9.624446374063455"><ele>131.0</ele><time>2026-04-19T16:08:07.999Z</time></trkpt><trkpt lat="44.93482541318973" lon="9.624621430326552"><ele>132.0</ele><time>2026-04-19T16:08:08.999Z</time></trkpt><trkpt lat="44.934981336062926" lon="9.624790612546013"><ele>133.0</ele><time>2026-04-19T16:08:09.999Z</time></trkpt><trkpt lat="44.9351356325137" lon="9.624956278997624"><ele>133.33333333333334</ele><time>2026-04-19T16:08:10.999Z</time></trkpt><trkpt lat="44.935287420875625" lon="9.625121883212154"><ele>133.66666666666666</ele><time>2026-04-19T16:08:11.999Z</time></trkpt><trkpt lat="44.93543646581518" lon="9.625284391370938"><ele>134.0</ele><time>2026-04-19T16:08:12.999Z</time></trkpt><trkpt lat="44.93558312191039" lon="9.625444805433398"><ele>134.0</ele><time>2026-04-19T16:08:13.999Z</time></trkpt><trkpt lat="44.9357283312628" lon="9.625605685220496"><ele>134.0</ele><time>2026-04-19T16:08:14.999Z</time></trkpt><trkpt lat="44.93587498206254" lon="9.625763367245856"><ele>134.0</ele><time>2026-04-19T16:08:15.999Z</time></trkpt><trkpt lat="44.936022873904804" lon="9.625921033700973"><ele>134.33333333333331</ele><time>2026-04-19T16:08:17Z</time></trkpt><trkpt lat="44.93617125372876" lon="9.626076612740269"><ele>134.66666666666666</ele><time>2026-04-19T16:08:18Z</time></trkpt><trkpt lat="44.936321914877084" lon="9.626233351803762"><ele>135.0</ele><time>2026-04-19T16:08:19Z</time></trkpt><trkpt lat="44.93647357818033" lon="9.626391278809459"><ele>135.0</ele><time>2026-04-19T16:08:20Z</time></trkpt><trkpt lat="44.93662232048707" lon="9.626549797776427"><ele>135.0</ele><time>2026-04-19T16:08:21Z</time></trkpt><trkpt lat="44.936767713432744" lon="9.6267044654151"><ele>135.0</ele><time>2026-04-19T16:08:22Z</time></trkpt><trkpt lat="44.93690854300656" lon="9.626855661534144"><ele>134.0</ele><time>2026-04-19T16:08:23Z</time></trkpt><trkpt lat="44.937045158353875" lon="9.62700029869239"><ele>133.0</ele><time>2026-04-19T16:08:24Z</time></trkpt><trkpt lat="44.93716540907112" lon="9.627131539945022"><ele>132.0</ele><time>2026-04-19T16:08:25Z</time></trkpt><trkpt lat="44.93727888881738" lon="9.627256097173108"><ele>132.0</ele><time>2026-04-19T16:08:26Z</time></trkpt><trkpt lat="44.93746005041571" lon="9.627429559801469"><ele>132.0</ele><time>2026-04-19T16:08:27Z</time></trkpt><trkpt lat="44.93759267240644" lon="9.627573100988425"><ele>132.0</ele><time>2026-04-19T16:08:28Z</time></trkpt><trkpt lat="44.93772513552392" lon="9.627712556123946"><ele>132.0</ele><time>2026-04-19T16:08:29Z</time></trkpt><trkpt lat="44.937850313406855" lon="9.627851977516324"><ele>132.0</ele><time>2026-04-19T16:08:30Z</time></trkpt><trkpt lat="44.93798362108305" lon="9.627996988799758"><ele>132.0</ele><time>2026-04-19T16:08:31Z</time></trkpt><trkpt lat="44.938121528368946" lon="9.628147590353587"><ele>132.0</ele><time>2026-04-19T16:08:32Z</time></trkpt><trkpt lat="44.938250968133616" lon="9.628289697812965"><ele>132.0</ele><time>2026-04-19T16:08:33Z</time></trkpt><trkpt lat="44.93837411854591" lon="9.628432794391994"><ele>132.0</ele><time>2026-04-19T16:08:34Z</time></trkpt><trkpt lat="44.938493109763904" lon="9.628579739953919"><ele>131.66666666666666</ele><time>2026-04-19T16:08:35Z</time></trkpt><trkpt lat="44.93860122676233" lon="9.628729746831523"><ele>131.33333333333331</ele><time>2026-04-19T16:08:36Z</time></trkpt><trkpt lat="44.93871057655874" lon="9.628881226119054"><ele>131.0</ele><time>2026-04-19T16:08:37Z</time></trkpt><trkpt lat="44.93881806983248" lon="9.629032384129891"><ele>131.0</ele><time>2026-04-19T16:08:38Z</time></trkpt><trkpt lat="44.93891457205266" lon="9.62918717562932"><ele>131.0</ele><time>2026-04-19T16:08:39Z</time></trkpt><trkpt lat="44.93901262675008" lon="9.629337952686694"><ele>131.0</ele><time>2026-04-19T16:08:40Z</time></trkpt><trkpt lat="44.939103701268515" lon="9.629496398569174"><ele>131.0</ele><time>2026-04-19T16:08:41Z</time></trkpt><trkpt lat="44.93919920850971" lon="9.62965187618759"><ele>130.66666666666666</ele><time>2026-04-19T16:08:42Z</time></trkpt><trkpt lat="44.93929392023718" lon="9.629814963266428"><ele>130.33333333333334</ele><time>2026-04-19T16:08:43Z</time></trkpt><trkpt lat="44.939393173978495" lon="9.629980619897614"><ele>130.0</ele><time>2026-04-19T16:08:44Z</time></trkpt><trkpt lat="44.93949399503461" lon="9.630134865560013"><ele>130.0</ele><time>2026-04-19T16:08:45Z</time></trkpt><trkpt lat="44.939594864065946" lon="9.630280876133993"><ele>130.0</ele><time>2026-04-19T16:08:46Z</time></trkpt><trkpt lat="44.93969465692548" lon="9.630428988025347"><ele>130.0</ele><time>2026-04-19T16:08:47Z</time></trkpt><trkpt lat="44.939791530580045" lon="9.630584441839897"><ele>130.0</ele><time>2026-04-19T16:08:48Z</time></trkpt><trkpt lat="44.939889555961706" lon="9.630730557521309"><ele>130.0</ele><time>2026-04-19T16:08:49Z</time></trkpt><trkpt lat="44.93999223367432" lon="9.63087271218172"><ele>130.0</ele><time>2026-04-19T16:08:50Z</time></trkpt><trkpt lat="44.9400931713967" lon="9.631007588061147"><ele>130.0</ele><time>2026-04-19T16:08:51Z</time></trkpt><trkpt lat="44.940198190383626" lon="9.631143474114214"><ele>130.0</ele><time>2026-04-19T16:08:52Z</time></trkpt><trkpt lat="44.9402995627974" lon="9.631277223750182"><ele>129.0</ele><time>2026-04-19T16:08:53Z</time></trkpt><trkpt lat="44.94039856383992" lon="9.631404897005407"><ele>128.0</ele><time>2026-04-19T16:08:54Z</time></trkpt><trkpt lat="44.94050276122843" lon="9.631532917715422"><ele>127.0</ele><time>2026-04-19T16:08:55Z</time></trkpt><trkpt lat="44.94060809821652" lon="9.631658228870046"><ele>126.0</ele><time>2026-04-19T16:08:56Z</time></trkpt><trkpt lat="44.94071492615914" lon="9.631783989477416"><ele>126.0</ele><time>2026-04-19T16:08:57Z</time></trkpt><trkpt lat="44.94081565922329" lon="9.631899741265542"><ele>126.0</ele><time>2026-04-19T16:08:58Z</time></trkpt><trkpt lat="44.9409118477544" lon="9.63200336227108"><ele>126.0</ele><time>2026-04-19T16:08:59Z</time></trkpt><trkpt lat="44.94100463892819" lon="9.632101603398203"><ele>126.0</ele><time>2026-04-19T16:09:00Z</time></trkpt><trkpt lat="44.94109835277307" lon="9.632206199667618"><ele>126.0</ele><time>2026-04-19T16:09:01Z</time></trkpt><trkpt lat="44.941197655399556" lon="9.632317387464076"><ele>126.0</ele><time>2026-04-19T16:09:02Z</time></trkpt><trkpt lat="44.94129983762341" lon="9.632420414469438"><ele>126.0</ele><time>2026-04-19T16:09:03Z</time></trkpt><trkpt lat="44.94141498943023" lon="9.632530609284958"><ele>126.0</ele><time>2026-04-19T16:09:04Z</time></trkpt><trkpt lat="44.94152938102655" lon="9.632640193210243"><ele>126.0</ele><time>2026-04-19T16:09:05Z</time></trkpt><trkpt lat="44.94165744668005" lon="9.632757500173108"><ele>126.0</ele><time>2026-04-19T16:09:06Z</time></trkpt><trkpt lat="44.94178813756508" lon="9.632894179820534"><ele>126.0</ele><time>2026-04-19T16:09:07Z</time></trkpt><trkpt lat="44.941916736408956" lon="9.633021514637926"><ele>125.0</ele><time>2026-04-19T16:09:08Z</time></trkpt><trkpt lat="44.94204383558124" lon="9.633139768463897"><ele>124.0</ele><time>2026-04-19T16:09:09Z</time></trkpt><trkpt lat="44.94216819310844" lon="9.633259113727327"><ele>123.0</ele><time>2026-04-19T16:09:10Z</time></trkpt><trkpt lat="44.94229190701323" lon="9.633380518763216"><ele>123.0</ele><time>2026-04-19T16:09:11Z</time></trkpt><trkpt lat="44.94241920550827" lon="9.633500621326354"><ele>123.0</ele><time>2026-04-19T16:09:12Z</time></trkpt><trkpt lat="44.94254585509408" lon="9.633625737807197"><ele>123.0</ele><time>2026-04-19T16:09:13Z</time></trkpt><trkpt lat="44.94266777409394" lon="9.633745695191474"><ele>122.33333333333334</ele><time>2026-04-19T16:09:14Z</time></trkpt><trkpt lat="44.94278790711647" lon="9.633864697416959"><ele>121.66666666666667</ele><time>2026-04-19T16:09:15Z</time></trkpt><trkpt lat="44.942912450204695" lon="9.633992235773063"><ele>121.0</ele><time>2026-04-19T16:09:16Z</time></trkpt><trkpt lat="44.9430427300232" lon="9.63410778186842"><ele>121.0</ele><time>2026-04-19T16:09:17Z</time></trkpt><trkpt lat="44.94319372381092" lon="9.634245825253526"><ele>121.0</ele><time>2026-04-19T16:09:18Z</time></trkpt><trkpt lat="44.94337311301414" lon="9.634416304344033"><ele>121.0</ele><time>2026-04-19T16:09:19Z</time></trkpt><trkpt lat="44.94355532288519" lon="9.634542018458498"><ele>120.66666666666667</ele><time>2026-04-19T16:09:20Z</time></trkpt><trkpt lat="44.94372274829838" lon="9.634667386562255"><ele>120.33333333333334</ele><time>2026-04-19T16:09:21Z</time></trkpt><trkpt lat="44.94388002038814" lon="9.634777062185332"><ele>120.0</ele><time>2026-04-19T16:09:22Z</time></trkpt><trkpt lat="44.94403121391774" lon="9.634890525781728"><ele>120.0</ele><time>2026-04-19T16:09:23Z</time></trkpt><trkpt lat="44.944179299505215" lon="9.634992942741407"><ele>120.0</ele><time>2026-04-19T16:09:24Z</time></trkpt><trkpt lat="44.94432932201203" lon="9.635103271237394"><ele>120.0</ele><time>2026-04-19T16:09:25Z</time></trkpt><trkpt lat="44.9444754714536" lon="9.63520627069858"><ele>120.33333333333334</ele><time>2026-04-19T16:09:26Z</time></trkpt><trkpt lat="44.94463627203123" lon="9.635317297265392"><ele>120.66666666666667</ele><time>2026-04-19T16:09:27Z</time></trkpt><trkpt lat="44.944813117540164" lon="9.635434108120922"><ele>121.0</ele><time>2026-04-19T16:09:28Z</time></trkpt><trkpt lat="44.94499875190697" lon="9.635564442843119"><ele>121.0</ele><time>2026-04-19T16:09:29Z</time></trkpt><trkpt lat="44.94518129650046" lon="9.635690592590095"><ele>121.0</ele><time>2026-04-19T16:09:30Z</time></trkpt><trkpt lat="44.94535071996287" lon="9.635812579330903"><ele>121.0</ele><time>2026-04-19T16:09:31Z</time></trkpt><trkpt lat="44.94552933269152" lon="9.635937309259022"><ele>121.0</ele><time>2026-04-19T16:09:31.998Z</time></trkpt><trkpt lat="44.94571811527684" lon="9.636069717889868"><ele>121.0</ele><time>2026-04-19T16:09:32.998Z</time></trkpt><trkpt lat="44.9459098040841" lon="9.63620493379214"><ele>121.0</ele><time>2026-04-19T16:09:33.998Z</time></trkpt><trkpt lat="44.94608533529324" lon="9.636324607493354"><ele>121.33333333333334</ele><time>2026-04-19T16:09:34.998Z</time></trkpt><trkpt lat="44.94623767526921" lon="9.636433372170995"><ele>121.66666666666666</ele><time>2026-04-19T16:09:35.998Z</time></trkpt><trkpt lat="44.94637604811384" lon="9.636534299895194"><ele>122.0</ele><time>2026-04-19T16:09:36.998Z</time></trkpt><trkpt lat="44.946503871581996" lon="9.636623926983276"><ele>122.0</ele><time>2026-04-19T16:09:37.999Z</time></trkpt><trkpt lat="44.94663213474356" lon="9.636716487907664"><ele>122.0</ele><time>2026-04-19T16:09:38.999Z</time></trkpt><trkpt lat="44.94677264192059" lon="9.636817579526918"><ele>122.0</ele><time>2026-04-19T16:09:39.999Z</time></trkpt><trkpt lat="44.946933544164814" lon="9.636929605773766"><ele>121.0</ele><time>2026-04-19T16:09:40.999Z</time></trkpt><trkpt lat="44.94711066960061" lon="9.637048425908626"><ele>120.0</ele><time>2026-04-19T16:09:41.999Z</time></trkpt><trkpt lat="44.94729734240858" lon="9.63717462909198"><ele>119.0</ele><time>2026-04-19T16:09:42.999Z</time></trkpt><trkpt lat="44.94748702715375" lon="9.637314494647159"><ele>119.0</ele><time>2026-04-19T16:09:43.999Z</time></trkpt><trkpt lat="44.94766460328765" lon="9.637448299301836"><ele>119.0</ele><time>2026-04-19T16:09:44.999Z</time></trkpt><trkpt lat="44.94782845557496" lon="9.637567585941431"><ele>119.0</ele><time>2026-04-19T16:09:45.999Z</time></trkpt><trkpt lat="44.94797923353988" lon="9.637675344342995"><ele>119.0</ele><time>2026-04-19T16:09:46.999Z</time></trkpt><trkpt lat="44.94813034290394" lon="9.637782091013067"><ele>119.0</ele><time>2026-04-19T16:09:47.999Z</time></trkpt><trkpt lat="44.9482984835102" lon="9.63790004349808"><ele>119.0</ele><time>2026-04-19T16:09:48.999Z</time></trkpt><trkpt lat="44.94847777829533" lon="9.638023316976003"><ele>119.0</ele><time>2026-04-19T16:09:49.999Z</time></trkpt><trkpt lat="44.94866166757459" lon="9.638151218906389"><ele>119.0</ele><time>2026-04-19T16:09:50.999Z</time></trkpt><trkpt lat="44.948850860730275" lon="9.638283381981477"><ele>119.0</ele><time>2026-04-19T16:09:51.999Z</time></trkpt><trkpt lat="44.949046551473" lon="9.638416839234756"><ele>118.66666666666666</ele><time>2026-04-19T16:09:52.999Z</time></trkpt><trkpt lat="44.94924039896484" lon="9.638548740015496"><ele>118.33333333333334</ele><time>2026-04-19T16:09:53.999Z</time></trkpt><trkpt lat="44.9494406257868" lon="9.638686573133757"><ele>118.0</ele><time>2026-04-19T16:09:54.999Z</time></trkpt><trkpt lat="44.94964253770129" lon="9.638832271758229"><ele>118.0</ele><time>2026-04-19T16:09:55.999Z</time></trkpt><trkpt lat="44.949845375950915" lon="9.638982633912082"><ele>118.0</ele><time>2026-04-19T16:09:56.999Z</time></trkpt><trkpt lat="44.950050421751065" lon="9.639137456061025"><ele>117.5</ele><time>2026-04-19T16:09:57.999Z</time></trkpt><trkpt lat="44.95025403984478" lon="9.63929576960913"><ele>117.0</ele><time>2026-04-19T16:09:58.999Z</time></trkpt><trkpt lat="44.95045422126766" lon="9.639463237632137"><ele>116.5</ele><time>2026-04-19T16:09:59.999Z</time></trkpt><trkpt lat="44.95065104356823" lon="9.639635348772158"><ele>116.0</ele><time>2026-04-19T16:10:00.999Z</time></trkpt><trkpt lat="44.95084689970837" lon="9.639805791627358"><ele>115.66666666666666</ele><time>2026-04-19T16:10:01.999Z</time></trkpt><trkpt lat="44.95104076356023" lon="9.639971170732514"><ele>115.33333333333334</ele><time>2026-04-19T16:10:02.999Z</time></trkpt><trkpt lat="44.951229483278034" lon="9.640134540146422"><ele>115.0</ele><time>2026-04-19T16:10:03.999Z</time></trkpt><trkpt lat="44.95141543937542" lon="9.6403003139641"><ele>115.0</ele><time>2026-04-19T16:10:04.999Z</time></trkpt><trkpt lat="44.95160368346929" lon="9.640478344079149"><ele>115.0</ele><time>2026-04-19T16:10:05.999Z</time></trkpt><trkpt lat="44.951791232792104" lon="9.640660058689752"><ele>114.5</ele><time>2026-04-19T16:10:06.999Z</time></trkpt><trkpt lat="44.951981835215996" lon="9.640848280129525"><ele>114.0</ele><time>2026-04-19T16:10:07.999Z</time></trkpt><trkpt lat="44.95217099541435" lon="9.64103693541177"><ele>114.5</ele><time>2026-04-19T16:10:08.999Z</time></trkpt><trkpt lat="44.95234926948251" lon="9.641251141490004"><ele>115.0</ele><time>2026-04-19T16:10:09.999Z</time></trkpt><trkpt lat="44.95254531797784" lon="9.641440682640498"><ele>114.0</ele><time>2026-04-19T16:10:11Z</time></trkpt><trkpt lat="44.95273066444986" lon="9.641658271304232"><ele>113.0</ele><time>2026-04-19T16:10:12Z</time></trkpt><trkpt lat="44.952920261233686" lon="9.641877429123841"><ele>113.5</ele><time>2026-04-19T16:10:13Z</time></trkpt><trkpt lat="44.95310663793522" lon="9.642099876890926"><ele>114.0</ele><time>2026-04-19T16:10:14Z</time></trkpt><trkpt lat="44.953280769449286" lon="9.642322152364112"><ele>113.5</ele><time>2026-04-19T16:10:15Z</time></trkpt><trkpt lat="44.95344701271493" lon="9.642549513198226"><ele>113.0</ele><time>2026-04-19T16:10:16Z</time></trkpt><trkpt lat="44.95362361943174" lon="9.64278317790219"><ele>113.0</ele><time>2026-04-19T16:10:17Z</time></trkpt><trkpt lat="44.95380017948028" lon="9.643017094496344"><ele>113.0</ele><time>2026-04-19T16:10:18Z</time></trkpt><trkpt lat="44.953980245490584" lon="9.643250932845786"><ele>113.0</ele><time>2026-04-19T16:10:19Z</time></trkpt><trkpt lat="44.95415547174783" lon="9.643486614795412"><ele>113.0</ele><time>2026-04-19T16:10:20Z</time></trkpt><trkpt lat="44.95433660626276" lon="9.6437240521864"><ele>111.5</ele><time>2026-04-19T16:10:21Z</time></trkpt><trkpt lat="44.954520101352315" lon="9.643963851785553"><ele>110.0</ele><time>2026-04-19T16:10:22Z</time></trkpt><trkpt lat="44.95470481871386" lon="9.644203040543674"><ele>110.0</ele><time>2026-04-19T16:10:23Z</time></trkpt><trkpt lat="44.954889837030635" lon="9.644446162689793"><ele>110.0</ele><time>2026-04-19T16:10:24Z</time></trkpt><trkpt lat="44.955076874699074" lon="9.644689015010128"><ele>110.0</ele><time>2026-04-19T16:10:25Z</time></trkpt><trkpt lat="44.95526617397802" lon="9.644932569861213"><ele>110.0</ele><time>2026-04-19T16:10:26Z</time></trkpt><trkpt lat="44.95545128931536" lon="9.645172373571642"><ele>109.5</ele><time>2026-04-19T16:10:27Z</time></trkpt><trkpt lat="44.95563576664501" lon="9.645411346821529"><ele>109.0</ele><time>2026-04-19T16:10:28Z</time></trkpt><trkpt lat="44.95581999326968" lon="9.645638953534451"><ele>108.0</ele><time>2026-04-19T16:10:29Z</time></trkpt><trkpt lat="44.956013412672995" lon="9.645854421855546"><ele>107.0</ele><time>2026-04-19T16:10:30Z</time></trkpt><trkpt lat="44.956211144309975" lon="9.646056400009753"><ele>107.5</ele><time>2026-04-19T16:10:31Z</time></trkpt><trkpt lat="44.95640937943219" lon="9.64625004742933"><ele>108.0</ele><time>2026-04-19T16:10:32Z</time></trkpt><trkpt lat="44.95660468601547" lon="9.646433374450321"><ele>107.5</ele><time>2026-04-19T16:10:33Z</time></trkpt><trkpt lat="44.9567996458743" lon="9.64660696580031"><ele>107.0</ele><time>2026-04-19T16:10:34Z</time></trkpt><trkpt lat="44.956994550480935" lon="9.64676951572225"><ele>107.0</ele><time>2026-04-19T16:10:35Z</time></trkpt><trkpt lat="44.95718952263303" lon="9.646920776191159"><ele>107.0</ele><time>2026-04-19T16:10:36Z</time></trkpt><trkpt lat="44.957376944497454" lon="9.647067755174609"><ele>107.0</ele><time>2026-04-19T16:10:37Z</time></trkpt><trkpt lat="44.957559704823936" lon="9.647209362664313"><ele>106.33333333333333</ele><time>2026-04-19T16:10:38Z</time></trkpt><trkpt lat="44.95773426705515" lon="9.647347298802309"><ele>105.66666666666666</ele><time>2026-04-19T16:10:39Z</time></trkpt><trkpt lat="44.95791178941131" lon="9.647490607884144"><ele>105.0</ele><time>2026-04-19T16:10:40Z</time></trkpt><trkpt lat="44.9580992173248" lon="9.647637488117113"><ele>105.0</ele><time>2026-04-19T16:10:41Z</time></trkpt><trkpt lat="44.95829492174782" lon="9.647790396065984"><ele>105.0</ele><time>2026-04-19T16:10:42Z</time></trkpt><trkpt lat="44.95849591032126" lon="9.647946787944704"><ele>105.0</ele><time>2026-04-19T16:10:43Z</time></trkpt><trkpt lat="44.95868817306748" lon="9.648100167917626"><ele>105.0</ele><time>2026-04-19T16:10:44Z</time></trkpt><trkpt lat="44.95886809523411" lon="9.648243610481202"><ele>105.0</ele><time>2026-04-19T16:10:45Z</time></trkpt><trkpt lat="44.95904073279966" lon="9.64837834186769"><ele>104.66666666666666</ele><time>2026-04-19T16:10:46Z</time></trkpt><trkpt lat="44.959203907371325" lon="9.648507834920787"><ele>104.33333333333333</ele><time>2026-04-19T16:10:47Z</time></trkpt><trkpt lat="44.95935649445928" lon="9.648629470360222"><ele>104.0</ele><time>2026-04-19T16:10:48Z</time></trkpt><trkpt lat="44.9595057094076" lon="9.648750233025007"><ele>104.0</ele><time>2026-04-19T16:10:49Z</time></trkpt><trkpt lat="44.95964531074504" lon="9.648860350228333"><ele>104.0</ele><time>2026-04-19T16:10:50Z</time></trkpt><trkpt lat="44.95978687198442" lon="9.648974586450578"><ele>104.0</ele><time>2026-04-19T16:10:51Z</time></trkpt><trkpt lat="44.959927546954056" lon="9.649084499163298"><ele>103.33333333333333</ele><time>2026-04-19T16:10:52Z</time></trkpt><trkpt lat="44.96006804750233" lon="9.649193197051636"><ele>102.66666666666666</ele><time>2026-04-19T16:10:53Z</time></trkpt><trkpt lat="44.96020621054476" lon="9.649299778461803"><ele>102.0</ele><time>2026-04-19T16:10:54Z</time></trkpt><trkpt lat="44.960341673611666" lon="9.649402591201083"><ele>102.0</ele><time>2026-04-19T16:10:55Z</time></trkpt><trkpt lat="44.96047624760636" lon="9.649505430626297"><ele>102.0</ele><time>2026-04-19T16:10:56Z</time></trkpt><trkpt lat="44.960608092755415" lon="9.649612286733444"><ele>102.0</ele><time>2026-04-19T16:10:57Z</time></trkpt><trkpt lat="44.96074576961265" lon="9.649722075965883"><ele>101.66666666666666</ele><time>2026-04-19T16:10:58Z</time></trkpt><trkpt lat="44.960888527618316" lon="9.649830912068419"><ele>101.33333333333333</ele><time>2026-04-19T16:10:59Z</time></trkpt><trkpt lat="44.96104364104697" lon="9.649949658189442"><ele>101.0</ele><time>2026-04-19T16:11:00Z</time></trkpt><trkpt lat="44.96121252051685" lon="9.650080298151707"><ele>101.0</ele><time>2026-04-19T16:11:01Z</time></trkpt><trkpt lat="44.9613969384382" lon="9.650219983559891"><ele>101.0</ele><time>2026-04-19T16:11:02Z</time></trkpt><trkpt lat="44.961584341714236" lon="9.650359584341812"><ele>101.0</ele><time>2026-04-19T16:11:03Z</time></trkpt><trkpt lat="44.961769508098435" lon="9.650508707337824"><ele>101.33333333333333</ele><time>2026-04-19T16:11:04Z</time></trkpt><trkpt lat="44.96195927421556" lon="9.650659225031797"><ele>101.66666666666666</ele><time>2026-04-19T16:11:05Z</time></trkpt><trkpt lat="44.9621521845864" lon="9.650811772104031"><ele>102.0</ele><time>2026-04-19T16:11:06Z</time></trkpt><trkpt lat="44.96234818715287" lon="9.650968832321295"><ele>101.5</ele><time>2026-04-19T16:11:07Z</time></trkpt><trkpt lat="44.962547640349996" lon="9.651126728231336"><ele>101.0</ele><time>2026-04-19T16:11:08Z</time></trkpt><trkpt lat="44.9627471815655" lon="9.65128956810395"><ele>101.0</ele><time>2026-04-19T16:11:09Z</time></trkpt><trkpt lat="44.96294839512979" lon="9.65145651596756"><ele>101.0</ele><time>2026-04-19T16:11:10Z</time></trkpt><trkpt lat="44.96314826265551" lon="9.651623075330097"><ele>101.0</ele><time>2026-04-19T16:11:11Z</time></trkpt><trkpt lat="44.96334551229142" lon="9.651782285220639"><ele>101.0</ele><time>2026-04-19T16:11:12Z</time></trkpt><trkpt lat="44.96354453398101" lon="9.651938478447208"><ele>101.5</ele><time>2026-04-19T16:11:13Z</time></trkpt><trkpt lat="44.96374557903612" lon="9.652093002324714"><ele>102.0</ele><time>2026-04-19T16:11:14Z</time></trkpt><trkpt lat="44.96394282579626" lon="9.652243019962409"><ele>102.0</ele><time>2026-04-19T16:11:15Z</time></trkpt><trkpt lat="44.96413817244343" lon="9.652388982846281"><ele>102.0</ele><time>2026-04-19T16:11:16Z</time></trkpt><trkpt lat="44.96433095178825" lon="9.652529739866559"><ele>102.0</ele><time>2026-04-19T16:11:17Z</time></trkpt><trkpt lat="44.96452345051402" lon="9.652665862444215"><ele>101.66666666666666</ele><time>2026-04-19T16:11:18Z</time></trkpt><trkpt lat="44.96471863418378" lon="9.652797240506315"><ele>101.33333333333333</ele><time>2026-04-19T16:11:19Z</time></trkpt><trkpt lat="44.96491421645993" lon="9.652917850166244"><ele>101.0</ele><time>2026-04-19T16:11:20Z</time></trkpt><trkpt lat="44.965113080083775" lon="9.65302546303369"><ele>100.66666666666666</ele><time>2026-04-19T16:11:21Z</time></trkpt><trkpt lat="44.96531447060157" lon="9.653128627981081"><ele>100.33333333333334</ele><time>2026-04-19T16:11:22Z</time></trkpt><trkpt lat="44.96551224813964" lon="9.653229644175648"><ele>100.0</ele><time>2026-04-19T16:11:23Z</time></trkpt><trkpt lat="44.965705198643796" lon="9.653329861354662"><ele>99.66666666666667</ele><time>2026-04-19T16:11:24Z</time></trkpt><trkpt lat="44.9658936779918" lon="9.653428387286063"><ele>99.33333333333334</ele><time>2026-04-19T16:11:25Z</time></trkpt><trkpt lat="44.966075630543756" lon="9.653525624897037"><ele>99.0</ele><time>2026-04-19T16:11:26Z</time></trkpt><trkpt lat="44.96625427341031" lon="9.65361891990126"><ele>99.0</ele><time>2026-04-19T16:11:27Z</time></trkpt><trkpt lat="44.9664323567569" lon="9.65371111201037"><ele>99.0</ele><time>2026-04-19T16:11:28Z</time></trkpt><trkpt lat="44.96661291818945" lon="9.65380269022264"><ele>99.0</ele><time>2026-04-19T16:11:29Z</time></trkpt><trkpt lat="44.9667941253707" lon="9.653896362828327"><ele>99.0</ele><time>2026-04-19T16:11:30Z</time></trkpt><trkpt lat="44.96697379078197" lon="9.653990411042901"><ele>99.0</ele><time>2026-04-19T16:11:31Z</time></trkpt><trkpt lat="44.967153317547" lon="9.654080713909272"><ele>99.0</ele><time>2026-04-19T16:11:32Z</time></trkpt><trkpt lat="44.96734010348932" lon="9.65417047391465"><ele>98.66666666666666</ele><time>2026-04-19T16:11:33Z</time></trkpt><trkpt lat="44.96753312721826" lon="9.654260656632097"><ele>98.33333333333333</ele><time>2026-04-19T16:11:34Z</time></trkpt><trkpt lat="44.967731355562016" lon="9.654358566192629"><ele>98.0</ele><time>2026-04-19T16:11:35Z</time></trkpt><trkpt lat="44.96793465666726" lon="9.654462004463756"><ele>97.66666666666666</ele><time>2026-04-19T16:11:36Z</time></trkpt><trkpt lat="44.96814208211549" lon="9.65456978352006"><ele>97.33333333333334</ele><time>2026-04-19T16:11:37Z</time></trkpt><trkpt lat="44.96835448743338" lon="9.654681795208791"><ele>97.0</ele><time>2026-04-19T16:11:37.999Z</time></trkpt><trkpt lat="44.968572187587704" lon="9.654796430041987"><ele>97.0</ele><time>2026-04-19T16:11:38.999Z</time></trkpt><trkpt lat="44.96879510956929" lon="9.65491293895866"><ele>97.0</ele><time>2026-04-19T16:11:39.999Z</time></trkpt><trkpt lat="44.96901240378853" lon="9.65502989044977"><ele>96.5</ele><time>2026-04-19T16:11:40.999Z</time></trkpt><trkpt lat="44.969233895111536" lon="9.655144770258708"><ele>96.0</ele><time>2026-04-19T16:11:41.999Z</time></trkpt><trkpt lat="44.96944517696928" lon="9.655265518793057"><ele>96.0</ele><time>2026-04-19T16:11:42.999Z</time></trkpt><trkpt lat="44.969648906856115" lon="9.655386576226702"><ele>96.0</ele><time>2026-04-19T16:11:43.999Z</time></trkpt><trkpt lat="44.96994218774533" lon="9.655509236843631"><ele>96.0</ele><time>2026-04-19T16:11:44.999Z</time></trkpt><trkpt lat="44.970184415473234" lon="9.65563190559137"><ele>96.0</ele><time>2026-04-19T16:11:45.999Z</time></trkpt><trkpt lat="44.970423876700934" lon="9.655752886163599"><ele>96.0</ele><time>2026-04-19T16:11:46.999Z</time></trkpt><trkpt lat="44.97065922363808" lon="9.6558740611774"><ele>96.0</ele><time>2026-04-19T16:11:47.999Z</time></trkpt><trkpt lat="44.97089639055693" lon="9.655996136971675"><ele>96.0</ele><time>2026-04-19T16:11:48.999Z</time></trkpt><trkpt lat="44.971131448691736" lon="9.65611633464971"><ele>96.0</ele><time>2026-04-19T16:11:49.999Z</time></trkpt><trkpt lat="44.97136474837773" lon="9.65623644482666"><ele>96.0</ele><time>2026-04-19T16:11:50.999Z</time></trkpt><trkpt lat="44.971597121060995" lon="9.656359505170675"><ele>96.0</ele><time>2026-04-19T16:11:51.999Z</time></trkpt><trkpt lat="44.971832019118125" lon="9.656483755958034"><ele>96.0</ele><time>2026-04-19T16:11:53Z</time></trkpt><trkpt lat="44.97206612022239" lon="9.656604910720576"><ele>96.0</ele><time>2026-04-19T16:11:54Z</time></trkpt><trkpt lat="44.97229893579106" lon="9.65672554970002"><ele>95.5</ele><time>2026-04-19T16:11:55Z</time></trkpt><trkpt lat="44.97252981654928" lon="9.656843504444446"><ele>95.0</ele><time>2026-04-19T16:11:56Z</time></trkpt><trkpt lat="44.972757326761354" lon="9.656964291842074"><ele>95.0</ele><time>2026-04-19T16:11:57Z</time></trkpt><trkpt lat="44.972983373431404" lon="9.657085639123776"><ele>95.0</ele><time>2026-04-19T16:11:58Z</time></trkpt><trkpt lat="44.97320968376381" lon="9.657203472917153"><ele>94.0</ele><time>2026-04-19T16:11:59Z</time></trkpt><trkpt lat="44.97343568438626" lon="9.657319633640466"><ele>93.0</ele><time>2026-04-19T16:12:00Z</time></trkpt><trkpt lat="44.973660030644766" lon="9.657436502484492"><ele>93.0</ele><time>2026-04-19T16:12:01Z</time></trkpt><trkpt lat="44.97388544179424" lon="9.657555163622533"><ele>93.0</ele><time>2026-04-19T16:12:02Z</time></trkpt><trkpt lat="44.9741102089253" lon="9.65767463601539"><ele>93.5</ele><time>2026-04-19T16:12:03Z</time></trkpt><trkpt lat="44.97433265984366" lon="9.657798493904624"><ele>94.0</ele><time>2026-04-19T16:12:04Z</time></trkpt><trkpt lat="44.97455563211556" lon="9.65792356265226"><ele>94.0</ele><time>2026-04-19T16:12:05Z</time></trkpt><trkpt lat="44.9747806038866" lon="9.658047259563254"><ele>94.0</ele><time>2026-04-19T16:12:06Z</time></trkpt><trkpt lat="44.975007069248335" lon="9.658164285926597"><ele>93.5</ele><time>2026-04-19T16:12:07Z</time></trkpt><trkpt lat="44.97523306899" lon="9.658276362566847"><ele>93.0</ele><time>2026-04-19T16:12:08Z</time></trkpt><trkpt lat="44.97546192052601" lon="9.658383639946566"><ele>93.0</ele><time>2026-04-19T16:12:09Z</time></trkpt><trkpt lat="44.97569463144987" lon="9.65848074440215"><ele>93.0</ele><time>2026-04-19T16:12:10Z</time></trkpt><trkpt lat="44.97592862583682" lon="9.658568826074388"><ele>92.5</ele><time>2026-04-19T16:12:11Z</time></trkpt><trkpt lat="44.97616426951362" lon="9.658649926787804"><ele>92.0</ele><time>2026-04-19T16:12:12Z</time></trkpt><trkpt lat="44.97640217159057" lon="9.658720162848404"><ele>92.0</ele><time>2026-04-19T16:12:13Z</time></trkpt><trkpt lat="44.97664318736939" lon="9.658785849705366"><ele>92.0</ele><time>2026-04-19T16:12:14Z</time></trkpt><trkpt lat="44.976883990836036" lon="9.65884903131113"><ele>91.5</ele><time>2026-04-19T16:12:15Z</time></trkpt><trkpt lat="44.977125959861745" lon="9.658911917810398"><ele>91.0</ele><time>2026-04-19T16:12:16Z</time></trkpt><trkpt lat="44.977368639755575" lon="9.658978954218663"><ele>90.5</ele><time>2026-04-19T16:12:17Z</time></trkpt><trkpt lat="44.977613026003844" lon="9.659044620964728"><ele>90.0</ele><time>2026-04-19T16:12:18Z</time></trkpt><trkpt lat="44.977856794581044" lon="9.659110677430458"><ele>90.0</ele><time>2026-04-19T16:12:19Z</time></trkpt><trkpt lat="44.97810093502321" lon="9.659177850768948"><ele>90.0</ele><time>2026-04-19T16:12:20Z</time></trkpt><trkpt lat="44.97834656611159" lon="9.659244888967612"><ele>91.0</ele><time>2026-04-19T16:12:21Z</time></trkpt><trkpt lat="44.978592735978374" lon="9.659310764242596"><ele>92.0</ele><time>2026-04-19T16:12:22Z</time></trkpt><trkpt lat="44.97883510060532" lon="9.65937379758846"><ele>92.0</ele><time>2026-04-19T16:12:23Z</time></trkpt><trkpt lat="44.97907517733681" lon="9.659437368634398"><ele>92.0</ele><time>2026-04-19T16:12:24Z</time></trkpt><trkpt lat="44.97931108404177" lon="9.659501208892173"><ele>90.5</ele><time>2026-04-19T16:12:25Z</time></trkpt><trkpt lat="44.9795432256134" lon="9.659563064650488"><ele>89.0</ele><time>2026-04-19T16:12:26Z</time></trkpt><trkpt lat="44.979777354384865" lon="9.65962261615487"><ele>89.0</ele><time>2026-04-19T16:12:27Z</time></trkpt><trkpt lat="44.980011591829005" lon="9.659676547358117"><ele>89.0</ele><time>2026-04-19T16:12:28Z</time></trkpt><trkpt lat="44.98022005091242" lon="9.659737657275546"><ele>89.0</ele><time>2026-04-19T16:12:29Z</time></trkpt><trkpt lat="44.9804280948138" lon="9.659791784326996"><ele>89.0</ele><time>2026-04-19T16:12:30Z</time></trkpt><trkpt lat="44.98063001851716" lon="9.659847149407636"><ele>89.0</ele><time>2026-04-19T16:12:31Z</time></trkpt><trkpt lat="44.980828162907486" lon="9.659899771048414"><ele>89.0</ele><time>2026-04-19T16:12:32Z</time></trkpt><trkpt lat="44.98102741889941" lon="9.659952068979521"><ele>89.0</ele><time>2026-04-19T16:12:33Z</time></trkpt><trkpt lat="44.98122368910002" lon="9.660011151171018"><ele>89.0</ele><time>2026-04-19T16:12:34Z</time></trkpt><trkpt lat="44.981422996655056" lon="9.66007439089996"><ele>89.0</ele><time>2026-04-19T16:12:35Z</time></trkpt><trkpt lat="44.981618086372194" lon="9.660126735643361"><ele>89.0</ele><time>2026-04-19T16:12:36Z</time></trkpt><trkpt lat="44.981816252016685" lon="9.660177509563152"><ele>89.0</ele><time>2026-04-19T16:12:37Z</time></trkpt><trkpt lat="44.982012645592185" lon="9.660227283451214"><ele>89.0</ele><time>2026-04-19T16:12:38Z</time></trkpt><trkpt lat="44.98222405349451" lon="9.660276529614205"><ele>89.0</ele><time>2026-04-19T16:12:39Z</time></trkpt><trkpt lat="44.98244264016157" lon="9.660335054082303"><ele>89.0</ele><time>2026-04-19T16:12:40Z</time></trkpt><trkpt lat="44.98267293591406" lon="9.660399802680855"><ele>89.0</ele><time>2026-04-19T16:12:41Z</time></trkpt><trkpt lat="44.9829105697216" lon="9.6604599195428"><ele>89.0</ele><time>2026-04-19T16:12:42Z</time></trkpt><trkpt lat="44.98315498781881" lon="9.660546977978077"><ele>88.0</ele><time>2026-04-19T16:12:43Z</time></trkpt><trkpt lat="44.983414679480695" lon="9.6605947514395"><ele>87.0</ele><time>2026-04-19T16:12:44Z</time></trkpt><trkpt lat="44.98367354331959" lon="9.660669137919074"><ele>87.0</ele><time>2026-04-19T16:12:45Z</time></trkpt><trkpt lat="44.983936635130455" lon="9.6607411928255"><ele>87.0</ele><time>2026-04-19T16:12:46Z</time></trkpt><trkpt lat="44.98420174961763" lon="9.660812851639738"><ele>87.5</ele><time>2026-04-19T16:12:47Z</time></trkpt><trkpt lat="44.984461927628416" lon="9.660885354419003"><ele>88.0</ele><time>2026-04-19T16:12:48Z</time></trkpt><trkpt lat="44.98471680352902" lon="9.660965255093402"><ele>88.0</ele><time>2026-04-19T16:12:49Z</time></trkpt><trkpt lat="44.984969365435575" lon="9.661039949722444"><ele>88.0</ele><time>2026-04-19T16:12:50Z</time></trkpt><trkpt lat="44.985223195680746" lon="9.66110664920407"><ele>87.5</ele><time>2026-04-19T16:12:51Z</time></trkpt><trkpt lat="44.985471249756316" lon="9.661173767846604"><ele>87.0</ele><time>2026-04-19T16:12:52Z</time></trkpt><trkpt lat="44.98571936457171" lon="9.661247483029998"><ele>87.0</ele><time>2026-04-19T16:12:53Z</time></trkpt><trkpt lat="44.98596335162254" lon="9.661339283965976"><ele>87.0</ele><time>2026-04-19T16:12:54Z</time></trkpt><trkpt lat="44.98619542030674" lon="9.661464924023539"><ele>87.0</ele><time>2026-04-19T16:12:55Z</time></trkpt><trkpt lat="44.98642991092026" lon="9.6615863058697"><ele>87.0</ele><time>2026-04-19T16:12:56Z</time></trkpt><trkpt lat="44.9866617982845" lon="9.661713165083885"><ele>86.5</ele><time>2026-04-19T16:12:57Z</time></trkpt><trkpt lat="44.98690077595471" lon="9.661819852849005"><ele>86.0</ele><time>2026-04-19T16:12:58Z</time></trkpt><trkpt lat="44.987131657102694" lon="9.661952473736628"><ele>85.5</ele><time>2026-04-19T16:12:59Z</time></trkpt><trkpt lat="44.98735806860334" lon="9.662084128766091"><ele>85.0</ele><time>2026-04-19T16:13:00Z</time></trkpt><trkpt lat="44.987585767657826" lon="9.662216128339029"><ele>85.0</ele><time>2026-04-19T16:13:01.001Z</time></trkpt><trkpt lat="44.987816153939285" lon="9.662345396285936"><ele>85.0</ele><time>2026-04-19T16:13:02.001Z</time></trkpt><trkpt lat="44.98804694655868" lon="9.662470385806992"><ele>85.0</ele><time>2026-04-19T16:13:03.001Z</time></trkpt><trkpt lat="44.988277775088676" lon="9.66259305591307"><ele>85.0</ele><time>2026-04-19T16:13:04.001Z</time></trkpt><trkpt lat="44.98850831286166" lon="9.662716669447446"><ele>84.5</ele><time>2026-04-19T16:13:05.001Z</time></trkpt><trkpt lat="44.98874016136793" lon="9.662836581460974"><ele>84.0</ele><time>2026-04-19T16:13:06.001Z</time></trkpt><trkpt lat="44.98897336629689" lon="9.662953081895697"><ele>83.0</ele><time>2026-04-19T16:13:07.001Z</time></trkpt><trkpt lat="44.989210584991284" lon="9.663059377370153"><ele>82.0</ele><time>2026-04-19T16:13:08.001Z</time></trkpt><trkpt lat="44.98945337400923" lon="9.663152643140393"><ele>82.0</ele><time>2026-04-19T16:13:09.001Z</time></trkpt><trkpt lat="44.98969757495079" lon="9.663238089466544"><ele>82.0</ele><time>2026-04-19T16:13:10.001Z</time></trkpt><trkpt lat="44.98994099144093" lon="9.663323504225787"><ele>82.0</ele><time>2026-04-19T16:13:11.001Z</time></trkpt><trkpt lat="44.990184468388804" lon="9.663410282309709"><ele>82.0</ele><time>2026-04-19T16:13:12.001Z</time></trkpt><trkpt lat="44.99042887093228" lon="9.663499339397358"><ele>82.0</ele><time>2026-04-19T16:13:13.001Z</time></trkpt><trkpt lat="44.9906724914961" lon="9.663588758546755"><ele>82.0</ele><time>2026-04-19T16:13:14.001Z</time></trkpt><trkpt lat="44.99091741123889" lon="9.663676095184652"><ele>83.5</ele><time>2026-04-19T16:13:15.001Z</time></trkpt><trkpt lat="44.991162892223585" lon="9.663760930225665"><ele>85.0</ele><time>2026-04-19T16:13:16.001Z</time></trkpt><trkpt lat="44.99140843301422" lon="9.663844344174931"><ele>85.0</ele><time>2026-04-19T16:13:17.001Z</time></trkpt><trkpt lat="44.99165483405287" lon="9.66392903619131"><ele>85.0</ele><time>2026-04-19T16:13:18.001Z</time></trkpt><trkpt lat="44.99189743444824" lon="9.66401898558663"><ele>85.0</ele><time>2026-04-19T16:13:19.001Z</time></trkpt><trkpt lat="44.99213854383522" lon="9.664111169280682"><ele>85.0</ele><time>2026-04-19T16:13:20.001Z</time></trkpt><trkpt lat="44.99237734439127" lon="9.664195786980219"><ele>85.0</ele><time>2026-04-19T16:13:21.001Z</time></trkpt><trkpt lat="44.99261429529023" lon="9.664285002666029"><ele>85.0</ele><time>2026-04-19T16:13:22.001Z</time></trkpt><trkpt lat="44.99285128129778" lon="9.664376779635324"><ele>85.5</ele><time>2026-04-19T16:13:23.001Z</time></trkpt><trkpt lat="44.99308520163888" lon="9.664470634006012"><ele>86.0</ele><time>2026-04-19T16:13:24.001Z</time></trkpt><trkpt lat="44.993317597642466" lon="9.66456463933026"><ele>85.5</ele><time>2026-04-19T16:13:25.001Z</time></trkpt><trkpt lat="44.99354666834831" lon="9.664659400803158"><ele>85.0</ele><time>2026-04-19T16:13:26.001Z</time></trkpt><trkpt lat="44.99377223104115" lon="9.664767366148373"><ele>85.0</ele><time>2026-04-19T16:13:27.001Z</time></trkpt><trkpt lat="44.99399782506536" lon="9.664871679188945"><ele>85.0</ele><time>2026-04-19T16:13:28.001Z</time></trkpt><trkpt lat="44.994219585710965" lon="9.664979943807804"><ele>85.0</ele><time>2026-04-19T16:13:29.001Z</time></trkpt><trkpt lat="44.99442304610371" lon="9.66507453136441"><ele>85.0</ele><time>2026-04-19T16:13:30.001Z</time></trkpt><trkpt lat="44.994614531729766" lon="9.6651603121182"><ele>85.0</ele><time>2026-04-19T16:13:31.001Z</time></trkpt><trkpt lat="44.994783886291124" lon="9.66524171410367"><ele>84.66666666666666</ele><time>2026-04-19T16:13:32.001Z</time></trkpt><trkpt lat="44.99493682421813" lon="9.665306930435564"><ele>84.33333333333333</ele><time>2026-04-19T16:13:33.001Z</time></trkpt><trkpt lat="44.99508972669352" lon="9.665372003467967"><ele>84.0</ele><time>2026-04-19T16:13:34.001Z</time></trkpt><trkpt lat="44.99523513397458" lon="9.665436048042066"><ele>84.0</ele><time>2026-04-19T16:13:35.001Z</time></trkpt><trkpt lat="44.99537281655074" lon="9.665493893874874"><ele>84.0</ele><time>2026-04-19T16:13:36.001Z</time></trkpt><trkpt lat="44.99550202767739" lon="9.665550721212993"><ele>84.0</ele><time>2026-04-19T16:13:37.001Z</time></trkpt><trkpt lat="44.995627804334234" lon="9.665602355608133"><ele>84.0</ele><time>2026-04-19T16:13:38.001Z</time></trkpt><trkpt lat="44.99575022965885" lon="9.665651932376615"><ele>84.25</ele><time>2026-04-19T16:13:39.001Z</time></trkpt><trkpt lat="44.995867157317775" lon="9.66569768980223"><ele>84.5</ele><time>2026-04-19T16:13:40.001Z</time></trkpt><trkpt lat="44.99598077510239" lon="9.665737911305397"><ele>84.75</ele><time>2026-04-19T16:13:41.001Z</time></trkpt><trkpt lat="44.99609693407047" lon="9.66578394653142"><ele>85.0</ele><time>2026-04-19T16:13:42.001Z</time></trkpt><trkpt lat="44.9962108863403" lon="9.66583511336125"><ele>85.0</ele><time>2026-04-19T16:13:43.001Z</time></trkpt><trkpt lat="44.9963260742522" lon="9.665891441229535"><ele>85.0</ele><time>2026-04-19T16:13:44Z</time></trkpt><trkpt lat="44.99644010790067" lon="9.665954113929207"><ele>85.0</ele><time>2026-04-19T16:13:45Z</time></trkpt><trkpt lat="44.996555372191395" lon="9.666018587090862"><ele>85.0</ele><time>2026-04-19T16:13:46Z</time></trkpt><trkpt lat="44.99667435836403" lon="9.666083095910976"><ele>84.5</ele><time>2026-04-19T16:13:47Z</time></trkpt><trkpt lat="44.996793857048324" lon="9.666148889071497"><ele>84.0</ele><time>2026-04-19T16:13:48Z</time></trkpt><trkpt lat="44.996915210655324" lon="9.666214018830324"><ele>83.5</ele><time>2026-04-19T16:13:49Z</time></trkpt><trkpt lat="44.997039823135054" lon="9.666282932531209"><ele>83.0</ele><time>2026-04-19T16:13:50Z</time></trkpt><trkpt lat="44.99716472627021" lon="9.666354225409263"><ele>83.0</ele><time>2026-04-19T16:13:51Z</time></trkpt><trkpt lat="44.997293722864434" lon="9.666428322176005"><ele>83.0</ele><time>2026-04-19T16:13:52Z</time></trkpt><trkpt lat="44.997423662538594" lon="9.666503231073888"><ele>83.0</ele><time>2026-04-19T16:13:53Z</time></trkpt><trkpt lat="44.99755748496395" lon="9.666580915186351"><ele>83.0</ele><time>2026-04-19T16:13:54Z</time></trkpt><trkpt lat="44.99769425663293" lon="9.666660044727141"><ele>82.33333333333334</ele><time>2026-04-19T16:13:55Z</time></trkpt><trkpt lat="44.99783458714408" lon="9.666744516319506"><ele>81.66666666666667</ele><time>2026-04-19T16:13:56Z</time></trkpt><trkpt lat="44.99797748845665" lon="9.6668266113469"><ele>81.0</ele><time>2026-04-19T16:13:57Z</time></trkpt><trkpt lat="44.99812434118305" lon="9.666911187238927"><ele>81.33333333333333</ele><time>2026-04-19T16:13:58Z</time></trkpt><trkpt lat="44.99827297598463" lon="9.666998434194587"><ele>81.66666666666666</ele><time>2026-04-19T16:13:59Z</time></trkpt><trkpt lat="44.99843060919414" lon="9.667083673038837"><ele>82.0</ele><time>2026-04-19T16:14:00Z</time></trkpt><trkpt lat="44.99859593284571" lon="9.667166237219664"><ele>81.33333333333333</ele><time>2026-04-19T16:14:01Z</time></trkpt><trkpt lat="44.99876303549184" lon="9.667246213323605"><ele>80.66666666666667</ele><time>2026-04-19T16:14:02Z</time></trkpt><trkpt lat="44.99891786489912" lon="9.667322871823854"><ele>80.0</ele><time>2026-04-19T16:14:03Z</time></trkpt><trkpt lat="44.99906386986641" lon="9.667389150979384"><ele>79.75</ele><time>2026-04-19T16:14:04Z</time></trkpt><trkpt lat="44.99919816067786" lon="9.66745317576719"><ele>79.5</ele><time>2026-04-19T16:14:05Z</time></trkpt><trkpt lat="44.999330622438805" lon="9.667519534315662"><ele>79.25</ele><time>2026-04-19T16:14:06Z</time></trkpt><trkpt lat="44.999458539994926" lon="9.667582773977557"><ele>79.0</ele><time>2026-04-19T16:14:07Z</time></trkpt><trkpt lat="44.99958001454573" lon="9.667646114550486"><ele>79.0</ele><time>2026-04-19T16:14:08Z</time></trkpt><trkpt lat="44.99969553131986" lon="9.66770409951168"><ele>79.0</ele><time>2026-04-19T16:14:09Z</time></trkpt><trkpt lat="44.99980813585554" lon="9.667758222903217"><ele>79.0</ele><time>2026-04-19T16:14:10Z</time></trkpt><trkpt lat="44.99991219486399" lon="9.66781280575195"><ele>79.0</ele><time>2026-04-19T16:14:11Z</time></trkpt><trkpt lat="45.00001816102672" lon="9.667865097508157"><ele>79.25</ele><time>2026-04-19T16:14:12Z</time></trkpt><trkpt lat="45.0001266109859" lon="9.667919452464622"><ele>79.5</ele><time>2026-04-19T16:14:13Z</time></trkpt><trkpt lat="45.00023698005944" lon="9.667974675986226"><ele>79.75</ele><time>2026-04-19T16:14:14Z</time></trkpt><trkpt lat="45.00036091694962" lon="9.668034372239743"><ele>80.0</ele><time>2026-04-19T16:14:15Z</time></trkpt><trkpt lat="45.00049618424157" lon="9.668096678163277"><ele>80.0</ele><time>2026-04-19T16:14:16Z</time></trkpt><trkpt lat="45.000638762282485" lon="9.66816588438638"><ele>80.0</ele><time>2026-04-19T16:14:17Z</time></trkpt><trkpt lat="45.00079010926562" lon="9.668237458062206"><ele>80.0</ele><time>2026-04-19T16:14:18Z</time></trkpt><trkpt lat="45.00094853091087" lon="9.668310507942556"><ele>80.0</ele><time>2026-04-19T16:14:19Z</time></trkpt><trkpt lat="45.00111141881072" lon="9.668387192670234"><ele>80.0</ele><time>2026-04-19T16:14:20Z</time></trkpt><trkpt lat="45.00128043679735" lon="9.668467244131444"><ele>80.0</ele><time>2026-04-19T16:14:21Z</time></trkpt><trkpt lat="45.00145393985237" lon="9.668547070197475"><ele>80.33333333333334</ele><time>2026-04-19T16:14:22Z</time></trkpt><trkpt lat="45.00162438423508" lon="9.668624483517743"><ele>80.66666666666667</ele><time>2026-04-19T16:14:23Z</time></trkpt><trkpt lat="45.001788291341484" lon="9.668703908608684"><ele>81.0</ele><time>2026-04-19T16:14:24Z</time></trkpt><trkpt lat="45.00195901054285" lon="9.66878342466994"><ele>81.0</ele><time>2026-04-19T16:14:25Z</time></trkpt><trkpt lat="45.002134732903954" lon="9.668866831329378"><ele>81.0</ele><time>2026-04-19T16:14:26.001Z</time></trkpt><trkpt lat="45.0023167770578" lon="9.668953716026218"><ele>81.0</ele><time>2026-04-19T16:14:27.001Z</time></trkpt><trkpt lat="45.00249895748383" lon="9.66904489833446"><ele>80.66666666666667</ele><time>2026-04-19T16:14:28.001Z</time></trkpt><trkpt lat="45.002676015404894" lon="9.669134544580817"><ele>80.33333333333334</ele><time>2026-04-19T16:14:29.001Z</time></trkpt><trkpt lat="45.00285913219232" lon="9.669228194968573"><ele>80.0</ele><time>2026-04-19T16:14:30.001Z</time></trkpt><trkpt lat="45.003043549708735" lon="9.669314411980332"><ele>80.0</ele><time>2026-04-19T16:14:31.001Z</time></trkpt><trkpt lat="45.00322387173292" lon="9.669399282938288"><ele>80.0</ele><time>2026-04-19T16:14:32.001Z</time></trkpt><trkpt lat="45.00339909700831" lon="9.669480723858632"><ele>80.0</ele><time>2026-04-19T16:14:33.001Z</time></trkpt><trkpt lat="45.00356946907337" lon="9.66955998675198"><ele>79.66666666666667</ele><time>2026-04-19T16:14:34.001Z</time></trkpt><trkpt lat="45.003738199656844" lon="9.66963597872256"><ele>79.33333333333333</ele><time>2026-04-19T16:14:35.001Z</time></trkpt><trkpt lat="45.00390438434112" lon="9.669715730643121"><ele>79.0</ele><time>2026-04-19T16:14:36.001Z</time></trkpt><trkpt lat="45.00406773392925" lon="9.669799864843576"><ele>79.0</ele><time>2026-04-19T16:14:37.001Z</time></trkpt><trkpt lat="45.004230195048784" lon="9.669885674672898"><ele>79.0</ele><time>2026-04-19T16:14:38.001Z</time></trkpt><trkpt lat="45.00439467013522" lon="9.669968894824672"><ele>79.0</ele><time>2026-04-19T16:14:39.001Z</time></trkpt><trkpt lat="45.00455814248477" lon="9.670048665949297"><ele>79.0</ele><time>2026-04-19T16:14:40.001Z</time></trkpt><trkpt lat="45.00472149564992" lon="9.67012955952587"><ele>79.0</ele><time>2026-04-19T16:14:41.001Z</time></trkpt><trkpt lat="45.00488805357317" lon="9.67021295873149"><ele>79.0</ele><time>2026-04-19T16:14:42.001Z</time></trkpt><trkpt lat="45.00505787788422" lon="9.670294012940587"><ele>78.33333333333333</ele><time>2026-04-19T16:14:43.001Z</time></trkpt><trkpt lat="45.00523158074957" lon="9.670378434129427"><ele>77.66666666666667</ele><time>2026-04-19T16:14:44.001Z</time></trkpt><trkpt lat="45.00540545104867" lon="9.670462789677558"><ele>77.0</ele><time>2026-04-19T16:14:45.001Z</time></trkpt><trkpt lat="45.0055777778149" lon="9.670542562139405"><ele>77.0</ele><time>2026-04-19T16:14:46.001Z</time></trkpt><trkpt lat="45.0057601087877" lon="9.670622682287458"><ele>77.0</ele><time>2026-04-19T16:14:47.001Z</time></trkpt><trkpt lat="45.00596088339183" lon="9.670709424819181"><ele>77.0</ele><time>2026-04-19T16:14:48.001Z</time></trkpt><trkpt lat="45.006181194912266" lon="9.670804888467327"><ele>77.0</ele><time>2026-04-19T16:14:49.001Z</time></trkpt><trkpt lat="45.006431899892966" lon="9.670914264804392"><ele>77.0</ele><time>2026-04-19T16:14:50.001Z</time></trkpt><trkpt lat="45.006677049849046" lon="9.671029633888343"><ele>77.0</ele><time>2026-04-19T16:14:51.001Z</time></trkpt><trkpt lat="45.00692154240664" lon="9.67113994972499"><ele>77.0</ele><time>2026-04-19T16:14:52.001Z</time></trkpt><trkpt lat="45.00718910203191" lon="9.67124807099151"><ele>77.0</ele><time>2026-04-19T16:14:53.001Z</time></trkpt><trkpt lat="45.00746596089119" lon="9.671371704480707"><ele>77.0</ele><time>2026-04-19T16:14:54.001Z</time></trkpt><trkpt lat="45.00771035149008" lon="9.67149337824102"><ele>77.0</ele><time>2026-04-19T16:14:55.001Z</time></trkpt><trkpt lat="45.00792973942121" lon="9.671601149597105"><ele>77.0</ele><time>2026-04-19T16:14:56.001Z</time></trkpt><trkpt lat="45.00811500663078" lon="9.671687885259388"><ele>77.0</ele><time>2026-04-19T16:14:57.001Z</time></trkpt><trkpt lat="45.00825924125185" lon="9.671754817462343"><ele>77.0</ele><time>2026-04-19T16:14:58.001Z</time></trkpt><trkpt lat="45.00837450291414" lon="9.671814407287302"><ele>77.0</ele><time>2026-04-19T16:14:59.001Z</time></trkpt><trkpt lat="45.00847607154836" lon="9.67187486922575"><ele>77.0</ele><time>2026-04-19T16:15:00.001Z</time></trkpt><trkpt lat="45.00857806473329" lon="9.671932752491184"><ele>77.0</ele><time>2026-04-19T16:15:01.001Z</time></trkpt><trkpt lat="45.008689522615455" lon="9.671989020437895"><ele>77.0</ele><time>2026-04-19T16:15:02.001Z</time></trkpt><trkpt lat="45.00880665124494" lon="9.672046700798955"><ele>77.0</ele><time>2026-04-19T16:15:03.001Z</time></trkpt><trkpt lat="45.00893025638634" lon="9.672108368262972"><ele>77.0</ele><time>2026-04-19T16:15:04.001Z</time></trkpt><trkpt lat="45.00906377950069" lon="9.672171201591532"><ele>77.0</ele><time>2026-04-19T16:15:05.001Z</time></trkpt><trkpt lat="45.00919758482251" lon="9.672236225075396"><ele>76.25</ele><time>2026-04-19T16:15:06.001Z</time></trkpt><trkpt lat="45.009317485217515" lon="9.672296520300073"><ele>75.5</ele><time>2026-04-19T16:15:07.001Z</time></trkpt><trkpt lat="45.00943244328538" lon="9.672356621833087"><ele>74.75</ele><time>2026-04-19T16:15:08.001Z</time></trkpt><trkpt lat="45.00954582965751" lon="9.672413286107057"><ele>74.0</ele><time>2026-04-19T16:15:09.001Z</time></trkpt><trkpt lat="45.00965211291981" lon="9.672465617952382"><ele>74.0</ele><time>2026-04-19T16:15:10.001Z</time></trkpt><trkpt lat="45.00975253791858" lon="9.67251825557262"><ele>74.0</ele><time>2026-04-19T16:15:11.001Z</time></trkpt><trkpt lat="45.00984113938539" lon="9.672568480354874"><ele>74.0</ele><time>2026-04-19T16:15:12.001Z</time></trkpt><trkpt lat="45.009921433187564" lon="9.672619893910406"><ele>74.0</ele><time>2026-04-19T16:15:13.001Z</time></trkpt><trkpt lat="45.00999553916284" lon="9.67267179420406"><ele>74.0</ele><time>2026-04-19T16:15:14.001Z</time></trkpt><trkpt lat="45.010067182752714" lon="9.672729888504165"><ele>73.83333333333334</ele><time>2026-04-19T16:15:15.001Z</time></trkpt><trkpt lat="45.01013373525545" lon="9.672788929707647"><ele>73.66666666666667</ele><time>2026-04-19T16:15:16.001Z</time></trkpt><trkpt lat="45.01019430851682" lon="9.672852358936126"><ele>73.5</ele><time>2026-04-19T16:15:17.001Z</time></trkpt><trkpt lat="45.0102644288059" lon="9.672923265870738"><ele>73.33333333333333</ele><time>2026-04-19T16:15:18.001Z</time></trkpt><trkpt lat="45.010314849337576" lon="9.67300406603393"><ele>73.16666666666666</ele><time>2026-04-19T16:15:19.001Z</time></trkpt><trkpt lat="45.01035605456403" lon="9.673104628698662"><ele>73.0</ele><time>2026-04-19T16:15:20.001Z</time></trkpt><trkpt lat="45.010395762369434" lon="9.673186271672742"><ele>73.0</ele><time>2026-04-19T16:15:21.001Z</time></trkpt><trkpt lat="45.0105265729173" lon="9.67319490191518"><ele>73.0</ele><time>2026-04-19T16:15:23.001Z</time></trkpt><trkpt lat="45.01059313961631" lon="9.673126614098548"><ele>73.0</ele><time>2026-04-19T16:15:24.001Z</time></trkpt><trkpt lat="45.01066640067916" lon="9.673067123938772"><ele>73.0</ele><time>2026-04-19T16:15:25.001Z</time></trkpt><trkpt lat="45.01074577200047" lon="9.673040484286885"><ele>73.0</ele><time>2026-04-19T16:15:26.001Z</time></trkpt><trkpt lat="45.0108275905954" lon="9.673051034481487"><ele>73.75</ele><time>2026-04-19T16:15:27.001Z</time></trkpt><trkpt lat="45.01090308703672" lon="9.67312781502153"><ele>74.5</ele><time>2026-04-19T16:15:28.001Z</time></trkpt><trkpt lat="45.011000677619" lon="9.67317326774436"><ele>75.25</ele><time>2026-04-19T16:15:29.001Z</time></trkpt><trkpt lat="45.01112520134904" lon="9.673231264553568"><ele>76.0</ele><time>2026-04-19T16:15:30.001Z</time></trkpt><trkpt lat="45.01128109336762" lon="9.673303871104585"><ele>76.0</ele><time>2026-04-19T16:15:31.001Z</time></trkpt><trkpt lat="45.01144264786772" lon="9.673379080745027"><ele>76.0</ele><time>2026-04-19T16:15:32.001Z</time></trkpt><trkpt lat="45.01162367194996" lon="9.673454048015373"><ele>76.0</ele><time>2026-04-19T16:15:33.001Z</time></trkpt><trkpt lat="45.011816642932835" lon="9.673553476218325"><ele>75.33333333333333</ele><time>2026-04-19T16:15:34.001Z</time></trkpt><trkpt lat="45.01201286702659" lon="9.673667934516496"><ele>74.66666666666667</ele><time>2026-04-19T16:15:35.001Z</time></trkpt><trkpt lat="45.01221253275595" lon="9.673776405380266"><ele>74.0</ele><time>2026-04-19T16:15:36.001Z</time></trkpt><trkpt lat="45.012428240596556" lon="9.673895609371668"><ele>73.66666666666667</ele><time>2026-04-19T16:15:37.001Z</time></trkpt><trkpt lat="45.01263883646405" lon="9.673995930220535"><ele>73.33333333333333</ele><time>2026-04-19T16:15:38.001Z</time></trkpt><trkpt lat="45.012841035885856" lon="9.674089536351916"><ele>73.0</ele><time>2026-04-19T16:15:39.001Z</time></trkpt><trkpt lat="45.01303204550551" lon="9.674181249318364"><ele>73.0</ele><time>2026-04-19T16:15:40.001Z</time></trkpt><trkpt lat="45.013218740214185" lon="9.674282474525912"><ele>73.0</ele><time>2026-04-19T16:15:41.001Z</time></trkpt><trkpt lat="45.01339986721004" lon="9.67437038420967"><ele>73.0</ele><time>2026-04-19T16:15:42.001Z</time></trkpt><trkpt lat="45.01357607260639" lon="9.67445175853626"><ele>73.33333333333333</ele><time>2026-04-19T16:15:43.001Z</time></trkpt><trkpt lat="45.01374686667312" lon="9.674528594084023"><ele>73.66666666666667</ele><time>2026-04-19T16:15:44.001Z</time></trkpt><trkpt lat="45.01391879115334" lon="9.674607302494016"><ele>74.0</ele><time>2026-04-19T16:15:45.001Z</time></trkpt><trkpt lat="45.0140988780246" lon="9.674688213131438"><ele>73.66666666666667</ele><time>2026-04-19T16:15:46.001Z</time></trkpt><trkpt lat="45.01428799625718" lon="9.674768264372084"><ele>73.33333333333333</ele><time>2026-04-19T16:15:47.001Z</time></trkpt><trkpt lat="45.01448347549339" lon="9.674853346509975"><ele>73.0</ele><time>2026-04-19T16:15:48.001Z</time></trkpt><trkpt lat="45.01468344571842" lon="9.67494185515272"><ele>73.0</ele><time>2026-04-19T16:15:49.001Z</time></trkpt><trkpt lat="45.01488559199363" lon="9.67503663297863"><ele>73.0</ele><time>2026-04-19T16:15:50.001Z</time></trkpt><trkpt lat="45.01509720372284" lon="9.67513585621193"><ele>73.0</ele><time>2026-04-19T16:15:51.001Z</time></trkpt><trkpt lat="45.01531235341144" lon="9.67523678317352"><ele>71.5</ele><time>2026-04-19T16:15:52.001Z</time></trkpt><trkpt lat="45.015527260058356" lon="9.675339589032438"><ele>70.0</ele><time>2026-04-19T16:15:53.001Z</time></trkpt><trkpt lat="45.015744648452774" lon="9.675439988887018"><ele>72.0</ele><time>2026-04-19T16:15:54.001Z</time></trkpt><trkpt lat="45.01597315251372" lon="9.675544860741798"><ele>74.0</ele><time>2026-04-19T16:15:55.001Z</time></trkpt><trkpt lat="45.01620075727833" lon="9.67565593208785"><ele>74.0</ele><time>2026-04-19T16:15:56.001Z</time></trkpt><trkpt lat="45.016419781355026" lon="9.675771012717236"><ele>74.0</ele><time>2026-04-19T16:15:57.001Z</time></trkpt><trkpt lat="45.01662713173235" lon="9.675875680050948"><ele>73.66666666666667</ele><time>2026-04-19T16:15:58.001Z</time></trkpt><trkpt lat="45.01682757811653" lon="9.675968078530754"><ele>73.33333333333333</ele><time>2026-04-19T16:15:59.001Z</time></trkpt><trkpt lat="45.01702036032032" lon="9.676053550407794"><ele>73.0</ele><time>2026-04-19T16:16:00.001Z</time></trkpt><trkpt lat="45.01720403564468" lon="9.67614064283503"><ele>73.0</ele><time>2026-04-19T16:16:01.001Z</time></trkpt><trkpt lat="45.01738392780646" lon="9.676230976085854"><ele>73.0</ele><time>2026-04-19T16:16:02.001Z</time></trkpt><trkpt lat="45.01755922392964" lon="9.67632471094697"><ele>73.0</ele><time>2026-04-19T16:16:03.001Z</time></trkpt><trkpt lat="45.017732750919606" lon="9.67641766180829"><ele>73.0</ele><time>2026-04-19T16:16:04.001Z</time></trkpt><trkpt lat="45.01790877515482" lon="9.676514679274062"><ele>73.0</ele><time>2026-04-19T16:16:05.001Z</time></trkpt><trkpt lat="45.018095688331435" lon="9.676613811261326"><ele>73.0</ele><time>2026-04-19T16:16:06.001Z</time></trkpt><trkpt lat="45.01828831418121" lon="9.676716963641615"><ele>73.0</ele><time>2026-04-19T16:16:07.001Z</time></trkpt><trkpt lat="45.01848934346495" lon="9.676827696588623"><ele>73.0</ele><time>2026-04-19T16:16:08.001Z</time></trkpt><trkpt lat="45.018684508342766" lon="9.676944974620207"><ele>73.0</ele><time>2026-04-19T16:16:09.001Z</time></trkpt><trkpt lat="45.01886271171272" lon="9.677061134140796"><ele>73.0</ele><time>2026-04-19T16:16:10.001Z</time></trkpt><trkpt lat="45.019030005527625" lon="9.677167636487871"><ele>73.0</ele><time>2026-04-19T16:16:11.001Z</time></trkpt><trkpt lat="45.01919061856035" lon="9.677252674846804"><ele>73.0</ele><time>2026-04-19T16:16:12.001Z</time></trkpt><trkpt lat="45.01934289243374" lon="9.677329608225264"><ele>73.0</ele><time>2026-04-19T16:16:13.001Z</time></trkpt><trkpt lat="45.0194846642121" lon="9.677403258622824"><ele>73.0</ele><time>2026-04-19T16:16:14.001Z</time></trkpt><trkpt lat="45.01961978380915" lon="9.67747513176161"><ele>73.0</ele><time>2026-04-19T16:16:15.001Z</time></trkpt><trkpt lat="45.019757441830485" lon="9.677553527348342"><ele>73.0</ele><time>2026-04-19T16:16:16.001Z</time></trkpt><trkpt lat="45.01989055230153" lon="9.677630943536867"><ele>72.75</ele><time>2026-04-19T16:16:17.001Z</time></trkpt><trkpt lat="45.02002158638467" lon="9.677706343124557"><ele>72.5</ele><time>2026-04-19T16:16:18.001Z</time></trkpt><trkpt lat="45.02015091648545" lon="9.677779413223842"><ele>72.25</ele><time>2026-04-19T16:16:19.001Z</time></trkpt><trkpt lat="45.02027699259254" lon="9.67784579950232"><ele>72.0</ele><time>2026-04-19T16:16:20.001Z</time></trkpt><trkpt lat="45.020406854825204" lon="9.677913838355105"><ele>72.0</ele><time>2026-04-19T16:16:21.001Z</time></trkpt><trkpt lat="45.020534182035874" lon="9.677981660411868"><ele>72.0</ele><time>2026-04-19T16:16:22.001Z</time></trkpt><trkpt lat="45.0206563365202" lon="9.67804672034356"><ele>72.0</ele><time>2026-04-19T16:16:23.001Z</time></trkpt><trkpt lat="45.02077214723383" lon="9.678108190930462"><ele>72.0</ele><time>2026-04-19T16:16:24.001Z</time></trkpt><trkpt lat="45.020878719002695" lon="9.678164627192173"><ele>72.0</ele><time>2026-04-19T16:16:25.001Z</time></trkpt><trkpt lat="45.02098676177533" lon="9.678221868282506"><ele>72.0</ele><time>2026-04-19T16:16:26.001Z</time></trkpt><trkpt lat="45.02108377015236" lon="9.6782777405228"><ele>72.0</ele><time>2026-04-19T16:16:27.001Z</time></trkpt><trkpt lat="45.021160996406635" lon="9.678322844235037"><ele>72.0</ele><time>2026-04-19T16:16:28.001Z</time></trkpt><trkpt lat="45.021227039607766" lon="9.67836566211838"><ele>72.0</ele><time>2026-04-19T16:16:29.001Z</time></trkpt><trkpt lat="45.02128556657333" lon="9.678408912477607"><ele>72.0</ele><time>2026-04-19T16:16:30.001Z</time></trkpt><trkpt lat="45.02134332210116" lon="9.678455095737238"><ele>72.0</ele><time>2026-04-19T16:16:31.001Z</time></trkpt><trkpt lat="45.02140601904003" lon="9.678502104888002"><ele>72.0</ele><time>2026-04-19T16:16:32.001Z</time></trkpt><trkpt lat="45.02149510689987" lon="9.678532374589071"><ele>72.0</ele><time>2026-04-19T16:16:33.001Z</time></trkpt><trkpt lat="45.02159464376526" lon="9.678566143793168"><ele>72.0</ele><time>2026-04-19T16:16:34.001Z</time></trkpt><trkpt lat="45.02169574538532" lon="9.678615454216853"><ele>72.0</ele><time>2026-04-19T16:16:35.001Z</time></trkpt><trkpt lat="45.02180720753768" lon="9.678674681154542"><ele>71.8</ele><time>2026-04-19T16:16:36.001Z</time></trkpt><trkpt lat="45.021911364847654" lon="9.678734381159245"><ele>71.6</ele><time>2026-04-19T16:16:37.001Z</time></trkpt><trkpt lat="45.02201041076042" lon="9.678787642408777"><ele>71.39999999999999</ele><time>2026-04-19T16:16:38.001Z</time></trkpt><trkpt lat="45.02210491244941" lon="9.678837174721586"><ele>71.2</ele><time>2026-04-19T16:16:39.001Z</time></trkpt><trkpt lat="45.022207017843165" lon="9.678885838360848"><ele>71.0</ele><time>2026-04-19T16:16:40.001Z</time></trkpt><trkpt lat="45.02231833726993" lon="9.678931695850755"><ele>71.0</ele><time>2026-04-19T16:16:41.001Z</time></trkpt><trkpt lat="45.02242977571399" lon="9.678966943308556"><ele>71.0</ele><time>2026-04-19T16:16:42.001Z</time></trkpt><trkpt lat="45.02254355231911" lon="9.678998814580556"><ele>71.0</ele><time>2026-04-19T16:16:43.001Z</time></trkpt><trkpt lat="45.02266061847597" lon="9.67903074199086"><ele>71.0</ele><time>2026-04-19T16:16:44.001Z</time></trkpt><trkpt lat="45.02277451544959" lon="9.679064486399621"><ele>71.0</ele><time>2026-04-19T16:16:45.001Z</time></trkpt><trkpt lat="45.02288834829202" lon="9.679094828829633"><ele>71.0</ele><time>2026-04-19T16:16:46.001Z</time></trkpt><trkpt lat="45.022997704702675" lon="9.679129083423783"><ele>71.0</ele><time>2026-04-19T16:16:47.001Z</time></trkpt><trkpt lat="45.023106402526864" lon="9.679155621702538"><ele>71.0</ele><time>2026-04-19T16:16:48.001Z</time></trkpt><trkpt lat="45.02321596483328" lon="9.679187154107659"><ele>70.5</ele><time>2026-04-19T16:16:49.001Z</time></trkpt><trkpt lat="45.023329201509945" lon="9.679226633968783"><ele>70.0</ele><time>2026-04-19T16:16:50.001Z</time></trkpt><trkpt lat="45.023448216110985" lon="9.679269865550733"><ele>69.5</ele><time>2026-04-19T16:16:51.001Z</time></trkpt><trkpt lat="45.02357491868361" lon="9.679325234454472"><ele>69.0</ele><time>2026-04-19T16:16:52.001Z</time></trkpt><trkpt lat="45.023693237253404" lon="9.679389688447639"><ele>69.0</ele><time>2026-04-19T16:16:53.001Z</time></trkpt><trkpt lat="45.023802993503566" lon="9.67945238172938"><ele>69.0</ele><time>2026-04-19T16:16:54.001Z</time></trkpt><trkpt lat="45.023910111289375" lon="9.67951650469801"><ele>69.0</ele><time>2026-04-19T16:16:55.001Z</time></trkpt><trkpt lat="45.02402598522476" lon="9.679579840177283"><ele>69.0</ele><time>2026-04-19T16:16:56.001Z</time></trkpt><trkpt lat="45.02414930368461" lon="9.679646303615304"><ele>68.75</ele><time>2026-04-19T16:16:57.001Z</time></trkpt><trkpt lat="45.024277231705575" lon="9.67970906672071"><ele>68.5</ele><time>2026-04-19T16:16:58.001Z</time></trkpt><trkpt lat="45.02441711418413" lon="9.679772523847067"><ele>68.25</ele><time>2026-04-19T16:16:59.001Z</time></trkpt><trkpt lat="45.02456196888092" lon="9.679837261846867"><ele>68.0</ele><time>2026-04-19T16:17:00.001Z</time></trkpt><trkpt lat="45.02470346454154" lon="9.679901500201519"><ele>68.0</ele><time>2026-04-19T16:17:01.001Z</time></trkpt><trkpt lat="45.024842328224665" lon="9.679965274533265"><ele>68.0</ele><time>2026-04-19T16:17:02.001Z</time></trkpt><trkpt lat="45.02497596965088" lon="9.680030058463709"><ele>68.0</ele><time>2026-04-19T16:17:03.001Z</time></trkpt><trkpt lat="45.025105359383566" lon="9.680093526835298"><ele>68.0</ele><time>2026-04-19T16:17:04.001Z</time></trkpt><trkpt lat="45.02523205442797" lon="9.68015245158732"><ele>68.25</ele><time>2026-04-19T16:17:05.001Z</time></trkpt><trkpt lat="45.02535942706927" lon="9.680213221252856"><ele>68.5</ele><time>2026-04-19T16:17:06.001Z</time></trkpt><trkpt lat="45.025486706931105" lon="9.680277122363227"><ele>68.75</ele><time>2026-04-19T16:17:07.001Z</time></trkpt><trkpt lat="45.02561967904028" lon="9.680342189597974"><ele>69.0</ele><time>2026-04-19T16:17:08.001Z</time></trkpt><trkpt lat="45.02575691147495" lon="9.680407571596625"><ele>68.33333333333333</ele><time>2026-04-19T16:17:09.001Z</time></trkpt><trkpt lat="45.02589754803528" lon="9.680472990122283"><ele>67.66666666666666</ele><time>2026-04-19T16:17:10.001Z</time></trkpt><trkpt lat="45.026041969194154" lon="9.680542042080882"><ele>67.0</ele><time>2026-04-19T16:17:11.001Z</time></trkpt><trkpt lat="45.02618751113086" lon="9.680611202650159"><ele>67.0</ele><time>2026-04-19T16:17:12.001Z</time></trkpt><trkpt lat="45.02633204942448" lon="9.680679960063568"><ele>67.0</ele><time>2026-04-19T16:17:13.001Z</time></trkpt><trkpt lat="45.02646526977058" lon="9.680746463302771"><ele>67.0</ele><time>2026-04-19T16:17:14.001Z</time></trkpt><trkpt lat="45.0265876291611" lon="9.680815051862139"><ele>67.0</ele><time>2026-04-19T16:17:15.001Z</time></trkpt><trkpt lat="45.026698901721346" lon="9.680897564980674"><ele>66.75</ele><time>2026-04-19T16:17:16.001Z</time></trkpt><trkpt lat="45.02679336947275" lon="9.680992940997204"><ele>66.5</ele><time>2026-04-19T16:17:17.001Z</time></trkpt><trkpt lat="45.0268850291849" lon="9.68109970458747"><ele>66.25</ele><time>2026-04-19T16:17:18.001Z</time></trkpt><trkpt lat="45.02697179163148" lon="9.681211444144358"><ele>66.0</ele><time>2026-04-19T16:17:19.001Z</time></trkpt><trkpt lat="45.027049298456" lon="9.681325675664558"><ele>65.8</ele><time>2026-04-19T16:17:20.001Z</time></trkpt><trkpt lat="45.02711022088896" lon="9.681433930822742"><ele>65.6</ele><time>2026-04-19T16:17:21.001Z</time></trkpt><trkpt lat="45.02716625987654" lon="9.681545789094681"><ele>65.4</ele><time>2026-04-19T16:17:22.001Z</time></trkpt><trkpt lat="45.02723099278114" lon="9.681673266919775"><ele>65.2</ele><time>2026-04-19T16:17:23.001Z</time></trkpt><trkpt lat="45.02730193379511" lon="9.681820776730035"><ele>65.0</ele><time>2026-04-19T16:17:24.001Z</time></trkpt><trkpt lat="45.027370281507885" lon="9.68196387991116"><ele>64.5</ele><time>2026-04-19T16:17:25.001Z</time></trkpt><trkpt lat="45.0274307647828" lon="9.68208693164671"><ele>64.0</ele><time>2026-04-19T16:17:26.001Z</time></trkpt><trkpt lat="45.02747739149375" lon="9.68218548048915"><ele>63.5</ele><time>2026-04-19T16:17:27.001Z</time></trkpt><trkpt lat="45.02752874791459" lon="9.682332227571008"><ele>63.0</ele><time>2026-04-19T16:17:29.001Z</time></trkpt><trkpt lat="45.027550765397585" lon="9.682544567475558"><ele>63.0</ele><time>2026-04-19T16:17:31.001Z</time></trkpt><trkpt lat="45.02755168118519" lon="9.682732869180466"><ele>63.0</ele><time>2026-04-19T16:17:32.001Z</time></trkpt><trkpt lat="45.02755253412369" lon="9.682921452572753"><ele>63.0</ele><time>2026-04-19T16:17:33.001Z</time></trkpt><trkpt lat="45.02757053989161" lon="9.683102562960077"><ele>63.0</ele><time>2026-04-19T16:17:34.001Z</time></trkpt><trkpt lat="45.027624489796345" lon="9.683277193230108"><ele>63.0</ele><time>2026-04-19T16:17:35.001Z</time></trkpt><trkpt lat="45.02770182571142" lon="9.683431016201077"><ele>63.0</ele><time>2026-04-19T16:17:36.001Z</time></trkpt><trkpt lat="45.027791996093846" lon="9.683562865238844"><ele>63.0</ele><time>2026-04-19T16:17:37.001Z</time></trkpt><trkpt lat="45.027894733292875" lon="9.683666884374214"><ele>63.0</ele><time>2026-04-19T16:17:38.001Z</time></trkpt><trkpt lat="45.02800676527407" lon="9.683748325094196"><ele>63.0</ele><time>2026-04-19T16:17:39.001Z</time></trkpt><trkpt lat="45.0281320017042" lon="9.68379484798092"><ele>63.0</ele><time>2026-04-19T16:17:40.001Z</time></trkpt><trkpt lat="45.028267052577576" lon="9.683809960540533"><ele>63.0</ele><time>2026-04-19T16:17:41.001Z</time></trkpt><trkpt lat="45.028398128852" lon="9.683794337742075"><ele>63.0</ele><time>2026-04-19T16:17:42.001Z</time></trkpt><trkpt lat="45.0285211895858" lon="9.683755616154945"><ele>63.0</ele><time>2026-04-19T16:17:43.001Z</time></trkpt><trkpt lat="45.028632166203515" lon="9.683690721188512"><ele>63.0</ele><time>2026-04-19T16:17:44.001Z</time></trkpt><trkpt lat="45.02873363118269" lon="9.683599360802896"><ele>63.0</ele><time>2026-04-19T16:17:45.001Z</time></trkpt><trkpt lat="45.02882063684309" lon="9.683491352272094"><ele>63.0</ele><time>2026-04-19T16:17:46.001Z</time></trkpt><trkpt lat="45.02888912767002" lon="9.683377778829701"><ele>63.4</ele><time>2026-04-19T16:17:47.001Z</time></trkpt><trkpt lat="45.02893788049769" lon="9.683262541004531"><ele>63.8</ele><time>2026-04-19T16:17:48.001Z</time></trkpt><trkpt lat="45.02897829250137" lon="9.68314253138392"><ele>64.2</ele><time>2026-04-19T16:17:49.001Z</time></trkpt><trkpt lat="45.02900881573114" lon="9.683010311560945"><ele>64.6</ele><time>2026-04-19T16:17:50.001Z</time></trkpt><trkpt lat="45.02902285998221" lon="9.682861453832494"><ele>65.0</ele><time>2026-04-19T16:17:51.001Z</time></trkpt><trkpt lat="45.02902424261645" lon="9.68271414242898"><ele>65.4</ele><time>2026-04-19T16:17:52.001Z</time></trkpt><trkpt lat="45.0290179018911" lon="9.682564017143882"><ele>65.8</ele><time>2026-04-19T16:17:53.001Z</time></trkpt><trkpt lat="45.02899659744733" lon="9.68241982688809"><ele>66.2</ele><time>2026-04-19T16:17:54.001Z</time></trkpt><trkpt lat="45.028962950452815" lon="9.6822838230237"><ele>66.6</ele><time>2026-04-19T16:17:55.001Z</time></trkpt><trkpt lat="45.02891478350809" lon="9.68215331103926"><ele>67.0</ele><time>2026-04-19T16:17:56.001Z</time></trkpt><trkpt lat="45.0288623693405" lon="9.682031029188684"><ele>66.8</ele><time>2026-04-19T16:17:57.001Z</time></trkpt><trkpt lat="45.02881301759414" lon="9.681907216141264"><ele>66.6</ele><time>2026-04-19T16:17:58.001Z</time></trkpt><trkpt lat="45.02877835284103" lon="9.681771803544825"><ele>66.39999999999999</ele><time>2026-04-19T16:17:59.001Z</time></trkpt><trkpt lat="45.028758975426534" lon="9.681620151689641"><ele>66.2</ele><time>2026-04-19T16:18:00.001Z</time></trkpt><trkpt lat="45.02875957853839" lon="9.681470534362406"><ele>66.0</ele><time>2026-04-19T16:18:01.001Z</time></trkpt><trkpt lat="45.028777096234094" lon="9.681325275549824"><ele>66.0</ele><time>2026-04-19T16:18:02.001Z</time></trkpt><trkpt lat="45.02879281653925" lon="9.681165697562635"><ele>66.0</ele><time>2026-04-19T16:18:03.001Z</time></trkpt><trkpt lat="45.028843641809004" lon="9.68100428533115"><ele>66.0</ele><time>2026-04-19T16:18:04.001Z</time></trkpt><trkpt lat="45.02888936102651" lon="9.680840442839578"><ele>66.0</ele><time>2026-04-19T16:18:05.001Z</time></trkpt><trkpt lat="45.02893258433476" lon="9.680673547371434"><ele>65.5</ele><time>2026-04-19T16:18:06.001Z</time></trkpt><trkpt lat="45.02898091213026" lon="9.680507104692076"><ele>65.0</ele><time>2026-04-19T16:18:07.001Z</time></trkpt><trkpt lat="45.029024013569384" lon="9.680346437206312"><ele>64.5</ele><time>2026-04-19T16:18:08.001Z</time></trkpt><trkpt lat="45.0290646083395" lon="9.680180296690954"><ele>64.0</ele><time>2026-04-19T16:18:09.001Z</time></trkpt><trkpt lat="45.029106677929434" lon="9.680015337698347"><ele>64.0</ele><time>2026-04-19T16:18:10.001Z</time></trkpt><trkpt lat="45.02914870402908" lon="9.679851782414527"><ele>64.0</ele><time>2026-04-19T16:18:11.001Z</time></trkpt><trkpt lat="45.029190853237914" lon="9.679691629998395"><ele>64.0</ele><time>2026-04-19T16:18:12.001Z</time></trkpt><trkpt lat="45.02923933369461" lon="9.679531303117118"><ele>64.0</ele><time>2026-04-19T16:18:13.001Z</time></trkpt><trkpt lat="45.029290430157836" lon="9.67937059624114"><ele>63.75</ele><time>2026-04-19T16:18:14.001Z</time></trkpt><trkpt lat="45.02934523670881" lon="9.679201921856034"><ele>63.5</ele><time>2026-04-19T16:18:15.001Z</time></trkpt><trkpt lat="45.02939931415471" lon="9.6790360278713"><ele>63.25</ele><time>2026-04-19T16:18:16.001Z</time></trkpt><trkpt lat="45.02945302038648" lon="9.678870628989834"><ele>63.0</ele><time>2026-04-19T16:18:17.001Z</time></trkpt><trkpt lat="45.02950612710496" lon="9.678699011727947"><ele>62.75</ele><time>2026-04-19T16:18:18.001Z</time></trkpt><trkpt lat="45.02955774082667" lon="9.678516738638855"><ele>62.5</ele><time>2026-04-19T16:18:19.001Z</time></trkpt><trkpt lat="45.029599765231545" lon="9.678329374077236"><ele>62.25</ele><time>2026-04-19T16:18:20.001Z</time></trkpt><trkpt lat="45.02962161014543" lon="9.678137099497789"><ele>62.0</ele><time>2026-04-19T16:18:21.001Z</time></trkpt><trkpt lat="45.029611588732074" lon="9.677961790008803"><ele>62.0</ele><time>2026-04-19T16:18:22.001Z</time></trkpt><trkpt lat="45.02974658858174" lon="9.67778648163648"><ele>62.0</ele><time>2026-04-19T16:18:23.001Z</time></trkpt><trkpt lat="45.029820815461" lon="9.677616389435908"><ele>62.0</ele><time>2026-04-19T16:18:24.001Z</time></trkpt><trkpt lat="45.0299083123178" lon="9.67744998964406"><ele>61.75</ele><time>2026-04-19T16:18:25.001Z</time></trkpt><trkpt lat="45.03001379176973" lon="9.677299438955748"><ele>61.5</ele><time>2026-04-19T16:18:26.001Z</time></trkpt><trkpt lat="45.0301065081201" lon="9.677151378360223"><ele>61.25</ele><time>2026-04-19T16:18:27.001Z</time></trkpt><trkpt lat="45.03020435309131" lon="9.677006747745704"><ele>61.0</ele><time>2026-04-19T16:18:28.001Z</time></trkpt><trkpt lat="45.03030106730818" lon="9.676868073739536"><ele>61.0</ele><time>2026-04-19T16:18:29.001Z</time></trkpt><trkpt lat="45.03039947784343" lon="9.676741433250053"><ele>61.0</ele><time>2026-04-19T16:18:30.001Z</time></trkpt><trkpt lat="45.03049912853852" lon="9.67661383041343"><ele>61.0</ele><time>2026-04-19T16:18:31.001Z</time></trkpt><trkpt lat="45.03060122341766" lon="9.67648905407799"><ele>61.0</ele><time>2026-04-19T16:18:32.001Z</time></trkpt><trkpt lat="45.03070819028644" lon="9.676366519484407"><ele>61.25</ele><time>2026-04-19T16:18:33.001Z</time></trkpt><trkpt lat="45.03081959661114" lon="9.67624296524345"><ele>61.5</ele><time>2026-04-19T16:18:34.001Z</time></trkpt><trkpt lat="45.03093219433392" lon="9.67612181981275"><ele>61.75</ele><time>2026-04-19T16:18:35.001Z</time></trkpt><trkpt lat="45.031049051538496" lon="9.67600831908565"><ele>62.0</ele><time>2026-04-19T16:18:36.001Z</time></trkpt><trkpt lat="45.031172842698126" lon="9.675899947794747"><ele>62.0</ele><time>2026-04-19T16:18:37.001Z</time></trkpt><trkpt lat="45.031302972218285" lon="9.67579258903521"><ele>62.0</ele><time>2026-04-19T16:18:38.001Z</time></trkpt><trkpt lat="45.03143968078894" lon="9.675682436594526"><ele>62.0</ele><time>2026-04-19T16:18:39.001Z</time></trkpt><trkpt lat="45.03158381544564" lon="9.675573052260798"><ele>61.66666666666667</ele><time>2026-04-19T16:18:40.001Z</time></trkpt><trkpt lat="45.031733957099725" lon="9.675467063798347"><ele>61.33333333333333</ele><time>2026-04-19T16:18:41.001Z</time></trkpt><trkpt lat="45.03188645607602" lon="9.675364219216846"><ele>61.0</ele><time>2026-04-19T16:18:42.001Z</time></trkpt><trkpt lat="45.03203779782004" lon="9.675271518655421"><ele>62.0</ele><time>2026-04-19T16:18:43.001Z</time></trkpt><trkpt lat="45.03218937663203" lon="9.675192913101718"><ele>63.0</ele><time>2026-04-19T16:18:44.001Z</time></trkpt><trkpt lat="45.03234059528919" lon="9.675119603985376"><ele>64.0</ele><time>2026-04-19T16:18:45.001Z</time></trkpt><trkpt lat="45.03249677150251" lon="9.675049734627065"><ele>64.0</ele><time>2026-04-19T16:18:46.001Z</time></trkpt><trkpt lat="45.032661180895204" lon="9.674980989098199"><ele>64.0</ele><time>2026-04-19T16:18:47.001Z</time></trkpt><trkpt lat="45.032831537589544" lon="9.674916301142812"><ele>64.0</ele><time>2026-04-19T16:18:48.001Z</time></trkpt><trkpt lat="45.03299637652625" lon="9.674865232487056"><ele>64.0</ele><time>2026-04-19T16:18:49.001Z</time></trkpt><trkpt lat="45.03317871629067" lon="9.67481109132821"><ele>64.0</ele><time>2026-04-19T16:18:50.001Z</time></trkpt><trkpt lat="45.033392141420634" lon="9.674739995812836"><ele>64.0</ele><time>2026-04-19T16:18:51.001Z</time></trkpt><trkpt lat="45.03363347625722" lon="9.674691277031457"><ele>64.0</ele><time>2026-04-19T16:18:52.001Z</time></trkpt><trkpt lat="45.03387310249229" lon="9.67462317857046"><ele>64.0</ele><time>2026-04-19T16:18:53.001Z</time></trkpt><trkpt lat="45.034139452635486" lon="9.674526327927857"><ele>63.5</ele><time>2026-04-19T16:18:54.001Z</time></trkpt><trkpt lat="45.034404085754325" lon="9.674468096648033"><ele>63.0</ele><time>2026-04-19T16:18:55.001Z</time></trkpt><trkpt lat="45.03464701848104" lon="9.674405856674761"><ele>63.0</ele><time>2026-04-19T16:18:56.001Z</time></trkpt><trkpt lat="45.03487556627786" lon="9.674342697629022"><ele>63.0</ele><time>2026-04-19T16:18:57.001Z</time></trkpt><trkpt lat="45.03510124654105" lon="9.674274489622098"><ele>62.66666666666667</ele><time>2026-04-19T16:18:58.001Z</time></trkpt><trkpt lat="45.035320299496455" lon="9.674211635084008"><ele>62.333333333333336</ele><time>2026-04-19T16:18:59.001Z</time></trkpt><trkpt lat="45.03553401472272" lon="9.674144454828678"><ele>62.0</ele><time>2026-04-19T16:19:00.001Z</time></trkpt><trkpt lat="45.035747252168264" lon="9.674063258926443"><ele>62.333333333333336</ele><time>2026-04-19T16:19:01.001Z</time></trkpt><trkpt lat="45.03595145783154" lon="9.673967080997706"><ele>62.66666666666667</ele><time>2026-04-19T16:19:02.001Z</time></trkpt><trkpt lat="45.03614145889593" lon="9.673859794701277"><ele>63.0</ele><time>2026-04-19T16:19:03.001Z</time></trkpt><trkpt lat="45.03632567206024" lon="9.6737475483236"><ele>63.0</ele><time>2026-04-19T16:19:04.001Z</time></trkpt><trkpt lat="45.03650785342804" lon="9.673626656749775"><ele>63.0</ele><time>2026-04-19T16:19:05.001Z</time></trkpt><trkpt lat="45.03669007565564" lon="9.673495417374495"><ele>63.0</ele><time>2026-04-19T16:19:06.001Z</time></trkpt><trkpt lat="45.036867859476224" lon="9.673354608116567"><ele>63.0</ele><time>2026-04-19T16:19:07.001Z</time></trkpt><trkpt lat="45.03704220693994" lon="9.673205621694503"><ele>63.0</ele><time>2026-04-19T16:19:08.001Z</time></trkpt><trkpt lat="45.03720790640775" lon="9.673050642061895"><ele>63.0</ele><time>2026-04-19T16:19:09.001Z</time></trkpt><trkpt lat="45.037363395564256" lon="9.672888655066371"><ele>62.0</ele><time>2026-04-19T16:19:10.001Z</time></trkpt><trkpt lat="45.03751093602868" lon="9.672723172921927"><ele>61.0</ele><time>2026-04-19T16:19:11.001Z</time></trkpt><trkpt lat="45.03765281190879" lon="9.672559603523025"><ele>60.0</ele><time>2026-04-19T16:19:12.001Z</time></trkpt><trkpt lat="45.03779039360133" lon="9.672396744688145"><ele>60.0</ele><time>2026-04-19T16:19:13.001Z</time></trkpt><trkpt lat="45.03793153246355" lon="9.672231330031915"><ele>60.0</ele><time>2026-04-19T16:19:14.016Z</time></trkpt><trkpt lat="45.03807498638811" lon="9.672066445270648"><ele>60.0</ele><time>2026-04-19T16:19:15.022Z</time></trkpt><trkpt lat="45.038208766099565" lon="9.671907500539065"><ele>60.0</ele><time>2026-04-19T16:19:16.015Z</time></trkpt><trkpt lat="45.03834524171866" lon="9.671752392219792"><ele>60.0</ele><time>2026-04-19T16:19:17.015Z</time></trkpt><trkpt lat="45.03848235175151" lon="9.671593393948966"><ele>60.0</ele><time>2026-04-19T16:19:18.023Z</time></trkpt><trkpt lat="45.03999422337352" lon="9.669688328346496"><ele>57.0</ele><time>2026-04-19T16:19:21.729Z</time></trkpt><trkpt lat="45.04082368225328" lon="9.66871172190613"><ele>57.0</ele><time>2026-04-19T16:19:33.001Z</time></trkpt><trkpt lat="45.04106087651546" lon="9.668426691054334"><ele>57.0</ele><time>2026-04-19T16:19:34.001Z</time></trkpt><trkpt lat="45.04125623013793" lon="9.668172059413445"><ele>57.0</ele><time>2026-04-19T16:19:35.001Z</time></trkpt><trkpt lat="45.04146699315287" lon="9.667898864562213"><ele>57.0</ele><time>2026-04-19T16:19:36.001Z</time></trkpt><trkpt lat="45.04166708697626" lon="9.667598438259228"><ele>59.0</ele><time>2026-04-19T16:19:37.001Z</time></trkpt><trkpt lat="45.0418642975786" lon="9.667262358846898"><ele>61.0</ele><time>2026-04-19T16:19:38.001Z</time></trkpt><trkpt lat="45.04206307084794" lon="9.666905827544031"><ele>61.0</ele><time>2026-04-19T16:19:39.001Z</time></trkpt><trkpt lat="45.042247686652786" lon="9.666541569043892"><ele>61.0</ele><time>2026-04-19T16:19:40.001Z</time></trkpt><trkpt lat="45.04239876475372" lon="9.666188646198929"><ele>58.5</ele><time>2026-04-19T16:19:41.001Z</time></trkpt><trkpt lat="45.04252724571451" lon="9.665850641043626"><ele>56.0</ele><time>2026-04-19T16:19:42.001Z</time></trkpt><trkpt lat="45.04264729279571" lon="9.665526057627751"><ele>57.5</ele><time>2026-04-19T16:19:43.001Z</time></trkpt><trkpt lat="45.04275791009013" lon="9.665190032950182"><ele>59.0</ele><time>2026-04-19T16:19:44.001Z</time></trkpt><trkpt lat="45.042853267537545" lon="9.664848167674633"><ele>59.0</ele><time>2026-04-19T16:19:45.001Z</time></trkpt><trkpt lat="45.04293280948017" lon="9.66451269204072"><ele>59.0</ele><time>2026-04-19T16:19:46.001Z</time></trkpt><trkpt lat="45.042996238986866" lon="9.664197900079975"><ele>59.0</ele><time>2026-04-19T16:19:47.001Z</time></trkpt><trkpt lat="45.0430505971648" lon="9.663907743695669"><ele>59.0</ele><time>2026-04-19T16:19:48.001Z</time></trkpt><trkpt lat="45.0430942386091" lon="9.663665877249008"><ele>59.0</ele><time>2026-04-19T16:19:49.001Z</time></trkpt><trkpt lat="45.043127135639246" lon="9.663468900148482"><ele>58.6</ele><time>2026-04-19T16:19:50.001Z</time></trkpt><trkpt lat="45.04315774944292" lon="9.663314778606226"><ele>58.2</ele><time>2026-04-19T16:19:51.001Z</time></trkpt><trkpt lat="45.04320726197865" lon="9.663183782783738"><ele>57.800000000000004</ele><time>2026-04-19T16:19:52.001Z</time></trkpt><trkpt lat="45.043284710191195" lon="9.663068585016001"><ele>57.400000000000006</ele><time>2026-04-19T16:19:53.001Z</time></trkpt><trkpt lat="45.04338067755648" lon="9.662974569909622"><ele>57.0</ele><time>2026-04-19T16:19:54.001Z</time></trkpt><trkpt lat="45.04347698477033" lon="9.662878082451321"><ele>58.0</ele><time>2026-04-19T16:19:55.001Z</time></trkpt><trkpt lat="45.043567677830104" lon="9.662757648360927"><ele>59.0</ele><time>2026-04-19T16:19:56.001Z</time></trkpt><trkpt lat="45.04363729550329" lon="9.662607664303776"><ele>60.0</ele><time>2026-04-19T16:19:57.001Z</time></trkpt><trkpt lat="45.04367223838094" lon="9.66243393790119"><ele>61.0</ele><time>2026-04-19T16:19:58.001Z</time></trkpt><trkpt lat="45.04367605548781" lon="9.662244813797898"><ele>61.0</ele><time>2026-04-19T16:19:59.001Z</time></trkpt><trkpt lat="45.04366150394156" lon="9.66205835111935"><ele>61.0</ele><time>2026-04-19T16:20:00.001Z</time></trkpt><trkpt lat="45.04359729105097" lon="9.661921974300677"><ele>61.0</ele><time>2026-04-19T16:20:01.001Z</time></trkpt><trkpt lat="45.04355673617347" lon="9.661802994695822"><ele>61.0</ele><time>2026-04-19T16:20:02.001Z</time></trkpt><trkpt lat="45.0437051408532" lon="9.661595043011722"><ele>61.0</ele><time>2026-04-19T16:20:03.001Z</time></trkpt><trkpt lat="45.043758606831844" lon="9.661474843703639"><ele>60.99999999999999</ele><time>2026-04-19T16:20:04.001Z</time></trkpt><trkpt lat="45.0438170128719" lon="9.661378281262012"><ele>60.99999999999999</ele><time>2026-04-19T16:20:05.001Z</time></trkpt><trkpt lat="45.0438869711937" lon="9.661306244973128"><ele>61.0</ele><time>2026-04-19T16:20:06.001Z</time></trkpt><trkpt lat="45.04396939660073" lon="9.661249946508432"><ele>61.0</ele><time>2026-04-19T16:20:07.001Z</time></trkpt><trkpt lat="45.044076237510644" lon="9.661237537319781"><ele>61.199999999999996</ele><time>2026-04-19T16:20:08.001Z</time></trkpt><trkpt lat="45.044172410295666" lon="9.661177481923723"><ele>61.39999999999999</ele><time>2026-04-19T16:20:09.001Z</time></trkpt><trkpt lat="45.04424085823354" lon="9.661080076676198"><ele>61.6</ele><time>2026-04-19T16:20:10.001Z</time></trkpt><trkpt lat="45.04428283977243" lon="9.660960201169724"><ele>61.8</ele><time>2026-04-19T16:20:11.001Z</time></trkpt><trkpt lat="45.04427883941109" lon="9.660786630952211"><ele>62.0</ele><time>2026-04-19T16:20:12.001Z</time></trkpt><trkpt lat="45.04425368416846" lon="9.660634324527686"><ele>62.0</ele><time>2026-04-19T16:20:13.001Z</time></trkpt><trkpt lat="45.04417608159231" lon="9.660502202201043"><ele>62.0</ele><time>2026-04-19T16:20:14.001Z</time></trkpt><trkpt lat="45.04406710822283" lon="9.66041476250734"><ele>62.0</ele><time>2026-04-19T16:20:15.001Z</time></trkpt><trkpt lat="45.04400190470584" lon="9.660261124462824"><ele>62.0</ele><time>2026-04-19T16:20:16.001Z</time></trkpt><trkpt lat="45.043963964578495" lon="9.660121545485529"><ele>61.75</ele><time>2026-04-19T16:20:17.001Z</time></trkpt><trkpt lat="45.04398780183815" lon="9.659968650214031"><ele>61.5</ele><time>2026-04-19T16:20:18.001Z</time></trkpt><trkpt lat="45.04399920105003" lon="9.659791265072347"><ele>61.25</ele><time>2026-04-19T16:20:19.001Z</time></trkpt><trkpt lat="45.04401992491371" lon="9.659588132942893"><ele>61.0</ele><time>2026-04-19T16:20:20.001Z</time></trkpt><trkpt lat="45.044059678410235" lon="9.659334856259271"><ele>61.0</ele><time>2026-04-19T16:20:21.001Z</time></trkpt><trkpt lat="45.044125280393764" lon="9.659037521922807"><ele>61.0</ele><time>2026-04-19T16:20:22.001Z</time></trkpt><trkpt lat="45.04420083830549" lon="9.65873013532568"><ele>63.0</ele><time>2026-04-19T16:20:23.001Z</time></trkpt><trkpt lat="45.04431486091009" lon="9.658458709939643"><ele>65.0</ele><time>2026-04-19T16:20:24.001Z</time></trkpt><trkpt lat="45.04444941193972" lon="9.658180562286542"><ele>65.0</ele><time>2026-04-19T16:20:25.001Z</time></trkpt><trkpt lat="45.04460220222804" lon="9.657901042390213"><ele>65.0</ele><time>2026-04-19T16:20:26.001Z</time></trkpt><trkpt lat="45.04476920962598" lon="9.657651780197218"><ele>64.0</ele><time>2026-04-19T16:20:27.001Z</time></trkpt><trkpt lat="45.044954389193364" lon="9.657439945653023"><ele>63.0</ele><time>2026-04-19T16:20:28.001Z</time></trkpt><trkpt lat="45.04515727690308" lon="9.65725197582835"><ele>62.66666666666667</ele><time>2026-04-19T16:20:29.001Z</time></trkpt><trkpt lat="45.04535611755946" lon="9.657095492798422"><ele>62.333333333333336</ele><time>2026-04-19T16:20:30.001Z</time></trkpt><trkpt lat="45.045547705984944" lon="9.656982509994712"><ele>62.0</ele><time>2026-04-19T16:20:31.001Z</time></trkpt><trkpt lat="45.04569566652651" lon="9.65691309733698"><ele>62.2</ele><time>2026-04-19T16:20:32.001Z</time></trkpt><trkpt lat="45.04580049687908" lon="9.656879590113418"><ele>62.400000000000006</ele><time>2026-04-19T16:20:33.001Z</time></trkpt><trkpt lat="45.04589986753409" lon="9.656852732553423"><ele>62.599999999999994</ele><time>2026-04-19T16:20:34.001Z</time></trkpt><trkpt lat="45.045988071973525" lon="9.656856155276518"><ele>62.8</ele><time>2026-04-19T16:20:35.001Z</time></trkpt><trkpt lat="45.04605611285618" lon="9.656901813436463"><ele>63.0</ele><time>2026-04-19T16:20:36.001Z</time></trkpt><trkpt lat="45.046125734449866" lon="9.65695056364035"><ele>63.0</ele><time>2026-04-19T16:20:37.001Z</time></trkpt><trkpt lat="45.04619271883833" lon="9.656980190226024"><ele>63.0</ele><time>2026-04-19T16:20:38.001Z</time></trkpt><trkpt lat="45.04626808029852" lon="9.656964142515545"><ele>63.0</ele><time>2026-04-19T16:20:39.001Z</time></trkpt><trkpt lat="45.046336017121476" lon="9.656911165082905"><ele>63.0</ele><time>2026-04-19T16:20:40.001Z</time></trkpt><trkpt lat="45.04638987538598" lon="9.65681341100262"><ele>63.0</ele><time>2026-04-19T16:20:41.001Z</time></trkpt><trkpt lat="45.04642349691587" lon="9.656684563340063"><ele>63.0</ele><time>2026-04-19T16:20:42.001Z</time></trkpt><trkpt lat="45.04643952632435" lon="9.65650425721631"><ele>63.0</ele><time>2026-04-19T16:20:43.001Z</time></trkpt><trkpt lat="45.04651960807481" lon="9.656365172848789"><ele>63.0</ele><time>2026-04-19T16:20:44.001Z</time></trkpt><trkpt lat="45.046611240447255" lon="9.656194516778172"><ele>63.0</ele><time>2026-04-19T16:20:45.001Z</time></trkpt><trkpt lat="45.046737002508586" lon="9.656014736687933"><ele>62.0</ele><time>2026-04-19T16:20:46.001Z</time></trkpt><trkpt lat="45.04686693798224" lon="9.655838972079112"><ele>61.0</ele><time>2026-04-19T16:20:47.001Z</time></trkpt><trkpt lat="45.046997708836706" lon="9.65566967319541"><ele>60.0</ele><time>2026-04-19T16:20:48.001Z</time></trkpt><trkpt lat="45.04712581071613" lon="9.655529386278586"><ele>60.0</ele><time>2026-04-19T16:20:49.001Z</time></trkpt><trkpt lat="45.04726433607461" lon="9.655428463920268"><ele>60.0</ele><time>2026-04-19T16:20:50.001Z</time></trkpt><trkpt lat="45.04743008425348" lon="9.655350198736347"><ele>60.0</ele><time>2026-04-19T16:20:51.001Z</time></trkpt><trkpt lat="45.04761709030519" lon="9.65526567826249"><ele>59.0</ele><time>2026-04-19T16:20:52.001Z</time></trkpt><trkpt lat="45.0478189866311" lon="9.655182527197901"><ele>58.0</ele><time>2026-04-19T16:20:53.001Z</time></trkpt><trkpt lat="45.04802093023683" lon="9.655103597294472"><ele>57.0</ele><time>2026-04-19T16:20:54.001Z</time></trkpt><trkpt lat="45.04821706680471" lon="9.655027757545827"><ele>58.0</ele><time>2026-04-19T16:20:55.001Z</time></trkpt><trkpt lat="45.04843057941766" lon="9.65493282483234"><ele>59.0</ele><time>2026-04-19T16:20:56.001Z</time></trkpt><trkpt lat="45.04864504665337" lon="9.654839981286713"><ele>60.0</ele><time>2026-04-19T16:20:57.001Z</time></trkpt><trkpt lat="45.04886718317643" lon="9.654748195145057"><ele>60.0</ele><time>2026-04-19T16:20:58.001Z</time></trkpt><trkpt lat="45.04911345891062" lon="9.654644439249978"><ele>60.0</ele><time>2026-04-19T16:20:59.001Z</time></trkpt><trkpt lat="45.049344812167845" lon="9.654554292826429"><ele>60.0</ele><time>2026-04-19T16:21:00.001Z</time></trkpt><trkpt lat="45.04955875887145" lon="9.654468167506037"><ele>60.0</ele><time>2026-04-19T16:21:01.001Z</time></trkpt><trkpt lat="45.04975925365348" lon="9.654387330928104"><ele>60.0</ele><time>2026-04-19T16:21:02.001Z</time></trkpt><trkpt lat="45.049946920065025" lon="9.654312152192634"><ele>59.66666666666667</ele><time>2026-04-19T16:21:03.001Z</time></trkpt><trkpt lat="45.05012482706793" lon="9.654241538408089"><ele>59.333333333333336</ele><time>2026-04-19T16:21:04.001Z</time></trkpt><trkpt lat="45.05029015254679" lon="9.654185967499762"><ele>59.0</ele><time>2026-04-19T16:21:05.001Z</time></trkpt><trkpt lat="45.050446444413595" lon="9.65413493511909"><ele>59.0</ele><time>2026-04-19T16:21:06.001Z</time></trkpt><trkpt lat="45.050593241095164" lon="9.654090301936535"><ele>59.0</ele><time>2026-04-19T16:21:07.001Z</time></trkpt><trkpt lat="45.05071280737375" lon="9.654027927253486"><ele>59.0</ele><time>2026-04-19T16:21:08.001Z</time></trkpt><trkpt lat="45.05079491341602" lon="9.6539981929196"><ele>59.0</ele><time>2026-04-19T16:21:09.001Z</time></trkpt><trkpt lat="45.050917969659785" lon="9.653954841733352"><ele>58.6</ele><time>2026-04-19T16:21:11.001Z</time></trkpt><trkpt lat="45.05104643505864" lon="9.653946697452788"><ele>58.2</ele><time>2026-04-19T16:21:12.001Z</time></trkpt><trkpt lat="45.05116262170199" lon="9.653973793289765"><ele>57.800000000000004</ele><time>2026-04-19T16:21:14.001Z</time></trkpt><trkpt lat="45.0512268718089" lon="9.653962098065929"><ele>57.400000000000006</ele><time>2026-04-19T16:21:15.001Z</time></trkpt><trkpt lat="45.05131027532918" lon="9.653831107317327"><ele>57.0</ele><time>2026-04-19T16:21:17.001Z</time></trkpt><trkpt lat="45.05131702914962" lon="9.653726536447854"><ele>57.2</ele><time>2026-04-19T16:21:18.001Z</time></trkpt><trkpt lat="45.05129962097843" lon="9.653612749790563"><ele>57.400000000000006</ele><time>2026-04-19T16:21:19.001Z</time></trkpt><trkpt lat="45.051279750331155" lon="9.65347423208536"><ele>57.599999999999994</ele><time>2026-04-19T16:21:20.001Z</time></trkpt><trkpt lat="45.051270844007014" lon="9.653310281009624"><ele>57.8</ele><time>2026-04-19T16:21:21.001Z</time></trkpt><trkpt lat="45.051245528890036" lon="9.65311322731931"><ele>58.0</ele><time>2026-04-19T16:21:22.001Z</time></trkpt><trkpt lat="45.05125836253779" lon="9.652886771909994"><ele>58.33333333333333</ele><time>2026-04-19T16:21:23.001Z</time></trkpt><trkpt lat="45.05128031605335" lon="9.652620836390678"><ele>58.66666666666667</ele><time>2026-04-19T16:21:24.001Z</time></trkpt><trkpt lat="45.05130824555665" lon="9.65229200313094"><ele>59.0</ele><time>2026-04-19T16:21:25.001Z</time></trkpt><trkpt lat="45.0513401541376" lon="9.651887064626278"><ele>59.0</ele><time>2026-04-19T16:21:26.001Z</time></trkpt><trkpt lat="45.05139042524292" lon="9.651422772808646"><ele>59.0</ele><time>2026-04-19T16:21:27.001Z</time></trkpt><trkpt lat="45.05142322294927" lon="9.650957663433722"><ele>59.0</ele><time>2026-04-19T16:21:28.001Z</time></trkpt><trkpt lat="45.051459075618894" lon="9.650443187746006"><ele>59.0</ele><time>2026-04-19T16:21:29.001Z</time></trkpt><trkpt lat="45.05150216977679" lon="9.649885575236452"><ele>59.5</ele><time>2026-04-19T16:21:30.001Z</time></trkpt><trkpt lat="45.05154853082271" lon="9.649309741853418"><ele>60.0</ele><time>2026-04-19T16:21:31.001Z</time></trkpt><trkpt lat="45.05159417078363" lon="9.648730267314269"><ele>60.0</ele><time>2026-04-19T16:21:32.001Z</time></trkpt><trkpt lat="45.05163701845732" lon="9.648197035807328"><ele>60.0</ele><time>2026-04-19T16:21:33.001Z</time></trkpt><trkpt lat="45.05168065082774" lon="9.647708037946742"><ele>60.0</ele><time>2026-04-19T16:21:34.001Z</time></trkpt><trkpt lat="45.05172744982676" lon="9.647175082406257"><ele>60.0</ele><time>2026-04-19T16:21:35.001Z</time></trkpt><trkpt lat="45.051774841655615" lon="9.646635791501355"><ele>60.0</ele><time>2026-04-19T16:21:36.001Z</time></trkpt><trkpt lat="45.051824300658296" lon="9.646122292575233"><ele>60.0</ele><time>2026-04-19T16:21:37.001Z</time></trkpt><trkpt lat="45.051846436118" lon="9.645650387892067"><ele>58.0</ele><time>2026-04-19T16:21:38.001Z</time></trkpt><trkpt lat="45.051881790036965" lon="9.645212603019242"><ele>56.0</ele><time>2026-04-19T16:21:39.001Z</time></trkpt><trkpt lat="45.05192993459825" lon="9.644807735079928"><ele>56.5</ele><time>2026-04-19T16:21:40.001Z</time></trkpt><trkpt lat="45.05196163245372" lon="9.644417749319976"><ele>57.0</ele><time>2026-04-19T16:21:41.001Z</time></trkpt><trkpt lat="45.05198848353376" lon="9.644050742693706"><ele>57.0</ele><time>2026-04-19T16:21:42.001Z</time></trkpt><trkpt lat="45.05201508232212" lon="9.643706990922478"><ele>57.0</ele><time>2026-04-19T16:21:43.001Z</time></trkpt><trkpt lat="45.0520305357694" lon="9.643365805499274"><ele>57.0</ele><time>2026-04-19T16:21:44.001Z</time></trkpt><trkpt lat="45.05207393283721" lon="9.643065926316382"><ele>57.0</ele><time>2026-04-19T16:21:45.001Z</time></trkpt><trkpt lat="45.052100070988615" lon="9.64273410369627"><ele>57.0</ele><time>2026-04-19T16:21:46.001Z</time></trkpt><trkpt lat="45.05212716719484" lon="9.642403528070556"><ele>57.0</ele><time>2026-04-19T16:21:47.001Z</time></trkpt><trkpt lat="45.05215382899858" lon="9.642070864317338"><ele>57.33333333333333</ele><time>2026-04-19T16:21:48.001Z</time></trkpt><trkpt lat="45.05218055453141" lon="9.64174498867397"><ele>57.666666666666664</ele><time>2026-04-19T16:21:49.001Z</time></trkpt><trkpt lat="45.05218985207648" lon="9.64144084550228"><ele>58.0</ele><time>2026-04-19T16:21:50.001Z</time></trkpt><trkpt lat="45.05222014597655" lon="9.64117958735192"><ele>57.0</ele><time>2026-04-19T16:21:51.001Z</time></trkpt><trkpt lat="45.05226383618403" lon="9.640958968370404"><ele>56.0</ele><time>2026-04-19T16:21:52.001Z</time></trkpt><trkpt lat="45.05233624522283" lon="9.640766474995008"><ele>55.0</ele><time>2026-04-19T16:21:53.001Z</time></trkpt><trkpt lat="45.0523858186952" lon="9.64056268693341"><ele>56.33333333333333</ele><time>2026-04-19T16:21:54.001Z</time></trkpt><trkpt lat="45.05248195668633" lon="9.640381094498743"><ele>57.66666666666667</ele><time>2026-04-19T16:21:55.001Z</time></trkpt><trkpt lat="45.05257916629451" lon="9.640189693005585"><ele>59.0</ele><time>2026-04-19T16:21:56.001Z</time></trkpt><trkpt lat="45.05268607887546" lon="9.640000804532177"><ele>59.0</ele><time>2026-04-19T16:21:57.001Z</time></trkpt><trkpt lat="45.05281325573032" lon="9.639822948437683"><ele>59.0</ele><time>2026-04-19T16:21:58.001Z</time></trkpt><trkpt lat="45.052956579447496" lon="9.639672611105238"><ele>59.0</ele><time>2026-04-19T16:21:59.001Z</time></trkpt><trkpt lat="45.053115955648686" lon="9.639548559112736"><ele>58.333333333333336</ele><time>2026-04-19T16:22:00.001Z</time></trkpt><trkpt lat="45.053292527632046" lon="9.63943509657511"><ele>57.66666666666667</ele><time>2026-04-19T16:22:01.001Z</time></trkpt><trkpt lat="45.05347753682715" lon="9.639334252010768"><ele>57.0</ele><time>2026-04-19T16:22:02.001Z</time></trkpt><trkpt lat="45.05366875872486" lon="9.639246540888537"><ele>57.0</ele><time>2026-04-19T16:22:03.001Z</time></trkpt><trkpt lat="45.05386337338628" lon="9.639168322577788"><ele>57.0</ele><time>2026-04-19T16:22:04.001Z</time></trkpt><trkpt lat="45.05406182485948" lon="9.63908916764548"><ele>57.0</ele><time>2026-04-19T16:22:05.001Z</time></trkpt><trkpt lat="45.05423067199552" lon="9.639025779204234"><ele>57.25</ele><time>2026-04-19T16:22:06.001Z</time></trkpt><trkpt lat="45.05438467121282" lon="9.638962714936643"><ele>57.5</ele><time>2026-04-19T16:22:07.001Z</time></trkpt><trkpt lat="45.05451133702209" lon="9.638917539827549"><ele>57.75</ele><time>2026-04-19T16:22:08.001Z</time></trkpt><trkpt lat="45.05462745334055" lon="9.638874838843488"><ele>58.0</ele><time>2026-04-19T16:22:09.001Z</time></trkpt><trkpt lat="45.05473032651586" lon="9.638836353784152"><ele>58.00000000000001</ele><time>2026-04-19T16:22:10.001Z</time></trkpt><trkpt lat="45.05481722250245" lon="9.638803890622782"><ele>58.0</ele><time>2026-04-19T16:22:11.001Z</time></trkpt><trkpt lat="45.05488241788668" lon="9.638783972459034"><ele>58.00000000000001</ele><time>2026-04-19T16:22:12.001Z</time></trkpt><trkpt lat="45.05494500230317" lon="9.638800098437345"><ele>58.00000000000001</ele><time>2026-04-19T16:22:13.001Z</time></trkpt><trkpt lat="45.05500889905733" lon="9.638788277906729"><ele>58.0</ele><time>2026-04-19T16:22:14.001Z</time></trkpt><trkpt lat="45.05507541725497" lon="9.638826065268471"><ele>58.00000000000001</ele><time>2026-04-19T16:22:15.001Z</time></trkpt><trkpt lat="45.05513933600534" lon="9.638864977154542"><ele>58.00000000000001</ele><time>2026-04-19T16:22:16.001Z</time></trkpt><trkpt lat="45.055235466183376" lon="9.638792634566471"><ele>58.4</ele><time>2026-04-19T16:22:18.001Z</time></trkpt><trkpt lat="45.05525114143169" lon="9.638691712726661"><ele>58.8</ele><time>2026-04-19T16:22:19.001Z</time></trkpt><trkpt lat="45.05524458535325" lon="9.638573389444927"><ele>59.2</ele><time>2026-04-19T16:22:20.001Z</time></trkpt><trkpt lat="45.05524214410468" lon="9.63842763828607"><ele>59.6</ele><time>2026-04-19T16:22:21.001Z</time></trkpt><trkpt lat="45.05525151637414" lon="9.638259672335463"><ele>60.0</ele><time>2026-04-19T16:22:22.001Z</time></trkpt><trkpt lat="45.055266487245454" lon="9.638094892856099"><ele>60.25</ele><time>2026-04-19T16:22:23.001Z</time></trkpt><trkpt lat="45.05527788608246" lon="9.637933137070686"><ele>60.5</ele><time>2026-04-19T16:22:24.001Z</time></trkpt><trkpt lat="45.0552908796996" lon="9.637759742823219"><ele>60.75</ele><time>2026-04-19T16:22:25.001Z</time></trkpt><trkpt lat="45.05530060136196" lon="9.637509944666228"><ele>61.0</ele><time>2026-04-19T16:22:26.001Z</time></trkpt><trkpt lat="45.05531572958569" lon="9.637226413868424"><ele>59.666666666666664</ele><time>2026-04-19T16:22:27.001Z</time></trkpt><trkpt lat="45.055309298634036" lon="9.636949828283985"><ele>58.33333333333333</ele><time>2026-04-19T16:22:28.001Z</time></trkpt><trkpt lat="45.05528947766247" lon="9.636668525311123"><ele>57.0</ele><time>2026-04-19T16:22:29.001Z</time></trkpt><trkpt lat="45.05534445348495" lon="9.63636182660704"><ele>56.66666666666667</ele><time>2026-04-19T16:22:30.001Z</time></trkpt><trkpt lat="45.05535318640608" lon="9.636049539069171"><ele>56.333333333333336</ele><time>2026-04-19T16:22:31.001Z</time></trkpt><trkpt lat="45.05536133403349" lon="9.635737564369162"><ele>56.0</ele><time>2026-04-19T16:22:32Z</time></trkpt><trkpt lat="45.05537066941897" lon="9.635426337713687"><ele>55.5</ele><time>2026-04-19T16:22:33Z</time></trkpt><trkpt lat="45.05537780936155" lon="9.635105764772238"><ele>55.0</ele><time>2026-04-19T16:22:34Z</time></trkpt><trkpt lat="45.0553869263475" lon="9.634790032101874"><ele>55.0</ele><time>2026-04-19T16:22:35Z</time></trkpt><trkpt lat="45.05539249693311" lon="9.634481485122627"><ele>55.0</ele><time>2026-04-19T16:22:36Z</time></trkpt><trkpt lat="45.055399204444576" lon="9.634178928640981"><ele>55.0</ele><time>2026-04-19T16:22:37Z</time></trkpt><trkpt lat="45.05540622602699" lon="9.63388231880389"><ele>54.33333333333333</ele><time>2026-04-19T16:22:38Z</time></trkpt><trkpt lat="45.05541352177762" lon="9.633590887835101"><ele>53.66666666666667</ele><time>2026-04-19T16:22:39Z</time></trkpt><trkpt lat="45.05542292409241" lon="9.633308426169071"><ele>53.0</ele><time>2026-04-19T16:22:40Z</time></trkpt><trkpt lat="45.055432601090914" lon="9.6330341288063"><ele>52.66666666666667</ele><time>2026-04-19T16:22:41Z</time></trkpt><trkpt lat="45.05544073254383" lon="9.632760156384256"><ele>52.33333333333333</ele><time>2026-04-19T16:22:42Z</time></trkpt><trkpt lat="45.05544413753382" lon="9.632489105412262"><ele>52.0</ele><time>2026-04-19T16:22:43Z</time></trkpt><trkpt lat="45.0554510901115" lon="9.632223126647629"><ele>52.33333333333333</ele><time>2026-04-19T16:22:44Z</time></trkpt><trkpt lat="45.05546011467567" lon="9.63196477297846"><ele>52.66666666666667</ele><time>2026-04-19T16:22:45Z</time></trkpt><trkpt lat="45.05546810618083" lon="9.631712895353918"><ele>53.0</ele><time>2026-04-19T16:22:46Z</time></trkpt><trkpt lat="45.05547570282688" lon="9.631455296787244"><ele>53.0</ele><time>2026-04-19T16:22:47Z</time></trkpt><trkpt lat="45.05548212629168" lon="9.631185292789926"><ele>53.0</ele><time>2026-04-19T16:22:48Z</time></trkpt><trkpt lat="45.05548774629344" lon="9.630912132496682"><ele>53.0</ele><time>2026-04-19T16:22:49Z</time></trkpt><trkpt lat="45.05549540416173" lon="9.630634798617958"><ele>53.66666666666667</ele><time>2026-04-19T16:22:50Z</time></trkpt><trkpt lat="45.05550367087596" lon="9.630353457530846"><ele>54.33333333333333</ele><time>2026-04-19T16:22:51Z</time></trkpt><trkpt lat="45.05550902474513" lon="9.630074824021033"><ele>55.0</ele><time>2026-04-19T16:22:52Z</time></trkpt><trkpt lat="45.05551418506722" lon="9.629817359618102"><ele>55.33333333333333</ele><time>2026-04-19T16:22:53Z</time></trkpt><trkpt lat="45.05552028557124" lon="9.629575720322716"><ele>55.66666666666667</ele><time>2026-04-19T16:22:54Z</time></trkpt><trkpt lat="45.05552489784322" lon="9.629353933796484"><ele>56.0</ele><time>2026-04-19T16:22:55Z</time></trkpt><trkpt lat="45.05552969702829" lon="9.62915915091811"><ele>56.0</ele><time>2026-04-19T16:22:56Z</time></trkpt><trkpt lat="45.055533425996735" lon="9.628982737333418"><ele>56.0</ele><time>2026-04-19T16:22:57Z</time></trkpt><trkpt lat="45.055535890105595" lon="9.628801836073341"><ele>56.0</ele><time>2026-04-19T16:22:58Z</time></trkpt><trkpt lat="45.055542657880686" lon="9.628586958831175"><ele>56.0</ele><time>2026-04-19T16:22:59Z</time></trkpt><trkpt lat="45.05555242033492" lon="9.62833641885088"><ele>56.0</ele><time>2026-04-19T16:23:00Z</time></trkpt><trkpt lat="45.05556405005999" lon="9.628059035956795"><ele>56.0</ele><time>2026-04-19T16:23:01Z</time></trkpt><trkpt lat="45.05557561930221" lon="9.627755730049229"><ele>56.0</ele><time>2026-04-19T16:23:02Z</time></trkpt><trkpt lat="45.05558732169339" lon="9.627444159280452"><ele>55.5</ele><time>2026-04-19T16:23:03Z</time></trkpt><trkpt lat="45.05559808022739" lon="9.627121874298643"><ele>55.0</ele><time>2026-04-19T16:23:04Z</time></trkpt><trkpt lat="45.055607738298" lon="9.62679667329027"><ele>56.0</ele><time>2026-04-19T16:23:05Z</time></trkpt><trkpt lat="45.0556158882615" lon="9.6264745797411"><ele>57.0</ele><time>2026-04-19T16:23:06Z</time></trkpt><trkpt lat="45.05562352965596" lon="9.626150443504999"><ele>56.66666666666667</ele><time>2026-04-19T16:23:07Z</time></trkpt><trkpt lat="45.05563160830617" lon="9.625828191970735"><ele>56.333333333333336</ele><time>2026-04-19T16:23:08Z</time></trkpt><trkpt lat="45.055639883069155" lon="9.625519352570777"><ele>56.0</ele><time>2026-04-19T16:23:09Z</time></trkpt><trkpt lat="45.05564621264264" lon="9.625202504337752"><ele>56.0</ele><time>2026-04-19T16:23:10Z</time></trkpt><trkpt lat="45.05565300337591" lon="9.62487814583135"><ele>56.0</ele><time>2026-04-19T16:23:11Z</time></trkpt><trkpt lat="45.05565984935891" lon="9.624547827419061"><ele>56.5</ele><time>2026-04-19T16:23:12Z</time></trkpt><trkpt lat="45.055666988927676" lon="9.624214941009168"><ele>57.0</ele><time>2026-04-19T16:23:13Z</time></trkpt><trkpt lat="45.05567663713166" lon="9.623873626123753"><ele>56.66666666666667</ele><time>2026-04-19T16:23:14Z</time></trkpt><trkpt lat="45.05568786690991" lon="9.62355408658772"><ele>56.333333333333336</ele><time>2026-04-19T16:23:15Z</time></trkpt><trkpt lat="45.0556950194001" lon="9.623238887088373"><ele>56.0</ele><time>2026-04-19T16:23:16Z</time></trkpt><trkpt lat="45.05570432964327" lon="9.622938369064547"><ele>56.333333333333336</ele><time>2026-04-19T16:23:17Z</time></trkpt><trkpt lat="45.05571379309057" lon="9.622652058576532"><ele>56.66666666666667</ele><time>2026-04-19T16:23:18Z</time></trkpt><trkpt lat="45.055723053213896" lon="9.622360958545913"><ele>57.0</ele><time>2026-04-19T16:23:19Z</time></trkpt><trkpt lat="45.055732600035334" lon="9.62206546266376"><ele>57.33333333333333</ele><time>2026-04-19T16:23:20Z</time></trkpt><trkpt lat="45.055744708501976" lon="9.621773513710197"><ele>57.666666666666664</ele><time>2026-04-19T16:23:21Z</time></trkpt><trkpt lat="45.05575567162538" lon="9.621485078979024"><ele>58.0</ele><time>2026-04-19T16:23:22Z</time></trkpt><trkpt lat="45.05575852952938" lon="9.621210948948077"><ele>58.33333333333333</ele><time>2026-04-19T16:23:23Z</time></trkpt><trkpt lat="45.05576607783046" lon="9.620944910133845"><ele>58.66666666666667</ele><time>2026-04-19T16:23:24Z</time></trkpt><trkpt lat="45.055771561834646" lon="9.620667071413667"><ele>59.0</ele><time>2026-04-19T16:23:25Z</time></trkpt><trkpt lat="45.0557761663888" lon="9.620389445478096"><ele>58.66666666666667</ele><time>2026-04-19T16:23:26Z</time></trkpt><trkpt lat="45.05578489343049" lon="9.620125908275678"><ele>58.33333333333333</ele><time>2026-04-19T16:23:27Z</time></trkpt><trkpt lat="45.05579365138515" lon="9.61988027109142"><ele>58.0</ele><time>2026-04-19T16:23:28Z</time></trkpt><trkpt lat="45.05580422842008" lon="9.619646584088777"><ele>58.0</ele><time>2026-04-19T16:23:29Z</time></trkpt><trkpt lat="45.05580965180546" lon="9.61942846774995"><ele>58.0</ele><time>2026-04-19T16:23:30Z</time></trkpt><trkpt lat="45.055814329299615" lon="9.619221560992404"><ele>58.0</ele><time>2026-04-19T16:23:31Z</time></trkpt><trkpt lat="45.05581894904912" lon="9.619020059748838"><ele>58.0</ele><time>2026-04-19T16:23:32Z</time></trkpt><trkpt lat="45.05582478270324" lon="9.618821017859844"><ele>58.33333333333333</ele><time>2026-04-19T16:23:33Z</time></trkpt><trkpt lat="45.055829893060235" lon="9.618616364047892"><ele>58.66666666666667</ele><time>2026-04-19T16:23:34Z</time></trkpt><trkpt lat="45.05583613775452" lon="9.618400742648577"><ele>59.0</ele><time>2026-04-19T16:23:35Z</time></trkpt><trkpt lat="45.05584486875541" lon="9.618180841013537"><ele>59.0</ele><time>2026-04-19T16:23:36Z</time></trkpt><trkpt lat="45.055851966251986" lon="9.617954074287631"><ele>59.0</ele><time>2026-04-19T16:23:37Z</time></trkpt><trkpt lat="45.05585656166548" lon="9.617712891952557"><ele>59.0</ele><time>2026-04-19T16:23:38Z</time></trkpt><trkpt lat="45.05585825815251" lon="9.617474468508016"><ele>59.0</ele><time>2026-04-19T16:23:39Z</time></trkpt><trkpt lat="45.055861047596" lon="9.617243352496498"><ele>59.0</ele><time>2026-04-19T16:23:40Z</time></trkpt><trkpt lat="45.05586742424447" lon="9.617019041025102"><ele>59.0</ele><time>2026-04-19T16:23:41Z</time></trkpt><trkpt lat="45.055874554501834" lon="9.616799030244238"><ele>59.0</ele><time>2026-04-19T16:23:42Z</time></trkpt><trkpt lat="45.05588116111554" lon="9.616574809922728"><ele>59.0</ele><time>2026-04-19T16:23:43Z</time></trkpt><trkpt lat="45.055886519948544" lon="9.616348113757056"><ele>59.0</ele><time>2026-04-19T16:23:44Z</time></trkpt><trkpt lat="45.055890490942545" lon="9.616132829399703"><ele>59.0</ele><time>2026-04-19T16:23:45Z</time></trkpt><trkpt lat="45.05589763120713" lon="9.615919762840596"><ele>59.0</ele><time>2026-04-19T16:23:46Z</time></trkpt><trkpt lat="45.055906355387485" lon="9.615704903630862"><ele>59.0</ele><time>2026-04-19T16:23:47Z</time></trkpt><trkpt lat="45.05591279152502" lon="9.615504842439055"><ele>59.0</ele><time>2026-04-19T16:23:48Z</time></trkpt><trkpt lat="45.055918959463554" lon="9.615312606937069"><ele>59.25</ele><time>2026-04-19T16:23:49Z</time></trkpt><trkpt lat="45.05592365403301" lon="9.615124437580475"><ele>59.5</ele><time>2026-04-19T16:23:50Z</time></trkpt><trkpt lat="45.05592555326076" lon="9.614938641877172"><ele>59.75</ele><time>2026-04-19T16:23:51Z</time></trkpt><trkpt lat="45.05592573867877" lon="9.614750707741244"><ele>60.0</ele><time>2026-04-19T16:23:52Z</time></trkpt><trkpt lat="45.05592769395692" lon="9.61456754875098"><ele>59.75</ele><time>2026-04-19T16:23:53Z</time></trkpt><trkpt lat="45.05592977617429" lon="9.614395079212663"><ele>59.5</ele><time>2026-04-19T16:23:54Z</time></trkpt><trkpt lat="45.05593417995363" lon="9.614232030373197"><ele>59.25</ele><time>2026-04-19T16:23:55Z</time></trkpt><trkpt lat="45.055937322842595" lon="9.614061804114424"><ele>59.0</ele><time>2026-04-19T16:23:56Z</time></trkpt><trkpt lat="45.05593559116402" lon="9.61389191507765"><ele>59.0</ele><time>2026-04-19T16:23:57Z</time></trkpt><trkpt lat="45.05593496589791" lon="9.613715944435118"><ele>59.0</ele><time>2026-04-19T16:23:58Z</time></trkpt><trkpt lat="45.05593532246675" lon="9.613537743877078"><ele>59.0</ele><time>2026-04-19T16:23:59Z</time></trkpt><trkpt lat="45.05594063169837" lon="9.613357055296081"><ele>59.0</ele><time>2026-04-19T16:24:00Z</time></trkpt><trkpt lat="45.055951054987126" lon="9.613168320245695"><ele>59.25</ele><time>2026-04-19T16:24:01Z</time></trkpt><trkpt lat="45.05596253287493" lon="9.612982861375244"><ele>59.5</ele><time>2026-04-19T16:24:02Z</time></trkpt><trkpt lat="45.0559636916752" lon="9.612811851874262"><ele>59.75</ele><time>2026-04-19T16:24:03Z</time></trkpt><trkpt lat="45.0559661573075" lon="9.61264528799916"><ele>60.0</ele><time>2026-04-19T16:24:04Z</time></trkpt><trkpt lat="45.055969969638696" lon="9.612483200486688"><ele>60.0</ele><time>2026-04-19T16:24:05Z</time></trkpt><trkpt lat="45.05597787787423" lon="9.612313846614777"><ele>60.0</ele><time>2026-04-19T16:24:06Z</time></trkpt><trkpt lat="45.05598344511967" lon="9.612146302840571"><ele>60.0</ele><time>2026-04-19T16:24:07Z</time></trkpt><trkpt lat="45.055986152535375" lon="9.611985569952639"><ele>60.0</ele><time>2026-04-19T16:24:08Z</time></trkpt><trkpt lat="45.05599127043038" lon="9.611823093781602"><ele>59.75</ele><time>2026-04-19T16:24:09Z</time></trkpt><trkpt lat="45.05599737146816" lon="9.611652889551037"><ele>59.5</ele><time>2026-04-19T16:24:10Z</time></trkpt><trkpt lat="45.05600227042635" lon="9.611478545862962"><ele>59.25</ele><time>2026-04-19T16:24:11Z</time></trkpt><trkpt lat="45.05600407645153" lon="9.61130190795424"><ele>59.0</ele><time>2026-04-19T16:24:12Z</time></trkpt><trkpt lat="45.0560090330235" lon="9.6111308566457"><ele>59.0</ele><time>2026-04-19T16:24:13Z</time></trkpt><trkpt lat="45.05601361388438" lon="9.610960502106304"><ele>59.0</ele><time>2026-04-19T16:24:14.001Z</time></trkpt><trkpt lat="45.056017281522344" lon="9.610794718928553"><ele>59.0</ele><time>2026-04-19T16:24:15.001Z</time></trkpt><trkpt lat="45.05602521384507" lon="9.610628399706364"><ele>59.0</ele><time>2026-04-19T16:24:16.001Z</time></trkpt><trkpt lat="45.0560297371066" lon="9.610465758816146"><ele>59.2</ele><time>2026-04-19T16:24:17.001Z</time></trkpt><trkpt lat="45.05603512271495" lon="9.610305419701145"><ele>59.400000000000006</ele><time>2026-04-19T16:24:18.001Z</time></trkpt><trkpt lat="45.056035098350826" lon="9.61015049208108"><ele>59.6</ele><time>2026-04-19T16:24:19.001Z</time></trkpt><trkpt lat="45.05604146050055" lon="9.610007049294985"><ele>59.8</ele><time>2026-04-19T16:24:20Z</time></trkpt><trkpt lat="45.05604868738817" lon="9.609868609458598"><ele>60.0</ele><time>2026-04-19T16:24:21Z</time></trkpt><trkpt lat="45.05605311416259" lon="9.609750126974"><ele>60.0</ele><time>2026-04-19T16:24:22Z</time></trkpt><trkpt lat="45.056054879809125" lon="9.609643410563617"><ele>60.0</ele><time>2026-04-19T16:24:23Z</time></trkpt><trkpt lat="45.05605741793773" lon="9.609542558553162"><ele>60.0</ele><time>2026-04-19T16:24:24Z</time></trkpt><trkpt lat="45.05605788845307" lon="9.609449221079622"><ele>60.0</ele><time>2026-04-19T16:24:25Z</time></trkpt><trkpt lat="45.056061727033494" lon="9.609359003483641"><ele>60.0</ele><time>2026-04-19T16:24:26Z</time></trkpt><trkpt lat="45.056062493434005" lon="9.609264627544833"><ele>60.0</ele><time>2026-04-19T16:24:27Z</time></trkpt><trkpt lat="45.05605185841751" lon="9.609124081519283"><ele>60.0</ele><time>2026-04-19T16:24:29Z</time></trkpt><trkpt lat="45.05606654144876" lon="9.609008666257658"><ele>60.0</ele><time>2026-04-19T16:24:31Z</time></trkpt><trkpt lat="45.05605801198328" lon="9.608896010298931"><ele>60.0</ele><time>2026-04-19T16:24:33Z</time></trkpt><trkpt lat="45.056066935511836" lon="9.608790495287264"><ele>60.0</ele><time>2026-04-19T16:24:35Z</time></trkpt><trkpt lat="45.05607512074192" lon="9.608701824562544"><ele>60.0</ele><time>2026-04-19T16:24:37Z</time></trkpt><trkpt lat="45.056082348069374" lon="9.608609291947916"><ele>60.0</ele><time>2026-04-19T16:24:40Z</time></trkpt><trkpt lat="45.05607547638101" lon="9.60851314941241"><ele>60.0</ele><time>2026-04-19T16:25:10Z</time></trkpt><trkpt lat="45.056086974077246" lon="9.608362385364725"><ele>60.333333333333336</ele><time>2026-04-19T16:25:12Z</time></trkpt><trkpt lat="45.05609625816806" lon="9.608259070950538"><ele>60.66666666666667</ele><time>2026-04-19T16:25:13Z</time></trkpt><trkpt lat="45.05610791822689" lon="9.608165913479466"><ele>61.0</ele><time>2026-04-19T16:25:14Z</time></trkpt><trkpt lat="45.05611539323547" lon="9.608075636453108"><ele>61.333333333333336</ele><time>2026-04-19T16:25:15Z</time></trkpt><trkpt lat="45.05612167068908" lon="9.607970145947547"><ele>61.66666666666667</ele><time>2026-04-19T16:25:16Z</time></trkpt><trkpt lat="45.05612423753711" lon="9.607843787541869"><ele>62.0</ele><time>2026-04-19T16:25:17Z</time></trkpt><trkpt lat="45.056125390277145" lon="9.607698552474693"><ele>62.0</ele><time>2026-04-19T16:25:18Z</time></trkpt><trkpt lat="45.05613341113717" lon="9.607539613645404"><ele>62.0</ele><time>2026-04-19T16:25:19Z</time></trkpt><trkpt lat="45.05614234375969" lon="9.607398115722914"><ele>62.0</ele><time>2026-04-19T16:25:20Z</time></trkpt><trkpt lat="45.056136588478246" lon="9.607244804734869"><ele>62.0</ele><time>2026-04-19T16:25:21Z</time></trkpt><trkpt lat="45.0561507702505" lon="9.607101841618668"><ele>62.0</ele><time>2026-04-19T16:25:22Z</time></trkpt><trkpt lat="45.056170531208444" lon="9.606971800823725"><ele>61.5</ele><time>2026-04-19T16:25:23Z</time></trkpt><trkpt lat="45.056198373532446" lon="9.606870188180787"><ele>61.0</ele><time>2026-04-19T16:25:24Z</time></trkpt><trkpt lat="45.05613694237956" lon="9.60654915503381"><ele>60.5</ele><time>2026-04-19T16:25:25Z</time></trkpt><trkpt lat="45.056133893751365" lon="9.606402242877055"><ele>60.0</ele><time>2026-04-19T16:25:26Z</time></trkpt><trkpt lat="45.0561330842183" lon="9.606248751891592"><ele>60.0</ele><time>2026-04-19T16:25:27Z</time></trkpt><trkpt lat="45.05613781100171" lon="9.606077480097168"><ele>60.0</ele><time>2026-04-19T16:25:28Z</time></trkpt><trkpt lat="45.056140793815636" lon="9.6058963658247"><ele>60.0</ele><time>2026-04-19T16:25:29Z</time></trkpt><trkpt lat="45.056143131999455" lon="9.605690518810244"><ele>60.0</ele><time>2026-04-19T16:25:30Z</time></trkpt><trkpt lat="45.05614485873765" lon="9.605475483180875"><ele>60.25</ele><time>2026-04-19T16:25:31Z</time></trkpt><trkpt lat="45.05614546802411" lon="9.605275341872623"><ele>60.5</ele><time>2026-04-19T16:25:32Z</time></trkpt><trkpt lat="45.05614508309683" lon="9.605071120397216"><ele>60.75</ele><time>2026-04-19T16:25:33Z</time></trkpt><trkpt lat="45.056147459725175" lon="9.604852871795556"><ele>61.0</ele><time>2026-04-19T16:25:34Z</time></trkpt><trkpt lat="45.05615077251037" lon="9.604626626660643"><ele>60.666666666666664</ele><time>2026-04-19T16:25:35Z</time></trkpt><trkpt lat="45.056157247912644" lon="9.604389160303139"><ele>60.33333333333333</ele><time>2026-04-19T16:25:36Z</time></trkpt><trkpt lat="45.05616572032898" lon="9.604146131830923"><ele>60.0</ele><time>2026-04-19T16:25:37Z</time></trkpt><trkpt lat="45.05617571775363" lon="9.60388813425922"><ele>60.66666666666667</ele><time>2026-04-19T16:25:38Z</time></trkpt><trkpt lat="45.05618099502539" lon="9.603629750175664"><ele>61.333333333333336</ele><time>2026-04-19T16:25:39Z</time></trkpt><trkpt lat="45.056189422219695" lon="9.603377310573523"><ele>62.0</ele><time>2026-04-19T16:25:40Z</time></trkpt><trkpt lat="45.05620029268645" lon="9.60311185248876"><ele>61.66666666666667</ele><time>2026-04-19T16:25:41Z</time></trkpt><trkpt lat="45.056206624794896" lon="9.602827451008821"><ele>61.33333333333333</ele><time>2026-04-19T16:25:42Z</time></trkpt><trkpt lat="45.056212604708556" lon="9.602537882606892"><ele>61.0</ele><time>2026-04-19T16:25:43Z</time></trkpt><trkpt lat="45.056221773386724" lon="9.602242872381549"><ele>61.0</ele><time>2026-04-19T16:25:44Z</time></trkpt><trkpt lat="45.05623258708244" lon="9.601941162998632"><ele>61.0</ele><time>2026-04-19T16:25:45Z</time></trkpt><trkpt lat="45.056240351026226" lon="9.601635000935829"><ele>61.0</ele><time>2026-04-19T16:25:46Z</time></trkpt><trkpt lat="45.056249506040324" lon="9.601326988996432"><ele>61.33333333333333</ele><time>2026-04-19T16:25:47Z</time></trkpt><trkpt lat="45.05625118522419" lon="9.60101197341561"><ele>61.66666666666667</ele><time>2026-04-19T16:25:48Z</time></trkpt><trkpt lat="45.056259563670814" lon="9.600699905099889"><ele>62.0</ele><time>2026-04-19T16:25:49Z</time></trkpt><trkpt lat="45.05627312556141" lon="9.600385460755776"><ele>62.333333333333336</ele><time>2026-04-19T16:25:50Z</time></trkpt><trkpt lat="45.05628536722447" lon="9.600075890215912"><ele>62.66666666666667</ele><time>2026-04-19T16:25:51Z</time></trkpt><trkpt lat="45.05629543886885" lon="9.599772096824225"><ele>63.0</ele><time>2026-04-19T16:25:52Z</time></trkpt><trkpt lat="45.05630422048154" lon="9.599466183610243"><ele>61.5</ele><time>2026-04-19T16:25:53Z</time></trkpt><trkpt lat="45.05631453664773" lon="9.5991508307937"><ele>60.0</ele><time>2026-04-19T16:25:54Z</time></trkpt><trkpt lat="45.05632672442174" lon="9.598829649173238"><ele>60.5</ele><time>2026-04-19T16:25:55Z</time></trkpt><trkpt lat="45.05633526977224" lon="9.598501814270591"><ele>61.0</ele><time>2026-04-19T16:25:56Z</time></trkpt><trkpt lat="45.056343963312464" lon="9.598167391150213"><ele>61.0</ele><time>2026-04-19T16:25:57Z</time></trkpt><trkpt lat="45.05635100947298" lon="9.597826637932044"><ele>61.0</ele><time>2026-04-19T16:25:58Z</time></trkpt><trkpt lat="45.056358282165135" lon="9.597486331166484"><ele>61.0</ele><time>2026-04-19T16:25:59Z</time></trkpt><trkpt lat="45.05636549793707" lon="9.59714972391094"><ele>61.0</ele><time>2026-04-19T16:26:00Z</time></trkpt><trkpt lat="45.05637291313725" lon="9.596815839726593"><ele>60.5</ele><time>2026-04-19T16:26:01Z</time></trkpt><trkpt lat="45.05637942290212" lon="9.596481329721497"><ele>60.0</ele><time>2026-04-19T16:26:02Z</time></trkpt><trkpt lat="45.056386534296394" lon="9.59614780517118"><ele>60.0</ele><time>2026-04-19T16:26:03Z</time></trkpt><trkpt lat="45.05639585478007" lon="9.595810858338725"><ele>60.0</ele><time>2026-04-19T16:26:04Z</time></trkpt><trkpt lat="45.0564098719331" lon="9.59547522016614"><ele>59.5</ele><time>2026-04-19T16:26:05Z</time></trkpt><trkpt lat="45.05642242123874" lon="9.595141140127668"><ele>59.0</ele><time>2026-04-19T16:26:06Z</time></trkpt><trkpt lat="45.05643585125952" lon="9.594804164750347"><ele>59.0</ele><time>2026-04-19T16:26:07Z</time></trkpt><trkpt lat="45.05644707615522" lon="9.594465864209477"><ele>59.0</ele><time>2026-04-19T16:26:08Z</time></trkpt><trkpt lat="45.056452839097226" lon="9.594127993759429"><ele>59.0</ele><time>2026-04-19T16:26:09Z</time></trkpt><trkpt lat="45.0564567167034" lon="9.593787068359982"><ele>59.0</ele><time>2026-04-19T16:26:10Z</time></trkpt><trkpt lat="45.056460897126136" lon="9.593448056040108"><ele>59.5</ele><time>2026-04-19T16:26:11Z</time></trkpt><trkpt lat="45.056467431104835" lon="9.593107673665795"><ele>60.0</ele><time>2026-04-19T16:26:12Z</time></trkpt><trkpt lat="45.056469486446304" lon="9.592767019410221"><ele>60.0</ele><time>2026-04-19T16:26:13Z</time></trkpt><trkpt lat="45.05647187443202" lon="9.592426639250098"><ele>60.0</ele><time>2026-04-19T16:26:14Z</time></trkpt><trkpt lat="45.05647471555831" lon="9.59208578037981"><ele>59.5</ele><time>2026-04-19T16:26:15Z</time></trkpt><trkpt lat="45.05647559733714" lon="9.591741999310436"><ele>59.0</ele><time>2026-04-19T16:26:16Z</time></trkpt><trkpt lat="45.05647227087597" lon="9.591398084448373"><ele>59.0</ele><time>2026-04-19T16:26:17Z</time></trkpt><trkpt lat="45.05646501182123" lon="9.591055230759068"><ele>59.0</ele><time>2026-04-19T16:26:18Z</time></trkpt><trkpt lat="45.056455218698765" lon="9.590712129685677"><ele>59.0</ele><time>2026-04-19T16:26:19Z</time></trkpt><trkpt lat="45.056444074367626" lon="9.590370422416086"><ele>59.0</ele><time>2026-04-19T16:26:20Z</time></trkpt><trkpt lat="45.05643423027877" lon="9.590027500294832"><ele>58.0</ele><time>2026-04-19T16:26:21Z</time></trkpt><trkpt lat="45.056425080690644" lon="9.589686792370145"><ele>57.0</ele><time>2026-04-19T16:26:22Z</time></trkpt><trkpt lat="45.05641388343847" lon="9.589346170096134"><ele>57.0</ele><time>2026-04-19T16:26:23Z</time></trkpt><trkpt lat="45.05640517177227" lon="9.589000244015642"><ele>57.0</ele><time>2026-04-19T16:26:24Z</time></trkpt><trkpt lat="45.056395056370064" lon="9.588658042562766"><ele>57.5</ele><time>2026-04-19T16:26:25Z</time></trkpt><trkpt lat="45.056383707610514" lon="9.588319125263906"><ele>58.0</ele><time>2026-04-19T16:26:26Z</time></trkpt><trkpt lat="45.056374940567665" lon="9.587982596005237"><ele>58.5</ele><time>2026-04-19T16:26:27Z</time></trkpt><trkpt lat="45.05636913383424" lon="9.587647675654882"><ele>59.0</ele><time>2026-04-19T16:26:28Z</time></trkpt><trkpt lat="45.056365761325935" lon="9.587319216960312"><ele>58.5</ele><time>2026-04-19T16:26:29Z</time></trkpt><trkpt lat="45.05636651891036" lon="9.586980628879637"><ele>58.0</ele><time>2026-04-19T16:26:30Z</time></trkpt><trkpt lat="45.056372034774284" lon="9.586648756479038"><ele>58.0</ele><time>2026-04-19T16:26:31Z</time></trkpt><trkpt lat="45.05637477908199" lon="9.586330308451563"><ele>58.0</ele><time>2026-04-19T16:26:32Z</time></trkpt><trkpt lat="45.0563825873444" lon="9.585997766809355"><ele>59.0</ele><time>2026-04-19T16:26:33Z</time></trkpt><trkpt lat="45.05639688011392" lon="9.585663452285525"><ele>60.0</ele><time>2026-04-19T16:26:34Z</time></trkpt><trkpt lat="45.05640733824382" lon="9.585334523967202"><ele>60.0</ele><time>2026-04-19T16:26:35Z</time></trkpt><trkpt lat="45.056417463907984" lon="9.585001986507061"><ele>60.0</ele><time>2026-04-19T16:26:36Z</time></trkpt><trkpt lat="45.05643242746412" lon="9.584658226664713"><ele>60.0</ele><time>2026-04-19T16:26:37Z</time></trkpt><trkpt lat="45.056447707379654" lon="9.584322736107927"><ele>60.0</ele><time>2026-04-19T16:26:38Z</time></trkpt><trkpt lat="45.05646047667166" lon="9.58398701550057"><ele>61.0</ele><time>2026-04-19T16:26:39Z</time></trkpt><trkpt lat="45.05647300756314" lon="9.583649149572983"><ele>62.0</ele><time>2026-04-19T16:26:40Z</time></trkpt><trkpt lat="45.05648748935699" lon="9.583309026737368"><ele>62.0</ele><time>2026-04-19T16:26:41Z</time></trkpt><trkpt lat="45.05650018803094" lon="9.582967094954391"><ele>62.0</ele><time>2026-04-19T16:26:42Z</time></trkpt><trkpt lat="45.05651461527128" lon="9.582625477847573"><ele>62.5</ele><time>2026-04-19T16:26:43Z</time></trkpt><trkpt lat="45.05653163351193" lon="9.582283110553176"><ele>63.0</ele><time>2026-04-19T16:26:44Z</time></trkpt><trkpt lat="45.05655254008671" lon="9.581937227112128"><ele>63.0</ele><time>2026-04-19T16:26:45Z</time></trkpt><trkpt lat="45.05657153163287" lon="9.58159188254268"><ele>63.0</ele><time>2026-04-19T16:26:46Z</time></trkpt><trkpt lat="45.056586590512914" lon="9.581247726822903"><ele>62.5</ele><time>2026-04-19T16:26:47Z</time></trkpt><trkpt lat="45.056597123956486" lon="9.580899773272026"><ele>62.0</ele><time>2026-04-19T16:26:48Z</time></trkpt><trkpt lat="45.05660844804214" lon="9.58055309083167"><ele>61.5</ele><time>2026-04-19T16:26:49Z</time></trkpt><trkpt lat="45.056624710656166" lon="9.580197901448305"><ele>61.0</ele><time>2026-04-19T16:26:50Z</time></trkpt><trkpt lat="45.056638311500876" lon="9.579844251157311"><ele>61.0</ele><time>2026-04-19T16:26:51Z</time></trkpt><trkpt lat="45.05665375654836" lon="9.579491567542597"><ele>61.0</ele><time>2026-04-19T16:26:52Z</time></trkpt><trkpt lat="45.056668579266336" lon="9.579138842258084"><ele>61.0</ele><time>2026-04-19T16:26:53Z</time></trkpt><trkpt lat="45.05668402344056" lon="9.578788580924394"><ele>61.0</ele><time>2026-04-19T16:26:54Z</time></trkpt><trkpt lat="45.05670364611933" lon="9.578433807761867"><ele>61.0</ele><time>2026-04-19T16:26:55Z</time></trkpt><trkpt lat="45.05672201066756" lon="9.578083557614258"><ele>61.0</ele><time>2026-04-19T16:26:56Z</time></trkpt><trkpt lat="45.056740050880386" lon="9.577736229601971"><ele>60.5</ele><time>2026-04-19T16:26:57Z</time></trkpt><trkpt lat="45.056755708762985" lon="9.577392857016992"><ele>60.0</ele><time>2026-04-19T16:26:58Z</time></trkpt><trkpt lat="45.05676982491465" lon="9.577050286071938"><ele>60.0</ele><time>2026-04-19T16:26:59Z</time></trkpt><trkpt lat="45.05678161622573" lon="9.57670751554704"><ele>60.0</ele><time>2026-04-19T16:27:00Z</time></trkpt><trkpt lat="45.05679116708951" lon="9.576366514614774"><ele>59.0</ele><time>2026-04-19T16:27:01Z</time></trkpt><trkpt lat="45.056802673342446" lon="9.576024714059868"><ele>58.0</ele><time>2026-04-19T16:27:02Z</time></trkpt><trkpt lat="45.05681653540566" lon="9.575684523590821"><ele>59.0</ele><time>2026-04-19T16:27:03Z</time></trkpt><trkpt lat="45.05683209733492" lon="9.575343923695515"><ele>60.0</ele><time>2026-04-19T16:27:04Z</time></trkpt><trkpt lat="45.05684720570999" lon="9.575003012922048"><ele>60.0</ele><time>2026-04-19T16:27:05Z</time></trkpt><trkpt lat="45.05686015943315" lon="9.574663752616889"><ele>60.0</ele><time>2026-04-19T16:27:06Z</time></trkpt><trkpt lat="45.05687281635202" lon="9.574324507744407"><ele>60.0</ele><time>2026-04-19T16:27:07Z</time></trkpt><trkpt lat="45.05688516201823" lon="9.573983159070513"><ele>60.0</ele><time>2026-04-19T16:27:08Z</time></trkpt><trkpt lat="45.05689778279722" lon="9.573640792227767"><ele>59.5</ele><time>2026-04-19T16:27:09Z</time></trkpt><trkpt lat="45.05691236534078" lon="9.573296114532127"><ele>59.0</ele><time>2026-04-19T16:27:10Z</time></trkpt><trkpt lat="45.05692638244139" lon="9.572952866793964"><ele>59.0</ele><time>2026-04-19T16:27:11Z</time></trkpt><trkpt lat="45.05694204410118" lon="9.572605882011935"><ele>59.0</ele><time>2026-04-19T16:27:12Z</time></trkpt><trkpt lat="45.05695532766575" lon="9.572262318055712"><ele>59.5</ele><time>2026-04-19T16:27:13Z</time></trkpt><trkpt lat="45.056968415846775" lon="9.571914572881989"><ele>60.0</ele><time>2026-04-19T16:27:14Z</time></trkpt><trkpt lat="45.05697810701451" lon="9.571567122822808"><ele>60.0</ele><time>2026-04-19T16:27:15Z</time></trkpt><trkpt lat="45.05698320220723" lon="9.571220945208509"><ele>60.0</ele><time>2026-04-19T16:27:16Z</time></trkpt><trkpt lat="45.05698523710575" lon="9.570874796969775"><ele>60.0</ele><time>2026-04-19T16:27:17Z</time></trkpt><trkpt lat="45.056984429725354" lon="9.570531115202893"><ele>60.0</ele><time>2026-04-19T16:27:18Z</time></trkpt><trkpt lat="45.05698262807177" lon="9.570186404451094"><ele>60.5</ele><time>2026-04-19T16:27:19Z</time></trkpt><trkpt lat="45.0569808588538" lon="9.56984117083951"><ele>61.0</ele><time>2026-04-19T16:27:20Z</time></trkpt><trkpt lat="45.056977956139505" lon="9.569499364647317"><ele>61.0</ele><time>2026-04-19T16:27:21Z</time></trkpt><trkpt lat="45.05697768013746" lon="9.569154550359098"><ele>61.0</ele><time>2026-04-19T16:27:22Z</time></trkpt><trkpt lat="45.05697808788222" lon="9.568814175358629"><ele>60.5</ele><time>2026-04-19T16:27:23Z</time></trkpt><trkpt lat="45.05698041996751" lon="9.568474389795007"><ele>60.0</ele><time>2026-04-19T16:27:24Z</time></trkpt><trkpt lat="45.056984829681696" lon="9.568136001947876"><ele>60.0</ele><time>2026-04-19T16:27:25Z</time></trkpt><trkpt lat="45.056991598638085" lon="9.567798007155425"><ele>60.0</ele><time>2026-04-19T16:27:26Z</time></trkpt><trkpt lat="45.057002885377344" lon="9.567462282400083"><ele>60.0</ele><time>2026-04-19T16:27:27Z</time></trkpt><trkpt lat="45.05702020946854" lon="9.567124431371692"><ele>60.0</ele><time>2026-04-19T16:27:28Z</time></trkpt><trkpt lat="45.05704708572737" lon="9.566784345252291"><ele>60.0</ele><time>2026-04-19T16:27:29Z</time></trkpt><trkpt lat="45.05708077077223" lon="9.566446270856641"><ele>60.0</ele><time>2026-04-19T16:27:30Z</time></trkpt><trkpt lat="45.05712239519158" lon="9.5661088757625"><ele>60.0</ele><time>2026-04-19T16:27:31Z</time></trkpt><trkpt lat="45.05716776853401" lon="9.565773484924135"><ele>60.0</ele><time>2026-04-19T16:27:32Z</time></trkpt><trkpt lat="45.057212916615924" lon="9.565436048753073"><ele>60.5</ele><time>2026-04-19T16:27:33Z</time></trkpt><trkpt lat="45.05725549975301" lon="9.565100447441571"><ele>61.0</ele><time>2026-04-19T16:27:34Z</time></trkpt><trkpt lat="45.057299274380554" lon="9.564760722698846"><ele>61.5</ele><time>2026-04-19T16:27:35Z</time></trkpt><trkpt lat="45.05734157759334" lon="9.564425161471387"><ele>62.0</ele><time>2026-04-19T16:27:36Z</time></trkpt><trkpt lat="45.05738511286" lon="9.564091058580019"><ele>62.0</ele><time>2026-04-19T16:27:37Z</time></trkpt><trkpt lat="45.057429895469404" lon="9.563752175857172"><ele>62.0</ele><time>2026-04-19T16:27:38Z</time></trkpt><trkpt lat="45.05747660234429" lon="9.5634136352781"><ele>61.5</ele><time>2026-04-19T16:27:39Z</time></trkpt><trkpt lat="45.05752456236115" lon="9.563076871091617"><ele>61.0</ele><time>2026-04-19T16:27:40Z</time></trkpt><trkpt lat="45.05757425547229" lon="9.562738512105756"><ele>60.5</ele><time>2026-04-19T16:27:41Z</time></trkpt><trkpt lat="45.05762072813437" lon="9.562400625205795"><ele>60.0</ele><time>2026-04-19T16:27:42Z</time></trkpt><trkpt lat="45.057666492681555" lon="9.562060504424272"><ele>61.0</ele><time>2026-04-19T16:27:43Z</time></trkpt><trkpt lat="45.05770969289471" lon="9.561722957516825"><ele>62.0</ele><time>2026-04-19T16:27:44Z</time></trkpt><trkpt lat="45.05774799109382" lon="9.561384365849543"><ele>61.5</ele><time>2026-04-19T16:27:45Z</time></trkpt><trkpt lat="45.05778319442831" lon="9.561040909946318"><ele>61.0</ele><time>2026-04-19T16:27:46Z</time></trkpt><trkpt lat="45.05781379789544" lon="9.560700474207348"><ele>60.5</ele><time>2026-04-19T16:27:47Z</time></trkpt><trkpt lat="45.057847280343154" lon="9.56036136763212"><ele>60.0</ele><time>2026-04-19T16:27:48Z</time></trkpt><trkpt lat="45.057879381037694" lon="9.56002017368208"><ele>60.0</ele><time>2026-04-19T16:27:49Z</time></trkpt><trkpt lat="45.05790953701156" lon="9.559679340062239"><ele>60.0</ele><time>2026-04-19T16:27:50Z</time></trkpt><trkpt lat="45.057937828073236" lon="9.559332818972996"><ele>60.5</ele><time>2026-04-19T16:27:51Z</time></trkpt><trkpt lat="45.05796446030545" lon="9.558984920459054"><ele>61.0</ele><time>2026-04-19T16:27:52Z</time></trkpt><trkpt lat="45.057983591133365" lon="9.558642143303231"><ele>61.0</ele><time>2026-04-19T16:27:53Z</time></trkpt><trkpt lat="45.057995929288325" lon="9.55829517661672"><ele>61.0</ele><time>2026-04-19T16:27:54Z</time></trkpt><trkpt lat="45.057998142297016" lon="9.5579450253183"><ele>61.0</ele><time>2026-04-19T16:27:55Z</time></trkpt><trkpt lat="45.05798982369758" lon="9.557596661407493"><ele>61.0</ele><time>2026-04-19T16:27:56Z</time></trkpt><trkpt lat="45.05796912347717" lon="9.557242476802125"><ele>62.0</ele><time>2026-04-19T16:27:57Z</time></trkpt><trkpt lat="45.05793474029343" lon="9.556891142262646"><ele>63.0</ele><time>2026-04-19T16:27:58Z</time></trkpt><trkpt lat="45.057890795336085" lon="9.556546091436822"><ele>62.5</ele><time>2026-04-19T16:27:59Z</time></trkpt><trkpt lat="45.05784447817241" lon="9.556200122512616"><ele>62.0</ele><time>2026-04-19T16:28:00Z</time></trkpt><trkpt lat="45.05779672860901" lon="9.555857545346694"><ele>62.0</ele><time>2026-04-19T16:28:01Z</time></trkpt><trkpt lat="45.057757961324306" lon="9.555524637382822"><ele>62.0</ele><time>2026-04-19T16:28:02Z</time></trkpt><trkpt lat="45.05772126084059" lon="9.55520168267941"><ele>61.66666666666667</ele><time>2026-04-19T16:28:03Z</time></trkpt><trkpt lat="45.057684849242804" lon="9.55489014902703"><ele>61.33333333333333</ele><time>2026-04-19T16:28:04Z</time></trkpt><trkpt lat="45.05765164122597" lon="9.554590339355713"><ele>61.0</ele><time>2026-04-19T16:28:05Z</time></trkpt><trkpt lat="45.05762153074855" lon="9.554304015492267"><ele>60.666666666666664</ele><time>2026-04-19T16:28:06Z</time></trkpt><trkpt lat="45.05759281345027" lon="9.554031955182538"><ele>60.33333333333333</ele><time>2026-04-19T16:28:07Z</time></trkpt><trkpt lat="45.057568070399526" lon="9.553776079544255"><ele>60.0</ele><time>2026-04-19T16:28:08Z</time></trkpt><trkpt lat="45.057553573551495" lon="9.553535227668945"><ele>61.0</ele><time>2026-04-19T16:28:09Z</time></trkpt><trkpt lat="45.05754993329357" lon="9.553309364835304"><ele>62.0</ele><time>2026-04-19T16:28:10Z</time></trkpt><trkpt lat="45.05755406969075" lon="9.553095522054209"><ele>63.0</ele><time>2026-04-19T16:28:11Z</time></trkpt><trkpt lat="45.0575630867618" lon="9.552896747337153"><ele>63.25</ele><time>2026-04-19T16:28:12Z</time></trkpt><trkpt lat="45.0575755520139" lon="9.55270646669267"><ele>63.5</ele><time>2026-04-19T16:28:13Z</time></trkpt><trkpt lat="45.05758738828861" lon="9.552526372237958"><ele>63.75</ele><time>2026-04-19T16:28:14Z</time></trkpt><trkpt lat="45.057598370433816" lon="9.552354766255835"><ele>64.0</ele><time>2026-04-19T16:28:15Z</time></trkpt><trkpt lat="45.05760527163723" lon="9.55218752137567"><ele>64.0</ele><time>2026-04-19T16:28:16Z</time></trkpt><trkpt lat="45.05761432107966" lon="9.552029921771917"><ele>64.0</ele><time>2026-04-19T16:28:17Z</time></trkpt><trkpt lat="45.05762823171467" lon="9.551883444883764"><ele>64.0</ele><time>2026-04-19T16:28:18Z</time></trkpt><trkpt lat="45.05763786180018" lon="9.551733939548411"><ele>64.0</ele><time>2026-04-19T16:28:19Z</time></trkpt><trkpt lat="45.05764887361862" lon="9.551569250169422"><ele>64.0</ele><time>2026-04-19T16:28:20Z</time></trkpt><trkpt lat="45.05766524459912" lon="9.551406239775133"><ele>64.0</ele><time>2026-04-19T16:28:21Z</time></trkpt><trkpt lat="45.057680821757344" lon="9.551221831779968"><ele>64.0</ele><time>2026-04-19T16:28:22Z</time></trkpt><trkpt lat="45.05771230561912" lon="9.55102239836901"><ele>64.0</ele><time>2026-04-19T16:28:23Z</time></trkpt><trkpt lat="45.05775258989094" lon="9.550813826745282"><ele>64.0</ele><time>2026-04-19T16:28:24Z</time></trkpt><trkpt lat="45.05780528784929" lon="9.550599381755594"><ele>64.33333333333333</ele><time>2026-04-19T16:28:25Z</time></trkpt><trkpt lat="45.05786352876192" lon="9.550381241558838"><ele>64.66666666666667</ele><time>2026-04-19T16:28:26Z</time></trkpt><trkpt lat="45.05792293758242" lon="9.550158959624058"><ele>65.0</ele><time>2026-04-19T16:28:27Z</time></trkpt><trkpt lat="45.057980468069005" lon="9.549924717096118"><ele>64.33333333333334</ele><time>2026-04-19T16:28:28Z</time></trkpt><trkpt lat="45.05803406958157" lon="9.54969273976106"><ele>63.66666666666667</ele><time>2026-04-19T16:28:29Z</time></trkpt><trkpt lat="45.05807450832559" lon="9.549475980606092"><ele>63.0</ele><time>2026-04-19T16:28:30Z</time></trkpt><trkpt lat="45.0580953882239" lon="9.54930826852861"><ele>63.0</ele><time>2026-04-19T16:28:31Z</time></trkpt><trkpt lat="45.058086555893546" lon="9.549161606603343"><ele>63.0</ele><time>2026-04-19T16:28:32Z</time></trkpt><trkpt lat="45.058118521757976" lon="9.548731137655064"><ele>63.0</ele><time>2026-04-19T16:28:33Z</time></trkpt><trkpt lat="45.05810500725949" lon="9.548489752379869"><ele>62.33333333333333</ele><time>2026-04-19T16:28:34Z</time></trkpt><trkpt lat="45.058086795013644" lon="9.548244691324122"><ele>61.666666666666664</ele><time>2026-04-19T16:28:35Z</time></trkpt><trkpt lat="45.058062678550435" lon="9.547985123167981"><ele>61.0</ele><time>2026-04-19T16:28:36Z</time></trkpt><trkpt lat="45.0580347489364" lon="9.547731787653493"><ele>60.666666666666664</ele><time>2026-04-19T16:28:37Z</time></trkpt><trkpt lat="45.057998245235595" lon="9.547478129502448"><ele>60.33333333333333</ele><time>2026-04-19T16:28:38Z</time></trkpt><trkpt lat="45.057951403181626" lon="9.547239551082123"><ele>60.0</ele><time>2026-04-19T16:28:39Z</time></trkpt><trkpt lat="45.057897692397134" lon="9.546994058914846"><ele>60.0</ele><time>2026-04-19T16:28:40Z</time></trkpt><trkpt lat="45.05784546169541" lon="9.546736982952211"><ele>60.0</ele><time>2026-04-19T16:28:41Z</time></trkpt><trkpt lat="45.057790147444784" lon="9.546476922523937"><ele>60.0</ele><time>2026-04-19T16:28:42Z</time></trkpt><trkpt lat="45.05773421293811" lon="9.546211531558018"><ele>60.33333333333333</ele><time>2026-04-19T16:28:43Z</time></trkpt><trkpt lat="45.05767790660627" lon="9.545940325228566"><ele>60.666666666666664</ele><time>2026-04-19T16:28:44Z</time></trkpt><trkpt lat="45.05761844288654" lon="9.545656493020028"><ele>61.0</ele><time>2026-04-19T16:28:45Z</time></trkpt><trkpt lat="45.05756214968169" lon="9.545381666248788"><ele>61.33333333333333</ele><time>2026-04-19T16:28:46Z</time></trkpt><trkpt lat="45.05751333139262" lon="9.545093386423618"><ele>61.66666666666667</ele><time>2026-04-19T16:28:47Z</time></trkpt><trkpt lat="45.05746860766605" lon="9.544803982023657"><ele>62.0</ele><time>2026-04-19T16:28:48Z</time></trkpt><trkpt lat="45.05742935485558" lon="9.54451154693178"><ele>62.66666666666667</ele><time>2026-04-19T16:28:49Z</time></trkpt><trkpt lat="45.05739603792648" lon="9.544228393729835"><ele>63.33333333333333</ele><time>2026-04-19T16:28:50Z</time></trkpt><trkpt lat="45.057369533232134" lon="9.543950246035454"><ele>64.0</ele><time>2026-04-19T16:28:51Z</time></trkpt><trkpt lat="45.057344670681815" lon="9.543676238332779"><ele>64.33333333333333</ele><time>2026-04-19T16:28:52Z</time></trkpt><trkpt lat="45.05731623033815" lon="9.543392377519892"><ele>64.66666666666667</ele><time>2026-04-19T16:28:53Z</time></trkpt><trkpt lat="45.057285066150044" lon="9.543089693758937"><ele>65.0</ele><time>2026-04-19T16:28:54Z</time></trkpt><trkpt lat="45.05728804581153" lon="9.5427656524869"><ele>65.0</ele><time>2026-04-19T16:28:55Z</time></trkpt><trkpt lat="45.05727137886014" lon="9.542409456612292"><ele>65.0</ele><time>2026-04-19T16:28:56Z</time></trkpt><trkpt lat="45.05725253852779" lon="9.542040851392"><ele>65.0</ele><time>2026-04-19T16:28:57Z</time></trkpt><trkpt lat="45.05721921940873" lon="9.541661198251708"><ele>65.0</ele><time>2026-04-19T16:28:58Z</time></trkpt><trkpt lat="45.05722372091069" lon="9.541319505602864"><ele>64.0</ele><time>2026-04-19T16:28:59Z</time></trkpt><trkpt lat="45.05721331213709" lon="9.540952058263276"><ele>63.0</ele><time>2026-04-19T16:29:00Z</time></trkpt><trkpt lat="45.057193440277786" lon="9.540573352851982"><ele>62.5</ele><time>2026-04-19T16:29:01Z</time></trkpt><trkpt lat="45.05717052347693" lon="9.540201688342991"><ele>62.0</ele><time>2026-04-19T16:29:02Z</time></trkpt><trkpt lat="45.05715116099012" lon="9.53983459514009"><ele>62.5</ele><time>2026-04-19T16:29:03Z</time></trkpt><trkpt lat="45.05713124804335" lon="9.53947279864133"><ele>63.0</ele><time>2026-04-19T16:29:04Z</time></trkpt><trkpt lat="45.057110476153575" lon="9.539106625297723"><ele>63.0</ele><time>2026-04-19T16:29:05Z</time></trkpt><trkpt lat="45.057093733228896" lon="9.538740717172479"><ele>63.0</ele><time>2026-04-19T16:29:06Z</time></trkpt><trkpt lat="45.05707812519352" lon="9.53837463563624"><ele>63.0</ele><time>2026-04-19T16:29:07Z</time></trkpt><trkpt lat="45.05706082602082" lon="9.538009432577493"><ele>63.0</ele><time>2026-04-19T16:29:08Z</time></trkpt><trkpt lat="45.05704594489074" lon="9.53764617915516"><ele>63.0</ele><time>2026-04-19T16:29:09Z</time></trkpt><trkpt lat="45.05703005076539" lon="9.537282651823137"><ele>63.0</ele><time>2026-04-19T16:29:10Z</time></trkpt><trkpt lat="45.05701172664557" lon="9.536917906156152"><ele>63.0</ele><time>2026-04-19T16:29:11Z</time></trkpt><trkpt lat="45.05698989631308" lon="9.536551018955393"><ele>63.0</ele><time>2026-04-19T16:29:12Z</time></trkpt><trkpt lat="45.05697684696217" lon="9.536188852202903"><ele>63.0</ele><time>2026-04-19T16:29:13Z</time></trkpt><trkpt lat="45.05695722202789" lon="9.535824246099361"><ele>63.0</ele><time>2026-04-19T16:29:14Z</time></trkpt><trkpt lat="45.05693791331999" lon="9.535464349207604"><ele>63.0</ele><time>2026-04-19T16:29:15Z</time></trkpt><trkpt lat="45.056922571558864" lon="9.535104969149385"><ele>63.0</ele><time>2026-04-19T16:29:16Z</time></trkpt><trkpt lat="45.05690610403172" lon="9.534744547739702"><ele>62.5</ele><time>2026-04-19T16:29:17Z</time></trkpt><trkpt lat="45.05689123949303" lon="9.534383678118221"><ele>62.0</ele><time>2026-04-19T16:29:18Z</time></trkpt><trkpt lat="45.0568749219787" lon="9.534023280853125"><ele>62.0</ele><time>2026-04-19T16:29:19Z</time></trkpt><trkpt lat="45.056857646206055" lon="9.533666337555111"><ele>62.0</ele><time>2026-04-19T16:29:20Z</time></trkpt><trkpt lat="45.056838545365935" lon="9.533310239579892"><ele>62.0</ele><time>2026-04-19T16:29:21Z</time></trkpt><trkpt lat="45.05681760782476" lon="9.532953018946385"><ele>62.0</ele><time>2026-04-19T16:29:22Z</time></trkpt><trkpt lat="45.056795905804805" lon="9.532598716554627"><ele>62.0</ele><time>2026-04-19T16:29:23Z</time></trkpt><trkpt lat="45.05678018993433" lon="9.532247818684192"><ele>62.0</ele><time>2026-04-19T16:29:24Z</time></trkpt><trkpt lat="45.05676235529032" lon="9.531898937065627"><ele>62.0</ele><time>2026-04-19T16:29:25Z</time></trkpt><trkpt lat="45.0567429779683" lon="9.531549117840617"><ele>62.0</ele><time>2026-04-19T16:29:26Z</time></trkpt><trkpt lat="45.056732540946584" lon="9.531205474867702"><ele>60.5</ele><time>2026-04-19T16:29:27Z</time></trkpt><trkpt lat="45.05671092965698" lon="9.530862279307318"><ele>59.0</ele><time>2026-04-19T16:29:28Z</time></trkpt><trkpt lat="45.05669504689753" lon="9.530521968470248"><ele>57.5</ele><time>2026-04-19T16:29:29Z</time></trkpt><trkpt lat="45.0566773090372" lon="9.530180717641725"><ele>56.0</ele><time>2026-04-19T16:29:30Z</time></trkpt><trkpt lat="45.05666296740416" lon="9.529844032838303"><ele>57.0</ele><time>2026-04-19T16:29:31Z</time></trkpt><trkpt lat="45.05664716155581" lon="9.529502191959883"><ele>58.0</ele><time>2026-04-19T16:29:32Z</time></trkpt><trkpt lat="45.05663059617315" lon="9.529165359985486"><ele>59.0</ele><time>2026-04-19T16:29:33Z</time></trkpt><trkpt lat="45.05661439882491" lon="9.52882188367736"><ele>60.0</ele><time>2026-04-19T16:29:34Z</time></trkpt><trkpt lat="45.05659731360129" lon="9.52848545188928"><ele>60.5</ele><time>2026-04-19T16:29:35Z</time></trkpt><trkpt lat="45.056580913001724" lon="9.52815321221749"><ele>61.0</ele><time>2026-04-19T16:29:36Z</time></trkpt><trkpt lat="45.056563726059764" lon="9.527818747173495"><ele>64.0</ele><time>2026-04-19T16:29:37Z</time></trkpt><trkpt lat="45.05654610869335" lon="9.527485535463374"><ele>67.0</ele><time>2026-04-19T16:29:38Z</time></trkpt><trkpt lat="45.056527664324854" lon="9.527154124905218"><ele>68.5</ele><time>2026-04-19T16:29:39Z</time></trkpt><trkpt lat="45.05651366920065" lon="9.526836470867286"><ele>70.0</ele><time>2026-04-19T16:29:40Z</time></trkpt><trkpt lat="45.05649658344687" lon="9.526511742176071"><ele>70.0</ele><time>2026-04-19T16:29:41Z</time></trkpt><trkpt lat="45.05647850006478" lon="9.526183452233886"><ele>70.0</ele><time>2026-04-19T16:29:42Z</time></trkpt><trkpt lat="45.05645873824796" lon="9.525858415493119"><ele>70.0</ele><time>2026-04-19T16:29:43Z</time></trkpt><trkpt lat="45.05644303503928" lon="9.525535608332389"><ele>70.0</ele><time>2026-04-19T16:29:44Z</time></trkpt><trkpt lat="45.056426528135894" lon="9.525217259686558"><ele>70.0</ele><time>2026-04-19T16:29:45Z</time></trkpt><trkpt lat="45.05640309981009" lon="9.524896706275484"><ele>70.0</ele><time>2026-04-19T16:29:46Z</time></trkpt><trkpt lat="45.056397120300545" lon="9.524565120911287"><ele>68.0</ele><time>2026-04-19T16:29:47Z</time></trkpt><trkpt lat="45.056379970657055" lon="9.524234250935914"><ele>66.0</ele><time>2026-04-19T16:29:48Z</time></trkpt><trkpt lat="45.05634851279257" lon="9.523901649368936"><ele>64.0</ele><time>2026-04-19T16:29:49Z</time></trkpt><trkpt lat="45.05633927211873" lon="9.523567435667768"><ele>62.0</ele><time>2026-04-19T16:29:50Z</time></trkpt><trkpt lat="45.056330884516925" lon="9.523228219375127"><ele>61.5</ele><time>2026-04-19T16:29:51Z</time></trkpt><trkpt lat="45.05632025175397" lon="9.52288419208523"><ele>61.0</ele><time>2026-04-19T16:29:52Z</time></trkpt><trkpt lat="45.05630690316523" lon="9.522538212378224"><ele>61.0</ele><time>2026-04-19T16:29:53Z</time></trkpt><trkpt lat="45.05628613462977" lon="9.522186895887376"><ele>61.0</ele><time>2026-04-19T16:29:54Z</time></trkpt><trkpt lat="45.05626806333906" lon="9.521836528669839"><ele>61.5</ele><time>2026-04-19T16:29:55Z</time></trkpt><trkpt lat="45.05625416028946" lon="9.521484477702776"><ele>62.0</ele><time>2026-04-19T16:29:56Z</time></trkpt><trkpt lat="45.05623891994046" lon="9.521129168473834"><ele>62.0</ele><time>2026-04-19T16:29:57Z</time></trkpt><trkpt lat="45.056221319850394" lon="9.520768719467917"><ele>62.0</ele><time>2026-04-19T16:29:58Z</time></trkpt><trkpt lat="45.05620419687142" lon="9.520407582659985"><ele>62.0</ele><time>2026-04-19T16:29:59Z</time></trkpt><trkpt lat="45.05618671532477" lon="9.520046323206847"><ele>62.0</ele><time>2026-04-19T16:30:00Z</time></trkpt><trkpt lat="45.05616882368825" lon="9.519682876181559"><ele>61.5</ele><time>2026-04-19T16:30:01Z</time></trkpt><trkpt lat="45.056152832778146" lon="9.519324752897099"><ele>61.0</ele><time>2026-04-19T16:30:02Z</time></trkpt><trkpt lat="45.05613640989094" lon="9.51896602270683"><ele>61.0</ele><time>2026-04-19T16:30:03Z</time></trkpt><trkpt lat="45.056116097410914" lon="9.518611755822405"><ele>61.0</ele><time>2026-04-19T16:30:04Z</time></trkpt><trkpt lat="45.05609394929107" lon="9.518258606811418"><ele>61.0</ele><time>2026-04-19T16:30:05Z</time></trkpt><trkpt lat="45.056077050949355" lon="9.517903963434318"><ele>61.0</ele><time>2026-04-19T16:30:06Z</time></trkpt><trkpt lat="45.056062801168665" lon="9.51754890319073"><ele>61.5</ele><time>2026-04-19T16:30:07Z</time></trkpt><trkpt lat="45.05604750518493" lon="9.517195478864258"><ele>62.0</ele><time>2026-04-19T16:30:08Z</time></trkpt><trkpt lat="45.05602923806433" lon="9.516841233638823"><ele>62.0</ele><time>2026-04-19T16:30:09Z</time></trkpt><trkpt lat="45.05601113524672" lon="9.516486257265383"><ele>62.0</ele><time>2026-04-19T16:30:10Z</time></trkpt><trkpt lat="45.05599308364638" lon="9.516132479403188"><ele>62.5</ele><time>2026-04-19T16:30:11Z</time></trkpt><trkpt lat="45.05597305466159" lon="9.515779003535311"><ele>63.0</ele><time>2026-04-19T16:30:12Z</time></trkpt><trkpt lat="45.05595528092725" lon="9.515423718255542"><ele>63.5</ele><time>2026-04-19T16:30:13Z</time></trkpt><trkpt lat="45.05593869428781" lon="9.515066923045621"><ele>64.0</ele><time>2026-04-19T16:30:14Z</time></trkpt><trkpt lat="45.055922254154844" lon="9.514707678480455"><ele>65.0</ele><time>2026-04-19T16:30:15Z</time></trkpt><trkpt lat="45.05590315673814" lon="9.514348598055273"><ele>66.0</ele><time>2026-04-19T16:30:16Z</time></trkpt><trkpt lat="45.05588577107728" lon="9.5139891222122"><ele>65.5</ele><time>2026-04-19T16:30:17Z</time></trkpt><trkpt lat="45.05586917201112" lon="9.51362959695041"><ele>65.0</ele><time>2026-04-19T16:30:18Z</time></trkpt><trkpt lat="45.05585397167279" lon="9.513270912417397"><ele>65.0</ele><time>2026-04-19T16:30:19Z</time></trkpt><trkpt lat="45.055838663451055" lon="9.512913688876285"><ele>65.0</ele><time>2026-04-19T16:30:20Z</time></trkpt><trkpt lat="45.055822360729465" lon="9.512562785910118"><ele>64.5</ele><time>2026-04-19T16:30:21Z</time></trkpt><trkpt lat="45.055807870439345" lon="9.512205805627321"><ele>64.0</ele><time>2026-04-19T16:30:22Z</time></trkpt><trkpt lat="45.05578928390764" lon="9.51185257512248"><ele>65.0</ele><time>2026-04-19T16:30:23Z</time></trkpt><trkpt lat="45.055771994541146" lon="9.51150250057044"><ele>66.0</ele><time>2026-04-19T16:30:24Z</time></trkpt><trkpt lat="45.05575580525617" lon="9.511153562662699"><ele>66.0</ele><time>2026-04-19T16:30:25Z</time></trkpt><trkpt lat="45.05573843032482" lon="9.510801805422654"><ele>66.0</ele><time>2026-04-19T16:30:26Z</time></trkpt><trkpt lat="45.05572195144177" lon="9.510452347343142"><ele>66.5</ele><time>2026-04-19T16:30:27Z</time></trkpt><trkpt lat="45.055703976213806" lon="9.510106419045444"><ele>67.0</ele><time>2026-04-19T16:30:28Z</time></trkpt><trkpt lat="45.055684467997075" lon="9.509757549609827"><ele>66.5</ele><time>2026-04-19T16:30:29Z</time></trkpt><trkpt lat="45.05566519951072" lon="9.509410872329479"><ele>66.0</ele><time>2026-04-19T16:30:30Z</time></trkpt><trkpt lat="45.05564953304128" lon="9.509069829053336"><ele>66.5</ele><time>2026-04-19T16:30:31Z</time></trkpt><trkpt lat="45.055630662051755" lon="9.508740303481447"><ele>67.0</ele><time>2026-04-19T16:30:32Z</time></trkpt><trkpt lat="45.05561411011994" lon="9.508423135840731"><ele>67.0</ele><time>2026-04-19T16:30:33Z</time></trkpt><trkpt lat="45.05559780607055" lon="9.508137521092479"><ele>67.0</ele><time>2026-04-19T16:30:34Z</time></trkpt><trkpt lat="45.05558415467326" lon="9.507867426661207"><ele>67.0</ele><time>2026-04-19T16:30:35Z</time></trkpt><trkpt lat="45.055573224976975" lon="9.507616801870965"><ele>67.0</ele><time>2026-04-19T16:30:36Z</time></trkpt><trkpt lat="45.05556292314996" lon="9.507380982426445"><ele>67.0</ele><time>2026-04-19T16:30:37Z</time></trkpt><trkpt lat="45.05555402238542" lon="9.507160446834844"><ele>67.0</ele><time>2026-04-19T16:30:38Z</time></trkpt><trkpt lat="45.05554818134607" lon="9.506969742380056"><ele>67.4</ele><time>2026-04-19T16:30:39Z</time></trkpt><trkpt lat="45.055554212986905" lon="9.50680439978966"><ele>67.80000000000001</ele><time>2026-04-19T16:30:40Z</time></trkpt><trkpt lat="45.0555767154577" lon="9.506665530177406"><ele>68.2</ele><time>2026-04-19T16:30:41Z</time></trkpt><trkpt lat="45.05561472698008" lon="9.50653643694205"><ele>68.60000000000001</ele><time>2026-04-19T16:30:42Z</time></trkpt><trkpt lat="45.05563530987459" lon="9.506411783078025"><ele>69.0</ele><time>2026-04-19T16:30:43Z</time></trkpt><trkpt lat="45.055614682520385" lon="9.50627514893733"><ele>70.75</ele><time>2026-04-19T16:30:44Z</time></trkpt><trkpt lat="45.05555961272781" lon="9.506132502894339"><ele>72.5</ele><time>2026-04-19T16:30:45Z</time></trkpt><trkpt lat="45.05550391756884" lon="9.50597502756924"><ele>74.25</ele><time>2026-04-19T16:30:46Z</time></trkpt><trkpt lat="45.055478050099005" lon="9.505781087945715"><ele>76.0</ele><time>2026-04-19T16:30:47Z</time></trkpt><trkpt lat="45.055465822187614" lon="9.505575759621472"><ele>75.66666666666666</ele><time>2026-04-19T16:30:48Z</time></trkpt><trkpt lat="45.055449404254176" lon="9.505348003272179"><ele>75.33333333333333</ele><time>2026-04-19T16:30:49Z</time></trkpt><trkpt lat="45.05543628706003" lon="9.505108978907494"><ele>75.0</ele><time>2026-04-19T16:30:50Z</time></trkpt><trkpt lat="45.05542670726049" lon="9.504857513744266"><ele>75.0</ele><time>2026-04-19T16:30:51Z</time></trkpt><trkpt lat="45.05541604288874" lon="9.504617849917071"><ele>75.0</ele><time>2026-04-19T16:30:52Z</time></trkpt><trkpt lat="45.0554046935685" lon="9.504392766175902"><ele>75.0</ele><time>2026-04-19T16:30:53Z</time></trkpt><trkpt lat="45.05539188448929" lon="9.50415659636366"><ele>73.33333333333333</ele><time>2026-04-19T16:30:54Z</time></trkpt><trkpt lat="45.05538012657028" lon="9.50391361526971"><ele>71.66666666666666</ele><time>2026-04-19T16:30:55Z</time></trkpt><trkpt lat="45.05536931099054" lon="9.503670774934106"><ele>70.0</ele><time>2026-04-19T16:30:56Z</time></trkpt><trkpt lat="45.05535894322945" lon="9.503428851735103"><ele>69.0</ele><time>2026-04-19T16:30:57Z</time></trkpt><trkpt lat="45.0553455016988" lon="9.503182699396126"><ele>68.0</ele><time>2026-04-19T16:30:58Z</time></trkpt><trkpt lat="45.05533039155821" lon="9.5029349322128"><ele>67.0</ele><time>2026-04-19T16:30:59Z</time></trkpt><trkpt lat="45.05531739645332" lon="9.502685441410549"><ele>66.66666666666666</ele><time>2026-04-19T16:31:00Z</time></trkpt><trkpt lat="45.05530672149084" lon="9.502430000099853"><ele>66.33333333333333</ele><time>2026-04-19T16:31:01Z</time></trkpt><trkpt lat="45.05529375861514" lon="9.502166595831854"><ele>66.0</ele><time>2026-04-19T16:31:02Z</time></trkpt><trkpt lat="45.0552787105046" lon="9.501900617860686"><ele>66.0</ele><time>2026-04-19T16:31:03Z</time></trkpt><trkpt lat="45.055263959455395" lon="9.501630459555338"><ele>66.0</ele><time>2026-04-19T16:31:04Z</time></trkpt><trkpt lat="45.055250750945554" lon="9.501354646423032"><ele>66.0</ele><time>2026-04-19T16:31:05Z</time></trkpt><trkpt lat="45.055239431155755" lon="9.501081917288584"><ele>66.0</ele><time>2026-04-19T16:31:06Z</time></trkpt><trkpt lat="45.055230515804816" lon="9.50082311158639"><ele>66.0</ele><time>2026-04-19T16:31:07Z</time></trkpt><trkpt lat="45.05521856117357" lon="9.50055705200874"><ele>66.0</ele><time>2026-04-19T16:31:08Z</time></trkpt><trkpt lat="45.05520600338982" lon="9.500286859409242"><ele>66.66666666666667</ele><time>2026-04-19T16:31:09Z</time></trkpt><trkpt lat="45.055194017773296" lon="9.500014028581093"><ele>67.33333333333334</ele><time>2026-04-19T16:31:10Z</time></trkpt><trkpt lat="45.055181175025304" lon="9.499731076485272"><ele>68.0</ele><time>2026-04-19T16:31:11Z</time></trkpt><trkpt lat="45.05516577255482" lon="9.499442512612166"><ele>68.0</ele><time>2026-04-19T16:31:12Z</time></trkpt><trkpt lat="45.05514959091717" lon="9.499140492482045"><ele>68.0</ele><time>2026-04-19T16:31:13Z</time></trkpt><trkpt lat="45.05513539888017" lon="9.498832607634771"><ele>68.0</ele><time>2026-04-19T16:31:14Z</time></trkpt><trkpt lat="45.05511820771212" lon="9.498522353670651"><ele>67.66666666666667</ele><time>2026-04-19T16:31:15Z</time></trkpt><trkpt lat="45.05510124510915" lon="9.498208716640203"><ele>67.33333333333333</ele><time>2026-04-19T16:31:16Z</time></trkpt><trkpt lat="45.055084257493796" lon="9.497892296200831"><ele>67.0</ele><time>2026-04-19T16:31:17Z</time></trkpt><trkpt lat="45.05507322282279" lon="9.497593488521748"><ele>66.66666666666666</ele><time>2026-04-19T16:31:18Z</time></trkpt><trkpt lat="45.05506299410059" lon="9.497307247625827"><ele>66.33333333333333</ele><time>2026-04-19T16:31:19Z</time></trkpt><trkpt lat="45.05505071300093" lon="9.49702659220612"><ele>66.0</ele><time>2026-04-19T16:31:20Z</time></trkpt><trkpt lat="45.05503975996256" lon="9.49674437202785"><ele>66.0</ele><time>2026-04-19T16:31:21Z</time></trkpt><trkpt lat="45.055029235164774" lon="9.496460921030554"><ele>66.0</ele><time>2026-04-19T16:31:22Z</time></trkpt><trkpt lat="45.05501747303397" lon="9.496178588622172"><ele>66.0</ele><time>2026-04-19T16:31:23Z</time></trkpt><trkpt lat="45.055003378868605" lon="9.495890737271008"><ele>66.0</ele><time>2026-04-19T16:31:24Z</time></trkpt><trkpt lat="45.05498791943757" lon="9.49560265870958"><ele>66.0</ele><time>2026-04-19T16:31:25Z</time></trkpt><trkpt lat="45.054970801728736" lon="9.49531052878171"><ele>66.0</ele><time>2026-04-19T16:31:26Z</time></trkpt><trkpt lat="45.05495304859374" lon="9.495013071000747"><ele>66.33333333333333</ele><time>2026-04-19T16:31:27Z</time></trkpt><trkpt lat="45.05493784966163" lon="9.494716018186773"><ele>66.66666666666666</ele><time>2026-04-19T16:31:28Z</time></trkpt><trkpt lat="45.054921919010354" lon="9.4944189654993"><ele>67.0</ele><time>2026-04-19T16:31:29Z</time></trkpt><trkpt lat="45.054905750177475" lon="9.4941216947388"><ele>67.0</ele><time>2026-04-19T16:31:30Z</time></trkpt><trkpt lat="45.05489060118607" lon="9.493825565731282"><ele>67.0</ele><time>2026-04-19T16:31:31Z</time></trkpt><trkpt lat="45.05487568997896" lon="9.493532232739408"><ele>67.0</ele><time>2026-04-19T16:31:32Z</time></trkpt><trkpt lat="45.05486249659874" lon="9.493238844338208"><ele>67.0</ele><time>2026-04-19T16:31:33Z</time></trkpt><trkpt lat="45.054848336892555" lon="9.492948137838628"><ele>67.0</ele><time>2026-04-19T16:31:34Z</time></trkpt><trkpt lat="45.05483664836622" lon="9.492670527430139"><ele>67.0</ele><time>2026-04-19T16:31:35Z</time></trkpt><trkpt lat="45.054825868556996" lon="9.4924129674642"><ele>67.0</ele><time>2026-04-19T16:31:36Z</time></trkpt><trkpt lat="45.05481043336745" lon="9.492167282371891"><ele>67.0</ele><time>2026-04-19T16:31:37Z</time></trkpt><trkpt lat="45.0547952270758" lon="9.491931635429685"><ele>67.0</ele><time>2026-04-19T16:31:38Z</time></trkpt><trkpt lat="45.05478529578189" lon="9.491691813556042"><ele>67.5</ele><time>2026-04-19T16:31:39Z</time></trkpt><trkpt lat="45.05478334206345" lon="9.491514200976027"><ele>68.0</ele><time>2026-04-19T16:31:40Z</time></trkpt><trkpt lat="45.05478995337601" lon="9.49133000573698"><ele>68.5</ele><time>2026-04-19T16:31:41Z</time></trkpt><trkpt lat="45.05478533872483" lon="9.491149087314986"><ele>69.0</ele><time>2026-04-19T16:31:42Z</time></trkpt><trkpt lat="45.054775756751596" lon="9.490978517006436"><ele>69.2</ele><time>2026-04-19T16:31:43Z</time></trkpt><trkpt lat="45.05476844626993" lon="9.490818172860733"><ele>69.4</ele><time>2026-04-19T16:31:44Z</time></trkpt><trkpt lat="45.05475402628798" lon="9.490665906028672"><ele>69.6</ele><time>2026-04-19T16:31:45Z</time></trkpt><trkpt lat="45.0547461381538" lon="9.49053052619702"><ele>69.8</ele><time>2026-04-19T16:31:46Z</time></trkpt><trkpt lat="45.05474206382149" lon="9.490404326029866"><ele>70.0</ele><time>2026-04-19T16:31:47Z</time></trkpt><trkpt lat="45.05474232511997" lon="9.490294136692956"><ele>70.0</ele><time>2026-04-19T16:31:48Z</time></trkpt><trkpt lat="45.05475029669836" lon="9.490152147163101"><ele>70.0</ele><time>2026-04-19T16:31:50Z</time></trkpt><trkpt lat="45.05475406904163" lon="9.490011404959171"><ele>70.0</ele><time>2026-04-19T16:32:25Z</time></trkpt><trkpt lat="45.05475738630381" lon="9.48991188383826"><ele>70.0</ele><time>2026-04-19T16:32:26Z</time></trkpt><trkpt lat="45.05475868213276" lon="9.489782295394027"><ele>70.0</ele><time>2026-04-19T16:32:27Z</time></trkpt><trkpt lat="45.054758758811225" lon="9.489659265804692"><ele>70.0</ele><time>2026-04-19T16:32:28Z</time></trkpt><trkpt lat="45.054757777348854" lon="9.489518957569514"><ele>70.0</ele><time>2026-04-19T16:32:29Z</time></trkpt><trkpt lat="45.05475270396231" lon="9.48935777254485"><ele>70.0</ele><time>2026-04-19T16:32:30Z</time></trkpt><trkpt lat="45.0547436803257" lon="9.489182118839459"><ele>70.0</ele><time>2026-04-19T16:32:31Z</time></trkpt><trkpt lat="45.054731078701366" lon="9.48899532496704"><ele>70.0</ele><time>2026-04-19T16:32:32Z</time></trkpt><trkpt lat="45.05472220253627" lon="9.488814501438243"><ele>70.25</ele><time>2026-04-19T16:32:33Z</time></trkpt><trkpt lat="45.05471403759099" lon="9.488627830450865"><ele>70.5</ele><time>2026-04-19T16:32:34Z</time></trkpt><trkpt lat="45.05470221483582" lon="9.488429740079564"><ele>70.75</ele><time>2026-04-19T16:32:35Z</time></trkpt><trkpt lat="45.05469089115859" lon="9.488214885706384"><ele>71.0</ele><time>2026-04-19T16:32:36Z</time></trkpt><trkpt lat="45.05468222670388" lon="9.488004626656535"><ele>71.66666666666667</ele><time>2026-04-19T16:32:37Z</time></trkpt><trkpt lat="45.05467672962814" lon="9.487797231294275"><ele>72.33333333333333</ele><time>2026-04-19T16:32:38Z</time></trkpt><trkpt lat="45.05466768244022" lon="9.487572524439239"><ele>73.0</ele><time>2026-04-19T16:32:39Z</time></trkpt><trkpt lat="45.05465613612241" lon="9.487340875717821"><ele>72.66666666666666</ele><time>2026-04-19T16:32:40Z</time></trkpt><trkpt lat="45.05464568164301" lon="9.487093329162017"><ele>72.33333333333333</ele><time>2026-04-19T16:32:41Z</time></trkpt><trkpt lat="45.054633483012964" lon="9.486839024362538"><ele>72.0</ele><time>2026-04-19T16:32:42Z</time></trkpt><trkpt lat="45.05461937990095" lon="9.486579030613486"><ele>72.0</ele><time>2026-04-19T16:32:43Z</time></trkpt><trkpt lat="45.05460489784888" lon="9.48630288015835"><ele>72.0</ele><time>2026-04-19T16:32:44Z</time></trkpt><trkpt lat="45.054591291115315" lon="9.486022734404848"><ele>72.0</ele><time>2026-04-19T16:32:45Z</time></trkpt><trkpt lat="45.05457906019488" lon="9.485744348308547"><ele>71.33333333333333</ele><time>2026-04-19T16:32:46Z</time></trkpt><trkpt lat="45.05456665203348" lon="9.48546462385713"><ele>70.66666666666666</ele><time>2026-04-19T16:32:47Z</time></trkpt><trkpt lat="45.05455197025803" lon="9.485174271060922"><ele>70.0</ele><time>2026-04-19T16:32:48Z</time></trkpt><trkpt lat="45.05453753135413" lon="9.484878553807222"><ele>70.0</ele><time>2026-04-19T16:32:49Z</time></trkpt><trkpt lat="45.05452182784455" lon="9.484568653974145"><ele>70.0</ele><time>2026-04-19T16:32:50Z</time></trkpt><trkpt lat="45.05450744683671" lon="9.48425748179282"><ele>70.0</ele><time>2026-04-19T16:32:51Z</time></trkpt><trkpt lat="45.05449179712545" lon="9.483938701876113"><ele>70.0</ele><time>2026-04-19T16:32:52Z</time></trkpt><trkpt lat="45.05447246966616" lon="9.483615225091887"><ele>70.0</ele><time>2026-04-19T16:32:53Z</time></trkpt><trkpt lat="45.05445129074543" lon="9.483287041631451"><ele>70.0</ele><time>2026-04-19T16:32:54Z</time></trkpt><trkpt lat="45.05442956265348" lon="9.482956646428788"><ele>70.0</ele><time>2026-04-19T16:32:55Z</time></trkpt><trkpt lat="45.054405798224224" lon="9.482624118133467"><ele>70.0</ele><time>2026-04-19T16:32:56Z</time></trkpt><trkpt lat="45.05438659083237" lon="9.482303743035716"><ele>70.0</ele><time>2026-04-19T16:32:57Z</time></trkpt><trkpt lat="45.054374780789686" lon="9.481980011406787"><ele>70.0</ele><time>2026-04-19T16:32:58Z</time></trkpt><trkpt lat="45.054362295720416" lon="9.4816519684078"><ele>70.0</ele><time>2026-04-19T16:32:59Z</time></trkpt><trkpt lat="45.05434603652178" lon="9.481323062637184"><ele>70.5</ele><time>2026-04-19T16:33:00Z</time></trkpt><trkpt lat="45.05432831294404" lon="9.48098478360744"><ele>71.0</ele><time>2026-04-19T16:33:01Z</time></trkpt><trkpt lat="45.05430861477602" lon="9.480639524564987"><ele>71.5</ele><time>2026-04-19T16:33:02Z</time></trkpt><trkpt lat="45.05429015801829" lon="9.480294622629808"><ele>72.0</ele><time>2026-04-19T16:33:03Z</time></trkpt><trkpt lat="45.05427257447412" lon="9.479944967336591"><ele>73.0</ele><time>2026-04-19T16:33:04Z</time></trkpt><trkpt lat="45.05425436451912" lon="9.479592036506293"><ele>74.0</ele><time>2026-04-19T16:33:05Z</time></trkpt><trkpt lat="45.054236045363304" lon="9.479238434125483"><ele>74.0</ele><time>2026-04-19T16:33:06Z</time></trkpt><trkpt lat="45.05421700630929" lon="9.478879017283624"><ele>74.0</ele><time>2026-04-19T16:33:07Z</time></trkpt><trkpt lat="45.054199171959844" lon="9.478518830012943"><ele>74.0</ele><time>2026-04-19T16:33:08Z</time></trkpt><trkpt lat="45.05418003871693" lon="9.478160625950645"><ele>74.0</ele><time>2026-04-19T16:33:09Z</time></trkpt><trkpt lat="45.05416182390301" lon="9.477801447249842"><ele>74.0</ele><time>2026-04-19T16:33:10Z</time></trkpt><trkpt lat="45.0541457518888" lon="9.477444596481632"><ele>74.0</ele><time>2026-04-19T16:33:11Z</time></trkpt><trkpt lat="45.05413072891653" lon="9.477086083534259"><ele>74.5</ele><time>2026-04-19T16:33:12Z</time></trkpt><trkpt lat="45.054114246075976" lon="9.476725681745286"><ele>75.0</ele><time>2026-04-19T16:33:13Z</time></trkpt><trkpt lat="45.05409439936465" lon="9.476364170139393"><ele>74.0</ele><time>2026-04-19T16:33:14Z</time></trkpt><trkpt lat="45.05407176717979" lon="9.47600148889937"><ele>73.0</ele><time>2026-04-19T16:33:15Z</time></trkpt><trkpt lat="45.05404918827157" lon="9.475634625513052"><ele>73.0</ele><time>2026-04-19T16:33:16Z</time></trkpt><trkpt lat="45.05402852578732" lon="9.475266563997923"><ele>73.0</ele><time>2026-04-19T16:33:17Z</time></trkpt><trkpt lat="45.054014289876264" lon="9.474900996853911"><ele>73.5</ele><time>2026-04-19T16:33:18Z</time></trkpt><trkpt lat="45.054001269884715" lon="9.474535060902376"><ele>74.0</ele><time>2026-04-19T16:33:19Z</time></trkpt><trkpt lat="45.05398697071663" lon="9.474166351430467"><ele>74.0</ele><time>2026-04-19T16:33:20Z</time></trkpt><trkpt lat="45.05396887261849" lon="9.473795819256427"><ele>74.0</ele><time>2026-04-19T16:33:21Z</time></trkpt><trkpt lat="45.053954690534894" lon="9.473423534440734"><ele>74.0</ele><time>2026-04-19T16:33:22Z</time></trkpt><trkpt lat="45.05395259743247" lon="9.473050290026393"><ele>74.0</ele><time>2026-04-19T16:33:23Z</time></trkpt><trkpt lat="45.05397423124282" lon="9.472678016853212"><ele>74.0</ele><time>2026-04-19T16:33:24Z</time></trkpt><trkpt lat="45.05401396232745" lon="9.472305740735997"><ele>74.0</ele><time>2026-04-19T16:33:25Z</time></trkpt><trkpt lat="45.05406673146094" lon="9.471934601407078"><ele>74.5</ele><time>2026-04-19T16:33:26Z</time></trkpt><trkpt lat="45.05412126235435" lon="9.471564752989774"><ele>75.0</ele><time>2026-04-19T16:33:27Z</time></trkpt><trkpt lat="45.05416902835863" lon="9.471189497109965"><ele>75.0</ele><time>2026-04-19T16:33:28Z</time></trkpt><trkpt lat="45.05421421552107" lon="9.470810707687729"><ele>75.0</ele><time>2026-04-19T16:33:29Z</time></trkpt><trkpt lat="45.05425963719114" lon="9.470430572085897"><ele>74.5</ele><time>2026-04-19T16:33:30Z</time></trkpt><trkpt lat="45.05430468454818" lon="9.470048069531133"><ele>74.0</ele><time>2026-04-19T16:33:31Z</time></trkpt><trkpt lat="45.05435297297323" lon="9.469662477313177"><ele>72.5</ele><time>2026-04-19T16:33:32Z</time></trkpt><trkpt lat="45.05440347744468" lon="9.46927462985772"><ele>71.0</ele><time>2026-04-19T16:33:33Z</time></trkpt><trkpt lat="45.05445422106405" lon="9.468885974528096"><ele>70.5</ele><time>2026-04-19T16:33:34Z</time></trkpt><trkpt lat="45.054502948321165" lon="9.468495818056061"><ele>70.0</ele><time>2026-04-19T16:33:35Z</time></trkpt><trkpt lat="45.054548715166405" lon="9.46810617362462"><ele>71.0</ele><time>2026-04-19T16:33:36Z</time></trkpt><trkpt lat="45.054594321860556" lon="9.46771663187552"><ele>72.0</ele><time>2026-04-19T16:33:37Z</time></trkpt><trkpt lat="45.05463975480939" lon="9.46732478902535"><ele>73.5</ele><time>2026-04-19T16:33:38Z</time></trkpt><trkpt lat="45.05468720327287" lon="9.46693343486835"><ele>75.0</ele><time>2026-04-19T16:33:39Z</time></trkpt><trkpt lat="45.054736093186776" lon="9.466540970071124"><ele>75.0</ele><time>2026-04-19T16:33:40Z</time></trkpt><trkpt lat="45.05478385415386" lon="9.46614816258095"><ele>75.0</ele><time>2026-04-19T16:33:41Z</time></trkpt><trkpt lat="45.054831932266715" lon="9.46575611319979"><ele>74.0</ele><time>2026-04-19T16:33:42Z</time></trkpt><trkpt lat="45.054880260175764" lon="9.46536281491094"><ele>73.0</ele><time>2026-04-19T16:33:43Z</time></trkpt><trkpt lat="45.054928677870286" lon="9.464968832519252"><ele>72.5</ele><time>2026-04-19T16:33:44Z</time></trkpt><trkpt lat="45.05497684816073" lon="9.464576160980352"><ele>72.0</ele><time>2026-04-19T16:33:45Z</time></trkpt><trkpt lat="45.055027445004946" lon="9.464180194250579"><ele>72.0</ele><time>2026-04-19T16:33:46Z</time></trkpt><trkpt lat="45.05507329808918" lon="9.463785908306189"><ele>72.0</ele><time>2026-04-19T16:33:47Z</time></trkpt><trkpt lat="45.055119092042844" lon="9.46339233312532"><ele>72.5</ele><time>2026-04-19T16:33:48Z</time></trkpt><trkpt lat="45.05516343062792" lon="9.463001077871542"><ele>73.0</ele><time>2026-04-19T16:33:49Z</time></trkpt><trkpt lat="45.05521053250379" lon="9.462610559472221"><ele>75.0</ele><time>2026-04-19T16:33:50Z</time></trkpt><trkpt lat="45.05525925048286" lon="9.462223481873268"><ele>77.0</ele><time>2026-04-19T16:33:51Z</time></trkpt><trkpt lat="45.05530272561439" lon="9.461834895517182"><ele>77.0</ele><time>2026-04-19T16:33:52Z</time></trkpt><trkpt lat="45.0553486243767" lon="9.461446896239135"><ele>77.0</ele><time>2026-04-19T16:33:53Z</time></trkpt><trkpt lat="45.05539545446981" lon="9.461062294504684"><ele>77.5</ele><time>2026-04-19T16:33:54Z</time></trkpt><trkpt lat="45.05543880453212" lon="9.460697848016627"><ele>78.0</ele><time>2026-04-19T16:33:55Z</time></trkpt><trkpt lat="45.05548021957818" lon="9.460360715836346"><ele>79.0</ele><time>2026-04-19T16:33:56Z</time></trkpt><trkpt lat="45.05552159389571" lon="9.460037215353426"><ele>80.0</ele><time>2026-04-19T16:33:57Z</time></trkpt><trkpt lat="45.05555846520724" lon="9.459714413195437"><ele>80.0</ele><time>2026-04-19T16:33:58Z</time></trkpt><trkpt lat="45.05559619734183" lon="9.4593785425973"><ele>80.0</ele><time>2026-04-19T16:33:59Z</time></trkpt><trkpt lat="45.05563274338734" lon="9.459044214989543"><ele>80.5</ele><time>2026-04-19T16:34:00Z</time></trkpt><trkpt lat="45.055669930365184" lon="9.458708660946693"><ele>81.0</ele><time>2026-04-19T16:34:01Z</time></trkpt><trkpt lat="45.055709521174634" lon="9.458368963718629"><ele>81.0</ele><time>2026-04-19T16:34:02Z</time></trkpt><trkpt lat="45.05574896988133" lon="9.458025922374919"><ele>81.0</ele><time>2026-04-19T16:34:03Z</time></trkpt><trkpt lat="45.05578856398045" lon="9.457682648374947"><ele>80.5</ele><time>2026-04-19T16:34:04Z</time></trkpt><trkpt lat="45.05582625609084" lon="9.45733338104276"><ele>80.0</ele><time>2026-04-19T16:34:05Z</time></trkpt><trkpt lat="45.05586542712253" lon="9.456984048206442"><ele>81.5</ele><time>2026-04-19T16:34:06Z</time></trkpt><trkpt lat="45.05590465172085" lon="9.456633098142284"><ele>83.0</ele><time>2026-04-19T16:34:07Z</time></trkpt><trkpt lat="45.055943745034384" lon="9.456274918749843"><ele>83.0</ele><time>2026-04-19T16:34:08Z</time></trkpt><trkpt lat="45.05598482536234" lon="9.455919957421674"><ele>83.0</ele><time>2026-04-19T16:34:09Z</time></trkpt><trkpt lat="45.05602781412674" lon="9.455566329792017"><ele>82.66666666666667</ele><time>2026-04-19T16:34:10Z</time></trkpt><trkpt lat="45.05606517099083" lon="9.455249132659029"><ele>82.33333333333333</ele><time>2026-04-19T16:34:11Z</time></trkpt><trkpt lat="45.056099066947155" lon="9.454993804713373"><ele>82.0</ele><time>2026-04-19T16:34:12Z</time></trkpt><trkpt lat="45.05612592589666" lon="9.45479815328362"><ele>82.0</ele><time>2026-04-19T16:34:13Z</time></trkpt><trkpt lat="45.0561514346316" lon="9.454579537499034"><ele>82.0</ele><time>2026-04-19T16:34:14Z</time></trkpt><trkpt lat="45.056178010841016" lon="9.454368509703032"><ele>82.0</ele><time>2026-04-19T16:34:15Z</time></trkpt><trkpt lat="45.056203572410446" lon="9.454148610257466"><ele>82.0</ele><time>2026-04-19T16:34:16Z</time></trkpt><trkpt lat="45.05623067466454" lon="9.453927226448334"><ele>82.0</ele><time>2026-04-19T16:34:17Z</time></trkpt><trkpt lat="45.05625793579442" lon="9.453701250098547"><ele>82.0</ele><time>2026-04-19T16:34:18Z</time></trkpt><trkpt lat="45.05628636461354" lon="9.453469932818209"><ele>82.0</ele><time>2026-04-19T16:34:19Z</time></trkpt><trkpt lat="45.056316310992244" lon="9.453233803578483"><ele>82.0</ele><time>2026-04-19T16:34:20Z</time></trkpt><trkpt lat="45.056347813549834" lon="9.452990822296252"><ele>82.0</ele><time>2026-04-19T16:34:21Z</time></trkpt><trkpt lat="45.05637985261108" lon="9.452739747153162"><ele>82.33333333333333</ele><time>2026-04-19T16:34:22Z</time></trkpt><trkpt lat="45.056414721790574" lon="9.4524697326082"><ele>82.66666666666667</ele><time>2026-04-19T16:34:23Z</time></trkpt><trkpt lat="45.05644494017891" lon="9.452236052244407"><ele>83.0</ele><time>2026-04-19T16:34:24Z</time></trkpt><trkpt lat="45.056478374015576" lon="9.45196728486805"><ele>83.33333333333334</ele><time>2026-04-19T16:34:25Z</time></trkpt><trkpt lat="45.056514508788304" lon="9.45169176112566"><ele>83.66666666666667</ele><time>2026-04-19T16:34:26Z</time></trkpt><trkpt lat="45.05655395558163" lon="9.4514107280826"><ele>84.0</ele><time>2026-04-19T16:34:27Z</time></trkpt><trkpt lat="45.05659003935911" lon="9.451122981877166"><ele>84.0</ele><time>2026-04-19T16:34:28Z</time></trkpt><trkpt lat="45.05662745160046" lon="9.450836323300372"><ele>84.0</ele><time>2026-04-19T16:34:29Z</time></trkpt><trkpt lat="45.0566620648891" lon="9.450545613969322"><ele>84.0</ele><time>2026-04-19T16:34:30Z</time></trkpt><trkpt lat="45.056696086892785" lon="9.450248545872826"><ele>84.0</ele><time>2026-04-19T16:34:31Z</time></trkpt><trkpt lat="45.056729418327386" lon="9.449957803143517"><ele>84.0</ele><time>2026-04-19T16:34:32Z</time></trkpt><trkpt lat="45.05676106535637" lon="9.449686723020442"><ele>84.0</ele><time>2026-04-19T16:34:33Z</time></trkpt><trkpt lat="45.056792962554" lon="9.449438051334067"><ele>84.0</ele><time>2026-04-19T16:34:34Z</time></trkpt><trkpt lat="45.05682453093685" lon="9.44919667256765"><ele>84.0</ele><time>2026-04-19T16:34:35Z</time></trkpt><trkpt lat="45.05685347890335" lon="9.448963937426575"><ele>84.0</ele><time>2026-04-19T16:34:36Z</time></trkpt><trkpt lat="45.056882998174636" lon="9.448725254412633"><ele>84.0</ele><time>2026-04-19T16:34:37Z</time></trkpt><trkpt lat="45.05691484852228" lon="9.448485286144079"><ele>84.0</ele><time>2026-04-19T16:34:38Z</time></trkpt><trkpt lat="45.05694377277122" lon="9.448243383929048"><ele>84.0</ele><time>2026-04-19T16:34:39Z</time></trkpt><trkpt lat="45.05697182926831" lon="9.447995797917056"><ele>83.66666666666667</ele><time>2026-04-19T16:34:40Z</time></trkpt><trkpt lat="45.05699783133085" lon="9.447735681076555"><ele>83.33333333333334</ele><time>2026-04-19T16:34:41Z</time></trkpt><trkpt lat="45.05702668206771" lon="9.447469658402095"><ele>83.0</ele><time>2026-04-19T16:34:42Z</time></trkpt><trkpt lat="45.0570541683262" lon="9.44720062404589"><ele>83.0</ele><time>2026-04-19T16:34:43Z</time></trkpt><trkpt lat="45.05708286060009" lon="9.446924696697137"><ele>83.0</ele><time>2026-04-19T16:34:44Z</time></trkpt><trkpt lat="45.05710816645103" lon="9.44664101416698"><ele>83.0</ele><time>2026-04-19T16:34:45Z</time></trkpt><trkpt lat="45.057132756835244" lon="9.446349241989896"><ele>83.0</ele><time>2026-04-19T16:34:46Z</time></trkpt><trkpt lat="45.057154783991194" lon="9.446053854076792"><ele>83.0</ele><time>2026-04-19T16:34:47Z</time></trkpt><trkpt lat="45.0571805908459" lon="9.445748802188602"><ele>83.0</ele><time>2026-04-19T16:34:48Z</time></trkpt><trkpt lat="45.05720798408476" lon="9.44545187248767"><ele>83.0</ele><time>2026-04-19T16:34:49Z</time></trkpt><trkpt lat="45.05723576746226" lon="9.445169042018135"><ele>83.0</ele><time>2026-04-19T16:34:50Z</time></trkpt><trkpt lat="45.05725586061795" lon="9.444901360226762"><ele>83.0</ele><time>2026-04-19T16:34:51Z</time></trkpt><trkpt lat="45.05727994324627" lon="9.444655757548562"><ele>82.0</ele><time>2026-04-19T16:34:52Z</time></trkpt><trkpt lat="45.05730434632342" lon="9.444421302014947"><ele>81.0</ele><time>2026-04-19T16:34:53Z</time></trkpt><trkpt lat="45.057328076964176" lon="9.444188828749645"><ele>80.0</ele><time>2026-04-19T16:34:54Z</time></trkpt><trkpt lat="45.057348792709504" lon="9.443972862456027"><ele>80.5</ele><time>2026-04-19T16:34:55Z</time></trkpt><trkpt lat="45.057373655488654" lon="9.443768263200031"><ele>81.0</ele><time>2026-04-19T16:34:56Z</time></trkpt><trkpt lat="45.05741042547164" lon="9.443572979200539"><ele>81.5</ele><time>2026-04-19T16:34:57Z</time></trkpt><trkpt lat="45.05745290483324" lon="9.443383004855429"><ele>82.0</ele><time>2026-04-19T16:34:58Z</time></trkpt><trkpt lat="45.05749858301392" lon="9.443204861133232"><ele>82.0</ele><time>2026-04-19T16:34:59Z</time></trkpt><trkpt lat="45.05754436847594" lon="9.443031763945434"><ele>82.0</ele><time>2026-04-19T16:35:00Z</time></trkpt><trkpt lat="45.057589937168395" lon="9.442863995661245"><ele>82.0</ele><time>2026-04-19T16:35:01Z</time></trkpt><trkpt lat="45.057635819875955" lon="9.442703139212979"><ele>82.0</ele><time>2026-04-19T16:35:02Z</time></trkpt><trkpt lat="45.05767623698136" lon="9.442539014048254"><ele>80.75</ele><time>2026-04-19T16:35:03Z</time></trkpt><trkpt lat="45.057717939220296" lon="9.442384028844003"><ele>79.5</ele><time>2026-04-19T16:35:04Z</time></trkpt><trkpt lat="45.05775771528783" lon="9.442231812725709"><ele>78.25</ele><time>2026-04-19T16:35:05Z</time></trkpt><trkpt lat="45.05779849906586" lon="9.442083595903341"><ele>77.0</ele><time>2026-04-19T16:35:06Z</time></trkpt><trkpt lat="45.05783988496883" lon="9.441935090830711"><ele>76.5</ele><time>2026-04-19T16:35:07Z</time></trkpt><trkpt lat="45.05789079325199" lon="9.441784852007425"><ele>76.0</ele><time>2026-04-19T16:35:08Z</time></trkpt><trkpt lat="45.05794801619858" lon="9.441632691486943"><ele>75.5</ele><time>2026-04-19T16:35:09Z</time></trkpt><trkpt lat="45.05800099606101" lon="9.441478495316783"><ele>75.0</ele><time>2026-04-19T16:35:10Z</time></trkpt><trkpt lat="45.05805554189341" lon="9.441336874979712"><ele>75.4</ele><time>2026-04-19T16:35:11Z</time></trkpt><trkpt lat="45.05811370152606" lon="9.441198282743091"><ele>75.8</ele><time>2026-04-19T16:35:12Z</time></trkpt><trkpt lat="45.058170851290164" lon="9.441062837781166"><ele>76.2</ele><time>2026-04-19T16:35:13Z</time></trkpt><trkpt lat="45.058230670186525" lon="9.440931950132688"><ele>76.6</ele><time>2026-04-19T16:35:14Z</time></trkpt><trkpt lat="45.058288565981655" lon="9.44080371565978"><ele>77.0</ele><time>2026-04-19T16:35:15Z</time></trkpt><trkpt lat="45.058346099078214" lon="9.440679307021798"><ele>77.0</ele><time>2026-04-19T16:35:16Z</time></trkpt><trkpt lat="45.05840414968195" lon="9.440557168070503"><ele>77.0</ele><time>2026-04-19T16:35:17Z</time></trkpt><trkpt lat="45.058462644511266" lon="9.440438260671785"><ele>77.0</ele><time>2026-04-19T16:35:18Z</time></trkpt><trkpt lat="45.05852208439608" lon="9.440327028825482"><ele>77.0</ele><time>2026-04-19T16:35:19Z</time></trkpt><trkpt lat="45.05858071569689" lon="9.440213963573376"><ele>77.0</ele><time>2026-04-19T16:35:20Z</time></trkpt><trkpt lat="45.058629219129756" lon="9.440097843500157"><ele>76.16666666666667</ele><time>2026-04-19T16:35:21Z</time></trkpt><trkpt lat="45.058672001927626" lon="9.439987556366493"><ele>75.33333333333334</ele><time>2026-04-19T16:35:22Z</time></trkpt><trkpt lat="45.05870799077128" lon="9.439890566013025"><ele>74.5</ele><time>2026-04-19T16:35:23Z</time></trkpt><trkpt lat="45.05873054184938" lon="9.439797632864867"><ele>73.66666666666667</ele><time>2026-04-19T16:35:24Z</time></trkpt><trkpt lat="45.05874825827444" lon="9.43969252382099"><ele>72.83333333333333</ele><time>2026-04-19T16:35:25Z</time></trkpt><trkpt lat="45.05876051493775" lon="9.43957902388164"><ele>72.0</ele><time>2026-04-19T16:35:26Z</time></trkpt><trkpt lat="45.05877611456291" lon="9.439476998729473"><ele>71.83333333333333</ele><time>2026-04-19T16:35:27Z</time></trkpt><trkpt lat="45.05881985061529" lon="9.439368791472248"><ele>71.66666666666667</ele><time>2026-04-19T16:35:29Z</time></trkpt><trkpt lat="45.05887298980527" lon="9.4392890946579"><ele>71.5</ele><time>2026-04-19T16:35:33Z</time></trkpt><trkpt lat="45.05895815740208" lon="9.439161885419443"><ele>71.33333333333334</ele><time>2026-04-19T16:35:35Z</time></trkpt><trkpt lat="45.05901469729649" lon="9.439103033896378"><ele>71.16666666666667</ele><time>2026-04-19T16:35:36Z</time></trkpt><trkpt lat="45.05908524468555" lon="9.439044248058376"><ele>71.0</ele><time>2026-04-19T16:35:37Z</time></trkpt><trkpt lat="45.059175140911236" lon="9.438989656509241"><ele>71.0</ele><time>2026-04-19T16:35:38Z</time></trkpt><trkpt lat="45.05926113953284" lon="9.438948642346286"><ele>71.0</ele><time>2026-04-19T16:35:39Z</time></trkpt><trkpt lat="45.0593418365213" lon="9.43891099302735"><ele>71.0</ele><time>2026-04-19T16:35:40Z</time></trkpt><trkpt lat="45.059420720745486" lon="9.438867434735126"><ele>71.0</ele><time>2026-04-19T16:35:41Z</time></trkpt><trkpt lat="45.05950636126297" lon="9.438830059134215"><ele>71.0</ele><time>2026-04-19T16:35:42Z</time></trkpt><trkpt lat="45.0595869851877" lon="9.438789553341902"><ele>71.0</ele><time>2026-04-19T16:35:43Z</time></trkpt><trkpt lat="45.05967676421845" lon="9.438748883358725"><ele>71.16666666666667</ele><time>2026-04-19T16:35:44Z</time></trkpt><trkpt lat="45.05976662057705" lon="9.438708432560933"><ele>71.33333333333334</ele><time>2026-04-19T16:35:45Z</time></trkpt><trkpt lat="45.05985572450067" lon="9.438664678328855"><ele>71.5</ele><time>2026-04-19T16:35:46Z</time></trkpt><trkpt lat="45.05994004380246" lon="9.438622692975786"><ele>71.66666666666667</ele><time>2026-04-19T16:35:47Z</time></trkpt><trkpt lat="45.06001776829157" lon="9.438586702272506"><ele>71.83333333333333</ele><time>2026-04-19T16:35:48Z</time></trkpt><trkpt lat="45.06008370254041" lon="9.438555460826224"><ele>72.0</ele><time>2026-04-19T16:35:49Z</time></trkpt><trkpt lat="45.06019250826442" lon="9.438505281984728"><ele>71.5</ele><time>2026-04-19T16:35:51Z</time></trkpt><trkpt lat="45.06030011607119" lon="9.43849016426908"><ele>71.0</ele><time>2026-04-19T16:35:53Z</time></trkpt><trkpt lat="45.06042496767986" lon="9.438484235523054"><ele>70.5</ele><time>2026-04-19T16:35:55Z</time></trkpt><trkpt lat="45.060496483227325" lon="9.438365028160995"><ele>70.0</ele><time>2026-04-19T16:35:57Z</time></trkpt><trkpt lat="45.060454340526704" lon="9.438187523983698"><ele>70.0</ele><time>2026-04-19T16:35:59Z</time></trkpt><trkpt lat="45.06043087347982" lon="9.43809177907457"><ele>70.0</ele><time>2026-04-19T16:36:00Z</time></trkpt><trkpt lat="45.06041449124657" lon="9.437990260919845"><ele>70.0</ele><time>2026-04-19T16:36:01Z</time></trkpt><trkpt lat="45.0604083330108" lon="9.437869693175589"><ele>70.0</ele><time>2026-04-19T16:36:02Z</time></trkpt><trkpt lat="45.06041446309453" lon="9.437748415235598"><ele>70.0</ele><time>2026-04-19T16:36:03Z</time></trkpt><trkpt lat="45.06042362987648" lon="9.437615027079339"><ele>70.0</ele><time>2026-04-19T16:36:04Z</time></trkpt><trkpt lat="45.06043496738575" lon="9.43749338926267"><ele>70.2</ele><time>2026-04-19T16:36:05Z</time></trkpt><trkpt lat="45.0604438175908" lon="9.437380003106107"><ele>70.4</ele><time>2026-04-19T16:36:06Z</time></trkpt><trkpt lat="45.06045267278064" lon="9.437257986172567"><ele>70.6</ele><time>2026-04-19T16:36:07Z</time></trkpt><trkpt lat="45.06046442502612" lon="9.43712659482109"><ele>70.8</ele><time>2026-04-19T16:36:08Z</time></trkpt><trkpt lat="45.060472440869134" lon="9.436987279392262"><ele>71.0</ele><time>2026-04-19T16:36:09Z</time></trkpt><trkpt lat="45.060481383004756" lon="9.436850710830305"><ele>71.2</ele><time>2026-04-19T16:36:10Z</time></trkpt><trkpt lat="45.0604887870921" lon="9.436714497037512"><ele>71.39999999999999</ele><time>2026-04-19T16:36:11Z</time></trkpt><trkpt lat="45.060494964191996" lon="9.436571336200734"><ele>71.6</ele><time>2026-04-19T16:36:12Z</time></trkpt><trkpt lat="45.06050278221934" lon="9.436420536439522"><ele>71.8</ele><time>2026-04-19T16:36:13Z</time></trkpt><trkpt lat="45.060510851343714" lon="9.436248355955327"><ele>72.0</ele><time>2026-04-19T16:36:14Z</time></trkpt><trkpt lat="45.06051903340263" lon="9.436086173657278"><ele>72.0</ele><time>2026-04-19T16:36:15Z</time></trkpt><trkpt lat="45.06053118121545" lon="9.435926182126162"><ele>72.0</ele><time>2026-04-19T16:36:16Z</time></trkpt><trkpt lat="45.06053996835173" lon="9.435777799416549"><ele>72.0</ele><time>2026-04-19T16:36:17Z</time></trkpt><trkpt lat="45.06054454566866" lon="9.435640432914672"><ele>72.0</ele><time>2026-04-19T16:36:18Z</time></trkpt><trkpt lat="45.06055355518834" lon="9.435509998781262"><ele>72.0</ele><time>2026-04-19T16:36:19Z</time></trkpt><trkpt lat="45.06056296556774" lon="9.435374306775712"><ele>72.2</ele><time>2026-04-19T16:36:20Z</time></trkpt><trkpt lat="45.06057046445648" lon="9.435246402531467"><ele>72.4</ele><time>2026-04-19T16:36:21Z</time></trkpt><trkpt lat="45.06057846508358" lon="9.435132484391017"><ele>72.6</ele><time>2026-04-19T16:36:22Z</time></trkpt><trkpt lat="45.06058307558736" lon="9.435031298917188"><ele>72.8</ele><time>2026-04-19T16:36:23Z</time></trkpt><trkpt lat="45.060595388300655" lon="9.434865008193892"><ele>73.0</ele><time>2026-04-19T16:36:25Z</time></trkpt><trkpt lat="45.06062450999715" lon="9.434724498262428"><ele>73.2</ele><time>2026-04-19T16:36:27Z</time></trkpt><trkpt lat="45.06062602946543" lon="9.434619481822413"><ele>73.4</ele><time>2026-04-19T16:36:28Z</time></trkpt><trkpt lat="45.060626389298335" lon="9.43449077259386"><ele>73.60000000000001</ele><time>2026-04-19T16:36:29Z</time></trkpt><trkpt lat="45.06063252941092" lon="9.434351161811895"><ele>73.8</ele><time>2026-04-19T16:36:30Z</time></trkpt><trkpt lat="45.060642549573885" lon="9.434198388683914"><ele>74.0</ele><time>2026-04-19T16:36:31Z</time></trkpt><trkpt lat="45.06065465259785" lon="9.434048754124353"><ele>74.0</ele><time>2026-04-19T16:36:32Z</time></trkpt><trkpt lat="45.06066910108729" lon="9.433873615389519"><ele>74.0</ele><time>2026-04-19T16:36:33Z</time></trkpt><trkpt lat="45.06068795101144" lon="9.433700888534215"><ele>74.0</ele><time>2026-04-19T16:36:34Z</time></trkpt><trkpt lat="45.06070480364804" lon="9.433531878024118"><ele>74.0</ele><time>2026-04-19T16:36:35Z</time></trkpt><trkpt lat="45.06071958966924" lon="9.433370440768932"><ele>73.8</ele><time>2026-04-19T16:36:36Z</time></trkpt><trkpt lat="45.06073686691984" lon="9.433205077455378"><ele>73.60000000000001</ele><time>2026-04-19T16:36:37Z</time></trkpt><trkpt lat="45.06075462251755" lon="9.4330407084496"><ele>73.4</ele><time>2026-04-19T16:36:38Z</time></trkpt><trkpt lat="45.06077132232875" lon="9.432891194558826"><ele>73.2</ele><time>2026-04-19T16:36:39Z</time></trkpt><trkpt lat="45.06078548874189" lon="9.432744794202458"><ele>73.0</ele><time>2026-04-19T16:36:40Z</time></trkpt><trkpt lat="45.06079986696652" lon="9.43262112044175"><ele>73.0</ele><time>2026-04-19T16:36:41Z</time></trkpt><trkpt lat="45.06081319292404" lon="9.43250617524413"><ele>73.0</ele><time>2026-04-19T16:36:42Z</time></trkpt><trkpt lat="45.060826551124855" lon="9.432398038168962"><ele>73.0</ele><time>2026-04-19T16:36:43Z</time></trkpt><trkpt lat="45.06083864781248" lon="9.432297325455032"><ele>73.0</ele><time>2026-04-19T16:36:44Z</time></trkpt><trkpt lat="45.06085028096248" lon="9.432192507760849"><ele>73.0</ele><time>2026-04-19T16:36:44.999Z</time></trkpt><trkpt lat="45.0608615516173" lon="9.432070663007323"><ele>73.0</ele><time>2026-04-19T16:36:45.999Z</time></trkpt><trkpt lat="45.060879831465805" lon="9.431935851214329"><ele>73.0</ele><time>2026-04-19T16:36:46.999Z</time></trkpt><trkpt lat="45.06089315686685" lon="9.431803806893608"><ele>73.0</ele><time>2026-04-19T16:36:47.999Z</time></trkpt><trkpt lat="45.06090651467084" lon="9.43166991398269"><ele>73.0</ele><time>2026-04-19T16:36:48.999Z</time></trkpt><trkpt lat="45.060920809551895" lon="9.431518475450758"><ele>73.0</ele><time>2026-04-19T16:36:50Z</time></trkpt><trkpt lat="45.06093159108686" lon="9.431326461041083"><ele>73.0</ele><time>2026-04-19T16:36:51Z</time></trkpt><trkpt lat="45.06094660163515" lon="9.431075347738611"><ele>73.0</ele><time>2026-04-19T16:36:52Z</time></trkpt><trkpt lat="45.060982025474864" lon="9.430792635173852"><ele>73.0</ele><time>2026-04-19T16:36:53Z</time></trkpt><trkpt lat="45.06102089848647" lon="9.430519621963413"><ele>73.0</ele><time>2026-04-19T16:36:54Z</time></trkpt><trkpt lat="45.0610598055832" lon="9.430262726234092"><ele>73.33333333333333</ele><time>2026-04-19T16:36:55Z</time></trkpt><trkpt lat="45.06109197989783" lon="9.429989156437523"><ele>73.66666666666667</ele><time>2026-04-19T16:36:56Z</time></trkpt><trkpt lat="45.06111860196422" lon="9.429697603223802"><ele>74.0</ele><time>2026-04-19T16:36:57Z</time></trkpt><trkpt lat="45.06114571892307" lon="9.429404037893919"><ele>74.0</ele><time>2026-04-19T16:36:58Z</time></trkpt><trkpt lat="45.0611795502823" lon="9.429113499653273"><ele>74.0</ele><time>2026-04-19T16:36:59Z</time></trkpt><trkpt lat="45.06120347377769" lon="9.428844300809716"><ele>74.0</ele><time>2026-04-19T16:37:00Z</time></trkpt><trkpt lat="45.06121714194023" lon="9.428583262906717"><ele>73.66666666666667</ele><time>2026-04-19T16:37:01Z</time></trkpt><trkpt lat="45.06121583789135" lon="9.428350505754626"><ele>73.33333333333333</ele><time>2026-04-19T16:37:02Z</time></trkpt><trkpt lat="45.06120238522386" lon="9.4281347491516"><ele>73.0</ele><time>2026-04-19T16:37:03Z</time></trkpt><trkpt lat="45.06116201361192" lon="9.427930746899595"><ele>73.66666666666666</ele><time>2026-04-19T16:37:04Z</time></trkpt><trkpt lat="45.06109735674212" lon="9.427742416897027"><ele>74.33333333333333</ele><time>2026-04-19T16:37:05Z</time></trkpt><trkpt lat="45.061003781944876" lon="9.427569906998148"><ele>75.0</ele><time>2026-04-19T16:37:06Z</time></trkpt><trkpt lat="45.06088213552068" lon="9.427427957772302"><ele>75.33333333333333</ele><time>2026-04-19T16:37:07Z</time></trkpt><trkpt lat="45.06073706664943" lon="9.427305212318007"><ele>75.66666666666666</ele><time>2026-04-19T16:37:08Z</time></trkpt><trkpt lat="45.06056696463166" lon="9.427195171568558"><ele>76.0</ele><time>2026-04-19T16:37:09Z</time></trkpt><trkpt lat="45.06037170737461" lon="9.427080484419347"><ele>76.0</ele><time>2026-04-19T16:37:10Z</time></trkpt><trkpt lat="45.06019840227675" lon="9.426976516139652"><ele>76.0</ele><time>2026-04-19T16:37:11Z</time></trkpt><trkpt lat="45.060046173616556" lon="9.426872056964493"><ele>76.0</ele><time>2026-04-19T16:37:12Z</time></trkpt><trkpt lat="45.05991122396849" lon="9.42677939947999"><ele>76.2</ele><time>2026-04-19T16:37:13Z</time></trkpt><trkpt lat="45.05979459531247" lon="9.426693331353405"><ele>76.39999999999999</ele><time>2026-04-19T16:37:14Z</time></trkpt><trkpt lat="45.05970234202717" lon="9.426618080169275"><ele>76.6</ele><time>2026-04-19T16:37:15Z</time></trkpt><trkpt lat="45.05963733861158" lon="9.42653328152145"><ele>76.8</ele><time>2026-04-19T16:37:16Z</time></trkpt><trkpt lat="45.059571381094464" lon="9.426443494594144"><ele>77.0</ele><time>2026-04-19T16:37:17Z</time></trkpt><trkpt lat="45.059515595167746" lon="9.426353925938953"><ele>77.25</ele><time>2026-04-19T16:37:18Z</time></trkpt><trkpt lat="45.05953768496235" lon="9.426169292093515"><ele>77.5</ele><time>2026-04-19T16:37:19Z</time></trkpt><trkpt lat="45.05954923064156" lon="9.425994440610713"><ele>77.75</ele><time>2026-04-19T16:37:20Z</time></trkpt><trkpt lat="45.05957170957241" lon="9.42578263495189"><ele>78.0</ele><time>2026-04-19T16:37:21Z</time></trkpt><trkpt lat="45.05959965785096" lon="9.42553905948065"><ele>78.0</ele><time>2026-04-19T16:37:22Z</time></trkpt><trkpt lat="45.0596270605174" lon="9.425276561523543"><ele>78.0</ele><time>2026-04-19T16:37:23Z</time></trkpt><trkpt lat="45.0596555947545" lon="9.425000980171447"><ele>78.0</ele><time>2026-04-19T16:37:24Z</time></trkpt><trkpt lat="45.059687414323825" lon="9.424727625598257"><ele>77.66666666666667</ele><time>2026-04-19T16:37:25Z</time></trkpt><trkpt lat="45.05971949974385" lon="9.42445143248509"><ele>77.33333333333334</ele><time>2026-04-19T16:37:26Z</time></trkpt><trkpt lat="45.0597458270226" lon="9.424151628752876"><ele>77.0</ele><time>2026-04-19T16:37:27Z</time></trkpt><trkpt lat="45.05979069987641" lon="9.42385846909373"><ele>77.0</ele><time>2026-04-19T16:37:28Z</time></trkpt><trkpt lat="45.059824944010344" lon="9.423568418332227"><ele>77.0</ele><time>2026-04-19T16:37:29Z</time></trkpt><trkpt lat="45.05985225215058" lon="9.423308856356357"><ele>77.0</ele><time>2026-04-19T16:37:30Z</time></trkpt><trkpt lat="45.0598621477398" lon="9.423151020050241"><ele>77.0</ele><time>2026-04-19T16:37:33Z</time></trkpt><trkpt lat="45.05987634249095" lon="9.42302727624332"><ele>77.0</ele><time>2026-04-19T16:37:35Z</time></trkpt><trkpt lat="45.059885088242794" lon="9.42292592638958"><ele>77.0</ele><time>2026-04-19T16:37:38Z</time></trkpt><trkpt lat="45.05990379913202" lon="9.422790452324765"><ele>77.0</ele><time>2026-04-19T16:37:41Z</time></trkpt><trkpt lat="45.05991870431571" lon="9.422675905093682"><ele>77.0</ele><time>2026-04-19T16:37:43Z</time></trkpt><trkpt lat="45.05995123460317" lon="9.422579460281991"><ele>77.0</ele><time>2026-04-19T16:37:45Z</time></trkpt><trkpt lat="45.05995212208451" lon="9.422450784024521"><ele>77.0</ele><time>2026-04-19T16:38:31Z</time></trkpt><trkpt lat="45.0599648861546" lon="9.422354718168553"><ele>77.0</ele><time>2026-04-19T16:38:32Z</time></trkpt><trkpt lat="45.059983103705264" lon="9.422234351192856"><ele>77.0</ele><time>2026-04-19T16:38:33Z</time></trkpt><trkpt lat="45.05999726002614" lon="9.422110377249615"><ele>77.0</ele><time>2026-04-19T16:38:34Z</time></trkpt><trkpt lat="45.060010141408554" lon="9.421964235676752"><ele>77.0</ele><time>2026-04-19T16:38:35Z</time></trkpt><trkpt lat="45.06003129343485" lon="9.421784832779414"><ele>77.0</ele><time>2026-04-19T16:38:35.999Z</time></trkpt><trkpt lat="45.06005421633714" lon="9.421592025228868"><ele>77.0</ele><time>2026-04-19T16:38:36.999Z</time></trkpt><trkpt lat="45.060074727375586" lon="9.421406555085847"><ele>77.0</ele><time>2026-04-19T16:38:37.999Z</time></trkpt><trkpt lat="45.06009719414859" lon="9.42120358119343"><ele>77.0</ele><time>2026-04-19T16:38:38.999Z</time></trkpt><trkpt lat="45.060118492300994" lon="9.420988937456755"><ele>77.0</ele><time>2026-04-19T16:38:39.999Z</time></trkpt><trkpt lat="45.06014000840262" lon="9.420772537298523"><ele>77.0</ele><time>2026-04-19T16:38:40.999Z</time></trkpt><trkpt lat="45.06016263718372" lon="9.420560661881833"><ele>77.0</ele><time>2026-04-19T16:38:41.999Z</time></trkpt><trkpt lat="45.06017967402696" lon="9.420347986687075"><ele>77.0</ele><time>2026-04-19T16:38:42.999Z</time></trkpt><trkpt lat="45.06019413545044" lon="9.420125761745735"><ele>77.0</ele><time>2026-04-19T16:38:43.999Z</time></trkpt><trkpt lat="45.06020427536453" lon="9.419901730461762"><ele>77.0</ele><time>2026-04-19T16:38:44.999Z</time></trkpt><trkpt lat="45.06021149180837" lon="9.419664817862364"><ele>76.66666666666667</ele><time>2026-04-19T16:38:45.999Z</time></trkpt><trkpt lat="45.06021643683567" lon="9.419423381506592"><ele>76.33333333333333</ele><time>2026-04-19T16:38:46.999Z</time></trkpt><trkpt lat="45.06022261387236" lon="9.419170423939939"><ele>76.0</ele><time>2026-04-19T16:38:47.999Z</time></trkpt><trkpt lat="45.06023041942026" lon="9.418920285829676"><ele>76.33333333333333</ele><time>2026-04-19T16:38:48.999Z</time></trkpt><trkpt lat="45.06024045462261" lon="9.418645953331534"><ele>76.66666666666667</ele><time>2026-04-19T16:38:49.999Z</time></trkpt><trkpt lat="45.060256821311334" lon="9.418365417702185"><ele>77.0</ele><time>2026-04-19T16:38:50.999Z</time></trkpt><trkpt lat="45.060280071465776" lon="9.418085178637673"><ele>76.66666666666667</ele><time>2026-04-19T16:38:51.999Z</time></trkpt><trkpt lat="45.06030906029028" lon="9.417807656635713"><ele>76.33333333333333</ele><time>2026-04-19T16:38:52.999Z</time></trkpt><trkpt lat="45.06034637581967" lon="9.417523564179609"><ele>76.0</ele><time>2026-04-19T16:38:53.999Z</time></trkpt><trkpt lat="45.060390455265726" lon="9.417234130121502"><ele>76.0</ele><time>2026-04-19T16:38:54.999Z</time></trkpt><trkpt lat="45.06044037593923" lon="9.41693498364133"><ele>76.0</ele><time>2026-04-19T16:38:56Z</time></trkpt><trkpt lat="45.06050179654565" lon="9.416635358409954"><ele>76.0</ele><time>2026-04-19T16:38:57Z</time></trkpt><trkpt lat="45.06057308102215" lon="9.416337562166893"><ele>76.33333333333333</ele><time>2026-04-19T16:38:58Z</time></trkpt><trkpt lat="45.0606490589302" lon="9.416043021057305"><ele>76.66666666666667</ele><time>2026-04-19T16:38:59Z</time></trkpt><trkpt lat="45.0607172797617" lon="9.415744119279013"><ele>77.0</ele><time>2026-04-19T16:39:00Z</time></trkpt><trkpt lat="45.060776515775714" lon="9.415441593406337"><ele>77.5</ele><time>2026-04-19T16:39:01Z</time></trkpt><trkpt lat="45.06083015656147" lon="9.415131600144464"><ele>78.0</ele><time>2026-04-19T16:39:02Z</time></trkpt><trkpt lat="45.06087936072402" lon="9.414818221902596"><ele>78.5</ele><time>2026-04-19T16:39:03Z</time></trkpt><trkpt lat="45.060924358272004" lon="9.414503865288088"><ele>79.0</ele><time>2026-04-19T16:39:04Z</time></trkpt><trkpt lat="45.060969724131475" lon="9.414185409082013"><ele>79.0</ele><time>2026-04-19T16:39:05Z</time></trkpt><trkpt lat="45.06101186049611" lon="9.413864326829138"><ele>79.0</ele><time>2026-04-19T16:39:06Z</time></trkpt><trkpt lat="45.06105331542652" lon="9.413536267396909"><ele>79.5</ele><time>2026-04-19T16:39:07Z</time></trkpt><trkpt lat="45.06109346972701" lon="9.413216907216986"><ele>80.0</ele><time>2026-04-19T16:39:08Z</time></trkpt><trkpt lat="45.061134763592655" lon="9.412905429862304"><ele>80.0</ele><time>2026-04-19T16:39:09Z</time></trkpt><trkpt lat="45.061176170462865" lon="9.412585797907209"><ele>80.0</ele><time>2026-04-19T16:39:10Z</time></trkpt><trkpt lat="45.06121594330052" lon="9.412263682382036"><ele>79.5</ele><time>2026-04-19T16:39:11Z</time></trkpt><trkpt lat="45.06125472897043" lon="9.41193455954386"><ele>79.0</ele><time>2026-04-19T16:39:12Z</time></trkpt><trkpt lat="45.06129348402089" lon="9.411595932933821"><ele>79.5</ele><time>2026-04-19T16:39:13Z</time></trkpt><trkpt lat="45.061334702443084" lon="9.411253440733804"><ele>80.0</ele><time>2026-04-19T16:39:14Z</time></trkpt><trkpt lat="45.06137681792685" lon="9.41090642065868"><ele>80.0</ele><time>2026-04-19T16:39:15Z</time></trkpt><trkpt lat="45.06141748178268" lon="9.410552002271576"><ele>80.0</ele><time>2026-04-19T16:39:16Z</time></trkpt><trkpt lat="45.06146164195115" lon="9.410195195760707"><ele>80.5</ele><time>2026-04-19T16:39:17Z</time></trkpt><trkpt lat="45.06150923575398" lon="9.409835166273862"><ele>81.0</ele><time>2026-04-19T16:39:18Z</time></trkpt><trkpt lat="45.06155552781589" lon="9.40946055510346"><ele>81.0</ele><time>2026-04-19T16:39:19Z</time></trkpt><trkpt lat="45.061600898514115" lon="9.409089402287137"><ele>81.0</ele><time>2026-04-19T16:39:20Z</time></trkpt><trkpt lat="45.061648800096705" lon="9.408712913519102"><ele>81.0</ele><time>2026-04-19T16:39:21Z</time></trkpt><trkpt lat="45.06169637423563" lon="9.408331590990446"><ele>81.0</ele><time>2026-04-19T16:39:22Z</time></trkpt><trkpt lat="45.06174357116221" lon="9.40794745190454"><ele>81.0</ele><time>2026-04-19T16:39:23Z</time></trkpt><trkpt lat="45.06178879914852" lon="9.407560572739674"><ele>81.0</ele><time>2026-04-19T16:39:24Z</time></trkpt><trkpt lat="45.061833374112766" lon="9.40717177016833"><ele>82.0</ele><time>2026-04-19T16:39:25Z</time></trkpt><trkpt lat="45.061879773707155" lon="9.406779948002201"><ele>83.0</ele><time>2026-04-19T16:39:26Z</time></trkpt><trkpt lat="45.06192789149707" lon="9.406384690920722"><ele>83.0</ele><time>2026-04-19T16:39:27Z</time></trkpt><trkpt lat="45.061976900147286" lon="9.405986517322361"><ele>83.0</ele><time>2026-04-19T16:39:28Z</time></trkpt><trkpt lat="45.06202649358046" lon="9.405584777809734"><ele>82.5</ele><time>2026-04-19T16:39:29Z</time></trkpt><trkpt lat="45.062078688721876" lon="9.405179881044832"><ele>82.0</ele><time>2026-04-19T16:39:30Z</time></trkpt><trkpt lat="45.06212728349635" lon="9.404773557839535"><ele>82.5</ele><time>2026-04-19T16:39:31Z</time></trkpt><trkpt lat="45.06217619910072" lon="9.404361087172148"><ele>83.0</ele><time>2026-04-19T16:39:32Z</time></trkpt><trkpt lat="45.06222595793913" lon="9.403948583735206"><ele>82.5</ele><time>2026-04-19T16:39:33Z</time></trkpt><trkpt lat="45.06227660007652" lon="9.403531728410005"><ele>82.0</ele><time>2026-04-19T16:39:34Z</time></trkpt><trkpt lat="45.06232782821025" lon="9.403117596948253"><ele>82.5</ele><time>2026-04-19T16:39:35Z</time></trkpt><trkpt lat="45.06237974920787" lon="9.402706541067532"><ele>83.0</ele><time>2026-04-19T16:39:36Z</time></trkpt><trkpt lat="45.06243022786658" lon="9.402296022951786"><ele>83.0</ele><time>2026-04-19T16:39:37Z</time></trkpt><trkpt lat="45.062480227812614" lon="9.401885184918493"><ele>83.0</ele><time>2026-04-19T16:39:38Z</time></trkpt><trkpt lat="45.062529361083065" lon="9.401475303990416"><ele>83.5</ele><time>2026-04-19T16:39:39Z</time></trkpt><trkpt lat="45.062578586532105" lon="9.401065155549386"><ele>84.0</ele><time>2026-04-19T16:39:40Z</time></trkpt><trkpt lat="45.06262716473262" lon="9.400656636333386"><ele>84.0</ele><time>2026-04-19T16:39:41Z</time></trkpt><trkpt lat="45.0626752635871" lon="9.400248540580751"><ele>84.0</ele><time>2026-04-19T16:39:42Z</time></trkpt><trkpt lat="45.0627218517896" lon="9.399842560084062"><ele>85.0</ele><time>2026-04-19T16:39:43Z</time></trkpt><trkpt lat="45.062768730523636" lon="9.39944254712512"><ele>86.0</ele><time>2026-04-19T16:39:44Z</time></trkpt><trkpt lat="45.06281528645861" lon="9.399046487914111"><ele>85.5</ele><time>2026-04-19T16:39:45Z</time></trkpt><trkpt lat="45.062860505004785" lon="9.39865823623272"><ele>85.0</ele><time>2026-04-19T16:39:46Z</time></trkpt><trkpt lat="45.06290941009269" lon="9.398273915325177"><ele>85.0</ele><time>2026-04-19T16:39:47Z</time></trkpt><trkpt lat="45.06295962166745" lon="9.397892399707859"><ele>85.0</ele><time>2026-04-19T16:39:48Z</time></trkpt><trkpt lat="45.06300658239171" lon="9.397510127648268"><ele>85.0</ele><time>2026-04-19T16:39:49Z</time></trkpt><trkpt lat="45.063052060039965" lon="9.397126620461147"><ele>85.0</ele><time>2026-04-19T16:39:50Z</time></trkpt><trkpt lat="45.06309614954981" lon="9.396739698111931"><ele>85.0</ele><time>2026-04-19T16:39:51Z</time></trkpt><trkpt lat="45.06313810092966" lon="9.396352216651056"><ele>85.0</ele><time>2026-04-19T16:39:52Z</time></trkpt><trkpt lat="45.063183620040775" lon="9.395962481921355"><ele>83.5</ele><time>2026-04-19T16:39:53Z</time></trkpt><trkpt lat="45.063228987014675" lon="9.395575377261292"><ele>82.0</ele><time>2026-04-19T16:39:54Z</time></trkpt><trkpt lat="45.063278883567136" lon="9.395185854865247"><ele>80.0</ele><time>2026-04-19T16:39:55Z</time></trkpt><trkpt lat="45.06332701234939" lon="9.394795003640763"><ele>78.0</ele><time>2026-04-19T16:39:56Z</time></trkpt><trkpt lat="45.06337317772905" lon="9.394407028846395"><ele>78.0</ele><time>2026-04-19T16:39:57Z</time></trkpt><trkpt lat="45.06341590551325" lon="9.394015602358147"><ele>78.0</ele><time>2026-04-19T16:39:58Z</time></trkpt><trkpt lat="45.06346142498599" lon="9.393624728167149"><ele>78.0</ele><time>2026-04-19T16:39:59Z</time></trkpt><trkpt lat="45.063504981906604" lon="9.39323311690902"><ele>78.0</ele><time>2026-04-19T16:40:00Z</time></trkpt><trkpt lat="45.06355241437691" lon="9.392845180795003"><ele>78.0</ele><time>2026-04-19T16:40:01Z</time></trkpt><trkpt lat="45.06359799065082" lon="9.392456077326521"><ele>78.0</ele><time>2026-04-19T16:40:02Z</time></trkpt><trkpt lat="45.06364470043286" lon="9.392070901084526"><ele>78.0</ele><time>2026-04-19T16:40:03Z</time></trkpt><trkpt lat="45.06368941515782" lon="9.391686905612818"><ele>78.0</ele><time>2026-04-19T16:40:04Z</time></trkpt><trkpt lat="45.0637373424908" lon="9.39130535491527"><ele>78.5</ele><time>2026-04-19T16:40:05Z</time></trkpt><trkpt lat="45.063783700749916" lon="9.390925209034105"><ele>79.0</ele><time>2026-04-19T16:40:06Z</time></trkpt><trkpt lat="45.06382864409426" lon="9.390548023499232"><ele>79.0</ele><time>2026-04-19T16:40:07Z</time></trkpt><trkpt lat="45.063873224256206" lon="9.390171866113581"><ele>79.0</ele><time>2026-04-19T16:40:08Z</time></trkpt><trkpt lat="45.06391843180025" lon="9.389794291093098"><ele>79.0</ele><time>2026-04-19T16:40:09Z</time></trkpt><trkpt lat="45.063963440768916" lon="9.389422639116447"><ele>79.0</ele><time>2026-04-19T16:40:10Z</time></trkpt><trkpt lat="45.06401097900737" lon="9.389049824499093"><ele>78.5</ele><time>2026-04-19T16:40:11Z</time></trkpt><trkpt lat="45.064060258713134" lon="9.388677737722459"><ele>78.0</ele><time>2026-04-19T16:40:12Z</time></trkpt><trkpt lat="45.064109285886076" lon="9.388303552412879"><ele>79.0</ele><time>2026-04-19T16:40:13Z</time></trkpt><trkpt lat="45.06415952478294" lon="9.387927427649542"><ele>80.0</ele><time>2026-04-19T16:40:14Z</time></trkpt><trkpt lat="45.06420633596747" lon="9.387554394074092"><ele>80.0</ele><time>2026-04-19T16:40:15Z</time></trkpt><trkpt lat="45.06425188415193" lon="9.387176941723485"><ele>80.0</ele><time>2026-04-19T16:40:16Z</time></trkpt><trkpt lat="45.06429133284257" lon="9.386796917979632"><ele>80.0</ele><time>2026-04-19T16:40:17Z</time></trkpt><trkpt lat="45.06433035099135" lon="9.386417176401908"><ele>80.0</ele><time>2026-04-19T16:40:18Z</time></trkpt><trkpt lat="45.064370784500575" lon="9.386033070552463"><ele>80.0</ele><time>2026-04-19T16:40:19Z</time></trkpt><trkpt lat="45.06441290343863" lon="9.385647673628995"><ele>80.0</ele><time>2026-04-19T16:40:20Z</time></trkpt><trkpt lat="45.06445726874616" lon="9.38526481791554"><ele>80.0</ele><time>2026-04-19T16:40:21Z</time></trkpt><trkpt lat="45.06450226209935" lon="9.3848814369906"><ele>80.0</ele><time>2026-04-19T16:40:22Z</time></trkpt><trkpt lat="45.06454596454666" lon="9.384501375425563"><ele>80.5</ele><time>2026-04-19T16:40:23Z</time></trkpt><trkpt lat="45.064588595962036" lon="9.384118777653775"><ele>81.0</ele><time>2026-04-19T16:40:24Z</time></trkpt><trkpt lat="45.06463183536437" lon="9.383735041524684"><ele>80.0</ele><time>2026-04-19T16:40:25Z</time></trkpt><trkpt lat="45.064674297514216" lon="9.383350442873144"><ele>79.0</ele><time>2026-04-19T16:40:26Z</time></trkpt><trkpt lat="45.06471665276074" lon="9.382965630876772"><ele>79.0</ele><time>2026-04-19T16:40:27Z</time></trkpt><trkpt lat="45.06475976799539" lon="9.382580396779051"><ele>79.0</ele><time>2026-04-19T16:40:28Z</time></trkpt><trkpt lat="45.06480339655532" lon="9.382194119541136"><ele>79.5</ele><time>2026-04-19T16:40:29Z</time></trkpt><trkpt lat="45.06485000119443" lon="9.381809213575746"><ele>80.0</ele><time>2026-04-19T16:40:30Z</time></trkpt><trkpt lat="45.06489759871327" lon="9.381428589571778"><ele>80.5</ele><time>2026-04-19T16:40:30.999Z</time></trkpt><trkpt lat="45.06494455631043" lon="9.38104431259183"><ele>81.0</ele><time>2026-04-19T16:40:31.999Z</time></trkpt><trkpt lat="45.06499050478923" lon="9.380660658304903"><ele>82.5</ele><time>2026-04-19T16:40:32.999Z</time></trkpt><trkpt lat="45.065034932022606" lon="9.380281761548412"><ele>84.0</ele><time>2026-04-19T16:40:33.999Z</time></trkpt><trkpt lat="45.06507791177051" lon="9.379903191709305"><ele>86.5</ele><time>2026-04-19T16:40:34.999Z</time></trkpt><trkpt lat="45.06512187080567" lon="9.379549015736696"><ele>89.0</ele><time>2026-04-19T16:40:35.999Z</time></trkpt><trkpt lat="45.06515626044873" lon="9.379216974755792"><ele>89.0</ele><time>2026-04-19T16:40:36.999Z</time></trkpt><trkpt lat="45.06518810445744" lon="9.378895893283048"><ele>89.0</ele><time>2026-04-19T16:40:37.999Z</time></trkpt><trkpt lat="45.065219717593436" lon="9.378581672453409"><ele>90.0</ele><time>2026-04-19T16:40:38.999Z</time></trkpt><trkpt lat="45.06525158808371" lon="9.378263171689545"><ele>91.0</ele><time>2026-04-19T16:40:39.999Z</time></trkpt><trkpt lat="45.0652885277357" lon="9.37794426682743"><ele>92.5</ele><time>2026-04-19T16:40:40.999Z</time></trkpt><trkpt lat="45.06532951307261" lon="9.377626145020585"><ele>94.0</ele><time>2026-04-19T16:40:41.999Z</time></trkpt><trkpt lat="45.06537163690269" lon="9.377304174953695"><ele>95.0</ele><time>2026-04-19T16:40:42.999Z</time></trkpt><trkpt lat="45.06541330312969" lon="9.37697712986735"><ele>96.0</ele><time>2026-04-19T16:40:43.999Z</time></trkpt><trkpt lat="45.06545682729847" lon="9.37663578579234"><ele>96.5</ele><time>2026-04-19T16:40:44.999Z</time></trkpt><trkpt lat="45.06550179545436" lon="9.376282341961515"><ele>97.0</ele><time>2026-04-19T16:40:45.999Z</time></trkpt><trkpt lat="45.06554680332633" lon="9.375932002539768"><ele>97.0</ele><time>2026-04-19T16:40:46.999Z</time></trkpt><trkpt lat="45.06559678102494" lon="9.375564033034989"><ele>97.0</ele><time>2026-04-19T16:40:47.999Z</time></trkpt><trkpt lat="45.06564510630939" lon="9.375183832584069"><ele>96.5</ele><time>2026-04-19T16:40:48.999Z</time></trkpt><trkpt lat="45.065693552879814" lon="9.374786944792069"><ele>96.0</ele><time>2026-04-19T16:40:49.999Z</time></trkpt><trkpt lat="45.06574205630454" lon="9.374385115901735"><ele>96.0</ele><time>2026-04-19T16:40:50.999Z</time></trkpt><trkpt lat="45.065790991482" lon="9.373978649553399"><ele>96.0</ele><time>2026-04-19T16:40:51.999Z</time></trkpt><trkpt lat="45.06584263806486" lon="9.373573096265913"><ele>96.0</ele><time>2026-04-19T16:40:52.999Z</time></trkpt><trkpt lat="45.065894431922935" lon="9.373161444229751"><ele>96.0</ele><time>2026-04-19T16:40:53.999Z</time></trkpt><trkpt lat="45.06594646775428" lon="9.37274621413334"><ele>95.5</ele><time>2026-04-19T16:40:54.999Z</time></trkpt><trkpt lat="45.06599648910526" lon="9.372329906414116"><ele>95.0</ele><time>2026-04-19T16:40:55.999Z</time></trkpt><trkpt lat="45.06605236239344" lon="9.371908815520571"><ele>95.0</ele><time>2026-04-19T16:40:56.999Z</time></trkpt><trkpt lat="45.06610819220695" lon="9.37149262529225"><ele>95.0</ele><time>2026-04-19T16:40:57.999Z</time></trkpt><trkpt lat="45.066161043630245" lon="9.371067378638967"><ele>95.5</ele><time>2026-04-19T16:40:58.999Z</time></trkpt><trkpt lat="45.06621534966843" lon="9.370640119054562"><ele>96.0</ele><time>2026-04-19T16:40:59.999Z</time></trkpt><trkpt lat="45.06626649285446" lon="9.370207153564195"><ele>96.0</ele><time>2026-04-19T16:41:00.999Z</time></trkpt><trkpt lat="45.0663194854954" lon="9.369772191327518"><ele>96.0</ele><time>2026-04-19T16:41:02Z</time></trkpt><trkpt lat="45.06637558014712" lon="9.369331893060767"><ele>95.5</ele><time>2026-04-19T16:41:03Z</time></trkpt><trkpt lat="45.06643044021263" lon="9.368898430781563"><ele>95.0</ele><time>2026-04-19T16:41:04Z</time></trkpt><trkpt lat="45.0664899171413" lon="9.368464717375389"><ele>95.0</ele><time>2026-04-19T16:41:05Z</time></trkpt><trkpt lat="45.066549883222486" lon="9.368035907063282"><ele>95.0</ele><time>2026-04-19T16:41:06Z</time></trkpt><trkpt lat="45.0666124608219" lon="9.367610933606635"><ele>94.0</ele><time>2026-04-19T16:41:07Z</time></trkpt><trkpt lat="45.066692331523996" lon="9.367194185784564"><ele>93.0</ele><time>2026-04-19T16:41:08Z</time></trkpt><trkpt lat="45.06680050194894" lon="9.366782301062983"><ele>92.5</ele><time>2026-04-19T16:41:09Z</time></trkpt><trkpt lat="45.0669271487416" lon="9.366369741987402"><ele>92.0</ele><time>2026-04-19T16:41:10Z</time></trkpt><trkpt lat="45.067047470778775" lon="9.365940561184132"><ele>90.0</ele><time>2026-04-19T16:41:11Z</time></trkpt><trkpt lat="45.0671663579938" lon="9.365503711334258"><ele>88.0</ele><time>2026-04-19T16:41:12Z</time></trkpt><trkpt lat="45.067284710240955" lon="9.365062271840737"><ele>88.0</ele><time>2026-04-19T16:41:13Z</time></trkpt><trkpt lat="45.06740465427355" lon="9.364612219350038"><ele>88.0</ele><time>2026-04-19T16:41:14Z</time></trkpt><trkpt lat="45.067533055019794" lon="9.364155842700935"><ele>89.0</ele><time>2026-04-19T16:41:15Z</time></trkpt><trkpt lat="45.06765710294349" lon="9.363719408175964"><ele>90.0</ele><time>2026-04-19T16:41:16Z</time></trkpt><trkpt lat="45.06776762646265" lon="9.363325878402945"><ele>90.5</ele><time>2026-04-19T16:41:17Z</time></trkpt><trkpt lat="45.067868781445576" lon="9.362952375535615"><ele>91.0</ele><time>2026-04-19T16:41:18Z</time></trkpt><trkpt lat="45.06795516137979" lon="9.362603196423926"><ele>91.0</ele><time>2026-04-19T16:41:19Z</time></trkpt><trkpt lat="45.068031090020035" lon="9.362254631715619"><ele>91.0</ele><time>2026-04-19T16:41:20Z</time></trkpt><trkpt lat="45.06809402497236" lon="9.36189569988224"><ele>91.0</ele><time>2026-04-19T16:41:21Z</time></trkpt><trkpt lat="45.068139157523476" lon="9.361525181399045"><ele>91.0</ele><time>2026-04-19T16:41:22Z</time></trkpt><trkpt lat="45.068162077166825" lon="9.361147146013861"><ele>89.5</ele><time>2026-04-19T16:41:23Z</time></trkpt><trkpt lat="45.068169179613726" lon="9.360776932465518"><ele>88.0</ele><time>2026-04-19T16:41:24Z</time></trkpt><trkpt lat="45.06815221987093" lon="9.360395020046099"><ele>86.5</ele><time>2026-04-19T16:41:25Z</time></trkpt><trkpt lat="45.068123327855055" lon="9.360000656842365"><ele>85.0</ele><time>2026-04-19T16:41:26Z</time></trkpt><trkpt lat="45.06807498213355" lon="9.359596043404512"><ele>85.0</ele><time>2026-04-19T16:41:27Z</time></trkpt><trkpt lat="45.06800745982803" lon="9.359185567151032"><ele>85.0</ele><time>2026-04-19T16:41:28Z</time></trkpt><trkpt lat="45.067937753417176" lon="9.358782291688064"><ele>87.0</ele><time>2026-04-19T16:41:29Z</time></trkpt><trkpt lat="45.06788313020247" lon="9.35839457067708"><ele>89.0</ele><time>2026-04-19T16:41:30Z</time></trkpt><trkpt lat="45.06785530204433" lon="9.358002334150456"><ele>90.0</ele><time>2026-04-19T16:41:31Z</time></trkpt><trkpt lat="45.06784649050838" lon="9.357609892176281"><ele>91.0</ele><time>2026-04-19T16:41:32Z</time></trkpt><trkpt lat="45.067853404099715" lon="9.357219242629789"><ele>92.5</ele><time>2026-04-19T16:41:33Z</time></trkpt><trkpt lat="45.06787801078734" lon="9.356825191078823"><ele>94.0</ele><time>2026-04-19T16:41:34Z</time></trkpt><trkpt lat="45.067916346250236" lon="9.356422945150587"><ele>94.5</ele><time>2026-04-19T16:41:35Z</time></trkpt><trkpt lat="45.067965992147684" lon="9.356022110468157"><ele>95.0</ele><time>2026-04-19T16:41:36Z</time></trkpt><trkpt lat="45.06801718832239" lon="9.355635325178648"><ele>95.0</ele><time>2026-04-19T16:41:37Z</time></trkpt><trkpt lat="45.06806160778006" lon="9.355249080946216"><ele>95.0</ele><time>2026-04-19T16:41:38Z</time></trkpt><trkpt lat="45.06810088629432" lon="9.354859001954228"><ele>96.0</ele><time>2026-04-19T16:41:39Z</time></trkpt><trkpt lat="45.06814021851342" lon="9.354469743736917"><ele>97.0</ele><time>2026-04-19T16:41:40Z</time></trkpt><trkpt lat="45.06818136648726" lon="9.354098776520539"><ele>97.5</ele><time>2026-04-19T16:41:41Z</time></trkpt><trkpt lat="45.06822027877679" lon="9.353753802765388"><ele>98.0</ele><time>2026-04-19T16:41:42Z</time></trkpt><trkpt lat="45.06825572849235" lon="9.353431912465457"><ele>98.33333333333333</ele><time>2026-04-19T16:41:43Z</time></trkpt><trkpt lat="45.068290381712565" lon="9.353124983669305"><ele>98.66666666666666</ele><time>2026-04-19T16:41:44Z</time></trkpt><trkpt lat="45.06832532312622" lon="9.352835599852764"><ele>99.0</ele><time>2026-04-19T16:41:45Z</time></trkpt><trkpt lat="45.068356247338315" lon="9.352561143988682"><ele>99.0</ele><time>2026-04-19T16:41:46Z</time></trkpt><trkpt lat="45.06838543744296" lon="9.352299851145023"><ele>99.0</ele><time>2026-04-19T16:41:47Z</time></trkpt><trkpt lat="45.068412451163475" lon="9.352045055844718"><ele>99.0</ele><time>2026-04-19T16:41:48Z</time></trkpt><trkpt lat="45.068439127727714" lon="9.35179271777181"><ele>99.0</ele><time>2026-04-19T16:41:49Z</time></trkpt><trkpt lat="45.068465865038036" lon="9.351529783429786"><ele>99.0</ele><time>2026-04-19T16:41:50Z</time></trkpt><trkpt lat="45.06849637229515" lon="9.351244512594192"><ele>99.0</ele><time>2026-04-19T16:41:51Z</time></trkpt><trkpt lat="45.068547202575814" lon="9.3509339693228"><ele>99.0</ele><time>2026-04-19T16:41:52Z</time></trkpt><trkpt lat="45.06858706944818" lon="9.350593015057095"><ele>99.0</ele><time>2026-04-19T16:41:53Z</time></trkpt><trkpt lat="45.068630281859654" lon="9.35022375683884"><ele>99.0</ele><time>2026-04-19T16:41:54Z</time></trkpt><trkpt lat="45.06866002353913" lon="9.349834273797962"><ele>99.0</ele><time>2026-04-19T16:41:55Z</time></trkpt><trkpt lat="45.068719597732525" lon="9.349433446607337"><ele>99.0</ele><time>2026-04-19T16:41:56Z</time></trkpt><trkpt lat="45.06877410464139" lon="9.349014021806703"><ele>99.0</ele><time>2026-04-19T16:41:57Z</time></trkpt><trkpt lat="45.068822218895605" lon="9.348608644983951"><ele>98.0</ele><time>2026-04-19T16:41:58Z</time></trkpt><trkpt lat="45.06886589026859" lon="9.348234590213675"><ele>97.0</ele><time>2026-04-19T16:41:59Z</time></trkpt><trkpt lat="45.068907693081464" lon="9.347876783549605"><ele>97.0</ele><time>2026-04-19T16:42:00Z</time></trkpt><trkpt lat="45.06894641917915" lon="9.347528989122623"><ele>97.0</ele><time>2026-04-19T16:42:01Z</time></trkpt><trkpt lat="45.068985380706486" lon="9.347171637205939"><ele>97.0</ele><time>2026-04-19T16:42:02Z</time></trkpt><trkpt lat="45.06902301374866" lon="9.346821481134237"><ele>97.0</ele><time>2026-04-19T16:42:03Z</time></trkpt><trkpt lat="45.0690583353775" lon="9.346481553119379"><ele>97.5</ele><time>2026-04-19T16:42:04Z</time></trkpt><trkpt lat="45.06909528001525" lon="9.346149974736349"><ele>98.0</ele><time>2026-04-19T16:42:05Z</time></trkpt><trkpt lat="45.06913134516977" lon="9.345825552312885"><ele>98.0</ele><time>2026-04-19T16:42:06Z</time></trkpt><trkpt lat="45.06916675451401" lon="9.345516722066668"><ele>98.0</ele><time>2026-04-19T16:42:07Z</time></trkpt><trkpt lat="45.06919631025521" lon="9.345232481337641"><ele>98.0</ele><time>2026-04-19T16:42:08Z</time></trkpt><trkpt lat="45.069216269870836" lon="9.344940810677018"><ele>97.0</ele><time>2026-04-19T16:42:09Z</time></trkpt><trkpt lat="45.06923535105613" lon="9.344624848640432"><ele>96.0</ele><time>2026-04-19T16:42:10Z</time></trkpt><trkpt lat="45.06925961216504" lon="9.344295126784509"><ele>96.0</ele><time>2026-04-19T16:42:11Z</time></trkpt><trkpt lat="45.069286281069" lon="9.343949005826655"><ele>96.0</ele><time>2026-04-19T16:42:12Z</time></trkpt><trkpt lat="45.06931581350177" lon="9.343591693529008"><ele>96.0</ele><time>2026-04-19T16:42:13Z</time></trkpt><trkpt lat="45.06934164099049" lon="9.343222080251502"><ele>96.0</ele><time>2026-04-19T16:42:14Z</time></trkpt><trkpt lat="45.069364544290444" lon="9.342841519838325"><ele>93.0</ele><time>2026-04-19T16:42:15Z</time></trkpt><trkpt lat="45.069386205139" lon="9.342458380526113"><ele>90.0</ele><time>2026-04-19T16:42:16Z</time></trkpt><trkpt lat="45.069407087470765" lon="9.342071282864236"><ele>87.0</ele><time>2026-04-19T16:42:17Z</time></trkpt><trkpt lat="45.069429219884526" lon="9.34168064918983"><ele>84.0</ele><time>2026-04-19T16:42:18Z</time></trkpt><trkpt lat="45.06947279984596" lon="9.341291806668098"><ele>84.0</ele><time>2026-04-19T16:42:19Z</time></trkpt><trkpt lat="45.06950069729967" lon="9.340899785976417"><ele>84.0</ele><time>2026-04-19T16:42:20Z</time></trkpt><trkpt lat="45.069530205433935" lon="9.34048154802776"><ele>86.0</ele><time>2026-04-19T16:42:21Z</time></trkpt><trkpt lat="45.06956011210217" lon="9.340029078133991"><ele>88.0</ele><time>2026-04-19T16:42:22Z</time></trkpt><trkpt lat="45.069590577603286" lon="9.339568153609122"><ele>90.0</ele><time>2026-04-19T16:42:23Z</time></trkpt><trkpt lat="45.06960434653394" lon="9.339157092897974"><ele>92.0</ele><time>2026-04-19T16:42:24Z</time></trkpt><trkpt lat="45.06962522749825" lon="9.338784236077034"><ele>93.0</ele><time>2026-04-19T16:42:25Z</time></trkpt><trkpt lat="45.0696280193687" lon="9.338427827663269"><ele>94.0</ele><time>2026-04-19T16:42:26Z</time></trkpt><trkpt lat="45.069610982398174" lon="9.338076662440168"><ele>95.5</ele><time>2026-04-19T16:42:27Z</time></trkpt><trkpt lat="45.06960061870987" lon="9.337733370997299"><ele>97.0</ele><time>2026-04-19T16:42:28Z</time></trkpt><trkpt lat="45.0695800542374" lon="9.337382456990937"><ele>99.0</ele><time>2026-04-19T16:42:29Z</time></trkpt><trkpt lat="45.069398201436634" lon="9.337036340346748"><ele>101.0</ele><time>2026-04-19T16:42:30Z</time></trkpt><trkpt lat="45.069314704602384" lon="9.33667164137486"><ele>101.5</ele><time>2026-04-19T16:42:31Z</time></trkpt><trkpt lat="45.069237497751395" lon="9.336305853242308"><ele>102.0</ele><time>2026-04-19T16:42:32Z</time></trkpt><trkpt lat="45.069161927551505" lon="9.335959979592886"><ele>101.33333333333334</ele><time>2026-04-19T16:42:33Z</time></trkpt><trkpt lat="45.069090204589756" lon="9.335647221466921"><ele>100.66666666666667</ele><time>2026-04-19T16:42:34Z</time></trkpt><trkpt lat="45.06903318491784" lon="9.335384861850958"><ele>100.0</ele><time>2026-04-19T16:42:34.999Z</time></trkpt><trkpt lat="45.06898432749662" lon="9.335143962645965"><ele>100.0</ele><time>2026-04-19T16:42:35.999Z</time></trkpt><trkpt lat="45.06894076703302" lon="9.334934637576636"><ele>100.0</ele><time>2026-04-19T16:42:36.999Z</time></trkpt><trkpt lat="45.068907435424855" lon="9.334776130551626"><ele>100.0</ele><time>2026-04-19T16:42:37.999Z</time></trkpt><trkpt lat="45.06888262951185" lon="9.334637840482728"><ele>100.0</ele><time>2026-04-19T16:42:38.999Z</time></trkpt><trkpt lat="45.06887203597524" lon="9.334503244029285"><ele>100.0</ele><time>2026-04-19T16:42:39.999Z</time></trkpt><trkpt lat="45.06888073528897" lon="9.334365744824472"><ele>100.0</ele><time>2026-04-19T16:42:40.999Z</time></trkpt><trkpt lat="45.068913926267136" lon="9.33424077211774"><ele>100.0</ele><time>2026-04-19T16:42:41.999Z</time></trkpt><trkpt lat="45.06894672382133" lon="9.334116891638427"><ele>100.0</ele><time>2026-04-19T16:42:42.999Z</time></trkpt><trkpt lat="45.06894272464243" lon="9.333982150932478"><ele>100.0</ele><time>2026-04-19T16:42:43.999Z</time></trkpt><trkpt lat="45.06888813492155" lon="9.333847122513841"><ele>100.2</ele><time>2026-04-19T16:42:44.999Z</time></trkpt><trkpt lat="45.06880860493532" lon="9.33373878423112"><ele>100.4</ele><time>2026-04-19T16:42:45.999Z</time></trkpt><trkpt lat="45.06872493924075" lon="9.33366839723476"><ele>100.6</ele><time>2026-04-19T16:42:46.999Z</time></trkpt><trkpt lat="45.068649571414895" lon="9.333576844227723"><ele>100.8</ele><time>2026-04-19T16:42:47.999Z</time></trkpt><trkpt lat="45.06857840685633" lon="9.333410748183681"><ele>101.0</ele><time>2026-04-19T16:42:48.999Z</time></trkpt><trkpt lat="45.068534034554204" lon="9.33320530589157"><ele>101.0</ele><time>2026-04-19T16:42:49.999Z</time></trkpt><trkpt lat="45.06849542585648" lon="9.332975194717458"><ele>101.0</ele><time>2026-04-19T16:42:50.999Z</time></trkpt><trkpt lat="45.068440744259185" lon="9.332712208854474"><ele>101.0</ele><time>2026-04-19T16:42:51.999Z</time></trkpt><trkpt lat="45.06837021069888" lon="9.332409618801965"><ele>100.5</ele><time>2026-04-19T16:42:52.999Z</time></trkpt><trkpt lat="45.06829434821961" lon="9.332038885429775"><ele>100.0</ele><time>2026-04-19T16:42:53.999Z</time></trkpt><trkpt lat="45.0682150336815" lon="9.33163608215882"><ele>101.5</ele><time>2026-04-19T16:42:54.999Z</time></trkpt><trkpt lat="45.06812720540551" lon="9.331215675667197"><ele>103.0</ele><time>2026-04-19T16:42:55.999Z</time></trkpt><trkpt lat="45.068025493420954" lon="9.330742912537948"><ele>102.5</ele><time>2026-04-19T16:42:56.999Z</time></trkpt><trkpt lat="45.06791042701261" lon="9.330231880942868"><ele>102.0</ele><time>2026-04-19T16:42:57.999Z</time></trkpt><trkpt lat="45.06779539403734" lon="9.329723795978"><ele>102.0</ele><time>2026-04-19T16:42:58.999Z</time></trkpt><trkpt lat="45.067678419561666" lon="9.329191843801189"><ele>102.0</ele><time>2026-04-19T16:42:59.999Z</time></trkpt><trkpt lat="45.06755414266801" lon="9.32863569793439"><ele>103.5</ele><time>2026-04-19T16:43:00.999Z</time></trkpt><trkpt lat="45.06742769975687" lon="9.328075224359882"><ele>105.0</ele><time>2026-04-19T16:43:01.999Z</time></trkpt><trkpt lat="45.06731102742496" lon="9.327573275028762"><ele>105.5</ele><time>2026-04-19T16:43:02.999Z</time></trkpt><trkpt lat="45.06721478879092" lon="9.327115891770022"><ele>106.0</ele><time>2026-04-19T16:43:03.999Z</time></trkpt><trkpt lat="45.06712836031041" lon="9.32668475043973"><ele>105.5</ele><time>2026-04-19T16:43:04.999Z</time></trkpt><trkpt lat="45.067040403413245" lon="9.32628310179621"><ele>105.0</ele><time>2026-04-19T16:43:05.999Z</time></trkpt><trkpt lat="45.066956467324786" lon="9.325905248673358"><ele>105.0</ele><time>2026-04-19T16:43:06.999Z</time></trkpt><trkpt lat="45.06688418885475" lon="9.325572109322247"><ele>105.0</ele><time>2026-04-19T16:43:08Z</time></trkpt><trkpt lat="45.06682867859296" lon="9.325286015340552"><ele>105.0</ele><time>2026-04-19T16:43:09Z</time></trkpt><trkpt lat="45.0667931674077" lon="9.325019678184434"><ele>105.0</ele><time>2026-04-19T16:43:10Z</time></trkpt><trkpt lat="45.06677640530262" lon="9.32475081563424"><ele>105.0</ele><time>2026-04-19T16:43:11Z</time></trkpt><trkpt lat="45.06678706920173" lon="9.324471370080616"><ele>105.0</ele><time>2026-04-19T16:43:12Z</time></trkpt><trkpt lat="45.06682501303254" lon="9.324189608068739"><ele>105.0</ele><time>2026-04-19T16:43:13Z</time></trkpt><trkpt lat="45.06690109321746" lon="9.32391810464603"><ele>105.0</ele><time>2026-04-19T16:43:14Z</time></trkpt><trkpt lat="45.0669993955106" lon="9.323659048424227"><ele>105.0</ele><time>2026-04-19T16:43:15Z</time></trkpt><trkpt lat="45.06712439699111" lon="9.323402876039747"><ele>105.0</ele><time>2026-04-19T16:43:16Z</time></trkpt><trkpt lat="45.06726205767627" lon="9.323134952094987"><ele>105.0</ele><time>2026-04-19T16:43:17Z</time></trkpt><trkpt lat="45.06742260006779" lon="9.322871599954093"><ele>105.0</ele><time>2026-04-19T16:43:18Z</time></trkpt><trkpt lat="45.067605295758185" lon="9.322599859449817"><ele>105.0</ele><time>2026-04-19T16:43:19Z</time></trkpt><trkpt lat="45.067809648704404" lon="9.322290737599666"><ele>105.0</ele><time>2026-04-19T16:43:20Z</time></trkpt><trkpt lat="45.06801994281508" lon="9.321963104416188"><ele>105.0</ele><time>2026-04-19T16:43:21Z</time></trkpt><trkpt lat="45.068219340397555" lon="9.321668016340526"><ele>105.0</ele><time>2026-04-19T16:43:22Z</time></trkpt><trkpt lat="45.06841564385974" lon="9.32135865732237"><ele>103.5</ele><time>2026-04-19T16:43:23Z</time></trkpt><trkpt lat="45.06859470717622" lon="9.321057921361325"><ele>102.0</ele><time>2026-04-19T16:43:24Z</time></trkpt><trkpt lat="45.06876659540465" lon="9.320747845524389"><ele>101.5</ele><time>2026-04-19T16:43:25Z</time></trkpt><trkpt lat="45.06892574160703" lon="9.32043900918313"><ele>101.0</ele><time>2026-04-19T16:43:26Z</time></trkpt><trkpt lat="45.069069352208956" lon="9.320141084064861"><ele>99.0</ele><time>2026-04-19T16:43:27Z</time></trkpt><trkpt lat="45.06920270273856" lon="9.319855681728535"><ele>97.0</ele><time>2026-04-19T16:43:28Z</time></trkpt><trkpt lat="45.069333140689565" lon="9.319581957316194"><ele>96.5</ele><time>2026-04-19T16:43:29Z</time></trkpt><trkpt lat="45.069465981524374" lon="9.319299456000666"><ele>96.0</ele><time>2026-04-19T16:43:30Z</time></trkpt><trkpt lat="45.069593249564775" lon="9.319020440160672"><ele>96.5</ele><time>2026-04-19T16:43:31Z</time></trkpt><trkpt lat="45.0697191451953" lon="9.31874759941881"><ele>97.0</ele><time>2026-04-19T16:43:32Z</time></trkpt><trkpt lat="45.0698457353539" lon="9.318485139003345"><ele>97.66666666666667</ele><time>2026-04-19T16:43:33Z</time></trkpt><trkpt lat="45.069978731006955" lon="9.318234023321862"><ele>98.33333333333334</ele><time>2026-04-19T16:43:34Z</time></trkpt><trkpt lat="45.070110649154685" lon="9.31800832710247"><ele>99.0</ele><time>2026-04-19T16:43:35Z</time></trkpt><trkpt lat="45.0702416634935" lon="9.31777767604414"><ele>97.66666666666667</ele><time>2026-04-19T16:43:36Z</time></trkpt><trkpt lat="45.07037823505027" lon="9.317541116777031"><ele>96.33333333333334</ele><time>2026-04-19T16:43:37Z</time></trkpt><trkpt lat="45.07052542042958" lon="9.317303682487637"><ele>95.0</ele><time>2026-04-19T16:43:38Z</time></trkpt><trkpt lat="45.07067684400402" lon="9.317066717119763"><ele>94.0</ele><time>2026-04-19T16:43:39Z</time></trkpt><trkpt lat="45.07084448878122" lon="9.316855412505193"><ele>93.0</ele><time>2026-04-19T16:43:40Z</time></trkpt><trkpt lat="45.07098990101154" lon="9.31665916722262"><ele>92.0</ele><time>2026-04-19T16:43:41Z</time></trkpt><trkpt lat="45.071102811664964" lon="9.31648361408697"><ele>91.75</ele><time>2026-04-19T16:43:42Z</time></trkpt><trkpt lat="45.07120989415917" lon="9.316357213779595"><ele>91.5</ele><time>2026-04-19T16:43:43Z</time></trkpt><trkpt lat="45.07130923383429" lon="9.31625348648486"><ele>91.25</ele><time>2026-04-19T16:43:44Z</time></trkpt><trkpt lat="45.07141236330968" lon="9.316168886942673"><ele>91.0</ele><time>2026-04-19T16:43:45Z</time></trkpt><trkpt lat="45.07150656691902" lon="9.316122652770307"><ele>91.0</ele><time>2026-04-19T16:43:46Z</time></trkpt><trkpt lat="45.071594806767116" lon="9.316112165696815"><ele>91.0</ele><time>2026-04-19T16:43:47Z</time></trkpt><trkpt lat="45.071689603345646" lon="9.316122124828807"><ele>91.0</ele><time>2026-04-19T16:43:48Z</time></trkpt><trkpt lat="45.0717625170553" lon="9.316091939839419"><ele>91.0</ele><time>2026-04-19T16:43:49Z</time></trkpt><trkpt lat="45.071815691256795" lon="9.316017564965723"><ele>91.0</ele><time>2026-04-19T16:43:50Z</time></trkpt><trkpt lat="45.071848427258914" lon="9.315896873246238"><ele>91.0</ele><time>2026-04-19T16:43:51Z</time></trkpt><trkpt lat="45.07185655832388" lon="9.315750571182582"><ele>90.5</ele><time>2026-04-19T16:43:52Z</time></trkpt><trkpt lat="45.07187229401512" lon="9.315594139500625"><ele>90.0</ele><time>2026-04-19T16:43:53Z</time></trkpt><trkpt lat="45.07192945863911" lon="9.31544649049386"><ele>89.5</ele><time>2026-04-19T16:43:54Z</time></trkpt><trkpt lat="45.07203734434901" lon="9.315308955378466"><ele>89.0</ele><time>2026-04-19T16:43:55Z</time></trkpt><trkpt lat="45.072176620156014" lon="9.315145949617701"><ele>88.66666666666667</ele><time>2026-04-19T16:43:56Z</time></trkpt><trkpt lat="45.072342821528686" lon="9.314932017753062"><ele>88.33333333333333</ele><time>2026-04-19T16:43:57Z</time></trkpt><trkpt lat="45.07249813016569" lon="9.314731008195302"><ele>88.0</ele><time>2026-04-19T16:43:58Z</time></trkpt><trkpt lat="45.07264292520666" lon="9.314557757051915"><ele>87.66666666666666</ele><time>2026-04-19T16:43:59Z</time></trkpt><trkpt lat="45.0727771522642" lon="9.314393722565502"><ele>87.33333333333333</ele><time>2026-04-19T16:44:00Z</time></trkpt><trkpt lat="45.07290590090407" lon="9.314238885595623"><ele>87.0</ele><time>2026-04-19T16:44:01Z</time></trkpt><trkpt lat="45.07302737303545" lon="9.314087432558788"><ele>87.0</ele><time>2026-04-19T16:44:02Z</time></trkpt><trkpt lat="45.073149652832456" lon="9.313926836113987"><ele>87.0</ele><time>2026-04-19T16:44:03Z</time></trkpt><trkpt lat="45.07327112527379" lon="9.313762841513396"><ele>87.0</ele><time>2026-04-19T16:44:04Z</time></trkpt><trkpt lat="45.07339920651415" lon="9.313589666503955"><ele>87.0</ele><time>2026-04-19T16:44:05Z</time></trkpt><trkpt lat="45.0735349289131" lon="9.31337891889558"><ele>87.0</ele><time>2026-04-19T16:44:06Z</time></trkpt><trkpt lat="45.073664744779926" lon="9.313163141547772"><ele>87.0</ele><time>2026-04-19T16:44:07Z</time></trkpt><trkpt lat="45.07377593471407" lon="9.312972288294093"><ele>86.0</ele><time>2026-04-19T16:44:08Z</time></trkpt><trkpt lat="45.07386990241568" lon="9.31278738121635"><ele>85.0</ele><time>2026-04-19T16:44:09Z</time></trkpt><trkpt lat="45.07395929325931" lon="9.312614445246703"><ele>84.0</ele><time>2026-04-19T16:44:10Z</time></trkpt><trkpt lat="45.074043341048245" lon="9.312449558072037"><ele>84.0</ele><time>2026-04-19T16:44:11Z</time></trkpt><trkpt lat="45.07413093526737" lon="9.312273004171214"><ele>84.0</ele><time>2026-04-19T16:44:12Z</time></trkpt><trkpt lat="45.07421848214259" lon="9.312092732226041"><ele>84.0</ele><time>2026-04-19T16:44:13Z</time></trkpt><trkpt lat="45.074306202758116" lon="9.311908164864171"><ele>84.0</ele><time>2026-04-19T16:44:14Z</time></trkpt><trkpt lat="45.07439230273549" lon="9.311714357960344"><ele>84.0</ele><time>2026-04-19T16:44:15Z</time></trkpt><trkpt lat="45.07447323317334" lon="9.311522391576455"><ele>84.0</ele><time>2026-04-19T16:44:16Z</time></trkpt><trkpt lat="45.07455022419938" lon="9.311328781181132"><ele>82.66666666666667</ele><time>2026-04-19T16:44:17Z</time></trkpt><trkpt lat="45.074618482904825" lon="9.31113012814406"><ele>81.33333333333334</ele><time>2026-04-19T16:44:18Z</time></trkpt><trkpt lat="45.07468071831119" lon="9.310931304771826"><ele>80.0</ele><time>2026-04-19T16:44:19Z</time></trkpt><trkpt lat="45.07473743721899" lon="9.31073825408476"><ele>78.33333333333334</ele><time>2026-04-19T16:44:20Z</time></trkpt><trkpt lat="45.0747942863517" lon="9.3105442801722"><ele>76.66666666666667</ele><time>2026-04-19T16:44:21Z</time></trkpt><trkpt lat="45.074850105284476" lon="9.310341552672055"><ele>75.0</ele><time>2026-04-19T16:44:22Z</time></trkpt><trkpt lat="45.07489750906449" lon="9.310142868621378"><ele>75.5</ele><time>2026-04-19T16:44:23Z</time></trkpt><trkpt lat="45.074943063604216" lon="9.309960961840348"><ele>76.0</ele><time>2026-04-19T16:44:24Z</time></trkpt><trkpt lat="45.07498938037" lon="9.309788086571317"><ele>76.5</ele><time>2026-04-19T16:44:25Z</time></trkpt><trkpt lat="45.075033557382135" lon="9.30961588565176"><ele>77.0</ele><time>2026-04-19T16:44:26Z</time></trkpt><trkpt lat="45.07507540226399" lon="9.309447783500984"><ele>77.0</ele><time>2026-04-19T16:44:27Z</time></trkpt><trkpt lat="45.075120317366796" lon="9.309285808001459"><ele>77.0</ele><time>2026-04-19T16:44:28Z</time></trkpt><trkpt lat="45.075166875935494" lon="9.309114947569718"><ele>77.0</ele><time>2026-04-19T16:44:29Z</time></trkpt><trkpt lat="45.07521212975588" lon="9.308943735355564"><ele>77.0</ele><time>2026-04-19T16:44:30Z</time></trkpt><trkpt lat="45.07525045538124" lon="9.308779495763808"><ele>76.5</ele><time>2026-04-19T16:44:31Z</time></trkpt><trkpt lat="45.0752897803989" lon="9.308611827292633"><ele>76.0</ele><time>2026-04-19T16:44:32Z</time></trkpt><trkpt lat="45.07533062767654" lon="9.308453587097693"><ele>75.5</ele><time>2026-04-19T16:44:33Z</time></trkpt><trkpt lat="45.075365394417" lon="9.308310296177876"><ele>75.0</ele><time>2026-04-19T16:44:34Z</time></trkpt><trkpt lat="45.075403684467794" lon="9.308164619235535"><ele>75.4</ele><time>2026-04-19T16:44:35Z</time></trkpt><trkpt lat="45.07544067479464" lon="9.308028451061185"><ele>75.8</ele><time>2026-04-19T16:44:36Z</time></trkpt><trkpt lat="45.0754739725133" lon="9.307903856375878"><ele>76.2</ele><time>2026-04-19T16:44:37Z</time></trkpt><trkpt lat="45.07550816991868" lon="9.307787358438373"><ele>76.6</ele><time>2026-04-19T16:44:38Z</time></trkpt><trkpt lat="45.07554472558344" lon="9.30767720956237"><ele>77.0</ele><time>2026-04-19T16:44:39Z</time></trkpt><trkpt lat="45.07558950948535" lon="9.307561613483422"><ele>77.0</ele><time>2026-04-19T16:44:40Z</time></trkpt><trkpt lat="45.07564623891714" lon="9.307452116629781"><ele>77.0</ele><time>2026-04-19T16:44:41Z</time></trkpt><trkpt lat="45.07571585263253" lon="9.307333936651391"><ele>77.0</ele><time>2026-04-19T16:44:42Z</time></trkpt><trkpt lat="45.07578642954113" lon="9.307197353262822"><ele>77.0</ele><time>2026-04-19T16:44:43Z</time></trkpt><trkpt lat="45.07586643514741" lon="9.307048770940183"><ele>77.66666666666667</ele><time>2026-04-19T16:44:44Z</time></trkpt><trkpt lat="45.07596630186749" lon="9.306906720951252"><ele>78.33333333333333</ele><time>2026-04-19T16:44:45Z</time></trkpt><trkpt lat="45.07609632257817" lon="9.306759618748345"><ele>79.0</ele><time>2026-04-19T16:44:46Z</time></trkpt><trkpt lat="45.07623656669676" lon="9.30662218923008"><ele>79.0</ele><time>2026-04-19T16:44:47Z</time></trkpt><trkpt lat="45.076380007820035" lon="9.30649596971761"><ele>79.0</ele><time>2026-04-19T16:44:48Z</time></trkpt><trkpt lat="45.076531900672435" lon="9.306371397044172"><ele>79.0</ele><time>2026-04-19T16:44:49Z</time></trkpt><trkpt lat="45.0766770005993" lon="9.306252733967842"><ele>79.25</ele><time>2026-04-19T16:44:50Z</time></trkpt><trkpt lat="45.076814653075985" lon="9.30614140522667"><ele>79.5</ele><time>2026-04-19T16:44:51Z</time></trkpt><trkpt lat="45.07694151147479" lon="9.30603954921915"><ele>79.75</ele><time>2026-04-19T16:44:52Z</time></trkpt><trkpt lat="45.07706673690341" lon="9.305940871731378"><ele>80.0</ele><time>2026-04-19T16:44:53Z</time></trkpt><trkpt lat="45.07720047460572" lon="9.305833646410804"><ele>80.0</ele><time>2026-04-19T16:44:54Z</time></trkpt><trkpt lat="45.077343831877165" lon="9.30571578430776"><ele>80.0</ele><time>2026-04-19T16:44:55Z</time></trkpt><trkpt lat="45.07749715652447" lon="9.30559110125939"><ele>80.0</ele><time>2026-04-19T16:44:55.999Z</time></trkpt><trkpt lat="45.07766502799674" lon="9.30545948039767"><ele>79.66666666666667</ele><time>2026-04-19T16:44:56.999Z</time></trkpt><trkpt lat="45.07783358025444" lon="9.305324354090205"><ele>79.33333333333333</ele><time>2026-04-19T16:44:57.999Z</time></trkpt><trkpt lat="45.07799330831955" lon="9.305179024435967"><ele>79.0</ele><time>2026-04-19T16:44:58.999Z</time></trkpt><trkpt lat="45.07813017431517" lon="9.30504868321912"><ele>79.0</ele><time>2026-04-19T16:44:59.999Z</time></trkpt><trkpt lat="45.07824402609394" lon="9.304923448515408"><ele>79.0</ele><time>2026-04-19T16:45:00.999Z</time></trkpt><trkpt lat="45.07834957607051" lon="9.304781168994646"><ele>79.0</ele><time>2026-04-19T16:45:01.999Z</time></trkpt><trkpt lat="45.07844552480621" lon="9.304631537837768"><ele>79.0</ele><time>2026-04-19T16:45:02.999Z</time></trkpt><trkpt lat="45.078535398980044" lon="9.304468299481266"><ele>79.0</ele><time>2026-04-19T16:45:03.999Z</time></trkpt><trkpt lat="45.07861965772151" lon="9.30429650755134"><ele>79.0</ele><time>2026-04-19T16:45:04.999Z</time></trkpt><trkpt lat="45.07869111743754" lon="9.304117612869947"><ele>79.0</ele><time>2026-04-19T16:45:05.999Z</time></trkpt><trkpt lat="45.078741809122825" lon="9.30394613480662"><ele>79.0</ele><time>2026-04-19T16:45:06.999Z</time></trkpt><trkpt lat="45.07878390500886" lon="9.30377168637938"><ele>78.66666666666666</ele><time>2026-04-19T16:45:07.999Z</time></trkpt><trkpt lat="45.078814855934574" lon="9.303581290632398"><ele>78.33333333333333</ele><time>2026-04-19T16:45:08.999Z</time></trkpt><trkpt lat="45.07884200322157" lon="9.303360781996524"><ele>78.0</ele><time>2026-04-19T16:45:09.999Z</time></trkpt><trkpt lat="45.07886798926815" lon="9.303124262488215"><ele>78.0</ele><time>2026-04-19T16:45:10.999Z</time></trkpt><trkpt lat="45.07889019595299" lon="9.302961042561678"><ele>78.0</ele><time>2026-04-19T16:45:11.999Z</time></trkpt><trkpt lat="45.07890254880951" lon="9.30277890028461"><ele>78.0</ele><time>2026-04-19T16:45:12.999Z</time></trkpt><trkpt lat="45.07890665892428" lon="9.302629871329321"><ele>78.0</ele><time>2026-04-19T16:45:14Z</time></trkpt><trkpt lat="45.078918168577836" lon="9.302501939143447"><ele>78.0</ele><time>2026-04-19T16:45:15Z</time></trkpt><trkpt lat="45.07892680191811" lon="9.302400818154336"><ele>78.0</ele><time>2026-04-19T16:45:16Z</time></trkpt><trkpt lat="45.078938316511405" lon="9.302287699374116"><ele>78.0</ele><time>2026-04-19T16:45:18Z</time></trkpt><trkpt lat="45.078949849078946" lon="9.302137654591405"><ele>78.0</ele><time>2026-04-19T16:46:03Z</time></trkpt><trkpt lat="45.07896411396135" lon="9.302000138035098"><ele>78.0</ele><time>2026-04-19T16:46:04Z</time></trkpt><trkpt lat="45.07897660356476" lon="9.301860407018017"><ele>78.0</ele><time>2026-04-19T16:46:05Z</time></trkpt><trkpt lat="45.078988974827844" lon="9.30170908094339"><ele>78.25</ele><time>2026-04-19T16:46:06Z</time></trkpt><trkpt lat="45.07900197507688" lon="9.301526319655085"><ele>78.5</ele><time>2026-04-19T16:46:07Z</time></trkpt><trkpt lat="45.07901276879817" lon="9.301333185778136"><ele>78.75</ele><time>2026-04-19T16:46:08Z</time></trkpt><trkpt lat="45.079019610936314" lon="9.301149564472691"><ele>79.0</ele><time>2026-04-19T16:46:09Z</time></trkpt><trkpt lat="45.07902258958039" lon="9.300979479250948"><ele>79.25</ele><time>2026-04-19T16:46:10Z</time></trkpt><trkpt lat="45.07901576719081" lon="9.300816471300278"><ele>79.5</ele><time>2026-04-19T16:46:11Z</time></trkpt><trkpt lat="45.07900680702673" lon="9.300658430951936"><ele>79.75</ele><time>2026-04-19T16:46:12Z</time></trkpt><trkpt lat="45.078995534834384" lon="9.300499436892927"><ele>80.0</ele><time>2026-04-19T16:46:13Z</time></trkpt><trkpt lat="45.07897713071304" lon="9.300325507489086"><ele>79.33333333333334</ele><time>2026-04-19T16:46:14Z</time></trkpt><trkpt lat="45.078976372463885" lon="9.30009470359422"><ele>78.66666666666667</ele><time>2026-04-19T16:46:15Z</time></trkpt><trkpt lat="45.07894916850366" lon="9.299827054922456"><ele>78.0</ele><time>2026-04-19T16:46:16Z</time></trkpt><trkpt lat="45.078944357327394" lon="9.299558045415022"><ele>77.33333333333333</ele><time>2026-04-19T16:46:17Z</time></trkpt><trkpt lat="45.07893437299086" lon="9.29929095701727"><ele>76.66666666666666</ele><time>2026-04-19T16:46:18Z</time></trkpt><trkpt lat="45.07892035954252" lon="9.298996249811568"><ele>76.0</ele><time>2026-04-19T16:46:19Z</time></trkpt><trkpt lat="45.07890389558461" lon="9.298694626016033"><ele>76.0</ele><time>2026-04-19T16:46:20Z</time></trkpt><trkpt lat="45.07888914918476" lon="9.298401807904261"><ele>76.0</ele><time>2026-04-19T16:46:21Z</time></trkpt><trkpt lat="45.078878068237394" lon="9.298105418439613"><ele>76.0</ele><time>2026-04-19T16:46:22Z</time></trkpt><trkpt lat="45.07886956192835" lon="9.297795463763256"><ele>76.0</ele><time>2026-04-19T16:46:23Z</time></trkpt><trkpt lat="45.07886751444705" lon="9.297489583783772"><ele>76.0</ele><time>2026-04-19T16:46:24Z</time></trkpt><trkpt lat="45.078876468243706" lon="9.297192684618862"><ele>76.0</ele><time>2026-04-19T16:46:25Z</time></trkpt><trkpt lat="45.07889077512469" lon="9.296898802365616"><ele>76.33333333333333</ele><time>2026-04-19T16:46:26Z</time></trkpt><trkpt lat="45.07890857377621" lon="9.296603811616142"><ele>76.66666666666667</ele><time>2026-04-19T16:46:27Z</time></trkpt><trkpt lat="45.078928606426025" lon="9.29630915646802"><ele>77.0</ele><time>2026-04-19T16:46:28Z</time></trkpt><trkpt lat="45.0789436898461" lon="9.296017642677162"><ele>77.33333333333334</ele><time>2026-04-19T16:46:29Z</time></trkpt><trkpt lat="45.07896444119682" lon="9.295721176273194"><ele>77.66666666666667</ele><time>2026-04-19T16:46:30Z</time></trkpt><trkpt lat="45.07897764997941" lon="9.295423096821247"><ele>78.0</ele><time>2026-04-19T16:46:31Z</time></trkpt><trkpt lat="45.07898111304795" lon="9.295121114909442"><ele>77.66666666666667</ele><time>2026-04-19T16:46:32Z</time></trkpt><trkpt lat="45.078978056239286" lon="9.29481882737631"><ele>77.33333333333334</ele><time>2026-04-19T16:46:33Z</time></trkpt><trkpt lat="45.07897353764166" lon="9.29452344996417"><ele>77.0</ele><time>2026-04-19T16:46:34Z</time></trkpt><trkpt lat="45.07897037237665" lon="9.294253841536186"><ele>77.0</ele><time>2026-04-19T16:46:35Z</time></trkpt><trkpt lat="45.07896877809126" lon="9.294003734360848"><ele>77.0</ele><time>2026-04-19T16:46:36Z</time></trkpt><trkpt lat="45.078965181412315" lon="9.29377431621283"><ele>77.0</ele><time>2026-04-19T16:46:37Z</time></trkpt><trkpt lat="45.0789621071988" lon="9.293565165659869"><ele>77.5</ele><time>2026-04-19T16:46:38Z</time></trkpt><trkpt lat="45.07895619872864" lon="9.293366668254661"><ele>78.0</ele><time>2026-04-19T16:46:39Z</time></trkpt><trkpt lat="45.078953257290856" lon="9.293184343633033"><ele>78.5</ele><time>2026-04-19T16:46:40Z</time></trkpt><trkpt lat="45.07894953758874" lon="9.293021001968508"><ele>79.0</ele><time>2026-04-19T16:46:41Z</time></trkpt><trkpt lat="45.07894738885565" lon="9.29287481954208"><ele>79.0</ele><time>2026-04-19T16:46:42Z</time></trkpt><trkpt lat="45.078944573754946" lon="9.292737504326514"><ele>79.0</ele><time>2026-04-19T16:46:43Z</time></trkpt><trkpt lat="45.07894371701829" lon="9.292613917782358"><ele>79.0</ele><time>2026-04-19T16:46:44Z</time></trkpt><trkpt lat="45.07894658081693" lon="9.292514763083238"><ele>79.0</ele><time>2026-04-19T16:46:45Z</time></trkpt><trkpt lat="45.078951004279034" lon="9.292367508828624"><ele>79.0</ele><time>2026-04-19T16:46:47Z</time></trkpt><trkpt lat="45.078955064099084" lon="9.292259420453307"><ele>79.0</ele><time>2026-04-19T16:46:54Z</time></trkpt><trkpt lat="45.07895868289112" lon="9.292062782271206"><ele>78.8</ele><time>2026-04-19T16:46:56Z</time></trkpt><trkpt lat="45.07895876950556" lon="9.291937767736883"><ele>78.60000000000001</ele><time>2026-04-19T16:46:57Z</time></trkpt><trkpt lat="45.07895536018465" lon="9.291809690857855"><ele>78.4</ele><time>2026-04-19T16:46:58Z</time></trkpt><trkpt lat="45.078955204716536" lon="9.291643914408318"><ele>78.2</ele><time>2026-04-19T16:46:59Z</time></trkpt><trkpt lat="45.07895568867147" lon="9.291458251291518"><ele>78.0</ele><time>2026-04-19T16:47:00Z</time></trkpt><trkpt lat="45.078954974553106" lon="9.29126756317563"><ele>77.5</ele><time>2026-04-19T16:47:01Z</time></trkpt><trkpt lat="45.078955117798245" lon="9.291080265442977"><ele>77.0</ele><time>2026-04-19T16:47:02Z</time></trkpt><trkpt lat="45.07895425420806" lon="9.290874832045825"><ele>76.5</ele><time>2026-04-19T16:47:03Z</time></trkpt><trkpt lat="45.07895346626785" lon="9.290648135588496"><ele>76.0</ele><time>2026-04-19T16:47:04Z</time></trkpt><trkpt lat="45.07895132924027" lon="9.290410130090546"><ele>76.0</ele><time>2026-04-19T16:47:05Z</time></trkpt><trkpt lat="45.07894956919874" lon="9.290165114158338"><ele>76.0</ele><time>2026-04-19T16:47:06Z</time></trkpt><trkpt lat="45.078948998235816" lon="9.289931816101076"><ele>76.0</ele><time>2026-04-19T16:47:07Z</time></trkpt><trkpt lat="45.078947647312965" lon="9.289686728970612"><ele>75.66666666666666</ele><time>2026-04-19T16:47:08Z</time></trkpt><trkpt lat="45.078946031618436" lon="9.289432373835702"><ele>75.33333333333333</ele><time>2026-04-19T16:47:09Z</time></trkpt><trkpt lat="45.078943929864174" lon="9.289164096692975"><ele>75.0</ele><time>2026-04-19T16:47:10Z</time></trkpt><trkpt lat="45.07894580534263" lon="9.288883417491038"><ele>75.0</ele><time>2026-04-19T16:47:11Z</time></trkpt><trkpt lat="45.07894589846947" lon="9.288599485713927"><ele>75.0</ele><time>2026-04-19T16:47:12Z</time></trkpt><trkpt lat="45.078942355088174" lon="9.288323388596893"><ele>75.0</ele><time>2026-04-19T16:47:12.999Z</time></trkpt><trkpt lat="45.078936241038434" lon="9.28804333808976"><ele>75.0</ele><time>2026-04-19T16:47:13.999Z</time></trkpt><trkpt lat="45.07893151822525" lon="9.287750079341857"><ele>75.0</ele><time>2026-04-19T16:47:14.999Z</time></trkpt><trkpt lat="45.07892924457719" lon="9.287456067779429"><ele>75.0</ele><time>2026-04-19T16:47:15.999Z</time></trkpt><trkpt lat="45.07892371344718" lon="9.287157609345867"><ele>75.0</ele><time>2026-04-19T16:47:16.999Z</time></trkpt><trkpt lat="45.078900647849416" lon="9.286880155173968"><ele>75.0</ele><time>2026-04-19T16:47:17.999Z</time></trkpt><trkpt lat="45.07885223483261" lon="9.286612805407607"><ele>75.0</ele><time>2026-04-19T16:47:18.999Z</time></trkpt><trkpt lat="45.07879814710687" lon="9.286366537147963"><ele>75.0</ele><time>2026-04-19T16:47:20Z</time></trkpt><trkpt lat="45.07873675171752" lon="9.286152781019215"><ele>75.0</ele><time>2026-04-19T16:47:21Z</time></trkpt><trkpt lat="45.078690857018195" lon="9.285943075081923"><ele>75.0</ele><time>2026-04-19T16:47:22Z</time></trkpt><trkpt lat="45.07864626654213" lon="9.285760710254563"><ele>75.0</ele><time>2026-04-19T16:47:23Z</time></trkpt><trkpt lat="45.07861500205609" lon="9.285614480936509"><ele>75.0</ele><time>2026-04-19T16:47:24Z</time></trkpt><trkpt lat="45.07858966609846" lon="9.285494919741868"><ele>75.0</ele><time>2026-04-19T16:47:25Z</time></trkpt><trkpt lat="45.07856879581134" lon="9.285393363300418"><ele>75.0</ele><time>2026-04-19T16:47:26Z</time></trkpt><trkpt lat="45.07854864937793" lon="9.28524499918944"><ele>75.0</ele><time>2026-04-19T16:47:28Z</time></trkpt><trkpt lat="45.07854260113627" lon="9.285117359563824"><ele>75.0</ele><time>2026-04-19T16:47:30Z</time></trkpt><trkpt lat="45.07850970993891" lon="9.285001276735075"><ele>75.0</ele><time>2026-04-19T16:47:32Z</time></trkpt><trkpt lat="45.07843488345053" lon="9.284853890491465"><ele>75.0</ele><time>2026-04-19T16:47:34Z</time></trkpt><trkpt lat="45.07840075366063" lon="9.28475665888554"><ele>75.0</ele><time>2026-04-19T16:47:35Z</time></trkpt><trkpt lat="45.07837433407738" lon="9.284638879973903"><ele>75.0</ele><time>2026-04-19T16:47:36Z</time></trkpt><trkpt lat="45.07834396795911" lon="9.284514414255355"><ele>74.75</ele><time>2026-04-19T16:47:37Z</time></trkpt><trkpt lat="45.078306827789135" lon="9.284370090200296"><ele>74.5</ele><time>2026-04-19T16:47:38Z</time></trkpt><trkpt lat="45.078265391967875" lon="9.28420941841864"><ele>74.25</ele><time>2026-04-19T16:47:39Z</time></trkpt><trkpt lat="45.07821261739795" lon="9.284007983597569"><ele>74.0</ele><time>2026-04-19T16:47:40Z</time></trkpt><trkpt lat="45.078155491230966" lon="9.283774078708788"><ele>76.33333333333334</ele><time>2026-04-19T16:47:41Z</time></trkpt><trkpt lat="45.07810330360218" lon="9.283538053273544"><ele>78.66666666666667</ele><time>2026-04-19T16:47:42Z</time></trkpt><trkpt lat="45.078058472607474" lon="9.283312079097696"><ele>81.0</ele><time>2026-04-19T16:47:43Z</time></trkpt><trkpt lat="45.078016866232474" lon="9.283118379947016"><ele>80.5</ele><time>2026-04-19T16:47:44Z</time></trkpt><trkpt lat="45.07797474258428" lon="9.28297091116945"><ele>80.0</ele><time>2026-04-19T16:47:45Z</time></trkpt><trkpt lat="45.07793084214244" lon="9.28278657016159"><ele>79.5</ele><time>2026-04-19T16:47:46Z</time></trkpt><trkpt lat="45.0778898213289" lon="9.28257355359826"><ele>79.0</ele><time>2026-04-19T16:47:47Z</time></trkpt><trkpt lat="45.07783713423687" lon="9.2823369533059"><ele>78.5</ele><time>2026-04-19T16:47:48Z</time></trkpt><trkpt lat="45.077780605592665" lon="9.28211916808271"><ele>78.0</ele><time>2026-04-19T16:47:49Z</time></trkpt><trkpt lat="45.07772071652269" lon="9.281929968737014"><ele>77.5</ele><time>2026-04-19T16:47:50Z</time></trkpt><trkpt lat="45.077666245415834" lon="9.28177022347716"><ele>77.0</ele><time>2026-04-19T16:47:51Z</time></trkpt><trkpt lat="45.07762232692523" lon="9.281646260644024"><ele>77.0</ele><time>2026-04-19T16:47:52Z</time></trkpt><trkpt lat="45.07758225174567" lon="9.281542820730001"><ele>77.0</ele><time>2026-04-19T16:47:53Z</time></trkpt><trkpt lat="45.077532442941" lon="9.2814137180195"><ele>77.0</ele><time>2026-04-19T16:47:55Z</time></trkpt><trkpt lat="45.07748772774039" lon="9.281301143933332"><ele>77.0</ele><time>2026-04-19T16:47:57Z</time></trkpt><trkpt lat="45.077438779328226" lon="9.281206358784212"><ele>77.0</ele><time>2026-04-19T16:47:59Z</time></trkpt><trkpt lat="45.07735867869025" lon="9.281048345304956"><ele>77.0</ele><time>2026-04-19T16:48:01Z</time></trkpt><trkpt lat="45.077304760974386" lon="9.280946761399663"><ele>77.0</ele><time>2026-04-19T16:48:02Z</time></trkpt><trkpt lat="45.077259410804885" lon="9.280852148173693"><ele>77.0</ele><time>2026-04-19T16:48:03Z</time></trkpt><trkpt lat="45.077222967684314" lon="9.280765765383656"><ele>77.0</ele><time>2026-04-19T16:48:04Z</time></trkpt><trkpt lat="45.07717213362085" lon="9.28060650695436"><ele>77.0</ele><time>2026-04-19T16:48:06Z</time></trkpt><trkpt lat="45.077170857074044" lon="9.280451961704117"><ele>76.66666666666667</ele><time>2026-04-19T16:48:08Z</time></trkpt><trkpt lat="45.077193098607054" lon="9.280335681871152"><ele>76.33333333333334</ele><time>2026-04-19T16:48:10Z</time></trkpt><trkpt lat="45.077192115478205" lon="9.280226339399048"><ele>76.0</ele><time>2026-04-19T16:48:12Z</time></trkpt><trkpt lat="45.07711716193053" lon="9.280125740623765"><ele>75.66666666666667</ele><time>2026-04-19T16:48:14Z</time></trkpt><trkpt lat="45.0770458306684" lon="9.280105087635006"><ele>75.33333333333333</ele><time>2026-04-19T16:48:15Z</time></trkpt><trkpt lat="45.076971206405936" lon="9.28007877684582"><ele>75.0</ele><time>2026-04-19T16:48:16Z</time></trkpt><trkpt lat="45.07689758883641" lon="9.280022855591971"><ele>75.0</ele><time>2026-04-19T16:48:17Z</time></trkpt><trkpt lat="45.076824439703664" lon="9.279943922911988"><ele>75.0</ele><time>2026-04-19T16:48:18Z</time></trkpt><trkpt lat="45.07675218683721" lon="9.279836315842273"><ele>75.0</ele><time>2026-04-19T16:48:19Z</time></trkpt><trkpt lat="45.076682371697515" lon="9.279712513041304"><ele>75.0</ele><time>2026-04-19T16:48:20Z</time></trkpt><trkpt lat="45.07659777254731" lon="9.279561093944963"><ele>75.0</ele><time>2026-04-19T16:48:21Z</time></trkpt><trkpt lat="45.07653224188259" lon="9.279422082266688"><ele>75.0</ele><time>2026-04-19T16:48:22Z</time></trkpt><trkpt lat="45.076441039654924" lon="9.279246504035543"><ele>75.0</ele><time>2026-04-19T16:48:23Z</time></trkpt><trkpt lat="45.076350242917655" lon="9.27903226356142"><ele>75.0</ele><time>2026-04-19T16:48:24Z</time></trkpt><trkpt lat="45.07624874203114" lon="9.278840801650079"><ele>75.0</ele><time>2026-04-19T16:48:25Z</time></trkpt><trkpt lat="45.076146561713635" lon="9.278676447678428"><ele>75.0</ele><time>2026-04-19T16:48:26Z</time></trkpt><trkpt lat="45.076080799840625" lon="9.278494947259903"><ele>75.0</ele><time>2026-04-19T16:48:27Z</time></trkpt><trkpt lat="45.076008614811435" lon="9.278328333296171"><ele>75.0</ele><time>2026-04-19T16:48:28Z</time></trkpt><trkpt lat="45.07591695347992" lon="9.278165156143357"><ele>75.0</ele><time>2026-04-19T16:48:29Z</time></trkpt><trkpt lat="45.07584168772761" lon="9.27797829006211"><ele>75.0</ele><time>2026-04-19T16:48:30Z</time></trkpt><trkpt lat="45.07577335987351" lon="9.277797633814242"><ele>75.0</ele><time>2026-04-19T16:48:31Z</time></trkpt><trkpt lat="45.07571773868539" lon="9.277634357151188"><ele>75.0</ele><time>2026-04-19T16:48:32Z</time></trkpt><trkpt lat="45.07566012084706" lon="9.27747773189766"><ele>75.0</ele><time>2026-04-19T16:48:33Z</time></trkpt><trkpt lat="45.075599864782994" lon="9.27731161342553"><ele>75.0</ele><time>2026-04-19T16:48:34Z</time></trkpt><trkpt lat="45.075568739669365" lon="9.27709566305322"><ele>75.0</ele><time>2026-04-19T16:48:35Z</time></trkpt><trkpt lat="45.07550424331385" lon="9.276874002148963"><ele>75.0</ele><time>2026-04-19T16:48:36Z</time></trkpt><trkpt lat="45.075450042818794" lon="9.276607719777546"><ele>75.0</ele><time>2026-04-19T16:48:37Z</time></trkpt><trkpt lat="45.07539011569687" lon="9.276341551422476"><ele>75.0</ele><time>2026-04-19T16:48:38Z</time></trkpt><trkpt lat="45.075329315787215" lon="9.27607055946281"><ele>75.33333333333333</ele><time>2026-04-19T16:48:39Z</time></trkpt><trkpt lat="45.07526596612253" lon="9.275781461634496"><ele>75.66666666666666</ele><time>2026-04-19T16:48:40Z</time></trkpt><trkpt lat="45.0752048071041" lon="9.275501498721184"><ele>76.0</ele><time>2026-04-19T16:48:41Z</time></trkpt><trkpt lat="45.07514920003141" lon="9.275248605916689"><ele>76.0</ele><time>2026-04-19T16:48:42Z</time></trkpt><trkpt lat="45.07507825016519" lon="9.27496374817984"><ele>76.0</ele><time>2026-04-19T16:48:43Z</time></trkpt><trkpt lat="45.07501364524182" lon="9.274736302445628"><ele>76.0</ele><time>2026-04-19T16:48:44Z</time></trkpt><trkpt lat="45.07496981790021" lon="9.274522709883671"><ele>75.75</ele><time>2026-04-19T16:48:45Z</time></trkpt><trkpt lat="45.07490962594129" lon="9.274349760421543"><ele>75.5</ele><time>2026-04-19T16:48:46Z</time></trkpt><trkpt lat="45.074849215139274" lon="9.274161151320506"><ele>75.25</ele><time>2026-04-19T16:48:47Z</time></trkpt><trkpt lat="45.0748020017814" lon="9.273937750205189"><ele>75.0</ele><time>2026-04-19T16:48:48Z</time></trkpt><trkpt lat="45.07475623600069" lon="9.273686521060148"><ele>75.0</ele><time>2026-04-19T16:48:49Z</time></trkpt><trkpt lat="45.074695039569846" lon="9.273410113653716"><ele>75.0</ele><time>2026-04-19T16:48:50Z</time></trkpt><trkpt lat="45.07461665486292" lon="9.273113438644756"><ele>75.0</ele><time>2026-04-19T16:48:51Z</time></trkpt><trkpt lat="45.0745133176801" lon="9.272825513532483"><ele>75.5</ele><time>2026-04-19T16:48:52Z</time></trkpt><trkpt lat="45.074394671223715" lon="9.27254620540864"><ele>76.0</ele><time>2026-04-19T16:48:53Z</time></trkpt><trkpt lat="45.07427133354404" lon="9.272281121425882"><ele>76.33333333333333</ele><time>2026-04-19T16:48:54Z</time></trkpt><trkpt lat="45.07413811135939" lon="9.272046165774055"><ele>76.66666666666667</ele><time>2026-04-19T16:48:55Z</time></trkpt><trkpt lat="45.073998503065226" lon="9.271823256984472"><ele>77.0</ele><time>2026-04-19T16:48:56Z</time></trkpt><trkpt lat="45.073851637268945" lon="9.271615637250445"><ele>76.33333333333334</ele><time>2026-04-19T16:48:57Z</time></trkpt><trkpt lat="45.073700103289625" lon="9.271421995120326"><ele>75.66666666666667</ele><time>2026-04-19T16:48:57.999Z</time></trkpt><trkpt lat="45.07355192948011" lon="9.271244974490088"><ele>75.0</ele><time>2026-04-19T16:48:58.999Z</time></trkpt><trkpt lat="45.07340584432786" lon="9.271082926374374"><ele>76.33333333333333</ele><time>2026-04-19T16:48:59.999Z</time></trkpt><trkpt lat="45.0732606450203" lon="9.27092932471185"><ele>77.66666666666666</ele><time>2026-04-19T16:49:00.999Z</time></trkpt><trkpt lat="45.07311384250988" lon="9.27080441833855"><ele>79.0</ele><time>2026-04-19T16:49:01.999Z</time></trkpt><trkpt lat="45.07299254811357" lon="9.270688990474957"><ele>78.5</ele><time>2026-04-19T16:49:02.999Z</time></trkpt><trkpt lat="45.072897257063715" lon="9.270572442906985"><ele>78.0</ele><time>2026-04-19T16:49:03.999Z</time></trkpt><trkpt lat="45.07280344147468" lon="9.270503226929572"><ele>77.5</ele><time>2026-04-19T16:49:04.999Z</time></trkpt><trkpt lat="45.0726921652233" lon="9.270419826894498"><ele>77.0</ele><time>2026-04-19T16:49:05.999Z</time></trkpt><trkpt lat="45.07257682991788" lon="9.270325755361306"><ele>77.0</ele><time>2026-04-19T16:49:06.999Z</time></trkpt><trkpt lat="45.07245578389384" lon="9.270234147743462"><ele>77.0</ele><time>2026-04-19T16:49:07.999Z</time></trkpt><trkpt lat="45.0723325282648" lon="9.27013757139643"><ele>77.0</ele><time>2026-04-19T16:49:08.999Z</time></trkpt><trkpt lat="45.07220088876844" lon="9.2700409247355"><ele>77.0</ele><time>2026-04-19T16:49:09.999Z</time></trkpt><trkpt lat="45.07206684321919" lon="9.269933822133611"><ele>78.0</ele><time>2026-04-19T16:49:10.999Z</time></trkpt><trkpt lat="45.07192776746166" lon="9.269826148545913"><ele>79.0</ele><time>2026-04-19T16:49:11.999Z</time></trkpt><trkpt lat="45.071785971731536" lon="9.2697142850264"><ele>80.0</ele><time>2026-04-19T16:49:12.999Z</time></trkpt><trkpt lat="45.07164099942435" lon="9.269600849640005"><ele>81.25</ele><time>2026-04-19T16:49:13.999Z</time></trkpt><trkpt lat="45.07149869862502" lon="9.269491053650624"><ele>82.5</ele><time>2026-04-19T16:49:14.999Z</time></trkpt><trkpt lat="45.07137422796046" lon="9.269393622531359"><ele>83.75</ele><time>2026-04-19T16:49:15.999Z</time></trkpt><trkpt lat="45.07125947670387" lon="9.269300732128587"><ele>85.0</ele><time>2026-04-19T16:49:16.999Z</time></trkpt><trkpt lat="45.07115179525711" lon="9.269216411022137"><ele>85.0</ele><time>2026-04-19T16:49:17.999Z</time></trkpt><trkpt lat="45.0710403129116" lon="9.269128925617693"><ele>85.0</ele><time>2026-04-19T16:49:18.999Z</time></trkpt><trkpt lat="45.07091919187284" lon="9.26903853960326"><ele>85.0</ele><time>2026-04-19T16:49:19.999Z</time></trkpt><trkpt lat="45.07079369561523" lon="9.268941683650944"><ele>85.0</ele><time>2026-04-19T16:49:20.999Z</time></trkpt><trkpt lat="45.07066127170647" lon="9.268839985321016"><ele>85.5</ele><time>2026-04-19T16:49:21.999Z</time></trkpt><trkpt lat="45.07052840016637" lon="9.268730419049062"><ele>86.0</ele><time>2026-04-19T16:49:22.999Z</time></trkpt><trkpt lat="45.07040353615019" lon="9.268616932100894"><ele>86.5</ele><time>2026-04-19T16:49:23.999Z</time></trkpt><trkpt lat="45.070293578288734" lon="9.268502455689841"><ele>87.0</ele><time>2026-04-19T16:49:24.999Z</time></trkpt><trkpt lat="45.07018644363167" lon="9.268371096214665"><ele>87.0</ele><time>2026-04-19T16:49:26Z</time></trkpt><trkpt lat="45.070077088333825" lon="9.268225193032281"><ele>87.0</ele><time>2026-04-19T16:49:27Z</time></trkpt><trkpt lat="45.069967780116436" lon="9.268087988681808"><ele>87.0</ele><time>2026-04-19T16:49:28Z</time></trkpt><trkpt lat="45.06986182291999" lon="9.267936262969659"><ele>87.0</ele><time>2026-04-19T16:49:29Z</time></trkpt><trkpt lat="45.06975499491598" lon="9.267787028099438"><ele>87.25</ele><time>2026-04-19T16:49:30Z</time></trkpt><trkpt lat="45.06965037349291" lon="9.267627976892431"><ele>87.5</ele><time>2026-04-19T16:49:31Z</time></trkpt><trkpt lat="45.06954938643907" lon="9.267462863448356"><ele>87.75</ele><time>2026-04-19T16:49:32Z</time></trkpt><trkpt lat="45.069465096507784" lon="9.267314388111553"><ele>88.0</ele><time>2026-04-19T16:49:33Z</time></trkpt><trkpt lat="45.06939784875086" lon="9.267176450588694"><ele>87.2</ele><time>2026-04-19T16:49:34Z</time></trkpt><trkpt lat="45.069337098391095" lon="9.267055618939727"><ele>86.4</ele><time>2026-04-19T16:49:35Z</time></trkpt><trkpt lat="45.06928433788685" lon="9.266935343796362"><ele>85.60000000000001</ele><time>2026-04-19T16:49:36Z</time></trkpt><trkpt lat="45.06924062982344" lon="9.266825263652223"><ele>84.80000000000001</ele><time>2026-04-19T16:49:37Z</time></trkpt><trkpt lat="45.069211270791115" lon="9.266704801722115"><ele>84.0</ele><time>2026-04-19T16:49:38Z</time></trkpt><trkpt lat="45.069199539121655" lon="9.266560554077882"><ele>83.6</ele><time>2026-04-19T16:49:39Z</time></trkpt><trkpt lat="45.06918613956374" lon="9.266443797772144"><ele>83.2</ele><time>2026-04-19T16:49:40Z</time></trkpt><trkpt lat="45.06913825866632" lon="9.26635738702797"><ele>82.8</ele><time>2026-04-19T16:49:41Z</time></trkpt><trkpt lat="45.06905393425152" lon="9.266304541437702"><ele>82.39999999999999</ele><time>2026-04-19T16:49:42Z</time></trkpt><trkpt lat="45.0689595899378" lon="9.266247283948118"><ele>82.0</ele><time>2026-04-19T16:49:43Z</time></trkpt><trkpt lat="45.06886385892459" lon="9.266129399522713"><ele>82.0</ele><time>2026-04-19T16:49:44Z</time></trkpt><trkpt lat="45.06878370710585" lon="9.265989704964804"><ele>82.0</ele><time>2026-04-19T16:49:45Z</time></trkpt><trkpt lat="45.0687494571711" lon="9.265872038350631"><ele>82.0</ele><time>2026-04-19T16:49:46Z</time></trkpt><trkpt lat="45.068680111796034" lon="9.2657079577109"><ele>82.0</ele><time>2026-04-19T16:49:48Z</time></trkpt><trkpt lat="45.068619778217794" lon="9.265593348886398"><ele>82.0</ele><time>2026-04-19T16:49:49Z</time></trkpt><trkpt lat="45.06854004824425" lon="9.265446895399942"><ele>82.0</ele><time>2026-04-19T16:49:50Z</time></trkpt><trkpt lat="45.06845114188696" lon="9.265276958165117"><ele>82.0</ele><time>2026-04-19T16:49:51Z</time></trkpt><trkpt lat="45.06835117570434" lon="9.265081667414712"><ele>82.0</ele><time>2026-04-19T16:49:52Z</time></trkpt><trkpt lat="45.06825432105726" lon="9.264886448619317"><ele>82.0</ele><time>2026-04-19T16:49:53Z</time></trkpt><trkpt lat="45.068152781444354" lon="9.264675760125582"><ele>82.0</ele><time>2026-04-19T16:49:54Z</time></trkpt><trkpt lat="45.068039547590764" lon="9.264448087493188"><ele>82.0</ele><time>2026-04-19T16:49:55Z</time></trkpt><trkpt lat="45.06791491360446" lon="9.264194736356824"><ele>82.0</ele><time>2026-04-19T16:49:56Z</time></trkpt><trkpt lat="45.067789664276624" lon="9.263940053925829"><ele>82.0</ele><time>2026-04-19T16:49:57Z</time></trkpt><trkpt lat="45.067658193096435" lon="9.26367155626349"><ele>82.5</ele><time>2026-04-19T16:49:58Z</time></trkpt><trkpt lat="45.067518393392454" lon="9.263391719495063"><ele>83.0</ele><time>2026-04-19T16:49:59Z</time></trkpt><trkpt lat="45.067382968286616" lon="9.263123185200282"><ele>82.66666666666667</ele><time>2026-04-19T16:50:00Z</time></trkpt><trkpt lat="45.06726169387792" lon="9.262879789731635"><ele>82.33333333333333</ele><time>2026-04-19T16:50:01Z</time></trkpt><trkpt lat="45.06714941696128" lon="9.262653347375434"><ele>82.0</ele><time>2026-04-19T16:50:02Z</time></trkpt><trkpt lat="45.06704242386021" lon="9.262441121986086"><ele>81.0</ele><time>2026-04-19T16:50:03Z</time></trkpt><trkpt lat="45.06694038982111" lon="9.262232544461833"><ele>80.0</ele><time>2026-04-19T16:50:04Z</time></trkpt><trkpt lat="45.06684422483292" lon="9.262039919767941"><ele>79.0</ele><time>2026-04-19T16:50:05Z</time></trkpt><trkpt lat="45.06675324266852" lon="9.261860120589366"><ele>79.0</ele><time>2026-04-19T16:50:06Z</time></trkpt><trkpt lat="45.06666742156214" lon="9.26169346452858"><ele>79.0</ele><time>2026-04-19T16:50:07Z</time></trkpt><trkpt lat="45.06659168423906" lon="9.26152556927115"><ele>79.0</ele><time>2026-04-19T16:50:08Z</time></trkpt><trkpt lat="45.06652799528439" lon="9.261362344238659"><ele>79.0</ele><time>2026-04-19T16:50:09Z</time></trkpt><trkpt lat="45.0664736527504" lon="9.261200501727549"><ele>79.0</ele><time>2026-04-19T16:50:10Z</time></trkpt><trkpt lat="45.0663901953124" lon="9.261030819563203"><ele>79.0</ele><time>2026-04-19T16:50:11Z</time></trkpt><trkpt lat="45.06627838693296" lon="9.260855197448238"><ele>79.0</ele><time>2026-04-19T16:50:12Z</time></trkpt><trkpt lat="45.06613920711933" lon="9.260645214497812"><ele>79.0</ele><time>2026-04-19T16:50:13Z</time></trkpt><trkpt lat="45.06602063265592" lon="9.260397256511476"><ele>79.0</ele><time>2026-04-19T16:50:14Z</time></trkpt><trkpt lat="45.06591291017604" lon="9.260180758188485"><ele>79.0</ele><time>2026-04-19T16:50:15Z</time></trkpt><trkpt lat="45.06582296249787" lon="9.259999983371351"><ele>79.6</ele><time>2026-04-19T16:50:16Z</time></trkpt><trkpt lat="45.06575328547852" lon="9.259860367075312"><ele>80.2</ele><time>2026-04-19T16:50:17Z</time></trkpt><trkpt lat="45.065694202213926" lon="9.259767950138363"><ele>80.8</ele><time>2026-04-19T16:50:18Z</time></trkpt><trkpt lat="45.065643507030316" lon="9.25964967726242"><ele>81.39999999999999</ele><time>2026-04-19T16:50:20Z</time></trkpt><trkpt lat="45.065604521547435" lon="9.259554892393712"><ele>82.0</ele><time>2026-04-19T16:50:22Z</time></trkpt><trkpt lat="45.06554370055967" lon="9.25942720343529"><ele>82.0</ele><time>2026-04-19T16:50:24Z</time></trkpt><trkpt lat="45.0654989493564" lon="9.259336880498525"><ele>82.0</ele><time>2026-04-19T16:50:25Z</time></trkpt><trkpt lat="45.06543366503404" lon="9.259214287406971"><ele>82.0</ele><time>2026-04-19T16:50:26Z</time></trkpt><trkpt lat="45.0653494409815" lon="9.259061617427117"><ele>82.0</ele><time>2026-04-19T16:50:27Z</time></trkpt><trkpt lat="45.0652630318461" lon="9.258890995331178"><ele>81.33333333333333</ele><time>2026-04-19T16:50:28Z</time></trkpt><trkpt lat="45.06518200035892" lon="9.25871333891439"><ele>80.66666666666667</ele><time>2026-04-19T16:50:29Z</time></trkpt><trkpt lat="45.06509170765939" lon="9.258525563793667"><ele>80.0</ele><time>2026-04-19T16:50:30Z</time></trkpt><trkpt lat="45.064996598098865" lon="9.258336277573324"><ele>80.0</ele><time>2026-04-19T16:50:31Z</time></trkpt><trkpt lat="45.06490961101202" lon="9.258158481927849"><ele>80.0</ele><time>2026-04-19T16:50:32Z</time></trkpt><trkpt lat="45.06482510506121" lon="9.25799352638258"><ele>80.0</ele><time>2026-04-19T16:50:33Z</time></trkpt><trkpt lat="45.06473886543204" lon="9.257830216932788"><ele>80.0</ele><time>2026-04-19T16:50:34Z</time></trkpt><trkpt lat="45.064658616280305" lon="9.257679697607445"><ele>80.0</ele><time>2026-04-19T16:50:35Z</time></trkpt><trkpt lat="45.064589674987516" lon="9.257538550143689"><ele>80.0</ele><time>2026-04-19T16:50:36Z</time></trkpt><trkpt lat="45.064534316741295" lon="9.257416935277208"><ele>80.0</ele><time>2026-04-19T16:50:37Z</time></trkpt><trkpt lat="45.064492233593946" lon="9.257324642706616"><ele>80.0</ele><time>2026-04-19T16:50:38Z</time></trkpt><trkpt lat="45.064456161211595" lon="9.257240812317791"><ele>80.0</ele><time>2026-04-19T16:50:39Z</time></trkpt><trkpt lat="45.06442185560381" lon="9.257154273179687"><ele>80.0</ele><time>2026-04-19T16:50:40Z</time></trkpt><trkpt lat="45.06440435627782" lon="9.25698124105766"><ele>80.0</ele><time>2026-04-19T16:50:42Z</time></trkpt><trkpt lat="45.0644122226187" lon="9.256886309918613"><ele>80.0</ele><time>2026-04-19T16:50:43Z</time></trkpt><trkpt lat="45.06442619136847" lon="9.25679370953146"><ele>80.0</ele><time>2026-04-19T16:50:44Z</time></trkpt><trkpt lat="45.06438375712427" lon="9.256654456055047"><ele>80.0</ele><time>2026-04-19T16:50:46Z</time></trkpt><trkpt lat="45.064316055787" lon="9.256607592494216"><ele>80.0</ele><time>2026-04-19T16:50:47Z</time></trkpt><trkpt lat="45.064224313396764" lon="9.256578159161425"><ele>80.0</ele><time>2026-04-19T16:50:48Z</time></trkpt><trkpt lat="45.06411630463273" lon="9.256542796982616"><ele>80.25</ele><time>2026-04-19T16:50:49Z</time></trkpt><trkpt lat="45.06400243694085" lon="9.256472193947452"><ele>80.5</ele><time>2026-04-19T16:50:50Z</time></trkpt><trkpt lat="45.0638863237738" lon="9.256387357062232"><ele>80.75</ele><time>2026-04-19T16:50:51Z</time></trkpt><trkpt lat="45.0637495230299" lon="9.256280511111257"><ele>81.0</ele><time>2026-04-19T16:50:52Z</time></trkpt><trkpt lat="45.063564369732866" lon="9.25617531059043"><ele>81.0</ele><time>2026-04-19T16:50:53Z</time></trkpt><trkpt lat="45.06336227030068" lon="9.256093475112579"><ele>81.0</ele><time>2026-04-19T16:50:54Z</time></trkpt><trkpt lat="45.06313100344837" lon="9.256060783219002"><ele>81.0</ele><time>2026-04-19T16:50:55Z</time></trkpt><trkpt lat="45.06286171283689" lon="9.25599064390995"><ele>82.0</ele><time>2026-04-19T16:50:56Z</time></trkpt><trkpt lat="45.062577203278785" lon="9.255902353218286"><ele>83.0</ele><time>2026-04-19T16:50:57Z</time></trkpt><trkpt lat="45.062328101265244" lon="9.255819224648425"><ele>83.0</ele><time>2026-04-19T16:50:58Z</time></trkpt><trkpt lat="45.0621402937586" lon="9.255713958088588"><ele>83.0</ele><time>2026-04-19T16:50:59Z</time></trkpt><trkpt lat="45.061968860651234" lon="9.25566173029397"><ele>83.0</ele><time>2026-04-19T16:51:00Z</time></trkpt><trkpt lat="45.061808602867494" lon="9.25560902325954"><ele>83.25</ele><time>2026-04-19T16:51:01Z</time></trkpt><trkpt lat="45.06165671487125" lon="9.255548567946514"><ele>83.5</ele><time>2026-04-19T16:51:02Z</time></trkpt><trkpt lat="45.06152305511513" lon="9.255480600469767"><ele>83.75</ele><time>2026-04-19T16:51:03Z</time></trkpt><trkpt lat="45.06140369595228" lon="9.25540062691968"><ele>84.0</ele><time>2026-04-19T16:51:04Z</time></trkpt><trkpt lat="45.06128834020982" lon="9.255297033057138"><ele>84.0</ele><time>2026-04-19T16:51:05Z</time></trkpt><trkpt lat="45.06116459710492" lon="9.25520046820124"><ele>84.0</ele><time>2026-04-19T16:51:06Z</time></trkpt><trkpt lat="45.061063743932664" lon="9.25506238289034"><ele>84.0</ele><time>2026-04-19T16:51:06.999Z</time></trkpt><trkpt lat="45.06097157753827" lon="9.254905205066818"><ele>84.0</ele><time>2026-04-19T16:51:07.999Z</time></trkpt><trkpt lat="45.06088199475321" lon="9.254732167851657"><ele>84.0</ele><time>2026-04-19T16:51:08.999Z</time></trkpt><trkpt lat="45.060789536027755" lon="9.254537358467958"><ele>84.0</ele><time>2026-04-19T16:51:09.999Z</time></trkpt><trkpt lat="45.06069156316389" lon="9.25433031747026"><ele>84.0</ele><time>2026-04-19T16:51:10.999Z</time></trkpt><trkpt lat="45.060583167089064" lon="9.25409502136281"><ele>84.0</ele><time>2026-04-19T16:51:11.999Z</time></trkpt><trkpt lat="45.06046668475775" lon="9.253825288968041"><ele>84.0</ele><time>2026-04-19T16:51:12.999Z</time></trkpt><trkpt lat="45.06036063652155" lon="9.25357011426353"><ele>84.0</ele><time>2026-04-19T16:51:13.999Z</time></trkpt><trkpt lat="45.060276052340136" lon="9.253355305856843"><ele>84.0</ele><time>2026-04-19T16:51:14.999Z</time></trkpt><trkpt lat="45.06019408212624" lon="9.253150410446127"><ele>84.0</ele><time>2026-04-19T16:51:15.999Z</time></trkpt><trkpt lat="45.060097116644016" lon="9.252949812876683"><ele>84.0</ele><time>2026-04-19T16:51:16.999Z</time></trkpt><trkpt lat="45.059977460240106" lon="9.252729771416352"><ele>83.33333333333333</ele><time>2026-04-19T16:51:17.999Z</time></trkpt><trkpt lat="45.05986431558142" lon="9.252498808349873"><ele>82.66666666666666</ele><time>2026-04-19T16:51:18.999Z</time></trkpt><trkpt lat="45.059758940795035" lon="9.25225853122904"><ele>82.0</ele><time>2026-04-19T16:51:19.999Z</time></trkpt><trkpt lat="45.059648609974644" lon="9.252025902823572"><ele>82.0</ele><time>2026-04-19T16:51:20.999Z</time></trkpt><trkpt lat="45.05953177667045" lon="9.251782606277475"><ele>82.0</ele><time>2026-04-19T16:51:21.999Z</time></trkpt><trkpt lat="45.05939874397133" lon="9.251547544434668"><ele>82.0</ele><time>2026-04-19T16:51:22.999Z</time></trkpt><trkpt lat="45.059263804450175" lon="9.251302154620436"><ele>82.0</ele><time>2026-04-19T16:51:23.999Z</time></trkpt><trkpt lat="45.05911983193487" lon="9.251060832595709"><ele>82.0</ele><time>2026-04-19T16:51:24.999Z</time></trkpt><trkpt lat="45.05897790793256" lon="9.250842104586884"><ele>82.0</ele><time>2026-04-19T16:51:25.999Z</time></trkpt><trkpt lat="45.05883672209785" lon="9.250640369886488"><ele>83.0</ele><time>2026-04-19T16:51:26.999Z</time></trkpt><trkpt lat="45.058699620814345" lon="9.250450182583585"><ele>84.0</ele><time>2026-04-19T16:51:27.999Z</time></trkpt><trkpt lat="45.05855994932768" lon="9.250261181830057"><ele>85.0</ele><time>2026-04-19T16:51:28.999Z</time></trkpt><trkpt lat="45.05841577595687" lon="9.25006000214638"><ele>85.33333333333333</ele><time>2026-04-19T16:51:29.999Z</time></trkpt><trkpt lat="45.05827888194439" lon="9.249869584426925"><ele>85.66666666666667</ele><time>2026-04-19T16:51:30.999Z</time></trkpt><trkpt lat="45.05815129153092" lon="9.24969472886061"><ele>86.0</ele><time>2026-04-19T16:51:32Z</time></trkpt><trkpt lat="45.058033221086966" lon="9.24954848218892"><ele>85.6</ele><time>2026-04-19T16:51:33Z</time></trkpt><trkpt lat="45.05793080126333" lon="9.24941065643112"><ele>85.19999999999999</ele><time>2026-04-19T16:51:34Z</time></trkpt><trkpt lat="45.057852917853985" lon="9.249286755097854"><ele>84.80000000000001</ele><time>2026-04-19T16:51:35Z</time></trkpt><trkpt lat="45.05779526478162" lon="9.249182633074522"><ele>84.4</ele><time>2026-04-19T16:51:36Z</time></trkpt><trkpt lat="45.05776097799226" lon="9.249098253387977"><ele>84.0</ele><time>2026-04-19T16:51:37Z</time></trkpt><trkpt lat="45.057750892579755" lon="9.248996424403796"><ele>83.66666666666667</ele><time>2026-04-19T16:51:38Z</time></trkpt><trkpt lat="45.057752399434584" lon="9.24887548101559"><ele>83.33333333333333</ele><time>2026-04-19T16:51:39Z</time></trkpt><trkpt lat="45.05773983455262" lon="9.248759668781258"><ele>83.0</ele><time>2026-04-19T16:51:40Z</time></trkpt><trkpt lat="45.05769153795136" lon="9.248686282327139"><ele>82.66666666666666</ele><time>2026-04-19T16:51:41Z</time></trkpt><trkpt lat="45.057629749683215" lon="9.24864224436095"><ele>82.33333333333333</ele><time>2026-04-19T16:51:42Z</time></trkpt><trkpt lat="45.0575367420366" lon="9.24862602196082"><ele>82.0</ele><time>2026-04-19T16:51:43Z</time></trkpt><trkpt lat="45.057423557783025" lon="9.248565724177176"><ele>82.33333333333333</ele><time>2026-04-19T16:51:44Z</time></trkpt><trkpt lat="45.05728106865789" lon="9.248497298501121"><ele>82.66666666666667</ele><time>2026-04-19T16:51:45Z</time></trkpt><trkpt lat="45.05713870541306" lon="9.248268872929899"><ele>83.0</ele><time>2026-04-19T16:51:46Z</time></trkpt><trkpt lat="45.05697036065761" lon="9.248038816228886"><ele>83.0</ele><time>2026-04-19T16:51:47Z</time></trkpt><trkpt lat="45.05677964678316" lon="9.247769958966508"><ele>83.0</ele><time>2026-04-19T16:51:48Z</time></trkpt><trkpt lat="45.056563431335405" lon="9.247491038015976"><ele>83.0</ele><time>2026-04-19T16:51:49Z</time></trkpt><trkpt lat="45.05637070193124" lon="9.24719434780328"><ele>83.0</ele><time>2026-04-19T16:51:50Z</time></trkpt><trkpt lat="45.05613597769824" lon="9.246867025766505"><ele>83.0</ele><time>2026-04-19T16:51:51Z</time></trkpt><trkpt lat="45.05590923473968" lon="9.24658247205025"><ele>83.0</ele><time>2026-04-19T16:51:52Z</time></trkpt><trkpt lat="45.05572645973664" lon="9.24629827579003"><ele>83.0</ele><time>2026-04-19T16:51:53Z</time></trkpt><trkpt lat="45.05554103748031" lon="9.246070958677079"><ele>83.0</ele><time>2026-04-19T16:51:54Z</time></trkpt><trkpt lat="45.05538282523073" lon="9.245839266288076"><ele>82.66666666666667</ele><time>2026-04-19T16:51:55Z</time></trkpt><trkpt lat="45.05522647979521" lon="9.245619160255025"><ele>82.33333333333333</ele><time>2026-04-19T16:51:56Z</time></trkpt><trkpt lat="45.05506873489266" lon="9.245399942766175"><ele>82.0</ele><time>2026-04-19T16:51:57Z</time></trkpt><trkpt lat="45.05492221333253" lon="9.24519504528111"><ele>82.0</ele><time>2026-04-19T16:51:58Z</time></trkpt><trkpt lat="45.05478921248624" lon="9.2450002246617"><ele>82.0</ele><time>2026-04-19T16:51:59Z</time></trkpt><trkpt lat="45.054672512115296" lon="9.244833085881362"><ele>82.0</ele><time>2026-04-19T16:52:00Z</time></trkpt><trkpt lat="45.054587476939666" lon="9.244708932758074"><ele>82.19999999999999</ele><time>2026-04-19T16:52:01Z</time></trkpt><trkpt lat="45.05451229188607" lon="9.244600007556098"><ele>82.4</ele><time>2026-04-19T16:52:02Z</time></trkpt><trkpt lat="45.05445698927463" lon="9.24448706486771"><ele>82.6</ele><time>2026-04-19T16:52:03Z</time></trkpt><trkpt lat="45.05442350057815" lon="9.244357873553696"><ele>82.80000000000001</ele><time>2026-04-19T16:52:04Z</time></trkpt><trkpt lat="45.05440073544947" lon="9.244234705576561"><ele>83.0</ele><time>2026-04-19T16:52:05Z</time></trkpt><trkpt lat="45.05435062277048" lon="9.244153416116585"><ele>83.0</ele><time>2026-04-19T16:52:06Z</time></trkpt><trkpt lat="45.05428519971943" lon="9.244113906270117"><ele>83.0</ele><time>2026-04-19T16:52:07Z</time></trkpt><trkpt lat="45.054214349845026" lon="9.244094263696581"><ele>83.0</ele><time>2026-04-19T16:52:08Z</time></trkpt><trkpt lat="45.054123816508856" lon="9.244055939288135"><ele>83.0</ele><time>2026-04-19T16:52:09Z</time></trkpt><trkpt lat="45.05403103040343" lon="9.243973851101165"><ele>83.0</ele><time>2026-04-19T16:52:10Z</time></trkpt><trkpt lat="45.05394350908058" lon="9.243802748903779"><ele>82.66666666666667</ele><time>2026-04-19T16:52:11Z</time></trkpt><trkpt lat="45.0538389993003" lon="9.243658337219228"><ele>82.33333333333333</ele><time>2026-04-19T16:52:12Z</time></trkpt><trkpt lat="45.05372025928166" lon="9.24349263933412"><ele>82.0</ele><time>2026-04-19T16:52:13Z</time></trkpt><trkpt lat="45.05358624571743" lon="9.24330528038727"><ele>82.0</ele><time>2026-04-19T16:52:14Z</time></trkpt><trkpt lat="45.05344872056909" lon="9.243112926050168"><ele>82.0</ele><time>2026-04-19T16:52:15Z</time></trkpt><trkpt lat="45.05331696293206" lon="9.24292863852366"><ele>82.0</ele><time>2026-04-19T16:52:16Z</time></trkpt><trkpt lat="45.05317535652635" lon="9.242730178062088"><ele>82.0</ele><time>2026-04-19T16:52:17Z</time></trkpt><trkpt lat="45.05301753064336" lon="9.242507473858002"><ele>82.0</ele><time>2026-04-19T16:52:18Z</time></trkpt><trkpt lat="45.052843702174954" lon="9.24226371013303"><ele>80.0</ele><time>2026-04-19T16:52:19Z</time></trkpt><trkpt lat="45.05265662359387" lon="9.242004745510874"><ele>78.0</ele><time>2026-04-19T16:52:20Z</time></trkpt><trkpt lat="45.052456071386295" lon="9.241724274386497"><ele>79.5</ele><time>2026-04-19T16:52:21Z</time></trkpt><trkpt lat="45.052237051006394" lon="9.241418040934535"><ele>81.0</ele><time>2026-04-19T16:52:22Z</time></trkpt><trkpt lat="45.05199601199401" lon="9.241081597106604"><ele>81.0</ele><time>2026-04-19T16:52:23Z</time></trkpt><trkpt lat="45.051741288662534" lon="9.240749794090165"><ele>81.0</ele><time>2026-04-19T16:52:24Z</time></trkpt><trkpt lat="45.05150654620103" lon="9.240408702250896"><ele>80.0</ele><time>2026-04-19T16:52:25Z</time></trkpt><trkpt lat="45.05126620568162" lon="9.24006232816328"><ele>79.0</ele><time>2026-04-19T16:52:26Z</time></trkpt><trkpt lat="45.05104918989243" lon="9.239728778976554"><ele>79.0</ele><time>2026-04-19T16:52:27Z</time></trkpt><trkpt lat="45.050866808956634" lon="9.239397879154994"><ele>79.0</ele><time>2026-04-19T16:52:28Z</time></trkpt><trkpt lat="45.0507138778026" lon="9.239060628613567"><ele>81.0</ele><time>2026-04-19T16:52:29Z</time></trkpt><trkpt lat="45.050576508737585" lon="9.238692555547656"><ele>83.0</ele><time>2026-04-19T16:52:30Z</time></trkpt><trkpt lat="45.0504540617007" lon="9.238275964041932"><ele>81.0</ele><time>2026-04-19T16:52:31Z</time></trkpt><trkpt lat="45.05033759970822" lon="9.237836998582052"><ele>79.0</ele><time>2026-04-19T16:52:32Z</time></trkpt><trkpt lat="45.05022155897355" lon="9.237363595706128"><ele>79.5</ele><time>2026-04-19T16:52:33Z</time></trkpt><trkpt lat="45.050089938486735" lon="9.236857947717683"><ele>80.0</ele><time>2026-04-19T16:52:34Z</time></trkpt><trkpt lat="45.04994808264896" lon="9.236332549191044"><ele>80.5</ele><time>2026-04-19T16:52:35Z</time></trkpt><trkpt lat="45.04980309891825" lon="9.235786315273893"><ele>81.0</ele><time>2026-04-19T16:52:36Z</time></trkpt><trkpt lat="45.049673366348514" lon="9.2352818624783"><ele>80.0</ele><time>2026-04-19T16:52:37Z</time></trkpt><trkpt lat="45.04957456227749" lon="9.234847967566566"><ele>79.0</ele><time>2026-04-19T16:52:38Z</time></trkpt><trkpt lat="45.049476387972135" lon="9.234467301784635"><ele>78.0</ele><time>2026-04-19T16:52:39Z</time></trkpt><trkpt lat="45.04937099922732" lon="9.23410864144791"><ele>77.0</ele><time>2026-04-19T16:52:40Z</time></trkpt><trkpt lat="45.04928310021523" lon="9.233752892165112"><ele>77.0</ele><time>2026-04-19T16:52:41Z</time></trkpt><trkpt lat="45.04919410372375" lon="9.23341304389482"><ele>77.0</ele><time>2026-04-19T16:52:42Z</time></trkpt><trkpt lat="45.04910120637869" lon="9.233066482175712"><ele>76.5</ele><time>2026-04-19T16:52:43Z</time></trkpt><trkpt lat="45.04901486310573" lon="9.232709894290029"><ele>76.0</ele><time>2026-04-19T16:52:44Z</time></trkpt><trkpt lat="45.04892178053611" lon="9.232353516376719"><ele>77.0</ele><time>2026-04-19T16:52:45Z</time></trkpt><trkpt lat="45.04883039770672" lon="9.23200589253848"><ele>78.0</ele><time>2026-04-19T16:52:46Z</time></trkpt><trkpt lat="45.048744765378494" lon="9.23168082751253"><ele>77.33333333333333</ele><time>2026-04-19T16:52:47Z</time></trkpt><trkpt lat="45.048678741725396" lon="9.231369300178578"><ele>76.66666666666666</ele><time>2026-04-19T16:52:48Z</time></trkpt><trkpt lat="45.048606425823145" lon="9.231085272737381"><ele>76.0</ele><time>2026-04-19T16:52:49Z</time></trkpt><trkpt lat="45.04853540862253" lon="9.230808273850462"><ele>76.5</ele><time>2026-04-19T16:52:50Z</time></trkpt><trkpt lat="45.048459556438715" lon="9.230512416383997"><ele>77.0</ele><time>2026-04-19T16:52:51Z</time></trkpt><trkpt lat="45.048375250851386" lon="9.230183586351975"><ele>77.5</ele><time>2026-04-19T16:52:52Z</time></trkpt><trkpt lat="45.048285344188415" lon="9.229832918581623"><ele>78.0</ele><time>2026-04-19T16:52:52.999Z</time></trkpt><trkpt lat="45.04818854838396" lon="9.229455386535289"><ele>76.5</ele><time>2026-04-19T16:52:53.999Z</time></trkpt><trkpt lat="45.0480787113209" lon="9.229064173339442"><ele>75.0</ele><time>2026-04-19T16:52:54.999Z</time></trkpt><trkpt lat="45.047970004207166" lon="9.228654837394867"><ele>75.0</ele><time>2026-04-19T16:52:55.999Z</time></trkpt><trkpt lat="45.04784583923271" lon="9.228252232773889"><ele>75.0</ele><time>2026-04-19T16:52:56.999Z</time></trkpt><trkpt lat="45.047708672900434" lon="9.227858935968234"><ele>75.0</ele><time>2026-04-19T16:52:57.999Z</time></trkpt><trkpt lat="45.047561249268206" lon="9.22748402184519"><ele>75.0</ele><time>2026-04-19T16:52:58.999Z</time></trkpt><trkpt lat="45.047416807226824" lon="9.227141054946422"><ele>74.5</ele><time>2026-04-19T16:52:59.999Z</time></trkpt><trkpt lat="45.047275449954" lon="9.226835440419464"><ele>74.0</ele><time>2026-04-19T16:53:00.999Z</time></trkpt><trkpt lat="45.04714591819085" lon="9.226550125913276"><ele>73.66666666666667</ele><time>2026-04-19T16:53:01.999Z</time></trkpt><trkpt lat="45.04702518912001" lon="9.226288023475782"><ele>73.33333333333333</ele><time>2026-04-19T16:53:02.999Z</time></trkpt><trkpt lat="45.046909420258324" lon="9.226035187889313"><ele>73.0</ele><time>2026-04-19T16:53:03.999Z</time></trkpt><trkpt lat="45.04679634452923" lon="9.225784874587692"><ele>73.0</ele><time>2026-04-19T16:53:04.999Z</time></trkpt><trkpt lat="45.04666991617178" lon="9.225510975321503"><ele>73.0</ele><time>2026-04-19T16:53:05.999Z</time></trkpt><trkpt lat="45.04653325415285" lon="9.225216544137101"><ele>73.0</ele><time>2026-04-19T16:53:06.999Z</time></trkpt><trkpt lat="45.04638250603223" lon="9.224894952083162"><ele>73.0</ele><time>2026-04-19T16:53:07.999Z</time></trkpt><trkpt lat="45.04622715969095" lon="9.22455011224518"><ele>73.0</ele><time>2026-04-19T16:53:08.999Z</time></trkpt><trkpt lat="45.0460627344719" lon="9.224182892038879"><ele>73.0</ele><time>2026-04-19T16:53:09.999Z</time></trkpt><trkpt lat="45.045888675743996" lon="9.22379298756272"><ele>72.5</ele><time>2026-04-19T16:53:10.999Z</time></trkpt><trkpt lat="45.04570744762541" lon="9.223381263794584"><ele>72.0</ele><time>2026-04-19T16:53:11.999Z</time></trkpt><trkpt lat="45.04551964038043" lon="9.22294621466206"><ele>72.0</ele><time>2026-04-19T16:53:12.999Z</time></trkpt><trkpt lat="45.045332029486964" lon="9.222495984160506"><ele>72.0</ele><time>2026-04-19T16:53:13.999Z</time></trkpt><trkpt lat="45.04514045272665" lon="9.222023380054855"><ele>74.0</ele><time>2026-04-19T16:53:14.999Z</time></trkpt><trkpt lat="45.04493897215674" lon="9.221548622086498"><ele>76.0</ele><time>2026-04-19T16:53:15.999Z</time></trkpt><trkpt lat="45.04472572079333" lon="9.221070463265425"><ele>75.0</ele><time>2026-04-19T16:53:16.999Z</time></trkpt><trkpt lat="45.04451046134341" lon="9.220586524801256"><ele>74.0</ele><time>2026-04-19T16:53:17.999Z</time></trkpt><trkpt lat="45.04429273135334" lon="9.220102994130373"><ele>73.0</ele><time>2026-04-19T16:53:18.999Z</time></trkpt><trkpt lat="45.044076705113305" lon="9.21962426960318"><ele>72.0</ele><time>2026-04-19T16:53:19.999Z</time></trkpt><trkpt lat="45.04387934008913" lon="9.219181454679363"><ele>72.5</ele><time>2026-04-19T16:53:20.999Z</time></trkpt><trkpt lat="45.04370551989219" lon="9.218779155474444"><ele>73.0</ele><time>2026-04-19T16:53:21.999Z</time></trkpt><trkpt lat="45.04354849594059" lon="9.218425832466147"><ele>72.5</ele><time>2026-04-19T16:53:22.999Z</time></trkpt><trkpt lat="45.04339628821515" lon="9.218090549174555"><ele>72.0</ele><time>2026-04-19T16:53:23.999Z</time></trkpt><trkpt lat="45.0432547367919" lon="9.21776944085446"><ele>72.0</ele><time>2026-04-19T16:53:24.999Z</time></trkpt><trkpt lat="45.04311913326748" lon="9.217455983634807"><ele>72.0</ele><time>2026-04-19T16:53:25.999Z</time></trkpt><trkpt lat="45.04298275309398" lon="9.217141565557695"><ele>73.0</ele><time>2026-04-19T16:53:26.999Z</time></trkpt><trkpt lat="45.04284417680076" lon="9.21682886392226"><ele>74.0</ele><time>2026-04-19T16:53:27.999Z</time></trkpt><trkpt lat="45.042710499840695" lon="9.216529173141707"><ele>74.0</ele><time>2026-04-19T16:53:28.999Z</time></trkpt><trkpt lat="45.042576264368115" lon="9.21622678072758"><ele>74.0</ele><time>2026-04-19T16:53:29.999Z</time></trkpt><trkpt lat="45.04243682074282" lon="9.215926471502979"><ele>74.5</ele><time>2026-04-19T16:53:30.999Z</time></trkpt><trkpt lat="45.04231102318161" lon="9.21560502844881"><ele>75.0</ele><time>2026-04-19T16:53:31.999Z</time></trkpt><trkpt lat="45.04215303824027" lon="9.215286230678997"><ele>75.0</ele><time>2026-04-19T16:53:32.999Z</time></trkpt><trkpt lat="45.04199827126852" lon="9.214930875998183"><ele>75.0</ele><time>2026-04-19T16:53:33.999Z</time></trkpt><trkpt lat="45.04183541769562" lon="9.214556028893488"><ele>74.0</ele><time>2026-04-19T16:53:34.999Z</time></trkpt><trkpt lat="45.041667537578185" lon="9.214153726833741"><ele>73.0</ele><time>2026-04-19T16:53:35.999Z</time></trkpt><trkpt lat="45.04148988181038" lon="9.21373607741342"><ele>73.0</ele><time>2026-04-19T16:53:36.999Z</time></trkpt><trkpt lat="45.04130261569333" lon="9.213307983892658"><ele>73.0</ele><time>2026-04-19T16:53:38Z</time></trkpt><trkpt lat="45.04111996225677" lon="9.212892471125542"><ele>73.5</ele><time>2026-04-19T16:53:39Z</time></trkpt><trkpt lat="45.040950053067405" lon="9.212505980850812"><ele>74.0</ele><time>2026-04-19T16:53:40Z</time></trkpt><trkpt lat="45.040792597008675" lon="9.212140711060462"><ele>74.0</ele><time>2026-04-19T16:53:41Z</time></trkpt><trkpt lat="45.0406435044251" lon="9.211793960697378"><ele>74.0</ele><time>2026-04-19T16:53:42Z</time></trkpt><trkpt lat="45.040503202617536" lon="9.211457837453645"><ele>74.0</ele><time>2026-04-19T16:53:43Z</time></trkpt><trkpt lat="45.040367971484606" lon="9.21111327372775"><ele>74.0</ele><time>2026-04-19T16:53:44Z</time></trkpt><trkpt lat="45.04025408678961" lon="9.210772100082112"><ele>74.0</ele><time>2026-04-19T16:53:45Z</time></trkpt><trkpt lat="45.04016221341509" lon="9.210445122255813"><ele>74.0</ele><time>2026-04-19T16:53:46Z</time></trkpt><trkpt lat="45.040086591420376" lon="9.210135454624645"><ele>74.0</ele><time>2026-04-19T16:53:47Z</time></trkpt><trkpt lat="45.04002720801071" lon="9.20983540038533"><ele>74.0</ele><time>2026-04-19T16:53:48Z</time></trkpt><trkpt lat="45.0399774093192" lon="9.209533292055024"><ele>74.0</ele><time>2026-04-19T16:53:49Z</time></trkpt><trkpt lat="45.039927354641975" lon="9.209216990238605"><ele>74.66666666666667</ele><time>2026-04-19T16:53:50Z</time></trkpt><trkpt lat="45.03988310841042" lon="9.208927718755058"><ele>75.33333333333333</ele><time>2026-04-19T16:53:51Z</time></trkpt><trkpt lat="45.03984936010551" lon="9.208679140111501"><ele>76.0</ele><time>2026-04-19T16:53:52Z</time></trkpt><trkpt lat="45.03981557640288" lon="9.208455919183097"><ele>76.0</ele><time>2026-04-19T16:53:53Z</time></trkpt><trkpt lat="45.0397797617197" lon="9.208237467135856"><ele>76.0</ele><time>2026-04-19T16:53:54Z</time></trkpt><trkpt lat="45.03974466508968" lon="9.208016783960705"><ele>76.0</ele><time>2026-04-19T16:53:55Z</time></trkpt><trkpt lat="45.039710552113355" lon="9.207789319854001"><ele>75.75</ele><time>2026-04-19T16:53:56Z</time></trkpt><trkpt lat="45.03967769264104" lon="9.207561653751199"><ele>75.5</ele><time>2026-04-19T16:53:57Z</time></trkpt><trkpt lat="45.03964675674655" lon="9.20735476010731"><ele>75.25</ele><time>2026-04-19T16:53:58Z</time></trkpt><trkpt lat="45.03961954620485" lon="9.207177436410094"><ele>75.0</ele><time>2026-04-19T16:53:59Z</time></trkpt><trkpt lat="45.03959541001335" lon="9.207006294347762"><ele>74.75</ele><time>2026-04-19T16:54:00Z</time></trkpt><trkpt lat="45.03957218830705" lon="9.206839581757713"><ele>74.5</ele><time>2026-04-19T16:54:01Z</time></trkpt><trkpt lat="45.039546088958275" lon="9.206681583509557"><ele>74.25</ele><time>2026-04-19T16:54:02Z</time></trkpt><trkpt lat="45.03952316724568" lon="9.206525794651919"><ele>74.0</ele><time>2026-04-19T16:54:03Z</time></trkpt><trkpt lat="45.039500553001375" lon="9.206359827634905"><ele>74.5</ele><time>2026-04-19T16:54:04Z</time></trkpt><trkpt lat="45.039474408903395" lon="9.206193852218583"><ele>75.0</ele><time>2026-04-19T16:54:05Z</time></trkpt><trkpt lat="45.03945644613189" lon="9.206019034620287"><ele>75.5</ele><time>2026-04-19T16:54:06Z</time></trkpt><trkpt lat="45.03943486092999" lon="9.205823771849898"><ele>76.0</ele><time>2026-04-19T16:54:07Z</time></trkpt><trkpt lat="45.039409246382256" lon="9.2056336019715"><ele>76.2</ele><time>2026-04-19T16:54:08Z</time></trkpt><trkpt lat="45.03938360395348" lon="9.205467743335948"><ele>76.39999999999999</ele><time>2026-04-19T16:54:09Z</time></trkpt><trkpt lat="45.03936056502362" lon="9.205312704729511"><ele>76.6</ele><time>2026-04-19T16:54:10Z</time></trkpt><trkpt lat="45.03933773034654" lon="9.20517777506729"><ele>76.8</ele><time>2026-04-19T16:54:11Z</time></trkpt><trkpt lat="45.03931910880839" lon="9.205064091746555"><ele>77.0</ele><time>2026-04-19T16:54:12Z</time></trkpt><trkpt lat="45.039304031270746" lon="9.204972970481608"><ele>77.0</ele><time>2026-04-19T16:54:13Z</time></trkpt><trkpt lat="45.03929069483138" lon="9.204866695517063"><ele>77.0</ele><time>2026-04-19T16:54:15Z</time></trkpt><trkpt lat="45.03928254348312" lon="9.204751869820026"><ele>77.0</ele><time>2026-04-19T16:54:27Z</time></trkpt><trkpt lat="45.039243466320436" lon="9.204580059571017"><ele>77.0</ele><time>2026-04-19T16:54:46Z</time></trkpt><trkpt lat="45.03921926545906" lon="9.204420218559854"><ele>77.0</ele><time>2026-04-19T16:54:47Z</time></trkpt><trkpt lat="45.03919387432586" lon="9.204240314557643"><ele>77.33333333333334</ele><time>2026-04-19T16:54:48Z</time></trkpt><trkpt lat="45.039155275339304" lon="9.203999341142142"><ele>77.66666666666667</ele><time>2026-04-19T16:54:49Z</time></trkpt><trkpt lat="45.03911297370947" lon="9.203741142872541"><ele>78.0</ele><time>2026-04-19T16:54:50Z</time></trkpt><trkpt lat="45.039065151516304" lon="9.203445644490216"><ele>77.5</ele><time>2026-04-19T16:54:51Z</time></trkpt><trkpt lat="45.039015382940555" lon="9.20312877655963"><ele>77.0</ele><time>2026-04-19T16:54:52Z</time></trkpt><trkpt lat="45.0389609330681" lon="9.20276635079012"><ele>77.0</ele><time>2026-04-19T16:54:53Z</time></trkpt><trkpt lat="45.03890739439339" lon="9.202420300095534"><ele>77.0</ele><time>2026-04-19T16:54:54Z</time></trkpt><trkpt lat="45.038848754689596" lon="9.202033483845108"><ele>77.0</ele><time>2026-04-19T16:54:55Z</time></trkpt><trkpt lat="45.038786620281655" lon="9.201622854154527"><ele>77.0</ele><time>2026-04-19T16:54:56Z</time></trkpt><trkpt lat="45.038723502751054" lon="9.201207845347534"><ele>77.0</ele><time>2026-04-19T16:54:57Z</time></trkpt><trkpt lat="45.038659182866546" lon="9.20075556255473"><ele>77.0</ele><time>2026-04-19T16:54:58Z</time></trkpt><trkpt lat="45.038597978769886" lon="9.200320386759273"><ele>77.0</ele><time>2026-04-19T16:54:59Z</time></trkpt><trkpt lat="45.03853773867214" lon="9.199972927342662"><ele>77.0</ele><time>2026-04-19T16:55:00Z</time></trkpt><trkpt lat="45.03846613464378" lon="9.199523795257255"><ele>77.0</ele><time>2026-04-19T16:55:01Z</time></trkpt><trkpt lat="45.03839379156446" lon="9.199067911237169"><ele>77.0</ele><time>2026-04-19T16:55:02Z</time></trkpt><trkpt lat="45.0383223733328" lon="9.198612586756145"><ele>76.5</ele><time>2026-04-19T16:55:03Z</time></trkpt><trkpt lat="45.038252189251466" lon="9.198152384199009"><ele>76.0</ele><time>2026-04-19T16:55:04Z</time></trkpt><trkpt lat="45.038180300999386" lon="9.1976909515129"><ele>76.0</ele><time>2026-04-19T16:55:05Z</time></trkpt><trkpt lat="45.038105947140586" lon="9.197226009338603"><ele>76.0</ele><time>2026-04-19T16:55:06Z</time></trkpt><trkpt lat="45.03803292583954" lon="9.196759104460808"><ele>75.5</ele><time>2026-04-19T16:55:07Z</time></trkpt><trkpt lat="45.03795853027898" lon="9.196280515134228"><ele>75.0</ele><time>2026-04-19T16:55:08Z</time></trkpt><trkpt lat="45.037883593834415" lon="9.195804137417545"><ele>75.0</ele><time>2026-04-19T16:55:09Z</time></trkpt><trkpt lat="45.03780679182727" lon="9.19531848709676"><ele>75.0</ele><time>2026-04-19T16:55:10Z</time></trkpt><trkpt lat="45.03773319598192" lon="9.194823572628266"><ele>74.5</ele><time>2026-04-19T16:55:11Z</time></trkpt><trkpt lat="45.03765763907652" lon="9.194318806397588"><ele>74.0</ele><time>2026-04-19T16:55:12Z</time></trkpt><trkpt lat="45.03758198772708" lon="9.193810021945932"><ele>74.0</ele><time>2026-04-19T16:55:13Z</time></trkpt><trkpt lat="45.03750332604853" lon="9.193300042252096"><ele>74.0</ele><time>2026-04-19T16:55:14Z</time></trkpt><trkpt lat="45.037422059833055" lon="9.192780394168004"><ele>73.0</ele><time>2026-04-19T16:55:15Z</time></trkpt><trkpt lat="45.03734151500741" lon="9.192263690613432"><ele>72.0</ele><time>2026-04-19T16:55:16Z</time></trkpt><trkpt lat="45.03726326616605" lon="9.191748731258109"><ele>72.0</ele><time>2026-04-19T16:55:17Z</time></trkpt><trkpt lat="45.037188421772626" lon="9.191229366694023"><ele>72.0</ele><time>2026-04-19T16:55:18Z</time></trkpt><trkpt lat="45.03710987605543" lon="9.190713141861178"><ele>73.5</ele><time>2026-04-19T16:55:19Z</time></trkpt><trkpt lat="45.037033195051116" lon="9.190188321313991"><ele>75.0</ele><time>2026-04-19T16:55:20Z</time></trkpt><trkpt lat="45.03695345384471" lon="9.189680838240987"><ele>75.0</ele><time>2026-04-19T16:55:21Z</time></trkpt><trkpt lat="45.03687235590888" lon="9.18917184321544"><ele>75.0</ele><time>2026-04-19T16:55:21.999Z</time></trkpt><trkpt lat="45.036795638728634" lon="9.188683931190306"><ele>74.0</ele><time>2026-04-19T16:55:22.999Z</time></trkpt><trkpt lat="45.03672182403842" lon="9.188247743344979"><ele>73.0</ele><time>2026-04-19T16:55:23.999Z</time></trkpt><trkpt lat="45.03665601437425" lon="9.187836832013229"><ele>73.5</ele><time>2026-04-19T16:55:24.999Z</time></trkpt><trkpt lat="45.036599721261645" lon="9.187420099585193"><ele>74.0</ele><time>2026-04-19T16:55:25.999Z</time></trkpt><trkpt lat="45.03653780005005" lon="9.186988650344995"><ele>74.5</ele><time>2026-04-19T16:55:26.999Z</time></trkpt><trkpt lat="45.036470653780796" lon="9.186540869137536"><ele>75.0</ele><time>2026-04-19T16:55:27.999Z</time></trkpt><trkpt lat="45.036411021766924" lon="9.186136337794721"><ele>75.0</ele><time>2026-04-19T16:55:28.999Z</time></trkpt><trkpt lat="45.03635811661887" lon="9.185765026703828"><ele>75.0</ele><time>2026-04-19T16:55:29.999Z</time></trkpt><trkpt lat="45.03630743551379" lon="9.185432657691083"><ele>75.0</ele><time>2026-04-19T16:55:30.999Z</time></trkpt><trkpt lat="45.036257273623775" lon="9.185113365805389"><ele>75.0</ele><time>2026-04-19T16:55:31.999Z</time></trkpt><trkpt lat="45.03621065418532" lon="9.184808535212087"><ele>75.0</ele><time>2026-04-19T16:55:32.999Z</time></trkpt><trkpt lat="45.03616429486967" lon="9.184503088030555"><ele>75.0</ele><time>2026-04-19T16:55:33.999Z</time></trkpt><trkpt lat="45.03611471129372" lon="9.184194146184216"><ele>75.0</ele><time>2026-04-19T16:55:34.999Z</time></trkpt><trkpt lat="45.036070741121534" lon="9.18388857012819"><ele>75.0</ele><time>2026-04-19T16:55:35.999Z</time></trkpt><trkpt lat="45.03603155775683" lon="9.183612511845908"><ele>75.0</ele><time>2026-04-19T16:55:36.999Z</time></trkpt><trkpt lat="45.03599233117405" lon="9.183345252294043"><ele>75.0</ele><time>2026-04-19T16:55:37.999Z</time></trkpt><trkpt lat="45.035952670634224" lon="9.183078055050082"><ele>75.66666666666667</ele><time>2026-04-19T16:55:38.999Z</time></trkpt><trkpt lat="45.03591256566035" lon="9.18281753523824"><ele>76.33333333333334</ele><time>2026-04-19T16:55:39.999Z</time></trkpt><trkpt lat="45.035872687873734" lon="9.182565395130128"><ele>77.0</ele><time>2026-04-19T16:55:40.999Z</time></trkpt><trkpt lat="45.03583125715949" lon="9.18231056477273"><ele>77.33333333333334</ele><time>2026-04-19T16:55:41.999Z</time></trkpt><trkpt lat="45.03578860571843" lon="9.182062097287824"><ele>77.66666666666667</ele><time>2026-04-19T16:55:42.999Z</time></trkpt><trkpt lat="45.035743130345715" lon="9.181833854948133"><ele>78.0</ele><time>2026-04-19T16:55:44Z</time></trkpt><trkpt lat="45.035691746997365" lon="9.181632720227658"><ele>78.0</ele><time>2026-04-19T16:55:45Z</time></trkpt><trkpt lat="45.03563962014317" lon="9.181448523635352"><ele>78.0</ele><time>2026-04-19T16:55:46Z</time></trkpt><trkpt lat="45.035589655060605" lon="9.181280414506487"><ele>78.0</ele><time>2026-04-19T16:55:47Z</time></trkpt><trkpt lat="45.03553410671275" lon="9.181110356904266"><ele>78.0</ele><time>2026-04-19T16:55:48Z</time></trkpt><trkpt lat="45.03547014450315" lon="9.180932603988127"><ele>78.0</ele><time>2026-04-19T16:55:49Z</time></trkpt><trkpt lat="45.035401174361795" lon="9.180742784853281"><ele>78.0</ele><time>2026-04-19T16:55:50Z</time></trkpt><trkpt lat="45.0353306536739" lon="9.18055796227254"><ele>78.0</ele><time>2026-04-19T16:55:51Z</time></trkpt><trkpt lat="45.03524648210762" lon="9.180374984585947"><ele>78.0</ele><time>2026-04-19T16:55:52Z</time></trkpt><trkpt lat="45.035154509319376" lon="9.180177566188165"><ele>78.0</ele><time>2026-04-19T16:55:53Z</time></trkpt><trkpt lat="45.03504854697404" lon="9.179956368760873"><ele>78.0</ele><time>2026-04-19T16:55:54Z</time></trkpt><trkpt lat="45.034928781258685" lon="9.179697128803637"><ele>78.0</ele><time>2026-04-19T16:55:55Z</time></trkpt><trkpt lat="45.03480481477367" lon="9.179409318720973"><ele>78.0</ele><time>2026-04-19T16:55:56Z</time></trkpt><trkpt lat="45.034658976468165" lon="9.179072586577535"><ele>79.0</ele><time>2026-04-19T16:55:57Z</time></trkpt><trkpt lat="45.03449268893695" lon="9.178697341399074"><ele>80.0</ele><time>2026-04-19T16:55:58Z</time></trkpt><trkpt lat="45.034304817317086" lon="9.178292081835972"><ele>79.5</ele><time>2026-04-19T16:55:59Z</time></trkpt><trkpt lat="45.034107662566775" lon="9.177872712753098"><ele>79.0</ele><time>2026-04-19T16:56:00Z</time></trkpt><trkpt lat="45.03392570741272" lon="9.177449864077769"><ele>80.0</ele><time>2026-04-19T16:56:01Z</time></trkpt><trkpt lat="45.0337370793307" lon="9.17700718330696"><ele>81.0</ele><time>2026-04-19T16:56:02Z</time></trkpt><trkpt lat="45.03356096999251" lon="9.176606678274846"><ele>81.5</ele><time>2026-04-19T16:56:03Z</time></trkpt><trkpt lat="45.03340090838752" lon="9.176241885533841"><ele>82.0</ele><time>2026-04-19T16:56:04Z</time></trkpt><trkpt lat="45.033242169244105" lon="9.17588898320766"><ele>82.0</ele><time>2026-04-19T16:56:05Z</time></trkpt><trkpt lat="45.03308672131936" lon="9.175548803650447"><ele>82.0</ele><time>2026-04-19T16:56:06Z</time></trkpt><trkpt lat="45.03293760089893" lon="9.175226865303971"><ele>82.0</ele><time>2026-04-19T16:56:07Z</time></trkpt><trkpt lat="45.03279967527623" lon="9.174924993059653"><ele>82.0</ele><time>2026-04-19T16:56:08Z</time></trkpt><trkpt lat="45.032673736345714" lon="9.174642398384066"><ele>82.0</ele><time>2026-04-19T16:56:09Z</time></trkpt><trkpt lat="45.032556032480144" lon="9.174380554261091"><ele>82.0</ele><time>2026-04-19T16:56:10Z</time></trkpt><trkpt lat="45.032446270277525" lon="9.174137834658527"><ele>82.0</ele><time>2026-04-19T16:56:11Z</time></trkpt><trkpt lat="45.03233537105318" lon="9.173897387734609"><ele>81.33333333333333</ele><time>2026-04-19T16:56:12Z</time></trkpt><trkpt lat="45.03221784569959" lon="9.173635116784876"><ele>80.66666666666667</ele><time>2026-04-19T16:56:13Z</time></trkpt><trkpt lat="45.03209740690195" lon="9.173358846333095"><ele>80.0</ele><time>2026-04-19T16:56:14Z</time></trkpt><trkpt lat="45.031984233011435" lon="9.1731028128586"><ele>80.0</ele><time>2026-04-19T16:56:15Z</time></trkpt><trkpt lat="45.03188245337817" lon="9.172865778647497"><ele>80.0</ele><time>2026-04-19T16:56:16Z</time></trkpt><trkpt lat="45.03178369385442" lon="9.172648129831774"><ele>80.0</ele><time>2026-04-19T16:56:17Z</time></trkpt><trkpt lat="45.031686126014705" lon="9.17244154925655"><ele>81.0</ele><time>2026-04-19T16:56:18Z</time></trkpt><trkpt lat="45.03159572848279" lon="9.172249839051975"><ele>82.0</ele><time>2026-04-19T16:56:19Z</time></trkpt><trkpt lat="45.03150799583493" lon="9.172052169077142"><ele>83.0</ele><time>2026-04-19T16:56:20Z</time></trkpt><trkpt lat="45.03141781763485" lon="9.171851906004045"><ele>83.0</ele><time>2026-04-19T16:56:21Z</time></trkpt><trkpt lat="45.031325867453695" lon="9.171647519288618"><ele>83.0</ele><time>2026-04-19T16:56:22Z</time></trkpt><trkpt lat="45.031234038040296" lon="9.171441707790843"><ele>83.0</ele><time>2026-04-19T16:56:23Z</time></trkpt><trkpt lat="45.03114129292033" lon="9.171235171875873"><ele>83.0</ele><time>2026-04-19T16:56:24Z</time></trkpt><trkpt lat="45.03104792575805" lon="9.171026972559051"><ele>83.0</ele><time>2026-04-19T16:56:25Z</time></trkpt><trkpt lat="45.03095414853992" lon="9.170823501880156"><ele>83.0</ele><time>2026-04-19T16:56:26Z</time></trkpt><trkpt lat="45.030862547022956" lon="9.170619206983453"><ele>83.33333333333334</ele><time>2026-04-19T16:56:27Z</time></trkpt><trkpt lat="45.030771877032436" lon="9.170417672203783"><ele>83.66666666666667</ele><time>2026-04-19T16:56:28Z</time></trkpt><trkpt lat="45.03068081273172" lon="9.170210594582235"><ele>84.0</ele><time>2026-04-19T16:56:29Z</time></trkpt><trkpt lat="45.03058975770225" lon="9.170007394497938"><ele>83.33333333333333</ele><time>2026-04-19T16:56:30Z</time></trkpt><trkpt lat="45.03049852682007" lon="9.169802927093038"><ele>82.66666666666666</ele><time>2026-04-19T16:56:31Z</time></trkpt><trkpt lat="45.03040767685684" lon="9.169603046180978"><ele>82.0</ele><time>2026-04-19T16:56:32Z</time></trkpt><trkpt lat="45.03031846014309" lon="9.169403820950862"><ele>82.0</ele><time>2026-04-19T16:56:33Z</time></trkpt><trkpt lat="45.030226034570326" lon="9.16920125436922"><ele>82.0</ele><time>2026-04-19T16:56:34Z</time></trkpt><trkpt lat="45.030136281355695" lon="9.169003019049685"><ele>82.0</ele><time>2026-04-19T16:56:35Z</time></trkpt><trkpt lat="45.03004686708821" lon="9.168803727181407"><ele>82.33333333333333</ele><time>2026-04-19T16:56:36Z</time></trkpt><trkpt lat="45.029957116437856" lon="9.168605227908483"><ele>82.66666666666667</ele><time>2026-04-19T16:56:37Z</time></trkpt><trkpt lat="45.02986464073939" lon="9.168399905867622"><ele>83.0</ele><time>2026-04-19T16:56:38Z</time></trkpt><trkpt lat="45.02978362987887" lon="9.16816703508454"><ele>83.0</ele><time>2026-04-19T16:56:39Z</time></trkpt><trkpt lat="45.02967278220958" lon="9.167921313170076"><ele>83.0</ele><time>2026-04-19T16:56:40Z</time></trkpt><trkpt lat="45.02954712307972" lon="9.167645849461746"><ele>83.0</ele><time>2026-04-19T16:56:41Z</time></trkpt><trkpt lat="45.02940854863301" lon="9.167345283852763"><ele>83.0</ele><time>2026-04-19T16:56:42Z</time></trkpt><trkpt lat="45.02924483038663" lon="9.167033133649417"><ele>83.0</ele><time>2026-04-19T16:56:43Z</time></trkpt><trkpt lat="45.02910142677204" lon="9.166672488213027"><ele>86.0</ele><time>2026-04-19T16:56:44Z</time></trkpt><trkpt lat="45.02894301299272" lon="9.166313207534072"><ele>89.0</ele><time>2026-04-19T16:56:45Z</time></trkpt><trkpt lat="45.028784854087675" lon="9.165957871114227"><ele>87.5</ele><time>2026-04-19T16:56:46Z</time></trkpt><trkpt lat="45.028624546633296" lon="9.165602064597078"><ele>86.0</ele><time>2026-04-19T16:56:47Z</time></trkpt><trkpt lat="45.0284639273334" lon="9.165245829955664"><ele>86.5</ele><time>2026-04-19T16:56:48Z</time></trkpt><trkpt lat="45.02830442307204" lon="9.164892567122214"><ele>87.0</ele><time>2026-04-19T16:56:49Z</time></trkpt><trkpt lat="45.02814747931256" lon="9.164544980407909"><ele>87.0</ele><time>2026-04-19T16:56:50Z</time></trkpt><trkpt lat="45.02799360746383" lon="9.164204197116756"><ele>87.0</ele><time>2026-04-19T16:56:51Z</time></trkpt><trkpt lat="45.027838208097386" lon="9.163898666640602"><ele>88.0</ele><time>2026-04-19T16:56:52Z</time></trkpt><trkpt lat="45.02771479997995" lon="9.163599997805704"><ele>89.0</ele><time>2026-04-19T16:56:53Z</time></trkpt><trkpt lat="45.02759814654504" lon="9.1633161314808"><ele>88.66666666666667</ele><time>2026-04-19T16:56:54Z</time></trkpt><trkpt lat="45.027482771643534" lon="9.163054282374702"><ele>88.33333333333333</ele><time>2026-04-19T16:56:55Z</time></trkpt><trkpt lat="45.02737509265575" lon="9.162805289841733"><ele>88.0</ele><time>2026-04-19T16:56:56Z</time></trkpt><trkpt lat="45.027283159793235" lon="9.16256964567228"><ele>87.33333333333333</ele><time>2026-04-19T16:56:57Z</time></trkpt><trkpt lat="45.02719892675447" lon="9.162325603280122"><ele>86.66666666666667</ele><time>2026-04-19T16:56:58Z</time></trkpt><trkpt lat="45.027115839912234" lon="9.162068108926995"><ele>86.0</ele><time>2026-04-19T16:56:59Z</time></trkpt><trkpt lat="45.02703719095963" lon="9.161798196815552"><ele>86.0</ele><time>2026-04-19T16:57:00Z</time></trkpt><trkpt lat="45.026966557312875" lon="9.161538839796126"><ele>86.0</ele><time>2026-04-19T16:57:01Z</time></trkpt><trkpt lat="45.0268994889018" lon="9.16130212239502"><ele>86.0</ele><time>2026-04-19T16:57:02Z</time></trkpt><trkpt lat="45.02683898706846" lon="9.161089974652969"><ele>85.8</ele><time>2026-04-19T16:57:03Z</time></trkpt><trkpt lat="45.02678431005218" lon="9.160902165643252"><ele>85.6</ele><time>2026-04-19T16:57:04Z</time></trkpt><trkpt lat="45.02674128074537" lon="9.160748798753856"><ele>85.4</ele><time>2026-04-19T16:57:05Z</time></trkpt><trkpt lat="45.02671233177744" lon="9.160616496784328"><ele>85.2</ele><time>2026-04-19T16:57:06Z</time></trkpt><trkpt lat="45.02670019217074" lon="9.160491148435566"><ele>85.0</ele><time>2026-04-19T16:57:07Z</time></trkpt><trkpt lat="45.02670797651344" lon="9.160358019621599"><ele>84.8</ele><time>2026-04-19T16:57:08Z</time></trkpt><trkpt lat="45.02671442959104" lon="9.160221815633559"><ele>84.6</ele><time>2026-04-19T16:57:09Z</time></trkpt><trkpt lat="45.02668368601936" lon="9.160096782042299"><ele>84.4</ele><time>2026-04-19T16:57:10Z</time></trkpt><trkpt lat="45.026624366557634" lon="9.159985184380647"><ele>84.2</ele><time>2026-04-19T16:57:11Z</time></trkpt><trkpt lat="45.02654749343236" lon="9.159900249515314"><ele>84.0</ele><time>2026-04-19T16:57:12Z</time></trkpt><trkpt lat="45.02649599323644" lon="9.159834454173676"><ele>85.25</ele><time>2026-04-19T16:57:13Z</time></trkpt><trkpt lat="45.02643923875136" lon="9.159685441588262"><ele>86.5</ele><time>2026-04-19T16:57:15Z</time></trkpt><trkpt lat="45.02640067074643" lon="9.159557971057408"><ele>87.75</ele><time>2026-04-19T16:57:16Z</time></trkpt><trkpt lat="45.02635357055126" lon="9.159398483411561"><ele>89.0</ele><time>2026-04-19T16:57:17Z</time></trkpt><trkpt lat="45.02630765089816" lon="9.159226944912016"><ele>89.33333333333334</ele><time>2026-04-19T16:57:18Z</time></trkpt><trkpt lat="45.02624778093467" lon="9.159017306513954"><ele>89.66666666666667</ele><time>2026-04-19T16:57:19Z</time></trkpt><trkpt lat="45.0261808651431" lon="9.158773942483501"><ele>90.0</ele><time>2026-04-19T16:57:20Z</time></trkpt><trkpt lat="45.02610110719546" lon="9.158491642519234"><ele>90.5</ele><time>2026-04-19T16:57:21Z</time></trkpt><trkpt lat="45.026021952673965" lon="9.158182409052415"><ele>91.0</ele><time>2026-04-19T16:57:22Z</time></trkpt><trkpt lat="45.025945656458056" lon="9.157887334317437"><ele>91.0</ele><time>2026-04-19T16:57:23Z</time></trkpt><trkpt lat="45.025861850640915" lon="9.157585994712306"><ele>91.0</ele><time>2026-04-19T16:57:24Z</time></trkpt><trkpt lat="45.02578134550085" lon="9.157294863762505"><ele>92.0</ele><time>2026-04-19T16:57:25Z</time></trkpt><trkpt lat="45.025706486955094" lon="9.157023041771188"><ele>93.0</ele><time>2026-04-19T16:57:26Z</time></trkpt><trkpt lat="45.02563138503343" lon="9.156756539863876"><ele>94.0</ele><time>2026-04-19T16:57:27Z</time></trkpt><trkpt lat="45.02555173039859" lon="9.156484513695068"><ele>94.33333333333333</ele><time>2026-04-19T16:57:28Z</time></trkpt><trkpt lat="45.02546744550088" lon="9.15620593387528"><ele>94.66666666666667</ele><time>2026-04-19T16:57:29Z</time></trkpt><trkpt lat="45.025387267914304" lon="9.155916389867368"><ele>95.0</ele><time>2026-04-19T16:57:30Z</time></trkpt><trkpt lat="45.025307998567285" lon="9.155622196713427"><ele>93.5</ele><time>2026-04-19T16:57:31Z</time></trkpt><trkpt lat="45.025227476822764" lon="9.155320296735516"><ele>92.0</ele><time>2026-04-19T16:57:32Z</time></trkpt><trkpt lat="45.025148450697266" lon="9.155023452622105"><ele>92.0</ele><time>2026-04-19T16:57:33Z</time></trkpt><trkpt lat="45.02506029171556" lon="9.154707098799577"><ele>92.0</ele><time>2026-04-19T16:57:34Z</time></trkpt><trkpt lat="45.02497050610869" lon="9.154377432659194"><ele>92.0</ele><time>2026-04-19T16:57:35Z</time></trkpt><trkpt lat="45.02488197728695" lon="9.15404208251891"><ele>92.0</ele><time>2026-04-19T16:57:36Z</time></trkpt><trkpt lat="45.02479157839447" lon="9.153728068989006"><ele>91.33333333333334</ele><time>2026-04-19T16:57:37Z</time></trkpt><trkpt lat="45.02471368585704" lon="9.153438421634949"><ele>90.66666666666667</ele><time>2026-04-19T16:57:38Z</time></trkpt><trkpt lat="45.024638446802" lon="9.153168342186325"><ele>90.0</ele><time>2026-04-19T16:57:39Z</time></trkpt><trkpt lat="45.024565336007115" lon="9.152906222558789"><ele>90.0</ele><time>2026-04-19T16:57:39.999Z</time></trkpt><trkpt lat="45.0244981646814" lon="9.152661228393248"><ele>90.0</ele><time>2026-04-19T16:57:40.999Z</time></trkpt><trkpt lat="45.02443269499235" lon="9.15243744211037"><ele>90.0</ele><time>2026-04-19T16:57:41.999Z</time></trkpt><trkpt lat="45.024369993803774" lon="9.152227417114563"><ele>90.0</ele><time>2026-04-19T16:57:42.999Z</time></trkpt><trkpt lat="45.02431396513937" lon="9.152030939587778"><ele>90.0</ele><time>2026-04-19T16:57:43.999Z</time></trkpt><trkpt lat="45.02426728846322" lon="9.15186162276277"><ele>90.0</ele><time>2026-04-19T16:57:44.999Z</time></trkpt><trkpt lat="45.024227311588994" lon="9.151734844491267"><ele>90.0</ele><time>2026-04-19T16:57:45.999Z</time></trkpt><trkpt lat="45.02419307348348" lon="9.151614762721238"><ele>90.0</ele><time>2026-04-19T16:57:46.999Z</time></trkpt><trkpt lat="45.02413662001854" lon="9.15141293401967"><ele>90.0</ele><time>2026-04-19T16:57:47.999Z</time></trkpt><trkpt lat="45.02410977250029" lon="9.151320788189599"><ele>90.0</ele><time>2026-04-19T16:57:48.999Z</time></trkpt><trkpt lat="45.02406929773125" lon="9.151161721909402"><ele>90.0</ele><time>2026-04-19T16:57:51Z</time></trkpt><trkpt lat="45.02402985634248" lon="9.15099747936946"><ele>90.0</ele><time>2026-04-19T16:57:53Z</time></trkpt><trkpt lat="45.0240089934067" lon="9.150897056395811"><ele>90.0</ele><time>2026-04-19T16:57:54Z</time></trkpt><trkpt lat="45.02398205403029" lon="9.150792833674913"><ele>90.0</ele><time>2026-04-19T16:57:55Z</time></trkpt><trkpt lat="45.023948918408564" lon="9.150679287524802"><ele>90.0</ele><time>2026-04-19T16:57:56Z</time></trkpt><trkpt lat="45.02391071183045" lon="9.150548015185532"><ele>90.0</ele><time>2026-04-19T16:57:57Z</time></trkpt><trkpt lat="45.02387032098529" lon="9.150416648865129"><ele>90.0</ele><time>2026-04-19T16:57:58Z</time></trkpt><trkpt lat="45.02382981315412" lon="9.150278150222535"><ele>90.0</ele><time>2026-04-19T16:57:59Z</time></trkpt><trkpt lat="45.02378727300172" lon="9.150115208305744"><ele>90.0</ele><time>2026-04-19T16:58:00Z</time></trkpt><trkpt lat="45.02373343471525" lon="9.149925119838564"><ele>90.0</ele><time>2026-04-19T16:58:01Z</time></trkpt><trkpt lat="45.023674729649876" lon="9.149735147277303"><ele>90.0</ele><time>2026-04-19T16:58:02Z</time></trkpt><trkpt lat="45.023608719299155" lon="9.149520847061487"><ele>89.33333333333333</ele><time>2026-04-19T16:58:03Z</time></trkpt><trkpt lat="45.02354048621567" lon="9.149275072941172"><ele>88.66666666666666</ele><time>2026-04-19T16:58:04Z</time></trkpt><trkpt lat="45.023468409710944" lon="9.149004263753078"><ele>88.0</ele><time>2026-04-19T16:58:05Z</time></trkpt><trkpt lat="45.023394852207986" lon="9.14874154281599"><ele>87.5</ele><time>2026-04-19T16:58:06Z</time></trkpt><trkpt lat="45.02331589630798" lon="9.148450412815816"><ele>87.0</ele><time>2026-04-19T16:58:07Z</time></trkpt><trkpt lat="45.023231319669065" lon="9.14814519629718"><ele>86.66666666666667</ele><time>2026-04-19T16:58:08Z</time></trkpt><trkpt lat="45.02315298515366" lon="9.147882123938935"><ele>86.33333333333334</ele><time>2026-04-19T16:58:09Z</time></trkpt><trkpt lat="45.02308590046076" lon="9.147629700190027"><ele>86.0</ele><time>2026-04-19T16:58:10Z</time></trkpt><trkpt lat="45.02303349080061" lon="9.147393355140807"><ele>85.66666666666667</ele><time>2026-04-19T16:58:11Z</time></trkpt><trkpt lat="45.022960894856915" lon="9.147137720283931"><ele>85.33333333333333</ele><time>2026-04-19T16:58:12Z</time></trkpt><trkpt lat="45.022878346345365" lon="9.146866266168919"><ele>85.0</ele><time>2026-04-19T16:58:13Z</time></trkpt><trkpt lat="45.02279176198834" lon="9.146574168225685"><ele>85.0</ele><time>2026-04-19T16:58:14Z</time></trkpt><trkpt lat="45.02272847695331" lon="9.146334144191936"><ele>85.0</ele><time>2026-04-19T16:58:15Z</time></trkpt><trkpt lat="45.02268585459673" lon="9.146093004360491"><ele>85.0</ele><time>2026-04-19T16:58:16Z</time></trkpt><trkpt lat="45.0225963105339" lon="9.14582649500142"><ele>85.0</ele><time>2026-04-19T16:58:17Z</time></trkpt><trkpt lat="45.02251138086524" lon="9.145549257509723"><ele>85.0</ele><time>2026-04-19T16:58:18Z</time></trkpt><trkpt lat="45.02243816798535" lon="9.145250974284549"><ele>85.0</ele><time>2026-04-19T16:58:19Z</time></trkpt><trkpt lat="45.02236112850265" lon="9.144951350791656"><ele>85.0</ele><time>2026-04-19T16:58:20Z</time></trkpt><trkpt lat="45.022272985631936" lon="9.144643305023823"><ele>85.0</ele><time>2026-04-19T16:58:21Z</time></trkpt><trkpt lat="45.02217920563431" lon="9.14432548410972"><ele>85.66666666666666</ele><time>2026-04-19T16:58:22Z</time></trkpt><trkpt lat="45.02209566949803" lon="9.144028018827699"><ele>86.33333333333333</ele><time>2026-04-19T16:58:23Z</time></trkpt><trkpt lat="45.022018763585116" lon="9.143755325122799"><ele>87.0</ele><time>2026-04-19T16:58:24Z</time></trkpt><trkpt lat="45.02193918230067" lon="9.143482992734324"><ele>86.5</ele><time>2026-04-19T16:58:25Z</time></trkpt><trkpt lat="45.02185253737101" lon="9.143189880738474"><ele>86.0</ele><time>2026-04-19T16:58:26Z</time></trkpt><trkpt lat="45.02176855924965" lon="9.14287868872065"><ele>86.0</ele><time>2026-04-19T16:58:27Z</time></trkpt><trkpt lat="45.02169495867858" lon="9.142583124823798"><ele>86.0</ele><time>2026-04-19T16:58:28Z</time></trkpt><trkpt lat="45.021622758213766" lon="9.142325174259005"><ele>86.0</ele><time>2026-04-19T16:58:29Z</time></trkpt><trkpt lat="45.02155527227063" lon="9.142086318468511"><ele>85.33333333333334</ele><time>2026-04-19T16:58:30Z</time></trkpt><trkpt lat="45.021489171345735" lon="9.141861392502232"><ele>84.66666666666667</ele><time>2026-04-19T16:58:31Z</time></trkpt><trkpt lat="45.02142628932677" lon="9.141648112675396"><ele>84.0</ele><time>2026-04-19T16:58:32Z</time></trkpt><trkpt lat="45.021365845167" lon="9.141425936046202"><ele>84.0</ele><time>2026-04-19T16:58:33Z</time></trkpt><trkpt lat="45.021301689985236" lon="9.141194286915814"><ele>84.0</ele><time>2026-04-19T16:58:34Z</time></trkpt><trkpt lat="45.02124094408611" lon="9.140975309273111"><ele>84.0</ele><time>2026-04-19T16:58:35Z</time></trkpt><trkpt lat="45.02118983430862" lon="9.140776647548913"><ele>84.0</ele><time>2026-04-19T16:58:36Z</time></trkpt><trkpt lat="45.021139011932114" lon="9.140587803867145"><ele>84.0</ele><time>2026-04-19T16:58:37Z</time></trkpt><trkpt lat="45.0210873282176" lon="9.140392522281957"><ele>84.0</ele><time>2026-04-19T16:58:38Z</time></trkpt><trkpt lat="45.021034018108686" lon="9.140197730520207"><ele>84.0</ele><time>2026-04-19T16:58:39Z</time></trkpt><trkpt lat="45.02098087396465" lon="9.139998476190648"><ele>84.0</ele><time>2026-04-19T16:58:40Z</time></trkpt><trkpt lat="45.02092060157926" lon="9.139793325328752"><ele>84.0</ele><time>2026-04-19T16:58:41Z</time></trkpt><trkpt lat="45.02085539367625" lon="9.139577252198727"><ele>84.0</ele><time>2026-04-19T16:58:42Z</time></trkpt><trkpt lat="45.02078893208583" lon="9.139345085570985"><ele>84.66666666666667</ele><time>2026-04-19T16:58:43Z</time></trkpt><trkpt lat="45.02072376850453" lon="9.13911075147639"><ele>85.33333333333334</ele><time>2026-04-19T16:58:44Z</time></trkpt><trkpt lat="45.02066266884266" lon="9.138894554712106"><ele>86.0</ele><time>2026-04-19T16:58:45Z</time></trkpt><trkpt lat="45.02060612111481" lon="9.13868631247143"><ele>86.0</ele><time>2026-04-19T16:58:46Z</time></trkpt><trkpt lat="45.02055255962087" lon="9.138484340560463"><ele>86.0</ele><time>2026-04-19T16:58:47Z</time></trkpt><trkpt lat="45.02049590237929" lon="9.138275872893479"><ele>86.0</ele><time>2026-04-19T16:58:48Z</time></trkpt><trkpt lat="45.02044041694552" lon="9.138076162321665"><ele>86.33333333333334</ele><time>2026-04-19T16:58:49Z</time></trkpt><trkpt lat="45.02038367386933" lon="9.137874307035082"><ele>86.66666666666667</ele><time>2026-04-19T16:58:50Z</time></trkpt><trkpt lat="45.02032421584851" lon="9.137670002437616"><ele>87.0</ele><time>2026-04-19T16:58:51Z</time></trkpt><trkpt lat="45.02026223903568" lon="9.137449954058992"><ele>87.0</ele><time>2026-04-19T16:58:52Z</time></trkpt><trkpt lat="45.02019945822434" lon="9.137248162744262"><ele>87.0</ele><time>2026-04-19T16:58:53Z</time></trkpt><trkpt lat="45.020143000396054" lon="9.13705731986675"><ele>87.0</ele><time>2026-04-19T16:58:54Z</time></trkpt><trkpt lat="45.02007704357566" lon="9.136866422873647"><ele>87.0</ele><time>2026-04-19T16:58:55Z</time></trkpt><trkpt lat="45.01999801901323" lon="9.136675577993664"><ele>87.0</ele><time>2026-04-19T16:58:56Z</time></trkpt><trkpt lat="45.01992169535925" lon="9.136487886840776"><ele>87.0</ele><time>2026-04-19T16:58:57Z</time></trkpt><trkpt lat="45.01983457355488" lon="9.136308032749719"><ele>87.0</ele><time>2026-04-19T16:58:58Z</time></trkpt><trkpt lat="45.01974439985421" lon="9.136129731741907"><ele>87.0</ele><time>2026-04-19T16:58:59Z</time></trkpt><trkpt lat="45.0196484378847" lon="9.135955468313504"><ele>87.0</ele><time>2026-04-19T16:59:00Z</time></trkpt><trkpt lat="45.01954708421515" lon="9.135783817806184"><ele>87.33333333333333</ele><time>2026-04-19T16:59:01Z</time></trkpt><trkpt lat="45.01944397449769" lon="9.13561543467974"><ele>87.66666666666666</ele><time>2026-04-19T16:59:02Z</time></trkpt><trkpt lat="45.01931911654943" lon="9.13542173592523"><ele>88.0</ele><time>2026-04-19T16:59:03Z</time></trkpt><trkpt lat="45.01917316337085" lon="9.135185786848156"><ele>88.0</ele><time>2026-04-19T16:59:04Z</time></trkpt><trkpt lat="45.01900954312257" lon="9.134922186607037"><ele>88.0</ele><time>2026-04-19T16:59:05Z</time></trkpt><trkpt lat="45.01884913537948" lon="9.13465648849231"><ele>87.66666666666666</ele><time>2026-04-19T16:59:06Z</time></trkpt><trkpt lat="45.01871355643361" lon="9.134419498135362"><ele>87.33333333333333</ele><time>2026-04-19T16:59:07Z</time></trkpt><trkpt lat="45.018591904171615" lon="9.134214026988259"><ele>87.0</ele><time>2026-04-19T16:59:08Z</time></trkpt><trkpt lat="45.018476612062805" lon="9.134019015022739"><ele>86.66666666666667</ele><time>2026-04-19T16:59:09Z</time></trkpt><trkpt lat="45.018367960614775" lon="9.133837968960663"><ele>86.33333333333334</ele><time>2026-04-19T16:59:10Z</time></trkpt><trkpt lat="45.01826233509681" lon="9.133677416511317"><ele>86.0</ele><time>2026-04-19T16:59:11Z</time></trkpt><trkpt lat="45.01816140424334" lon="9.133533818777828"><ele>86.5</ele><time>2026-04-19T16:59:12Z</time></trkpt><trkpt lat="45.018070468873255" lon="9.133390319519663"><ele>87.0</ele><time>2026-04-19T16:59:13Z</time></trkpt><trkpt lat="45.01798751360375" lon="9.133250494781313"><ele>87.5</ele><time>2026-04-19T16:59:14Z</time></trkpt><trkpt lat="45.01792190939214" lon="9.133116605624092"><ele>88.0</ele><time>2026-04-19T16:59:15Z</time></trkpt><trkpt lat="45.01787976483893" lon="9.132986969707016"><ele>88.0</ele><time>2026-04-19T16:59:16Z</time></trkpt><trkpt lat="45.017860748052094" lon="9.13287547124779"><ele>88.0</ele><time>2026-04-19T16:59:17Z</time></trkpt><trkpt lat="45.017850813897645" lon="9.132769540849889"><ele>88.0</ele><time>2026-04-19T16:59:18Z</time></trkpt><trkpt lat="45.01785430667667" lon="9.13266383270085"><ele>88.0</ele><time>2026-04-19T16:59:19Z</time></trkpt><trkpt lat="45.01786120114686" lon="9.132541974777007"><ele>88.0</ele><time>2026-04-19T16:59:20Z</time></trkpt><trkpt lat="45.01784410680628" lon="9.13242236675924"><ele>88.0</ele><time>2026-04-19T16:59:21Z</time></trkpt><trkpt lat="45.017783144393164" lon="9.13234157818758"><ele>88.0</ele><time>2026-04-19T16:59:22Z</time></trkpt><trkpt lat="45.017694848669734" lon="9.132293910713027"><ele>88.0</ele><time>2026-04-19T16:59:23Z</time></trkpt><trkpt lat="45.01758782934501" lon="9.132275754430733"><ele>88.0</ele><time>2026-04-19T16:59:24Z</time></trkpt><trkpt lat="45.01747258002236" lon="9.132262604435313"><ele>88.0</ele><time>2026-04-19T16:59:25Z</time></trkpt><trkpt lat="45.017361915050984" lon="9.132192609196343"><ele>88.0</ele><time>2026-04-19T16:59:26Z</time></trkpt><trkpt lat="45.01727789349056" lon="9.132091815593817"><ele>88.16666666666666</ele><time>2026-04-19T16:59:27Z</time></trkpt><trkpt lat="45.01720345720166" lon="9.132023415170714"><ele>88.33333333333333</ele><time>2026-04-19T16:59:28Z</time></trkpt><trkpt lat="45.01715081619357" lon="9.131917967116987"><ele>88.5</ele><time>2026-04-19T16:59:29Z</time></trkpt><trkpt lat="45.01709955385893" lon="9.13183344981222"><ele>88.66666666666667</ele><time>2026-04-19T16:59:30Z</time></trkpt><trkpt lat="45.017045210880276" lon="9.131745870633639"><ele>88.83333333333334</ele><time>2026-04-19T16:59:31Z</time></trkpt><trkpt lat="45.01698733163314" lon="9.131655230379074"><ele>89.0</ele><time>2026-04-19T16:59:32Z</time></trkpt><trkpt lat="45.01693066760421" lon="9.131572877570179"><ele>89.0</ele><time>2026-04-19T16:59:33Z</time></trkpt><trkpt lat="45.0168653248542" lon="9.131466793717347"><ele>89.0</ele><time>2026-04-19T16:59:34Z</time></trkpt><trkpt lat="45.016801908019936" lon="9.131356245343893"><ele>89.0</ele><time>2026-04-19T16:59:35Z</time></trkpt><trkpt lat="45.016753664080944" lon="9.13125848637759"><ele>89.0</ele><time>2026-04-19T16:59:36Z</time></trkpt><trkpt lat="45.01671257797688" lon="9.131179482343462"><ele>89.0</ele><time>2026-04-19T16:59:37Z</time></trkpt><trkpt lat="45.01667337762163" lon="9.13109722428353"><ele>89.0</ele><time>2026-04-19T16:59:38Z</time></trkpt><trkpt lat="45.01661828920493" lon="9.130954795793489"><ele>89.0</ele><time>2026-04-19T16:59:40Z</time></trkpt><trkpt lat="45.01655923185457" lon="9.130801202032046"><ele>89.0</ele><time>2026-04-19T16:59:42Z</time></trkpt><trkpt lat="45.01652239963009" lon="9.130651472031778"><ele>89.0</ele><time>2026-04-19T16:59:44Z</time></trkpt><trkpt lat="45.01650329908683" lon="9.130558782638559"><ele>89.0</ele><time>2026-04-19T16:59:45Z</time></trkpt><trkpt lat="45.016481497376276" lon="9.130463623797187"><ele>89.0</ele><time>2026-04-19T16:59:46Z</time></trkpt><trkpt lat="45.01646019262274" lon="9.130365015394679"><ele>89.0</ele><time>2026-04-19T16:59:47Z</time></trkpt><trkpt lat="45.01643814855863" lon="9.13026747794159"><ele>89.0</ele><time>2026-04-19T16:59:48Z</time></trkpt><trkpt lat="45.01641385766239" lon="9.13016609845941"><ele>89.0</ele><time>2026-04-19T16:59:49Z</time></trkpt><trkpt lat="45.01638991992397" lon="9.130058337345684"><ele>89.0</ele><time>2026-04-19T16:59:50Z</time></trkpt><trkpt lat="45.01636677824828" lon="9.12994822887613"><ele>89.0</ele><time>2026-04-19T16:59:51Z</time></trkpt><trkpt lat="45.0163382947954" lon="9.129812312085392"><ele>89.0</ele><time>2026-04-19T16:59:52Z</time></trkpt><trkpt lat="45.01630011438222" lon="9.12962368079597"><ele>89.25</ele><time>2026-04-19T16:59:53Z</time></trkpt><trkpt lat="45.01626932724351" lon="9.129417366939217"><ele>89.5</ele><time>2026-04-19T16:59:53.999Z</time></trkpt><trkpt lat="45.01624868441846" lon="9.12922648099658"><ele>89.75</ele><time>2026-04-19T16:59:54.999Z</time></trkpt><trkpt lat="45.01622481469547" lon="9.129065955766338"><ele>90.0</ele><time>2026-04-19T16:59:56Z</time></trkpt><trkpt lat="45.01620633417282" lon="9.128925477969224"><ele>90.2</ele><time>2026-04-19T16:59:57Z</time></trkpt><trkpt lat="45.016187807095484" lon="9.128793002769122"><ele>90.4</ele><time>2026-04-19T16:59:58Z</time></trkpt><trkpt lat="45.01618024845767" lon="9.128664095886657"><ele>90.6</ele><time>2026-04-19T16:59:59Z</time></trkpt><trkpt lat="45.01615460212518" lon="9.128527549130164"><ele>90.8</ele><time>2026-04-19T17:00:00Z</time></trkpt><trkpt lat="45.01611944190632" lon="9.12837064959006"><ele>91.0</ele><time>2026-04-19T17:00:01Z</time></trkpt><trkpt lat="45.01608363350107" lon="9.128205853406001"><ele>91.0</ele><time>2026-04-19T17:00:02Z</time></trkpt><trkpt lat="45.01606098146046" lon="9.128043595189782"><ele>91.0</ele><time>2026-04-19T17:00:03Z</time></trkpt><trkpt lat="45.01602785093323" lon="9.127874506962746"><ele>91.0</ele><time>2026-04-19T17:00:04Z</time></trkpt><trkpt lat="45.016000641615406" lon="9.127726435254568"><ele>91.0</ele><time>2026-04-19T17:00:05Z</time></trkpt><trkpt lat="45.01598126236062" lon="9.127606759601374"><ele>91.0</ele><time>2026-04-19T17:00:06Z</time></trkpt><trkpt lat="45.01595994852566" lon="9.127496332974559"><ele>90.83333333333333</ele><time>2026-04-19T17:00:07Z</time></trkpt><trkpt lat="45.01594755063677" lon="9.127383363208743"><ele>90.66666666666666</ele><time>2026-04-19T17:00:08Z</time></trkpt><trkpt lat="45.01592753543425" lon="9.127275429253107"><ele>90.5</ele><time>2026-04-19T17:00:09Z</time></trkpt><trkpt lat="45.01590811832637" lon="9.127165750643885"><ele>90.33333333333333</ele><time>2026-04-19T17:00:10Z</time></trkpt><trkpt lat="45.01589192625771" lon="9.12706134058407"><ele>90.16666666666667</ele><time>2026-04-19T17:00:11Z</time></trkpt><trkpt lat="45.0158758894991" lon="9.126967409515101"><ele>90.0</ele><time>2026-04-19T17:00:12Z</time></trkpt><trkpt lat="45.01585145958518" lon="9.12681598442567"><ele>90.0</ele><time>2026-04-19T17:00:14Z</time></trkpt><trkpt lat="45.01582594894693" lon="9.126684832625473"><ele>90.0</ele><time>2026-04-19T17:00:16Z</time></trkpt><trkpt lat="45.01579981994376" lon="9.126549226284418"><ele>90.0</ele><time>2026-04-19T17:00:18Z</time></trkpt><trkpt lat="45.01576930943149" lon="9.126379812483723"><ele>90.0</ele><time>2026-04-19T17:00:20Z</time></trkpt><trkpt lat="45.015744749600316" lon="9.12625971788007"><ele>90.0</ele><time>2026-04-19T17:00:21Z</time></trkpt><trkpt lat="45.01572035590147" lon="9.126124626392587"><ele>90.16666666666667</ele><time>2026-04-19T17:00:22Z</time></trkpt><trkpt lat="45.01570065249246" lon="9.126007930735053"><ele>90.33333333333333</ele><time>2026-04-19T17:00:23Z</time></trkpt><trkpt lat="45.01567918999559" lon="9.12585444340184"><ele>90.5</ele><time>2026-04-19T17:00:25Z</time></trkpt><trkpt lat="45.01567222460874" lon="9.12576203751003"><ele>90.66666666666666</ele><time>2026-04-19T17:00:29Z</time></trkpt><trkpt lat="45.01566697727737" lon="9.125648336285233"><ele>90.83333333333333</ele><time>2026-04-19T17:00:55Z</time></trkpt><trkpt lat="45.01569653034965" lon="9.125551319430489"><ele>91.0</ele><time>2026-04-19T17:00:58Z</time></trkpt><trkpt lat="45.0157737744045" lon="9.125525276889958"><ele>91.0</ele><time>2026-04-19T17:01:01Z</time></trkpt><trkpt lat="45.015835231840384" lon="9.125497576623097"><ele>91.0</ele><time>2026-04-19T17:01:04Z</time></trkpt><trkpt lat="45.015902480077735" lon="9.12545091984283"><ele>91.0</ele><time>2026-04-19T17:01:08Z</time></trkpt><trkpt lat="45.01596921243541" lon="9.125435398647468"><ele>91.0</ele><time>2026-04-19T17:01:13Z</time></trkpt><trkpt lat="45.01591233280162" lon="9.125384616477497"><ele>91.0</ele><time>2026-04-19T17:02:15Z</time></trkpt><trkpt lat="45.015845029563536" lon="9.125388751348277"><ele>91.0</ele><time>2026-04-19T17:02:21Z</time></trkpt><trkpt lat="45.01583345303198" lon="9.125495221131475"><ele>91.0</ele><time>2026-04-19T17:02:23Z</time></trkpt><trkpt lat="45.01578896848111" lon="9.12540599498533"><ele>91.0</ele><time>2026-04-19T17:02:26Z</time></trkpt><trkpt lat="45.01572107915305" lon="9.125404748401637"><ele>91.0</ele><time>2026-04-19T17:02:30Z</time></trkpt><trkpt lat="45.015653457765694" lon="9.125458456603393"><ele>91.0</ele><time>2026-04-19T17:02:37Z</time></trkpt><trkpt lat="45.01557347802815" lon="9.125477213780494"><ele>91.0</ele><time>2026-04-19T17:03:43Z</time></trkpt><trkpt lat="45.01551525492955" lon="9.125515301581164"><ele>91.0</ele><time>2026-04-19T17:03:50Z</time></trkpt><trkpt lat="45.01556665523256" lon="9.12559777207197"><ele>91.0</ele><time>2026-04-19T17:03:59Z</time></trkpt><trkpt lat="45.0154812045077" lon="9.125590731837569"><ele>91.0</ele><time>2026-04-19T17:04:02.999Z</time></trkpt><trkpt lat="45.01541576612924" lon="9.125616693877642"><ele>91.0</ele><time>2026-04-19T17:04:08Z</time></trkpt><trkpt lat="45.015343517162066" lon="9.125700408024713"><ele>91.0</ele><time>2026-04-19T17:04:34Z</time></trkpt><trkpt lat="45.01528067865473" lon="9.12567319509447"><ele>91.0</ele><time>2026-04-19T17:04:45Z</time></trkpt><trkpt lat="45.015249030162934" lon="9.125580083300125"><ele>91.0</ele><time>2026-04-19T17:05:06Z</time></trkpt><trkpt lat="45.01524294868425" lon="9.125490386046042"><ele>91.0</ele><time>2026-04-19T17:05:13Z</time></trkpt><trkpt lat="45.01521579402274" lon="9.125407090496301"><ele>91.0</ele><time>2026-04-19T17:05:19Z</time></trkpt><trkpt lat="45.01520087798304" lon="9.12531818016043"><ele>91.0</ele><time>2026-04-19T17:05:27Z</time></trkpt><trkpt lat="45.015143619685446" lon="9.125263951112508"><ele>91.0</ele><time>2026-04-19T17:05:37Z</time></trkpt><trkpt lat="45.01520453446077" lon="9.1252188787895"><ele>91.0</ele><time>2026-04-19T17:05:41Z</time></trkpt><trkpt lat="45.01514217250001" lon="9.12513964084613"><ele>91.0</ele><time>2026-04-19T17:06:17Z</time></trkpt><trkpt lat="45.01513687159284" lon="9.125049692263977"><ele>91.0</ele><time>2026-04-19T17:06:24Z</time></trkpt><trkpt lat="45.01506228267189" lon="9.12499813621111"><ele>91.0</ele><time>2026-04-19T17:06:42Z</time></trkpt><trkpt lat="45.015080880239495" lon="9.125103145708072"><ele>91.0</ele><time>2026-04-19T17:08:26Z</time></trkpt><trkpt lat="45.01503516192263" lon="9.125181142549868"><ele>91.0</ele><time>2026-04-19T17:08:29Z</time></trkpt><trkpt lat="45.01509649293141" lon="9.125212610276254"><ele>91.0</ele><time>2026-04-19T17:08:42Z</time></trkpt><trkpt lat="45.01512367376426" lon="9.125294292947348"><ele>91.0</ele><time>2026-04-19T17:08:47Z</time></trkpt><trkpt lat="45.015191462048136" lon="9.125313934900005"><ele>91.0</ele><time>2026-04-19T17:08:57Z</time></trkpt><trkpt lat="45.01521739887682" lon="9.125429795797828"><ele>91.0</ele><time>2026-04-19T17:09:03Z</time></trkpt><trkpt lat="45.0151889360758" lon="9.125510729317137"><ele>91.0</ele><time>2026-04-19T17:09:14Z</time></trkpt><trkpt lat="45.01520108092793" lon="9.125617181646092"><ele>91.0</ele><time>2026-04-19T17:09:25Z</time></trkpt><trkpt lat="45.01522447111189" lon="9.125708705546597"><ele>91.0</ele><time>2026-04-19T17:09:37Z</time></trkpt><trkpt lat="45.01529401167392" lon="9.125692687088195"><ele>91.0</ele><time>2026-04-19T17:09:47Z</time></trkpt><trkpt lat="45.01537041257755" lon="9.125663145732519"><ele>91.0</ele><time>2026-04-19T17:09:54Z</time></trkpt><trkpt lat="45.01543693986539" lon="9.125634944338191"><ele>91.0</ele><time>2026-04-19T17:10:21.999Z</time></trkpt></trkseg></trk></gpx>